<?xml version="1.0" encoding="UTF-8"?>
<gpx creator="Wikiloc - http://www.wikiloc.com" version="1.1" xmlns="http://www.topografix.com/GPX/1/1" xmlns:xsi="http://www.w3.org/2001/XMLSchema-instance" xsi:schemaLocation="http://www.topografix.com/GPX/1/1 http://www.topografix.com/GPX/1/1/gpx.xsd">
  <trk>
    <name>Cross Ager - Pobla de Segur</name>
    <cmt></cmt>
    <desc></desc>
    <trkseg>
      <trkpt lat="42.046330" lon="0.746055">
        <ele>1535.0</ele>
        <time>2015-08-29T08:53:14Z</time>
      </trkpt>
      <trkpt lat="42.046465" lon="0.746058">
        <ele>1542.0</ele>
        <time>2015-08-29T08:53:16Z</time>
      </trkpt>
      <trkpt lat="42.046577" lon="0.746138">
        <ele>1548.0</ele>
        <time>2015-08-29T08:53:18Z</time>
      </trkpt>
      <trkpt lat="42.046158" lon="0.745925">
        <ele>1570.0</ele>
        <time>2015-08-29T08:53:19Z</time>
      </trkpt>
      <trkpt lat="42.046265" lon="0.745847">
        <ele>1542.0</ele>
        <time>2015-08-29T08:53:29Z</time>
      </trkpt>
      <trkpt lat="42.046272" lon="0.745770">
        <ele>1520.0</ele>
        <time>2015-08-29T08:54:06Z</time>
      </trkpt>
      <trkpt lat="42.046247" lon="0.745785">
        <ele>1519.0</ele>
        <time>2015-08-29T08:54:30Z</time>
      </trkpt>
      <trkpt lat="42.046263" lon="0.745742">
        <ele>1515.0</ele>
        <time>2015-08-29T08:54:46Z</time>
      </trkpt>
      <trkpt lat="42.046252" lon="0.745722">
        <ele>1511.0</ele>
        <time>2015-08-29T08:55:04Z</time>
      </trkpt>
      <trkpt lat="42.046307" lon="0.745733">
        <ele>1508.0</ele>
        <time>2015-08-29T08:55:35Z</time>
      </trkpt>
      <trkpt lat="42.046278" lon="0.745762">
        <ele>1503.0</ele>
        <time>2015-08-29T08:55:53Z</time>
      </trkpt>
      <trkpt lat="42.046237" lon="0.745785">
        <ele>1502.0</ele>
        <time>2015-08-29T08:55:54Z</time>
      </trkpt>
      <trkpt lat="42.046238" lon="0.745750">
        <ele>1500.0</ele>
        <time>2015-08-29T08:56:09Z</time>
      </trkpt>
      <trkpt lat="42.046175" lon="0.745810">
        <ele>1501.0</ele>
        <time>2015-08-29T08:56:11Z</time>
      </trkpt>
      <trkpt lat="42.046202" lon="0.745768">
        <ele>1501.0</ele>
        <time>2015-08-29T08:56:27Z</time>
      </trkpt>
      <trkpt lat="42.046250" lon="0.745725">
        <ele>1501.0</ele>
        <time>2015-08-29T08:56:44Z</time>
      </trkpt>
      <trkpt lat="42.046215" lon="0.745795">
        <ele>1500.0</ele>
        <time>2015-08-29T08:56:45Z</time>
      </trkpt>
      <trkpt lat="42.046252" lon="0.745755">
        <ele>1500.0</ele>
        <time>2015-08-29T08:56:46Z</time>
      </trkpt>
      <trkpt lat="42.046193" lon="0.745758">
        <ele>1500.0</ele>
        <time>2015-08-29T08:57:13Z</time>
      </trkpt>
      <trkpt lat="42.046227" lon="0.745735">
        <ele>1499.0</ele>
        <time>2015-08-29T08:57:16Z</time>
      </trkpt>
      <trkpt lat="42.046262" lon="0.745723">
        <ele>1499.0</ele>
        <time>2015-08-29T08:57:23Z</time>
      </trkpt>
      <trkpt lat="42.046310" lon="0.745745">
        <ele>1500.0</ele>
        <time>2015-08-29T08:57:45Z</time>
      </trkpt>
      <trkpt lat="42.046317" lon="0.745800">
        <ele>1500.0</ele>
        <time>2015-08-29T08:57:49Z</time>
      </trkpt>
      <trkpt lat="42.046370" lon="0.745750">
        <ele>1498.0</ele>
        <time>2015-08-29T08:57:51Z</time>
      </trkpt>
      <trkpt lat="42.046345" lon="0.745818">
        <ele>1497.0</ele>
        <time>2015-08-29T08:57:55Z</time>
      </trkpt>
      <trkpt lat="42.046318" lon="0.745860">
        <ele>1499.0</ele>
        <time>2015-08-29T08:58:02Z</time>
      </trkpt>
      <trkpt lat="42.046337" lon="0.745973">
        <ele>1499.0</ele>
        <time>2015-08-29T08:58:04Z</time>
      </trkpt>
      <trkpt lat="42.046313" lon="0.746105">
        <ele>1498.0</ele>
        <time>2015-08-29T08:58:05Z</time>
      </trkpt>
      <trkpt lat="42.046253" lon="0.746065">
        <ele>1498.0</ele>
        <time>2015-08-29T08:58:09Z</time>
      </trkpt>
      <trkpt lat="42.046200" lon="0.746130">
        <ele>1498.0</ele>
        <time>2015-08-29T08:58:12Z</time>
      </trkpt>
      <trkpt lat="42.046152" lon="0.746128">
        <ele>1497.0</ele>
        <time>2015-08-29T08:58:19Z</time>
      </trkpt>
      <trkpt lat="42.046135" lon="0.746082">
        <ele>1499.0</ele>
        <time>2015-08-29T08:58:22Z</time>
      </trkpt>
      <trkpt lat="42.046107" lon="0.746030">
        <ele>1504.0</ele>
        <time>2015-08-29T08:58:28Z</time>
      </trkpt>
      <trkpt lat="42.046090" lon="0.745987">
        <ele>1502.0</ele>
        <time>2015-08-29T08:58:30Z</time>
      </trkpt>
      <trkpt lat="42.046092" lon="0.745913">
        <ele>1501.0</ele>
        <time>2015-08-29T08:58:31Z</time>
      </trkpt>
      <trkpt lat="42.046070" lon="0.745937">
        <ele>1499.0</ele>
        <time>2015-08-29T08:58:57Z</time>
      </trkpt>
      <trkpt lat="42.046055" lon="0.745952">
        <ele>1498.0</ele>
        <time>2015-08-29T08:59:10Z</time>
      </trkpt>
      <trkpt lat="42.045995" lon="0.745955">
        <ele>1499.0</ele>
        <time>2015-08-29T08:59:12Z</time>
      </trkpt>
      <trkpt lat="42.045963" lon="0.745947">
        <ele>1499.0</ele>
        <time>2015-08-29T08:59:13Z</time>
      </trkpt>
      <trkpt lat="42.046000" lon="0.745917">
        <ele>1496.0</ele>
        <time>2015-08-29T08:59:17Z</time>
      </trkpt>
      <trkpt lat="42.046067" lon="0.745927">
        <ele>1494.0</ele>
        <time>2015-08-29T08:59:29Z</time>
      </trkpt>
      <trkpt lat="42.046088" lon="0.745902">
        <ele>1492.0</ele>
        <time>2015-08-29T08:59:45Z</time>
      </trkpt>
      <trkpt lat="42.046103" lon="0.745880">
        <ele>1489.0</ele>
        <time>2015-08-29T09:00:04Z</time>
      </trkpt>
      <trkpt lat="42.046082" lon="0.745863">
        <ele>1483.0</ele>
        <time>2015-08-29T09:00:33Z</time>
      </trkpt>
      <trkpt lat="42.046102" lon="0.745905">
        <ele>1484.0</ele>
        <time>2015-08-29T09:00:38Z</time>
      </trkpt>
      <trkpt lat="42.046168" lon="0.745955">
        <ele>1483.0</ele>
        <time>2015-08-29T09:00:40Z</time>
      </trkpt>
      <trkpt lat="42.046122" lon="0.745930">
        <ele>1481.0</ele>
        <time>2015-08-29T09:00:43Z</time>
      </trkpt>
      <trkpt lat="42.046078" lon="0.745918">
        <ele>1481.0</ele>
        <time>2015-08-29T09:00:57Z</time>
      </trkpt>
      <trkpt lat="42.046050" lon="0.745907">
        <ele>1480.0</ele>
        <time>2015-08-29T09:01:04Z</time>
      </trkpt>
      <trkpt lat="42.046015" lon="0.745893">
        <ele>1479.0</ele>
        <time>2015-08-29T09:01:17Z</time>
      </trkpt>
      <trkpt lat="42.045978" lon="0.745878">
        <ele>1479.0</ele>
        <time>2015-08-29T09:01:31Z</time>
      </trkpt>
      <trkpt lat="42.046040" lon="0.745905">
        <ele>1481.0</ele>
        <time>2015-08-29T09:01:46Z</time>
      </trkpt>
      <trkpt lat="42.046037" lon="0.745855">
        <ele>1480.0</ele>
        <time>2015-08-29T09:02:06Z</time>
      </trkpt>
      <trkpt lat="42.046005" lon="0.745843">
        <ele>1476.0</ele>
        <time>2015-08-29T09:02:36Z</time>
      </trkpt>
      <trkpt lat="42.045962" lon="0.745788">
        <ele>1474.0</ele>
        <time>2015-08-29T09:02:37Z</time>
      </trkpt>
      <trkpt lat="42.045935" lon="0.745822">
        <ele>1464.0</ele>
        <time>2015-08-29T09:02:47Z</time>
      </trkpt>
      <trkpt lat="42.045900" lon="0.745838">
        <ele>1456.0</ele>
        <time>2015-08-29T09:03:00Z</time>
      </trkpt>
      <trkpt lat="42.045908" lon="0.745882">
        <ele>1455.0</ele>
        <time>2015-08-29T09:03:10Z</time>
      </trkpt>
      <trkpt lat="42.045938" lon="0.745898">
        <ele>1450.0</ele>
        <time>2015-08-29T09:03:14Z</time>
      </trkpt>
      <trkpt lat="42.045942" lon="0.745853">
        <ele>1447.0</ele>
        <time>2015-08-29T09:03:20Z</time>
      </trkpt>
      <trkpt lat="42.045903" lon="0.745853">
        <ele>1447.0</ele>
        <time>2015-08-29T09:03:26Z</time>
      </trkpt>
      <trkpt lat="42.045922" lon="0.745815">
        <ele>1445.0</ele>
        <time>2015-08-29T09:03:32Z</time>
      </trkpt>
      <trkpt lat="42.045965" lon="0.745787">
        <ele>1457.0</ele>
        <time>2015-08-29T09:03:43Z</time>
      </trkpt>
      <trkpt lat="42.045978" lon="0.745738">
        <ele>1452.0</ele>
        <time>2015-08-29T09:03:49Z</time>
      </trkpt>
      <trkpt lat="42.045940" lon="0.745765">
        <ele>1456.0</ele>
        <time>2015-08-29T09:04:00Z</time>
      </trkpt>
      <trkpt lat="42.045967" lon="0.745750">
        <ele>1453.0</ele>
        <time>2015-08-29T09:04:08Z</time>
      </trkpt>
      <trkpt lat="42.045907" lon="0.745758">
        <ele>1452.0</ele>
        <time>2015-08-29T09:04:35Z</time>
      </trkpt>
      <trkpt lat="42.045933" lon="0.745720">
        <ele>1446.0</ele>
        <time>2015-08-29T09:04:44Z</time>
      </trkpt>
      <trkpt lat="42.045892" lon="0.745723">
        <ele>1445.0</ele>
        <time>2015-08-29T09:04:50Z</time>
      </trkpt>
      <trkpt lat="42.045882" lon="0.745777">
        <ele>1444.0</ele>
        <time>2015-08-29T09:04:52Z</time>
      </trkpt>
      <trkpt lat="42.045853" lon="0.745823">
        <ele>1442.0</ele>
        <time>2015-08-29T09:04:55Z</time>
      </trkpt>
      <trkpt lat="42.045887" lon="0.745947">
        <ele>1450.0</ele>
        <time>2015-08-29T09:05:09Z</time>
      </trkpt>
      <trkpt lat="42.045915" lon="0.746055">
        <ele>1451.0</ele>
        <time>2015-08-29T09:05:10Z</time>
      </trkpt>
      <trkpt lat="42.045945" lon="0.746090">
        <ele>1451.0</ele>
        <time>2015-08-29T09:05:11Z</time>
      </trkpt>
      <trkpt lat="42.045967" lon="0.746112">
        <ele>1455.0</ele>
        <time>2015-08-29T09:05:24Z</time>
      </trkpt>
      <trkpt lat="42.045902" lon="0.746023">
        <ele>1460.0</ele>
        <time>2015-08-29T09:05:28Z</time>
      </trkpt>
      <trkpt lat="42.045872" lon="0.745962">
        <ele>1461.0</ele>
        <time>2015-08-29T09:06:08Z</time>
      </trkpt>
      <trkpt lat="42.045837" lon="0.745963">
        <ele>1460.0</ele>
        <time>2015-08-29T09:06:09Z</time>
      </trkpt>
      <trkpt lat="42.045795" lon="0.745995">
        <ele>1461.0</ele>
        <time>2015-08-29T09:06:10Z</time>
      </trkpt>
      <trkpt lat="42.045752" lon="0.746055">
        <ele>1461.0</ele>
        <time>2015-08-29T09:06:11Z</time>
      </trkpt>
      <trkpt lat="42.045718" lon="0.746105">
        <ele>1462.0</ele>
        <time>2015-08-29T09:06:12Z</time>
      </trkpt>
      <trkpt lat="42.045655" lon="0.746158">
        <ele>1463.0</ele>
        <time>2015-08-29T09:06:16Z</time>
      </trkpt>
      <trkpt lat="42.045612" lon="0.746190">
        <ele>1462.0</ele>
        <time>2015-08-29T09:06:17Z</time>
      </trkpt>
      <trkpt lat="42.045570" lon="0.746217">
        <ele>1461.0</ele>
        <time>2015-08-29T09:06:18Z</time>
      </trkpt>
      <trkpt lat="42.045523" lon="0.746205">
        <ele>1460.0</ele>
        <time>2015-08-29T09:06:20Z</time>
      </trkpt>
      <trkpt lat="42.045482" lon="0.746200">
        <ele>1461.0</ele>
        <time>2015-08-29T09:06:22Z</time>
      </trkpt>
      <trkpt lat="42.045445" lon="0.746232">
        <ele>1461.0</ele>
        <time>2015-08-29T09:06:23Z</time>
      </trkpt>
      <trkpt lat="42.045412" lon="0.746293">
        <ele>1461.0</ele>
        <time>2015-08-29T09:06:24Z</time>
      </trkpt>
      <trkpt lat="42.045382" lon="0.746357">
        <ele>1462.0</ele>
        <time>2015-08-29T09:06:25Z</time>
      </trkpt>
      <trkpt lat="42.045362" lon="0.746413">
        <ele>1462.0</ele>
        <time>2015-08-29T09:06:26Z</time>
      </trkpt>
      <trkpt lat="42.045345" lon="0.746470">
        <ele>1463.0</ele>
        <time>2015-08-29T09:06:27Z</time>
      </trkpt>
      <trkpt lat="42.045325" lon="0.746522">
        <ele>1463.0</ele>
        <time>2015-08-29T09:06:28Z</time>
      </trkpt>
      <trkpt lat="42.045300" lon="0.746575">
        <ele>1464.0</ele>
        <time>2015-08-29T09:06:29Z</time>
      </trkpt>
      <trkpt lat="42.045270" lon="0.746617">
        <ele>1464.0</ele>
        <time>2015-08-29T09:06:30Z</time>
      </trkpt>
      <trkpt lat="42.045230" lon="0.746663">
        <ele>1467.0</ele>
        <time>2015-08-29T09:06:32Z</time>
      </trkpt>
      <trkpt lat="42.045167" lon="0.746700">
        <ele>1467.0</ele>
        <time>2015-08-29T09:06:34Z</time>
      </trkpt>
      <trkpt lat="42.045118" lon="0.746725">
        <ele>1468.0</ele>
        <time>2015-08-29T09:06:35Z</time>
      </trkpt>
      <trkpt lat="42.045077" lon="0.746750">
        <ele>1471.0</ele>
        <time>2015-08-29T09:06:36Z</time>
      </trkpt>
      <trkpt lat="42.045013" lon="0.746838">
        <ele>1475.0</ele>
        <time>2015-08-29T09:06:38Z</time>
      </trkpt>
      <trkpt lat="42.045022" lon="0.746945">
        <ele>1476.0</ele>
        <time>2015-08-29T09:06:40Z</time>
      </trkpt>
      <trkpt lat="42.044988" lon="0.747060">
        <ele>1476.0</ele>
        <time>2015-08-29T09:06:42Z</time>
      </trkpt>
      <trkpt lat="42.044960" lon="0.747135">
        <ele>1477.0</ele>
        <time>2015-08-29T09:06:43Z</time>
      </trkpt>
      <trkpt lat="42.044930" lon="0.747255">
        <ele>1479.0</ele>
        <time>2015-08-29T09:06:45Z</time>
      </trkpt>
      <trkpt lat="42.044883" lon="0.747383">
        <ele>1480.0</ele>
        <time>2015-08-29T09:06:47Z</time>
      </trkpt>
      <trkpt lat="42.044853" lon="0.747457">
        <ele>1481.0</ele>
        <time>2015-08-29T09:06:48Z</time>
      </trkpt>
      <trkpt lat="42.044815" lon="0.747522">
        <ele>1483.0</ele>
        <time>2015-08-29T09:06:49Z</time>
      </trkpt>
      <trkpt lat="42.044753" lon="0.747600">
        <ele>1486.0</ele>
        <time>2015-08-29T09:06:51Z</time>
      </trkpt>
      <trkpt lat="42.044683" lon="0.747660">
        <ele>1490.0</ele>
        <time>2015-08-29T09:06:53Z</time>
      </trkpt>
      <trkpt lat="42.044610" lon="0.747773">
        <ele>1495.0</ele>
        <time>2015-08-29T09:06:55Z</time>
      </trkpt>
      <trkpt lat="42.044585" lon="0.747842">
        <ele>1496.0</ele>
        <time>2015-08-29T09:06:56Z</time>
      </trkpt>
      <trkpt lat="42.044580" lon="0.747985">
        <ele>1497.0</ele>
        <time>2015-08-29T09:06:58Z</time>
      </trkpt>
      <trkpt lat="42.044555" lon="0.748052">
        <ele>1497.0</ele>
        <time>2015-08-29T09:06:59Z</time>
      </trkpt>
      <trkpt lat="42.044528" lon="0.748117">
        <ele>1498.0</ele>
        <time>2015-08-29T09:07:00Z</time>
      </trkpt>
      <trkpt lat="42.044493" lon="0.748187">
        <ele>1500.0</ele>
        <time>2015-08-29T09:07:01Z</time>
      </trkpt>
      <trkpt lat="42.044477" lon="0.748263">
        <ele>1503.0</ele>
        <time>2015-08-29T09:07:02Z</time>
      </trkpt>
      <trkpt lat="42.044462" lon="0.748333">
        <ele>1504.0</ele>
        <time>2015-08-29T09:07:03Z</time>
      </trkpt>
      <trkpt lat="42.044442" lon="0.748465">
        <ele>1505.0</ele>
        <time>2015-08-29T09:07:05Z</time>
      </trkpt>
      <trkpt lat="42.044413" lon="0.748577">
        <ele>1504.0</ele>
        <time>2015-08-29T09:07:07Z</time>
      </trkpt>
      <trkpt lat="42.044335" lon="0.748665">
        <ele>1507.0</ele>
        <time>2015-08-29T09:07:09Z</time>
      </trkpt>
      <trkpt lat="42.044292" lon="0.748712">
        <ele>1508.0</ele>
        <time>2015-08-29T09:07:10Z</time>
      </trkpt>
      <trkpt lat="42.044258" lon="0.748810">
        <ele>1510.0</ele>
        <time>2015-08-29T09:07:12Z</time>
      </trkpt>
      <trkpt lat="42.044230" lon="0.748912">
        <ele>1511.0</ele>
        <time>2015-08-29T09:07:14Z</time>
      </trkpt>
      <trkpt lat="42.044207" lon="0.748990">
        <ele>1513.0</ele>
        <time>2015-08-29T09:07:15Z</time>
      </trkpt>
      <trkpt lat="42.044177" lon="0.749077">
        <ele>1515.0</ele>
        <time>2015-08-29T09:07:16Z</time>
      </trkpt>
      <trkpt lat="42.044145" lon="0.749167">
        <ele>1516.0</ele>
        <time>2015-08-29T09:07:17Z</time>
      </trkpt>
      <trkpt lat="42.044120" lon="0.749257">
        <ele>1517.0</ele>
        <time>2015-08-29T09:07:18Z</time>
      </trkpt>
      <trkpt lat="42.044095" lon="0.749345">
        <ele>1519.0</ele>
        <time>2015-08-29T09:07:19Z</time>
      </trkpt>
      <trkpt lat="42.044068" lon="0.749430">
        <ele>1521.0</ele>
        <time>2015-08-29T09:07:20Z</time>
      </trkpt>
      <trkpt lat="42.044043" lon="0.749502">
        <ele>1524.0</ele>
        <time>2015-08-29T09:07:21Z</time>
      </trkpt>
      <trkpt lat="42.044005" lon="0.749557">
        <ele>1524.0</ele>
        <time>2015-08-29T09:07:22Z</time>
      </trkpt>
      <trkpt lat="42.043977" lon="0.749600">
        <ele>1527.0</ele>
        <time>2015-08-29T09:07:23Z</time>
      </trkpt>
      <trkpt lat="42.043943" lon="0.749637">
        <ele>1529.0</ele>
        <time>2015-08-29T09:07:24Z</time>
      </trkpt>
      <trkpt lat="42.043905" lon="0.749668">
        <ele>1532.0</ele>
        <time>2015-08-29T09:07:25Z</time>
      </trkpt>
      <trkpt lat="42.043847" lon="0.749667">
        <ele>1536.0</ele>
        <time>2015-08-29T09:07:27Z</time>
      </trkpt>
      <trkpt lat="42.043817" lon="0.749598">
        <ele>1539.0</ele>
        <time>2015-08-29T09:07:29Z</time>
      </trkpt>
      <trkpt lat="42.043748" lon="0.749602">
        <ele>1539.0</ele>
        <time>2015-08-29T09:07:31Z</time>
      </trkpt>
      <trkpt lat="42.043718" lon="0.749672">
        <ele>1539.0</ele>
        <time>2015-08-29T09:07:32Z</time>
      </trkpt>
      <trkpt lat="42.043695" lon="0.749767">
        <ele>1539.0</ele>
        <time>2015-08-29T09:07:33Z</time>
      </trkpt>
      <trkpt lat="42.043685" lon="0.749868">
        <ele>1540.0</ele>
        <time>2015-08-29T09:07:34Z</time>
      </trkpt>
      <trkpt lat="42.043682" lon="0.749962">
        <ele>1540.0</ele>
        <time>2015-08-29T09:07:35Z</time>
      </trkpt>
      <trkpt lat="42.043678" lon="0.750053">
        <ele>1539.0</ele>
        <time>2015-08-29T09:07:36Z</time>
      </trkpt>
      <trkpt lat="42.043670" lon="0.750148">
        <ele>1539.0</ele>
        <time>2015-08-29T09:07:37Z</time>
      </trkpt>
      <trkpt lat="42.043660" lon="0.750257">
        <ele>1539.0</ele>
        <time>2015-08-29T09:07:38Z</time>
      </trkpt>
      <trkpt lat="42.043643" lon="0.750368">
        <ele>1539.0</ele>
        <time>2015-08-29T09:07:39Z</time>
      </trkpt>
      <trkpt lat="42.043623" lon="0.750470">
        <ele>1539.0</ele>
        <time>2015-08-29T09:07:40Z</time>
      </trkpt>
      <trkpt lat="42.043595" lon="0.750552">
        <ele>1540.0</ele>
        <time>2015-08-29T09:07:41Z</time>
      </trkpt>
      <trkpt lat="42.043570" lon="0.750618">
        <ele>1540.0</ele>
        <time>2015-08-29T09:07:42Z</time>
      </trkpt>
      <trkpt lat="42.043552" lon="0.750667">
        <ele>1541.0</ele>
        <time>2015-08-29T09:07:43Z</time>
      </trkpt>
      <trkpt lat="42.043545" lon="0.750732">
        <ele>1542.0</ele>
        <time>2015-08-29T09:07:45Z</time>
      </trkpt>
      <trkpt lat="42.043493" lon="0.750795">
        <ele>1542.0</ele>
        <time>2015-08-29T09:07:47Z</time>
      </trkpt>
      <trkpt lat="42.043450" lon="0.750845">
        <ele>1543.0</ele>
        <time>2015-08-29T09:07:48Z</time>
      </trkpt>
      <trkpt lat="42.043413" lon="0.750912">
        <ele>1544.0</ele>
        <time>2015-08-29T09:07:49Z</time>
      </trkpt>
      <trkpt lat="42.043375" lon="0.750980">
        <ele>1545.0</ele>
        <time>2015-08-29T09:07:50Z</time>
      </trkpt>
      <trkpt lat="42.043347" lon="0.751030">
        <ele>1545.0</ele>
        <time>2015-08-29T09:07:51Z</time>
      </trkpt>
      <trkpt lat="42.043307" lon="0.751088">
        <ele>1546.0</ele>
        <time>2015-08-29T09:07:53Z</time>
      </trkpt>
      <trkpt lat="42.043263" lon="0.751133">
        <ele>1547.0</ele>
        <time>2015-08-29T09:07:54Z</time>
      </trkpt>
      <trkpt lat="42.043217" lon="0.751198">
        <ele>1548.0</ele>
        <time>2015-08-29T09:07:55Z</time>
      </trkpt>
      <trkpt lat="42.043170" lon="0.751277">
        <ele>1549.0</ele>
        <time>2015-08-29T09:07:56Z</time>
      </trkpt>
      <trkpt lat="42.043128" lon="0.751348">
        <ele>1551.0</ele>
        <time>2015-08-29T09:07:57Z</time>
      </trkpt>
      <trkpt lat="42.043087" lon="0.751400">
        <ele>1554.0</ele>
        <time>2015-08-29T09:07:58Z</time>
      </trkpt>
      <trkpt lat="42.043058" lon="0.751435">
        <ele>1555.0</ele>
        <time>2015-08-29T09:07:59Z</time>
      </trkpt>
      <trkpt lat="42.042993" lon="0.751472">
        <ele>1558.0</ele>
        <time>2015-08-29T09:08:01Z</time>
      </trkpt>
      <trkpt lat="42.042937" lon="0.751472">
        <ele>1561.0</ele>
        <time>2015-08-29T09:08:03Z</time>
      </trkpt>
      <trkpt lat="42.042887" lon="0.751460">
        <ele>1561.0</ele>
        <time>2015-08-29T09:08:05Z</time>
      </trkpt>
      <trkpt lat="42.042837" lon="0.751527">
        <ele>1561.0</ele>
        <time>2015-08-29T09:08:07Z</time>
      </trkpt>
      <trkpt lat="42.042835" lon="0.751605">
        <ele>1561.0</ele>
        <time>2015-08-29T09:08:08Z</time>
      </trkpt>
      <trkpt lat="42.042845" lon="0.751703">
        <ele>1562.0</ele>
        <time>2015-08-29T09:08:09Z</time>
      </trkpt>
      <trkpt lat="42.042853" lon="0.751787">
        <ele>1563.0</ele>
        <time>2015-08-29T09:08:10Z</time>
      </trkpt>
      <trkpt lat="42.042855" lon="0.751867">
        <ele>1563.0</ele>
        <time>2015-08-29T09:08:11Z</time>
      </trkpt>
      <trkpt lat="42.042850" lon="0.751948">
        <ele>1563.0</ele>
        <time>2015-08-29T09:08:12Z</time>
      </trkpt>
      <trkpt lat="42.042845" lon="0.752035">
        <ele>1563.0</ele>
        <time>2015-08-29T09:08:13Z</time>
      </trkpt>
      <trkpt lat="42.042842" lon="0.752117">
        <ele>1564.0</ele>
        <time>2015-08-29T09:08:14Z</time>
      </trkpt>
      <trkpt lat="42.042827" lon="0.752192">
        <ele>1564.0</ele>
        <time>2015-08-29T09:08:15Z</time>
      </trkpt>
      <trkpt lat="42.042827" lon="0.752243">
        <ele>1565.0</ele>
        <time>2015-08-29T09:08:16Z</time>
      </trkpt>
      <trkpt lat="42.042817" lon="0.752295">
        <ele>1566.0</ele>
        <time>2015-08-29T09:08:17Z</time>
      </trkpt>
      <trkpt lat="42.042795" lon="0.752353">
        <ele>1565.0</ele>
        <time>2015-08-29T09:08:18Z</time>
      </trkpt>
      <trkpt lat="42.042778" lon="0.752412">
        <ele>1566.0</ele>
        <time>2015-08-29T09:08:19Z</time>
      </trkpt>
      <trkpt lat="42.042763" lon="0.752475">
        <ele>1567.0</ele>
        <time>2015-08-29T09:08:20Z</time>
      </trkpt>
      <trkpt lat="42.042760" lon="0.752542">
        <ele>1568.0</ele>
        <time>2015-08-29T09:08:21Z</time>
      </trkpt>
      <trkpt lat="42.042760" lon="0.752608">
        <ele>1569.0</ele>
        <time>2015-08-29T09:08:22Z</time>
      </trkpt>
      <trkpt lat="42.042752" lon="0.752673">
        <ele>1569.0</ele>
        <time>2015-08-29T09:08:23Z</time>
      </trkpt>
      <trkpt lat="42.042738" lon="0.752743">
        <ele>1569.0</ele>
        <time>2015-08-29T09:08:24Z</time>
      </trkpt>
      <trkpt lat="42.042717" lon="0.752817">
        <ele>1569.0</ele>
        <time>2015-08-29T09:08:25Z</time>
      </trkpt>
      <trkpt lat="42.042697" lon="0.752902">
        <ele>1570.0</ele>
        <time>2015-08-29T09:08:26Z</time>
      </trkpt>
      <trkpt lat="42.042685" lon="0.752987">
        <ele>1571.0</ele>
        <time>2015-08-29T09:08:27Z</time>
      </trkpt>
      <trkpt lat="42.042683" lon="0.753065">
        <ele>1573.0</ele>
        <time>2015-08-29T09:08:28Z</time>
      </trkpt>
      <trkpt lat="42.042683" lon="0.753128">
        <ele>1574.0</ele>
        <time>2015-08-29T09:08:29Z</time>
      </trkpt>
      <trkpt lat="42.042683" lon="0.753183">
        <ele>1573.0</ele>
        <time>2015-08-29T09:08:30Z</time>
      </trkpt>
      <trkpt lat="42.042677" lon="0.753248">
        <ele>1572.0</ele>
        <time>2015-08-29T09:08:31Z</time>
      </trkpt>
      <trkpt lat="42.042667" lon="0.753333">
        <ele>1571.0</ele>
        <time>2015-08-29T09:08:32Z</time>
      </trkpt>
      <trkpt lat="42.042662" lon="0.753433">
        <ele>1572.0</ele>
        <time>2015-08-29T09:08:33Z</time>
      </trkpt>
      <trkpt lat="42.042635" lon="0.753520">
        <ele>1574.0</ele>
        <time>2015-08-29T09:08:34Z</time>
      </trkpt>
      <trkpt lat="42.042607" lon="0.753580">
        <ele>1575.0</ele>
        <time>2015-08-29T09:08:35Z</time>
      </trkpt>
      <trkpt lat="42.042595" lon="0.753647">
        <ele>1578.0</ele>
        <time>2015-08-29T09:08:37Z</time>
      </trkpt>
      <trkpt lat="42.042590" lon="0.753710">
        <ele>1579.0</ele>
        <time>2015-08-29T09:08:38Z</time>
      </trkpt>
      <trkpt lat="42.042585" lon="0.753792">
        <ele>1580.0</ele>
        <time>2015-08-29T09:08:39Z</time>
      </trkpt>
      <trkpt lat="42.042567" lon="0.753867">
        <ele>1582.0</ele>
        <time>2015-08-29T09:08:40Z</time>
      </trkpt>
      <trkpt lat="42.042537" lon="0.753907">
        <ele>1583.0</ele>
        <time>2015-08-29T09:08:41Z</time>
      </trkpt>
      <trkpt lat="42.042495" lon="0.753937">
        <ele>1584.0</ele>
        <time>2015-08-29T09:08:43Z</time>
      </trkpt>
      <trkpt lat="42.042460" lon="0.753958">
        <ele>1585.0</ele>
        <time>2015-08-29T09:08:45Z</time>
      </trkpt>
      <trkpt lat="42.042450" lon="0.754067">
        <ele>1585.0</ele>
        <time>2015-08-29T09:08:47Z</time>
      </trkpt>
      <trkpt lat="42.042440" lon="0.754135">
        <ele>1584.0</ele>
        <time>2015-08-29T09:08:48Z</time>
      </trkpt>
      <trkpt lat="42.042433" lon="0.754192">
        <ele>1583.0</ele>
        <time>2015-08-29T09:08:49Z</time>
      </trkpt>
      <trkpt lat="42.042430" lon="0.754247">
        <ele>1581.0</ele>
        <time>2015-08-29T09:08:50Z</time>
      </trkpt>
      <trkpt lat="42.042432" lon="0.754300">
        <ele>1581.0</ele>
        <time>2015-08-29T09:08:51Z</time>
      </trkpt>
      <trkpt lat="42.042432" lon="0.754368">
        <ele>1581.0</ele>
        <time>2015-08-29T09:08:52Z</time>
      </trkpt>
      <trkpt lat="42.042425" lon="0.754475">
        <ele>1580.0</ele>
        <time>2015-08-29T09:08:53Z</time>
      </trkpt>
      <trkpt lat="42.042418" lon="0.754567">
        <ele>1580.0</ele>
        <time>2015-08-29T09:08:54Z</time>
      </trkpt>
      <trkpt lat="42.042412" lon="0.754680">
        <ele>1579.0</ele>
        <time>2015-08-29T09:08:55Z</time>
      </trkpt>
      <trkpt lat="42.042408" lon="0.754810">
        <ele>1579.0</ele>
        <time>2015-08-29T09:08:56Z</time>
      </trkpt>
      <trkpt lat="42.042390" lon="0.754898">
        <ele>1578.0</ele>
        <time>2015-08-29T09:08:57Z</time>
      </trkpt>
      <trkpt lat="42.042363" lon="0.754968">
        <ele>1578.0</ele>
        <time>2015-08-29T09:08:58Z</time>
      </trkpt>
      <trkpt lat="42.042337" lon="0.755038">
        <ele>1577.0</ele>
        <time>2015-08-29T09:08:59Z</time>
      </trkpt>
      <trkpt lat="42.042318" lon="0.755102">
        <ele>1577.0</ele>
        <time>2015-08-29T09:09:00Z</time>
      </trkpt>
      <trkpt lat="42.042305" lon="0.755165">
        <ele>1577.0</ele>
        <time>2015-08-29T09:09:01Z</time>
      </trkpt>
      <trkpt lat="42.042298" lon="0.755237">
        <ele>1577.0</ele>
        <time>2015-08-29T09:09:02Z</time>
      </trkpt>
      <trkpt lat="42.042295" lon="0.755320">
        <ele>1578.0</ele>
        <time>2015-08-29T09:09:03Z</time>
      </trkpt>
      <trkpt lat="42.042283" lon="0.755410">
        <ele>1577.0</ele>
        <time>2015-08-29T09:09:04Z</time>
      </trkpt>
      <trkpt lat="42.042277" lon="0.755502">
        <ele>1576.0</ele>
        <time>2015-08-29T09:09:05Z</time>
      </trkpt>
      <trkpt lat="42.042270" lon="0.755583">
        <ele>1575.0</ele>
        <time>2015-08-29T09:09:06Z</time>
      </trkpt>
      <trkpt lat="42.042275" lon="0.755655">
        <ele>1575.0</ele>
        <time>2015-08-29T09:09:07Z</time>
      </trkpt>
      <trkpt lat="42.042282" lon="0.755723">
        <ele>1575.0</ele>
        <time>2015-08-29T09:09:08Z</time>
      </trkpt>
      <trkpt lat="42.042277" lon="0.755793">
        <ele>1576.0</ele>
        <time>2015-08-29T09:09:09Z</time>
      </trkpt>
      <trkpt lat="42.042237" lon="0.755860">
        <ele>1577.0</ele>
        <time>2015-08-29T09:09:10Z</time>
      </trkpt>
      <trkpt lat="42.042208" lon="0.755925">
        <ele>1578.0</ele>
        <time>2015-08-29T09:09:11Z</time>
      </trkpt>
      <trkpt lat="42.042182" lon="0.755983">
        <ele>1579.0</ele>
        <time>2015-08-29T09:09:12Z</time>
      </trkpt>
      <trkpt lat="42.042152" lon="0.756045">
        <ele>1580.0</ele>
        <time>2015-08-29T09:09:13Z</time>
      </trkpt>
      <trkpt lat="42.042113" lon="0.756107">
        <ele>1581.0</ele>
        <time>2015-08-29T09:09:14Z</time>
      </trkpt>
      <trkpt lat="42.042075" lon="0.756158">
        <ele>1583.0</ele>
        <time>2015-08-29T09:09:15Z</time>
      </trkpt>
      <trkpt lat="42.042042" lon="0.756200">
        <ele>1586.0</ele>
        <time>2015-08-29T09:09:16Z</time>
      </trkpt>
      <trkpt lat="42.042013" lon="0.756235">
        <ele>1589.0</ele>
        <time>2015-08-29T09:09:17Z</time>
      </trkpt>
      <trkpt lat="42.041970" lon="0.756273">
        <ele>1590.0</ele>
        <time>2015-08-29T09:09:18Z</time>
      </trkpt>
      <trkpt lat="42.041950" lon="0.756317">
        <ele>1592.0</ele>
        <time>2015-08-29T09:09:19Z</time>
      </trkpt>
      <trkpt lat="42.041933" lon="0.756362">
        <ele>1594.0</ele>
        <time>2015-08-29T09:09:20Z</time>
      </trkpt>
      <trkpt lat="42.041883" lon="0.756408">
        <ele>1594.0</ele>
        <time>2015-08-29T09:09:21Z</time>
      </trkpt>
      <trkpt lat="42.041818" lon="0.756475">
        <ele>1595.0</ele>
        <time>2015-08-29T09:09:23Z</time>
      </trkpt>
      <trkpt lat="42.041785" lon="0.756498">
        <ele>1596.0</ele>
        <time>2015-08-29T09:09:25Z</time>
      </trkpt>
      <trkpt lat="42.041742" lon="0.756393">
        <ele>1597.0</ele>
        <time>2015-08-29T09:09:27Z</time>
      </trkpt>
      <trkpt lat="42.041740" lon="0.756292">
        <ele>1598.0</ele>
        <time>2015-08-29T09:09:28Z</time>
      </trkpt>
      <trkpt lat="42.041752" lon="0.756158">
        <ele>1598.0</ele>
        <time>2015-08-29T09:09:29Z</time>
      </trkpt>
      <trkpt lat="42.041780" lon="0.756048">
        <ele>1598.0</ele>
        <time>2015-08-29T09:09:30Z</time>
      </trkpt>
      <trkpt lat="42.041822" lon="0.755943">
        <ele>1599.0</ele>
        <time>2015-08-29T09:09:31Z</time>
      </trkpt>
      <trkpt lat="42.041877" lon="0.755842">
        <ele>1598.0</ele>
        <time>2015-08-29T09:09:32Z</time>
      </trkpt>
      <trkpt lat="42.041933" lon="0.755740">
        <ele>1598.0</ele>
        <time>2015-08-29T09:09:33Z</time>
      </trkpt>
      <trkpt lat="42.041983" lon="0.755632">
        <ele>1599.0</ele>
        <time>2015-08-29T09:09:34Z</time>
      </trkpt>
      <trkpt lat="42.042023" lon="0.755520">
        <ele>1599.0</ele>
        <time>2015-08-29T09:09:35Z</time>
      </trkpt>
      <trkpt lat="42.042068" lon="0.755433">
        <ele>1601.0</ele>
        <time>2015-08-29T09:09:36Z</time>
      </trkpt>
      <trkpt lat="42.042110" lon="0.755343">
        <ele>1602.0</ele>
        <time>2015-08-29T09:09:37Z</time>
      </trkpt>
      <trkpt lat="42.042142" lon="0.755235">
        <ele>1602.0</ele>
        <time>2015-08-29T09:09:38Z</time>
      </trkpt>
      <trkpt lat="42.042170" lon="0.755135">
        <ele>1601.0</ele>
        <time>2015-08-29T09:09:39Z</time>
      </trkpt>
      <trkpt lat="42.042192" lon="0.755032">
        <ele>1600.0</ele>
        <time>2015-08-29T09:09:40Z</time>
      </trkpt>
      <trkpt lat="42.042210" lon="0.754930">
        <ele>1600.0</ele>
        <time>2015-08-29T09:09:41Z</time>
      </trkpt>
      <trkpt lat="42.042230" lon="0.754840">
        <ele>1600.0</ele>
        <time>2015-08-29T09:09:42Z</time>
      </trkpt>
      <trkpt lat="42.042238" lon="0.754753">
        <ele>1599.0</ele>
        <time>2015-08-29T09:09:43Z</time>
      </trkpt>
      <trkpt lat="42.042247" lon="0.754672">
        <ele>1599.0</ele>
        <time>2015-08-29T09:09:44Z</time>
      </trkpt>
      <trkpt lat="42.042257" lon="0.754588">
        <ele>1599.0</ele>
        <time>2015-08-29T09:09:45Z</time>
      </trkpt>
      <trkpt lat="42.042267" lon="0.754502">
        <ele>1599.0</ele>
        <time>2015-08-29T09:09:46Z</time>
      </trkpt>
      <trkpt lat="42.042275" lon="0.754407">
        <ele>1600.0</ele>
        <time>2015-08-29T09:09:47Z</time>
      </trkpt>
      <trkpt lat="42.042278" lon="0.754308">
        <ele>1601.0</ele>
        <time>2015-08-29T09:09:48Z</time>
      </trkpt>
      <trkpt lat="42.042283" lon="0.754217">
        <ele>1602.0</ele>
        <time>2015-08-29T09:09:49Z</time>
      </trkpt>
      <trkpt lat="42.042288" lon="0.754132">
        <ele>1603.0</ele>
        <time>2015-08-29T09:09:50Z</time>
      </trkpt>
      <trkpt lat="42.042293" lon="0.754057">
        <ele>1605.0</ele>
        <time>2015-08-29T09:09:51Z</time>
      </trkpt>
      <trkpt lat="42.042292" lon="0.753973">
        <ele>1605.0</ele>
        <time>2015-08-29T09:09:52Z</time>
      </trkpt>
      <trkpt lat="42.042305" lon="0.753893">
        <ele>1607.0</ele>
        <time>2015-08-29T09:09:53Z</time>
      </trkpt>
      <trkpt lat="42.042320" lon="0.753792">
        <ele>1608.0</ele>
        <time>2015-08-29T09:09:54Z</time>
      </trkpt>
      <trkpt lat="42.042332" lon="0.753682">
        <ele>1609.0</ele>
        <time>2015-08-29T09:09:55Z</time>
      </trkpt>
      <trkpt lat="42.042338" lon="0.753582">
        <ele>1611.0</ele>
        <time>2015-08-29T09:09:56Z</time>
      </trkpt>
      <trkpt lat="42.042342" lon="0.753495">
        <ele>1613.0</ele>
        <time>2015-08-29T09:09:57Z</time>
      </trkpt>
      <trkpt lat="42.042348" lon="0.753415">
        <ele>1614.0</ele>
        <time>2015-08-29T09:09:58Z</time>
      </trkpt>
      <trkpt lat="42.042357" lon="0.753338">
        <ele>1616.0</ele>
        <time>2015-08-29T09:09:59Z</time>
      </trkpt>
      <trkpt lat="42.042375" lon="0.753267">
        <ele>1616.0</ele>
        <time>2015-08-29T09:10:00Z</time>
      </trkpt>
      <trkpt lat="42.042400" lon="0.753185">
        <ele>1617.0</ele>
        <time>2015-08-29T09:10:01Z</time>
      </trkpt>
      <trkpt lat="42.042430" lon="0.753087">
        <ele>1618.0</ele>
        <time>2015-08-29T09:10:02Z</time>
      </trkpt>
      <trkpt lat="42.042453" lon="0.752932">
        <ele>1616.0</ele>
        <time>2015-08-29T09:10:03Z</time>
      </trkpt>
      <trkpt lat="42.042485" lon="0.752797">
        <ele>1616.0</ele>
        <time>2015-08-29T09:10:04Z</time>
      </trkpt>
      <trkpt lat="42.042522" lon="0.752657">
        <ele>1616.0</ele>
        <time>2015-08-29T09:10:05Z</time>
      </trkpt>
      <trkpt lat="42.042572" lon="0.752527">
        <ele>1616.0</ele>
        <time>2015-08-29T09:10:06Z</time>
      </trkpt>
      <trkpt lat="42.042642" lon="0.752412">
        <ele>1615.0</ele>
        <time>2015-08-29T09:10:07Z</time>
      </trkpt>
      <trkpt lat="42.042722" lon="0.752305">
        <ele>1614.0</ele>
        <time>2015-08-29T09:10:08Z</time>
      </trkpt>
      <trkpt lat="42.042792" lon="0.752187">
        <ele>1613.0</ele>
        <time>2015-08-29T09:10:09Z</time>
      </trkpt>
      <trkpt lat="42.042857" lon="0.752073">
        <ele>1616.0</ele>
        <time>2015-08-29T09:10:10Z</time>
      </trkpt>
      <trkpt lat="42.042917" lon="0.751942">
        <ele>1617.0</ele>
        <time>2015-08-29T09:10:11Z</time>
      </trkpt>
      <trkpt lat="42.042977" lon="0.751815">
        <ele>1618.0</ele>
        <time>2015-08-29T09:10:12Z</time>
      </trkpt>
      <trkpt lat="42.043040" lon="0.751707">
        <ele>1618.0</ele>
        <time>2015-08-29T09:10:13Z</time>
      </trkpt>
      <trkpt lat="42.043098" lon="0.751590">
        <ele>1618.0</ele>
        <time>2015-08-29T09:10:14Z</time>
      </trkpt>
      <trkpt lat="42.043153" lon="0.751467">
        <ele>1618.0</ele>
        <time>2015-08-29T09:10:15Z</time>
      </trkpt>
      <trkpt lat="42.043203" lon="0.751332">
        <ele>1618.0</ele>
        <time>2015-08-29T09:10:16Z</time>
      </trkpt>
      <trkpt lat="42.043230" lon="0.751167">
        <ele>1617.0</ele>
        <time>2015-08-29T09:10:17Z</time>
      </trkpt>
      <trkpt lat="42.043250" lon="0.751037">
        <ele>1618.0</ele>
        <time>2015-08-29T09:10:18Z</time>
      </trkpt>
      <trkpt lat="42.043240" lon="0.750937">
        <ele>1618.0</ele>
        <time>2015-08-29T09:10:19Z</time>
      </trkpt>
      <trkpt lat="42.043217" lon="0.750877">
        <ele>1617.0</ele>
        <time>2015-08-29T09:10:20Z</time>
      </trkpt>
      <trkpt lat="42.043182" lon="0.750843">
        <ele>1617.0</ele>
        <time>2015-08-29T09:10:21Z</time>
      </trkpt>
      <trkpt lat="42.043143" lon="0.750830">
        <ele>1617.0</ele>
        <time>2015-08-29T09:10:22Z</time>
      </trkpt>
      <trkpt lat="42.043108" lon="0.750845">
        <ele>1617.0</ele>
        <time>2015-08-29T09:10:23Z</time>
      </trkpt>
      <trkpt lat="42.043075" lon="0.750927">
        <ele>1617.0</ele>
        <time>2015-08-29T09:10:25Z</time>
      </trkpt>
      <trkpt lat="42.043062" lon="0.750982">
        <ele>1618.0</ele>
        <time>2015-08-29T09:10:26Z</time>
      </trkpt>
      <trkpt lat="42.043055" lon="0.751075">
        <ele>1621.0</ele>
        <time>2015-08-29T09:10:28Z</time>
      </trkpt>
      <trkpt lat="42.043055" lon="0.751145">
        <ele>1620.0</ele>
        <time>2015-08-29T09:10:29Z</time>
      </trkpt>
      <trkpt lat="42.043055" lon="0.751203">
        <ele>1619.0</ele>
        <time>2015-08-29T09:10:30Z</time>
      </trkpt>
      <trkpt lat="42.043053" lon="0.751263">
        <ele>1619.0</ele>
        <time>2015-08-29T09:10:31Z</time>
      </trkpt>
      <trkpt lat="42.043052" lon="0.751327">
        <ele>1618.0</ele>
        <time>2015-08-29T09:10:32Z</time>
      </trkpt>
      <trkpt lat="42.043048" lon="0.751410">
        <ele>1618.0</ele>
        <time>2015-08-29T09:10:33Z</time>
      </trkpt>
      <trkpt lat="42.043048" lon="0.751500">
        <ele>1617.0</ele>
        <time>2015-08-29T09:10:34Z</time>
      </trkpt>
      <trkpt lat="42.043052" lon="0.751585">
        <ele>1617.0</ele>
        <time>2015-08-29T09:10:35Z</time>
      </trkpt>
      <trkpt lat="42.043053" lon="0.751662">
        <ele>1617.0</ele>
        <time>2015-08-29T09:10:36Z</time>
      </trkpt>
      <trkpt lat="42.043055" lon="0.751728">
        <ele>1617.0</ele>
        <time>2015-08-29T09:10:37Z</time>
      </trkpt>
      <trkpt lat="42.043057" lon="0.751793">
        <ele>1617.0</ele>
        <time>2015-08-29T09:10:38Z</time>
      </trkpt>
      <trkpt lat="42.043058" lon="0.751863">
        <ele>1618.0</ele>
        <time>2015-08-29T09:10:39Z</time>
      </trkpt>
      <trkpt lat="42.043057" lon="0.751932">
        <ele>1618.0</ele>
        <time>2015-08-29T09:10:40Z</time>
      </trkpt>
      <trkpt lat="42.043050" lon="0.752003">
        <ele>1617.0</ele>
        <time>2015-08-29T09:10:41Z</time>
      </trkpt>
      <trkpt lat="42.043040" lon="0.752058">
        <ele>1617.0</ele>
        <time>2015-08-29T09:10:42Z</time>
      </trkpt>
      <trkpt lat="42.043030" lon="0.752112">
        <ele>1616.0</ele>
        <time>2015-08-29T09:10:43Z</time>
      </trkpt>
      <trkpt lat="42.043022" lon="0.752162">
        <ele>1616.0</ele>
        <time>2015-08-29T09:10:44Z</time>
      </trkpt>
      <trkpt lat="42.043015" lon="0.752235">
        <ele>1616.0</ele>
        <time>2015-08-29T09:10:45Z</time>
      </trkpt>
      <trkpt lat="42.043010" lon="0.752315">
        <ele>1614.0</ele>
        <time>2015-08-29T09:10:46Z</time>
      </trkpt>
      <trkpt lat="42.043003" lon="0.752383">
        <ele>1613.0</ele>
        <time>2015-08-29T09:10:47Z</time>
      </trkpt>
      <trkpt lat="42.042995" lon="0.752447">
        <ele>1612.0</ele>
        <time>2015-08-29T09:10:48Z</time>
      </trkpt>
      <trkpt lat="42.042987" lon="0.752515">
        <ele>1612.0</ele>
        <time>2015-08-29T09:10:49Z</time>
      </trkpt>
      <trkpt lat="42.042980" lon="0.752597">
        <ele>1612.0</ele>
        <time>2015-08-29T09:10:50Z</time>
      </trkpt>
      <trkpt lat="42.042972" lon="0.752695">
        <ele>1611.0</ele>
        <time>2015-08-29T09:10:51Z</time>
      </trkpt>
      <trkpt lat="42.042963" lon="0.752777">
        <ele>1611.0</ele>
        <time>2015-08-29T09:10:52Z</time>
      </trkpt>
      <trkpt lat="42.042952" lon="0.752847">
        <ele>1610.0</ele>
        <time>2015-08-29T09:10:53Z</time>
      </trkpt>
      <trkpt lat="42.042935" lon="0.752910">
        <ele>1609.0</ele>
        <time>2015-08-29T09:10:54Z</time>
      </trkpt>
      <trkpt lat="42.042917" lon="0.752972">
        <ele>1608.0</ele>
        <time>2015-08-29T09:10:55Z</time>
      </trkpt>
      <trkpt lat="42.042897" lon="0.753043">
        <ele>1607.0</ele>
        <time>2015-08-29T09:10:56Z</time>
      </trkpt>
      <trkpt lat="42.042883" lon="0.753112">
        <ele>1607.0</ele>
        <time>2015-08-29T09:10:57Z</time>
      </trkpt>
      <trkpt lat="42.042877" lon="0.753177">
        <ele>1606.0</ele>
        <time>2015-08-29T09:10:58Z</time>
      </trkpt>
      <trkpt lat="42.042872" lon="0.753240">
        <ele>1605.0</ele>
        <time>2015-08-29T09:10:59Z</time>
      </trkpt>
      <trkpt lat="42.042863" lon="0.753297">
        <ele>1603.0</ele>
        <time>2015-08-29T09:11:00Z</time>
      </trkpt>
      <trkpt lat="42.042847" lon="0.753347">
        <ele>1602.0</ele>
        <time>2015-08-29T09:11:01Z</time>
      </trkpt>
      <trkpt lat="42.042828" lon="0.753430">
        <ele>1600.0</ele>
        <time>2015-08-29T09:11:02Z</time>
      </trkpt>
      <trkpt lat="42.042813" lon="0.753532">
        <ele>1598.0</ele>
        <time>2015-08-29T09:11:03Z</time>
      </trkpt>
      <trkpt lat="42.042802" lon="0.753612">
        <ele>1597.0</ele>
        <time>2015-08-29T09:11:04Z</time>
      </trkpt>
      <trkpt lat="42.042785" lon="0.753675">
        <ele>1596.0</ele>
        <time>2015-08-29T09:11:05Z</time>
      </trkpt>
      <trkpt lat="42.042767" lon="0.753730">
        <ele>1594.0</ele>
        <time>2015-08-29T09:11:06Z</time>
      </trkpt>
      <trkpt lat="42.042747" lon="0.753793">
        <ele>1593.0</ele>
        <time>2015-08-29T09:11:07Z</time>
      </trkpt>
      <trkpt lat="42.042733" lon="0.753858">
        <ele>1593.0</ele>
        <time>2015-08-29T09:11:08Z</time>
      </trkpt>
      <trkpt lat="42.042715" lon="0.753967">
        <ele>1591.0</ele>
        <time>2015-08-29T09:11:09Z</time>
      </trkpt>
      <trkpt lat="42.042702" lon="0.754047">
        <ele>1591.0</ele>
        <time>2015-08-29T09:11:10Z</time>
      </trkpt>
      <trkpt lat="42.042688" lon="0.754130">
        <ele>1591.0</ele>
        <time>2015-08-29T09:11:11Z</time>
      </trkpt>
      <trkpt lat="42.042672" lon="0.754205">
        <ele>1590.0</ele>
        <time>2015-08-29T09:11:12Z</time>
      </trkpt>
      <trkpt lat="42.042655" lon="0.754285">
        <ele>1589.0</ele>
        <time>2015-08-29T09:11:13Z</time>
      </trkpt>
      <trkpt lat="42.042642" lon="0.754365">
        <ele>1588.0</ele>
        <time>2015-08-29T09:11:14Z</time>
      </trkpt>
      <trkpt lat="42.042628" lon="0.754450">
        <ele>1588.0</ele>
        <time>2015-08-29T09:11:15Z</time>
      </trkpt>
      <trkpt lat="42.042617" lon="0.754533">
        <ele>1587.0</ele>
        <time>2015-08-29T09:11:16Z</time>
      </trkpt>
      <trkpt lat="42.042610" lon="0.754598">
        <ele>1585.0</ele>
        <time>2015-08-29T09:11:17Z</time>
      </trkpt>
      <trkpt lat="42.042602" lon="0.754652">
        <ele>1585.0</ele>
        <time>2015-08-29T09:11:18Z</time>
      </trkpt>
      <trkpt lat="42.042587" lon="0.754717">
        <ele>1584.0</ele>
        <time>2015-08-29T09:11:19Z</time>
      </trkpt>
      <trkpt lat="42.042555" lon="0.754802">
        <ele>1583.0</ele>
        <time>2015-08-29T09:11:20Z</time>
      </trkpt>
      <trkpt lat="42.042523" lon="0.754883">
        <ele>1582.0</ele>
        <time>2015-08-29T09:11:21Z</time>
      </trkpt>
      <trkpt lat="42.042500" lon="0.754957">
        <ele>1581.0</ele>
        <time>2015-08-29T09:11:22Z</time>
      </trkpt>
      <trkpt lat="42.042483" lon="0.755020">
        <ele>1581.0</ele>
        <time>2015-08-29T09:11:23Z</time>
      </trkpt>
      <trkpt lat="42.042467" lon="0.755087">
        <ele>1581.0</ele>
        <time>2015-08-29T09:11:24Z</time>
      </trkpt>
      <trkpt lat="42.042445" lon="0.755175">
        <ele>1580.0</ele>
        <time>2015-08-29T09:11:25Z</time>
      </trkpt>
      <trkpt lat="42.042422" lon="0.755253">
        <ele>1581.0</ele>
        <time>2015-08-29T09:11:26Z</time>
      </trkpt>
      <trkpt lat="42.042388" lon="0.755305">
        <ele>1583.0</ele>
        <time>2015-08-29T09:11:27Z</time>
      </trkpt>
      <trkpt lat="42.042345" lon="0.755355">
        <ele>1584.0</ele>
        <time>2015-08-29T09:11:28Z</time>
      </trkpt>
      <trkpt lat="42.042293" lon="0.755395">
        <ele>1585.0</ele>
        <time>2015-08-29T09:11:29Z</time>
      </trkpt>
      <trkpt lat="42.042237" lon="0.755437">
        <ele>1587.0</ele>
        <time>2015-08-29T09:11:30Z</time>
      </trkpt>
      <trkpt lat="42.042178" lon="0.755472">
        <ele>1589.0</ele>
        <time>2015-08-29T09:11:31Z</time>
      </trkpt>
      <trkpt lat="42.042123" lon="0.755500">
        <ele>1592.0</ele>
        <time>2015-08-29T09:11:32Z</time>
      </trkpt>
      <trkpt lat="42.042060" lon="0.755537">
        <ele>1593.0</ele>
        <time>2015-08-29T09:11:33Z</time>
      </trkpt>
      <trkpt lat="42.042015" lon="0.755575">
        <ele>1593.0</ele>
        <time>2015-08-29T09:11:34Z</time>
      </trkpt>
      <trkpt lat="42.041957" lon="0.755640">
        <ele>1594.0</ele>
        <time>2015-08-29T09:11:36Z</time>
      </trkpt>
      <trkpt lat="42.041905" lon="0.755672">
        <ele>1593.0</ele>
        <time>2015-08-29T09:11:37Z</time>
      </trkpt>
      <trkpt lat="42.041850" lon="0.755712">
        <ele>1592.0</ele>
        <time>2015-08-29T09:11:38Z</time>
      </trkpt>
      <trkpt lat="42.041800" lon="0.755770">
        <ele>1591.0</ele>
        <time>2015-08-29T09:11:39Z</time>
      </trkpt>
      <trkpt lat="42.041757" lon="0.755837">
        <ele>1591.0</ele>
        <time>2015-08-29T09:11:40Z</time>
      </trkpt>
      <trkpt lat="42.041718" lon="0.755902">
        <ele>1592.0</ele>
        <time>2015-08-29T09:11:41Z</time>
      </trkpt>
      <trkpt lat="42.041683" lon="0.755955">
        <ele>1592.0</ele>
        <time>2015-08-29T09:11:42Z</time>
      </trkpt>
      <trkpt lat="42.041648" lon="0.755998">
        <ele>1590.0</ele>
        <time>2015-08-29T09:11:43Z</time>
      </trkpt>
      <trkpt lat="42.041608" lon="0.756053">
        <ele>1588.0</ele>
        <time>2015-08-29T09:11:44Z</time>
      </trkpt>
      <trkpt lat="42.041568" lon="0.756118">
        <ele>1587.0</ele>
        <time>2015-08-29T09:11:45Z</time>
      </trkpt>
      <trkpt lat="42.041530" lon="0.756195">
        <ele>1586.0</ele>
        <time>2015-08-29T09:11:46Z</time>
      </trkpt>
      <trkpt lat="42.041495" lon="0.756273">
        <ele>1587.0</ele>
        <time>2015-08-29T09:11:47Z</time>
      </trkpt>
      <trkpt lat="42.041468" lon="0.756337">
        <ele>1588.0</ele>
        <time>2015-08-29T09:11:48Z</time>
      </trkpt>
      <trkpt lat="42.041443" lon="0.756388">
        <ele>1590.0</ele>
        <time>2015-08-29T09:11:49Z</time>
      </trkpt>
      <trkpt lat="42.041422" lon="0.756442">
        <ele>1590.0</ele>
        <time>2015-08-29T09:11:50Z</time>
      </trkpt>
      <trkpt lat="42.041403" lon="0.756497">
        <ele>1591.0</ele>
        <time>2015-08-29T09:11:51Z</time>
      </trkpt>
      <trkpt lat="42.041388" lon="0.756563">
        <ele>1593.0</ele>
        <time>2015-08-29T09:11:52Z</time>
      </trkpt>
      <trkpt lat="42.041380" lon="0.756645">
        <ele>1594.0</ele>
        <time>2015-08-29T09:11:53Z</time>
      </trkpt>
      <trkpt lat="42.041368" lon="0.756727">
        <ele>1594.0</ele>
        <time>2015-08-29T09:11:54Z</time>
      </trkpt>
      <trkpt lat="42.041352" lon="0.756788">
        <ele>1595.0</ele>
        <time>2015-08-29T09:11:55Z</time>
      </trkpt>
      <trkpt lat="42.041327" lon="0.756840">
        <ele>1596.0</ele>
        <time>2015-08-29T09:11:56Z</time>
      </trkpt>
      <trkpt lat="42.041298" lon="0.756887">
        <ele>1598.0</ele>
        <time>2015-08-29T09:11:57Z</time>
      </trkpt>
      <trkpt lat="42.041272" lon="0.756940">
        <ele>1599.0</ele>
        <time>2015-08-29T09:11:58Z</time>
      </trkpt>
      <trkpt lat="42.041248" lon="0.756995">
        <ele>1601.0</ele>
        <time>2015-08-29T09:11:59Z</time>
      </trkpt>
      <trkpt lat="42.041227" lon="0.757037">
        <ele>1602.0</ele>
        <time>2015-08-29T09:12:00Z</time>
      </trkpt>
      <trkpt lat="42.041185" lon="0.757083">
        <ele>1604.0</ele>
        <time>2015-08-29T09:12:02Z</time>
      </trkpt>
      <trkpt lat="42.041138" lon="0.757152">
        <ele>1604.0</ele>
        <time>2015-08-29T09:12:04Z</time>
      </trkpt>
      <trkpt lat="42.041110" lon="0.757195">
        <ele>1604.0</ele>
        <time>2015-08-29T09:12:05Z</time>
      </trkpt>
      <trkpt lat="42.041082" lon="0.757232">
        <ele>1604.0</ele>
        <time>2015-08-29T09:12:06Z</time>
      </trkpt>
      <trkpt lat="42.041053" lon="0.757263">
        <ele>1605.0</ele>
        <time>2015-08-29T09:12:07Z</time>
      </trkpt>
      <trkpt lat="42.041028" lon="0.757340">
        <ele>1607.0</ele>
        <time>2015-08-29T09:12:09Z</time>
      </trkpt>
      <trkpt lat="42.041007" lon="0.757387">
        <ele>1606.0</ele>
        <time>2015-08-29T09:12:10Z</time>
      </trkpt>
      <trkpt lat="42.040978" lon="0.757430">
        <ele>1605.0</ele>
        <time>2015-08-29T09:12:11Z</time>
      </trkpt>
      <trkpt lat="42.040933" lon="0.757502">
        <ele>1604.0</ele>
        <time>2015-08-29T09:12:13Z</time>
      </trkpt>
      <trkpt lat="42.040917" lon="0.757547">
        <ele>1604.0</ele>
        <time>2015-08-29T09:12:14Z</time>
      </trkpt>
      <trkpt lat="42.040900" lon="0.757603">
        <ele>1605.0</ele>
        <time>2015-08-29T09:12:15Z</time>
      </trkpt>
      <trkpt lat="42.040887" lon="0.757670">
        <ele>1604.0</ele>
        <time>2015-08-29T09:12:16Z</time>
      </trkpt>
      <trkpt lat="42.040877" lon="0.757737">
        <ele>1603.0</ele>
        <time>2015-08-29T09:12:17Z</time>
      </trkpt>
      <trkpt lat="42.040873" lon="0.757805">
        <ele>1603.0</ele>
        <time>2015-08-29T09:12:18Z</time>
      </trkpt>
      <trkpt lat="42.040875" lon="0.757880">
        <ele>1602.0</ele>
        <time>2015-08-29T09:12:19Z</time>
      </trkpt>
      <trkpt lat="42.040882" lon="0.757968">
        <ele>1601.0</ele>
        <time>2015-08-29T09:12:20Z</time>
      </trkpt>
      <trkpt lat="42.040893" lon="0.758063">
        <ele>1601.0</ele>
        <time>2015-08-29T09:12:21Z</time>
      </trkpt>
      <trkpt lat="42.040907" lon="0.758160">
        <ele>1601.0</ele>
        <time>2015-08-29T09:12:22Z</time>
      </trkpt>
      <trkpt lat="42.040917" lon="0.758260">
        <ele>1601.0</ele>
        <time>2015-08-29T09:12:23Z</time>
      </trkpt>
      <trkpt lat="42.040923" lon="0.758355">
        <ele>1599.0</ele>
        <time>2015-08-29T09:12:24Z</time>
      </trkpt>
      <trkpt lat="42.040917" lon="0.758440">
        <ele>1599.0</ele>
        <time>2015-08-29T09:12:25Z</time>
      </trkpt>
      <trkpt lat="42.040902" lon="0.758527">
        <ele>1599.0</ele>
        <time>2015-08-29T09:12:26Z</time>
      </trkpt>
      <trkpt lat="42.040885" lon="0.758632">
        <ele>1598.0</ele>
        <time>2015-08-29T09:12:27Z</time>
      </trkpt>
      <trkpt lat="42.040875" lon="0.758742">
        <ele>1598.0</ele>
        <time>2015-08-29T09:12:28Z</time>
      </trkpt>
      <trkpt lat="42.040873" lon="0.758838">
        <ele>1598.0</ele>
        <time>2015-08-29T09:12:29Z</time>
      </trkpt>
      <trkpt lat="42.040867" lon="0.758922">
        <ele>1599.0</ele>
        <time>2015-08-29T09:12:30Z</time>
      </trkpt>
      <trkpt lat="42.040858" lon="0.758992">
        <ele>1599.0</ele>
        <time>2015-08-29T09:12:31Z</time>
      </trkpt>
      <trkpt lat="42.040848" lon="0.759062">
        <ele>1600.0</ele>
        <time>2015-08-29T09:12:32Z</time>
      </trkpt>
      <trkpt lat="42.040818" lon="0.759132">
        <ele>1602.0</ele>
        <time>2015-08-29T09:12:33Z</time>
      </trkpt>
      <trkpt lat="42.040782" lon="0.759195">
        <ele>1602.0</ele>
        <time>2015-08-29T09:12:34Z</time>
      </trkpt>
      <trkpt lat="42.040760" lon="0.759248">
        <ele>1602.0</ele>
        <time>2015-08-29T09:12:35Z</time>
      </trkpt>
      <trkpt lat="42.040730" lon="0.759288">
        <ele>1603.0</ele>
        <time>2015-08-29T09:12:36Z</time>
      </trkpt>
      <trkpt lat="42.040697" lon="0.759310">
        <ele>1604.0</ele>
        <time>2015-08-29T09:12:37Z</time>
      </trkpt>
      <trkpt lat="42.040657" lon="0.759315">
        <ele>1604.0</ele>
        <time>2015-08-29T09:12:38Z</time>
      </trkpt>
      <trkpt lat="42.040608" lon="0.759255">
        <ele>1606.0</ele>
        <time>2015-08-29T09:12:40Z</time>
      </trkpt>
      <trkpt lat="42.040608" lon="0.759195">
        <ele>1607.0</ele>
        <time>2015-08-29T09:12:41Z</time>
      </trkpt>
      <trkpt lat="42.040623" lon="0.759122">
        <ele>1607.0</ele>
        <time>2015-08-29T09:12:42Z</time>
      </trkpt>
      <trkpt lat="42.040637" lon="0.759035">
        <ele>1608.0</ele>
        <time>2015-08-29T09:12:43Z</time>
      </trkpt>
      <trkpt lat="42.040632" lon="0.758935">
        <ele>1608.0</ele>
        <time>2015-08-29T09:12:44Z</time>
      </trkpt>
      <trkpt lat="42.040623" lon="0.758827">
        <ele>1608.0</ele>
        <time>2015-08-29T09:12:45Z</time>
      </trkpt>
      <trkpt lat="42.040625" lon="0.758722">
        <ele>1609.0</ele>
        <time>2015-08-29T09:12:46Z</time>
      </trkpt>
      <trkpt lat="42.040638" lon="0.758622">
        <ele>1610.0</ele>
        <time>2015-08-29T09:12:47Z</time>
      </trkpt>
      <trkpt lat="42.040670" lon="0.758525">
        <ele>1611.0</ele>
        <time>2015-08-29T09:12:48Z</time>
      </trkpt>
      <trkpt lat="42.040718" lon="0.758425">
        <ele>1612.0</ele>
        <time>2015-08-29T09:12:49Z</time>
      </trkpt>
      <trkpt lat="42.040772" lon="0.758320">
        <ele>1613.0</ele>
        <time>2015-08-29T09:12:50Z</time>
      </trkpt>
      <trkpt lat="42.040812" lon="0.758215">
        <ele>1614.0</ele>
        <time>2015-08-29T09:12:51Z</time>
      </trkpt>
      <trkpt lat="42.040837" lon="0.758110">
        <ele>1615.0</ele>
        <time>2015-08-29T09:12:52Z</time>
      </trkpt>
      <trkpt lat="42.040850" lon="0.758000">
        <ele>1616.0</ele>
        <time>2015-08-29T09:12:53Z</time>
      </trkpt>
      <trkpt lat="42.040868" lon="0.757893">
        <ele>1616.0</ele>
        <time>2015-08-29T09:12:54Z</time>
      </trkpt>
      <trkpt lat="42.040895" lon="0.757787">
        <ele>1616.0</ele>
        <time>2015-08-29T09:12:55Z</time>
      </trkpt>
      <trkpt lat="42.040930" lon="0.757680">
        <ele>1615.0</ele>
        <time>2015-08-29T09:12:56Z</time>
      </trkpt>
      <trkpt lat="42.040972" lon="0.757575">
        <ele>1614.0</ele>
        <time>2015-08-29T09:12:57Z</time>
      </trkpt>
      <trkpt lat="42.041022" lon="0.757470">
        <ele>1613.0</ele>
        <time>2015-08-29T09:12:58Z</time>
      </trkpt>
      <trkpt lat="42.041085" lon="0.757370">
        <ele>1612.0</ele>
        <time>2015-08-29T09:12:59Z</time>
      </trkpt>
      <trkpt lat="42.041148" lon="0.757258">
        <ele>1612.0</ele>
        <time>2015-08-29T09:13:00Z</time>
      </trkpt>
      <trkpt lat="42.041198" lon="0.757130">
        <ele>1611.0</ele>
        <time>2015-08-29T09:13:01Z</time>
      </trkpt>
      <trkpt lat="42.041240" lon="0.757008">
        <ele>1611.0</ele>
        <time>2015-08-29T09:13:02Z</time>
      </trkpt>
      <trkpt lat="42.041282" lon="0.756903">
        <ele>1610.0</ele>
        <time>2015-08-29T09:13:03Z</time>
      </trkpt>
      <trkpt lat="42.041333" lon="0.756813">
        <ele>1609.0</ele>
        <time>2015-08-29T09:13:04Z</time>
      </trkpt>
      <trkpt lat="42.041397" lon="0.756717">
        <ele>1609.0</ele>
        <time>2015-08-29T09:13:05Z</time>
      </trkpt>
      <trkpt lat="42.041463" lon="0.756610">
        <ele>1608.0</ele>
        <time>2015-08-29T09:13:06Z</time>
      </trkpt>
      <trkpt lat="42.041525" lon="0.756482">
        <ele>1609.0</ele>
        <time>2015-08-29T09:13:07Z</time>
      </trkpt>
      <trkpt lat="42.041580" lon="0.756367">
        <ele>1608.0</ele>
        <time>2015-08-29T09:13:08Z</time>
      </trkpt>
      <trkpt lat="42.041632" lon="0.756262">
        <ele>1609.0</ele>
        <time>2015-08-29T09:13:09Z</time>
      </trkpt>
      <trkpt lat="42.041677" lon="0.756150">
        <ele>1610.0</ele>
        <time>2015-08-29T09:13:10Z</time>
      </trkpt>
      <trkpt lat="42.041710" lon="0.756037">
        <ele>1612.0</ele>
        <time>2015-08-29T09:13:11Z</time>
      </trkpt>
      <trkpt lat="42.041735" lon="0.755928">
        <ele>1613.0</ele>
        <time>2015-08-29T09:13:12Z</time>
      </trkpt>
      <trkpt lat="42.041755" lon="0.755827">
        <ele>1613.0</ele>
        <time>2015-08-29T09:13:13Z</time>
      </trkpt>
      <trkpt lat="42.041772" lon="0.755735">
        <ele>1613.0</ele>
        <time>2015-08-29T09:13:14Z</time>
      </trkpt>
      <trkpt lat="42.041777" lon="0.755630">
        <ele>1612.0</ele>
        <time>2015-08-29T09:13:15Z</time>
      </trkpt>
      <trkpt lat="42.041783" lon="0.755527">
        <ele>1613.0</ele>
        <time>2015-08-29T09:13:16Z</time>
      </trkpt>
      <trkpt lat="42.041772" lon="0.755415">
        <ele>1614.0</ele>
        <time>2015-08-29T09:13:17Z</time>
      </trkpt>
      <trkpt lat="42.041738" lon="0.755323">
        <ele>1614.0</ele>
        <time>2015-08-29T09:13:18Z</time>
      </trkpt>
      <trkpt lat="42.041700" lon="0.755250">
        <ele>1615.0</ele>
        <time>2015-08-29T09:13:19Z</time>
      </trkpt>
      <trkpt lat="42.041672" lon="0.755192">
        <ele>1615.0</ele>
        <time>2015-08-29T09:13:21Z</time>
      </trkpt>
      <trkpt lat="42.041630" lon="0.755167">
        <ele>1615.0</ele>
        <time>2015-08-29T09:13:23Z</time>
      </trkpt>
      <trkpt lat="42.040858" lon="0.758992">
        <ele>1599.0</ele>
        <time>2015-08-29T09:12:31Z</time>
      </trkpt>
      <trkpt lat="42.040848" lon="0.759062">
        <ele>1600.0</ele>
        <time>2015-08-29T09:12:32Z</time>
      </trkpt>
      <trkpt lat="42.040818" lon="0.759132">
        <ele>1602.0</ele>
        <time>2015-08-29T09:12:33Z</time>
      </trkpt>
      <trkpt lat="42.040782" lon="0.759195">
        <ele>1602.0</ele>
        <time>2015-08-29T09:12:34Z</time>
      </trkpt>
      <trkpt lat="42.040760" lon="0.759248">
        <ele>1602.0</ele>
        <time>2015-08-29T09:12:35Z</time>
      </trkpt>
      <trkpt lat="42.040730" lon="0.759288">
        <ele>1603.0</ele>
        <time>2015-08-29T09:12:36Z</time>
      </trkpt>
      <trkpt lat="42.040697" lon="0.759310">
        <ele>1604.0</ele>
        <time>2015-08-29T09:12:37Z</time>
      </trkpt>
      <trkpt lat="42.040657" lon="0.759315">
        <ele>1604.0</ele>
        <time>2015-08-29T09:12:38Z</time>
      </trkpt>
      <trkpt lat="42.040608" lon="0.759255">
        <ele>1606.0</ele>
        <time>2015-08-29T09:12:40Z</time>
      </trkpt>
      <trkpt lat="42.040608" lon="0.759195">
        <ele>1607.0</ele>
        <time>2015-08-29T09:12:41Z</time>
      </trkpt>
      <trkpt lat="42.040623" lon="0.759122">
        <ele>1607.0</ele>
        <time>2015-08-29T09:12:42Z</time>
      </trkpt>
      <trkpt lat="42.040637" lon="0.759035">
        <ele>1608.0</ele>
        <time>2015-08-29T09:12:43Z</time>
      </trkpt>
      <trkpt lat="42.040632" lon="0.758935">
        <ele>1608.0</ele>
        <time>2015-08-29T09:12:44Z</time>
      </trkpt>
      <trkpt lat="42.040623" lon="0.758827">
        <ele>1608.0</ele>
        <time>2015-08-29T09:12:45Z</time>
      </trkpt>
      <trkpt lat="42.040625" lon="0.758722">
        <ele>1609.0</ele>
        <time>2015-08-29T09:12:46Z</time>
      </trkpt>
      <trkpt lat="42.040638" lon="0.758622">
        <ele>1610.0</ele>
        <time>2015-08-29T09:12:47Z</time>
      </trkpt>
      <trkpt lat="42.040670" lon="0.758525">
        <ele>1611.0</ele>
        <time>2015-08-29T09:12:48Z</time>
      </trkpt>
      <trkpt lat="42.040718" lon="0.758425">
        <ele>1612.0</ele>
        <time>2015-08-29T09:12:49Z</time>
      </trkpt>
      <trkpt lat="42.040772" lon="0.758320">
        <ele>1613.0</ele>
        <time>2015-08-29T09:12:50Z</time>
      </trkpt>
      <trkpt lat="42.040812" lon="0.758215">
        <ele>1614.0</ele>
        <time>2015-08-29T09:12:51Z</time>
      </trkpt>
      <trkpt lat="42.040837" lon="0.758110">
        <ele>1615.0</ele>
        <time>2015-08-29T09:12:52Z</time>
      </trkpt>
      <trkpt lat="42.040850" lon="0.758000">
        <ele>1616.0</ele>
        <time>2015-08-29T09:12:53Z</time>
      </trkpt>
      <trkpt lat="42.040868" lon="0.757893">
        <ele>1616.0</ele>
        <time>2015-08-29T09:12:54Z</time>
      </trkpt>
      <trkpt lat="42.040895" lon="0.757787">
        <ele>1616.0</ele>
        <time>2015-08-29T09:12:55Z</time>
      </trkpt>
      <trkpt lat="42.040930" lon="0.757680">
        <ele>1615.0</ele>
        <time>2015-08-29T09:12:56Z</time>
      </trkpt>
      <trkpt lat="42.040972" lon="0.757575">
        <ele>1614.0</ele>
        <time>2015-08-29T09:12:57Z</time>
      </trkpt>
      <trkpt lat="42.041022" lon="0.757470">
        <ele>1613.0</ele>
        <time>2015-08-29T09:12:58Z</time>
      </trkpt>
      <trkpt lat="42.041085" lon="0.757370">
        <ele>1612.0</ele>
        <time>2015-08-29T09:12:59Z</time>
      </trkpt>
      <trkpt lat="42.041148" lon="0.757258">
        <ele>1612.0</ele>
        <time>2015-08-29T09:13:00Z</time>
      </trkpt>
      <trkpt lat="42.041198" lon="0.757130">
        <ele>1611.0</ele>
        <time>2015-08-29T09:13:01Z</time>
      </trkpt>
      <trkpt lat="42.041240" lon="0.757008">
        <ele>1611.0</ele>
        <time>2015-08-29T09:13:02Z</time>
      </trkpt>
      <trkpt lat="42.041282" lon="0.756903">
        <ele>1610.0</ele>
        <time>2015-08-29T09:13:03Z</time>
      </trkpt>
      <trkpt lat="42.041333" lon="0.756813">
        <ele>1609.0</ele>
        <time>2015-08-29T09:13:04Z</time>
      </trkpt>
      <trkpt lat="42.041397" lon="0.756717">
        <ele>1609.0</ele>
        <time>2015-08-29T09:13:05Z</time>
      </trkpt>
      <trkpt lat="42.041463" lon="0.756610">
        <ele>1608.0</ele>
        <time>2015-08-29T09:13:06Z</time>
      </trkpt>
      <trkpt lat="42.041525" lon="0.756482">
        <ele>1609.0</ele>
        <time>2015-08-29T09:13:07Z</time>
      </trkpt>
      <trkpt lat="42.041580" lon="0.756367">
        <ele>1608.0</ele>
        <time>2015-08-29T09:13:08Z</time>
      </trkpt>
      <trkpt lat="42.041632" lon="0.756262">
        <ele>1609.0</ele>
        <time>2015-08-29T09:13:09Z</time>
      </trkpt>
      <trkpt lat="42.041677" lon="0.756150">
        <ele>1610.0</ele>
        <time>2015-08-29T09:13:10Z</time>
      </trkpt>
      <trkpt lat="42.041710" lon="0.756037">
        <ele>1612.0</ele>
        <time>2015-08-29T09:13:11Z</time>
      </trkpt>
      <trkpt lat="42.041735" lon="0.755928">
        <ele>1613.0</ele>
        <time>2015-08-29T09:13:12Z</time>
      </trkpt>
      <trkpt lat="42.041755" lon="0.755827">
        <ele>1613.0</ele>
        <time>2015-08-29T09:13:13Z</time>
      </trkpt>
      <trkpt lat="42.041772" lon="0.755735">
        <ele>1613.0</ele>
        <time>2015-08-29T09:13:14Z</time>
      </trkpt>
      <trkpt lat="42.041777" lon="0.755630">
        <ele>1612.0</ele>
        <time>2015-08-29T09:13:15Z</time>
      </trkpt>
      <trkpt lat="42.041783" lon="0.755527">
        <ele>1613.0</ele>
        <time>2015-08-29T09:13:16Z</time>
      </trkpt>
      <trkpt lat="42.041772" lon="0.755415">
        <ele>1614.0</ele>
        <time>2015-08-29T09:13:17Z</time>
      </trkpt>
      <trkpt lat="42.041738" lon="0.755323">
        <ele>1614.0</ele>
        <time>2015-08-29T09:13:18Z</time>
      </trkpt>
      <trkpt lat="42.041700" lon="0.755250">
        <ele>1615.0</ele>
        <time>2015-08-29T09:13:19Z</time>
      </trkpt>
      <trkpt lat="42.041672" lon="0.755192">
        <ele>1615.0</ele>
        <time>2015-08-29T09:13:21Z</time>
      </trkpt>
      <trkpt lat="42.041630" lon="0.755167">
        <ele>1615.0</ele>
        <time>2015-08-29T09:13:23Z</time>
      </trkpt>
      <trkpt lat="42.041590" lon="0.755165">
        <ele>1614.0</ele>
        <time>2015-08-29T09:13:24Z</time>
      </trkpt>
      <trkpt lat="42.041552" lon="0.755188">
        <ele>1614.0</ele>
        <time>2015-08-29T09:13:25Z</time>
      </trkpt>
      <trkpt lat="42.041543" lon="0.755267">
        <ele>1615.0</ele>
        <time>2015-08-29T09:13:26Z</time>
      </trkpt>
      <trkpt lat="42.041550" lon="0.755327">
        <ele>1615.0</ele>
        <time>2015-08-29T09:13:27Z</time>
      </trkpt>
      <trkpt lat="42.041572" lon="0.755392">
        <ele>1614.0</ele>
        <time>2015-08-29T09:13:28Z</time>
      </trkpt>
      <trkpt lat="42.041592" lon="0.755465">
        <ele>1614.0</ele>
        <time>2015-08-29T09:13:29Z</time>
      </trkpt>
      <trkpt lat="42.041608" lon="0.755552">
        <ele>1613.0</ele>
        <time>2015-08-29T09:13:30Z</time>
      </trkpt>
      <trkpt lat="42.041618" lon="0.755647">
        <ele>1614.0</ele>
        <time>2015-08-29T09:13:31Z</time>
      </trkpt>
      <trkpt lat="42.041622" lon="0.755735">
        <ele>1613.0</ele>
        <time>2015-08-29T09:13:32Z</time>
      </trkpt>
      <trkpt lat="42.041620" lon="0.755788">
        <ele>1615.0</ele>
        <time>2015-08-29T09:13:33Z</time>
      </trkpt>
      <trkpt lat="42.041617" lon="0.755858">
        <ele>1616.0</ele>
        <time>2015-08-29T09:13:34Z</time>
      </trkpt>
      <trkpt lat="42.041608" lon="0.755972">
        <ele>1614.0</ele>
        <time>2015-08-29T09:13:35Z</time>
      </trkpt>
      <trkpt lat="42.041602" lon="0.756090">
        <ele>1613.0</ele>
        <time>2015-08-29T09:13:36Z</time>
      </trkpt>
      <trkpt lat="42.041593" lon="0.756182">
        <ele>1614.0</ele>
        <time>2015-08-29T09:13:37Z</time>
      </trkpt>
      <trkpt lat="42.041578" lon="0.756257">
        <ele>1615.0</ele>
        <time>2015-08-29T09:13:38Z</time>
      </trkpt>
      <trkpt lat="42.041558" lon="0.756317">
        <ele>1616.0</ele>
        <time>2015-08-29T09:13:39Z</time>
      </trkpt>
      <trkpt lat="42.041540" lon="0.756372">
        <ele>1617.0</ele>
        <time>2015-08-29T09:13:40Z</time>
      </trkpt>
      <trkpt lat="42.041517" lon="0.756427">
        <ele>1620.0</ele>
        <time>2015-08-29T09:13:41Z</time>
      </trkpt>
      <trkpt lat="42.041497" lon="0.756487">
        <ele>1620.0</ele>
        <time>2015-08-29T09:13:42Z</time>
      </trkpt>
      <trkpt lat="42.041473" lon="0.756545">
        <ele>1621.0</ele>
        <time>2015-08-29T09:13:43Z</time>
      </trkpt>
      <trkpt lat="42.041438" lon="0.756607">
        <ele>1621.0</ele>
        <time>2015-08-29T09:13:44Z</time>
      </trkpt>
      <trkpt lat="42.041400" lon="0.756672">
        <ele>1621.0</ele>
        <time>2015-08-29T09:13:45Z</time>
      </trkpt>
      <trkpt lat="42.041363" lon="0.756728">
        <ele>1621.0</ele>
        <time>2015-08-29T09:13:46Z</time>
      </trkpt>
      <trkpt lat="42.041335" lon="0.756788">
        <ele>1621.0</ele>
        <time>2015-08-29T09:13:47Z</time>
      </trkpt>
      <trkpt lat="42.041307" lon="0.756842">
        <ele>1619.0</ele>
        <time>2015-08-29T09:13:48Z</time>
      </trkpt>
      <trkpt lat="42.041278" lon="0.756898">
        <ele>1618.0</ele>
        <time>2015-08-29T09:13:49Z</time>
      </trkpt>
      <trkpt lat="42.041243" lon="0.756963">
        <ele>1617.0</ele>
        <time>2015-08-29T09:13:50Z</time>
      </trkpt>
      <trkpt lat="42.041205" lon="0.757030">
        <ele>1616.0</ele>
        <time>2015-08-29T09:13:51Z</time>
      </trkpt>
      <trkpt lat="42.041165" lon="0.757097">
        <ele>1616.0</ele>
        <time>2015-08-29T09:13:52Z</time>
      </trkpt>
      <trkpt lat="42.041135" lon="0.757158">
        <ele>1616.0</ele>
        <time>2015-08-29T09:13:53Z</time>
      </trkpt>
      <trkpt lat="42.041108" lon="0.757222">
        <ele>1616.0</ele>
        <time>2015-08-29T09:13:54Z</time>
      </trkpt>
      <trkpt lat="42.041088" lon="0.757288">
        <ele>1615.0</ele>
        <time>2015-08-29T09:13:55Z</time>
      </trkpt>
      <trkpt lat="42.041048" lon="0.757365">
        <ele>1614.0</ele>
        <time>2015-08-29T09:13:56Z</time>
      </trkpt>
      <trkpt lat="42.041015" lon="0.757445">
        <ele>1614.0</ele>
        <time>2015-08-29T09:13:57Z</time>
      </trkpt>
      <trkpt lat="42.040977" lon="0.757523">
        <ele>1614.0</ele>
        <time>2015-08-29T09:13:58Z</time>
      </trkpt>
      <trkpt lat="42.040935" lon="0.757595">
        <ele>1614.0</ele>
        <time>2015-08-29T09:13:59Z</time>
      </trkpt>
      <trkpt lat="42.040895" lon="0.757653">
        <ele>1615.0</ele>
        <time>2015-08-29T09:14:00Z</time>
      </trkpt>
      <trkpt lat="42.040863" lon="0.757698">
        <ele>1617.0</ele>
        <time>2015-08-29T09:14:01Z</time>
      </trkpt>
      <trkpt lat="42.040837" lon="0.757732">
        <ele>1618.0</ele>
        <time>2015-08-29T09:14:02Z</time>
      </trkpt>
      <trkpt lat="42.040785" lon="0.757787">
        <ele>1618.0</ele>
        <time>2015-08-29T09:14:04Z</time>
      </trkpt>
      <trkpt lat="42.040755" lon="0.757820">
        <ele>1617.0</ele>
        <time>2015-08-29T09:14:05Z</time>
      </trkpt>
      <trkpt lat="42.040723" lon="0.757863">
        <ele>1616.0</ele>
        <time>2015-08-29T09:14:06Z</time>
      </trkpt>
      <trkpt lat="42.040707" lon="0.757908">
        <ele>1617.0</ele>
        <time>2015-08-29T09:14:07Z</time>
      </trkpt>
      <trkpt lat="42.040688" lon="0.757963">
        <ele>1618.0</ele>
        <time>2015-08-29T09:14:08Z</time>
      </trkpt>
      <trkpt lat="42.040663" lon="0.758030">
        <ele>1618.0</ele>
        <time>2015-08-29T09:14:09Z</time>
      </trkpt>
      <trkpt lat="42.040640" lon="0.758088">
        <ele>1618.0</ele>
        <time>2015-08-29T09:14:10Z</time>
      </trkpt>
      <trkpt lat="42.040625" lon="0.758135">
        <ele>1618.0</ele>
        <time>2015-08-29T09:14:11Z</time>
      </trkpt>
      <trkpt lat="42.040628" lon="0.758203">
        <ele>1621.0</ele>
        <time>2015-08-29T09:14:13Z</time>
      </trkpt>
      <trkpt lat="42.040600" lon="0.758300">
        <ele>1622.0</ele>
        <time>2015-08-29T09:14:15Z</time>
      </trkpt>
      <trkpt lat="42.040572" lon="0.758345">
        <ele>1623.0</ele>
        <time>2015-08-29T09:14:16Z</time>
      </trkpt>
      <trkpt lat="42.040527" lon="0.758387">
        <ele>1624.0</ele>
        <time>2015-08-29T09:14:17Z</time>
      </trkpt>
      <trkpt lat="42.040487" lon="0.758423">
        <ele>1625.0</ele>
        <time>2015-08-29T09:14:18Z</time>
      </trkpt>
      <trkpt lat="42.040448" lon="0.758470">
        <ele>1626.0</ele>
        <time>2015-08-29T09:14:19Z</time>
      </trkpt>
      <trkpt lat="42.040410" lon="0.758520">
        <ele>1627.0</ele>
        <time>2015-08-29T09:14:20Z</time>
      </trkpt>
      <trkpt lat="42.040375" lon="0.758557">
        <ele>1628.0</ele>
        <time>2015-08-29T09:14:21Z</time>
      </trkpt>
      <trkpt lat="42.040337" lon="0.758583">
        <ele>1629.0</ele>
        <time>2015-08-29T09:14:22Z</time>
      </trkpt>
      <trkpt lat="42.040272" lon="0.758615">
        <ele>1628.0</ele>
        <time>2015-08-29T09:14:23Z</time>
      </trkpt>
      <trkpt lat="42.040237" lon="0.758637">
        <ele>1631.0</ele>
        <time>2015-08-29T09:14:24Z</time>
      </trkpt>
      <trkpt lat="42.040200" lon="0.758660">
        <ele>1633.0</ele>
        <time>2015-08-29T09:14:25Z</time>
      </trkpt>
      <trkpt lat="42.040153" lon="0.758673">
        <ele>1634.0</ele>
        <time>2015-08-29T09:14:26Z</time>
      </trkpt>
      <trkpt lat="42.040102" lon="0.758678">
        <ele>1634.0</ele>
        <time>2015-08-29T09:14:27Z</time>
      </trkpt>
      <trkpt lat="42.040047" lon="0.758680">
        <ele>1634.0</ele>
        <time>2015-08-29T09:14:28Z</time>
      </trkpt>
      <trkpt lat="42.039987" lon="0.758682">
        <ele>1633.0</ele>
        <time>2015-08-29T09:14:29Z</time>
      </trkpt>
      <trkpt lat="42.039935" lon="0.758683">
        <ele>1634.0</ele>
        <time>2015-08-29T09:14:30Z</time>
      </trkpt>
      <trkpt lat="42.039895" lon="0.758683">
        <ele>1634.0</ele>
        <time>2015-08-29T09:14:31Z</time>
      </trkpt>
      <trkpt lat="42.039825" lon="0.758705">
        <ele>1635.0</ele>
        <time>2015-08-29T09:14:33Z</time>
      </trkpt>
      <trkpt lat="42.039768" lon="0.758735">
        <ele>1634.0</ele>
        <time>2015-08-29T09:14:34Z</time>
      </trkpt>
      <trkpt lat="42.039702" lon="0.758787">
        <ele>1634.0</ele>
        <time>2015-08-29T09:14:35Z</time>
      </trkpt>
      <trkpt lat="42.039645" lon="0.758855">
        <ele>1635.0</ele>
        <time>2015-08-29T09:14:36Z</time>
      </trkpt>
      <trkpt lat="42.039605" lon="0.758927">
        <ele>1636.0</ele>
        <time>2015-08-29T09:14:37Z</time>
      </trkpt>
      <trkpt lat="42.039577" lon="0.758988">
        <ele>1637.0</ele>
        <time>2015-08-29T09:14:38Z</time>
      </trkpt>
      <trkpt lat="42.039552" lon="0.759037">
        <ele>1638.0</ele>
        <time>2015-08-29T09:14:39Z</time>
      </trkpt>
      <trkpt lat="42.039503" lon="0.759097">
        <ele>1639.0</ele>
        <time>2015-08-29T09:14:40Z</time>
      </trkpt>
      <trkpt lat="42.039460" lon="0.759125">
        <ele>1641.0</ele>
        <time>2015-08-29T09:14:41Z</time>
      </trkpt>
      <trkpt lat="42.039420" lon="0.759153">
        <ele>1643.0</ele>
        <time>2015-08-29T09:14:42Z</time>
      </trkpt>
      <trkpt lat="42.039375" lon="0.759188">
        <ele>1645.0</ele>
        <time>2015-08-29T09:14:43Z</time>
      </trkpt>
      <trkpt lat="42.039323" lon="0.759230">
        <ele>1646.0</ele>
        <time>2015-08-29T09:14:44Z</time>
      </trkpt>
      <trkpt lat="42.039265" lon="0.759280">
        <ele>1646.0</ele>
        <time>2015-08-29T09:14:45Z</time>
      </trkpt>
      <trkpt lat="42.039205" lon="0.759342">
        <ele>1646.0</ele>
        <time>2015-08-29T09:14:46Z</time>
      </trkpt>
      <trkpt lat="42.039157" lon="0.759407">
        <ele>1646.0</ele>
        <time>2015-08-29T09:14:47Z</time>
      </trkpt>
      <trkpt lat="42.039117" lon="0.759470">
        <ele>1647.0</ele>
        <time>2015-08-29T09:14:48Z</time>
      </trkpt>
      <trkpt lat="42.039080" lon="0.759523">
        <ele>1648.0</ele>
        <time>2015-08-29T09:14:49Z</time>
      </trkpt>
      <trkpt lat="42.039045" lon="0.759558">
        <ele>1648.0</ele>
        <time>2015-08-29T09:14:50Z</time>
      </trkpt>
      <trkpt lat="42.039008" lon="0.759578">
        <ele>1648.0</ele>
        <time>2015-08-29T09:14:51Z</time>
      </trkpt>
      <trkpt lat="42.038962" lon="0.759595">
        <ele>1647.0</ele>
        <time>2015-08-29T09:14:52Z</time>
      </trkpt>
      <trkpt lat="42.038915" lon="0.759615">
        <ele>1647.0</ele>
        <time>2015-08-29T09:14:53Z</time>
      </trkpt>
      <trkpt lat="42.038870" lon="0.759635">
        <ele>1647.0</ele>
        <time>2015-08-29T09:14:54Z</time>
      </trkpt>
      <trkpt lat="42.038830" lon="0.759650">
        <ele>1646.0</ele>
        <time>2015-08-29T09:14:55Z</time>
      </trkpt>
      <trkpt lat="42.038785" lon="0.759655">
        <ele>1647.0</ele>
        <time>2015-08-29T09:14:56Z</time>
      </trkpt>
      <trkpt lat="42.038713" lon="0.759650">
        <ele>1646.0</ele>
        <time>2015-08-29T09:14:57Z</time>
      </trkpt>
      <trkpt lat="42.038663" lon="0.759632">
        <ele>1647.0</ele>
        <time>2015-08-29T09:14:58Z</time>
      </trkpt>
      <trkpt lat="42.038617" lon="0.759608">
        <ele>1649.0</ele>
        <time>2015-08-29T09:14:59Z</time>
      </trkpt>
      <trkpt lat="42.038572" lon="0.759580">
        <ele>1650.0</ele>
        <time>2015-08-29T09:15:00Z</time>
      </trkpt>
      <trkpt lat="42.038530" lon="0.759550">
        <ele>1651.0</ele>
        <time>2015-08-29T09:15:01Z</time>
      </trkpt>
      <trkpt lat="42.038485" lon="0.759523">
        <ele>1652.0</ele>
        <time>2015-08-29T09:15:02Z</time>
      </trkpt>
      <trkpt lat="42.038448" lon="0.759495">
        <ele>1652.0</ele>
        <time>2015-08-29T09:15:03Z</time>
      </trkpt>
      <trkpt lat="42.038417" lon="0.759457">
        <ele>1653.0</ele>
        <time>2015-08-29T09:15:04Z</time>
      </trkpt>
      <trkpt lat="42.038393" lon="0.759405">
        <ele>1653.0</ele>
        <time>2015-08-29T09:15:05Z</time>
      </trkpt>
      <trkpt lat="42.038365" lon="0.759347">
        <ele>1653.0</ele>
        <time>2015-08-29T09:15:06Z</time>
      </trkpt>
      <trkpt lat="42.038330" lon="0.759287">
        <ele>1654.0</ele>
        <time>2015-08-29T09:15:07Z</time>
      </trkpt>
      <trkpt lat="42.040527" lon="0.758387">
        <ele>1624.0</ele>
        <time>2015-08-29T09:14:17Z</time>
      </trkpt>
      <trkpt lat="42.040487" lon="0.758423">
        <ele>1625.0</ele>
        <time>2015-08-29T09:14:18Z</time>
      </trkpt>
      <trkpt lat="42.040448" lon="0.758470">
        <ele>1626.0</ele>
        <time>2015-08-29T09:14:19Z</time>
      </trkpt>
      <trkpt lat="42.040410" lon="0.758520">
        <ele>1627.0</ele>
        <time>2015-08-29T09:14:20Z</time>
      </trkpt>
      <trkpt lat="42.040375" lon="0.758557">
        <ele>1628.0</ele>
        <time>2015-08-29T09:14:21Z</time>
      </trkpt>
      <trkpt lat="42.040337" lon="0.758583">
        <ele>1629.0</ele>
        <time>2015-08-29T09:14:22Z</time>
      </trkpt>
      <trkpt lat="42.040272" lon="0.758615">
        <ele>1628.0</ele>
        <time>2015-08-29T09:14:23Z</time>
      </trkpt>
      <trkpt lat="42.040237" lon="0.758637">
        <ele>1631.0</ele>
        <time>2015-08-29T09:14:24Z</time>
      </trkpt>
      <trkpt lat="42.040200" lon="0.758660">
        <ele>1633.0</ele>
        <time>2015-08-29T09:14:25Z</time>
      </trkpt>
      <trkpt lat="42.040153" lon="0.758673">
        <ele>1634.0</ele>
        <time>2015-08-29T09:14:26Z</time>
      </trkpt>
      <trkpt lat="42.040102" lon="0.758678">
        <ele>1634.0</ele>
        <time>2015-08-29T09:14:27Z</time>
      </trkpt>
      <trkpt lat="42.040047" lon="0.758680">
        <ele>1634.0</ele>
        <time>2015-08-29T09:14:28Z</time>
      </trkpt>
      <trkpt lat="42.039987" lon="0.758682">
        <ele>1633.0</ele>
        <time>2015-08-29T09:14:29Z</time>
      </trkpt>
      <trkpt lat="42.039935" lon="0.758683">
        <ele>1634.0</ele>
        <time>2015-08-29T09:14:30Z</time>
      </trkpt>
      <trkpt lat="42.039895" lon="0.758683">
        <ele>1634.0</ele>
        <time>2015-08-29T09:14:31Z</time>
      </trkpt>
      <trkpt lat="42.039825" lon="0.758705">
        <ele>1635.0</ele>
        <time>2015-08-29T09:14:33Z</time>
      </trkpt>
      <trkpt lat="42.039768" lon="0.758735">
        <ele>1634.0</ele>
        <time>2015-08-29T09:14:34Z</time>
      </trkpt>
      <trkpt lat="42.039702" lon="0.758787">
        <ele>1634.0</ele>
        <time>2015-08-29T09:14:35Z</time>
      </trkpt>
      <trkpt lat="42.039645" lon="0.758855">
        <ele>1635.0</ele>
        <time>2015-08-29T09:14:36Z</time>
      </trkpt>
      <trkpt lat="42.039605" lon="0.758927">
        <ele>1636.0</ele>
        <time>2015-08-29T09:14:37Z</time>
      </trkpt>
      <trkpt lat="42.039577" lon="0.758988">
        <ele>1637.0</ele>
        <time>2015-08-29T09:14:38Z</time>
      </trkpt>
      <trkpt lat="42.039552" lon="0.759037">
        <ele>1638.0</ele>
        <time>2015-08-29T09:14:39Z</time>
      </trkpt>
      <trkpt lat="42.039503" lon="0.759097">
        <ele>1639.0</ele>
        <time>2015-08-29T09:14:40Z</time>
      </trkpt>
      <trkpt lat="42.039460" lon="0.759125">
        <ele>1641.0</ele>
        <time>2015-08-29T09:14:41Z</time>
      </trkpt>
      <trkpt lat="42.039420" lon="0.759153">
        <ele>1643.0</ele>
        <time>2015-08-29T09:14:42Z</time>
      </trkpt>
      <trkpt lat="42.039375" lon="0.759188">
        <ele>1645.0</ele>
        <time>2015-08-29T09:14:43Z</time>
      </trkpt>
      <trkpt lat="42.039323" lon="0.759230">
        <ele>1646.0</ele>
        <time>2015-08-29T09:14:44Z</time>
      </trkpt>
      <trkpt lat="42.039265" lon="0.759280">
        <ele>1646.0</ele>
        <time>2015-08-29T09:14:45Z</time>
      </trkpt>
      <trkpt lat="42.039205" lon="0.759342">
        <ele>1646.0</ele>
        <time>2015-08-29T09:14:46Z</time>
      </trkpt>
      <trkpt lat="42.039157" lon="0.759407">
        <ele>1646.0</ele>
        <time>2015-08-29T09:14:47Z</time>
      </trkpt>
      <trkpt lat="42.039117" lon="0.759470">
        <ele>1647.0</ele>
        <time>2015-08-29T09:14:48Z</time>
      </trkpt>
      <trkpt lat="42.039080" lon="0.759523">
        <ele>1648.0</ele>
        <time>2015-08-29T09:14:49Z</time>
      </trkpt>
      <trkpt lat="42.039045" lon="0.759558">
        <ele>1648.0</ele>
        <time>2015-08-29T09:14:50Z</time>
      </trkpt>
      <trkpt lat="42.039008" lon="0.759578">
        <ele>1648.0</ele>
        <time>2015-08-29T09:14:51Z</time>
      </trkpt>
      <trkpt lat="42.038962" lon="0.759595">
        <ele>1647.0</ele>
        <time>2015-08-29T09:14:52Z</time>
      </trkpt>
      <trkpt lat="42.038915" lon="0.759615">
        <ele>1647.0</ele>
        <time>2015-08-29T09:14:53Z</time>
      </trkpt>
      <trkpt lat="42.038870" lon="0.759635">
        <ele>1647.0</ele>
        <time>2015-08-29T09:14:54Z</time>
      </trkpt>
      <trkpt lat="42.038830" lon="0.759650">
        <ele>1646.0</ele>
        <time>2015-08-29T09:14:55Z</time>
      </trkpt>
      <trkpt lat="42.038785" lon="0.759655">
        <ele>1647.0</ele>
        <time>2015-08-29T09:14:56Z</time>
      </trkpt>
      <trkpt lat="42.038713" lon="0.759650">
        <ele>1646.0</ele>
        <time>2015-08-29T09:14:57Z</time>
      </trkpt>
      <trkpt lat="42.038663" lon="0.759632">
        <ele>1647.0</ele>
        <time>2015-08-29T09:14:58Z</time>
      </trkpt>
      <trkpt lat="42.038617" lon="0.759608">
        <ele>1649.0</ele>
        <time>2015-08-29T09:14:59Z</time>
      </trkpt>
      <trkpt lat="42.038572" lon="0.759580">
        <ele>1650.0</ele>
        <time>2015-08-29T09:15:00Z</time>
      </trkpt>
      <trkpt lat="42.038530" lon="0.759550">
        <ele>1651.0</ele>
        <time>2015-08-29T09:15:01Z</time>
      </trkpt>
      <trkpt lat="42.038485" lon="0.759523">
        <ele>1652.0</ele>
        <time>2015-08-29T09:15:02Z</time>
      </trkpt>
      <trkpt lat="42.038448" lon="0.759495">
        <ele>1652.0</ele>
        <time>2015-08-29T09:15:03Z</time>
      </trkpt>
      <trkpt lat="42.038417" lon="0.759457">
        <ele>1653.0</ele>
        <time>2015-08-29T09:15:04Z</time>
      </trkpt>
      <trkpt lat="42.038393" lon="0.759405">
        <ele>1653.0</ele>
        <time>2015-08-29T09:15:05Z</time>
      </trkpt>
      <trkpt lat="42.038365" lon="0.759347">
        <ele>1653.0</ele>
        <time>2015-08-29T09:15:06Z</time>
      </trkpt>
      <trkpt lat="42.038330" lon="0.759287">
        <ele>1654.0</ele>
        <time>2015-08-29T09:15:07Z</time>
      </trkpt>
      <trkpt lat="42.038288" lon="0.759232">
        <ele>1654.0</ele>
        <time>2015-08-29T09:15:08Z</time>
      </trkpt>
      <trkpt lat="42.038242" lon="0.759182">
        <ele>1654.0</ele>
        <time>2015-08-29T09:15:09Z</time>
      </trkpt>
      <trkpt lat="42.038192" lon="0.759137">
        <ele>1654.0</ele>
        <time>2015-08-29T09:15:10Z</time>
      </trkpt>
      <trkpt lat="42.038145" lon="0.759103">
        <ele>1655.0</ele>
        <time>2015-08-29T09:15:11Z</time>
      </trkpt>
      <trkpt lat="42.038090" lon="0.759082">
        <ele>1656.0</ele>
        <time>2015-08-29T09:15:12Z</time>
      </trkpt>
      <trkpt lat="42.038035" lon="0.759073">
        <ele>1656.0</ele>
        <time>2015-08-29T09:15:13Z</time>
      </trkpt>
      <trkpt lat="42.037978" lon="0.759068">
        <ele>1656.0</ele>
        <time>2015-08-29T09:15:14Z</time>
      </trkpt>
      <trkpt lat="42.037927" lon="0.759060">
        <ele>1656.0</ele>
        <time>2015-08-29T09:15:15Z</time>
      </trkpt>
      <trkpt lat="42.037868" lon="0.759060">
        <ele>1657.0</ele>
        <time>2015-08-29T09:15:16Z</time>
      </trkpt>
      <trkpt lat="42.037800" lon="0.759068">
        <ele>1657.0</ele>
        <time>2015-08-29T09:15:17Z</time>
      </trkpt>
      <trkpt lat="42.037743" lon="0.759082">
        <ele>1657.0</ele>
        <time>2015-08-29T09:15:18Z</time>
      </trkpt>
      <trkpt lat="42.037698" lon="0.759097">
        <ele>1658.0</ele>
        <time>2015-08-29T09:15:19Z</time>
      </trkpt>
      <trkpt lat="42.037657" lon="0.759112">
        <ele>1659.0</ele>
        <time>2015-08-29T09:15:20Z</time>
      </trkpt>
      <trkpt lat="42.037617" lon="0.759127">
        <ele>1660.0</ele>
        <time>2015-08-29T09:15:21Z</time>
      </trkpt>
      <trkpt lat="42.037532" lon="0.759167">
        <ele>1658.0</ele>
        <time>2015-08-29T09:15:23Z</time>
      </trkpt>
      <trkpt lat="42.037480" lon="0.759208">
        <ele>1658.0</ele>
        <time>2015-08-29T09:15:24Z</time>
      </trkpt>
      <trkpt lat="42.037440" lon="0.759283">
        <ele>1658.0</ele>
        <time>2015-08-29T09:15:25Z</time>
      </trkpt>
      <trkpt lat="42.037418" lon="0.759373">
        <ele>1659.0</ele>
        <time>2015-08-29T09:15:26Z</time>
      </trkpt>
      <trkpt lat="42.037402" lon="0.759468">
        <ele>1659.0</ele>
        <time>2015-08-29T09:15:27Z</time>
      </trkpt>
      <trkpt lat="42.037400" lon="0.759545">
        <ele>1660.0</ele>
        <time>2015-08-29T09:15:28Z</time>
      </trkpt>
      <trkpt lat="42.037388" lon="0.759600">
        <ele>1660.0</ele>
        <time>2015-08-29T09:15:29Z</time>
      </trkpt>
      <trkpt lat="42.037375" lon="0.759645">
        <ele>1659.0</ele>
        <time>2015-08-29T09:15:30Z</time>
      </trkpt>
      <trkpt lat="42.037365" lon="0.759708">
        <ele>1658.0</ele>
        <time>2015-08-29T09:15:31Z</time>
      </trkpt>
      <trkpt lat="42.037362" lon="0.759763">
        <ele>1659.0</ele>
        <time>2015-08-29T09:15:32Z</time>
      </trkpt>
      <trkpt lat="42.037350" lon="0.759842">
        <ele>1659.0</ele>
        <time>2015-08-29T09:15:33Z</time>
      </trkpt>
      <trkpt lat="42.037312" lon="0.759910">
        <ele>1657.0</ele>
        <time>2015-08-29T09:15:34Z</time>
      </trkpt>
      <trkpt lat="42.037258" lon="0.759942">
        <ele>1656.0</ele>
        <time>2015-08-29T09:15:35Z</time>
      </trkpt>
      <trkpt lat="42.037193" lon="0.759952">
        <ele>1654.0</ele>
        <time>2015-08-29T09:15:36Z</time>
      </trkpt>
      <trkpt lat="42.037132" lon="0.759953">
        <ele>1652.0</ele>
        <time>2015-08-29T09:15:37Z</time>
      </trkpt>
      <trkpt lat="42.037072" lon="0.759968">
        <ele>1651.0</ele>
        <time>2015-08-29T09:15:38Z</time>
      </trkpt>
      <trkpt lat="42.037008" lon="0.759988">
        <ele>1651.0</ele>
        <time>2015-08-29T09:15:39Z</time>
      </trkpt>
      <trkpt lat="42.036942" lon="0.760005">
        <ele>1650.0</ele>
        <time>2015-08-29T09:15:40Z</time>
      </trkpt>
      <trkpt lat="42.036870" lon="0.760013">
        <ele>1650.0</ele>
        <time>2015-08-29T09:15:41Z</time>
      </trkpt>
      <trkpt lat="42.036803" lon="0.760018">
        <ele>1649.0</ele>
        <time>2015-08-29T09:15:42Z</time>
      </trkpt>
      <trkpt lat="42.036742" lon="0.760035">
        <ele>1649.0</ele>
        <time>2015-08-29T09:15:43Z</time>
      </trkpt>
      <trkpt lat="42.036678" lon="0.760070">
        <ele>1648.0</ele>
        <time>2015-08-29T09:15:44Z</time>
      </trkpt>
      <trkpt lat="42.036617" lon="0.760107">
        <ele>1647.0</ele>
        <time>2015-08-29T09:15:45Z</time>
      </trkpt>
      <trkpt lat="42.036563" lon="0.760132">
        <ele>1646.0</ele>
        <time>2015-08-29T09:15:46Z</time>
      </trkpt>
      <trkpt lat="42.036515" lon="0.760145">
        <ele>1646.0</ele>
        <time>2015-08-29T09:15:47Z</time>
      </trkpt>
      <trkpt lat="42.036472" lon="0.760153">
        <ele>1644.0</ele>
        <time>2015-08-29T09:15:48Z</time>
      </trkpt>
      <trkpt lat="42.036393" lon="0.760122">
        <ele>1643.0</ele>
        <time>2015-08-29T09:15:50Z</time>
      </trkpt>
      <trkpt lat="42.036350" lon="0.760053">
        <ele>1642.0</ele>
        <time>2015-08-29T09:15:51Z</time>
      </trkpt>
      <trkpt lat="42.036317" lon="0.759955">
        <ele>1640.0</ele>
        <time>2015-08-29T09:15:52Z</time>
      </trkpt>
      <trkpt lat="42.036307" lon="0.759845">
        <ele>1639.0</ele>
        <time>2015-08-29T09:15:53Z</time>
      </trkpt>
      <trkpt lat="42.036320" lon="0.759735">
        <ele>1639.0</ele>
        <time>2015-08-29T09:15:54Z</time>
      </trkpt>
      <trkpt lat="42.036357" lon="0.759610">
        <ele>1638.0</ele>
        <time>2015-08-29T09:15:55Z</time>
      </trkpt>
      <trkpt lat="42.036407" lon="0.759500">
        <ele>1637.0</ele>
        <time>2015-08-29T09:15:56Z</time>
      </trkpt>
      <trkpt lat="42.036465" lon="0.759400">
        <ele>1636.0</ele>
        <time>2015-08-29T09:15:57Z</time>
      </trkpt>
      <trkpt lat="42.036528" lon="0.759308">
        <ele>1635.0</ele>
        <time>2015-08-29T09:15:58Z</time>
      </trkpt>
      <trkpt lat="42.036607" lon="0.759220">
        <ele>1633.0</ele>
        <time>2015-08-29T09:15:59Z</time>
      </trkpt>
      <trkpt lat="42.036695" lon="0.759135">
        <ele>1632.0</ele>
        <time>2015-08-29T09:16:00Z</time>
      </trkpt>
      <trkpt lat="42.036788" lon="0.759052">
        <ele>1631.0</ele>
        <time>2015-08-29T09:16:01Z</time>
      </trkpt>
      <trkpt lat="42.036882" lon="0.758963">
        <ele>1631.0</ele>
        <time>2015-08-29T09:16:02Z</time>
      </trkpt>
      <trkpt lat="42.036967" lon="0.758868">
        <ele>1631.0</ele>
        <time>2015-08-29T09:16:03Z</time>
      </trkpt>
      <trkpt lat="42.037043" lon="0.758770">
        <ele>1631.0</ele>
        <time>2015-08-29T09:16:04Z</time>
      </trkpt>
      <trkpt lat="42.037110" lon="0.758655">
        <ele>1629.0</ele>
        <time>2015-08-29T09:16:05Z</time>
      </trkpt>
      <trkpt lat="42.037173" lon="0.758558">
        <ele>1630.0</ele>
        <time>2015-08-29T09:16:06Z</time>
      </trkpt>
      <trkpt lat="42.037237" lon="0.758447">
        <ele>1630.0</ele>
        <time>2015-08-29T09:16:07Z</time>
      </trkpt>
      <trkpt lat="42.037308" lon="0.758325">
        <ele>1628.0</ele>
        <time>2015-08-29T09:16:08Z</time>
      </trkpt>
      <trkpt lat="42.037393" lon="0.758217">
        <ele>1627.0</ele>
        <time>2015-08-29T09:16:09Z</time>
      </trkpt>
      <trkpt lat="42.037492" lon="0.758138">
        <ele>1627.0</ele>
        <time>2015-08-29T09:16:10Z</time>
      </trkpt>
      <trkpt lat="42.037590" lon="0.758075">
        <ele>1627.0</ele>
        <time>2015-08-29T09:16:11Z</time>
      </trkpt>
      <trkpt lat="42.037692" lon="0.758020">
        <ele>1628.0</ele>
        <time>2015-08-29T09:16:12Z</time>
      </trkpt>
      <trkpt lat="42.037792" lon="0.757973">
        <ele>1628.0</ele>
        <time>2015-08-29T09:16:13Z</time>
      </trkpt>
      <trkpt lat="42.037893" lon="0.757935">
        <ele>1628.0</ele>
        <time>2015-08-29T09:16:14Z</time>
      </trkpt>
      <trkpt lat="42.037993" lon="0.757913">
        <ele>1629.0</ele>
        <time>2015-08-29T09:16:15Z</time>
      </trkpt>
      <trkpt lat="42.038090" lon="0.757913">
        <ele>1630.0</ele>
        <time>2015-08-29T09:16:16Z</time>
      </trkpt>
      <trkpt lat="42.038185" lon="0.757928">
        <ele>1632.0</ele>
        <time>2015-08-29T09:16:17Z</time>
      </trkpt>
      <trkpt lat="42.038277" lon="0.757960">
        <ele>1634.0</ele>
        <time>2015-08-29T09:16:18Z</time>
      </trkpt>
      <trkpt lat="42.038360" lon="0.758003">
        <ele>1636.0</ele>
        <time>2015-08-29T09:16:19Z</time>
      </trkpt>
      <trkpt lat="42.038433" lon="0.758057">
        <ele>1638.0</ele>
        <time>2015-08-29T09:16:20Z</time>
      </trkpt>
      <trkpt lat="42.038497" lon="0.758117">
        <ele>1639.0</ele>
        <time>2015-08-29T09:16:21Z</time>
      </trkpt>
      <trkpt lat="42.038550" lon="0.758187">
        <ele>1639.0</ele>
        <time>2015-08-29T09:16:22Z</time>
      </trkpt>
      <trkpt lat="42.038592" lon="0.758250">
        <ele>1641.0</ele>
        <time>2015-08-29T09:16:23Z</time>
      </trkpt>
      <trkpt lat="42.038625" lon="0.758330">
        <ele>1642.0</ele>
        <time>2015-08-29T09:16:24Z</time>
      </trkpt>
      <trkpt lat="42.038647" lon="0.758430">
        <ele>1642.0</ele>
        <time>2015-08-29T09:16:25Z</time>
      </trkpt>
      <trkpt lat="42.038677" lon="0.758527">
        <ele>1642.0</ele>
        <time>2015-08-29T09:16:26Z</time>
      </trkpt>
      <trkpt lat="42.038710" lon="0.758610">
        <ele>1643.0</ele>
        <time>2015-08-29T09:16:27Z</time>
      </trkpt>
      <trkpt lat="42.038742" lon="0.758683">
        <ele>1644.0</ele>
        <time>2015-08-29T09:16:28Z</time>
      </trkpt>
      <trkpt lat="42.038763" lon="0.758753">
        <ele>1646.0</ele>
        <time>2015-08-29T09:16:29Z</time>
      </trkpt>
      <trkpt lat="42.038775" lon="0.758825">
        <ele>1646.0</ele>
        <time>2015-08-29T09:16:30Z</time>
      </trkpt>
      <trkpt lat="42.038782" lon="0.758902">
        <ele>1647.0</ele>
        <time>2015-08-29T09:16:31Z</time>
      </trkpt>
      <trkpt lat="42.038785" lon="0.758985">
        <ele>1648.0</ele>
        <time>2015-08-29T09:16:32Z</time>
      </trkpt>
      <trkpt lat="42.038787" lon="0.759060">
        <ele>1649.0</ele>
        <time>2015-08-29T09:16:33Z</time>
      </trkpt>
      <trkpt lat="42.038783" lon="0.759132">
        <ele>1650.0</ele>
        <time>2015-08-29T09:16:34Z</time>
      </trkpt>
      <trkpt lat="42.038775" lon="0.759203">
        <ele>1651.0</ele>
        <time>2015-08-29T09:16:35Z</time>
      </trkpt>
      <trkpt lat="42.038762" lon="0.759272">
        <ele>1651.0</ele>
        <time>2015-08-29T09:16:36Z</time>
      </trkpt>
      <trkpt lat="42.038708" lon="0.759320">
        <ele>1651.0</ele>
        <time>2015-08-29T09:16:37Z</time>
      </trkpt>
      <trkpt lat="42.038675" lon="0.759350">
        <ele>1651.0</ele>
        <time>2015-08-29T09:16:38Z</time>
      </trkpt>
      <trkpt lat="42.038627" lon="0.759363">
        <ele>1650.0</ele>
        <time>2015-08-29T09:16:39Z</time>
      </trkpt>
      <trkpt lat="42.038568" lon="0.759345">
        <ele>1650.0</ele>
        <time>2015-08-29T09:16:40Z</time>
      </trkpt>
      <trkpt lat="42.038500" lon="0.759312">
        <ele>1650.0</ele>
        <time>2015-08-29T09:16:41Z</time>
      </trkpt>
      <trkpt lat="42.038428" lon="0.759248">
        <ele>1650.0</ele>
        <time>2015-08-29T09:16:42Z</time>
      </trkpt>
      <trkpt lat="42.038375" lon="0.759167">
        <ele>1650.0</ele>
        <time>2015-08-29T09:16:43Z</time>
      </trkpt>
      <trkpt lat="42.038330" lon="0.759070">
        <ele>1650.0</ele>
        <time>2015-08-29T09:16:44Z</time>
      </trkpt>
      <trkpt lat="42.038295" lon="0.758967">
        <ele>1650.0</ele>
        <time>2015-08-29T09:16:45Z</time>
      </trkpt>
      <trkpt lat="42.038272" lon="0.758862">
        <ele>1650.0</ele>
        <time>2015-08-29T09:16:46Z</time>
      </trkpt>
      <trkpt lat="42.038257" lon="0.758757">
        <ele>1650.0</ele>
        <time>2015-08-29T09:16:47Z</time>
      </trkpt>
      <trkpt lat="42.038252" lon="0.758650">
        <ele>1651.0</ele>
        <time>2015-08-29T09:16:48Z</time>
      </trkpt>
      <trkpt lat="42.038262" lon="0.758540">
        <ele>1651.0</ele>
        <time>2015-08-29T09:16:49Z</time>
      </trkpt>
      <trkpt lat="42.038288" lon="0.758420">
        <ele>1651.0</ele>
        <time>2015-08-29T09:16:50Z</time>
      </trkpt>
      <trkpt lat="42.038330" lon="0.758303">
        <ele>1652.0</ele>
        <time>2015-08-29T09:16:51Z</time>
      </trkpt>
      <trkpt lat="42.038388" lon="0.758190">
        <ele>1652.0</ele>
        <time>2015-08-29T09:16:52Z</time>
      </trkpt>
      <trkpt lat="42.038457" lon="0.758078">
        <ele>1652.0</ele>
        <time>2015-08-29T09:16:53Z</time>
      </trkpt>
      <trkpt lat="42.038532" lon="0.757968">
        <ele>1652.0</ele>
        <time>2015-08-29T09:16:54Z</time>
      </trkpt>
      <trkpt lat="42.038612" lon="0.757863">
        <ele>1652.0</ele>
        <time>2015-08-29T09:16:55Z</time>
      </trkpt>
      <trkpt lat="42.038695" lon="0.757767">
        <ele>1653.0</ele>
        <time>2015-08-29T09:16:56Z</time>
      </trkpt>
      <trkpt lat="42.038787" lon="0.757710">
        <ele>1655.0</ele>
        <time>2015-08-29T09:16:57Z</time>
      </trkpt>
      <trkpt lat="42.038883" lon="0.757647">
        <ele>1656.0</ele>
        <time>2015-08-29T09:16:58Z</time>
      </trkpt>
      <trkpt lat="42.038983" lon="0.757585">
        <ele>1656.0</ele>
        <time>2015-08-29T09:16:59Z</time>
      </trkpt>
      <trkpt lat="42.039080" lon="0.757542">
        <ele>1655.0</ele>
        <time>2015-08-29T09:17:00Z</time>
      </trkpt>
      <trkpt lat="42.039168" lon="0.757513">
        <ele>1655.0</ele>
        <time>2015-08-29T09:17:01Z</time>
      </trkpt>
      <trkpt lat="42.039255" lon="0.757492">
        <ele>1656.0</ele>
        <time>2015-08-29T09:17:02Z</time>
      </trkpt>
      <trkpt lat="42.039342" lon="0.757480">
        <ele>1656.0</ele>
        <time>2015-08-29T09:17:03Z</time>
      </trkpt>
      <trkpt lat="42.039427" lon="0.757473">
        <ele>1657.0</ele>
        <time>2015-08-29T09:17:04Z</time>
      </trkpt>
      <trkpt lat="42.039512" lon="0.757468">
        <ele>1658.0</ele>
        <time>2015-08-29T09:17:05Z</time>
      </trkpt>
      <trkpt lat="42.039602" lon="0.757470">
        <ele>1659.0</ele>
        <time>2015-08-29T09:17:06Z</time>
      </trkpt>
      <trkpt lat="42.039698" lon="0.757488">
        <ele>1661.0</ele>
        <time>2015-08-29T09:17:07Z</time>
      </trkpt>
      <trkpt lat="42.039795" lon="0.757528">
        <ele>1663.0</ele>
        <time>2015-08-29T09:17:08Z</time>
      </trkpt>
      <trkpt lat="42.039872" lon="0.757588">
        <ele>1664.0</ele>
        <time>2015-08-29T09:17:09Z</time>
      </trkpt>
      <trkpt lat="42.039927" lon="0.757657">
        <ele>1665.0</ele>
        <time>2015-08-29T09:17:10Z</time>
      </trkpt>
      <trkpt lat="42.039965" lon="0.757732">
        <ele>1667.0</ele>
        <time>2015-08-29T09:17:11Z</time>
      </trkpt>
      <trkpt lat="42.039993" lon="0.757812">
        <ele>1668.0</ele>
        <time>2015-08-29T09:17:12Z</time>
      </trkpt>
      <trkpt lat="42.040013" lon="0.757892">
        <ele>1669.0</ele>
        <time>2015-08-29T09:17:13Z</time>
      </trkpt>
      <trkpt lat="42.040032" lon="0.757948">
        <ele>1671.0</ele>
        <time>2015-08-29T09:17:14Z</time>
      </trkpt>
      <trkpt lat="42.040032" lon="0.758013">
        <ele>1673.0</ele>
        <time>2015-08-29T09:17:15Z</time>
      </trkpt>
      <trkpt lat="42.040023" lon="0.758087">
        <ele>1674.0</ele>
        <time>2015-08-29T09:17:16Z</time>
      </trkpt>
      <trkpt lat="42.040013" lon="0.758140">
        <ele>1674.0</ele>
        <time>2015-08-29T09:17:17Z</time>
      </trkpt>
      <trkpt lat="42.040002" lon="0.758188">
        <ele>1675.0</ele>
        <time>2015-08-29T09:17:18Z</time>
      </trkpt>
      <trkpt lat="42.039980" lon="0.758240">
        <ele>1675.0</ele>
        <time>2015-08-29T09:17:19Z</time>
      </trkpt>
      <trkpt lat="42.039948" lon="0.758290">
        <ele>1674.0</ele>
        <time>2015-08-29T09:17:20Z</time>
      </trkpt>
      <trkpt lat="42.039912" lon="0.758325">
        <ele>1675.0</ele>
        <time>2015-08-29T09:17:21Z</time>
      </trkpt>
      <trkpt lat="42.039863" lon="0.758350">
        <ele>1675.0</ele>
        <time>2015-08-29T09:17:22Z</time>
      </trkpt>
      <trkpt lat="42.039807" lon="0.758350">
        <ele>1676.0</ele>
        <time>2015-08-29T09:17:23Z</time>
      </trkpt>
      <trkpt lat="42.039740" lon="0.758332">
        <ele>1675.0</ele>
        <time>2015-08-29T09:17:24Z</time>
      </trkpt>
      <trkpt lat="42.039680" lon="0.758292">
        <ele>1676.0</ele>
        <time>2015-08-29T09:17:25Z</time>
      </trkpt>
      <trkpt lat="42.039620" lon="0.758242">
        <ele>1675.0</ele>
        <time>2015-08-29T09:17:26Z</time>
      </trkpt>
      <trkpt lat="42.039555" lon="0.758187">
        <ele>1674.0</ele>
        <time>2015-08-29T09:17:27Z</time>
      </trkpt>
      <trkpt lat="42.039488" lon="0.758137">
        <ele>1674.0</ele>
        <time>2015-08-29T09:17:28Z</time>
      </trkpt>
      <trkpt lat="42.039423" lon="0.758083">
        <ele>1674.0</ele>
        <time>2015-08-29T09:17:29Z</time>
      </trkpt>
      <trkpt lat="42.039362" lon="0.758008">
        <ele>1673.0</ele>
        <time>2015-08-29T09:17:30Z</time>
      </trkpt>
      <trkpt lat="42.039322" lon="0.757912">
        <ele>1674.0</ele>
        <time>2015-08-29T09:17:31Z</time>
      </trkpt>
      <trkpt lat="42.039285" lon="0.757798">
        <ele>1675.0</ele>
        <time>2015-08-29T09:17:32Z</time>
      </trkpt>
      <trkpt lat="42.039253" lon="0.757682">
        <ele>1674.0</ele>
        <time>2015-08-29T09:17:33Z</time>
      </trkpt>
      <trkpt lat="42.039230" lon="0.757575">
        <ele>1673.0</ele>
        <time>2015-08-29T09:17:34Z</time>
      </trkpt>
      <trkpt lat="42.039213" lon="0.757472">
        <ele>1672.0</ele>
        <time>2015-08-29T09:17:35Z</time>
      </trkpt>
      <trkpt lat="42.039207" lon="0.757378">
        <ele>1671.0</ele>
        <time>2015-08-29T09:17:36Z</time>
      </trkpt>
      <trkpt lat="42.039212" lon="0.757280">
        <ele>1670.0</ele>
        <time>2015-08-29T09:17:37Z</time>
      </trkpt>
      <trkpt lat="42.039242" lon="0.757173">
        <ele>1670.0</ele>
        <time>2015-08-29T09:17:38Z</time>
      </trkpt>
      <trkpt lat="42.039292" lon="0.757033">
        <ele>1669.0</ele>
        <time>2015-08-29T09:17:39Z</time>
      </trkpt>
      <trkpt lat="42.039355" lon="0.756923">
        <ele>1669.0</ele>
        <time>2015-08-29T09:17:40Z</time>
      </trkpt>
      <trkpt lat="42.039437" lon="0.756840">
        <ele>1668.0</ele>
        <time>2015-08-29T09:17:41Z</time>
      </trkpt>
      <trkpt lat="42.039522" lon="0.756773">
        <ele>1667.0</ele>
        <time>2015-08-29T09:17:42Z</time>
      </trkpt>
      <trkpt lat="42.039608" lon="0.756722">
        <ele>1667.0</ele>
        <time>2015-08-29T09:17:43Z</time>
      </trkpt>
      <trkpt lat="42.039695" lon="0.756675">
        <ele>1665.0</ele>
        <time>2015-08-29T09:17:44Z</time>
      </trkpt>
      <trkpt lat="42.039785" lon="0.756652">
        <ele>1664.0</ele>
        <time>2015-08-29T09:17:45Z</time>
      </trkpt>
      <trkpt lat="42.039877" lon="0.756662">
        <ele>1664.0</ele>
        <time>2015-08-29T09:17:46Z</time>
      </trkpt>
      <trkpt lat="42.039953" lon="0.756702">
        <ele>1663.0</ele>
        <time>2015-08-29T09:17:47Z</time>
      </trkpt>
      <trkpt lat="42.040020" lon="0.756758">
        <ele>1664.0</ele>
        <time>2015-08-29T09:17:48Z</time>
      </trkpt>
      <trkpt lat="42.040075" lon="0.756832">
        <ele>1665.0</ele>
        <time>2015-08-29T09:17:49Z</time>
      </trkpt>
      <trkpt lat="42.040115" lon="0.756915">
        <ele>1665.0</ele>
        <time>2015-08-29T09:17:50Z</time>
      </trkpt>
      <trkpt lat="42.040150" lon="0.756998">
        <ele>1665.0</ele>
        <time>2015-08-29T09:17:51Z</time>
      </trkpt>
      <trkpt lat="42.040178" lon="0.757075">
        <ele>1666.0</ele>
        <time>2015-08-29T09:17:52Z</time>
      </trkpt>
      <trkpt lat="42.040200" lon="0.757157">
        <ele>1667.0</ele>
        <time>2015-08-29T09:17:53Z</time>
      </trkpt>
      <trkpt lat="42.040215" lon="0.757215">
        <ele>1667.0</ele>
        <time>2015-08-29T09:17:54Z</time>
      </trkpt>
      <trkpt lat="42.040230" lon="0.757260">
        <ele>1668.0</ele>
        <time>2015-08-29T09:17:55Z</time>
      </trkpt>
      <trkpt lat="42.040250" lon="0.757307">
        <ele>1668.0</ele>
        <time>2015-08-29T09:17:56Z</time>
      </trkpt>
      <trkpt lat="42.040267" lon="0.757363">
        <ele>1668.0</ele>
        <time>2015-08-29T09:17:57Z</time>
      </trkpt>
      <trkpt lat="42.040277" lon="0.757447">
        <ele>1667.0</ele>
        <time>2015-08-29T09:17:58Z</time>
      </trkpt>
      <trkpt lat="42.040277" lon="0.757530">
        <ele>1667.0</ele>
        <time>2015-08-29T09:17:59Z</time>
      </trkpt>
      <trkpt lat="42.040260" lon="0.757600">
        <ele>1668.0</ele>
        <time>2015-08-29T09:18:00Z</time>
      </trkpt>
      <trkpt lat="42.040238" lon="0.757652">
        <ele>1668.0</ele>
        <time>2015-08-29T09:18:01Z</time>
      </trkpt>
      <trkpt lat="42.040217" lon="0.757695">
        <ele>1668.0</ele>
        <time>2015-08-29T09:18:02Z</time>
      </trkpt>
      <trkpt lat="42.040195" lon="0.757750">
        <ele>1667.0</ele>
        <time>2015-08-29T09:18:03Z</time>
      </trkpt>
      <trkpt lat="42.040180" lon="0.757817">
        <ele>1667.0</ele>
        <time>2015-08-29T09:18:04Z</time>
      </trkpt>
      <trkpt lat="42.040175" lon="0.757872">
        <ele>1670.0</ele>
        <time>2015-08-29T09:18:05Z</time>
      </trkpt>
      <trkpt lat="42.040182" lon="0.757948">
        <ele>1671.0</ele>
        <time>2015-08-29T09:18:06Z</time>
      </trkpt>
      <trkpt lat="42.040202" lon="0.758060">
        <ele>1672.0</ele>
        <time>2015-08-29T09:18:07Z</time>
      </trkpt>
      <trkpt lat="42.040217" lon="0.758152">
        <ele>1672.0</ele>
        <time>2015-08-29T09:18:08Z</time>
      </trkpt>
      <trkpt lat="42.040230" lon="0.758227">
        <ele>1673.0</ele>
        <time>2015-08-29T09:18:09Z</time>
      </trkpt>
      <trkpt lat="42.040228" lon="0.758282">
        <ele>1674.0</ele>
        <time>2015-08-29T09:18:10Z</time>
      </trkpt>
      <trkpt lat="42.040218" lon="0.758337">
        <ele>1674.0</ele>
        <time>2015-08-29T09:18:11Z</time>
      </trkpt>
      <trkpt lat="42.040188" lon="0.758395">
        <ele>1675.0</ele>
        <time>2015-08-29T09:18:12Z</time>
      </trkpt>
      <trkpt lat="42.040153" lon="0.758453">
        <ele>1676.0</ele>
        <time>2015-08-29T09:18:13Z</time>
      </trkpt>
      <trkpt lat="42.040118" lon="0.758513">
        <ele>1678.0</ele>
        <time>2015-08-29T09:18:14Z</time>
      </trkpt>
      <trkpt lat="42.040088" lon="0.758575">
        <ele>1678.0</ele>
        <time>2015-08-29T09:18:15Z</time>
      </trkpt>
      <trkpt lat="42.040063" lon="0.758637">
        <ele>1678.0</ele>
        <time>2015-08-29T09:18:16Z</time>
      </trkpt>
      <trkpt lat="42.040043" lon="0.758700">
        <ele>1677.0</ele>
        <time>2015-08-29T09:18:17Z</time>
      </trkpt>
      <trkpt lat="42.040020" lon="0.758762">
        <ele>1677.0</ele>
        <time>2015-08-29T09:18:18Z</time>
      </trkpt>
      <trkpt lat="42.039985" lon="0.758818">
        <ele>1676.0</ele>
        <time>2015-08-29T09:18:19Z</time>
      </trkpt>
      <trkpt lat="42.039950" lon="0.758868">
        <ele>1677.0</ele>
        <time>2015-08-29T09:18:20Z</time>
      </trkpt>
      <trkpt lat="42.039922" lon="0.758912">
        <ele>1677.0</ele>
        <time>2015-08-29T09:18:21Z</time>
      </trkpt>
      <trkpt lat="42.039897" lon="0.758955">
        <ele>1679.0</ele>
        <time>2015-08-29T09:18:22Z</time>
      </trkpt>
      <trkpt lat="42.039875" lon="0.759010">
        <ele>1680.0</ele>
        <time>2015-08-29T09:18:23Z</time>
      </trkpt>
      <trkpt lat="42.039862" lon="0.759103">
        <ele>1678.0</ele>
        <time>2015-08-29T09:18:24Z</time>
      </trkpt>
      <trkpt lat="42.039865" lon="0.759210">
        <ele>1676.0</ele>
        <time>2015-08-29T09:18:25Z</time>
      </trkpt>
      <trkpt lat="42.039885" lon="0.759308">
        <ele>1675.0</ele>
        <time>2015-08-29T09:18:26Z</time>
      </trkpt>
      <trkpt lat="42.039917" lon="0.759400">
        <ele>1675.0</ele>
        <time>2015-08-29T09:18:27Z</time>
      </trkpt>
      <trkpt lat="42.039953" lon="0.759487">
        <ele>1676.0</ele>
        <time>2015-08-29T09:18:28Z</time>
      </trkpt>
      <trkpt lat="42.039988" lon="0.759572">
        <ele>1676.0</ele>
        <time>2015-08-29T09:18:29Z</time>
      </trkpt>
      <trkpt lat="42.040015" lon="0.759660">
        <ele>1675.0</ele>
        <time>2015-08-29T09:18:30Z</time>
      </trkpt>
      <trkpt lat="42.040030" lon="0.759742">
        <ele>1675.0</ele>
        <time>2015-08-29T09:18:31Z</time>
      </trkpt>
      <trkpt lat="42.040042" lon="0.759817">
        <ele>1675.0</ele>
        <time>2015-08-29T09:18:32Z</time>
      </trkpt>
      <trkpt lat="42.040053" lon="0.759887">
        <ele>1673.0</ele>
        <time>2015-08-29T09:18:33Z</time>
      </trkpt>
      <trkpt lat="42.040063" lon="0.759957">
        <ele>1673.0</ele>
        <time>2015-08-29T09:18:34Z</time>
      </trkpt>
      <trkpt lat="42.040062" lon="0.760030">
        <ele>1671.0</ele>
        <time>2015-08-29T09:18:35Z</time>
      </trkpt>
      <trkpt lat="42.040055" lon="0.760127">
        <ele>1670.0</ele>
        <time>2015-08-29T09:18:36Z</time>
      </trkpt>
      <trkpt lat="42.040035" lon="0.760228">
        <ele>1669.0</ele>
        <time>2015-08-29T09:18:37Z</time>
      </trkpt>
      <trkpt lat="42.040018" lon="0.760328">
        <ele>1667.0</ele>
        <time>2015-08-29T09:18:38Z</time>
      </trkpt>
      <trkpt lat="42.040002" lon="0.760380">
        <ele>1668.0</ele>
        <time>2015-08-29T09:18:39Z</time>
      </trkpt>
      <trkpt lat="42.039980" lon="0.760428">
        <ele>1668.0</ele>
        <time>2015-08-29T09:18:40Z</time>
      </trkpt>
      <trkpt lat="42.039953" lon="0.760485">
        <ele>1667.0</ele>
        <time>2015-08-29T09:18:41Z</time>
      </trkpt>
      <trkpt lat="42.039925" lon="0.760555">
        <ele>1665.0</ele>
        <time>2015-08-29T09:18:42Z</time>
      </trkpt>
      <trkpt lat="42.039900" lon="0.760625">
        <ele>1664.0</ele>
        <time>2015-08-29T09:18:43Z</time>
      </trkpt>
      <trkpt lat="42.039882" lon="0.760688">
        <ele>1664.0</ele>
        <time>2015-08-29T09:18:44Z</time>
      </trkpt>
      <trkpt lat="42.039870" lon="0.760743">
        <ele>1664.0</ele>
        <time>2015-08-29T09:18:45Z</time>
      </trkpt>
      <trkpt lat="42.039858" lon="0.760795">
        <ele>1664.0</ele>
        <time>2015-08-29T09:18:46Z</time>
      </trkpt>
      <trkpt lat="42.039840" lon="0.760860">
        <ele>1664.0</ele>
        <time>2015-08-29T09:18:47Z</time>
      </trkpt>
      <trkpt lat="42.039825" lon="0.760942">
        <ele>1665.0</ele>
        <time>2015-08-29T09:18:48Z</time>
      </trkpt>
      <trkpt lat="42.039823" lon="0.761022">
        <ele>1666.0</ele>
        <time>2015-08-29T09:18:49Z</time>
      </trkpt>
      <trkpt lat="42.039832" lon="0.761090">
        <ele>1666.0</ele>
        <time>2015-08-29T09:18:50Z</time>
      </trkpt>
      <trkpt lat="42.039840" lon="0.761153">
        <ele>1667.0</ele>
        <time>2015-08-29T09:18:51Z</time>
      </trkpt>
      <trkpt lat="42.039845" lon="0.761218">
        <ele>1666.0</ele>
        <time>2015-08-29T09:18:52Z</time>
      </trkpt>
      <trkpt lat="42.039827" lon="0.761283">
        <ele>1666.0</ele>
        <time>2015-08-29T09:18:53Z</time>
      </trkpt>
      <trkpt lat="42.039805" lon="0.761353">
        <ele>1665.0</ele>
        <time>2015-08-29T09:18:54Z</time>
      </trkpt>
      <trkpt lat="42.039790" lon="0.761440">
        <ele>1664.0</ele>
        <time>2015-08-29T09:18:55Z</time>
      </trkpt>
      <trkpt lat="42.039792" lon="0.761502">
        <ele>1665.0</ele>
        <time>2015-08-29T09:18:56Z</time>
      </trkpt>
      <trkpt lat="42.039797" lon="0.761572">
        <ele>1665.0</ele>
        <time>2015-08-29T09:18:57Z</time>
      </trkpt>
      <trkpt lat="42.039798" lon="0.761648">
        <ele>1663.0</ele>
        <time>2015-08-29T09:18:58Z</time>
      </trkpt>
      <trkpt lat="42.039800" lon="0.761712">
        <ele>1662.0</ele>
        <time>2015-08-29T09:18:59Z</time>
      </trkpt>
      <trkpt lat="42.039800" lon="0.761762">
        <ele>1662.0</ele>
        <time>2015-08-29T09:19:00Z</time>
      </trkpt>
      <trkpt lat="42.039780" lon="0.761860">
        <ele>1663.0</ele>
        <time>2015-08-29T09:19:02Z</time>
      </trkpt>
      <trkpt lat="42.039760" lon="0.761928">
        <ele>1663.0</ele>
        <time>2015-08-29T09:19:03Z</time>
      </trkpt>
      <trkpt lat="42.039738" lon="0.762008">
        <ele>1663.0</ele>
        <time>2015-08-29T09:19:04Z</time>
      </trkpt>
      <trkpt lat="42.039720" lon="0.762092">
        <ele>1663.0</ele>
        <time>2015-08-29T09:19:05Z</time>
      </trkpt>
      <trkpt lat="42.039708" lon="0.762167">
        <ele>1661.0</ele>
        <time>2015-08-29T09:19:06Z</time>
      </trkpt>
      <trkpt lat="42.039698" lon="0.762235">
        <ele>1660.0</ele>
        <time>2015-08-29T09:19:07Z</time>
      </trkpt>
      <trkpt lat="42.039687" lon="0.762307">
        <ele>1660.0</ele>
        <time>2015-08-29T09:19:08Z</time>
      </trkpt>
      <trkpt lat="42.039675" lon="0.762392">
        <ele>1659.0</ele>
        <time>2015-08-29T09:19:09Z</time>
      </trkpt>
      <trkpt lat="42.039663" lon="0.762483">
        <ele>1659.0</ele>
        <time>2015-08-29T09:19:10Z</time>
      </trkpt>
      <trkpt lat="42.039660" lon="0.762562">
        <ele>1659.0</ele>
        <time>2015-08-29T09:19:11Z</time>
      </trkpt>
      <trkpt lat="42.039660" lon="0.762638">
        <ele>1657.0</ele>
        <time>2015-08-29T09:19:12Z</time>
      </trkpt>
      <trkpt lat="42.039662" lon="0.762722">
        <ele>1656.0</ele>
        <time>2015-08-29T09:19:13Z</time>
      </trkpt>
      <trkpt lat="42.039648" lon="0.762818">
        <ele>1656.0</ele>
        <time>2015-08-29T09:19:14Z</time>
      </trkpt>
      <trkpt lat="42.039623" lon="0.762910">
        <ele>1655.0</ele>
        <time>2015-08-29T09:19:15Z</time>
      </trkpt>
      <trkpt lat="42.039597" lon="0.762988">
        <ele>1654.0</ele>
        <time>2015-08-29T09:19:16Z</time>
      </trkpt>
      <trkpt lat="42.039572" lon="0.763058">
        <ele>1654.0</ele>
        <time>2015-08-29T09:19:17Z</time>
      </trkpt>
      <trkpt lat="42.039555" lon="0.763102">
        <ele>1654.0</ele>
        <time>2015-08-29T09:19:18Z</time>
      </trkpt>
      <trkpt lat="42.039488" lon="0.763185">
        <ele>1650.0</ele>
        <time>2015-08-29T09:19:22Z</time>
      </trkpt>
      <trkpt lat="42.039445" lon="0.763243">
        <ele>1649.0</ele>
        <time>2015-08-29T09:19:23Z</time>
      </trkpt>
      <trkpt lat="42.039413" lon="0.763305">
        <ele>1648.0</ele>
        <time>2015-08-29T09:19:24Z</time>
      </trkpt>
      <trkpt lat="42.039388" lon="0.763375">
        <ele>1647.0</ele>
        <time>2015-08-29T09:19:25Z</time>
      </trkpt>
      <trkpt lat="42.039362" lon="0.763450">
        <ele>1647.0</ele>
        <time>2015-08-29T09:19:26Z</time>
      </trkpt>
      <trkpt lat="42.039342" lon="0.763533">
        <ele>1647.0</ele>
        <time>2015-08-29T09:19:27Z</time>
      </trkpt>
      <trkpt lat="42.039327" lon="0.763630">
        <ele>1647.0</ele>
        <time>2015-08-29T09:19:28Z</time>
      </trkpt>
      <trkpt lat="42.039315" lon="0.763730">
        <ele>1645.0</ele>
        <time>2015-08-29T09:19:29Z</time>
      </trkpt>
      <trkpt lat="42.039297" lon="0.763790">
        <ele>1646.0</ele>
        <time>2015-08-29T09:19:30Z</time>
      </trkpt>
      <trkpt lat="42.039270" lon="0.763857">
        <ele>1646.0</ele>
        <time>2015-08-29T09:19:31Z</time>
      </trkpt>
      <trkpt lat="42.039240" lon="0.763928">
        <ele>1645.0</ele>
        <time>2015-08-29T09:19:32Z</time>
      </trkpt>
      <trkpt lat="42.039208" lon="0.764005">
        <ele>1643.0</ele>
        <time>2015-08-29T09:19:33Z</time>
      </trkpt>
      <trkpt lat="42.039182" lon="0.764090">
        <ele>1642.0</ele>
        <time>2015-08-29T09:19:34Z</time>
      </trkpt>
      <trkpt lat="42.039167" lon="0.764187">
        <ele>1640.0</ele>
        <time>2015-08-29T09:19:35Z</time>
      </trkpt>
      <trkpt lat="42.039158" lon="0.764275">
        <ele>1639.0</ele>
        <time>2015-08-29T09:19:36Z</time>
      </trkpt>
      <trkpt lat="42.039150" lon="0.764345">
        <ele>1639.0</ele>
        <time>2015-08-29T09:19:37Z</time>
      </trkpt>
      <trkpt lat="42.039142" lon="0.764398">
        <ele>1639.0</ele>
        <time>2015-08-29T09:19:38Z</time>
      </trkpt>
      <trkpt lat="42.039133" lon="0.764460">
        <ele>1638.0</ele>
        <time>2015-08-29T09:19:39Z</time>
      </trkpt>
      <trkpt lat="42.039132" lon="0.764557">
        <ele>1636.0</ele>
        <time>2015-08-29T09:19:40Z</time>
      </trkpt>
      <trkpt lat="42.039138" lon="0.764642">
        <ele>1635.0</ele>
        <time>2015-08-29T09:19:41Z</time>
      </trkpt>
      <trkpt lat="42.039147" lon="0.764732">
        <ele>1635.0</ele>
        <time>2015-08-29T09:19:42Z</time>
      </trkpt>
      <trkpt lat="42.039153" lon="0.764813">
        <ele>1636.0</ele>
        <time>2015-08-29T09:19:43Z</time>
      </trkpt>
      <trkpt lat="42.039157" lon="0.764873">
        <ele>1636.0</ele>
        <time>2015-08-29T09:19:44Z</time>
      </trkpt>
      <trkpt lat="42.039163" lon="0.764973">
        <ele>1635.0</ele>
        <time>2015-08-29T09:19:46Z</time>
      </trkpt>
      <trkpt lat="42.039163" lon="0.765027">
        <ele>1635.0</ele>
        <time>2015-08-29T09:19:47Z</time>
      </trkpt>
      <trkpt lat="42.039160" lon="0.765130">
        <ele>1635.0</ele>
        <time>2015-08-29T09:19:48Z</time>
      </trkpt>
      <trkpt lat="42.039153" lon="0.765243">
        <ele>1635.0</ele>
        <time>2015-08-29T09:19:49Z</time>
      </trkpt>
      <trkpt lat="42.039147" lon="0.765317">
        <ele>1637.0</ele>
        <time>2015-08-29T09:19:50Z</time>
      </trkpt>
      <trkpt lat="42.039147" lon="0.765380">
        <ele>1638.0</ele>
        <time>2015-08-29T09:19:51Z</time>
      </trkpt>
      <trkpt lat="42.039153" lon="0.765462">
        <ele>1640.0</ele>
        <time>2015-08-29T09:19:53Z</time>
      </trkpt>
      <trkpt lat="42.039152" lon="0.765527">
        <ele>1641.0</ele>
        <time>2015-08-29T09:19:54Z</time>
      </trkpt>
      <trkpt lat="42.039148" lon="0.765615">
        <ele>1642.0</ele>
        <time>2015-08-29T09:19:55Z</time>
      </trkpt>
      <trkpt lat="42.039143" lon="0.765725">
        <ele>1643.0</ele>
        <time>2015-08-29T09:19:56Z</time>
      </trkpt>
      <trkpt lat="42.039140" lon="0.765807">
        <ele>1645.0</ele>
        <time>2015-08-29T09:19:57Z</time>
      </trkpt>
      <trkpt lat="42.039140" lon="0.765858">
        <ele>1647.0</ele>
        <time>2015-08-29T09:19:58Z</time>
      </trkpt>
      <trkpt lat="42.039148" lon="0.765913">
        <ele>1648.0</ele>
        <time>2015-08-29T09:20:00Z</time>
      </trkpt>
      <trkpt lat="42.039127" lon="0.765992">
        <ele>1648.0</ele>
        <time>2015-08-29T09:20:02Z</time>
      </trkpt>
      <trkpt lat="42.039112" lon="0.766063">
        <ele>1648.0</ele>
        <time>2015-08-29T09:20:03Z</time>
      </trkpt>
      <trkpt lat="42.039100" lon="0.766113">
        <ele>1650.0</ele>
        <time>2015-08-29T09:20:04Z</time>
      </trkpt>
      <trkpt lat="42.039095" lon="0.766190">
        <ele>1651.0</ele>
        <time>2015-08-29T09:20:05Z</time>
      </trkpt>
      <trkpt lat="42.039095" lon="0.766295">
        <ele>1650.0</ele>
        <time>2015-08-29T09:20:06Z</time>
      </trkpt>
      <trkpt lat="42.039093" lon="0.766395">
        <ele>1649.0</ele>
        <time>2015-08-29T09:20:07Z</time>
      </trkpt>
      <trkpt lat="42.039092" lon="0.766478">
        <ele>1649.0</ele>
        <time>2015-08-29T09:20:08Z</time>
      </trkpt>
      <trkpt lat="42.039093" lon="0.766555">
        <ele>1649.0</ele>
        <time>2015-08-29T09:20:09Z</time>
      </trkpt>
      <trkpt lat="42.039097" lon="0.766625">
        <ele>1650.0</ele>
        <time>2015-08-29T09:20:10Z</time>
      </trkpt>
      <trkpt lat="42.039095" lon="0.766692">
        <ele>1650.0</ele>
        <time>2015-08-29T09:20:11Z</time>
      </trkpt>
      <trkpt lat="42.039083" lon="0.766768">
        <ele>1650.0</ele>
        <time>2015-08-29T09:20:12Z</time>
      </trkpt>
      <trkpt lat="42.039063" lon="0.766842">
        <ele>1651.0</ele>
        <time>2015-08-29T09:20:13Z</time>
      </trkpt>
      <trkpt lat="42.039043" lon="0.766917">
        <ele>1652.0</ele>
        <time>2015-08-29T09:20:14Z</time>
      </trkpt>
      <trkpt lat="42.039037" lon="0.767003">
        <ele>1653.0</ele>
        <time>2015-08-29T09:20:15Z</time>
      </trkpt>
      <trkpt lat="42.039038" lon="0.767097">
        <ele>1654.0</ele>
        <time>2015-08-29T09:20:16Z</time>
      </trkpt>
      <trkpt lat="42.039042" lon="0.767195">
        <ele>1655.0</ele>
        <time>2015-08-29T09:20:17Z</time>
      </trkpt>
      <trkpt lat="42.039040" lon="0.767285">
        <ele>1655.0</ele>
        <time>2015-08-29T09:20:18Z</time>
      </trkpt>
      <trkpt lat="42.039012" lon="0.767357">
        <ele>1657.0</ele>
        <time>2015-08-29T09:20:19Z</time>
      </trkpt>
      <trkpt lat="42.039048" lon="0.767402">
        <ele>1658.0</ele>
        <time>2015-08-29T09:20:20Z</time>
      </trkpt>
      <trkpt lat="42.039058" lon="0.767508">
        <ele>1661.0</ele>
        <time>2015-08-29T09:20:22Z</time>
      </trkpt>
      <trkpt lat="42.039065" lon="0.767612">
        <ele>1660.0</ele>
        <time>2015-08-29T09:20:23Z</time>
      </trkpt>
      <trkpt lat="42.039072" lon="0.767708">
        <ele>1660.0</ele>
        <time>2015-08-29T09:20:24Z</time>
      </trkpt>
      <trkpt lat="42.039078" lon="0.767788">
        <ele>1661.0</ele>
        <time>2015-08-29T09:20:25Z</time>
      </trkpt>
      <trkpt lat="42.039090" lon="0.767865">
        <ele>1661.0</ele>
        <time>2015-08-29T09:20:26Z</time>
      </trkpt>
      <trkpt lat="42.039107" lon="0.767950">
        <ele>1661.0</ele>
        <time>2015-08-29T09:20:27Z</time>
      </trkpt>
      <trkpt lat="42.039125" lon="0.768037">
        <ele>1661.0</ele>
        <time>2015-08-29T09:20:28Z</time>
      </trkpt>
      <trkpt lat="42.039152" lon="0.768125">
        <ele>1660.0</ele>
        <time>2015-08-29T09:20:29Z</time>
      </trkpt>
      <trkpt lat="42.039182" lon="0.768210">
        <ele>1659.0</ele>
        <time>2015-08-29T09:20:30Z</time>
      </trkpt>
      <trkpt lat="42.039210" lon="0.768280">
        <ele>1659.0</ele>
        <time>2015-08-29T09:20:31Z</time>
      </trkpt>
      <trkpt lat="42.039235" lon="0.768355">
        <ele>1658.0</ele>
        <time>2015-08-29T09:20:32Z</time>
      </trkpt>
      <trkpt lat="42.039258" lon="0.768440">
        <ele>1657.0</ele>
        <time>2015-08-29T09:20:33Z</time>
      </trkpt>
      <trkpt lat="42.039285" lon="0.768538">
        <ele>1656.0</ele>
        <time>2015-08-29T09:20:34Z</time>
      </trkpt>
      <trkpt lat="42.039305" lon="0.768625">
        <ele>1657.0</ele>
        <time>2015-08-29T09:20:35Z</time>
      </trkpt>
      <trkpt lat="42.039327" lon="0.768703">
        <ele>1657.0</ele>
        <time>2015-08-29T09:20:36Z</time>
      </trkpt>
      <trkpt lat="42.039343" lon="0.768783">
        <ele>1657.0</ele>
        <time>2015-08-29T09:20:37Z</time>
      </trkpt>
      <trkpt lat="42.039357" lon="0.768855">
        <ele>1658.0</ele>
        <time>2015-08-29T09:20:38Z</time>
      </trkpt>
      <trkpt lat="42.039358" lon="0.768947">
        <ele>1658.0</ele>
        <time>2015-08-29T09:20:39Z</time>
      </trkpt>
      <trkpt lat="42.039353" lon="0.769032">
        <ele>1659.0</ele>
        <time>2015-08-29T09:20:40Z</time>
      </trkpt>
      <trkpt lat="42.039350" lon="0.769120">
        <ele>1659.0</ele>
        <time>2015-08-29T09:20:41Z</time>
      </trkpt>
      <trkpt lat="42.039350" lon="0.769222">
        <ele>1659.0</ele>
        <time>2015-08-29T09:20:42Z</time>
      </trkpt>
      <trkpt lat="42.039358" lon="0.769325">
        <ele>1659.0</ele>
        <time>2015-08-29T09:20:43Z</time>
      </trkpt>
      <trkpt lat="42.039375" lon="0.769415">
        <ele>1661.0</ele>
        <time>2015-08-29T09:20:44Z</time>
      </trkpt>
      <trkpt lat="42.039388" lon="0.769510">
        <ele>1662.0</ele>
        <time>2015-08-29T09:20:45Z</time>
      </trkpt>
      <trkpt lat="42.039397" lon="0.769602">
        <ele>1663.0</ele>
        <time>2015-08-29T09:20:46Z</time>
      </trkpt>
      <trkpt lat="42.039415" lon="0.769692">
        <ele>1665.0</ele>
        <time>2015-08-29T09:20:47Z</time>
      </trkpt>
      <trkpt lat="42.039423" lon="0.769772">
        <ele>1667.0</ele>
        <time>2015-08-29T09:20:48Z</time>
      </trkpt>
      <trkpt lat="42.039423" lon="0.769835">
        <ele>1668.0</ele>
        <time>2015-08-29T09:20:49Z</time>
      </trkpt>
      <trkpt lat="42.039422" lon="0.769890">
        <ele>1669.0</ele>
        <time>2015-08-29T09:20:50Z</time>
      </trkpt>
      <trkpt lat="42.039420" lon="0.769938">
        <ele>1668.0</ele>
        <time>2015-08-29T09:20:51Z</time>
      </trkpt>
      <trkpt lat="42.039422" lon="0.769995">
        <ele>1668.0</ele>
        <time>2015-08-29T09:20:52Z</time>
      </trkpt>
      <trkpt lat="42.039432" lon="0.770072">
        <ele>1668.0</ele>
        <time>2015-08-29T09:20:53Z</time>
      </trkpt>
      <trkpt lat="42.039453" lon="0.770180">
        <ele>1667.0</ele>
        <time>2015-08-29T09:20:54Z</time>
      </trkpt>
      <trkpt lat="42.039480" lon="0.770257">
        <ele>1668.0</ele>
        <time>2015-08-29T09:20:55Z</time>
      </trkpt>
      <trkpt lat="42.039518" lon="0.770348">
        <ele>1667.0</ele>
        <time>2015-08-29T09:20:56Z</time>
      </trkpt>
      <trkpt lat="42.039562" lon="0.770458">
        <ele>1666.0</ele>
        <time>2015-08-29T09:20:57Z</time>
      </trkpt>
      <trkpt lat="42.039602" lon="0.770557">
        <ele>1665.0</ele>
        <time>2015-08-29T09:20:58Z</time>
      </trkpt>
      <trkpt lat="42.039635" lon="0.770648">
        <ele>1665.0</ele>
        <time>2015-08-29T09:20:59Z</time>
      </trkpt>
      <trkpt lat="42.039665" lon="0.770733">
        <ele>1665.0</ele>
        <time>2015-08-29T09:21:00Z</time>
      </trkpt>
      <trkpt lat="42.039693" lon="0.770820">
        <ele>1665.0</ele>
        <time>2015-08-29T09:21:01Z</time>
      </trkpt>
      <trkpt lat="42.039728" lon="0.770912">
        <ele>1663.0</ele>
        <time>2015-08-29T09:21:02Z</time>
      </trkpt>
      <trkpt lat="42.039772" lon="0.771012">
        <ele>1662.0</ele>
        <time>2015-08-29T09:21:03Z</time>
      </trkpt>
      <trkpt lat="42.039820" lon="0.771122">
        <ele>1662.0</ele>
        <time>2015-08-29T09:21:04Z</time>
      </trkpt>
      <trkpt lat="42.039868" lon="0.771227">
        <ele>1662.0</ele>
        <time>2015-08-29T09:21:05Z</time>
      </trkpt>
      <trkpt lat="42.039893" lon="0.771307">
        <ele>1660.0</ele>
        <time>2015-08-29T09:21:06Z</time>
      </trkpt>
      <trkpt lat="42.039917" lon="0.771383">
        <ele>1658.0</ele>
        <time>2015-08-29T09:21:07Z</time>
      </trkpt>
      <trkpt lat="42.039942" lon="0.771487">
        <ele>1655.0</ele>
        <time>2015-08-29T09:21:08Z</time>
      </trkpt>
      <trkpt lat="42.039975" lon="0.771627">
        <ele>1655.0</ele>
        <time>2015-08-29T09:21:09Z</time>
      </trkpt>
      <trkpt lat="42.040008" lon="0.771770">
        <ele>1653.0</ele>
        <time>2015-08-29T09:21:10Z</time>
      </trkpt>
      <trkpt lat="42.040038" lon="0.771885">
        <ele>1652.0</ele>
        <time>2015-08-29T09:21:11Z</time>
      </trkpt>
      <trkpt lat="42.040065" lon="0.771968">
        <ele>1653.0</ele>
        <time>2015-08-29T09:21:12Z</time>
      </trkpt>
      <trkpt lat="42.040087" lon="0.772060">
        <ele>1654.0</ele>
        <time>2015-08-29T09:21:13Z</time>
      </trkpt>
      <trkpt lat="42.040112" lon="0.772188">
        <ele>1653.0</ele>
        <time>2015-08-29T09:21:14Z</time>
      </trkpt>
      <trkpt lat="42.040150" lon="0.772313">
        <ele>1652.0</ele>
        <time>2015-08-29T09:21:15Z</time>
      </trkpt>
      <trkpt lat="42.040192" lon="0.772423">
        <ele>1652.0</ele>
        <time>2015-08-29T09:21:16Z</time>
      </trkpt>
      <trkpt lat="42.040225" lon="0.772515">
        <ele>1653.0</ele>
        <time>2015-08-29T09:21:17Z</time>
      </trkpt>
      <trkpt lat="42.040252" lon="0.772597">
        <ele>1655.0</ele>
        <time>2015-08-29T09:21:18Z</time>
      </trkpt>
      <trkpt lat="42.040273" lon="0.772677">
        <ele>1656.0</ele>
        <time>2015-08-29T09:21:19Z</time>
      </trkpt>
      <trkpt lat="42.040293" lon="0.772762">
        <ele>1657.0</ele>
        <time>2015-08-29T09:21:20Z</time>
      </trkpt>
      <trkpt lat="42.040313" lon="0.772845">
        <ele>1658.0</ele>
        <time>2015-08-29T09:21:21Z</time>
      </trkpt>
      <trkpt lat="42.040350" lon="0.772933">
        <ele>1659.0</ele>
        <time>2015-08-29T09:21:22Z</time>
      </trkpt>
      <trkpt lat="42.040382" lon="0.773008">
        <ele>1661.0</ele>
        <time>2015-08-29T09:21:23Z</time>
      </trkpt>
      <trkpt lat="42.040407" lon="0.773075">
        <ele>1662.0</ele>
        <time>2015-08-29T09:21:24Z</time>
      </trkpt>
      <trkpt lat="42.040420" lon="0.773143">
        <ele>1663.0</ele>
        <time>2015-08-29T09:21:25Z</time>
      </trkpt>
      <trkpt lat="42.040425" lon="0.773215">
        <ele>1664.0</ele>
        <time>2015-08-29T09:21:26Z</time>
      </trkpt>
      <trkpt lat="42.040423" lon="0.773290">
        <ele>1665.0</ele>
        <time>2015-08-29T09:21:27Z</time>
      </trkpt>
      <trkpt lat="42.040415" lon="0.773352">
        <ele>1665.0</ele>
        <time>2015-08-29T09:21:28Z</time>
      </trkpt>
      <trkpt lat="42.040393" lon="0.773430">
        <ele>1666.0</ele>
        <time>2015-08-29T09:21:31Z</time>
      </trkpt>
      <trkpt lat="42.040397" lon="0.773512">
        <ele>1665.0</ele>
        <time>2015-08-29T09:21:32Z</time>
      </trkpt>
      <trkpt lat="42.040403" lon="0.773610">
        <ele>1665.0</ele>
        <time>2015-08-29T09:21:33Z</time>
      </trkpt>
      <trkpt lat="42.040400" lon="0.773700">
        <ele>1664.0</ele>
        <time>2015-08-29T09:21:34Z</time>
      </trkpt>
      <trkpt lat="42.040383" lon="0.773787">
        <ele>1665.0</ele>
        <time>2015-08-29T09:21:35Z</time>
      </trkpt>
      <trkpt lat="42.040367" lon="0.773857">
        <ele>1665.0</ele>
        <time>2015-08-29T09:21:36Z</time>
      </trkpt>
      <trkpt lat="42.040368" lon="0.773922">
        <ele>1664.0</ele>
        <time>2015-08-29T09:21:37Z</time>
      </trkpt>
      <trkpt lat="42.040397" lon="0.773975">
        <ele>1664.0</ele>
        <time>2015-08-29T09:21:38Z</time>
      </trkpt>
      <trkpt lat="42.040438" lon="0.774032">
        <ele>1663.0</ele>
        <time>2015-08-29T09:21:39Z</time>
      </trkpt>
      <trkpt lat="42.040482" lon="0.774107">
        <ele>1662.0</ele>
        <time>2015-08-29T09:21:40Z</time>
      </trkpt>
      <trkpt lat="42.040512" lon="0.774212">
        <ele>1661.0</ele>
        <time>2015-08-29T09:21:41Z</time>
      </trkpt>
      <trkpt lat="42.040528" lon="0.774302">
        <ele>1661.0</ele>
        <time>2015-08-29T09:21:42Z</time>
      </trkpt>
      <trkpt lat="42.040542" lon="0.774377">
        <ele>1661.0</ele>
        <time>2015-08-29T09:21:43Z</time>
      </trkpt>
      <trkpt lat="42.040552" lon="0.774448">
        <ele>1660.0</ele>
        <time>2015-08-29T09:21:44Z</time>
      </trkpt>
      <trkpt lat="42.040553" lon="0.774527">
        <ele>1659.0</ele>
        <time>2015-08-29T09:21:45Z</time>
      </trkpt>
      <trkpt lat="42.040540" lon="0.774587">
        <ele>1660.0</ele>
        <time>2015-08-29T09:21:46Z</time>
      </trkpt>
      <trkpt lat="42.040513" lon="0.774687">
        <ele>1659.0</ele>
        <time>2015-08-29T09:21:47Z</time>
      </trkpt>
      <trkpt lat="42.040485" lon="0.774783">
        <ele>1658.0</ele>
        <time>2015-08-29T09:21:48Z</time>
      </trkpt>
      <trkpt lat="42.040463" lon="0.774863">
        <ele>1657.0</ele>
        <time>2015-08-29T09:21:49Z</time>
      </trkpt>
      <trkpt lat="42.040442" lon="0.774930">
        <ele>1657.0</ele>
        <time>2015-08-29T09:21:50Z</time>
      </trkpt>
      <trkpt lat="42.040418" lon="0.774995">
        <ele>1656.0</ele>
        <time>2015-08-29T09:21:51Z</time>
      </trkpt>
      <trkpt lat="42.040388" lon="0.775053">
        <ele>1656.0</ele>
        <time>2015-08-29T09:21:52Z</time>
      </trkpt>
      <trkpt lat="42.040353" lon="0.775117">
        <ele>1656.0</ele>
        <time>2015-08-29T09:21:53Z</time>
      </trkpt>
      <trkpt lat="42.040325" lon="0.775195">
        <ele>1656.0</ele>
        <time>2015-08-29T09:21:54Z</time>
      </trkpt>
      <trkpt lat="42.040307" lon="0.775293">
        <ele>1657.0</ele>
        <time>2015-08-29T09:21:55Z</time>
      </trkpt>
      <trkpt lat="42.040300" lon="0.775395">
        <ele>1657.0</ele>
        <time>2015-08-29T09:21:56Z</time>
      </trkpt>
      <trkpt lat="42.040298" lon="0.775498">
        <ele>1658.0</ele>
        <time>2015-08-29T09:21:57Z</time>
      </trkpt>
      <trkpt lat="42.040298" lon="0.775613">
        <ele>1659.0</ele>
        <time>2015-08-29T09:21:58Z</time>
      </trkpt>
      <trkpt lat="42.040302" lon="0.775713">
        <ele>1660.0</ele>
        <time>2015-08-29T09:21:59Z</time>
      </trkpt>
      <trkpt lat="42.040308" lon="0.775798">
        <ele>1661.0</ele>
        <time>2015-08-29T09:22:00Z</time>
      </trkpt>
      <trkpt lat="42.040307" lon="0.775862">
        <ele>1663.0</ele>
        <time>2015-08-29T09:22:01Z</time>
      </trkpt>
      <trkpt lat="42.040293" lon="0.775933">
        <ele>1664.0</ele>
        <time>2015-08-29T09:22:02Z</time>
      </trkpt>
      <trkpt lat="42.040277" lon="0.775998">
        <ele>1666.0</ele>
        <time>2015-08-29T09:22:03Z</time>
      </trkpt>
      <trkpt lat="42.040250" lon="0.776083">
        <ele>1667.0</ele>
        <time>2015-08-29T09:22:04Z</time>
      </trkpt>
      <trkpt lat="42.040218" lon="0.776178">
        <ele>1668.0</ele>
        <time>2015-08-29T09:22:05Z</time>
      </trkpt>
      <trkpt lat="42.040192" lon="0.776262">
        <ele>1670.0</ele>
        <time>2015-08-29T09:22:06Z</time>
      </trkpt>
      <trkpt lat="42.040170" lon="0.776340">
        <ele>1673.0</ele>
        <time>2015-08-29T09:22:07Z</time>
      </trkpt>
      <trkpt lat="42.040155" lon="0.776415">
        <ele>1676.0</ele>
        <time>2015-08-29T09:22:08Z</time>
      </trkpt>
      <trkpt lat="42.040140" lon="0.776480">
        <ele>1677.0</ele>
        <time>2015-08-29T09:22:09Z</time>
      </trkpt>
      <trkpt lat="42.040128" lon="0.776540">
        <ele>1678.0</ele>
        <time>2015-08-29T09:22:10Z</time>
      </trkpt>
      <trkpt lat="42.040108" lon="0.776602">
        <ele>1677.0</ele>
        <time>2015-08-29T09:22:11Z</time>
      </trkpt>
      <trkpt lat="42.040075" lon="0.776662">
        <ele>1677.0</ele>
        <time>2015-08-29T09:22:12Z</time>
      </trkpt>
      <trkpt lat="42.040042" lon="0.776733">
        <ele>1677.0</ele>
        <time>2015-08-29T09:22:13Z</time>
      </trkpt>
      <trkpt lat="42.040027" lon="0.776838">
        <ele>1677.0</ele>
        <time>2015-08-29T09:22:14Z</time>
      </trkpt>
      <trkpt lat="42.040037" lon="0.776948">
        <ele>1677.0</ele>
        <time>2015-08-29T09:22:15Z</time>
      </trkpt>
      <trkpt lat="42.040063" lon="0.777062">
        <ele>1677.0</ele>
        <time>2015-08-29T09:22:16Z</time>
      </trkpt>
      <trkpt lat="42.040095" lon="0.777173">
        <ele>1676.0</ele>
        <time>2015-08-29T09:22:17Z</time>
      </trkpt>
      <trkpt lat="42.040120" lon="0.777290">
        <ele>1675.0</ele>
        <time>2015-08-29T09:22:18Z</time>
      </trkpt>
      <trkpt lat="42.040142" lon="0.777413">
        <ele>1673.0</ele>
        <time>2015-08-29T09:22:19Z</time>
      </trkpt>
      <trkpt lat="42.040160" lon="0.777535">
        <ele>1674.0</ele>
        <time>2015-08-29T09:22:20Z</time>
      </trkpt>
      <trkpt lat="42.040182" lon="0.777670">
        <ele>1673.0</ele>
        <time>2015-08-29T09:22:21Z</time>
      </trkpt>
      <trkpt lat="42.040203" lon="0.777820">
        <ele>1673.0</ele>
        <time>2015-08-29T09:22:22Z</time>
      </trkpt>
      <trkpt lat="42.040223" lon="0.777955">
        <ele>1673.0</ele>
        <time>2015-08-29T09:22:23Z</time>
      </trkpt>
      <trkpt lat="42.040247" lon="0.778063">
        <ele>1674.0</ele>
        <time>2015-08-29T09:22:24Z</time>
      </trkpt>
      <trkpt lat="42.040248" lon="0.778133">
        <ele>1674.0</ele>
        <time>2015-08-29T09:22:25Z</time>
      </trkpt>
      <trkpt lat="42.040248" lon="0.778197">
        <ele>1675.0</ele>
        <time>2015-08-29T09:22:26Z</time>
      </trkpt>
      <trkpt lat="42.040225" lon="0.778268">
        <ele>1674.0</ele>
        <time>2015-08-29T09:22:27Z</time>
      </trkpt>
      <trkpt lat="42.040220" lon="0.778350">
        <ele>1674.0</ele>
        <time>2015-08-29T09:22:28Z</time>
      </trkpt>
      <trkpt lat="42.040220" lon="0.778438">
        <ele>1675.0</ele>
        <time>2015-08-29T09:22:29Z</time>
      </trkpt>
      <trkpt lat="42.040218" lon="0.778518">
        <ele>1675.0</ele>
        <time>2015-08-29T09:22:30Z</time>
      </trkpt>
      <trkpt lat="42.040212" lon="0.778588">
        <ele>1675.0</ele>
        <time>2015-08-29T09:22:31Z</time>
      </trkpt>
      <trkpt lat="42.040203" lon="0.778665">
        <ele>1674.0</ele>
        <time>2015-08-29T09:22:32Z</time>
      </trkpt>
      <trkpt lat="42.040195" lon="0.778762">
        <ele>1675.0</ele>
        <time>2015-08-29T09:22:33Z</time>
      </trkpt>
      <trkpt lat="42.040193" lon="0.778875">
        <ele>1676.0</ele>
        <time>2015-08-29T09:22:34Z</time>
      </trkpt>
      <trkpt lat="42.040193" lon="0.778985">
        <ele>1676.0</ele>
        <time>2015-08-29T09:22:35Z</time>
      </trkpt>
      <trkpt lat="42.040203" lon="0.779062">
        <ele>1676.0</ele>
        <time>2015-08-29T09:22:36Z</time>
      </trkpt>
      <trkpt lat="42.040217" lon="0.779123">
        <ele>1678.0</ele>
        <time>2015-08-29T09:22:37Z</time>
      </trkpt>
      <trkpt lat="42.040222" lon="0.779208">
        <ele>1678.0</ele>
        <time>2015-08-29T09:22:38Z</time>
      </trkpt>
      <trkpt lat="42.040222" lon="0.779318">
        <ele>1677.0</ele>
        <time>2015-08-29T09:22:39Z</time>
      </trkpt>
      <trkpt lat="42.040227" lon="0.779437">
        <ele>1677.0</ele>
        <time>2015-08-29T09:22:40Z</time>
      </trkpt>
      <trkpt lat="42.040238" lon="0.779540">
        <ele>1678.0</ele>
        <time>2015-08-29T09:22:41Z</time>
      </trkpt>
      <trkpt lat="42.040252" lon="0.779610">
        <ele>1680.0</ele>
        <time>2015-08-29T09:22:42Z</time>
      </trkpt>
      <trkpt lat="42.040255" lon="0.779670">
        <ele>1681.0</ele>
        <time>2015-08-29T09:22:43Z</time>
      </trkpt>
      <trkpt lat="42.040238" lon="0.779735">
        <ele>1682.0</ele>
        <time>2015-08-29T09:22:44Z</time>
      </trkpt>
      <trkpt lat="42.040223" lon="0.779817">
        <ele>1683.0</ele>
        <time>2015-08-29T09:22:45Z</time>
      </trkpt>
      <trkpt lat="42.040213" lon="0.779898">
        <ele>1685.0</ele>
        <time>2015-08-29T09:22:46Z</time>
      </trkpt>
      <trkpt lat="42.040210" lon="0.779977">
        <ele>1687.0</ele>
        <time>2015-08-29T09:22:47Z</time>
      </trkpt>
      <trkpt lat="42.040208" lon="0.780045">
        <ele>1689.0</ele>
        <time>2015-08-29T09:22:48Z</time>
      </trkpt>
      <trkpt lat="42.040197" lon="0.780097">
        <ele>1690.0</ele>
        <time>2015-08-29T09:22:49Z</time>
      </trkpt>
      <trkpt lat="42.040183" lon="0.780145">
        <ele>1691.0</ele>
        <time>2015-08-29T09:22:50Z</time>
      </trkpt>
      <trkpt lat="42.040163" lon="0.780210">
        <ele>1692.0</ele>
        <time>2015-08-29T09:22:51Z</time>
      </trkpt>
      <trkpt lat="42.040140" lon="0.780285">
        <ele>1693.0</ele>
        <time>2015-08-29T09:22:52Z</time>
      </trkpt>
      <trkpt lat="42.040122" lon="0.780372">
        <ele>1693.0</ele>
        <time>2015-08-29T09:22:53Z</time>
      </trkpt>
      <trkpt lat="42.040105" lon="0.780423">
        <ele>1696.0</ele>
        <time>2015-08-29T09:22:54Z</time>
      </trkpt>
      <trkpt lat="42.040070" lon="0.780478">
        <ele>1697.0</ele>
        <time>2015-08-29T09:22:55Z</time>
      </trkpt>
      <trkpt lat="42.040035" lon="0.780522">
        <ele>1698.0</ele>
        <time>2015-08-29T09:22:56Z</time>
      </trkpt>
      <trkpt lat="42.039998" lon="0.780557">
        <ele>1699.0</ele>
        <time>2015-08-29T09:22:57Z</time>
      </trkpt>
      <trkpt lat="42.039935" lon="0.780570">
        <ele>1701.0</ele>
        <time>2015-08-29T09:22:59Z</time>
      </trkpt>
      <trkpt lat="42.039888" lon="0.780542">
        <ele>1701.0</ele>
        <time>2015-08-29T09:23:00Z</time>
      </trkpt>
      <trkpt lat="42.039847" lon="0.780495">
        <ele>1702.0</ele>
        <time>2015-08-29T09:23:01Z</time>
      </trkpt>
      <trkpt lat="42.039810" lon="0.780440">
        <ele>1703.0</ele>
        <time>2015-08-29T09:23:02Z</time>
      </trkpt>
      <trkpt lat="42.039782" lon="0.780377">
        <ele>1703.0</ele>
        <time>2015-08-29T09:23:03Z</time>
      </trkpt>
      <trkpt lat="42.039765" lon="0.780290">
        <ele>1703.0</ele>
        <time>2015-08-29T09:23:04Z</time>
      </trkpt>
      <trkpt lat="42.039763" lon="0.780185">
        <ele>1702.0</ele>
        <time>2015-08-29T09:23:05Z</time>
      </trkpt>
      <trkpt lat="42.039780" lon="0.780063">
        <ele>1702.0</ele>
        <time>2015-08-29T09:23:06Z</time>
      </trkpt>
      <trkpt lat="42.039815" lon="0.779933">
        <ele>1703.0</ele>
        <time>2015-08-29T09:23:07Z</time>
      </trkpt>
      <trkpt lat="42.039867" lon="0.779815">
        <ele>1704.0</ele>
        <time>2015-08-29T09:23:08Z</time>
      </trkpt>
      <trkpt lat="42.039932" lon="0.779715">
        <ele>1705.0</ele>
        <time>2015-08-29T09:23:09Z</time>
      </trkpt>
      <trkpt lat="42.040000" lon="0.779620">
        <ele>1706.0</ele>
        <time>2015-08-29T09:23:10Z</time>
      </trkpt>
      <trkpt lat="42.040072" lon="0.779532">
        <ele>1708.0</ele>
        <time>2015-08-29T09:23:11Z</time>
      </trkpt>
      <trkpt lat="42.040133" lon="0.779422">
        <ele>1709.0</ele>
        <time>2015-08-29T09:23:12Z</time>
      </trkpt>
      <trkpt lat="42.040197" lon="0.779312">
        <ele>1709.0</ele>
        <time>2015-08-29T09:23:13Z</time>
      </trkpt>
      <trkpt lat="42.040275" lon="0.779228">
        <ele>1710.0</ele>
        <time>2015-08-29T09:23:14Z</time>
      </trkpt>
      <trkpt lat="42.040367" lon="0.779163">
        <ele>1711.0</ele>
        <time>2015-08-29T09:23:15Z</time>
      </trkpt>
      <trkpt lat="42.040467" lon="0.779112">
        <ele>1712.0</ele>
        <time>2015-08-29T09:23:16Z</time>
      </trkpt>
      <trkpt lat="42.040568" lon="0.779063">
        <ele>1712.0</ele>
        <time>2015-08-29T09:23:17Z</time>
      </trkpt>
      <trkpt lat="42.040672" lon="0.779015">
        <ele>1713.0</ele>
        <time>2015-08-29T09:23:18Z</time>
      </trkpt>
      <trkpt lat="42.040780" lon="0.778978">
        <ele>1713.0</ele>
        <time>2015-08-29T09:23:19Z</time>
      </trkpt>
      <trkpt lat="42.040890" lon="0.778957">
        <ele>1713.0</ele>
        <time>2015-08-29T09:23:20Z</time>
      </trkpt>
      <trkpt lat="42.041008" lon="0.778958">
        <ele>1714.0</ele>
        <time>2015-08-29T09:23:21Z</time>
      </trkpt>
      <trkpt lat="42.041115" lon="0.778980">
        <ele>1716.0</ele>
        <time>2015-08-29T09:23:22Z</time>
      </trkpt>
      <trkpt lat="42.041215" lon="0.779013">
        <ele>1717.0</ele>
        <time>2015-08-29T09:23:23Z</time>
      </trkpt>
      <trkpt lat="42.041317" lon="0.779055">
        <ele>1718.0</ele>
        <time>2015-08-29T09:23:24Z</time>
      </trkpt>
      <trkpt lat="42.041413" lon="0.779110">
        <ele>1719.0</ele>
        <time>2015-08-29T09:23:25Z</time>
      </trkpt>
      <trkpt lat="42.041508" lon="0.779188">
        <ele>1719.0</ele>
        <time>2015-08-29T09:23:26Z</time>
      </trkpt>
      <trkpt lat="42.041598" lon="0.779282">
        <ele>1719.0</ele>
        <time>2015-08-29T09:23:27Z</time>
      </trkpt>
      <trkpt lat="42.041677" lon="0.779398">
        <ele>1721.0</ele>
        <time>2015-08-29T09:23:28Z</time>
      </trkpt>
      <trkpt lat="42.041733" lon="0.779510">
        <ele>1723.0</ele>
        <time>2015-08-29T09:23:29Z</time>
      </trkpt>
      <trkpt lat="42.041770" lon="0.779602">
        <ele>1724.0</ele>
        <time>2015-08-29T09:23:30Z</time>
      </trkpt>
      <trkpt lat="42.041788" lon="0.779678">
        <ele>1727.0</ele>
        <time>2015-08-29T09:23:31Z</time>
      </trkpt>
      <trkpt lat="42.041803" lon="0.779748">
        <ele>1728.0</ele>
        <time>2015-08-29T09:23:32Z</time>
      </trkpt>
      <trkpt lat="42.041817" lon="0.779813">
        <ele>1729.0</ele>
        <time>2015-08-29T09:23:33Z</time>
      </trkpt>
      <trkpt lat="42.041830" lon="0.779875">
        <ele>1730.0</ele>
        <time>2015-08-29T09:23:34Z</time>
      </trkpt>
      <trkpt lat="42.041837" lon="0.779953">
        <ele>1731.0</ele>
        <time>2015-08-29T09:23:35Z</time>
      </trkpt>
      <trkpt lat="42.041830" lon="0.780045">
        <ele>1731.0</ele>
        <time>2015-08-29T09:23:36Z</time>
      </trkpt>
      <trkpt lat="42.041820" lon="0.780120">
        <ele>1732.0</ele>
        <time>2015-08-29T09:23:37Z</time>
      </trkpt>
      <trkpt lat="42.041813" lon="0.780177">
        <ele>1733.0</ele>
        <time>2015-08-29T09:23:38Z</time>
      </trkpt>
      <trkpt lat="42.041812" lon="0.780262">
        <ele>1733.0</ele>
        <time>2015-08-29T09:23:40Z</time>
      </trkpt>
      <trkpt lat="42.041777" lon="0.780367">
        <ele>1732.0</ele>
        <time>2015-08-29T09:23:42Z</time>
      </trkpt>
      <trkpt lat="42.041737" lon="0.780437">
        <ele>1732.0</ele>
        <time>2015-08-29T09:23:43Z</time>
      </trkpt>
      <trkpt lat="42.041705" lon="0.780490">
        <ele>1732.0</ele>
        <time>2015-08-29T09:23:44Z</time>
      </trkpt>
      <trkpt lat="42.041653" lon="0.780572">
        <ele>1732.0</ele>
        <time>2015-08-29T09:23:46Z</time>
      </trkpt>
      <trkpt lat="42.041618" lon="0.780630">
        <ele>1731.0</ele>
        <time>2015-08-29T09:23:47Z</time>
      </trkpt>
      <trkpt lat="42.041587" lon="0.780692">
        <ele>1731.0</ele>
        <time>2015-08-29T09:23:48Z</time>
      </trkpt>
      <trkpt lat="42.041560" lon="0.780755">
        <ele>1730.0</ele>
        <time>2015-08-29T09:23:49Z</time>
      </trkpt>
      <trkpt lat="42.041533" lon="0.780815">
        <ele>1730.0</ele>
        <time>2015-08-29T09:23:50Z</time>
      </trkpt>
      <trkpt lat="42.041515" lon="0.780868">
        <ele>1730.0</ele>
        <time>2015-08-29T09:23:51Z</time>
      </trkpt>
      <trkpt lat="42.041497" lon="0.780917">
        <ele>1729.0</ele>
        <time>2015-08-29T09:23:52Z</time>
      </trkpt>
      <trkpt lat="42.041478" lon="0.780972">
        <ele>1729.0</ele>
        <time>2015-08-29T09:23:53Z</time>
      </trkpt>
      <trkpt lat="42.041453" lon="0.781033">
        <ele>1727.0</ele>
        <time>2015-08-29T09:23:54Z</time>
      </trkpt>
      <trkpt lat="42.041422" lon="0.781098">
        <ele>1726.0</ele>
        <time>2015-08-29T09:23:55Z</time>
      </trkpt>
      <trkpt lat="42.041392" lon="0.781163">
        <ele>1726.0</ele>
        <time>2015-08-29T09:23:56Z</time>
      </trkpt>
      <trkpt lat="42.041365" lon="0.781225">
        <ele>1725.0</ele>
        <time>2015-08-29T09:23:57Z</time>
      </trkpt>
      <trkpt lat="42.041340" lon="0.781287">
        <ele>1725.0</ele>
        <time>2015-08-29T09:23:58Z</time>
      </trkpt>
      <trkpt lat="42.041318" lon="0.781348">
        <ele>1725.0</ele>
        <time>2015-08-29T09:23:59Z</time>
      </trkpt>
      <trkpt lat="42.041295" lon="0.781415">
        <ele>1724.0</ele>
        <time>2015-08-29T09:24:00Z</time>
      </trkpt>
      <trkpt lat="42.041275" lon="0.781480">
        <ele>1723.0</ele>
        <time>2015-08-29T09:24:01Z</time>
      </trkpt>
      <trkpt lat="42.041257" lon="0.781547">
        <ele>1723.0</ele>
        <time>2015-08-29T09:24:02Z</time>
      </trkpt>
      <trkpt lat="42.041230" lon="0.781630">
        <ele>1722.0</ele>
        <time>2015-08-29T09:24:03Z</time>
      </trkpt>
      <trkpt lat="42.041210" lon="0.781717">
        <ele>1721.0</ele>
        <time>2015-08-29T09:24:04Z</time>
      </trkpt>
      <trkpt lat="42.041197" lon="0.781798">
        <ele>1720.0</ele>
        <time>2015-08-29T09:24:05Z</time>
      </trkpt>
      <trkpt lat="42.041187" lon="0.781872">
        <ele>1719.0</ele>
        <time>2015-08-29T09:24:06Z</time>
      </trkpt>
      <trkpt lat="42.041177" lon="0.781935">
        <ele>1719.0</ele>
        <time>2015-08-29T09:24:07Z</time>
      </trkpt>
      <trkpt lat="42.041163" lon="0.781997">
        <ele>1717.0</ele>
        <time>2015-08-29T09:24:08Z</time>
      </trkpt>
      <trkpt lat="42.041143" lon="0.782058">
        <ele>1716.0</ele>
        <time>2015-08-29T09:24:09Z</time>
      </trkpt>
      <trkpt lat="42.041122" lon="0.782127">
        <ele>1715.0</ele>
        <time>2015-08-29T09:24:10Z</time>
      </trkpt>
      <trkpt lat="42.041105" lon="0.782208">
        <ele>1714.0</ele>
        <time>2015-08-29T09:24:11Z</time>
      </trkpt>
      <trkpt lat="42.041093" lon="0.782303">
        <ele>1713.0</ele>
        <time>2015-08-29T09:24:12Z</time>
      </trkpt>
      <trkpt lat="42.041082" lon="0.782390">
        <ele>1712.0</ele>
        <time>2015-08-29T09:24:13Z</time>
      </trkpt>
      <trkpt lat="42.041067" lon="0.782468">
        <ele>1710.0</ele>
        <time>2015-08-29T09:24:14Z</time>
      </trkpt>
      <trkpt lat="42.041050" lon="0.782543">
        <ele>1709.0</ele>
        <time>2015-08-29T09:24:15Z</time>
      </trkpt>
      <trkpt lat="42.041033" lon="0.782623">
        <ele>1707.0</ele>
        <time>2015-08-29T09:24:16Z</time>
      </trkpt>
      <trkpt lat="42.041022" lon="0.782715">
        <ele>1705.0</ele>
        <time>2015-08-29T09:24:17Z</time>
      </trkpt>
      <trkpt lat="42.041015" lon="0.782800">
        <ele>1705.0</ele>
        <time>2015-08-29T09:24:18Z</time>
      </trkpt>
      <trkpt lat="42.041007" lon="0.782875">
        <ele>1705.0</ele>
        <time>2015-08-29T09:24:19Z</time>
      </trkpt>
      <trkpt lat="42.040993" lon="0.782967">
        <ele>1703.0</ele>
        <time>2015-08-29T09:24:20Z</time>
      </trkpt>
      <trkpt lat="42.040983" lon="0.783048">
        <ele>1701.0</ele>
        <time>2015-08-29T09:24:21Z</time>
      </trkpt>
      <trkpt lat="42.040973" lon="0.783128">
        <ele>1699.0</ele>
        <time>2015-08-29T09:24:22Z</time>
      </trkpt>
      <trkpt lat="42.040963" lon="0.783215">
        <ele>1698.0</ele>
        <time>2015-08-29T09:24:23Z</time>
      </trkpt>
      <trkpt lat="42.040955" lon="0.783310">
        <ele>1697.0</ele>
        <time>2015-08-29T09:24:24Z</time>
      </trkpt>
      <trkpt lat="42.040948" lon="0.783395">
        <ele>1695.0</ele>
        <time>2015-08-29T09:24:25Z</time>
      </trkpt>
      <trkpt lat="42.040940" lon="0.783475">
        <ele>1694.0</ele>
        <time>2015-08-29T09:24:26Z</time>
      </trkpt>
      <trkpt lat="42.040928" lon="0.783560">
        <ele>1694.0</ele>
        <time>2015-08-29T09:24:27Z</time>
      </trkpt>
      <trkpt lat="42.040918" lon="0.783648">
        <ele>1693.0</ele>
        <time>2015-08-29T09:24:28Z</time>
      </trkpt>
      <trkpt lat="42.040905" lon="0.783740">
        <ele>1692.0</ele>
        <time>2015-08-29T09:24:29Z</time>
      </trkpt>
      <trkpt lat="42.040888" lon="0.783828">
        <ele>1691.0</ele>
        <time>2015-08-29T09:24:30Z</time>
      </trkpt>
      <trkpt lat="42.040867" lon="0.783917">
        <ele>1690.0</ele>
        <time>2015-08-29T09:24:31Z</time>
      </trkpt>
      <trkpt lat="42.040843" lon="0.784002">
        <ele>1689.0</ele>
        <time>2015-08-29T09:24:32Z</time>
      </trkpt>
      <trkpt lat="42.040818" lon="0.784090">
        <ele>1688.0</ele>
        <time>2015-08-29T09:24:33Z</time>
      </trkpt>
      <trkpt lat="42.040795" lon="0.784178">
        <ele>1687.0</ele>
        <time>2015-08-29T09:24:34Z</time>
      </trkpt>
      <trkpt lat="42.040775" lon="0.784260">
        <ele>1687.0</ele>
        <time>2015-08-29T09:24:35Z</time>
      </trkpt>
      <trkpt lat="42.040757" lon="0.784355">
        <ele>1687.0</ele>
        <time>2015-08-29T09:24:36Z</time>
      </trkpt>
      <trkpt lat="42.040737" lon="0.784463">
        <ele>1686.0</ele>
        <time>2015-08-29T09:24:37Z</time>
      </trkpt>
      <trkpt lat="42.040718" lon="0.784567">
        <ele>1685.0</ele>
        <time>2015-08-29T09:24:38Z</time>
      </trkpt>
      <trkpt lat="42.040698" lon="0.784658">
        <ele>1685.0</ele>
        <time>2015-08-29T09:24:39Z</time>
      </trkpt>
      <trkpt lat="42.040680" lon="0.784743">
        <ele>1685.0</ele>
        <time>2015-08-29T09:24:40Z</time>
      </trkpt>
      <trkpt lat="42.040665" lon="0.784825">
        <ele>1685.0</ele>
        <time>2015-08-29T09:24:41Z</time>
      </trkpt>
      <trkpt lat="42.040655" lon="0.784910">
        <ele>1685.0</ele>
        <time>2015-08-29T09:24:42Z</time>
      </trkpt>
      <trkpt lat="42.040645" lon="0.785002">
        <ele>1685.0</ele>
        <time>2015-08-29T09:24:43Z</time>
      </trkpt>
      <trkpt lat="42.040637" lon="0.785098">
        <ele>1685.0</ele>
        <time>2015-08-29T09:24:44Z</time>
      </trkpt>
      <trkpt lat="42.040628" lon="0.785198">
        <ele>1684.0</ele>
        <time>2015-08-29T09:24:45Z</time>
      </trkpt>
      <trkpt lat="42.040613" lon="0.785295">
        <ele>1683.0</ele>
        <time>2015-08-29T09:24:46Z</time>
      </trkpt>
      <trkpt lat="42.040600" lon="0.785387">
        <ele>1682.0</ele>
        <time>2015-08-29T09:24:47Z</time>
      </trkpt>
      <trkpt lat="42.040588" lon="0.785475">
        <ele>1681.0</ele>
        <time>2015-08-29T09:24:48Z</time>
      </trkpt>
      <trkpt lat="42.040580" lon="0.785568">
        <ele>1680.0</ele>
        <time>2015-08-29T09:24:49Z</time>
      </trkpt>
      <trkpt lat="42.040570" lon="0.785672">
        <ele>1679.0</ele>
        <time>2015-08-29T09:24:50Z</time>
      </trkpt>
      <trkpt lat="42.040560" lon="0.785793">
        <ele>1677.0</ele>
        <time>2015-08-29T09:24:51Z</time>
      </trkpt>
      <trkpt lat="42.040547" lon="0.785882">
        <ele>1677.0</ele>
        <time>2015-08-29T09:24:52Z</time>
      </trkpt>
      <trkpt lat="42.040532" lon="0.785970">
        <ele>1677.0</ele>
        <time>2015-08-29T09:24:53Z</time>
      </trkpt>
      <trkpt lat="42.040513" lon="0.786062">
        <ele>1677.0</ele>
        <time>2015-08-29T09:24:54Z</time>
      </trkpt>
      <trkpt lat="42.040493" lon="0.786150">
        <ele>1676.0</ele>
        <time>2015-08-29T09:24:55Z</time>
      </trkpt>
      <trkpt lat="42.040472" lon="0.786233">
        <ele>1675.0</ele>
        <time>2015-08-29T09:24:56Z</time>
      </trkpt>
      <trkpt lat="42.040448" lon="0.786317">
        <ele>1674.0</ele>
        <time>2015-08-29T09:24:57Z</time>
      </trkpt>
      <trkpt lat="42.040432" lon="0.786402">
        <ele>1674.0</ele>
        <time>2015-08-29T09:24:58Z</time>
      </trkpt>
      <trkpt lat="42.040418" lon="0.786482">
        <ele>1675.0</ele>
        <time>2015-08-29T09:24:59Z</time>
      </trkpt>
      <trkpt lat="42.040407" lon="0.786557">
        <ele>1676.0</ele>
        <time>2015-08-29T09:25:00Z</time>
      </trkpt>
      <trkpt lat="42.040393" lon="0.786632">
        <ele>1676.0</ele>
        <time>2015-08-29T09:25:01Z</time>
      </trkpt>
      <trkpt lat="42.040382" lon="0.786710">
        <ele>1676.0</ele>
        <time>2015-08-29T09:25:02Z</time>
      </trkpt>
      <trkpt lat="42.040370" lon="0.786792">
        <ele>1676.0</ele>
        <time>2015-08-29T09:25:03Z</time>
      </trkpt>
      <trkpt lat="42.040362" lon="0.786880">
        <ele>1676.0</ele>
        <time>2015-08-29T09:25:04Z</time>
      </trkpt>
      <trkpt lat="42.040353" lon="0.786973">
        <ele>1675.0</ele>
        <time>2015-08-29T09:25:05Z</time>
      </trkpt>
      <trkpt lat="42.040350" lon="0.787060">
        <ele>1675.0</ele>
        <time>2015-08-29T09:25:06Z</time>
      </trkpt>
      <trkpt lat="42.040348" lon="0.787140">
        <ele>1675.0</ele>
        <time>2015-08-29T09:25:07Z</time>
      </trkpt>
      <trkpt lat="42.040343" lon="0.787213">
        <ele>1674.0</ele>
        <time>2015-08-29T09:25:08Z</time>
      </trkpt>
      <trkpt lat="42.040327" lon="0.787278">
        <ele>1675.0</ele>
        <time>2015-08-29T09:25:09Z</time>
      </trkpt>
      <trkpt lat="42.040302" lon="0.787355">
        <ele>1677.0</ele>
        <time>2015-08-29T09:25:10Z</time>
      </trkpt>
      <trkpt lat="42.040280" lon="0.787448">
        <ele>1678.0</ele>
        <time>2015-08-29T09:25:11Z</time>
      </trkpt>
      <trkpt lat="42.040267" lon="0.787542">
        <ele>1679.0</ele>
        <time>2015-08-29T09:25:12Z</time>
      </trkpt>
      <trkpt lat="42.040257" lon="0.787627">
        <ele>1680.0</ele>
        <time>2015-08-29T09:25:13Z</time>
      </trkpt>
      <trkpt lat="42.040248" lon="0.787710">
        <ele>1680.0</ele>
        <time>2015-08-29T09:25:14Z</time>
      </trkpt>
      <trkpt lat="42.040232" lon="0.787775">
        <ele>1681.0</ele>
        <time>2015-08-29T09:25:15Z</time>
      </trkpt>
      <trkpt lat="42.040210" lon="0.787832">
        <ele>1682.0</ele>
        <time>2015-08-29T09:25:16Z</time>
      </trkpt>
      <trkpt lat="42.040188" lon="0.787897">
        <ele>1683.0</ele>
        <time>2015-08-29T09:25:17Z</time>
      </trkpt>
      <trkpt lat="42.040177" lon="0.787972">
        <ele>1684.0</ele>
        <time>2015-08-29T09:25:18Z</time>
      </trkpt>
      <trkpt lat="42.040167" lon="0.788058">
        <ele>1685.0</ele>
        <time>2015-08-29T09:25:19Z</time>
      </trkpt>
      <trkpt lat="42.040163" lon="0.788158">
        <ele>1687.0</ele>
        <time>2015-08-29T09:25:20Z</time>
      </trkpt>
      <trkpt lat="42.040163" lon="0.788255">
        <ele>1687.0</ele>
        <time>2015-08-29T09:25:21Z</time>
      </trkpt>
      <trkpt lat="42.040167" lon="0.788328">
        <ele>1688.0</ele>
        <time>2015-08-29T09:25:22Z</time>
      </trkpt>
      <trkpt lat="42.040175" lon="0.788403">
        <ele>1688.0</ele>
        <time>2015-08-29T09:25:23Z</time>
      </trkpt>
      <trkpt lat="42.040185" lon="0.788470">
        <ele>1688.0</ele>
        <time>2015-08-29T09:25:24Z</time>
      </trkpt>
      <trkpt lat="42.040195" lon="0.788565">
        <ele>1687.0</ele>
        <time>2015-08-29T09:25:25Z</time>
      </trkpt>
      <trkpt lat="42.040202" lon="0.788637">
        <ele>1689.0</ele>
        <time>2015-08-29T09:25:26Z</time>
      </trkpt>
      <trkpt lat="42.040210" lon="0.788737">
        <ele>1689.0</ele>
        <time>2015-08-29T09:25:27Z</time>
      </trkpt>
      <trkpt lat="42.040223" lon="0.788847">
        <ele>1688.0</ele>
        <time>2015-08-29T09:25:28Z</time>
      </trkpt>
      <trkpt lat="42.040235" lon="0.788957">
        <ele>1686.0</ele>
        <time>2015-08-29T09:25:29Z</time>
      </trkpt>
      <trkpt lat="42.040248" lon="0.789048">
        <ele>1686.0</ele>
        <time>2015-08-29T09:25:30Z</time>
      </trkpt>
      <trkpt lat="42.040258" lon="0.789140">
        <ele>1685.0</ele>
        <time>2015-08-29T09:25:31Z</time>
      </trkpt>
      <trkpt lat="42.040268" lon="0.789237">
        <ele>1684.0</ele>
        <time>2015-08-29T09:25:32Z</time>
      </trkpt>
      <trkpt lat="42.040277" lon="0.789343">
        <ele>1684.0</ele>
        <time>2015-08-29T09:25:33Z</time>
      </trkpt>
      <trkpt lat="42.040282" lon="0.789462">
        <ele>1684.0</ele>
        <time>2015-08-29T09:25:34Z</time>
      </trkpt>
      <trkpt lat="42.040287" lon="0.789573">
        <ele>1684.0</ele>
        <time>2015-08-29T09:25:35Z</time>
      </trkpt>
      <trkpt lat="42.040293" lon="0.789675">
        <ele>1684.0</ele>
        <time>2015-08-29T09:25:36Z</time>
      </trkpt>
      <trkpt lat="42.040305" lon="0.789770">
        <ele>1684.0</ele>
        <time>2015-08-29T09:25:37Z</time>
      </trkpt>
      <trkpt lat="42.040318" lon="0.789865">
        <ele>1683.0</ele>
        <time>2015-08-29T09:25:38Z</time>
      </trkpt>
      <trkpt lat="42.040323" lon="0.789962">
        <ele>1682.0</ele>
        <time>2015-08-29T09:25:39Z</time>
      </trkpt>
      <trkpt lat="42.040322" lon="0.790057">
        <ele>1682.0</ele>
        <time>2015-08-29T09:25:40Z</time>
      </trkpt>
      <trkpt lat="42.040318" lon="0.790157">
        <ele>1681.0</ele>
        <time>2015-08-29T09:25:41Z</time>
      </trkpt>
      <trkpt lat="42.040322" lon="0.790253">
        <ele>1681.0</ele>
        <time>2015-08-29T09:25:42Z</time>
      </trkpt>
      <trkpt lat="42.040333" lon="0.790332">
        <ele>1682.0</ele>
        <time>2015-08-29T09:25:43Z</time>
      </trkpt>
      <trkpt lat="42.040350" lon="0.790420">
        <ele>1683.0</ele>
        <time>2015-08-29T09:25:44Z</time>
      </trkpt>
      <trkpt lat="42.040367" lon="0.790537">
        <ele>1682.0</ele>
        <time>2015-08-29T09:25:45Z</time>
      </trkpt>
      <trkpt lat="42.040382" lon="0.790665">
        <ele>1679.0</ele>
        <time>2015-08-29T09:25:46Z</time>
      </trkpt>
      <trkpt lat="42.040398" lon="0.790790">
        <ele>1677.0</ele>
        <time>2015-08-29T09:25:47Z</time>
      </trkpt>
      <trkpt lat="42.040423" lon="0.790893">
        <ele>1676.0</ele>
        <time>2015-08-29T09:25:48Z</time>
      </trkpt>
      <trkpt lat="42.040450" lon="0.790992">
        <ele>1674.0</ele>
        <time>2015-08-29T09:25:49Z</time>
      </trkpt>
      <trkpt lat="42.040483" lon="0.791110">
        <ele>1672.0</ele>
        <time>2015-08-29T09:25:50Z</time>
      </trkpt>
      <trkpt lat="42.040517" lon="0.791233">
        <ele>1670.0</ele>
        <time>2015-08-29T09:25:51Z</time>
      </trkpt>
      <trkpt lat="42.040548" lon="0.791358">
        <ele>1668.0</ele>
        <time>2015-08-29T09:25:52Z</time>
      </trkpt>
      <trkpt lat="42.040580" lon="0.791478">
        <ele>1666.0</ele>
        <time>2015-08-29T09:25:53Z</time>
      </trkpt>
      <trkpt lat="42.040612" lon="0.791592">
        <ele>1664.0</ele>
        <time>2015-08-29T09:25:54Z</time>
      </trkpt>
      <trkpt lat="42.040643" lon="0.791703">
        <ele>1663.0</ele>
        <time>2015-08-29T09:25:55Z</time>
      </trkpt>
      <trkpt lat="42.040677" lon="0.791823">
        <ele>1661.0</ele>
        <time>2015-08-29T09:25:56Z</time>
      </trkpt>
      <trkpt lat="42.040710" lon="0.791942">
        <ele>1660.0</ele>
        <time>2015-08-29T09:25:57Z</time>
      </trkpt>
      <trkpt lat="42.040740" lon="0.792062">
        <ele>1659.0</ele>
        <time>2015-08-29T09:25:58Z</time>
      </trkpt>
      <trkpt lat="42.040768" lon="0.792178">
        <ele>1657.0</ele>
        <time>2015-08-29T09:25:59Z</time>
      </trkpt>
      <trkpt lat="42.040795" lon="0.792283">
        <ele>1657.0</ele>
        <time>2015-08-29T09:26:00Z</time>
      </trkpt>
      <trkpt lat="42.040822" lon="0.792395">
        <ele>1656.0</ele>
        <time>2015-08-29T09:26:01Z</time>
      </trkpt>
      <trkpt lat="42.040840" lon="0.792507">
        <ele>1655.0</ele>
        <time>2015-08-29T09:26:02Z</time>
      </trkpt>
      <trkpt lat="42.040843" lon="0.792617">
        <ele>1654.0</ele>
        <time>2015-08-29T09:26:03Z</time>
      </trkpt>
      <trkpt lat="42.040840" lon="0.792723">
        <ele>1652.0</ele>
        <time>2015-08-29T09:26:04Z</time>
      </trkpt>
      <trkpt lat="42.040835" lon="0.792838">
        <ele>1649.0</ele>
        <time>2015-08-29T09:26:05Z</time>
      </trkpt>
      <trkpt lat="42.040827" lon="0.792938">
        <ele>1647.0</ele>
        <time>2015-08-29T09:26:06Z</time>
      </trkpt>
      <trkpt lat="42.040813" lon="0.793028">
        <ele>1644.0</ele>
        <time>2015-08-29T09:26:07Z</time>
      </trkpt>
      <trkpt lat="42.040800" lon="0.793110">
        <ele>1642.0</ele>
        <time>2015-08-29T09:26:08Z</time>
      </trkpt>
      <trkpt lat="42.040787" lon="0.793190">
        <ele>1640.0</ele>
        <time>2015-08-29T09:26:09Z</time>
      </trkpt>
      <trkpt lat="42.040782" lon="0.793282">
        <ele>1638.0</ele>
        <time>2015-08-29T09:26:10Z</time>
      </trkpt>
      <trkpt lat="42.040787" lon="0.793380">
        <ele>1635.0</ele>
        <time>2015-08-29T09:26:11Z</time>
      </trkpt>
      <trkpt lat="42.040795" lon="0.793470">
        <ele>1633.0</ele>
        <time>2015-08-29T09:26:12Z</time>
      </trkpt>
      <trkpt lat="42.040800" lon="0.793552">
        <ele>1631.0</ele>
        <time>2015-08-29T09:26:13Z</time>
      </trkpt>
      <trkpt lat="42.040800" lon="0.793623">
        <ele>1628.0</ele>
        <time>2015-08-29T09:26:14Z</time>
      </trkpt>
      <trkpt lat="42.040802" lon="0.793700">
        <ele>1625.0</ele>
        <time>2015-08-29T09:26:15Z</time>
      </trkpt>
      <trkpt lat="42.040812" lon="0.793792">
        <ele>1622.0</ele>
        <time>2015-08-29T09:26:16Z</time>
      </trkpt>
      <trkpt lat="42.040825" lon="0.793882">
        <ele>1622.0</ele>
        <time>2015-08-29T09:26:17Z</time>
      </trkpt>
      <trkpt lat="42.040835" lon="0.793995">
        <ele>1621.0</ele>
        <time>2015-08-29T09:26:18Z</time>
      </trkpt>
      <trkpt lat="42.040832" lon="0.794117">
        <ele>1619.0</ele>
        <time>2015-08-29T09:26:19Z</time>
      </trkpt>
      <trkpt lat="42.040823" lon="0.794222">
        <ele>1618.0</ele>
        <time>2015-08-29T09:26:20Z</time>
      </trkpt>
      <trkpt lat="42.040817" lon="0.794313">
        <ele>1617.0</ele>
        <time>2015-08-29T09:26:21Z</time>
      </trkpt>
      <trkpt lat="42.040812" lon="0.794395">
        <ele>1616.0</ele>
        <time>2015-08-29T09:26:22Z</time>
      </trkpt>
      <trkpt lat="42.040808" lon="0.794467">
        <ele>1616.0</ele>
        <time>2015-08-29T09:26:23Z</time>
      </trkpt>
      <trkpt lat="42.040805" lon="0.794535">
        <ele>1616.0</ele>
        <time>2015-08-29T09:26:24Z</time>
      </trkpt>
      <trkpt lat="42.040798" lon="0.794602">
        <ele>1616.0</ele>
        <time>2015-08-29T09:26:25Z</time>
      </trkpt>
      <trkpt lat="42.040780" lon="0.794675">
        <ele>1617.0</ele>
        <time>2015-08-29T09:26:26Z</time>
      </trkpt>
      <trkpt lat="42.040750" lon="0.794745">
        <ele>1618.0</ele>
        <time>2015-08-29T09:26:27Z</time>
      </trkpt>
      <trkpt lat="42.040717" lon="0.794800">
        <ele>1620.0</ele>
        <time>2015-08-29T09:26:28Z</time>
      </trkpt>
      <trkpt lat="42.040687" lon="0.794845">
        <ele>1621.0</ele>
        <time>2015-08-29T09:26:29Z</time>
      </trkpt>
      <trkpt lat="42.040658" lon="0.794888">
        <ele>1622.0</ele>
        <time>2015-08-29T09:26:30Z</time>
      </trkpt>
      <trkpt lat="42.040633" lon="0.794938">
        <ele>1623.0</ele>
        <time>2015-08-29T09:26:31Z</time>
      </trkpt>
      <trkpt lat="42.040608" lon="0.794995">
        <ele>1624.0</ele>
        <time>2015-08-29T09:26:32Z</time>
      </trkpt>
      <trkpt lat="42.040570" lon="0.795058">
        <ele>1624.0</ele>
        <time>2015-08-29T09:26:33Z</time>
      </trkpt>
      <trkpt lat="42.040543" lon="0.795117">
        <ele>1625.0</ele>
        <time>2015-08-29T09:26:34Z</time>
      </trkpt>
      <trkpt lat="42.040513" lon="0.795188">
        <ele>1625.0</ele>
        <time>2015-08-29T09:26:35Z</time>
      </trkpt>
      <trkpt lat="42.040488" lon="0.795272">
        <ele>1624.0</ele>
        <time>2015-08-29T09:26:36Z</time>
      </trkpt>
      <trkpt lat="42.040477" lon="0.795355">
        <ele>1624.0</ele>
        <time>2015-08-29T09:26:37Z</time>
      </trkpt>
      <trkpt lat="42.040465" lon="0.795437">
        <ele>1623.0</ele>
        <time>2015-08-29T09:26:38Z</time>
      </trkpt>
      <trkpt lat="42.040457" lon="0.795510">
        <ele>1623.0</ele>
        <time>2015-08-29T09:26:39Z</time>
      </trkpt>
      <trkpt lat="42.040445" lon="0.795582">
        <ele>1622.0</ele>
        <time>2015-08-29T09:26:40Z</time>
      </trkpt>
      <trkpt lat="42.040415" lon="0.795660">
        <ele>1622.0</ele>
        <time>2015-08-29T09:26:41Z</time>
      </trkpt>
      <trkpt lat="42.040398" lon="0.795748">
        <ele>1622.0</ele>
        <time>2015-08-29T09:26:42Z</time>
      </trkpt>
      <trkpt lat="42.040393" lon="0.795843">
        <ele>1621.0</ele>
        <time>2015-08-29T09:26:43Z</time>
      </trkpt>
      <trkpt lat="42.040398" lon="0.795938">
        <ele>1620.0</ele>
        <time>2015-08-29T09:26:44Z</time>
      </trkpt>
      <trkpt lat="42.040405" lon="0.796027">
        <ele>1619.0</ele>
        <time>2015-08-29T09:26:45Z</time>
      </trkpt>
      <trkpt lat="42.040410" lon="0.796110">
        <ele>1618.0</ele>
        <time>2015-08-29T09:26:46Z</time>
      </trkpt>
      <trkpt lat="42.040415" lon="0.796200">
        <ele>1617.0</ele>
        <time>2015-08-29T09:26:47Z</time>
      </trkpt>
      <trkpt lat="42.040422" lon="0.796297">
        <ele>1616.0</ele>
        <time>2015-08-29T09:26:48Z</time>
      </trkpt>
      <trkpt lat="42.040428" lon="0.796402">
        <ele>1615.0</ele>
        <time>2015-08-29T09:26:49Z</time>
      </trkpt>
      <trkpt lat="42.040437" lon="0.796508">
        <ele>1613.0</ele>
        <time>2015-08-29T09:26:50Z</time>
      </trkpt>
      <trkpt lat="42.040442" lon="0.796585">
        <ele>1613.0</ele>
        <time>2015-08-29T09:26:51Z</time>
      </trkpt>
      <trkpt lat="42.040455" lon="0.796685">
        <ele>1613.0</ele>
        <time>2015-08-29T09:26:52Z</time>
      </trkpt>
      <trkpt lat="42.040465" lon="0.796810">
        <ele>1610.0</ele>
        <time>2015-08-29T09:26:53Z</time>
      </trkpt>
      <trkpt lat="42.040473" lon="0.796940">
        <ele>1609.0</ele>
        <time>2015-08-29T09:26:54Z</time>
      </trkpt>
      <trkpt lat="42.040478" lon="0.797073">
        <ele>1609.0</ele>
        <time>2015-08-29T09:26:55Z</time>
      </trkpt>
      <trkpt lat="42.040483" lon="0.797193">
        <ele>1609.0</ele>
        <time>2015-08-29T09:26:56Z</time>
      </trkpt>
      <trkpt lat="42.040490" lon="0.797302">
        <ele>1610.0</ele>
        <time>2015-08-29T09:26:57Z</time>
      </trkpt>
      <trkpt lat="42.040495" lon="0.797397">
        <ele>1611.0</ele>
        <time>2015-08-29T09:26:58Z</time>
      </trkpt>
      <trkpt lat="42.040493" lon="0.797483">
        <ele>1612.0</ele>
        <time>2015-08-29T09:26:59Z</time>
      </trkpt>
      <trkpt lat="42.040483" lon="0.797565">
        <ele>1612.0</ele>
        <time>2015-08-29T09:27:00Z</time>
      </trkpt>
      <trkpt lat="42.040472" lon="0.797650">
        <ele>1612.0</ele>
        <time>2015-08-29T09:27:01Z</time>
      </trkpt>
      <trkpt lat="42.040457" lon="0.797732">
        <ele>1610.0</ele>
        <time>2015-08-29T09:27:02Z</time>
      </trkpt>
      <trkpt lat="42.040442" lon="0.797813">
        <ele>1609.0</ele>
        <time>2015-08-29T09:27:03Z</time>
      </trkpt>
      <trkpt lat="42.040423" lon="0.797898">
        <ele>1608.0</ele>
        <time>2015-08-29T09:27:04Z</time>
      </trkpt>
      <trkpt lat="42.040412" lon="0.797995">
        <ele>1606.0</ele>
        <time>2015-08-29T09:27:05Z</time>
      </trkpt>
      <trkpt lat="42.040412" lon="0.798113">
        <ele>1605.0</ele>
        <time>2015-08-29T09:27:06Z</time>
      </trkpt>
      <trkpt lat="42.040413" lon="0.798220">
        <ele>1604.0</ele>
        <time>2015-08-29T09:27:07Z</time>
      </trkpt>
      <trkpt lat="42.040403" lon="0.798287">
        <ele>1605.0</ele>
        <time>2015-08-29T09:27:08Z</time>
      </trkpt>
      <trkpt lat="42.040387" lon="0.798365">
        <ele>1604.0</ele>
        <time>2015-08-29T09:27:09Z</time>
      </trkpt>
      <trkpt lat="42.040353" lon="0.798460">
        <ele>1601.0</ele>
        <time>2015-08-29T09:27:10Z</time>
      </trkpt>
      <trkpt lat="42.040313" lon="0.798555">
        <ele>1599.0</ele>
        <time>2015-08-29T09:27:11Z</time>
      </trkpt>
      <trkpt lat="42.040273" lon="0.798640">
        <ele>1598.0</ele>
        <time>2015-08-29T09:27:12Z</time>
      </trkpt>
      <trkpt lat="42.040242" lon="0.798715">
        <ele>1597.0</ele>
        <time>2015-08-29T09:27:13Z</time>
      </trkpt>
      <trkpt lat="42.040210" lon="0.798773">
        <ele>1595.0</ele>
        <time>2015-08-29T09:27:14Z</time>
      </trkpt>
      <trkpt lat="42.040177" lon="0.798815">
        <ele>1594.0</ele>
        <time>2015-08-29T09:27:15Z</time>
      </trkpt>
      <trkpt lat="42.040142" lon="0.798862">
        <ele>1592.0</ele>
        <time>2015-08-29T09:27:16Z</time>
      </trkpt>
      <trkpt lat="42.040102" lon="0.798933">
        <ele>1589.0</ele>
        <time>2015-08-29T09:27:17Z</time>
      </trkpt>
      <trkpt lat="42.040053" lon="0.799017">
        <ele>1587.0</ele>
        <time>2015-08-29T09:27:18Z</time>
      </trkpt>
      <trkpt lat="42.040000" lon="0.799103">
        <ele>1586.0</ele>
        <time>2015-08-29T09:27:19Z</time>
      </trkpt>
      <trkpt lat="42.039943" lon="0.799180">
        <ele>1584.0</ele>
        <time>2015-08-29T09:27:20Z</time>
      </trkpt>
      <trkpt lat="42.039887" lon="0.799237">
        <ele>1584.0</ele>
        <time>2015-08-29T09:27:21Z</time>
      </trkpt>
      <trkpt lat="42.039842" lon="0.799290">
        <ele>1583.0</ele>
        <time>2015-08-29T09:27:22Z</time>
      </trkpt>
      <trkpt lat="42.039802" lon="0.799347">
        <ele>1584.0</ele>
        <time>2015-08-29T09:27:23Z</time>
      </trkpt>
      <trkpt lat="42.039767" lon="0.799407">
        <ele>1583.0</ele>
        <time>2015-08-29T09:27:24Z</time>
      </trkpt>
      <trkpt lat="42.039738" lon="0.799452">
        <ele>1584.0</ele>
        <time>2015-08-29T09:27:25Z</time>
      </trkpt>
      <trkpt lat="42.039697" lon="0.799507">
        <ele>1584.0</ele>
        <time>2015-08-29T09:27:26Z</time>
      </trkpt>
      <trkpt lat="42.039645" lon="0.799570">
        <ele>1583.0</ele>
        <time>2015-08-29T09:27:27Z</time>
      </trkpt>
      <trkpt lat="42.039605" lon="0.799628">
        <ele>1583.0</ele>
        <time>2015-08-29T09:27:28Z</time>
      </trkpt>
      <trkpt lat="42.039570" lon="0.799690">
        <ele>1583.0</ele>
        <time>2015-08-29T09:27:29Z</time>
      </trkpt>
      <trkpt lat="42.039533" lon="0.799750">
        <ele>1584.0</ele>
        <time>2015-08-29T09:27:30Z</time>
      </trkpt>
      <trkpt lat="42.039498" lon="0.799808">
        <ele>1585.0</ele>
        <time>2015-08-29T09:27:31Z</time>
      </trkpt>
      <trkpt lat="42.039463" lon="0.799862">
        <ele>1586.0</ele>
        <time>2015-08-29T09:27:32Z</time>
      </trkpt>
      <trkpt lat="42.039430" lon="0.799910">
        <ele>1587.0</ele>
        <time>2015-08-29T09:27:33Z</time>
      </trkpt>
      <trkpt lat="42.039392" lon="0.799955">
        <ele>1587.0</ele>
        <time>2015-08-29T09:27:34Z</time>
      </trkpt>
      <trkpt lat="42.039350" lon="0.800002">
        <ele>1588.0</ele>
        <time>2015-08-29T09:27:35Z</time>
      </trkpt>
      <trkpt lat="42.039322" lon="0.800050">
        <ele>1589.0</ele>
        <time>2015-08-29T09:27:36Z</time>
      </trkpt>
      <trkpt lat="42.039280" lon="0.800120">
        <ele>1590.0</ele>
        <time>2015-08-29T09:27:37Z</time>
      </trkpt>
      <trkpt lat="42.039232" lon="0.800205">
        <ele>1590.0</ele>
        <time>2015-08-29T09:27:38Z</time>
      </trkpt>
      <trkpt lat="42.039193" lon="0.800285">
        <ele>1591.0</ele>
        <time>2015-08-29T09:27:39Z</time>
      </trkpt>
      <trkpt lat="42.039158" lon="0.800362">
        <ele>1592.0</ele>
        <time>2015-08-29T09:27:40Z</time>
      </trkpt>
      <trkpt lat="42.039125" lon="0.800445">
        <ele>1594.0</ele>
        <time>2015-08-29T09:27:41Z</time>
      </trkpt>
      <trkpt lat="42.039102" lon="0.800528">
        <ele>1595.0</ele>
        <time>2015-08-29T09:27:42Z</time>
      </trkpt>
      <trkpt lat="42.039075" lon="0.800613">
        <ele>1596.0</ele>
        <time>2015-08-29T09:27:43Z</time>
      </trkpt>
      <trkpt lat="42.039037" lon="0.800700">
        <ele>1598.0</ele>
        <time>2015-08-29T09:27:44Z</time>
      </trkpt>
      <trkpt lat="42.039003" lon="0.800773">
        <ele>1599.0</ele>
        <time>2015-08-29T09:27:45Z</time>
      </trkpt>
      <trkpt lat="42.038977" lon="0.800838">
        <ele>1600.0</ele>
        <time>2015-08-29T09:27:46Z</time>
      </trkpt>
      <trkpt lat="42.038953" lon="0.800907">
        <ele>1600.0</ele>
        <time>2015-08-29T09:27:47Z</time>
      </trkpt>
      <trkpt lat="42.038928" lon="0.800995">
        <ele>1599.0</ele>
        <time>2015-08-29T09:27:48Z</time>
      </trkpt>
      <trkpt lat="42.038903" lon="0.801095">
        <ele>1599.0</ele>
        <time>2015-08-29T09:27:49Z</time>
      </trkpt>
      <trkpt lat="42.038880" lon="0.801208">
        <ele>1600.0</ele>
        <time>2015-08-29T09:27:50Z</time>
      </trkpt>
      <trkpt lat="42.038868" lon="0.801315">
        <ele>1600.0</ele>
        <time>2015-08-29T09:27:51Z</time>
      </trkpt>
      <trkpt lat="42.038857" lon="0.801410">
        <ele>1600.0</ele>
        <time>2015-08-29T09:27:52Z</time>
      </trkpt>
      <trkpt lat="42.038842" lon="0.801487">
        <ele>1602.0</ele>
        <time>2015-08-29T09:27:53Z</time>
      </trkpt>
      <trkpt lat="42.038833" lon="0.801585">
        <ele>1602.0</ele>
        <time>2015-08-29T09:27:54Z</time>
      </trkpt>
      <trkpt lat="42.038840" lon="0.801703">
        <ele>1600.0</ele>
        <time>2015-08-29T09:27:55Z</time>
      </trkpt>
      <trkpt lat="42.038853" lon="0.801813">
        <ele>1600.0</ele>
        <time>2015-08-29T09:27:56Z</time>
      </trkpt>
      <trkpt lat="42.038868" lon="0.801915">
        <ele>1599.0</ele>
        <time>2015-08-29T09:27:57Z</time>
      </trkpt>
      <trkpt lat="42.038885" lon="0.802012">
        <ele>1598.0</ele>
        <time>2015-08-29T09:27:58Z</time>
      </trkpt>
      <trkpt lat="42.038900" lon="0.802100">
        <ele>1597.0</ele>
        <time>2015-08-29T09:27:59Z</time>
      </trkpt>
      <trkpt lat="42.038917" lon="0.802180">
        <ele>1595.0</ele>
        <time>2015-08-29T09:28:00Z</time>
      </trkpt>
      <trkpt lat="42.038943" lon="0.802280">
        <ele>1592.0</ele>
        <time>2015-08-29T09:28:01Z</time>
      </trkpt>
      <trkpt lat="42.038975" lon="0.802393">
        <ele>1590.0</ele>
        <time>2015-08-29T09:28:02Z</time>
      </trkpt>
      <trkpt lat="42.039017" lon="0.802512">
        <ele>1590.0</ele>
        <time>2015-08-29T09:28:03Z</time>
      </trkpt>
      <trkpt lat="42.039053" lon="0.802615">
        <ele>1591.0</ele>
        <time>2015-08-29T09:28:04Z</time>
      </trkpt>
      <trkpt lat="42.039092" lon="0.802707">
        <ele>1591.0</ele>
        <time>2015-08-29T09:28:05Z</time>
      </trkpt>
      <trkpt lat="42.039130" lon="0.802798">
        <ele>1592.0</ele>
        <time>2015-08-29T09:28:06Z</time>
      </trkpt>
      <trkpt lat="42.039172" lon="0.802895">
        <ele>1593.0</ele>
        <time>2015-08-29T09:28:07Z</time>
      </trkpt>
      <trkpt lat="42.039217" lon="0.802998">
        <ele>1594.0</ele>
        <time>2015-08-29T09:28:08Z</time>
      </trkpt>
      <trkpt lat="42.039263" lon="0.803097">
        <ele>1594.0</ele>
        <time>2015-08-29T09:28:09Z</time>
      </trkpt>
      <trkpt lat="42.039300" lon="0.803188">
        <ele>1596.0</ele>
        <time>2015-08-29T09:28:10Z</time>
      </trkpt>
      <trkpt lat="42.039340" lon="0.803290">
        <ele>1596.0</ele>
        <time>2015-08-29T09:28:11Z</time>
      </trkpt>
      <trkpt lat="42.039377" lon="0.803400">
        <ele>1594.0</ele>
        <time>2015-08-29T09:28:12Z</time>
      </trkpt>
      <trkpt lat="42.039417" lon="0.803510">
        <ele>1593.0</ele>
        <time>2015-08-29T09:28:13Z</time>
      </trkpt>
      <trkpt lat="42.039462" lon="0.803617">
        <ele>1591.0</ele>
        <time>2015-08-29T09:28:14Z</time>
      </trkpt>
      <trkpt lat="42.039508" lon="0.803725">
        <ele>1590.0</ele>
        <time>2015-08-29T09:28:15Z</time>
      </trkpt>
      <trkpt lat="42.039555" lon="0.803833">
        <ele>1589.0</ele>
        <time>2015-08-29T09:28:16Z</time>
      </trkpt>
      <trkpt lat="42.039607" lon="0.803942">
        <ele>1587.0</ele>
        <time>2015-08-29T09:28:17Z</time>
      </trkpt>
      <trkpt lat="42.039657" lon="0.804050">
        <ele>1586.0</ele>
        <time>2015-08-29T09:28:18Z</time>
      </trkpt>
      <trkpt lat="42.039708" lon="0.804155">
        <ele>1585.0</ele>
        <time>2015-08-29T09:28:19Z</time>
      </trkpt>
      <trkpt lat="42.039760" lon="0.804255">
        <ele>1584.0</ele>
        <time>2015-08-29T09:28:20Z</time>
      </trkpt>
      <trkpt lat="42.039810" lon="0.804348">
        <ele>1583.0</ele>
        <time>2015-08-29T09:28:21Z</time>
      </trkpt>
      <trkpt lat="42.039860" lon="0.804445">
        <ele>1581.0</ele>
        <time>2015-08-29T09:28:22Z</time>
      </trkpt>
      <trkpt lat="42.039910" lon="0.804548">
        <ele>1580.0</ele>
        <time>2015-08-29T09:28:23Z</time>
      </trkpt>
      <trkpt lat="42.039960" lon="0.804653">
        <ele>1579.0</ele>
        <time>2015-08-29T09:28:24Z</time>
      </trkpt>
      <trkpt lat="42.040008" lon="0.804757">
        <ele>1578.0</ele>
        <time>2015-08-29T09:28:25Z</time>
      </trkpt>
      <trkpt lat="42.040057" lon="0.804858">
        <ele>1578.0</ele>
        <time>2015-08-29T09:28:26Z</time>
      </trkpt>
      <trkpt lat="42.040095" lon="0.804958">
        <ele>1579.0</ele>
        <time>2015-08-29T09:28:27Z</time>
      </trkpt>
      <trkpt lat="42.040125" lon="0.805078">
        <ele>1581.0</ele>
        <time>2015-08-29T09:28:28Z</time>
      </trkpt>
      <trkpt lat="42.040147" lon="0.805183">
        <ele>1582.0</ele>
        <time>2015-08-29T09:28:29Z</time>
      </trkpt>
      <trkpt lat="42.040158" lon="0.805270">
        <ele>1583.0</ele>
        <time>2015-08-29T09:28:30Z</time>
      </trkpt>
      <trkpt lat="42.040168" lon="0.805347">
        <ele>1584.0</ele>
        <time>2015-08-29T09:28:31Z</time>
      </trkpt>
      <trkpt lat="42.040182" lon="0.805432">
        <ele>1585.0</ele>
        <time>2015-08-29T09:28:32Z</time>
      </trkpt>
      <trkpt lat="42.040203" lon="0.805555">
        <ele>1586.0</ele>
        <time>2015-08-29T09:28:33Z</time>
      </trkpt>
      <trkpt lat="42.040235" lon="0.805683">
        <ele>1588.0</ele>
        <time>2015-08-29T09:28:34Z</time>
      </trkpt>
      <trkpt lat="42.040267" lon="0.805805">
        <ele>1591.0</ele>
        <time>2015-08-29T09:28:35Z</time>
      </trkpt>
      <trkpt lat="42.040295" lon="0.805913">
        <ele>1591.0</ele>
        <time>2015-08-29T09:28:36Z</time>
      </trkpt>
      <trkpt lat="42.040305" lon="0.805985">
        <ele>1593.0</ele>
        <time>2015-08-29T09:28:37Z</time>
      </trkpt>
      <trkpt lat="42.040305" lon="0.806055">
        <ele>1594.0</ele>
        <time>2015-08-29T09:28:38Z</time>
      </trkpt>
      <trkpt lat="42.040295" lon="0.806128">
        <ele>1595.0</ele>
        <time>2015-08-29T09:28:39Z</time>
      </trkpt>
      <trkpt lat="42.040275" lon="0.806197">
        <ele>1597.0</ele>
        <time>2015-08-29T09:28:40Z</time>
      </trkpt>
      <trkpt lat="42.040257" lon="0.806258">
        <ele>1597.0</ele>
        <time>2015-08-29T09:28:41Z</time>
      </trkpt>
      <trkpt lat="42.040212" lon="0.806283">
        <ele>1599.0</ele>
        <time>2015-08-29T09:28:42Z</time>
      </trkpt>
      <trkpt lat="42.040168" lon="0.806285">
        <ele>1600.0</ele>
        <time>2015-08-29T09:28:43Z</time>
      </trkpt>
      <trkpt lat="42.040132" lon="0.806260">
        <ele>1603.0</ele>
        <time>2015-08-29T09:28:44Z</time>
      </trkpt>
      <trkpt lat="42.040098" lon="0.806203">
        <ele>1605.0</ele>
        <time>2015-08-29T09:28:45Z</time>
      </trkpt>
      <trkpt lat="42.040075" lon="0.806128">
        <ele>1607.0</ele>
        <time>2015-08-29T09:28:46Z</time>
      </trkpt>
      <trkpt lat="42.040060" lon="0.806057">
        <ele>1608.0</ele>
        <time>2015-08-29T09:28:47Z</time>
      </trkpt>
      <trkpt lat="42.040055" lon="0.805983">
        <ele>1610.0</ele>
        <time>2015-08-29T09:28:48Z</time>
      </trkpt>
      <trkpt lat="42.040057" lon="0.805912">
        <ele>1612.0</ele>
        <time>2015-08-29T09:28:49Z</time>
      </trkpt>
      <trkpt lat="42.040062" lon="0.805832">
        <ele>1613.0</ele>
        <time>2015-08-29T09:28:50Z</time>
      </trkpt>
      <trkpt lat="42.040072" lon="0.805737">
        <ele>1615.0</ele>
        <time>2015-08-29T09:28:51Z</time>
      </trkpt>
      <trkpt lat="42.040098" lon="0.805628">
        <ele>1618.0</ele>
        <time>2015-08-29T09:28:52Z</time>
      </trkpt>
      <trkpt lat="42.040147" lon="0.805533">
        <ele>1621.0</ele>
        <time>2015-08-29T09:28:53Z</time>
      </trkpt>
      <trkpt lat="42.040227" lon="0.805450">
        <ele>1622.0</ele>
        <time>2015-08-29T09:28:54Z</time>
      </trkpt>
      <trkpt lat="42.040327" lon="0.805392">
        <ele>1624.0</ele>
        <time>2015-08-29T09:28:55Z</time>
      </trkpt>
      <trkpt lat="42.040438" lon="0.805360">
        <ele>1623.0</ele>
        <time>2015-08-29T09:28:56Z</time>
      </trkpt>
      <trkpt lat="42.040548" lon="0.805378">
        <ele>1624.0</ele>
        <time>2015-08-29T09:28:57Z</time>
      </trkpt>
      <trkpt lat="42.040653" lon="0.805437">
        <ele>1625.0</ele>
        <time>2015-08-29T09:28:58Z</time>
      </trkpt>
      <trkpt lat="42.040730" lon="0.805535">
        <ele>1626.0</ele>
        <time>2015-08-29T09:28:59Z</time>
      </trkpt>
      <trkpt lat="42.040773" lon="0.805655">
        <ele>1628.0</ele>
        <time>2015-08-29T09:29:00Z</time>
      </trkpt>
      <trkpt lat="42.040795" lon="0.805770">
        <ele>1629.0</ele>
        <time>2015-08-29T09:29:01Z</time>
      </trkpt>
      <trkpt lat="42.040795" lon="0.805868">
        <ele>1631.0</ele>
        <time>2015-08-29T09:29:02Z</time>
      </trkpt>
      <trkpt lat="42.040792" lon="0.805957">
        <ele>1632.0</ele>
        <time>2015-08-29T09:29:03Z</time>
      </trkpt>
      <trkpt lat="42.040787" lon="0.806025">
        <ele>1633.0</ele>
        <time>2015-08-29T09:29:04Z</time>
      </trkpt>
      <trkpt lat="42.040775" lon="0.806092">
        <ele>1634.0</ele>
        <time>2015-08-29T09:29:05Z</time>
      </trkpt>
      <trkpt lat="42.040757" lon="0.806162">
        <ele>1635.0</ele>
        <time>2015-08-29T09:29:06Z</time>
      </trkpt>
      <trkpt lat="42.040730" lon="0.806223">
        <ele>1637.0</ele>
        <time>2015-08-29T09:29:07Z</time>
      </trkpt>
      <trkpt lat="42.040697" lon="0.806273">
        <ele>1640.0</ele>
        <time>2015-08-29T09:29:08Z</time>
      </trkpt>
      <trkpt lat="42.040665" lon="0.806310">
        <ele>1644.0</ele>
        <time>2015-08-29T09:29:09Z</time>
      </trkpt>
      <trkpt lat="42.040633" lon="0.806345">
        <ele>1647.0</ele>
        <time>2015-08-29T09:29:10Z</time>
      </trkpt>
      <trkpt lat="42.040603" lon="0.806380">
        <ele>1650.0</ele>
        <time>2015-08-29T09:29:11Z</time>
      </trkpt>
      <trkpt lat="42.040575" lon="0.806413">
        <ele>1654.0</ele>
        <time>2015-08-29T09:29:12Z</time>
      </trkpt>
      <trkpt lat="42.040518" lon="0.806475">
        <ele>1658.0</ele>
        <time>2015-08-29T09:29:14Z</time>
      </trkpt>
      <trkpt lat="42.040485" lon="0.806513">
        <ele>1660.0</ele>
        <time>2015-08-29T09:29:15Z</time>
      </trkpt>
      <trkpt lat="42.040447" lon="0.806557">
        <ele>1663.0</ele>
        <time>2015-08-29T09:29:16Z</time>
      </trkpt>
      <trkpt lat="42.040410" lon="0.806593">
        <ele>1663.0</ele>
        <time>2015-08-29T09:29:17Z</time>
      </trkpt>
      <trkpt lat="42.040342" lon="0.806662">
        <ele>1668.0</ele>
        <time>2015-08-29T09:29:19Z</time>
      </trkpt>
      <trkpt lat="42.040292" lon="0.806692">
        <ele>1670.0</ele>
        <time>2015-08-29T09:29:20Z</time>
      </trkpt>
      <trkpt lat="42.040237" lon="0.806707">
        <ele>1671.0</ele>
        <time>2015-08-29T09:29:21Z</time>
      </trkpt>
      <trkpt lat="42.040183" lon="0.806707">
        <ele>1673.0</ele>
        <time>2015-08-29T09:29:22Z</time>
      </trkpt>
      <trkpt lat="42.040138" lon="0.806693">
        <ele>1675.0</ele>
        <time>2015-08-29T09:29:23Z</time>
      </trkpt>
      <trkpt lat="42.040108" lon="0.806667">
        <ele>1676.0</ele>
        <time>2015-08-29T09:29:24Z</time>
      </trkpt>
      <trkpt lat="42.040065" lon="0.806582">
        <ele>1679.0</ele>
        <time>2015-08-29T09:29:26Z</time>
      </trkpt>
      <trkpt lat="42.040042" lon="0.806518">
        <ele>1680.0</ele>
        <time>2015-08-29T09:29:27Z</time>
      </trkpt>
      <trkpt lat="42.040018" lon="0.806445">
        <ele>1681.0</ele>
        <time>2015-08-29T09:29:28Z</time>
      </trkpt>
      <trkpt lat="42.040002" lon="0.806370">
        <ele>1683.0</ele>
        <time>2015-08-29T09:29:29Z</time>
      </trkpt>
      <trkpt lat="42.039993" lon="0.806297">
        <ele>1685.0</ele>
        <time>2015-08-29T09:29:30Z</time>
      </trkpt>
      <trkpt lat="42.039998" lon="0.806233">
        <ele>1686.0</ele>
        <time>2015-08-29T09:29:31Z</time>
      </trkpt>
      <trkpt lat="42.040013" lon="0.806167">
        <ele>1687.0</ele>
        <time>2015-08-29T09:29:32Z</time>
      </trkpt>
      <trkpt lat="42.040032" lon="0.806088">
        <ele>1688.0</ele>
        <time>2015-08-29T09:29:33Z</time>
      </trkpt>
      <trkpt lat="42.040035" lon="0.805993">
        <ele>1688.0</ele>
        <time>2015-08-29T09:29:34Z</time>
      </trkpt>
      <trkpt lat="42.040037" lon="0.805897">
        <ele>1690.0</ele>
        <time>2015-08-29T09:29:35Z</time>
      </trkpt>
      <trkpt lat="42.040042" lon="0.805785">
        <ele>1692.0</ele>
        <time>2015-08-29T09:29:36Z</time>
      </trkpt>
      <trkpt lat="42.040057" lon="0.805665">
        <ele>1694.0</ele>
        <time>2015-08-29T09:29:37Z</time>
      </trkpt>
      <trkpt lat="42.040087" lon="0.805548">
        <ele>1696.0</ele>
        <time>2015-08-29T09:29:38Z</time>
      </trkpt>
      <trkpt lat="42.040125" lon="0.805438">
        <ele>1698.0</ele>
        <time>2015-08-29T09:29:39Z</time>
      </trkpt>
      <trkpt lat="42.040162" lon="0.805332">
        <ele>1701.0</ele>
        <time>2015-08-29T09:29:40Z</time>
      </trkpt>
      <trkpt lat="42.040202" lon="0.805225">
        <ele>1702.0</ele>
        <time>2015-08-29T09:29:41Z</time>
      </trkpt>
      <trkpt lat="42.040245" lon="0.805112">
        <ele>1704.0</ele>
        <time>2015-08-29T09:29:42Z</time>
      </trkpt>
      <trkpt lat="42.040298" lon="0.804990">
        <ele>1706.0</ele>
        <time>2015-08-29T09:29:43Z</time>
      </trkpt>
      <trkpt lat="42.040365" lon="0.804868">
        <ele>1708.0</ele>
        <time>2015-08-29T09:29:44Z</time>
      </trkpt>
      <trkpt lat="42.040440" lon="0.804755">
        <ele>1711.0</ele>
        <time>2015-08-29T09:29:45Z</time>
      </trkpt>
      <trkpt lat="42.040520" lon="0.804658">
        <ele>1714.0</ele>
        <time>2015-08-29T09:29:46Z</time>
      </trkpt>
      <trkpt lat="42.040607" lon="0.804578">
        <ele>1716.0</ele>
        <time>2015-08-29T09:29:47Z</time>
      </trkpt>
      <trkpt lat="42.040703" lon="0.804503">
        <ele>1716.0</ele>
        <time>2015-08-29T09:29:48Z</time>
      </trkpt>
      <trkpt lat="42.040808" lon="0.804477">
        <ele>1718.0</ele>
        <time>2015-08-29T09:29:49Z</time>
      </trkpt>
      <trkpt lat="42.040908" lon="0.804485">
        <ele>1720.0</ele>
        <time>2015-08-29T09:29:50Z</time>
      </trkpt>
      <trkpt lat="42.040992" lon="0.804522">
        <ele>1721.0</ele>
        <time>2015-08-29T09:29:51Z</time>
      </trkpt>
      <trkpt lat="42.041063" lon="0.804575">
        <ele>1724.0</ele>
        <time>2015-08-29T09:29:52Z</time>
      </trkpt>
      <trkpt lat="42.041130" lon="0.804650">
        <ele>1725.0</ele>
        <time>2015-08-29T09:29:53Z</time>
      </trkpt>
      <trkpt lat="42.041183" lon="0.804727">
        <ele>1727.0</ele>
        <time>2015-08-29T09:29:54Z</time>
      </trkpt>
      <trkpt lat="42.041215" lon="0.804802">
        <ele>1729.0</ele>
        <time>2015-08-29T09:29:55Z</time>
      </trkpt>
      <trkpt lat="42.041232" lon="0.804868">
        <ele>1730.0</ele>
        <time>2015-08-29T09:29:56Z</time>
      </trkpt>
      <trkpt lat="42.041233" lon="0.804928">
        <ele>1732.0</ele>
        <time>2015-08-29T09:29:57Z</time>
      </trkpt>
      <trkpt lat="42.041225" lon="0.804995">
        <ele>1735.0</ele>
        <time>2015-08-29T09:29:58Z</time>
      </trkpt>
      <trkpt lat="42.041222" lon="0.805057">
        <ele>1738.0</ele>
        <time>2015-08-29T09:29:59Z</time>
      </trkpt>
      <trkpt lat="42.041228" lon="0.805123">
        <ele>1741.0</ele>
        <time>2015-08-29T09:30:00Z</time>
      </trkpt>
      <trkpt lat="42.041237" lon="0.805192">
        <ele>1744.0</ele>
        <time>2015-08-29T09:30:01Z</time>
      </trkpt>
      <trkpt lat="42.041247" lon="0.805262">
        <ele>1748.0</ele>
        <time>2015-08-29T09:30:02Z</time>
      </trkpt>
      <trkpt lat="42.041252" lon="0.805328">
        <ele>1752.0</ele>
        <time>2015-08-29T09:30:03Z</time>
      </trkpt>
      <trkpt lat="42.041250" lon="0.805387">
        <ele>1755.0</ele>
        <time>2015-08-29T09:30:04Z</time>
      </trkpt>
      <trkpt lat="42.041242" lon="0.805435">
        <ele>1758.0</ele>
        <time>2015-08-29T09:30:05Z</time>
      </trkpt>
      <trkpt lat="42.041207" lon="0.805510">
        <ele>1761.0</ele>
        <time>2015-08-29T09:30:07Z</time>
      </trkpt>
      <trkpt lat="42.041162" lon="0.805568">
        <ele>1762.0</ele>
        <time>2015-08-29T09:30:09Z</time>
      </trkpt>
      <trkpt lat="42.041125" lon="0.805588">
        <ele>1763.0</ele>
        <time>2015-08-29T09:30:10Z</time>
      </trkpt>
      <trkpt lat="42.041088" lon="0.805582">
        <ele>1764.0</ele>
        <time>2015-08-29T09:30:11Z</time>
      </trkpt>
      <trkpt lat="42.041038" lon="0.805538">
        <ele>1765.0</ele>
        <time>2015-08-29T09:30:13Z</time>
      </trkpt>
      <trkpt lat="42.040998" lon="0.805485">
        <ele>1767.0</ele>
        <time>2015-08-29T09:30:15Z</time>
      </trkpt>
      <trkpt lat="42.040962" lon="0.805415">
        <ele>1768.0</ele>
        <time>2015-08-29T09:30:17Z</time>
      </trkpt>
      <trkpt lat="42.040965" lon="0.805335">
        <ele>1769.0</ele>
        <time>2015-08-29T09:30:18Z</time>
      </trkpt>
      <trkpt lat="42.040982" lon="0.805207">
        <ele>1769.0</ele>
        <time>2015-08-29T09:30:19Z</time>
      </trkpt>
      <trkpt lat="42.041010" lon="0.805095">
        <ele>1769.0</ele>
        <time>2015-08-29T09:30:20Z</time>
      </trkpt>
      <trkpt lat="42.041055" lon="0.804975">
        <ele>1770.0</ele>
        <time>2015-08-29T09:30:21Z</time>
      </trkpt>
      <trkpt lat="42.041118" lon="0.804848">
        <ele>1770.0</ele>
        <time>2015-08-29T09:30:22Z</time>
      </trkpt>
      <trkpt lat="42.041197" lon="0.804723">
        <ele>1771.0</ele>
        <time>2015-08-29T09:30:23Z</time>
      </trkpt>
      <trkpt lat="42.041285" lon="0.804608">
        <ele>1771.0</ele>
        <time>2015-08-29T09:30:24Z</time>
      </trkpt>
      <trkpt lat="42.041375" lon="0.804533">
        <ele>1772.0</ele>
        <time>2015-08-29T09:30:25Z</time>
      </trkpt>
      <trkpt lat="42.041473" lon="0.804462">
        <ele>1773.0</ele>
        <time>2015-08-29T09:30:26Z</time>
      </trkpt>
      <trkpt lat="42.041592" lon="0.804383">
        <ele>1772.0</ele>
        <time>2015-08-29T09:30:27Z</time>
      </trkpt>
      <trkpt lat="42.041715" lon="0.804333">
        <ele>1771.0</ele>
        <time>2015-08-29T09:30:28Z</time>
      </trkpt>
      <trkpt lat="42.041845" lon="0.804305">
        <ele>1770.0</ele>
        <time>2015-08-29T09:30:29Z</time>
      </trkpt>
      <trkpt lat="42.041975" lon="0.804300">
        <ele>1769.0</ele>
        <time>2015-08-29T09:30:30Z</time>
      </trkpt>
      <trkpt lat="42.042093" lon="0.804328">
        <ele>1769.0</ele>
        <time>2015-08-29T09:30:31Z</time>
      </trkpt>
      <trkpt lat="42.042202" lon="0.804390">
        <ele>1769.0</ele>
        <time>2015-08-29T09:30:32Z</time>
      </trkpt>
      <trkpt lat="42.042292" lon="0.804468">
        <ele>1769.0</ele>
        <time>2015-08-29T09:30:33Z</time>
      </trkpt>
      <trkpt lat="42.042363" lon="0.804553">
        <ele>1769.0</ele>
        <time>2015-08-29T09:30:34Z</time>
      </trkpt>
      <trkpt lat="42.042418" lon="0.804643">
        <ele>1769.0</ele>
        <time>2015-08-29T09:30:35Z</time>
      </trkpt>
      <trkpt lat="42.042452" lon="0.804742">
        <ele>1769.0</ele>
        <time>2015-08-29T09:30:36Z</time>
      </trkpt>
      <trkpt lat="42.042473" lon="0.804835">
        <ele>1769.0</ele>
        <time>2015-08-29T09:30:37Z</time>
      </trkpt>
      <trkpt lat="42.042485" lon="0.804930">
        <ele>1769.0</ele>
        <time>2015-08-29T09:30:38Z</time>
      </trkpt>
      <trkpt lat="42.042480" lon="0.805003">
        <ele>1770.0</ele>
        <time>2015-08-29T09:30:39Z</time>
      </trkpt>
      <trkpt lat="42.042475" lon="0.805070">
        <ele>1771.0</ele>
        <time>2015-08-29T09:30:40Z</time>
      </trkpt>
      <trkpt lat="42.042468" lon="0.805135">
        <ele>1772.0</ele>
        <time>2015-08-29T09:30:41Z</time>
      </trkpt>
      <trkpt lat="42.042473" lon="0.805185">
        <ele>1773.0</ele>
        <time>2015-08-29T09:30:42Z</time>
      </trkpt>
      <trkpt lat="42.042465" lon="0.805265">
        <ele>1774.0</ele>
        <time>2015-08-29T09:30:44Z</time>
      </trkpt>
      <trkpt lat="42.042428" lon="0.805342">
        <ele>1774.0</ele>
        <time>2015-08-29T09:30:46Z</time>
      </trkpt>
      <trkpt lat="42.042420" lon="0.805393">
        <ele>1775.0</ele>
        <time>2015-08-29T09:30:47Z</time>
      </trkpt>
      <trkpt lat="42.042417" lon="0.805448">
        <ele>1775.0</ele>
        <time>2015-08-29T09:30:48Z</time>
      </trkpt>
      <trkpt lat="42.042348" lon="0.805495">
        <ele>1774.0</ele>
        <time>2015-08-29T09:30:49Z</time>
      </trkpt>
      <trkpt lat="42.042293" lon="0.805530">
        <ele>1774.0</ele>
        <time>2015-08-29T09:30:51Z</time>
      </trkpt>
      <trkpt lat="42.042258" lon="0.805547">
        <ele>1773.0</ele>
        <time>2015-08-29T09:30:52Z</time>
      </trkpt>
      <trkpt lat="42.042222" lon="0.805575">
        <ele>1772.0</ele>
        <time>2015-08-29T09:30:53Z</time>
      </trkpt>
      <trkpt lat="42.042185" lon="0.805607">
        <ele>1772.0</ele>
        <time>2015-08-29T09:30:54Z</time>
      </trkpt>
      <trkpt lat="42.042150" lon="0.805635">
        <ele>1771.0</ele>
        <time>2015-08-29T09:30:55Z</time>
      </trkpt>
      <trkpt lat="42.042098" lon="0.805675">
        <ele>1768.0</ele>
        <time>2015-08-29T09:30:57Z</time>
      </trkpt>
      <trkpt lat="42.042053" lon="0.805707">
        <ele>1766.0</ele>
        <time>2015-08-29T09:30:58Z</time>
      </trkpt>
      <trkpt lat="42.042017" lon="0.805733">
        <ele>1764.0</ele>
        <time>2015-08-29T09:30:59Z</time>
      </trkpt>
      <trkpt lat="42.041988" lon="0.805767">
        <ele>1762.0</ele>
        <time>2015-08-29T09:31:00Z</time>
      </trkpt>
      <trkpt lat="42.041962" lon="0.805858">
        <ele>1758.0</ele>
        <time>2015-08-29T09:31:02Z</time>
      </trkpt>
      <trkpt lat="42.041950" lon="0.805918">
        <ele>1756.0</ele>
        <time>2015-08-29T09:31:03Z</time>
      </trkpt>
      <trkpt lat="42.041935" lon="0.805980">
        <ele>1755.0</ele>
        <time>2015-08-29T09:31:04Z</time>
      </trkpt>
      <trkpt lat="42.041890" lon="0.806052">
        <ele>1754.0</ele>
        <time>2015-08-29T09:31:05Z</time>
      </trkpt>
      <trkpt lat="42.041862" lon="0.806115">
        <ele>1753.0</ele>
        <time>2015-08-29T09:31:06Z</time>
      </trkpt>
      <trkpt lat="42.041837" lon="0.806178">
        <ele>1751.0</ele>
        <time>2015-08-29T09:31:07Z</time>
      </trkpt>
      <trkpt lat="42.041807" lon="0.806240">
        <ele>1749.0</ele>
        <time>2015-08-29T09:31:08Z</time>
      </trkpt>
      <trkpt lat="42.041767" lon="0.806303">
        <ele>1747.0</ele>
        <time>2015-08-29T09:31:09Z</time>
      </trkpt>
      <trkpt lat="42.041725" lon="0.806372">
        <ele>1745.0</ele>
        <time>2015-08-29T09:31:10Z</time>
      </trkpt>
      <trkpt lat="42.041692" lon="0.806448">
        <ele>1743.0</ele>
        <time>2015-08-29T09:31:11Z</time>
      </trkpt>
      <trkpt lat="42.041665" lon="0.806542">
        <ele>1740.0</ele>
        <time>2015-08-29T09:31:12Z</time>
      </trkpt>
      <trkpt lat="42.041652" lon="0.806620">
        <ele>1740.0</ele>
        <time>2015-08-29T09:31:13Z</time>
      </trkpt>
      <trkpt lat="42.041638" lon="0.806708">
        <ele>1737.0</ele>
        <time>2015-08-29T09:31:14Z</time>
      </trkpt>
      <trkpt lat="42.041627" lon="0.806800">
        <ele>1734.0</ele>
        <time>2015-08-29T09:31:15Z</time>
      </trkpt>
      <trkpt lat="42.041615" lon="0.806887">
        <ele>1732.0</ele>
        <time>2015-08-29T09:31:16Z</time>
      </trkpt>
      <trkpt lat="42.041603" lon="0.806970">
        <ele>1730.0</ele>
        <time>2015-08-29T09:31:17Z</time>
      </trkpt>
      <trkpt lat="42.041590" lon="0.807038">
        <ele>1729.0</ele>
        <time>2015-08-29T09:31:18Z</time>
      </trkpt>
      <trkpt lat="42.041575" lon="0.807090">
        <ele>1727.0</ele>
        <time>2015-08-29T09:31:19Z</time>
      </trkpt>
      <trkpt lat="42.041548" lon="0.807175">
        <ele>1723.0</ele>
        <time>2015-08-29T09:31:21Z</time>
      </trkpt>
      <trkpt lat="42.041528" lon="0.807233">
        <ele>1721.0</ele>
        <time>2015-08-29T09:31:22Z</time>
      </trkpt>
      <trkpt lat="42.041502" lon="0.807305">
        <ele>1720.0</ele>
        <time>2015-08-29T09:31:23Z</time>
      </trkpt>
      <trkpt lat="42.041487" lon="0.807370">
        <ele>1719.0</ele>
        <time>2015-08-29T09:31:24Z</time>
      </trkpt>
      <trkpt lat="42.041473" lon="0.807418">
        <ele>1719.0</ele>
        <time>2015-08-29T09:31:25Z</time>
      </trkpt>
      <trkpt lat="42.041428" lon="0.807495">
        <ele>1717.0</ele>
        <time>2015-08-29T09:31:27Z</time>
      </trkpt>
      <trkpt lat="42.041397" lon="0.807543">
        <ele>1715.0</ele>
        <time>2015-08-29T09:31:28Z</time>
      </trkpt>
      <trkpt lat="42.041365" lon="0.807602">
        <ele>1713.0</ele>
        <time>2015-08-29T09:31:29Z</time>
      </trkpt>
      <trkpt lat="42.041352" lon="0.807658">
        <ele>1712.0</ele>
        <time>2015-08-29T09:31:30Z</time>
      </trkpt>
      <trkpt lat="42.041335" lon="0.807720">
        <ele>1711.0</ele>
        <time>2015-08-29T09:31:31Z</time>
      </trkpt>
      <trkpt lat="42.041315" lon="0.807783">
        <ele>1710.0</ele>
        <time>2015-08-29T09:31:32Z</time>
      </trkpt>
      <trkpt lat="42.041292" lon="0.807852">
        <ele>1708.0</ele>
        <time>2015-08-29T09:31:33Z</time>
      </trkpt>
      <trkpt lat="42.041265" lon="0.807928">
        <ele>1707.0</ele>
        <time>2015-08-29T09:31:34Z</time>
      </trkpt>
      <trkpt lat="42.041248" lon="0.808007">
        <ele>1707.0</ele>
        <time>2015-08-29T09:31:35Z</time>
      </trkpt>
      <trkpt lat="42.041250" lon="0.808072">
        <ele>1707.0</ele>
        <time>2015-08-29T09:31:36Z</time>
      </trkpt>
      <trkpt lat="42.041253" lon="0.808122">
        <ele>1706.0</ele>
        <time>2015-08-29T09:31:38Z</time>
      </trkpt>
      <trkpt lat="42.041210" lon="0.808182">
        <ele>1704.0</ele>
        <time>2015-08-29T09:31:40Z</time>
      </trkpt>
      <trkpt lat="42.041177" lon="0.808230">
        <ele>1703.0</ele>
        <time>2015-08-29T09:31:41Z</time>
      </trkpt>
      <trkpt lat="42.041137" lon="0.808288">
        <ele>1702.0</ele>
        <time>2015-08-29T09:31:42Z</time>
      </trkpt>
      <trkpt lat="42.041105" lon="0.808342">
        <ele>1702.0</ele>
        <time>2015-08-29T09:31:43Z</time>
      </trkpt>
      <trkpt lat="42.041087" lon="0.808383">
        <ele>1702.0</ele>
        <time>2015-08-29T09:31:44Z</time>
      </trkpt>
      <trkpt lat="42.041068" lon="0.808427">
        <ele>1702.0</ele>
        <time>2015-08-29T09:31:45Z</time>
      </trkpt>
      <trkpt lat="42.041030" lon="0.808492">
        <ele>1702.0</ele>
        <time>2015-08-29T09:31:46Z</time>
      </trkpt>
      <trkpt lat="42.041000" lon="0.808548">
        <ele>1704.0</ele>
        <time>2015-08-29T09:31:47Z</time>
      </trkpt>
      <trkpt lat="42.040957" lon="0.808605">
        <ele>1704.0</ele>
        <time>2015-08-29T09:31:48Z</time>
      </trkpt>
      <trkpt lat="42.040915" lon="0.808647">
        <ele>1704.0</ele>
        <time>2015-08-29T09:31:49Z</time>
      </trkpt>
      <trkpt lat="42.040872" lon="0.808697">
        <ele>1705.0</ele>
        <time>2015-08-29T09:31:51Z</time>
      </trkpt>
      <trkpt lat="42.040842" lon="0.808777">
        <ele>1705.0</ele>
        <time>2015-08-29T09:31:53Z</time>
      </trkpt>
      <trkpt lat="42.040812" lon="0.808850">
        <ele>1703.0</ele>
        <time>2015-08-29T09:31:54Z</time>
      </trkpt>
      <trkpt lat="42.040768" lon="0.808917">
        <ele>1702.0</ele>
        <time>2015-08-29T09:31:55Z</time>
      </trkpt>
      <trkpt lat="42.040727" lon="0.808977">
        <ele>1702.0</ele>
        <time>2015-08-29T09:31:56Z</time>
      </trkpt>
      <trkpt lat="42.040695" lon="0.809030">
        <ele>1701.0</ele>
        <time>2015-08-29T09:31:57Z</time>
      </trkpt>
      <trkpt lat="42.040670" lon="0.809105">
        <ele>1698.0</ele>
        <time>2015-08-29T09:31:58Z</time>
      </trkpt>
      <trkpt lat="42.040647" lon="0.809192">
        <ele>1696.0</ele>
        <time>2015-08-29T09:31:59Z</time>
      </trkpt>
      <trkpt lat="42.040623" lon="0.809293">
        <ele>1695.0</ele>
        <time>2015-08-29T09:32:00Z</time>
      </trkpt>
      <trkpt lat="42.040610" lon="0.809395">
        <ele>1695.0</ele>
        <time>2015-08-29T09:32:01Z</time>
      </trkpt>
      <trkpt lat="42.040613" lon="0.809483">
        <ele>1696.0</ele>
        <time>2015-08-29T09:32:02Z</time>
      </trkpt>
      <trkpt lat="42.040618" lon="0.809555">
        <ele>1695.0</ele>
        <time>2015-08-29T09:32:03Z</time>
      </trkpt>
      <trkpt lat="42.040617" lon="0.809605">
        <ele>1695.0</ele>
        <time>2015-08-29T09:32:04Z</time>
      </trkpt>
      <trkpt lat="42.040607" lon="0.809673">
        <ele>1694.0</ele>
        <time>2015-08-29T09:32:05Z</time>
      </trkpt>
      <trkpt lat="42.040577" lon="0.809787">
        <ele>1692.0</ele>
        <time>2015-08-29T09:32:06Z</time>
      </trkpt>
      <trkpt lat="42.040545" lon="0.809908">
        <ele>1691.0</ele>
        <time>2015-08-29T09:32:07Z</time>
      </trkpt>
      <trkpt lat="42.040508" lon="0.810008">
        <ele>1691.0</ele>
        <time>2015-08-29T09:32:08Z</time>
      </trkpt>
      <trkpt lat="42.040467" lon="0.810083">
        <ele>1692.0</ele>
        <time>2015-08-29T09:32:09Z</time>
      </trkpt>
      <trkpt lat="42.040427" lon="0.810147">
        <ele>1693.0</ele>
        <time>2015-08-29T09:32:10Z</time>
      </trkpt>
      <trkpt lat="42.040392" lon="0.810212">
        <ele>1694.0</ele>
        <time>2015-08-29T09:32:11Z</time>
      </trkpt>
      <trkpt lat="42.040358" lon="0.810287">
        <ele>1695.0</ele>
        <time>2015-08-29T09:32:12Z</time>
      </trkpt>
      <trkpt lat="42.040337" lon="0.810400">
        <ele>1696.0</ele>
        <time>2015-08-29T09:32:13Z</time>
      </trkpt>
      <trkpt lat="42.040315" lon="0.810503">
        <ele>1698.0</ele>
        <time>2015-08-29T09:32:14Z</time>
      </trkpt>
      <trkpt lat="42.040287" lon="0.810570">
        <ele>1698.0</ele>
        <time>2015-08-29T09:32:15Z</time>
      </trkpt>
      <trkpt lat="42.040217" lon="0.810570">
        <ele>1697.0</ele>
        <time>2015-08-29T09:32:17Z</time>
      </trkpt>
      <trkpt lat="42.040173" lon="0.810563">
        <ele>1696.0</ele>
        <time>2015-08-29T09:32:18Z</time>
      </trkpt>
      <trkpt lat="42.040125" lon="0.810590">
        <ele>1694.0</ele>
        <time>2015-08-29T09:32:19Z</time>
      </trkpt>
      <trkpt lat="42.040083" lon="0.810652">
        <ele>1693.0</ele>
        <time>2015-08-29T09:32:20Z</time>
      </trkpt>
      <trkpt lat="42.040058" lon="0.810747">
        <ele>1691.0</ele>
        <time>2015-08-29T09:32:21Z</time>
      </trkpt>
      <trkpt lat="42.040040" lon="0.810862">
        <ele>1689.0</ele>
        <time>2015-08-29T09:32:22Z</time>
      </trkpt>
      <trkpt lat="42.040027" lon="0.810968">
        <ele>1688.0</ele>
        <time>2015-08-29T09:32:23Z</time>
      </trkpt>
      <trkpt lat="42.040023" lon="0.811073">
        <ele>1686.0</ele>
        <time>2015-08-29T09:32:24Z</time>
      </trkpt>
      <trkpt lat="42.040030" lon="0.811182">
        <ele>1685.0</ele>
        <time>2015-08-29T09:32:25Z</time>
      </trkpt>
      <trkpt lat="42.040048" lon="0.811302">
        <ele>1683.0</ele>
        <time>2015-08-29T09:32:26Z</time>
      </trkpt>
      <trkpt lat="42.040070" lon="0.811417">
        <ele>1682.0</ele>
        <time>2015-08-29T09:32:27Z</time>
      </trkpt>
      <trkpt lat="42.040090" lon="0.811523">
        <ele>1681.0</ele>
        <time>2015-08-29T09:32:28Z</time>
      </trkpt>
      <trkpt lat="42.040105" lon="0.811620">
        <ele>1680.0</ele>
        <time>2015-08-29T09:32:29Z</time>
      </trkpt>
      <trkpt lat="42.040107" lon="0.811707">
        <ele>1679.0</ele>
        <time>2015-08-29T09:32:30Z</time>
      </trkpt>
      <trkpt lat="42.040108" lon="0.811805">
        <ele>1677.0</ele>
        <time>2015-08-29T09:32:31Z</time>
      </trkpt>
      <trkpt lat="42.040110" lon="0.811928">
        <ele>1676.0</ele>
        <time>2015-08-29T09:32:32Z</time>
      </trkpt>
      <trkpt lat="42.040115" lon="0.812062">
        <ele>1676.0</ele>
        <time>2015-08-29T09:32:33Z</time>
      </trkpt>
      <trkpt lat="42.040118" lon="0.812190">
        <ele>1676.0</ele>
        <time>2015-08-29T09:32:34Z</time>
      </trkpt>
      <trkpt lat="42.040122" lon="0.812308">
        <ele>1675.0</ele>
        <time>2015-08-29T09:32:35Z</time>
      </trkpt>
      <trkpt lat="42.040127" lon="0.812422">
        <ele>1674.0</ele>
        <time>2015-08-29T09:32:36Z</time>
      </trkpt>
      <trkpt lat="42.040130" lon="0.812532">
        <ele>1673.0</ele>
        <time>2015-08-29T09:32:37Z</time>
      </trkpt>
      <trkpt lat="42.040130" lon="0.812625">
        <ele>1673.0</ele>
        <time>2015-08-29T09:32:38Z</time>
      </trkpt>
      <trkpt lat="42.040132" lon="0.812745">
        <ele>1670.0</ele>
        <time>2015-08-29T09:32:39Z</time>
      </trkpt>
      <trkpt lat="42.040137" lon="0.812872">
        <ele>1668.0</ele>
        <time>2015-08-29T09:32:40Z</time>
      </trkpt>
      <trkpt lat="42.040147" lon="0.812998">
        <ele>1665.0</ele>
        <time>2015-08-29T09:32:41Z</time>
      </trkpt>
      <trkpt lat="42.040157" lon="0.813120">
        <ele>1663.0</ele>
        <time>2015-08-29T09:32:42Z</time>
      </trkpt>
      <trkpt lat="42.040167" lon="0.813232">
        <ele>1661.0</ele>
        <time>2015-08-29T09:32:43Z</time>
      </trkpt>
      <trkpt lat="42.040177" lon="0.813333">
        <ele>1659.0</ele>
        <time>2015-08-29T09:32:44Z</time>
      </trkpt>
      <trkpt lat="42.040182" lon="0.813440">
        <ele>1657.0</ele>
        <time>2015-08-29T09:32:45Z</time>
      </trkpt>
      <trkpt lat="42.040185" lon="0.813573">
        <ele>1655.0</ele>
        <time>2015-08-29T09:32:46Z</time>
      </trkpt>
      <trkpt lat="42.040190" lon="0.813705">
        <ele>1654.0</ele>
        <time>2015-08-29T09:32:47Z</time>
      </trkpt>
      <trkpt lat="42.040198" lon="0.813830">
        <ele>1653.0</ele>
        <time>2015-08-29T09:32:48Z</time>
      </trkpt>
      <trkpt lat="42.040203" lon="0.813960">
        <ele>1651.0</ele>
        <time>2015-08-29T09:32:49Z</time>
      </trkpt>
      <trkpt lat="42.040207" lon="0.814102">
        <ele>1649.0</ele>
        <time>2015-08-29T09:32:50Z</time>
      </trkpt>
      <trkpt lat="42.040208" lon="0.814258">
        <ele>1648.0</ele>
        <time>2015-08-29T09:32:51Z</time>
      </trkpt>
      <trkpt lat="42.040212" lon="0.814420">
        <ele>1649.0</ele>
        <time>2015-08-29T09:32:52Z</time>
      </trkpt>
      <trkpt lat="42.040218" lon="0.814577">
        <ele>1649.0</ele>
        <time>2015-08-29T09:32:53Z</time>
      </trkpt>
      <trkpt lat="42.040227" lon="0.814705">
        <ele>1650.0</ele>
        <time>2015-08-29T09:32:54Z</time>
      </trkpt>
      <trkpt lat="42.040235" lon="0.814813">
        <ele>1653.0</ele>
        <time>2015-08-29T09:32:55Z</time>
      </trkpt>
      <trkpt lat="42.040237" lon="0.814920">
        <ele>1653.0</ele>
        <time>2015-08-29T09:32:56Z</time>
      </trkpt>
      <trkpt lat="42.040237" lon="0.815050">
        <ele>1652.0</ele>
        <time>2015-08-29T09:32:57Z</time>
      </trkpt>
      <trkpt lat="42.040233" lon="0.815185">
        <ele>1651.0</ele>
        <time>2015-08-29T09:32:58Z</time>
      </trkpt>
      <trkpt lat="42.040233" lon="0.815325">
        <ele>1651.0</ele>
        <time>2015-08-29T09:32:59Z</time>
      </trkpt>
      <trkpt lat="42.040230" lon="0.815455">
        <ele>1652.0</ele>
        <time>2015-08-29T09:33:00Z</time>
      </trkpt>
      <trkpt lat="42.040227" lon="0.815572">
        <ele>1653.0</ele>
        <time>2015-08-29T09:33:01Z</time>
      </trkpt>
      <trkpt lat="42.040223" lon="0.815682">
        <ele>1655.0</ele>
        <time>2015-08-29T09:33:02Z</time>
      </trkpt>
      <trkpt lat="42.040220" lon="0.815788">
        <ele>1657.0</ele>
        <time>2015-08-29T09:33:03Z</time>
      </trkpt>
      <trkpt lat="42.040220" lon="0.815895">
        <ele>1659.0</ele>
        <time>2015-08-29T09:33:04Z</time>
      </trkpt>
      <trkpt lat="42.040220" lon="0.816005">
        <ele>1662.0</ele>
        <time>2015-08-29T09:33:05Z</time>
      </trkpt>
      <trkpt lat="42.040222" lon="0.816132">
        <ele>1662.0</ele>
        <time>2015-08-29T09:33:06Z</time>
      </trkpt>
      <trkpt lat="42.040220" lon="0.816235">
        <ele>1664.0</ele>
        <time>2015-08-29T09:33:07Z</time>
      </trkpt>
      <trkpt lat="42.040222" lon="0.816333">
        <ele>1666.0</ele>
        <time>2015-08-29T09:33:08Z</time>
      </trkpt>
      <trkpt lat="42.040222" lon="0.816430">
        <ele>1668.0</ele>
        <time>2015-08-29T09:33:09Z</time>
      </trkpt>
      <trkpt lat="42.040215" lon="0.816505">
        <ele>1671.0</ele>
        <time>2015-08-29T09:33:10Z</time>
      </trkpt>
      <trkpt lat="42.040197" lon="0.816553">
        <ele>1673.0</ele>
        <time>2015-08-29T09:33:11Z</time>
      </trkpt>
      <trkpt lat="42.040117" lon="0.816607">
        <ele>1679.0</ele>
        <time>2015-08-29T09:33:13Z</time>
      </trkpt>
      <trkpt lat="42.040058" lon="0.816580">
        <ele>1680.0</ele>
        <time>2015-08-29T09:33:14Z</time>
      </trkpt>
      <trkpt lat="42.039997" lon="0.816517">
        <ele>1684.0</ele>
        <time>2015-08-29T09:33:15Z</time>
      </trkpt>
      <trkpt lat="42.039948" lon="0.816458">
        <ele>1687.0</ele>
        <time>2015-08-29T09:33:16Z</time>
      </trkpt>
      <trkpt lat="42.039907" lon="0.816392">
        <ele>1692.0</ele>
        <time>2015-08-29T09:33:17Z</time>
      </trkpt>
      <trkpt lat="42.039853" lon="0.816332">
        <ele>1693.0</ele>
        <time>2015-08-29T09:33:18Z</time>
      </trkpt>
      <trkpt lat="42.039820" lon="0.816255">
        <ele>1697.0</ele>
        <time>2015-08-29T09:33:19Z</time>
      </trkpt>
      <trkpt lat="42.039802" lon="0.816177">
        <ele>1700.0</ele>
        <time>2015-08-29T09:33:20Z</time>
      </trkpt>
      <trkpt lat="42.039802" lon="0.816097">
        <ele>1704.0</ele>
        <time>2015-08-29T09:33:21Z</time>
      </trkpt>
      <trkpt lat="42.039803" lon="0.816013">
        <ele>1708.0</ele>
        <time>2015-08-29T09:33:22Z</time>
      </trkpt>
      <trkpt lat="42.039802" lon="0.815923">
        <ele>1711.0</ele>
        <time>2015-08-29T09:33:23Z</time>
      </trkpt>
      <trkpt lat="42.039803" lon="0.815818">
        <ele>1715.0</ele>
        <time>2015-08-29T09:33:24Z</time>
      </trkpt>
      <trkpt lat="42.039817" lon="0.815703">
        <ele>1719.0</ele>
        <time>2015-08-29T09:33:25Z</time>
      </trkpt>
      <trkpt lat="42.039848" lon="0.815582">
        <ele>1724.0</ele>
        <time>2015-08-29T09:33:26Z</time>
      </trkpt>
      <trkpt lat="42.039897" lon="0.815458">
        <ele>1727.0</ele>
        <time>2015-08-29T09:33:27Z</time>
      </trkpt>
      <trkpt lat="42.039972" lon="0.815352">
        <ele>1729.0</ele>
        <time>2015-08-29T09:33:28Z</time>
      </trkpt>
      <trkpt lat="42.040065" lon="0.815258">
        <ele>1731.0</ele>
        <time>2015-08-29T09:33:29Z</time>
      </trkpt>
      <trkpt lat="42.040188" lon="0.815210">
        <ele>1734.0</ele>
        <time>2015-08-29T09:33:30Z</time>
      </trkpt>
      <trkpt lat="42.040327" lon="0.815198">
        <ele>1737.0</ele>
        <time>2015-08-29T09:33:31Z</time>
      </trkpt>
      <trkpt lat="42.040455" lon="0.815233">
        <ele>1740.0</ele>
        <time>2015-08-29T09:33:32Z</time>
      </trkpt>
      <trkpt lat="42.040565" lon="0.815285">
        <ele>1743.0</ele>
        <time>2015-08-29T09:33:33Z</time>
      </trkpt>
      <trkpt lat="42.040652" lon="0.815348">
        <ele>1744.0</ele>
        <time>2015-08-29T09:33:34Z</time>
      </trkpt>
      <trkpt lat="42.040717" lon="0.815415">
        <ele>1746.0</ele>
        <time>2015-08-29T09:33:35Z</time>
      </trkpt>
      <trkpt lat="42.040760" lon="0.815493">
        <ele>1748.0</ele>
        <time>2015-08-29T09:33:36Z</time>
      </trkpt>
      <trkpt lat="42.040793" lon="0.815580">
        <ele>1751.0</ele>
        <time>2015-08-29T09:33:37Z</time>
      </trkpt>
      <trkpt lat="42.040820" lon="0.815670">
        <ele>1753.0</ele>
        <time>2015-08-29T09:33:38Z</time>
      </trkpt>
      <trkpt lat="42.040837" lon="0.815753">
        <ele>1756.0</ele>
        <time>2015-08-29T09:33:39Z</time>
      </trkpt>
      <trkpt lat="42.040840" lon="0.815817">
        <ele>1759.0</ele>
        <time>2015-08-29T09:33:40Z</time>
      </trkpt>
      <trkpt lat="42.040787" lon="0.815880">
        <ele>1762.0</ele>
        <time>2015-08-29T09:33:42Z</time>
      </trkpt>
      <trkpt lat="42.040743" lon="0.815893">
        <ele>1766.0</ele>
        <time>2015-08-29T09:33:43Z</time>
      </trkpt>
      <trkpt lat="42.040695" lon="0.815898">
        <ele>1769.0</ele>
        <time>2015-08-29T09:33:44Z</time>
      </trkpt>
      <trkpt lat="42.040658" lon="0.815883">
        <ele>1771.0</ele>
        <time>2015-08-29T09:33:45Z</time>
      </trkpt>
      <trkpt lat="42.040613" lon="0.815853">
        <ele>1774.0</ele>
        <time>2015-08-29T09:33:46Z</time>
      </trkpt>
      <trkpt lat="42.040565" lon="0.815812">
        <ele>1777.0</ele>
        <time>2015-08-29T09:33:47Z</time>
      </trkpt>
      <trkpt lat="42.040515" lon="0.815753">
        <ele>1780.0</ele>
        <time>2015-08-29T09:33:48Z</time>
      </trkpt>
      <trkpt lat="42.040470" lon="0.815692">
        <ele>1783.0</ele>
        <time>2015-08-29T09:33:49Z</time>
      </trkpt>
      <trkpt lat="42.040440" lon="0.815627">
        <ele>1785.0</ele>
        <time>2015-08-29T09:33:50Z</time>
      </trkpt>
      <trkpt lat="42.040427" lon="0.815543">
        <ele>1788.0</ele>
        <time>2015-08-29T09:33:51Z</time>
      </trkpt>
      <trkpt lat="42.040432" lon="0.815427">
        <ele>1792.0</ele>
        <time>2015-08-29T09:33:52Z</time>
      </trkpt>
      <trkpt lat="42.040467" lon="0.815300">
        <ele>1796.0</ele>
        <time>2015-08-29T09:33:53Z</time>
      </trkpt>
      <trkpt lat="42.040520" lon="0.815192">
        <ele>1801.0</ele>
        <time>2015-08-29T09:33:54Z</time>
      </trkpt>
      <trkpt lat="42.040587" lon="0.815087">
        <ele>1805.0</ele>
        <time>2015-08-29T09:33:55Z</time>
      </trkpt>
      <trkpt lat="42.040688" lon="0.815010">
        <ele>1805.0</ele>
        <time>2015-08-29T09:33:56Z</time>
      </trkpt>
      <trkpt lat="42.040798" lon="0.814965">
        <ele>1808.0</ele>
        <time>2015-08-29T09:33:57Z</time>
      </trkpt>
      <trkpt lat="42.040917" lon="0.814972">
        <ele>1810.0</ele>
        <time>2015-08-29T09:33:58Z</time>
      </trkpt>
      <trkpt lat="42.041017" lon="0.815027">
        <ele>1813.0</ele>
        <time>2015-08-29T09:33:59Z</time>
      </trkpt>
      <trkpt lat="42.041077" lon="0.815135">
        <ele>1815.0</ele>
        <time>2015-08-29T09:34:00Z</time>
      </trkpt>
      <trkpt lat="42.041110" lon="0.815253">
        <ele>1817.0</ele>
        <time>2015-08-29T09:34:01Z</time>
      </trkpt>
      <trkpt lat="42.041125" lon="0.815358">
        <ele>1820.0</ele>
        <time>2015-08-29T09:34:02Z</time>
      </trkpt>
      <trkpt lat="42.041138" lon="0.815465">
        <ele>1824.0</ele>
        <time>2015-08-29T09:34:03Z</time>
      </trkpt>
      <trkpt lat="42.041145" lon="0.815565">
        <ele>1826.0</ele>
        <time>2015-08-29T09:34:04Z</time>
      </trkpt>
      <trkpt lat="42.041142" lon="0.815663">
        <ele>1828.0</ele>
        <time>2015-08-29T09:34:05Z</time>
      </trkpt>
      <trkpt lat="42.041133" lon="0.815753">
        <ele>1831.0</ele>
        <time>2015-08-29T09:34:06Z</time>
      </trkpt>
      <trkpt lat="42.041118" lon="0.815840">
        <ele>1834.0</ele>
        <time>2015-08-29T09:34:07Z</time>
      </trkpt>
      <trkpt lat="42.041105" lon="0.815922">
        <ele>1837.0</ele>
        <time>2015-08-29T09:34:08Z</time>
      </trkpt>
      <trkpt lat="42.041093" lon="0.815997">
        <ele>1841.0</ele>
        <time>2015-08-29T09:34:09Z</time>
      </trkpt>
      <trkpt lat="42.041083" lon="0.816075">
        <ele>1845.0</ele>
        <time>2015-08-29T09:34:10Z</time>
      </trkpt>
      <trkpt lat="42.041082" lon="0.816140">
        <ele>1849.0</ele>
        <time>2015-08-29T09:34:11Z</time>
      </trkpt>
      <trkpt lat="42.041080" lon="0.816202">
        <ele>1851.0</ele>
        <time>2015-08-29T09:34:12Z</time>
      </trkpt>
      <trkpt lat="42.041075" lon="0.816265">
        <ele>1851.0</ele>
        <time>2015-08-29T09:34:13Z</time>
      </trkpt>
      <trkpt lat="42.041062" lon="0.816325">
        <ele>1851.0</ele>
        <time>2015-08-29T09:34:14Z</time>
      </trkpt>
      <trkpt lat="42.041043" lon="0.816377">
        <ele>1852.0</ele>
        <time>2015-08-29T09:34:15Z</time>
      </trkpt>
      <trkpt lat="42.040982" lon="0.816402">
        <ele>1855.0</ele>
        <time>2015-08-29T09:34:17Z</time>
      </trkpt>
      <trkpt lat="42.040943" lon="0.816367">
        <ele>1855.0</ele>
        <time>2015-08-29T09:34:18Z</time>
      </trkpt>
      <trkpt lat="42.040923" lon="0.816298">
        <ele>1856.0</ele>
        <time>2015-08-29T09:34:19Z</time>
      </trkpt>
      <trkpt lat="42.040910" lon="0.816222">
        <ele>1858.0</ele>
        <time>2015-08-29T09:34:20Z</time>
      </trkpt>
      <trkpt lat="42.040888" lon="0.816137">
        <ele>1858.0</ele>
        <time>2015-08-29T09:34:21Z</time>
      </trkpt>
      <trkpt lat="42.040865" lon="0.816043">
        <ele>1857.0</ele>
        <time>2015-08-29T09:34:22Z</time>
      </trkpt>
      <trkpt lat="42.040838" lon="0.815937">
        <ele>1856.0</ele>
        <time>2015-08-29T09:34:23Z</time>
      </trkpt>
      <trkpt lat="42.040818" lon="0.815825">
        <ele>1857.0</ele>
        <time>2015-08-29T09:34:24Z</time>
      </trkpt>
      <trkpt lat="42.040807" lon="0.815707">
        <ele>1858.0</ele>
        <time>2015-08-29T09:34:25Z</time>
      </trkpt>
      <trkpt lat="42.040797" lon="0.815598">
        <ele>1860.0</ele>
        <time>2015-08-29T09:34:26Z</time>
      </trkpt>
      <trkpt lat="42.040785" lon="0.815500">
        <ele>1863.0</ele>
        <time>2015-08-29T09:34:27Z</time>
      </trkpt>
      <trkpt lat="42.040775" lon="0.815412">
        <ele>1866.0</ele>
        <time>2015-08-29T09:34:28Z</time>
      </trkpt>
      <trkpt lat="42.040765" lon="0.815325">
        <ele>1869.0</ele>
        <time>2015-08-29T09:34:29Z</time>
      </trkpt>
      <trkpt lat="42.040753" lon="0.815240">
        <ele>1871.0</ele>
        <time>2015-08-29T09:34:30Z</time>
      </trkpt>
      <trkpt lat="42.040740" lon="0.815152">
        <ele>1874.0</ele>
        <time>2015-08-29T09:34:31Z</time>
      </trkpt>
      <trkpt lat="42.040722" lon="0.815065">
        <ele>1876.0</ele>
        <time>2015-08-29T09:34:32Z</time>
      </trkpt>
      <trkpt lat="42.040698" lon="0.814982">
        <ele>1880.0</ele>
        <time>2015-08-29T09:34:33Z</time>
      </trkpt>
      <trkpt lat="42.040672" lon="0.814907">
        <ele>1883.0</ele>
        <time>2015-08-29T09:34:34Z</time>
      </trkpt>
      <trkpt lat="42.040643" lon="0.814818">
        <ele>1885.0</ele>
        <time>2015-08-29T09:34:35Z</time>
      </trkpt>
      <trkpt lat="42.040623" lon="0.814732">
        <ele>1888.0</ele>
        <time>2015-08-29T09:34:36Z</time>
      </trkpt>
      <trkpt lat="42.040612" lon="0.814630">
        <ele>1889.0</ele>
        <time>2015-08-29T09:34:37Z</time>
      </trkpt>
      <trkpt lat="42.040612" lon="0.814508">
        <ele>1888.0</ele>
        <time>2015-08-29T09:34:38Z</time>
      </trkpt>
      <trkpt lat="42.040618" lon="0.814378">
        <ele>1887.0</ele>
        <time>2015-08-29T09:34:39Z</time>
      </trkpt>
      <trkpt lat="42.040630" lon="0.814248">
        <ele>1886.0</ele>
        <time>2015-08-29T09:34:40Z</time>
      </trkpt>
      <trkpt lat="42.040647" lon="0.814113">
        <ele>1884.0</ele>
        <time>2015-08-29T09:34:41Z</time>
      </trkpt>
      <trkpt lat="42.040663" lon="0.813975">
        <ele>1882.0</ele>
        <time>2015-08-29T09:34:42Z</time>
      </trkpt>
      <trkpt lat="42.040675" lon="0.813850">
        <ele>1881.0</ele>
        <time>2015-08-29T09:34:43Z</time>
      </trkpt>
      <trkpt lat="42.040678" lon="0.813737">
        <ele>1880.0</ele>
        <time>2015-08-29T09:34:44Z</time>
      </trkpt>
      <trkpt lat="42.040655" lon="0.813673">
        <ele>1877.0</ele>
        <time>2015-08-29T09:34:45Z</time>
      </trkpt>
      <trkpt lat="42.040592" lon="0.813735">
        <ele>1872.0</ele>
        <time>2015-08-29T09:34:48Z</time>
      </trkpt>
      <trkpt lat="42.040533" lon="0.813788">
        <ele>1870.0</ele>
        <time>2015-08-29T09:34:49Z</time>
      </trkpt>
      <trkpt lat="42.040495" lon="0.813847">
        <ele>1870.0</ele>
        <time>2015-08-29T09:34:50Z</time>
      </trkpt>
      <trkpt lat="42.040458" lon="0.813903">
        <ele>1868.0</ele>
        <time>2015-08-29T09:34:51Z</time>
      </trkpt>
      <trkpt lat="42.040422" lon="0.813972">
        <ele>1866.0</ele>
        <time>2015-08-29T09:34:52Z</time>
      </trkpt>
      <trkpt lat="42.040388" lon="0.814065">
        <ele>1864.0</ele>
        <time>2015-08-29T09:34:53Z</time>
      </trkpt>
      <trkpt lat="42.040352" lon="0.814160">
        <ele>1862.0</ele>
        <time>2015-08-29T09:34:54Z</time>
      </trkpt>
      <trkpt lat="42.040318" lon="0.814265">
        <ele>1860.0</ele>
        <time>2015-08-29T09:34:55Z</time>
      </trkpt>
      <trkpt lat="42.040292" lon="0.814377">
        <ele>1859.0</ele>
        <time>2015-08-29T09:34:56Z</time>
      </trkpt>
      <trkpt lat="42.040272" lon="0.814483">
        <ele>1858.0</ele>
        <time>2015-08-29T09:34:57Z</time>
      </trkpt>
      <trkpt lat="42.040267" lon="0.814583">
        <ele>1857.0</ele>
        <time>2015-08-29T09:34:58Z</time>
      </trkpt>
      <trkpt lat="42.040255" lon="0.814690">
        <ele>1855.0</ele>
        <time>2015-08-29T09:34:59Z</time>
      </trkpt>
      <trkpt lat="42.040242" lon="0.814785">
        <ele>1854.0</ele>
        <time>2015-08-29T09:35:00Z</time>
      </trkpt>
      <trkpt lat="42.040228" lon="0.814902">
        <ele>1852.0</ele>
        <time>2015-08-29T09:35:01Z</time>
      </trkpt>
      <trkpt lat="42.040225" lon="0.815015">
        <ele>1850.0</ele>
        <time>2015-08-29T09:35:02Z</time>
      </trkpt>
      <trkpt lat="42.040223" lon="0.815107">
        <ele>1848.0</ele>
        <time>2015-08-29T09:35:03Z</time>
      </trkpt>
      <trkpt lat="42.040222" lon="0.815187">
        <ele>1845.0</ele>
        <time>2015-08-29T09:35:04Z</time>
      </trkpt>
      <trkpt lat="42.040210" lon="0.815253">
        <ele>1841.0</ele>
        <time>2015-08-29T09:35:05Z</time>
      </trkpt>
      <trkpt lat="42.040193" lon="0.815312">
        <ele>1839.0</ele>
        <time>2015-08-29T09:35:06Z</time>
      </trkpt>
      <trkpt lat="42.040178" lon="0.815392">
        <ele>1836.0</ele>
        <time>2015-08-29T09:35:07Z</time>
      </trkpt>
      <trkpt lat="42.040172" lon="0.815477">
        <ele>1835.0</ele>
        <time>2015-08-29T09:35:08Z</time>
      </trkpt>
      <trkpt lat="42.040165" lon="0.815558">
        <ele>1833.0</ele>
        <time>2015-08-29T09:35:09Z</time>
      </trkpt>
      <trkpt lat="42.040153" lon="0.815628">
        <ele>1830.0</ele>
        <time>2015-08-29T09:35:10Z</time>
      </trkpt>
      <trkpt lat="42.040137" lon="0.815693">
        <ele>1826.0</ele>
        <time>2015-08-29T09:35:11Z</time>
      </trkpt>
      <trkpt lat="42.040128" lon="0.815770">
        <ele>1824.0</ele>
        <time>2015-08-29T09:35:12Z</time>
      </trkpt>
      <trkpt lat="42.040130" lon="0.815865">
        <ele>1821.0</ele>
        <time>2015-08-29T09:35:13Z</time>
      </trkpt>
      <trkpt lat="42.040135" lon="0.815975">
        <ele>1819.0</ele>
        <time>2015-08-29T09:35:14Z</time>
      </trkpt>
      <trkpt lat="42.040135" lon="0.816090">
        <ele>1817.0</ele>
        <time>2015-08-29T09:35:15Z</time>
      </trkpt>
      <trkpt lat="42.040133" lon="0.816202">
        <ele>1814.0</ele>
        <time>2015-08-29T09:35:16Z</time>
      </trkpt>
      <trkpt lat="42.040137" lon="0.816277">
        <ele>1813.0</ele>
        <time>2015-08-29T09:35:17Z</time>
      </trkpt>
      <trkpt lat="42.040137" lon="0.816342">
        <ele>1813.0</ele>
        <time>2015-08-29T09:35:18Z</time>
      </trkpt>
      <trkpt lat="42.040132" lon="0.816407">
        <ele>1810.0</ele>
        <time>2015-08-29T09:35:19Z</time>
      </trkpt>
      <trkpt lat="42.040113" lon="0.816493">
        <ele>1807.0</ele>
        <time>2015-08-29T09:35:20Z</time>
      </trkpt>
      <trkpt lat="42.040083" lon="0.816595">
        <ele>1805.0</ele>
        <time>2015-08-29T09:35:21Z</time>
      </trkpt>
      <trkpt lat="42.040065" lon="0.816713">
        <ele>1804.0</ele>
        <time>2015-08-29T09:35:22Z</time>
      </trkpt>
      <trkpt lat="42.040065" lon="0.816837">
        <ele>1803.0</ele>
        <time>2015-08-29T09:35:23Z</time>
      </trkpt>
      <trkpt lat="42.040077" lon="0.816953">
        <ele>1803.0</ele>
        <time>2015-08-29T09:35:24Z</time>
      </trkpt>
      <trkpt lat="42.040090" lon="0.817052">
        <ele>1803.0</ele>
        <time>2015-08-29T09:35:25Z</time>
      </trkpt>
      <trkpt lat="42.040100" lon="0.817145">
        <ele>1803.0</ele>
        <time>2015-08-29T09:35:26Z</time>
      </trkpt>
      <trkpt lat="42.040098" lon="0.817247">
        <ele>1801.0</ele>
        <time>2015-08-29T09:35:27Z</time>
      </trkpt>
      <trkpt lat="42.040090" lon="0.817350">
        <ele>1801.0</ele>
        <time>2015-08-29T09:35:28Z</time>
      </trkpt>
      <trkpt lat="42.040080" lon="0.817462">
        <ele>1800.0</ele>
        <time>2015-08-29T09:35:29Z</time>
      </trkpt>
      <trkpt lat="42.040072" lon="0.817580">
        <ele>1800.0</ele>
        <time>2015-08-29T09:35:30Z</time>
      </trkpt>
      <trkpt lat="42.040067" lon="0.817695">
        <ele>1799.0</ele>
        <time>2015-08-29T09:35:31Z</time>
      </trkpt>
      <trkpt lat="42.040062" lon="0.817813">
        <ele>1797.0</ele>
        <time>2015-08-29T09:35:32Z</time>
      </trkpt>
      <trkpt lat="42.040048" lon="0.817927">
        <ele>1795.0</ele>
        <time>2015-08-29T09:35:33Z</time>
      </trkpt>
      <trkpt lat="42.040032" lon="0.818032">
        <ele>1794.0</ele>
        <time>2015-08-29T09:35:34Z</time>
      </trkpt>
      <trkpt lat="42.040017" lon="0.818157">
        <ele>1793.0</ele>
        <time>2015-08-29T09:35:35Z</time>
      </trkpt>
      <trkpt lat="42.040018" lon="0.818310">
        <ele>1791.0</ele>
        <time>2015-08-29T09:35:36Z</time>
      </trkpt>
      <trkpt lat="42.040025" lon="0.818458">
        <ele>1790.0</ele>
        <time>2015-08-29T09:35:37Z</time>
      </trkpt>
      <trkpt lat="42.040027" lon="0.818590">
        <ele>1790.0</ele>
        <time>2015-08-29T09:35:38Z</time>
      </trkpt>
      <trkpt lat="42.040017" lon="0.818685">
        <ele>1790.0</ele>
        <time>2015-08-29T09:35:39Z</time>
      </trkpt>
      <trkpt lat="42.039995" lon="0.818762">
        <ele>1790.0</ele>
        <time>2015-08-29T09:35:40Z</time>
      </trkpt>
      <trkpt lat="42.039973" lon="0.818833">
        <ele>1790.0</ele>
        <time>2015-08-29T09:35:41Z</time>
      </trkpt>
      <trkpt lat="42.039957" lon="0.818917">
        <ele>1790.0</ele>
        <time>2015-08-29T09:35:42Z</time>
      </trkpt>
      <trkpt lat="42.039947" lon="0.819013">
        <ele>1790.0</ele>
        <time>2015-08-29T09:35:43Z</time>
      </trkpt>
      <trkpt lat="42.039942" lon="0.819117">
        <ele>1790.0</ele>
        <time>2015-08-29T09:35:44Z</time>
      </trkpt>
      <trkpt lat="42.039937" lon="0.819215">
        <ele>1789.0</ele>
        <time>2015-08-29T09:35:45Z</time>
      </trkpt>
      <trkpt lat="42.039932" lon="0.819315">
        <ele>1788.0</ele>
        <time>2015-08-29T09:35:46Z</time>
      </trkpt>
      <trkpt lat="42.039927" lon="0.819427">
        <ele>1787.0</ele>
        <time>2015-08-29T09:35:47Z</time>
      </trkpt>
      <trkpt lat="42.039925" lon="0.819547">
        <ele>1785.0</ele>
        <time>2015-08-29T09:35:48Z</time>
      </trkpt>
      <trkpt lat="42.039927" lon="0.819667">
        <ele>1783.0</ele>
        <time>2015-08-29T09:35:49Z</time>
      </trkpt>
      <trkpt lat="42.039930" lon="0.819783">
        <ele>1782.0</ele>
        <time>2015-08-29T09:35:50Z</time>
      </trkpt>
      <trkpt lat="42.039928" lon="0.819877">
        <ele>1782.0</ele>
        <time>2015-08-29T09:35:51Z</time>
      </trkpt>
      <trkpt lat="42.039923" lon="0.819977">
        <ele>1781.0</ele>
        <time>2015-08-29T09:35:52Z</time>
      </trkpt>
      <trkpt lat="42.039927" lon="0.820098">
        <ele>1778.0</ele>
        <time>2015-08-29T09:35:53Z</time>
      </trkpt>
      <trkpt lat="42.039930" lon="0.820212">
        <ele>1776.0</ele>
        <time>2015-08-29T09:35:54Z</time>
      </trkpt>
      <trkpt lat="42.039935" lon="0.820328">
        <ele>1775.0</ele>
        <time>2015-08-29T09:35:55Z</time>
      </trkpt>
      <trkpt lat="42.039942" lon="0.820443">
        <ele>1773.0</ele>
        <time>2015-08-29T09:35:56Z</time>
      </trkpt>
      <trkpt lat="42.039947" lon="0.820552">
        <ele>1772.0</ele>
        <time>2015-08-29T09:35:57Z</time>
      </trkpt>
      <trkpt lat="42.039952" lon="0.820653">
        <ele>1771.0</ele>
        <time>2015-08-29T09:35:58Z</time>
      </trkpt>
      <trkpt lat="42.039957" lon="0.820752">
        <ele>1770.0</ele>
        <time>2015-08-29T09:35:59Z</time>
      </trkpt>
      <trkpt lat="42.039960" lon="0.820850">
        <ele>1769.0</ele>
        <time>2015-08-29T09:36:00Z</time>
      </trkpt>
      <trkpt lat="42.039967" lon="0.820955">
        <ele>1768.0</ele>
        <time>2015-08-29T09:36:01Z</time>
      </trkpt>
      <trkpt lat="42.039972" lon="0.821062">
        <ele>1767.0</ele>
        <time>2015-08-29T09:36:02Z</time>
      </trkpt>
      <trkpt lat="42.039975" lon="0.821170">
        <ele>1766.0</ele>
        <time>2015-08-29T09:36:03Z</time>
      </trkpt>
      <trkpt lat="42.039980" lon="0.821282">
        <ele>1764.0</ele>
        <time>2015-08-29T09:36:04Z</time>
      </trkpt>
      <trkpt lat="42.039983" lon="0.821392">
        <ele>1762.0</ele>
        <time>2015-08-29T09:36:05Z</time>
      </trkpt>
      <trkpt lat="42.039985" lon="0.821498">
        <ele>1761.0</ele>
        <time>2015-08-29T09:36:06Z</time>
      </trkpt>
      <trkpt lat="42.039983" lon="0.821613">
        <ele>1758.0</ele>
        <time>2015-08-29T09:36:07Z</time>
      </trkpt>
      <trkpt lat="42.039977" lon="0.821710">
        <ele>1758.0</ele>
        <time>2015-08-29T09:36:08Z</time>
      </trkpt>
      <trkpt lat="42.039973" lon="0.821818">
        <ele>1757.0</ele>
        <time>2015-08-29T09:36:09Z</time>
      </trkpt>
      <trkpt lat="42.039978" lon="0.821940">
        <ele>1754.0</ele>
        <time>2015-08-29T09:36:10Z</time>
      </trkpt>
      <trkpt lat="42.039982" lon="0.822053">
        <ele>1753.0</ele>
        <time>2015-08-29T09:36:11Z</time>
      </trkpt>
      <trkpt lat="42.039987" lon="0.822170">
        <ele>1751.0</ele>
        <time>2015-08-29T09:36:12Z</time>
      </trkpt>
      <trkpt lat="42.039990" lon="0.822283">
        <ele>1749.0</ele>
        <time>2015-08-29T09:36:13Z</time>
      </trkpt>
      <trkpt lat="42.039988" lon="0.822393">
        <ele>1747.0</ele>
        <time>2015-08-29T09:36:14Z</time>
      </trkpt>
      <trkpt lat="42.039987" lon="0.822502">
        <ele>1746.0</ele>
        <time>2015-08-29T09:36:15Z</time>
      </trkpt>
      <trkpt lat="42.039983" lon="0.822617">
        <ele>1744.0</ele>
        <time>2015-08-29T09:36:16Z</time>
      </trkpt>
      <trkpt lat="42.039990" lon="0.822753">
        <ele>1741.0</ele>
        <time>2015-08-29T09:36:17Z</time>
      </trkpt>
      <trkpt lat="42.039983" lon="0.822873">
        <ele>1740.0</ele>
        <time>2015-08-29T09:36:18Z</time>
      </trkpt>
      <trkpt lat="42.039978" lon="0.822993">
        <ele>1737.0</ele>
        <time>2015-08-29T09:36:19Z</time>
      </trkpt>
      <trkpt lat="42.039968" lon="0.823100">
        <ele>1736.0</ele>
        <time>2015-08-29T09:36:20Z</time>
      </trkpt>
      <trkpt lat="42.039952" lon="0.823193">
        <ele>1734.0</ele>
        <time>2015-08-29T09:36:21Z</time>
      </trkpt>
      <trkpt lat="42.039935" lon="0.823282">
        <ele>1733.0</ele>
        <time>2015-08-29T09:36:22Z</time>
      </trkpt>
      <trkpt lat="42.039915" lon="0.823362">
        <ele>1731.0</ele>
        <time>2015-08-29T09:36:23Z</time>
      </trkpt>
      <trkpt lat="42.039892" lon="0.823448">
        <ele>1728.0</ele>
        <time>2015-08-29T09:36:24Z</time>
      </trkpt>
      <trkpt lat="42.039878" lon="0.823528">
        <ele>1727.0</ele>
        <time>2015-08-29T09:36:25Z</time>
      </trkpt>
      <trkpt lat="42.039853" lon="0.823622">
        <ele>1726.0</ele>
        <time>2015-08-29T09:36:26Z</time>
      </trkpt>
      <trkpt lat="42.039812" lon="0.823712">
        <ele>1724.0</ele>
        <time>2015-08-29T09:36:27Z</time>
      </trkpt>
      <trkpt lat="42.039763" lon="0.823782">
        <ele>1722.0</ele>
        <time>2015-08-29T09:36:28Z</time>
      </trkpt>
      <trkpt lat="42.039717" lon="0.823842">
        <ele>1720.0</ele>
        <time>2015-08-29T09:36:29Z</time>
      </trkpt>
      <trkpt lat="42.039682" lon="0.823908">
        <ele>1719.0</ele>
        <time>2015-08-29T09:36:30Z</time>
      </trkpt>
      <trkpt lat="42.039667" lon="0.823995">
        <ele>1719.0</ele>
        <time>2015-08-29T09:36:31Z</time>
      </trkpt>
      <trkpt lat="42.039665" lon="0.824098">
        <ele>1719.0</ele>
        <time>2015-08-29T09:36:32Z</time>
      </trkpt>
      <trkpt lat="42.039663" lon="0.824208">
        <ele>1720.0</ele>
        <time>2015-08-29T09:36:33Z</time>
      </trkpt>
      <trkpt lat="42.039655" lon="0.824317">
        <ele>1720.0</ele>
        <time>2015-08-29T09:36:34Z</time>
      </trkpt>
      <trkpt lat="42.039642" lon="0.824422">
        <ele>1721.0</ele>
        <time>2015-08-29T09:36:35Z</time>
      </trkpt>
      <trkpt lat="42.039635" lon="0.824533">
        <ele>1721.0</ele>
        <time>2015-08-29T09:36:36Z</time>
      </trkpt>
      <trkpt lat="42.039632" lon="0.824658">
        <ele>1720.0</ele>
        <time>2015-08-29T09:36:37Z</time>
      </trkpt>
      <trkpt lat="42.039632" lon="0.824792">
        <ele>1720.0</ele>
        <time>2015-08-29T09:36:38Z</time>
      </trkpt>
      <trkpt lat="42.039623" lon="0.824922">
        <ele>1720.0</ele>
        <time>2015-08-29T09:36:39Z</time>
      </trkpt>
      <trkpt lat="42.039610" lon="0.825037">
        <ele>1720.0</ele>
        <time>2015-08-29T09:36:40Z</time>
      </trkpt>
      <trkpt lat="42.039583" lon="0.825135">
        <ele>1720.0</ele>
        <time>2015-08-29T09:36:41Z</time>
      </trkpt>
      <trkpt lat="42.039555" lon="0.825198">
        <ele>1722.0</ele>
        <time>2015-08-29T09:36:42Z</time>
      </trkpt>
      <trkpt lat="42.039527" lon="0.825275">
        <ele>1723.0</ele>
        <time>2015-08-29T09:36:43Z</time>
      </trkpt>
      <trkpt lat="42.039502" lon="0.825373">
        <ele>1721.0</ele>
        <time>2015-08-29T09:36:44Z</time>
      </trkpt>
      <trkpt lat="42.039477" lon="0.825485">
        <ele>1721.0</ele>
        <time>2015-08-29T09:36:45Z</time>
      </trkpt>
      <trkpt lat="42.039460" lon="0.825600">
        <ele>1720.0</ele>
        <time>2015-08-29T09:36:46Z</time>
      </trkpt>
      <trkpt lat="42.039450" lon="0.825712">
        <ele>1721.0</ele>
        <time>2015-08-29T09:36:47Z</time>
      </trkpt>
      <trkpt lat="42.039442" lon="0.825813">
        <ele>1722.0</ele>
        <time>2015-08-29T09:36:48Z</time>
      </trkpt>
      <trkpt lat="42.039435" lon="0.825907">
        <ele>1722.0</ele>
        <time>2015-08-29T09:36:49Z</time>
      </trkpt>
      <trkpt lat="42.039432" lon="0.825995">
        <ele>1721.0</ele>
        <time>2015-08-29T09:36:50Z</time>
      </trkpt>
      <trkpt lat="42.039420" lon="0.826090">
        <ele>1721.0</ele>
        <time>2015-08-29T09:36:51Z</time>
      </trkpt>
      <trkpt lat="42.039415" lon="0.826193">
        <ele>1718.0</ele>
        <time>2015-08-29T09:36:52Z</time>
      </trkpt>
      <trkpt lat="42.039407" lon="0.826322">
        <ele>1717.0</ele>
        <time>2015-08-29T09:36:53Z</time>
      </trkpt>
      <trkpt lat="42.039402" lon="0.826470">
        <ele>1717.0</ele>
        <time>2015-08-29T09:36:54Z</time>
      </trkpt>
      <trkpt lat="42.039402" lon="0.826612">
        <ele>1719.0</ele>
        <time>2015-08-29T09:36:55Z</time>
      </trkpt>
      <trkpt lat="42.039408" lon="0.826745">
        <ele>1720.0</ele>
        <time>2015-08-29T09:36:56Z</time>
      </trkpt>
      <trkpt lat="42.039408" lon="0.826860">
        <ele>1720.0</ele>
        <time>2015-08-29T09:36:57Z</time>
      </trkpt>
      <trkpt lat="42.039400" lon="0.826985">
        <ele>1719.0</ele>
        <time>2015-08-29T09:36:58Z</time>
      </trkpt>
      <trkpt lat="42.039387" lon="0.827108">
        <ele>1720.0</ele>
        <time>2015-08-29T09:36:59Z</time>
      </trkpt>
      <trkpt lat="42.039375" lon="0.827253">
        <ele>1720.0</ele>
        <time>2015-08-29T09:37:00Z</time>
      </trkpt>
      <trkpt lat="42.039373" lon="0.827390">
        <ele>1719.0</ele>
        <time>2015-08-29T09:37:01Z</time>
      </trkpt>
      <trkpt lat="42.039377" lon="0.827498">
        <ele>1718.0</ele>
        <time>2015-08-29T09:37:02Z</time>
      </trkpt>
      <trkpt lat="42.039387" lon="0.827593">
        <ele>1717.0</ele>
        <time>2015-08-29T09:37:03Z</time>
      </trkpt>
      <trkpt lat="42.039393" lon="0.827670">
        <ele>1715.0</ele>
        <time>2015-08-29T09:37:04Z</time>
      </trkpt>
      <trkpt lat="42.039392" lon="0.827758">
        <ele>1714.0</ele>
        <time>2015-08-29T09:37:05Z</time>
      </trkpt>
      <trkpt lat="42.039387" lon="0.827873">
        <ele>1713.0</ele>
        <time>2015-08-29T09:37:06Z</time>
      </trkpt>
      <trkpt lat="42.039378" lon="0.828000">
        <ele>1712.0</ele>
        <time>2015-08-29T09:37:07Z</time>
      </trkpt>
      <trkpt lat="42.039368" lon="0.828115">
        <ele>1711.0</ele>
        <time>2015-08-29T09:37:08Z</time>
      </trkpt>
      <trkpt lat="42.039362" lon="0.828222">
        <ele>1710.0</ele>
        <time>2015-08-29T09:37:09Z</time>
      </trkpt>
      <trkpt lat="42.039357" lon="0.828327">
        <ele>1708.0</ele>
        <time>2015-08-29T09:37:10Z</time>
      </trkpt>
      <trkpt lat="42.039348" lon="0.828437">
        <ele>1706.0</ele>
        <time>2015-08-29T09:37:11Z</time>
      </trkpt>
      <trkpt lat="42.039338" lon="0.828553">
        <ele>1704.0</ele>
        <time>2015-08-29T09:37:12Z</time>
      </trkpt>
      <trkpt lat="42.039330" lon="0.828677">
        <ele>1703.0</ele>
        <time>2015-08-29T09:37:13Z</time>
      </trkpt>
      <trkpt lat="42.039323" lon="0.828798">
        <ele>1702.0</ele>
        <time>2015-08-29T09:37:14Z</time>
      </trkpt>
      <trkpt lat="42.039320" lon="0.828920">
        <ele>1699.0</ele>
        <time>2015-08-29T09:37:15Z</time>
      </trkpt>
      <trkpt lat="42.039310" lon="0.829017">
        <ele>1699.0</ele>
        <time>2015-08-29T09:37:16Z</time>
      </trkpt>
      <trkpt lat="42.039300" lon="0.829130">
        <ele>1698.0</ele>
        <time>2015-08-29T09:37:17Z</time>
      </trkpt>
      <trkpt lat="42.039290" lon="0.829257">
        <ele>1697.0</ele>
        <time>2015-08-29T09:37:18Z</time>
      </trkpt>
      <trkpt lat="42.039278" lon="0.829373">
        <ele>1695.0</ele>
        <time>2015-08-29T09:37:19Z</time>
      </trkpt>
      <trkpt lat="42.039267" lon="0.829488">
        <ele>1694.0</ele>
        <time>2015-08-29T09:37:20Z</time>
      </trkpt>
      <trkpt lat="42.039257" lon="0.829592">
        <ele>1694.0</ele>
        <time>2015-08-29T09:37:21Z</time>
      </trkpt>
      <trkpt lat="42.039245" lon="0.829693">
        <ele>1693.0</ele>
        <time>2015-08-29T09:37:22Z</time>
      </trkpt>
      <trkpt lat="42.039233" lon="0.829798">
        <ele>1693.0</ele>
        <time>2015-08-29T09:37:23Z</time>
      </trkpt>
      <trkpt lat="42.039222" lon="0.829905">
        <ele>1692.0</ele>
        <time>2015-08-29T09:37:24Z</time>
      </trkpt>
      <trkpt lat="42.039208" lon="0.830018">
        <ele>1691.0</ele>
        <time>2015-08-29T09:37:25Z</time>
      </trkpt>
      <trkpt lat="42.039195" lon="0.830130">
        <ele>1690.0</ele>
        <time>2015-08-29T09:37:26Z</time>
      </trkpt>
      <trkpt lat="42.039185" lon="0.830242">
        <ele>1690.0</ele>
        <time>2015-08-29T09:37:27Z</time>
      </trkpt>
      <trkpt lat="42.039178" lon="0.830352">
        <ele>1689.0</ele>
        <time>2015-08-29T09:37:28Z</time>
      </trkpt>
      <trkpt lat="42.039173" lon="0.830467">
        <ele>1688.0</ele>
        <time>2015-08-29T09:37:29Z</time>
      </trkpt>
      <trkpt lat="42.039170" lon="0.830585">
        <ele>1686.0</ele>
        <time>2015-08-29T09:37:30Z</time>
      </trkpt>
      <trkpt lat="42.039168" lon="0.830708">
        <ele>1685.0</ele>
        <time>2015-08-29T09:37:31Z</time>
      </trkpt>
      <trkpt lat="42.039162" lon="0.830828">
        <ele>1683.0</ele>
        <time>2015-08-29T09:37:32Z</time>
      </trkpt>
      <trkpt lat="42.039152" lon="0.830928">
        <ele>1684.0</ele>
        <time>2015-08-29T09:37:33Z</time>
      </trkpt>
      <trkpt lat="42.039143" lon="0.831050">
        <ele>1682.0</ele>
        <time>2015-08-29T09:37:34Z</time>
      </trkpt>
      <trkpt lat="42.039132" lon="0.831178">
        <ele>1681.0</ele>
        <time>2015-08-29T09:37:35Z</time>
      </trkpt>
      <trkpt lat="42.039122" lon="0.831303">
        <ele>1679.0</ele>
        <time>2015-08-29T09:37:36Z</time>
      </trkpt>
      <trkpt lat="42.039112" lon="0.831425">
        <ele>1678.0</ele>
        <time>2015-08-29T09:37:37Z</time>
      </trkpt>
      <trkpt lat="42.039105" lon="0.831543">
        <ele>1676.0</ele>
        <time>2015-08-29T09:37:38Z</time>
      </trkpt>
      <trkpt lat="42.039098" lon="0.831662">
        <ele>1674.0</ele>
        <time>2015-08-29T09:37:39Z</time>
      </trkpt>
      <trkpt lat="42.039090" lon="0.831768">
        <ele>1673.0</ele>
        <time>2015-08-29T09:37:40Z</time>
      </trkpt>
      <trkpt lat="42.039083" lon="0.831883">
        <ele>1671.0</ele>
        <time>2015-08-29T09:37:41Z</time>
      </trkpt>
      <trkpt lat="42.039078" lon="0.831997">
        <ele>1669.0</ele>
        <time>2015-08-29T09:37:42Z</time>
      </trkpt>
      <trkpt lat="42.039072" lon="0.832118">
        <ele>1667.0</ele>
        <time>2015-08-29T09:37:43Z</time>
      </trkpt>
      <trkpt lat="42.039062" lon="0.832235">
        <ele>1665.0</ele>
        <time>2015-08-29T09:37:44Z</time>
      </trkpt>
      <trkpt lat="42.039052" lon="0.832352">
        <ele>1663.0</ele>
        <time>2015-08-29T09:37:45Z</time>
      </trkpt>
      <trkpt lat="42.039040" lon="0.832460">
        <ele>1661.0</ele>
        <time>2015-08-29T09:37:46Z</time>
      </trkpt>
      <trkpt lat="42.039030" lon="0.832568">
        <ele>1659.0</ele>
        <time>2015-08-29T09:37:47Z</time>
      </trkpt>
      <trkpt lat="42.039018" lon="0.832678">
        <ele>1657.0</ele>
        <time>2015-08-29T09:37:48Z</time>
      </trkpt>
      <trkpt lat="42.039007" lon="0.832788">
        <ele>1655.0</ele>
        <time>2015-08-29T09:37:49Z</time>
      </trkpt>
      <trkpt lat="42.038995" lon="0.832890">
        <ele>1654.0</ele>
        <time>2015-08-29T09:37:50Z</time>
      </trkpt>
      <trkpt lat="42.038980" lon="0.833007">
        <ele>1653.0</ele>
        <time>2015-08-29T09:37:51Z</time>
      </trkpt>
      <trkpt lat="42.038965" lon="0.833127">
        <ele>1651.0</ele>
        <time>2015-08-29T09:37:52Z</time>
      </trkpt>
      <trkpt lat="42.038950" lon="0.833232">
        <ele>1650.0</ele>
        <time>2015-08-29T09:37:53Z</time>
      </trkpt>
      <trkpt lat="42.038935" lon="0.833330">
        <ele>1649.0</ele>
        <time>2015-08-29T09:37:54Z</time>
      </trkpt>
      <trkpt lat="42.038923" lon="0.833425">
        <ele>1648.0</ele>
        <time>2015-08-29T09:37:55Z</time>
      </trkpt>
      <trkpt lat="42.038917" lon="0.833515">
        <ele>1648.0</ele>
        <time>2015-08-29T09:37:56Z</time>
      </trkpt>
      <trkpt lat="42.038910" lon="0.833613">
        <ele>1647.0</ele>
        <time>2015-08-29T09:37:57Z</time>
      </trkpt>
      <trkpt lat="42.038900" lon="0.833720">
        <ele>1646.0</ele>
        <time>2015-08-29T09:37:58Z</time>
      </trkpt>
      <trkpt lat="42.038888" lon="0.833835">
        <ele>1645.0</ele>
        <time>2015-08-29T09:37:59Z</time>
      </trkpt>
      <trkpt lat="42.038875" lon="0.833948">
        <ele>1644.0</ele>
        <time>2015-08-29T09:38:00Z</time>
      </trkpt>
      <trkpt lat="42.038860" lon="0.834058">
        <ele>1644.0</ele>
        <time>2015-08-29T09:38:01Z</time>
      </trkpt>
      <trkpt lat="42.038842" lon="0.834168">
        <ele>1642.0</ele>
        <time>2015-08-29T09:38:02Z</time>
      </trkpt>
      <trkpt lat="42.038820" lon="0.834278">
        <ele>1641.0</ele>
        <time>2015-08-29T09:38:03Z</time>
      </trkpt>
      <trkpt lat="42.038792" lon="0.834383">
        <ele>1640.0</ele>
        <time>2015-08-29T09:38:04Z</time>
      </trkpt>
      <trkpt lat="42.038765" lon="0.834485">
        <ele>1640.0</ele>
        <time>2015-08-29T09:38:05Z</time>
      </trkpt>
      <trkpt lat="42.038745" lon="0.834607">
        <ele>1637.0</ele>
        <time>2015-08-29T09:38:06Z</time>
      </trkpt>
      <trkpt lat="42.038730" lon="0.834717">
        <ele>1637.0</ele>
        <time>2015-08-29T09:38:07Z</time>
      </trkpt>
      <trkpt lat="42.038717" lon="0.834838">
        <ele>1636.0</ele>
        <time>2015-08-29T09:38:08Z</time>
      </trkpt>
      <trkpt lat="42.038700" lon="0.834960">
        <ele>1634.0</ele>
        <time>2015-08-29T09:38:09Z</time>
      </trkpt>
      <trkpt lat="42.038687" lon="0.835075">
        <ele>1632.0</ele>
        <time>2015-08-29T09:38:10Z</time>
      </trkpt>
      <trkpt lat="42.038673" lon="0.835188">
        <ele>1630.0</ele>
        <time>2015-08-29T09:38:11Z</time>
      </trkpt>
      <trkpt lat="42.038658" lon="0.835307">
        <ele>1629.0</ele>
        <time>2015-08-29T09:38:12Z</time>
      </trkpt>
      <trkpt lat="42.038640" lon="0.835423">
        <ele>1628.0</ele>
        <time>2015-08-29T09:38:13Z</time>
      </trkpt>
      <trkpt lat="42.038620" lon="0.835535">
        <ele>1626.0</ele>
        <time>2015-08-29T09:38:14Z</time>
      </trkpt>
      <trkpt lat="42.038597" lon="0.835645">
        <ele>1625.0</ele>
        <time>2015-08-29T09:38:15Z</time>
      </trkpt>
      <trkpt lat="42.038570" lon="0.835753">
        <ele>1623.0</ele>
        <time>2015-08-29T09:38:16Z</time>
      </trkpt>
      <trkpt lat="42.038543" lon="0.835858">
        <ele>1622.0</ele>
        <time>2015-08-29T09:38:17Z</time>
      </trkpt>
      <trkpt lat="42.038520" lon="0.835960">
        <ele>1620.0</ele>
        <time>2015-08-29T09:38:18Z</time>
      </trkpt>
      <trkpt lat="42.038497" lon="0.836058">
        <ele>1618.0</ele>
        <time>2015-08-29T09:38:19Z</time>
      </trkpt>
      <trkpt lat="42.038470" lon="0.836158">
        <ele>1616.0</ele>
        <time>2015-08-29T09:38:20Z</time>
      </trkpt>
      <trkpt lat="42.038440" lon="0.836257">
        <ele>1613.0</ele>
        <time>2015-08-29T09:38:21Z</time>
      </trkpt>
      <trkpt lat="42.038408" lon="0.836345">
        <ele>1612.0</ele>
        <time>2015-08-29T09:38:22Z</time>
      </trkpt>
      <trkpt lat="42.038377" lon="0.836445">
        <ele>1609.0</ele>
        <time>2015-08-29T09:38:23Z</time>
      </trkpt>
      <trkpt lat="42.038355" lon="0.836532">
        <ele>1607.0</ele>
        <time>2015-08-29T09:38:24Z</time>
      </trkpt>
      <trkpt lat="42.038328" lon="0.836627">
        <ele>1605.0</ele>
        <time>2015-08-29T09:38:25Z</time>
      </trkpt>
      <trkpt lat="42.038295" lon="0.836733">
        <ele>1603.0</ele>
        <time>2015-08-29T09:38:26Z</time>
      </trkpt>
      <trkpt lat="42.038262" lon="0.836838">
        <ele>1601.0</ele>
        <time>2015-08-29T09:38:27Z</time>
      </trkpt>
      <trkpt lat="42.038230" lon="0.836950">
        <ele>1598.0</ele>
        <time>2015-08-29T09:38:28Z</time>
      </trkpt>
      <trkpt lat="42.038202" lon="0.837062">
        <ele>1597.0</ele>
        <time>2015-08-29T09:38:29Z</time>
      </trkpt>
      <trkpt lat="42.038182" lon="0.837177">
        <ele>1596.0</ele>
        <time>2015-08-29T09:38:30Z</time>
      </trkpt>
      <trkpt lat="42.038173" lon="0.837293">
        <ele>1594.0</ele>
        <time>2015-08-29T09:38:31Z</time>
      </trkpt>
      <trkpt lat="42.038173" lon="0.837410">
        <ele>1593.0</ele>
        <time>2015-08-29T09:38:32Z</time>
      </trkpt>
      <trkpt lat="42.038170" lon="0.837527">
        <ele>1591.0</ele>
        <time>2015-08-29T09:38:33Z</time>
      </trkpt>
      <trkpt lat="42.038162" lon="0.837638">
        <ele>1589.0</ele>
        <time>2015-08-29T09:38:34Z</time>
      </trkpt>
      <trkpt lat="42.038148" lon="0.837747">
        <ele>1587.0</ele>
        <time>2015-08-29T09:38:35Z</time>
      </trkpt>
      <trkpt lat="42.038140" lon="0.837857">
        <ele>1586.0</ele>
        <time>2015-08-29T09:38:36Z</time>
      </trkpt>
      <trkpt lat="42.038138" lon="0.837968">
        <ele>1585.0</ele>
        <time>2015-08-29T09:38:37Z</time>
      </trkpt>
      <trkpt lat="42.038137" lon="0.838080">
        <ele>1583.0</ele>
        <time>2015-08-29T09:38:38Z</time>
      </trkpt>
      <trkpt lat="42.038128" lon="0.838180">
        <ele>1581.0</ele>
        <time>2015-08-29T09:38:39Z</time>
      </trkpt>
      <trkpt lat="42.038108" lon="0.838292">
        <ele>1580.0</ele>
        <time>2015-08-29T09:38:40Z</time>
      </trkpt>
      <trkpt lat="42.038095" lon="0.838395">
        <ele>1579.0</ele>
        <time>2015-08-29T09:38:41Z</time>
      </trkpt>
      <trkpt lat="42.038090" lon="0.838513">
        <ele>1577.0</ele>
        <time>2015-08-29T09:38:42Z</time>
      </trkpt>
      <trkpt lat="42.038090" lon="0.838637">
        <ele>1575.0</ele>
        <time>2015-08-29T09:38:43Z</time>
      </trkpt>
      <trkpt lat="42.038092" lon="0.838763">
        <ele>1573.0</ele>
        <time>2015-08-29T09:38:44Z</time>
      </trkpt>
      <trkpt lat="42.038087" lon="0.838885">
        <ele>1571.0</ele>
        <time>2015-08-29T09:38:45Z</time>
      </trkpt>
      <trkpt lat="42.038070" lon="0.838998">
        <ele>1569.0</ele>
        <time>2015-08-29T09:38:46Z</time>
      </trkpt>
      <trkpt lat="42.038052" lon="0.839107">
        <ele>1568.0</ele>
        <time>2015-08-29T09:38:47Z</time>
      </trkpt>
      <trkpt lat="42.038032" lon="0.839222">
        <ele>1567.0</ele>
        <time>2015-08-29T09:38:48Z</time>
      </trkpt>
      <trkpt lat="42.038015" lon="0.839342">
        <ele>1566.0</ele>
        <time>2015-08-29T09:38:49Z</time>
      </trkpt>
      <trkpt lat="42.038007" lon="0.839465">
        <ele>1565.0</ele>
        <time>2015-08-29T09:38:50Z</time>
      </trkpt>
      <trkpt lat="42.038000" lon="0.839585">
        <ele>1565.0</ele>
        <time>2015-08-29T09:38:51Z</time>
      </trkpt>
      <trkpt lat="42.037990" lon="0.839702">
        <ele>1563.0</ele>
        <time>2015-08-29T09:38:52Z</time>
      </trkpt>
      <trkpt lat="42.037978" lon="0.839817">
        <ele>1561.0</ele>
        <time>2015-08-29T09:38:53Z</time>
      </trkpt>
      <trkpt lat="42.037963" lon="0.839932">
        <ele>1559.0</ele>
        <time>2015-08-29T09:38:54Z</time>
      </trkpt>
      <trkpt lat="42.037947" lon="0.840047">
        <ele>1558.0</ele>
        <time>2015-08-29T09:38:55Z</time>
      </trkpt>
      <trkpt lat="42.037928" lon="0.840157">
        <ele>1556.0</ele>
        <time>2015-08-29T09:38:56Z</time>
      </trkpt>
      <trkpt lat="42.037908" lon="0.840245">
        <ele>1554.0</ele>
        <time>2015-08-29T09:38:57Z</time>
      </trkpt>
      <trkpt lat="42.037888" lon="0.840323">
        <ele>1554.0</ele>
        <time>2015-08-29T09:38:58Z</time>
      </trkpt>
      <trkpt lat="42.037863" lon="0.840415">
        <ele>1552.0</ele>
        <time>2015-08-29T09:38:59Z</time>
      </trkpt>
      <trkpt lat="42.037845" lon="0.840518">
        <ele>1551.0</ele>
        <time>2015-08-29T09:39:00Z</time>
      </trkpt>
      <trkpt lat="42.037830" lon="0.840630">
        <ele>1549.0</ele>
        <time>2015-08-29T09:39:01Z</time>
      </trkpt>
      <trkpt lat="42.037817" lon="0.840743">
        <ele>1547.0</ele>
        <time>2015-08-29T09:39:02Z</time>
      </trkpt>
      <trkpt lat="42.037805" lon="0.840847">
        <ele>1546.0</ele>
        <time>2015-08-29T09:39:03Z</time>
      </trkpt>
      <trkpt lat="42.037793" lon="0.840938">
        <ele>1546.0</ele>
        <time>2015-08-29T09:39:04Z</time>
      </trkpt>
      <trkpt lat="42.037783" lon="0.841027">
        <ele>1545.0</ele>
        <time>2015-08-29T09:39:05Z</time>
      </trkpt>
      <trkpt lat="42.037777" lon="0.841118">
        <ele>1544.0</ele>
        <time>2015-08-29T09:39:06Z</time>
      </trkpt>
      <trkpt lat="42.037768" lon="0.841218">
        <ele>1543.0</ele>
        <time>2015-08-29T09:39:07Z</time>
      </trkpt>
      <trkpt lat="42.037758" lon="0.841325">
        <ele>1542.0</ele>
        <time>2015-08-29T09:39:08Z</time>
      </trkpt>
      <trkpt lat="42.037747" lon="0.841425">
        <ele>1541.0</ele>
        <time>2015-08-29T09:39:09Z</time>
      </trkpt>
      <trkpt lat="42.037732" lon="0.841518">
        <ele>1541.0</ele>
        <time>2015-08-29T09:39:10Z</time>
      </trkpt>
      <trkpt lat="42.037717" lon="0.841610">
        <ele>1540.0</ele>
        <time>2015-08-29T09:39:11Z</time>
      </trkpt>
      <trkpt lat="42.037702" lon="0.841702">
        <ele>1539.0</ele>
        <time>2015-08-29T09:39:12Z</time>
      </trkpt>
      <trkpt lat="42.037685" lon="0.841798">
        <ele>1536.0</ele>
        <time>2015-08-29T09:39:13Z</time>
      </trkpt>
      <trkpt lat="42.037667" lon="0.841887">
        <ele>1536.0</ele>
        <time>2015-08-29T09:39:14Z</time>
      </trkpt>
      <trkpt lat="42.037645" lon="0.841975">
        <ele>1536.0</ele>
        <time>2015-08-29T09:39:15Z</time>
      </trkpt>
      <trkpt lat="42.037615" lon="0.842075">
        <ele>1535.0</ele>
        <time>2015-08-29T09:39:16Z</time>
      </trkpt>
      <trkpt lat="42.037588" lon="0.842167">
        <ele>1535.0</ele>
        <time>2015-08-29T09:39:17Z</time>
      </trkpt>
      <trkpt lat="42.037567" lon="0.842255">
        <ele>1534.0</ele>
        <time>2015-08-29T09:39:18Z</time>
      </trkpt>
      <trkpt lat="42.037548" lon="0.842345">
        <ele>1533.0</ele>
        <time>2015-08-29T09:39:19Z</time>
      </trkpt>
      <trkpt lat="42.037523" lon="0.842443">
        <ele>1532.0</ele>
        <time>2015-08-29T09:39:20Z</time>
      </trkpt>
      <trkpt lat="42.037502" lon="0.842543">
        <ele>1531.0</ele>
        <time>2015-08-29T09:39:21Z</time>
      </trkpt>
      <trkpt lat="42.037480" lon="0.842643">
        <ele>1530.0</ele>
        <time>2015-08-29T09:39:22Z</time>
      </trkpt>
      <trkpt lat="42.037460" lon="0.842743">
        <ele>1529.0</ele>
        <time>2015-08-29T09:39:23Z</time>
      </trkpt>
      <trkpt lat="42.037438" lon="0.842842">
        <ele>1529.0</ele>
        <time>2015-08-29T09:39:24Z</time>
      </trkpt>
      <trkpt lat="42.037418" lon="0.842938">
        <ele>1528.0</ele>
        <time>2015-08-29T09:39:25Z</time>
      </trkpt>
      <trkpt lat="42.037400" lon="0.843035">
        <ele>1527.0</ele>
        <time>2015-08-29T09:39:26Z</time>
      </trkpt>
      <trkpt lat="42.037380" lon="0.843135">
        <ele>1526.0</ele>
        <time>2015-08-29T09:39:27Z</time>
      </trkpt>
      <trkpt lat="42.037360" lon="0.843235">
        <ele>1525.0</ele>
        <time>2015-08-29T09:39:28Z</time>
      </trkpt>
      <trkpt lat="42.037338" lon="0.843337">
        <ele>1524.0</ele>
        <time>2015-08-29T09:39:29Z</time>
      </trkpt>
      <trkpt lat="42.037320" lon="0.843438">
        <ele>1523.0</ele>
        <time>2015-08-29T09:39:30Z</time>
      </trkpt>
      <trkpt lat="42.037303" lon="0.843538">
        <ele>1522.0</ele>
        <time>2015-08-29T09:39:31Z</time>
      </trkpt>
      <trkpt lat="42.037285" lon="0.843640">
        <ele>1522.0</ele>
        <time>2015-08-29T09:39:32Z</time>
      </trkpt>
      <trkpt lat="42.037263" lon="0.843750">
        <ele>1521.0</ele>
        <time>2015-08-29T09:39:33Z</time>
      </trkpt>
      <trkpt lat="42.037245" lon="0.843857">
        <ele>1520.0</ele>
        <time>2015-08-29T09:39:34Z</time>
      </trkpt>
      <trkpt lat="42.037227" lon="0.843962">
        <ele>1519.0</ele>
        <time>2015-08-29T09:39:35Z</time>
      </trkpt>
      <trkpt lat="42.037213" lon="0.844065">
        <ele>1519.0</ele>
        <time>2015-08-29T09:39:36Z</time>
      </trkpt>
      <trkpt lat="42.037200" lon="0.844167">
        <ele>1518.0</ele>
        <time>2015-08-29T09:39:37Z</time>
      </trkpt>
      <trkpt lat="42.037188" lon="0.844278">
        <ele>1517.0</ele>
        <time>2015-08-29T09:39:38Z</time>
      </trkpt>
      <trkpt lat="42.037175" lon="0.844385">
        <ele>1516.0</ele>
        <time>2015-08-29T09:39:39Z</time>
      </trkpt>
      <trkpt lat="42.037162" lon="0.844492">
        <ele>1515.0</ele>
        <time>2015-08-29T09:39:40Z</time>
      </trkpt>
      <trkpt lat="42.037143" lon="0.844595">
        <ele>1514.0</ele>
        <time>2015-08-29T09:39:41Z</time>
      </trkpt>
      <trkpt lat="42.037123" lon="0.844693">
        <ele>1514.0</ele>
        <time>2015-08-29T09:39:42Z</time>
      </trkpt>
      <trkpt lat="42.037102" lon="0.844793">
        <ele>1512.0</ele>
        <time>2015-08-29T09:39:43Z</time>
      </trkpt>
      <trkpt lat="42.037080" lon="0.844885">
        <ele>1512.0</ele>
        <time>2015-08-29T09:39:44Z</time>
      </trkpt>
      <trkpt lat="42.037057" lon="0.844980">
        <ele>1511.0</ele>
        <time>2015-08-29T09:39:45Z</time>
      </trkpt>
      <trkpt lat="42.037033" lon="0.845073">
        <ele>1510.0</ele>
        <time>2015-08-29T09:39:46Z</time>
      </trkpt>
      <trkpt lat="42.037012" lon="0.845170">
        <ele>1509.0</ele>
        <time>2015-08-29T09:39:47Z</time>
      </trkpt>
      <trkpt lat="42.036997" lon="0.845258">
        <ele>1508.0</ele>
        <time>2015-08-29T09:39:48Z</time>
      </trkpt>
      <trkpt lat="42.036982" lon="0.845352">
        <ele>1508.0</ele>
        <time>2015-08-29T09:39:49Z</time>
      </trkpt>
      <trkpt lat="42.036965" lon="0.845458">
        <ele>1507.0</ele>
        <time>2015-08-29T09:39:50Z</time>
      </trkpt>
      <trkpt lat="42.036950" lon="0.845560">
        <ele>1506.0</ele>
        <time>2015-08-29T09:39:51Z</time>
      </trkpt>
      <trkpt lat="42.036935" lon="0.845655">
        <ele>1505.0</ele>
        <time>2015-08-29T09:39:52Z</time>
      </trkpt>
      <trkpt lat="42.036920" lon="0.845745">
        <ele>1505.0</ele>
        <time>2015-08-29T09:39:53Z</time>
      </trkpt>
      <trkpt lat="42.036905" lon="0.845835">
        <ele>1504.0</ele>
        <time>2015-08-29T09:39:54Z</time>
      </trkpt>
      <trkpt lat="42.036890" lon="0.845932">
        <ele>1503.0</ele>
        <time>2015-08-29T09:39:55Z</time>
      </trkpt>
      <trkpt lat="42.036877" lon="0.846023">
        <ele>1502.0</ele>
        <time>2015-08-29T09:39:56Z</time>
      </trkpt>
      <trkpt lat="42.036862" lon="0.846112">
        <ele>1501.0</ele>
        <time>2015-08-29T09:39:57Z</time>
      </trkpt>
      <trkpt lat="42.036847" lon="0.846198">
        <ele>1501.0</ele>
        <time>2015-08-29T09:39:58Z</time>
      </trkpt>
      <trkpt lat="42.036833" lon="0.846290">
        <ele>1500.0</ele>
        <time>2015-08-29T09:39:59Z</time>
      </trkpt>
      <trkpt lat="42.036822" lon="0.846383">
        <ele>1499.0</ele>
        <time>2015-08-29T09:40:00Z</time>
      </trkpt>
      <trkpt lat="42.036812" lon="0.846475">
        <ele>1498.0</ele>
        <time>2015-08-29T09:40:01Z</time>
      </trkpt>
      <trkpt lat="42.036800" lon="0.846567">
        <ele>1497.0</ele>
        <time>2015-08-29T09:40:02Z</time>
      </trkpt>
      <trkpt lat="42.036787" lon="0.846655">
        <ele>1496.0</ele>
        <time>2015-08-29T09:40:03Z</time>
      </trkpt>
      <trkpt lat="42.036775" lon="0.846742">
        <ele>1495.0</ele>
        <time>2015-08-29T09:40:04Z</time>
      </trkpt>
      <trkpt lat="42.036765" lon="0.846817">
        <ele>1494.0</ele>
        <time>2015-08-29T09:40:05Z</time>
      </trkpt>
      <trkpt lat="42.036748" lon="0.846890">
        <ele>1494.0</ele>
        <time>2015-08-29T09:40:06Z</time>
      </trkpt>
      <trkpt lat="42.036720" lon="0.846972">
        <ele>1492.0</ele>
        <time>2015-08-29T09:40:07Z</time>
      </trkpt>
      <trkpt lat="42.036690" lon="0.847052">
        <ele>1491.0</ele>
        <time>2015-08-29T09:40:08Z</time>
      </trkpt>
      <trkpt lat="42.036663" lon="0.847132">
        <ele>1490.0</ele>
        <time>2015-08-29T09:40:09Z</time>
      </trkpt>
      <trkpt lat="42.036640" lon="0.847207">
        <ele>1489.0</ele>
        <time>2015-08-29T09:40:10Z</time>
      </trkpt>
      <trkpt lat="42.036622" lon="0.847282">
        <ele>1488.0</ele>
        <time>2015-08-29T09:40:11Z</time>
      </trkpt>
      <trkpt lat="42.036603" lon="0.847353">
        <ele>1487.0</ele>
        <time>2015-08-29T09:40:12Z</time>
      </trkpt>
      <trkpt lat="42.036585" lon="0.847428">
        <ele>1486.0</ele>
        <time>2015-08-29T09:40:13Z</time>
      </trkpt>
      <trkpt lat="42.036563" lon="0.847508">
        <ele>1484.0</ele>
        <time>2015-08-29T09:40:14Z</time>
      </trkpt>
      <trkpt lat="42.036543" lon="0.847592">
        <ele>1483.0</ele>
        <time>2015-08-29T09:40:15Z</time>
      </trkpt>
      <trkpt lat="42.036527" lon="0.847673">
        <ele>1482.0</ele>
        <time>2015-08-29T09:40:16Z</time>
      </trkpt>
      <trkpt lat="42.036515" lon="0.847753">
        <ele>1482.0</ele>
        <time>2015-08-29T09:40:17Z</time>
      </trkpt>
      <trkpt lat="42.036505" lon="0.847832">
        <ele>1480.0</ele>
        <time>2015-08-29T09:40:18Z</time>
      </trkpt>
      <trkpt lat="42.036497" lon="0.847913">
        <ele>1479.0</ele>
        <time>2015-08-29T09:40:19Z</time>
      </trkpt>
      <trkpt lat="42.036485" lon="0.848002">
        <ele>1478.0</ele>
        <time>2015-08-29T09:40:20Z</time>
      </trkpt>
      <trkpt lat="42.036472" lon="0.848097">
        <ele>1476.0</ele>
        <time>2015-08-29T09:40:21Z</time>
      </trkpt>
      <trkpt lat="42.036468" lon="0.848183">
        <ele>1475.0</ele>
        <time>2015-08-29T09:40:22Z</time>
      </trkpt>
      <trkpt lat="42.036467" lon="0.848272">
        <ele>1474.0</ele>
        <time>2015-08-29T09:40:23Z</time>
      </trkpt>
      <trkpt lat="42.036462" lon="0.848373">
        <ele>1473.0</ele>
        <time>2015-08-29T09:40:24Z</time>
      </trkpt>
      <trkpt lat="42.036458" lon="0.848472">
        <ele>1471.0</ele>
        <time>2015-08-29T09:40:25Z</time>
      </trkpt>
      <trkpt lat="42.036452" lon="0.848567">
        <ele>1469.0</ele>
        <time>2015-08-29T09:40:26Z</time>
      </trkpt>
      <trkpt lat="42.036447" lon="0.848662">
        <ele>1467.0</ele>
        <time>2015-08-29T09:40:27Z</time>
      </trkpt>
      <trkpt lat="42.036438" lon="0.848758">
        <ele>1465.0</ele>
        <time>2015-08-29T09:40:28Z</time>
      </trkpt>
      <trkpt lat="42.036423" lon="0.848853">
        <ele>1465.0</ele>
        <time>2015-08-29T09:40:29Z</time>
      </trkpt>
      <trkpt lat="42.036410" lon="0.848947">
        <ele>1464.0</ele>
        <time>2015-08-29T09:40:30Z</time>
      </trkpt>
      <trkpt lat="42.036397" lon="0.849033">
        <ele>1462.0</ele>
        <time>2015-08-29T09:40:31Z</time>
      </trkpt>
      <trkpt lat="42.036382" lon="0.849118">
        <ele>1461.0</ele>
        <time>2015-08-29T09:40:32Z</time>
      </trkpt>
      <trkpt lat="42.036367" lon="0.849203">
        <ele>1459.0</ele>
        <time>2015-08-29T09:40:33Z</time>
      </trkpt>
      <trkpt lat="42.036353" lon="0.849292">
        <ele>1457.0</ele>
        <time>2015-08-29T09:40:34Z</time>
      </trkpt>
      <trkpt lat="42.036340" lon="0.849380">
        <ele>1456.0</ele>
        <time>2015-08-29T09:40:35Z</time>
      </trkpt>
      <trkpt lat="42.036327" lon="0.849467">
        <ele>1454.0</ele>
        <time>2015-08-29T09:40:36Z</time>
      </trkpt>
      <trkpt lat="42.036315" lon="0.849553">
        <ele>1453.0</ele>
        <time>2015-08-29T09:40:37Z</time>
      </trkpt>
      <trkpt lat="42.036307" lon="0.849640">
        <ele>1451.0</ele>
        <time>2015-08-29T09:40:38Z</time>
      </trkpt>
      <trkpt lat="42.036300" lon="0.849723">
        <ele>1449.0</ele>
        <time>2015-08-29T09:40:39Z</time>
      </trkpt>
      <trkpt lat="42.036288" lon="0.849812">
        <ele>1448.0</ele>
        <time>2015-08-29T09:40:40Z</time>
      </trkpt>
      <trkpt lat="42.036277" lon="0.849905">
        <ele>1447.0</ele>
        <time>2015-08-29T09:40:41Z</time>
      </trkpt>
      <trkpt lat="42.036267" lon="0.849995">
        <ele>1445.0</ele>
        <time>2015-08-29T09:40:42Z</time>
      </trkpt>
      <trkpt lat="42.036258" lon="0.850080">
        <ele>1444.0</ele>
        <time>2015-08-29T09:40:43Z</time>
      </trkpt>
      <trkpt lat="42.036257" lon="0.850163">
        <ele>1442.0</ele>
        <time>2015-08-29T09:40:44Z</time>
      </trkpt>
      <trkpt lat="42.036255" lon="0.850250">
        <ele>1440.0</ele>
        <time>2015-08-29T09:40:45Z</time>
      </trkpt>
      <trkpt lat="42.036252" lon="0.850340">
        <ele>1436.0</ele>
        <time>2015-08-29T09:40:46Z</time>
      </trkpt>
      <trkpt lat="42.036248" lon="0.850430">
        <ele>1434.0</ele>
        <time>2015-08-29T09:40:47Z</time>
      </trkpt>
      <trkpt lat="42.036248" lon="0.850518">
        <ele>1432.0</ele>
        <time>2015-08-29T09:40:48Z</time>
      </trkpt>
      <trkpt lat="42.036250" lon="0.850600">
        <ele>1430.0</ele>
        <time>2015-08-29T09:40:49Z</time>
      </trkpt>
      <trkpt lat="42.036247" lon="0.850677">
        <ele>1428.0</ele>
        <time>2015-08-29T09:40:50Z</time>
      </trkpt>
      <trkpt lat="42.036235" lon="0.850745">
        <ele>1428.0</ele>
        <time>2015-08-29T09:40:51Z</time>
      </trkpt>
      <trkpt lat="42.036218" lon="0.850810">
        <ele>1427.0</ele>
        <time>2015-08-29T09:40:52Z</time>
      </trkpt>
      <trkpt lat="42.036203" lon="0.850873">
        <ele>1426.0</ele>
        <time>2015-08-29T09:40:53Z</time>
      </trkpt>
      <trkpt lat="42.036190" lon="0.850940">
        <ele>1425.0</ele>
        <time>2015-08-29T09:40:54Z</time>
      </trkpt>
      <trkpt lat="42.036177" lon="0.851025">
        <ele>1424.0</ele>
        <time>2015-08-29T09:40:55Z</time>
      </trkpt>
      <trkpt lat="42.036155" lon="0.851118">
        <ele>1424.0</ele>
        <time>2015-08-29T09:40:56Z</time>
      </trkpt>
      <trkpt lat="42.036128" lon="0.851220">
        <ele>1425.0</ele>
        <time>2015-08-29T09:40:57Z</time>
      </trkpt>
      <trkpt lat="42.036102" lon="0.851295">
        <ele>1427.0</ele>
        <time>2015-08-29T09:40:58Z</time>
      </trkpt>
      <trkpt lat="42.036087" lon="0.851342">
        <ele>1429.0</ele>
        <time>2015-08-29T09:40:59Z</time>
      </trkpt>
      <trkpt lat="42.036085" lon="0.851423">
        <ele>1432.0</ele>
        <time>2015-08-29T09:41:01Z</time>
      </trkpt>
      <trkpt lat="42.036082" lon="0.851475">
        <ele>1434.0</ele>
        <time>2015-08-29T09:41:02Z</time>
      </trkpt>
      <trkpt lat="42.036075" lon="0.851535">
        <ele>1434.0</ele>
        <time>2015-08-29T09:41:03Z</time>
      </trkpt>
      <trkpt lat="42.036067" lon="0.851587">
        <ele>1435.0</ele>
        <time>2015-08-29T09:41:04Z</time>
      </trkpt>
      <trkpt lat="42.036052" lon="0.851637">
        <ele>1437.0</ele>
        <time>2015-08-29T09:41:05Z</time>
      </trkpt>
      <trkpt lat="42.036035" lon="0.851688">
        <ele>1437.0</ele>
        <time>2015-08-29T09:41:06Z</time>
      </trkpt>
      <trkpt lat="42.036015" lon="0.851750">
        <ele>1438.0</ele>
        <time>2015-08-29T09:41:07Z</time>
      </trkpt>
      <trkpt lat="42.035995" lon="0.851808">
        <ele>1438.0</ele>
        <time>2015-08-29T09:41:08Z</time>
      </trkpt>
      <trkpt lat="42.035972" lon="0.851865">
        <ele>1438.0</ele>
        <time>2015-08-29T09:41:09Z</time>
      </trkpt>
      <trkpt lat="42.035955" lon="0.851918">
        <ele>1437.0</ele>
        <time>2015-08-29T09:41:10Z</time>
      </trkpt>
      <trkpt lat="42.035945" lon="0.851977">
        <ele>1437.0</ele>
        <time>2015-08-29T09:41:11Z</time>
      </trkpt>
      <trkpt lat="42.035942" lon="0.852050">
        <ele>1437.0</ele>
        <time>2015-08-29T09:41:12Z</time>
      </trkpt>
      <trkpt lat="42.035940" lon="0.852128">
        <ele>1438.0</ele>
        <time>2015-08-29T09:41:13Z</time>
      </trkpt>
      <trkpt lat="42.035940" lon="0.852220">
        <ele>1437.0</ele>
        <time>2015-08-29T09:41:14Z</time>
      </trkpt>
      <trkpt lat="42.035933" lon="0.852327">
        <ele>1436.0</ele>
        <time>2015-08-29T09:41:15Z</time>
      </trkpt>
      <trkpt lat="42.035922" lon="0.852423">
        <ele>1435.0</ele>
        <time>2015-08-29T09:41:16Z</time>
      </trkpt>
      <trkpt lat="42.035915" lon="0.852508">
        <ele>1435.0</ele>
        <time>2015-08-29T09:41:17Z</time>
      </trkpt>
      <trkpt lat="42.035907" lon="0.852577">
        <ele>1434.0</ele>
        <time>2015-08-29T09:41:18Z</time>
      </trkpt>
      <trkpt lat="42.035900" lon="0.852643">
        <ele>1433.0</ele>
        <time>2015-08-29T09:41:19Z</time>
      </trkpt>
      <trkpt lat="42.035893" lon="0.852728">
        <ele>1432.0</ele>
        <time>2015-08-29T09:41:20Z</time>
      </trkpt>
      <trkpt lat="42.035897" lon="0.852843">
        <ele>1431.0</ele>
        <time>2015-08-29T09:41:21Z</time>
      </trkpt>
      <trkpt lat="42.035902" lon="0.852955">
        <ele>1431.0</ele>
        <time>2015-08-29T09:41:22Z</time>
      </trkpt>
      <trkpt lat="42.035907" lon="0.853050">
        <ele>1431.0</ele>
        <time>2015-08-29T09:41:23Z</time>
      </trkpt>
      <trkpt lat="42.035883" lon="0.853110">
        <ele>1430.0</ele>
        <time>2015-08-29T09:41:25Z</time>
      </trkpt>
      <trkpt lat="42.035827" lon="0.853220">
        <ele>1428.0</ele>
        <time>2015-08-29T09:41:27Z</time>
      </trkpt>
      <trkpt lat="42.035802" lon="0.853322">
        <ele>1428.0</ele>
        <time>2015-08-29T09:41:28Z</time>
      </trkpt>
      <trkpt lat="42.035788" lon="0.853428">
        <ele>1427.0</ele>
        <time>2015-08-29T09:41:29Z</time>
      </trkpt>
      <trkpt lat="42.035783" lon="0.853508">
        <ele>1429.0</ele>
        <time>2015-08-29T09:41:30Z</time>
      </trkpt>
      <trkpt lat="42.035773" lon="0.853587">
        <ele>1430.0</ele>
        <time>2015-08-29T09:41:31Z</time>
      </trkpt>
      <trkpt lat="42.035762" lon="0.853680">
        <ele>1431.0</ele>
        <time>2015-08-29T09:41:32Z</time>
      </trkpt>
      <trkpt lat="42.035752" lon="0.853773">
        <ele>1433.0</ele>
        <time>2015-08-29T09:41:33Z</time>
      </trkpt>
      <trkpt lat="42.035747" lon="0.853863">
        <ele>1434.0</ele>
        <time>2015-08-29T09:41:34Z</time>
      </trkpt>
      <trkpt lat="42.035752" lon="0.853940">
        <ele>1436.0</ele>
        <time>2015-08-29T09:41:35Z</time>
      </trkpt>
      <trkpt lat="42.035760" lon="0.854005">
        <ele>1438.0</ele>
        <time>2015-08-29T09:41:36Z</time>
      </trkpt>
      <trkpt lat="42.035765" lon="0.854068">
        <ele>1439.0</ele>
        <time>2015-08-29T09:41:37Z</time>
      </trkpt>
      <trkpt lat="42.035763" lon="0.854132">
        <ele>1440.0</ele>
        <time>2015-08-29T09:41:38Z</time>
      </trkpt>
      <trkpt lat="42.035757" lon="0.854198">
        <ele>1440.0</ele>
        <time>2015-08-29T09:41:39Z</time>
      </trkpt>
      <trkpt lat="42.035733" lon="0.854250">
        <ele>1438.0</ele>
        <time>2015-08-29T09:41:40Z</time>
      </trkpt>
      <trkpt lat="42.035700" lon="0.854283">
        <ele>1438.0</ele>
        <time>2015-08-29T09:41:41Z</time>
      </trkpt>
      <trkpt lat="42.035662" lon="0.854308">
        <ele>1438.0</ele>
        <time>2015-08-29T09:41:42Z</time>
      </trkpt>
      <trkpt lat="42.035625" lon="0.854337">
        <ele>1438.0</ele>
        <time>2015-08-29T09:41:43Z</time>
      </trkpt>
      <trkpt lat="42.035593" lon="0.854373">
        <ele>1438.0</ele>
        <time>2015-08-29T09:41:44Z</time>
      </trkpt>
      <trkpt lat="42.035565" lon="0.854425">
        <ele>1439.0</ele>
        <time>2015-08-29T09:41:45Z</time>
      </trkpt>
      <trkpt lat="42.035537" lon="0.854497">
        <ele>1436.0</ele>
        <time>2015-08-29T09:41:46Z</time>
      </trkpt>
      <trkpt lat="42.035520" lon="0.854567">
        <ele>1436.0</ele>
        <time>2015-08-29T09:41:47Z</time>
      </trkpt>
      <trkpt lat="42.035507" lon="0.854643">
        <ele>1437.0</ele>
        <time>2015-08-29T09:41:48Z</time>
      </trkpt>
      <trkpt lat="42.035497" lon="0.854742">
        <ele>1437.0</ele>
        <time>2015-08-29T09:41:49Z</time>
      </trkpt>
      <trkpt lat="42.035487" lon="0.854842">
        <ele>1437.0</ele>
        <time>2015-08-29T09:41:50Z</time>
      </trkpt>
      <trkpt lat="42.035480" lon="0.854935">
        <ele>1438.0</ele>
        <time>2015-08-29T09:41:51Z</time>
      </trkpt>
      <trkpt lat="42.035662" lon="0.854308">
        <ele>1438.0</ele>
        <time>2015-08-29T09:41:42Z</time>
      </trkpt>
      <trkpt lat="42.035625" lon="0.854337">
        <ele>1438.0</ele>
        <time>2015-08-29T09:41:43Z</time>
      </trkpt>
      <trkpt lat="42.035593" lon="0.854373">
        <ele>1438.0</ele>
        <time>2015-08-29T09:41:44Z</time>
      </trkpt>
      <trkpt lat="42.035565" lon="0.854425">
        <ele>1439.0</ele>
        <time>2015-08-29T09:41:45Z</time>
      </trkpt>
      <trkpt lat="42.035537" lon="0.854497">
        <ele>1436.0</ele>
        <time>2015-08-29T09:41:46Z</time>
      </trkpt>
      <trkpt lat="42.035520" lon="0.854567">
        <ele>1436.0</ele>
        <time>2015-08-29T09:41:47Z</time>
      </trkpt>
      <trkpt lat="42.035507" lon="0.854643">
        <ele>1437.0</ele>
        <time>2015-08-29T09:41:48Z</time>
      </trkpt>
      <trkpt lat="42.035497" lon="0.854742">
        <ele>1437.0</ele>
        <time>2015-08-29T09:41:49Z</time>
      </trkpt>
      <trkpt lat="42.035487" lon="0.854842">
        <ele>1437.0</ele>
        <time>2015-08-29T09:41:50Z</time>
      </trkpt>
      <trkpt lat="42.035480" lon="0.854935">
        <ele>1438.0</ele>
        <time>2015-08-29T09:41:51Z</time>
      </trkpt>
      <trkpt lat="42.035483" lon="0.855027">
        <ele>1438.0</ele>
        <time>2015-08-29T09:41:52Z</time>
      </trkpt>
      <trkpt lat="42.035490" lon="0.855120">
        <ele>1438.0</ele>
        <time>2015-08-29T09:41:53Z</time>
      </trkpt>
      <trkpt lat="42.035502" lon="0.855220">
        <ele>1438.0</ele>
        <time>2015-08-29T09:41:54Z</time>
      </trkpt>
      <trkpt lat="42.035508" lon="0.855325">
        <ele>1438.0</ele>
        <time>2015-08-29T09:41:55Z</time>
      </trkpt>
      <trkpt lat="42.035510" lon="0.855437">
        <ele>1438.0</ele>
        <time>2015-08-29T09:41:56Z</time>
      </trkpt>
      <trkpt lat="42.035508" lon="0.855552">
        <ele>1437.0</ele>
        <time>2015-08-29T09:41:57Z</time>
      </trkpt>
      <trkpt lat="42.035507" lon="0.855663">
        <ele>1437.0</ele>
        <time>2015-08-29T09:41:58Z</time>
      </trkpt>
      <trkpt lat="42.035508" lon="0.855770">
        <ele>1437.0</ele>
        <time>2015-08-29T09:41:59Z</time>
      </trkpt>
      <trkpt lat="42.035508" lon="0.855872">
        <ele>1437.0</ele>
        <time>2015-08-29T09:42:00Z</time>
      </trkpt>
      <trkpt lat="42.035507" lon="0.855973">
        <ele>1436.0</ele>
        <time>2015-08-29T09:42:01Z</time>
      </trkpt>
      <trkpt lat="42.035502" lon="0.856073">
        <ele>1435.0</ele>
        <time>2015-08-29T09:42:02Z</time>
      </trkpt>
      <trkpt lat="42.035498" lon="0.856177">
        <ele>1434.0</ele>
        <time>2015-08-29T09:42:03Z</time>
      </trkpt>
      <trkpt lat="42.035495" lon="0.856268">
        <ele>1435.0</ele>
        <time>2015-08-29T09:42:04Z</time>
      </trkpt>
      <trkpt lat="42.035492" lon="0.856367">
        <ele>1435.0</ele>
        <time>2015-08-29T09:42:05Z</time>
      </trkpt>
      <trkpt lat="42.035490" lon="0.856473">
        <ele>1433.0</ele>
        <time>2015-08-29T09:42:06Z</time>
      </trkpt>
      <trkpt lat="42.035483" lon="0.856570">
        <ele>1431.0</ele>
        <time>2015-08-29T09:42:07Z</time>
      </trkpt>
      <trkpt lat="42.035475" lon="0.856665">
        <ele>1430.0</ele>
        <time>2015-08-29T09:42:08Z</time>
      </trkpt>
      <trkpt lat="42.035470" lon="0.856760">
        <ele>1429.0</ele>
        <time>2015-08-29T09:42:09Z</time>
      </trkpt>
      <trkpt lat="42.035472" lon="0.856858">
        <ele>1429.0</ele>
        <time>2015-08-29T09:42:10Z</time>
      </trkpt>
      <trkpt lat="42.035475" lon="0.856952">
        <ele>1429.0</ele>
        <time>2015-08-29T09:42:11Z</time>
      </trkpt>
      <trkpt lat="42.035478" lon="0.857047">
        <ele>1429.0</ele>
        <time>2015-08-29T09:42:12Z</time>
      </trkpt>
      <trkpt lat="42.035482" lon="0.857145">
        <ele>1428.0</ele>
        <time>2015-08-29T09:42:13Z</time>
      </trkpt>
      <trkpt lat="42.035485" lon="0.857247">
        <ele>1428.0</ele>
        <time>2015-08-29T09:42:14Z</time>
      </trkpt>
      <trkpt lat="42.035490" lon="0.857352">
        <ele>1428.0</ele>
        <time>2015-08-29T09:42:15Z</time>
      </trkpt>
      <trkpt lat="42.035493" lon="0.857458">
        <ele>1428.0</ele>
        <time>2015-08-29T09:42:16Z</time>
      </trkpt>
      <trkpt lat="42.035493" lon="0.857560">
        <ele>1427.0</ele>
        <time>2015-08-29T09:42:17Z</time>
      </trkpt>
      <trkpt lat="42.035490" lon="0.857660">
        <ele>1426.0</ele>
        <time>2015-08-29T09:42:18Z</time>
      </trkpt>
      <trkpt lat="42.035483" lon="0.857762">
        <ele>1425.0</ele>
        <time>2015-08-29T09:42:19Z</time>
      </trkpt>
      <trkpt lat="42.035477" lon="0.857870">
        <ele>1425.0</ele>
        <time>2015-08-29T09:42:20Z</time>
      </trkpt>
      <trkpt lat="42.035467" lon="0.857968">
        <ele>1426.0</ele>
        <time>2015-08-29T09:42:21Z</time>
      </trkpt>
      <trkpt lat="42.035460" lon="0.858078">
        <ele>1425.0</ele>
        <time>2015-08-29T09:42:22Z</time>
      </trkpt>
      <trkpt lat="42.035453" lon="0.858192">
        <ele>1423.0</ele>
        <time>2015-08-29T09:42:23Z</time>
      </trkpt>
      <trkpt lat="42.035448" lon="0.858295">
        <ele>1421.0</ele>
        <time>2015-08-29T09:42:24Z</time>
      </trkpt>
      <trkpt lat="42.035443" lon="0.858398">
        <ele>1420.0</ele>
        <time>2015-08-29T09:42:25Z</time>
      </trkpt>
      <trkpt lat="42.035443" lon="0.858502">
        <ele>1419.0</ele>
        <time>2015-08-29T09:42:26Z</time>
      </trkpt>
      <trkpt lat="42.035452" lon="0.858610">
        <ele>1419.0</ele>
        <time>2015-08-29T09:42:27Z</time>
      </trkpt>
      <trkpt lat="42.035470" lon="0.858717">
        <ele>1418.0</ele>
        <time>2015-08-29T09:42:28Z</time>
      </trkpt>
      <trkpt lat="42.035492" lon="0.858823">
        <ele>1417.0</ele>
        <time>2015-08-29T09:42:29Z</time>
      </trkpt>
      <trkpt lat="42.035513" lon="0.858932">
        <ele>1416.0</ele>
        <time>2015-08-29T09:42:30Z</time>
      </trkpt>
      <trkpt lat="42.035532" lon="0.859042">
        <ele>1415.0</ele>
        <time>2015-08-29T09:42:31Z</time>
      </trkpt>
      <trkpt lat="42.035548" lon="0.859155">
        <ele>1414.0</ele>
        <time>2015-08-29T09:42:32Z</time>
      </trkpt>
      <trkpt lat="42.035563" lon="0.859270">
        <ele>1413.0</ele>
        <time>2015-08-29T09:42:33Z</time>
      </trkpt>
      <trkpt lat="42.035578" lon="0.859380">
        <ele>1413.0</ele>
        <time>2015-08-29T09:42:34Z</time>
      </trkpt>
      <trkpt lat="42.035592" lon="0.859485">
        <ele>1412.0</ele>
        <time>2015-08-29T09:42:35Z</time>
      </trkpt>
      <trkpt lat="42.035603" lon="0.859588">
        <ele>1412.0</ele>
        <time>2015-08-29T09:42:36Z</time>
      </trkpt>
      <trkpt lat="42.035613" lon="0.859690">
        <ele>1411.0</ele>
        <time>2015-08-29T09:42:37Z</time>
      </trkpt>
      <trkpt lat="42.035622" lon="0.859788">
        <ele>1411.0</ele>
        <time>2015-08-29T09:42:38Z</time>
      </trkpt>
      <trkpt lat="42.035633" lon="0.859910">
        <ele>1409.0</ele>
        <time>2015-08-29T09:42:39Z</time>
      </trkpt>
      <trkpt lat="42.035642" lon="0.860027">
        <ele>1408.0</ele>
        <time>2015-08-29T09:42:40Z</time>
      </trkpt>
      <trkpt lat="42.035648" lon="0.860133">
        <ele>1408.0</ele>
        <time>2015-08-29T09:42:41Z</time>
      </trkpt>
      <trkpt lat="42.035655" lon="0.860235">
        <ele>1408.0</ele>
        <time>2015-08-29T09:42:42Z</time>
      </trkpt>
      <trkpt lat="42.035662" lon="0.860332">
        <ele>1407.0</ele>
        <time>2015-08-29T09:42:43Z</time>
      </trkpt>
      <trkpt lat="42.035667" lon="0.860430">
        <ele>1407.0</ele>
        <time>2015-08-29T09:42:44Z</time>
      </trkpt>
      <trkpt lat="42.035672" lon="0.860532">
        <ele>1406.0</ele>
        <time>2015-08-29T09:42:45Z</time>
      </trkpt>
      <trkpt lat="42.035673" lon="0.860635">
        <ele>1405.0</ele>
        <time>2015-08-29T09:42:46Z</time>
      </trkpt>
      <trkpt lat="42.035672" lon="0.860735">
        <ele>1404.0</ele>
        <time>2015-08-29T09:42:47Z</time>
      </trkpt>
      <trkpt lat="42.035673" lon="0.860835">
        <ele>1403.0</ele>
        <time>2015-08-29T09:42:48Z</time>
      </trkpt>
      <trkpt lat="42.035678" lon="0.860932">
        <ele>1403.0</ele>
        <time>2015-08-29T09:42:49Z</time>
      </trkpt>
      <trkpt lat="42.035685" lon="0.861028">
        <ele>1402.0</ele>
        <time>2015-08-29T09:42:50Z</time>
      </trkpt>
      <trkpt lat="42.035692" lon="0.861125">
        <ele>1400.0</ele>
        <time>2015-08-29T09:42:51Z</time>
      </trkpt>
      <trkpt lat="42.035700" lon="0.861222">
        <ele>1399.0</ele>
        <time>2015-08-29T09:42:52Z</time>
      </trkpt>
      <trkpt lat="42.035708" lon="0.861318">
        <ele>1398.0</ele>
        <time>2015-08-29T09:42:53Z</time>
      </trkpt>
      <trkpt lat="42.035717" lon="0.861422">
        <ele>1396.0</ele>
        <time>2015-08-29T09:42:54Z</time>
      </trkpt>
      <trkpt lat="42.035722" lon="0.861518">
        <ele>1396.0</ele>
        <time>2015-08-29T09:42:55Z</time>
      </trkpt>
      <trkpt lat="42.035725" lon="0.861630">
        <ele>1394.0</ele>
        <time>2015-08-29T09:42:56Z</time>
      </trkpt>
      <trkpt lat="42.035725" lon="0.861728">
        <ele>1392.0</ele>
        <time>2015-08-29T09:42:57Z</time>
      </trkpt>
      <trkpt lat="42.035722" lon="0.861813">
        <ele>1391.0</ele>
        <time>2015-08-29T09:42:58Z</time>
      </trkpt>
      <trkpt lat="42.035718" lon="0.861895">
        <ele>1389.0</ele>
        <time>2015-08-29T09:42:59Z</time>
      </trkpt>
      <trkpt lat="42.035717" lon="0.861983">
        <ele>1388.0</ele>
        <time>2015-08-29T09:43:00Z</time>
      </trkpt>
      <trkpt lat="42.035718" lon="0.862082">
        <ele>1387.0</ele>
        <time>2015-08-29T09:43:01Z</time>
      </trkpt>
      <trkpt lat="42.035728" lon="0.862182">
        <ele>1387.0</ele>
        <time>2015-08-29T09:43:02Z</time>
      </trkpt>
      <trkpt lat="42.035738" lon="0.862273">
        <ele>1387.0</ele>
        <time>2015-08-29T09:43:03Z</time>
      </trkpt>
      <trkpt lat="42.035745" lon="0.862357">
        <ele>1387.0</ele>
        <time>2015-08-29T09:43:04Z</time>
      </trkpt>
      <trkpt lat="42.035750" lon="0.862435">
        <ele>1385.0</ele>
        <time>2015-08-29T09:43:05Z</time>
      </trkpt>
      <trkpt lat="42.035752" lon="0.862518">
        <ele>1384.0</ele>
        <time>2015-08-29T09:43:06Z</time>
      </trkpt>
      <trkpt lat="42.035750" lon="0.862612">
        <ele>1383.0</ele>
        <time>2015-08-29T09:43:07Z</time>
      </trkpt>
      <trkpt lat="42.035750" lon="0.862717">
        <ele>1382.0</ele>
        <time>2015-08-29T09:43:08Z</time>
      </trkpt>
      <trkpt lat="42.035748" lon="0.862825">
        <ele>1381.0</ele>
        <time>2015-08-29T09:43:09Z</time>
      </trkpt>
      <trkpt lat="42.035747" lon="0.862925">
        <ele>1380.0</ele>
        <time>2015-08-29T09:43:10Z</time>
      </trkpt>
      <trkpt lat="42.035748" lon="0.863010">
        <ele>1379.0</ele>
        <time>2015-08-29T09:43:11Z</time>
      </trkpt>
      <trkpt lat="42.035750" lon="0.863095">
        <ele>1379.0</ele>
        <time>2015-08-29T09:43:12Z</time>
      </trkpt>
      <trkpt lat="42.035747" lon="0.863205">
        <ele>1378.0</ele>
        <time>2015-08-29T09:43:13Z</time>
      </trkpt>
      <trkpt lat="42.035745" lon="0.863320">
        <ele>1376.0</ele>
        <time>2015-08-29T09:43:14Z</time>
      </trkpt>
      <trkpt lat="42.035747" lon="0.863432">
        <ele>1376.0</ele>
        <time>2015-08-29T09:43:15Z</time>
      </trkpt>
      <trkpt lat="42.035748" lon="0.863533">
        <ele>1376.0</ele>
        <time>2015-08-29T09:43:16Z</time>
      </trkpt>
      <trkpt lat="42.035753" lon="0.863623">
        <ele>1376.0</ele>
        <time>2015-08-29T09:43:17Z</time>
      </trkpt>
      <trkpt lat="42.035755" lon="0.863710">
        <ele>1376.0</ele>
        <time>2015-08-29T09:43:18Z</time>
      </trkpt>
      <trkpt lat="42.035755" lon="0.863792">
        <ele>1376.0</ele>
        <time>2015-08-29T09:43:19Z</time>
      </trkpt>
      <trkpt lat="42.035755" lon="0.863882">
        <ele>1377.0</ele>
        <time>2015-08-29T09:43:20Z</time>
      </trkpt>
      <trkpt lat="42.035762" lon="0.863995">
        <ele>1376.0</ele>
        <time>2015-08-29T09:43:21Z</time>
      </trkpt>
      <trkpt lat="42.035768" lon="0.864113">
        <ele>1377.0</ele>
        <time>2015-08-29T09:43:22Z</time>
      </trkpt>
      <trkpt lat="42.035777" lon="0.864225">
        <ele>1377.0</ele>
        <time>2015-08-29T09:43:23Z</time>
      </trkpt>
      <trkpt lat="42.035787" lon="0.864327">
        <ele>1378.0</ele>
        <time>2015-08-29T09:43:24Z</time>
      </trkpt>
      <trkpt lat="42.035792" lon="0.864423">
        <ele>1378.0</ele>
        <time>2015-08-29T09:43:25Z</time>
      </trkpt>
      <trkpt lat="42.035790" lon="0.864515">
        <ele>1378.0</ele>
        <time>2015-08-29T09:43:26Z</time>
      </trkpt>
      <trkpt lat="42.035792" lon="0.864622">
        <ele>1377.0</ele>
        <time>2015-08-29T09:43:27Z</time>
      </trkpt>
      <trkpt lat="42.035797" lon="0.864720">
        <ele>1378.0</ele>
        <time>2015-08-29T09:43:28Z</time>
      </trkpt>
      <trkpt lat="42.035807" lon="0.864823">
        <ele>1379.0</ele>
        <time>2015-08-29T09:43:29Z</time>
      </trkpt>
      <trkpt lat="42.035812" lon="0.864940">
        <ele>1378.0</ele>
        <time>2015-08-29T09:43:30Z</time>
      </trkpt>
      <trkpt lat="42.035813" lon="0.865053">
        <ele>1376.0</ele>
        <time>2015-08-29T09:43:31Z</time>
      </trkpt>
      <trkpt lat="42.035810" lon="0.865163">
        <ele>1374.0</ele>
        <time>2015-08-29T09:43:32Z</time>
      </trkpt>
      <trkpt lat="42.035807" lon="0.865268">
        <ele>1373.0</ele>
        <time>2015-08-29T09:43:33Z</time>
      </trkpt>
      <trkpt lat="42.035795" lon="0.865362">
        <ele>1372.0</ele>
        <time>2015-08-29T09:43:34Z</time>
      </trkpt>
      <trkpt lat="42.035773" lon="0.865438">
        <ele>1372.0</ele>
        <time>2015-08-29T09:43:35Z</time>
      </trkpt>
      <trkpt lat="42.035742" lon="0.865505">
        <ele>1372.0</ele>
        <time>2015-08-29T09:43:36Z</time>
      </trkpt>
      <trkpt lat="42.035705" lon="0.865573">
        <ele>1370.0</ele>
        <time>2015-08-29T09:43:37Z</time>
      </trkpt>
      <trkpt lat="42.035660" lon="0.865645">
        <ele>1370.0</ele>
        <time>2015-08-29T09:43:38Z</time>
      </trkpt>
      <trkpt lat="42.035618" lon="0.865718">
        <ele>1369.0</ele>
        <time>2015-08-29T09:43:39Z</time>
      </trkpt>
      <trkpt lat="42.035578" lon="0.865785">
        <ele>1367.0</ele>
        <time>2015-08-29T09:43:40Z</time>
      </trkpt>
      <trkpt lat="42.035520" lon="0.865813">
        <ele>1366.0</ele>
        <time>2015-08-29T09:43:41Z</time>
      </trkpt>
      <trkpt lat="42.035462" lon="0.865815">
        <ele>1365.0</ele>
        <time>2015-08-29T09:43:42Z</time>
      </trkpt>
      <trkpt lat="42.035407" lon="0.865808">
        <ele>1364.0</ele>
        <time>2015-08-29T09:43:43Z</time>
      </trkpt>
      <trkpt lat="42.035355" lon="0.865812">
        <ele>1362.0</ele>
        <time>2015-08-29T09:43:44Z</time>
      </trkpt>
      <trkpt lat="42.035288" lon="0.865790">
        <ele>1361.0</ele>
        <time>2015-08-29T09:43:46Z</time>
      </trkpt>
      <trkpt lat="42.035260" lon="0.865712">
        <ele>1358.0</ele>
        <time>2015-08-29T09:43:47Z</time>
      </trkpt>
      <trkpt lat="42.035252" lon="0.865613">
        <ele>1356.0</ele>
        <time>2015-08-29T09:43:48Z</time>
      </trkpt>
      <trkpt lat="42.035273" lon="0.865527">
        <ele>1355.0</ele>
        <time>2015-08-29T09:43:49Z</time>
      </trkpt>
      <trkpt lat="42.035317" lon="0.865447">
        <ele>1354.0</ele>
        <time>2015-08-29T09:43:50Z</time>
      </trkpt>
      <trkpt lat="42.035368" lon="0.865373">
        <ele>1352.0</ele>
        <time>2015-08-29T09:43:51Z</time>
      </trkpt>
      <trkpt lat="42.035437" lon="0.865317">
        <ele>1350.0</ele>
        <time>2015-08-29T09:43:52Z</time>
      </trkpt>
      <trkpt lat="42.035513" lon="0.865272">
        <ele>1348.0</ele>
        <time>2015-08-29T09:43:53Z</time>
      </trkpt>
      <trkpt lat="42.035607" lon="0.865243">
        <ele>1347.0</ele>
        <time>2015-08-29T09:43:54Z</time>
      </trkpt>
      <trkpt lat="42.035710" lon="0.865247">
        <ele>1347.0</ele>
        <time>2015-08-29T09:43:55Z</time>
      </trkpt>
      <trkpt lat="42.035825" lon="0.865272">
        <ele>1346.0</ele>
        <time>2015-08-29T09:43:56Z</time>
      </trkpt>
      <trkpt lat="42.035937" lon="0.865322">
        <ele>1345.0</ele>
        <time>2015-08-29T09:43:57Z</time>
      </trkpt>
      <trkpt lat="42.036037" lon="0.865403">
        <ele>1344.0</ele>
        <time>2015-08-29T09:43:58Z</time>
      </trkpt>
      <trkpt lat="42.036117" lon="0.865510">
        <ele>1343.0</ele>
        <time>2015-08-29T09:43:59Z</time>
      </trkpt>
      <trkpt lat="42.036187" lon="0.865635">
        <ele>1343.0</ele>
        <time>2015-08-29T09:44:00Z</time>
      </trkpt>
      <trkpt lat="42.036263" lon="0.865762">
        <ele>1342.0</ele>
        <time>2015-08-29T09:44:01Z</time>
      </trkpt>
      <trkpt lat="42.036338" lon="0.865880">
        <ele>1342.0</ele>
        <time>2015-08-29T09:44:02Z</time>
      </trkpt>
      <trkpt lat="42.036407" lon="0.865998">
        <ele>1343.0</ele>
        <time>2015-08-29T09:44:03Z</time>
      </trkpt>
      <trkpt lat="42.036472" lon="0.866115">
        <ele>1343.0</ele>
        <time>2015-08-29T09:44:04Z</time>
      </trkpt>
      <trkpt lat="42.036533" lon="0.866235">
        <ele>1340.0</ele>
        <time>2015-08-29T09:44:05Z</time>
      </trkpt>
      <trkpt lat="42.036598" lon="0.866363">
        <ele>1337.0</ele>
        <time>2015-08-29T09:44:06Z</time>
      </trkpt>
      <trkpt lat="42.036660" lon="0.866500">
        <ele>1335.0</ele>
        <time>2015-08-29T09:44:07Z</time>
      </trkpt>
      <trkpt lat="42.036712" lon="0.866642">
        <ele>1334.0</ele>
        <time>2015-08-29T09:44:08Z</time>
      </trkpt>
      <trkpt lat="42.036745" lon="0.866782">
        <ele>1334.0</ele>
        <time>2015-08-29T09:44:09Z</time>
      </trkpt>
      <trkpt lat="42.036772" lon="0.866908">
        <ele>1333.0</ele>
        <time>2015-08-29T09:44:10Z</time>
      </trkpt>
      <trkpt lat="42.036795" lon="0.867028">
        <ele>1332.0</ele>
        <time>2015-08-29T09:44:11Z</time>
      </trkpt>
      <trkpt lat="42.036815" lon="0.867142">
        <ele>1332.0</ele>
        <time>2015-08-29T09:44:12Z</time>
      </trkpt>
      <trkpt lat="42.036835" lon="0.867255">
        <ele>1331.0</ele>
        <time>2015-08-29T09:44:13Z</time>
      </trkpt>
      <trkpt lat="42.036855" lon="0.867377">
        <ele>1330.0</ele>
        <time>2015-08-29T09:44:14Z</time>
      </trkpt>
      <trkpt lat="42.036860" lon="0.867505">
        <ele>1328.0</ele>
        <time>2015-08-29T09:44:15Z</time>
      </trkpt>
      <trkpt lat="42.036848" lon="0.867630">
        <ele>1328.0</ele>
        <time>2015-08-29T09:44:16Z</time>
      </trkpt>
      <trkpt lat="42.036827" lon="0.867745">
        <ele>1328.0</ele>
        <time>2015-08-29T09:44:17Z</time>
      </trkpt>
      <trkpt lat="42.036808" lon="0.867850">
        <ele>1327.0</ele>
        <time>2015-08-29T09:44:18Z</time>
      </trkpt>
      <trkpt lat="42.036787" lon="0.867925">
        <ele>1328.0</ele>
        <time>2015-08-29T09:44:19Z</time>
      </trkpt>
      <trkpt lat="42.036757" lon="0.867998">
        <ele>1330.0</ele>
        <time>2015-08-29T09:44:20Z</time>
      </trkpt>
      <trkpt lat="42.036708" lon="0.868073">
        <ele>1331.0</ele>
        <time>2015-08-29T09:44:21Z</time>
      </trkpt>
      <trkpt lat="42.036667" lon="0.868147">
        <ele>1333.0</ele>
        <time>2015-08-29T09:44:22Z</time>
      </trkpt>
      <trkpt lat="42.036638" lon="0.868207">
        <ele>1336.0</ele>
        <time>2015-08-29T09:44:23Z</time>
      </trkpt>
      <trkpt lat="42.036622" lon="0.868255">
        <ele>1337.0</ele>
        <time>2015-08-29T09:44:24Z</time>
      </trkpt>
      <trkpt lat="42.036608" lon="0.868303">
        <ele>1338.0</ele>
        <time>2015-08-29T09:44:25Z</time>
      </trkpt>
      <trkpt lat="42.036595" lon="0.868358">
        <ele>1338.0</ele>
        <time>2015-08-29T09:44:26Z</time>
      </trkpt>
      <trkpt lat="42.036580" lon="0.868430">
        <ele>1339.0</ele>
        <time>2015-08-29T09:44:27Z</time>
      </trkpt>
      <trkpt lat="42.036558" lon="0.868512">
        <ele>1339.0</ele>
        <time>2015-08-29T09:44:28Z</time>
      </trkpt>
      <trkpt lat="42.036518" lon="0.868607">
        <ele>1340.0</ele>
        <time>2015-08-29T09:44:29Z</time>
      </trkpt>
      <trkpt lat="42.036485" lon="0.868697">
        <ele>1340.0</ele>
        <time>2015-08-29T09:44:30Z</time>
      </trkpt>
      <trkpt lat="42.036465" lon="0.868782">
        <ele>1341.0</ele>
        <time>2015-08-29T09:44:31Z</time>
      </trkpt>
      <trkpt lat="42.036455" lon="0.868868">
        <ele>1341.0</ele>
        <time>2015-08-29T09:44:32Z</time>
      </trkpt>
      <trkpt lat="42.036450" lon="0.868962">
        <ele>1340.0</ele>
        <time>2015-08-29T09:44:33Z</time>
      </trkpt>
      <trkpt lat="42.036445" lon="0.869063">
        <ele>1340.0</ele>
        <time>2015-08-29T09:44:34Z</time>
      </trkpt>
      <trkpt lat="42.036440" lon="0.869167">
        <ele>1339.0</ele>
        <time>2015-08-29T09:44:35Z</time>
      </trkpt>
      <trkpt lat="42.036440" lon="0.869245">
        <ele>1339.0</ele>
        <time>2015-08-29T09:44:36Z</time>
      </trkpt>
      <trkpt lat="42.036437" lon="0.869327">
        <ele>1338.0</ele>
        <time>2015-08-29T09:44:37Z</time>
      </trkpt>
      <trkpt lat="42.036428" lon="0.869415">
        <ele>1336.0</ele>
        <time>2015-08-29T09:44:38Z</time>
      </trkpt>
      <trkpt lat="42.036413" lon="0.869520">
        <ele>1334.0</ele>
        <time>2015-08-29T09:44:39Z</time>
      </trkpt>
      <trkpt lat="42.036403" lon="0.869622">
        <ele>1333.0</ele>
        <time>2015-08-29T09:44:40Z</time>
      </trkpt>
      <trkpt lat="42.036405" lon="0.869720">
        <ele>1333.0</ele>
        <time>2015-08-29T09:44:41Z</time>
      </trkpt>
      <trkpt lat="42.036412" lon="0.869807">
        <ele>1333.0</ele>
        <time>2015-08-29T09:44:42Z</time>
      </trkpt>
      <trkpt lat="42.036417" lon="0.869887">
        <ele>1333.0</ele>
        <time>2015-08-29T09:44:43Z</time>
      </trkpt>
      <trkpt lat="42.036412" lon="0.869973">
        <ele>1332.0</ele>
        <time>2015-08-29T09:44:44Z</time>
      </trkpt>
      <trkpt lat="42.036398" lon="0.870068">
        <ele>1332.0</ele>
        <time>2015-08-29T09:44:45Z</time>
      </trkpt>
      <trkpt lat="42.036383" lon="0.870172">
        <ele>1332.0</ele>
        <time>2015-08-29T09:44:46Z</time>
      </trkpt>
      <trkpt lat="42.036385" lon="0.870270">
        <ele>1332.0</ele>
        <time>2015-08-29T09:44:47Z</time>
      </trkpt>
      <trkpt lat="42.036400" lon="0.870375">
        <ele>1332.0</ele>
        <time>2015-08-29T09:44:48Z</time>
      </trkpt>
      <trkpt lat="42.036420" lon="0.870487">
        <ele>1331.0</ele>
        <time>2015-08-29T09:44:49Z</time>
      </trkpt>
      <trkpt lat="42.036437" lon="0.870608">
        <ele>1331.0</ele>
        <time>2015-08-29T09:44:50Z</time>
      </trkpt>
      <trkpt lat="42.036452" lon="0.870743">
        <ele>1330.0</ele>
        <time>2015-08-29T09:44:51Z</time>
      </trkpt>
      <trkpt lat="42.036465" lon="0.870880">
        <ele>1329.0</ele>
        <time>2015-08-29T09:44:52Z</time>
      </trkpt>
      <trkpt lat="42.036477" lon="0.870997">
        <ele>1330.0</ele>
        <time>2015-08-29T09:44:53Z</time>
      </trkpt>
      <trkpt lat="42.036488" lon="0.871118">
        <ele>1330.0</ele>
        <time>2015-08-29T09:44:54Z</time>
      </trkpt>
      <trkpt lat="42.036502" lon="0.871252">
        <ele>1329.0</ele>
        <time>2015-08-29T09:44:55Z</time>
      </trkpt>
      <trkpt lat="42.036513" lon="0.871380">
        <ele>1329.0</ele>
        <time>2015-08-29T09:44:56Z</time>
      </trkpt>
      <trkpt lat="42.036525" lon="0.871507">
        <ele>1329.0</ele>
        <time>2015-08-29T09:44:57Z</time>
      </trkpt>
      <trkpt lat="42.036535" lon="0.871632">
        <ele>1330.0</ele>
        <time>2015-08-29T09:44:58Z</time>
      </trkpt>
      <trkpt lat="42.036542" lon="0.871755">
        <ele>1332.0</ele>
        <time>2015-08-29T09:44:59Z</time>
      </trkpt>
      <trkpt lat="42.036547" lon="0.871872">
        <ele>1333.0</ele>
        <time>2015-08-29T09:45:00Z</time>
      </trkpt>
      <trkpt lat="42.036557" lon="0.871978">
        <ele>1334.0</ele>
        <time>2015-08-29T09:45:01Z</time>
      </trkpt>
      <trkpt lat="42.036570" lon="0.872080">
        <ele>1335.0</ele>
        <time>2015-08-29T09:45:02Z</time>
      </trkpt>
      <trkpt lat="42.036577" lon="0.872182">
        <ele>1334.0</ele>
        <time>2015-08-29T09:45:03Z</time>
      </trkpt>
      <trkpt lat="42.036568" lon="0.872287">
        <ele>1334.0</ele>
        <time>2015-08-29T09:45:04Z</time>
      </trkpt>
      <trkpt lat="42.036543" lon="0.872398">
        <ele>1336.0</ele>
        <time>2015-08-29T09:45:05Z</time>
      </trkpt>
      <trkpt lat="42.036522" lon="0.872502">
        <ele>1337.0</ele>
        <time>2015-08-29T09:45:06Z</time>
      </trkpt>
      <trkpt lat="42.036535" lon="0.872612">
        <ele>1338.0</ele>
        <time>2015-08-29T09:45:07Z</time>
      </trkpt>
      <trkpt lat="42.036567" lon="0.872728">
        <ele>1339.0</ele>
        <time>2015-08-29T09:45:08Z</time>
      </trkpt>
      <trkpt lat="42.036593" lon="0.872843">
        <ele>1340.0</ele>
        <time>2015-08-29T09:45:09Z</time>
      </trkpt>
      <trkpt lat="42.036587" lon="0.872952">
        <ele>1342.0</ele>
        <time>2015-08-29T09:45:10Z</time>
      </trkpt>
      <trkpt lat="42.036573" lon="0.873070">
        <ele>1345.0</ele>
        <time>2015-08-29T09:45:11Z</time>
      </trkpt>
      <trkpt lat="42.036585" lon="0.873188">
        <ele>1345.0</ele>
        <time>2015-08-29T09:45:12Z</time>
      </trkpt>
      <trkpt lat="42.036610" lon="0.873300">
        <ele>1344.0</ele>
        <time>2015-08-29T09:45:13Z</time>
      </trkpt>
      <trkpt lat="42.036650" lon="0.873407">
        <ele>1343.0</ele>
        <time>2015-08-29T09:45:14Z</time>
      </trkpt>
      <trkpt lat="42.036673" lon="0.873520">
        <ele>1343.0</ele>
        <time>2015-08-29T09:45:15Z</time>
      </trkpt>
      <trkpt lat="42.036683" lon="0.873638">
        <ele>1343.0</ele>
        <time>2015-08-29T09:45:16Z</time>
      </trkpt>
      <trkpt lat="42.036705" lon="0.873753">
        <ele>1342.0</ele>
        <time>2015-08-29T09:45:17Z</time>
      </trkpt>
      <trkpt lat="42.036718" lon="0.873878">
        <ele>1342.0</ele>
        <time>2015-08-29T09:45:18Z</time>
      </trkpt>
      <trkpt lat="42.036723" lon="0.873983">
        <ele>1343.0</ele>
        <time>2015-08-29T09:45:19Z</time>
      </trkpt>
      <trkpt lat="42.036735" lon="0.874077">
        <ele>1342.0</ele>
        <time>2015-08-29T09:45:20Z</time>
      </trkpt>
      <trkpt lat="42.036732" lon="0.874182">
        <ele>1341.0</ele>
        <time>2015-08-29T09:45:21Z</time>
      </trkpt>
      <trkpt lat="42.036718" lon="0.874303">
        <ele>1340.0</ele>
        <time>2015-08-29T09:45:22Z</time>
      </trkpt>
      <trkpt lat="42.036702" lon="0.874433">
        <ele>1340.0</ele>
        <time>2015-08-29T09:45:23Z</time>
      </trkpt>
      <trkpt lat="42.036690" lon="0.874567">
        <ele>1340.0</ele>
        <time>2015-08-29T09:45:24Z</time>
      </trkpt>
      <trkpt lat="42.036685" lon="0.874700">
        <ele>1340.0</ele>
        <time>2015-08-29T09:45:25Z</time>
      </trkpt>
      <trkpt lat="42.036690" lon="0.874832">
        <ele>1339.0</ele>
        <time>2015-08-29T09:45:26Z</time>
      </trkpt>
      <trkpt lat="42.036685" lon="0.874955">
        <ele>1339.0</ele>
        <time>2015-08-29T09:45:27Z</time>
      </trkpt>
      <trkpt lat="42.036682" lon="0.875088">
        <ele>1337.0</ele>
        <time>2015-08-29T09:45:28Z</time>
      </trkpt>
      <trkpt lat="42.036670" lon="0.875243">
        <ele>1336.0</ele>
        <time>2015-08-29T09:45:29Z</time>
      </trkpt>
      <trkpt lat="42.036655" lon="0.875397">
        <ele>1335.0</ele>
        <time>2015-08-29T09:45:30Z</time>
      </trkpt>
      <trkpt lat="42.036642" lon="0.875548">
        <ele>1334.0</ele>
        <time>2015-08-29T09:45:31Z</time>
      </trkpt>
      <trkpt lat="42.036632" lon="0.875683">
        <ele>1334.0</ele>
        <time>2015-08-29T09:45:32Z</time>
      </trkpt>
      <trkpt lat="42.036623" lon="0.875805">
        <ele>1333.0</ele>
        <time>2015-08-29T09:45:33Z</time>
      </trkpt>
      <trkpt lat="42.036615" lon="0.875917">
        <ele>1333.0</ele>
        <time>2015-08-29T09:45:34Z</time>
      </trkpt>
      <trkpt lat="42.036607" lon="0.876023">
        <ele>1332.0</ele>
        <time>2015-08-29T09:45:35Z</time>
      </trkpt>
      <trkpt lat="42.036593" lon="0.876130">
        <ele>1331.0</ele>
        <time>2015-08-29T09:45:36Z</time>
      </trkpt>
      <trkpt lat="42.036583" lon="0.876260">
        <ele>1330.0</ele>
        <time>2015-08-29T09:45:37Z</time>
      </trkpt>
      <trkpt lat="42.036577" lon="0.876400">
        <ele>1329.0</ele>
        <time>2015-08-29T09:45:38Z</time>
      </trkpt>
      <trkpt lat="42.036573" lon="0.876538">
        <ele>1328.0</ele>
        <time>2015-08-29T09:45:39Z</time>
      </trkpt>
      <trkpt lat="42.036565" lon="0.876648">
        <ele>1327.0</ele>
        <time>2015-08-29T09:45:40Z</time>
      </trkpt>
      <trkpt lat="42.036540" lon="0.876747">
        <ele>1326.0</ele>
        <time>2015-08-29T09:45:41Z</time>
      </trkpt>
      <trkpt lat="42.036508" lon="0.876860">
        <ele>1323.0</ele>
        <time>2015-08-29T09:45:42Z</time>
      </trkpt>
      <trkpt lat="42.036473" lon="0.876977">
        <ele>1321.0</ele>
        <time>2015-08-29T09:45:43Z</time>
      </trkpt>
      <trkpt lat="42.036442" lon="0.877073">
        <ele>1321.0</ele>
        <time>2015-08-29T09:45:44Z</time>
      </trkpt>
      <trkpt lat="42.036405" lon="0.877172">
        <ele>1321.0</ele>
        <time>2015-08-29T09:45:45Z</time>
      </trkpt>
      <trkpt lat="42.036370" lon="0.877262">
        <ele>1320.0</ele>
        <time>2015-08-29T09:45:46Z</time>
      </trkpt>
      <trkpt lat="42.036342" lon="0.877337">
        <ele>1319.0</ele>
        <time>2015-08-29T09:45:47Z</time>
      </trkpt>
      <trkpt lat="42.036312" lon="0.877417">
        <ele>1318.0</ele>
        <time>2015-08-29T09:45:48Z</time>
      </trkpt>
      <trkpt lat="42.036287" lon="0.877502">
        <ele>1317.0</ele>
        <time>2015-08-29T09:45:49Z</time>
      </trkpt>
      <trkpt lat="42.036260" lon="0.877590">
        <ele>1316.0</ele>
        <time>2015-08-29T09:45:50Z</time>
      </trkpt>
      <trkpt lat="42.036228" lon="0.877680">
        <ele>1315.0</ele>
        <time>2015-08-29T09:45:51Z</time>
      </trkpt>
      <trkpt lat="42.036195" lon="0.877773">
        <ele>1314.0</ele>
        <time>2015-08-29T09:45:52Z</time>
      </trkpt>
      <trkpt lat="42.036167" lon="0.877882">
        <ele>1313.0</ele>
        <time>2015-08-29T09:45:53Z</time>
      </trkpt>
      <trkpt lat="42.036145" lon="0.878015">
        <ele>1313.0</ele>
        <time>2015-08-29T09:45:54Z</time>
      </trkpt>
      <trkpt lat="42.036132" lon="0.878163">
        <ele>1314.0</ele>
        <time>2015-08-29T09:45:55Z</time>
      </trkpt>
      <trkpt lat="42.036125" lon="0.878308">
        <ele>1314.0</ele>
        <time>2015-08-29T09:45:56Z</time>
      </trkpt>
      <trkpt lat="42.036123" lon="0.878442">
        <ele>1315.0</ele>
        <time>2015-08-29T09:45:57Z</time>
      </trkpt>
      <trkpt lat="42.036127" lon="0.878560">
        <ele>1314.0</ele>
        <time>2015-08-29T09:45:58Z</time>
      </trkpt>
      <trkpt lat="42.036132" lon="0.878670">
        <ele>1312.0</ele>
        <time>2015-08-29T09:45:59Z</time>
      </trkpt>
      <trkpt lat="42.036133" lon="0.878783">
        <ele>1310.0</ele>
        <time>2015-08-29T09:46:00Z</time>
      </trkpt>
      <trkpt lat="42.036133" lon="0.878883">
        <ele>1311.0</ele>
        <time>2015-08-29T09:46:01Z</time>
      </trkpt>
      <trkpt lat="42.036132" lon="0.878992">
        <ele>1310.0</ele>
        <time>2015-08-29T09:46:02Z</time>
      </trkpt>
      <trkpt lat="42.036132" lon="0.879113">
        <ele>1308.0</ele>
        <time>2015-08-29T09:46:03Z</time>
      </trkpt>
      <trkpt lat="42.036130" lon="0.879225">
        <ele>1307.0</ele>
        <time>2015-08-29T09:46:04Z</time>
      </trkpt>
      <trkpt lat="42.036130" lon="0.879333">
        <ele>1307.0</ele>
        <time>2015-08-29T09:46:05Z</time>
      </trkpt>
      <trkpt lat="42.036135" lon="0.879437">
        <ele>1306.0</ele>
        <time>2015-08-29T09:46:06Z</time>
      </trkpt>
      <trkpt lat="42.036137" lon="0.879538">
        <ele>1306.0</ele>
        <time>2015-08-29T09:46:07Z</time>
      </trkpt>
      <trkpt lat="42.036137" lon="0.879642">
        <ele>1305.0</ele>
        <time>2015-08-29T09:46:08Z</time>
      </trkpt>
      <trkpt lat="42.036133" lon="0.879747">
        <ele>1304.0</ele>
        <time>2015-08-29T09:46:09Z</time>
      </trkpt>
      <trkpt lat="42.036130" lon="0.879853">
        <ele>1303.0</ele>
        <time>2015-08-29T09:46:10Z</time>
      </trkpt>
      <trkpt lat="42.036133" lon="0.879962">
        <ele>1302.0</ele>
        <time>2015-08-29T09:46:11Z</time>
      </trkpt>
      <trkpt lat="42.036137" lon="0.880070">
        <ele>1302.0</ele>
        <time>2015-08-29T09:46:12Z</time>
      </trkpt>
      <trkpt lat="42.036138" lon="0.880175">
        <ele>1301.0</ele>
        <time>2015-08-29T09:46:13Z</time>
      </trkpt>
      <trkpt lat="42.036138" lon="0.880277">
        <ele>1300.0</ele>
        <time>2015-08-29T09:46:14Z</time>
      </trkpt>
      <trkpt lat="42.036135" lon="0.880375">
        <ele>1299.0</ele>
        <time>2015-08-29T09:46:15Z</time>
      </trkpt>
      <trkpt lat="42.036133" lon="0.880475">
        <ele>1298.0</ele>
        <time>2015-08-29T09:46:16Z</time>
      </trkpt>
      <trkpt lat="42.036133" lon="0.880577">
        <ele>1297.0</ele>
        <time>2015-08-29T09:46:17Z</time>
      </trkpt>
      <trkpt lat="42.036132" lon="0.880667">
        <ele>1297.0</ele>
        <time>2015-08-29T09:46:18Z</time>
      </trkpt>
      <trkpt lat="42.036132" lon="0.880765">
        <ele>1296.0</ele>
        <time>2015-08-29T09:46:19Z</time>
      </trkpt>
      <trkpt lat="42.036130" lon="0.880870">
        <ele>1295.0</ele>
        <time>2015-08-29T09:46:20Z</time>
      </trkpt>
      <trkpt lat="42.036132" lon="0.880970">
        <ele>1294.0</ele>
        <time>2015-08-29T09:46:21Z</time>
      </trkpt>
      <trkpt lat="42.036132" lon="0.881063">
        <ele>1293.0</ele>
        <time>2015-08-29T09:46:22Z</time>
      </trkpt>
      <trkpt lat="42.036133" lon="0.881157">
        <ele>1292.0</ele>
        <time>2015-08-29T09:46:23Z</time>
      </trkpt>
      <trkpt lat="42.036135" lon="0.881245">
        <ele>1292.0</ele>
        <time>2015-08-29T09:46:24Z</time>
      </trkpt>
      <trkpt lat="42.036135" lon="0.881338">
        <ele>1291.0</ele>
        <time>2015-08-29T09:46:25Z</time>
      </trkpt>
      <trkpt lat="42.036138" lon="0.881435">
        <ele>1291.0</ele>
        <time>2015-08-29T09:46:26Z</time>
      </trkpt>
      <trkpt lat="42.036142" lon="0.881540">
        <ele>1290.0</ele>
        <time>2015-08-29T09:46:27Z</time>
      </trkpt>
      <trkpt lat="42.036147" lon="0.881647">
        <ele>1288.0</ele>
        <time>2015-08-29T09:46:28Z</time>
      </trkpt>
      <trkpt lat="42.036153" lon="0.881753">
        <ele>1287.0</ele>
        <time>2015-08-29T09:46:29Z</time>
      </trkpt>
      <trkpt lat="42.036162" lon="0.881862">
        <ele>1286.0</ele>
        <time>2015-08-29T09:46:30Z</time>
      </trkpt>
      <trkpt lat="42.036170" lon="0.881968">
        <ele>1285.0</ele>
        <time>2015-08-29T09:46:31Z</time>
      </trkpt>
      <trkpt lat="42.036178" lon="0.882078">
        <ele>1283.0</ele>
        <time>2015-08-29T09:46:32Z</time>
      </trkpt>
      <trkpt lat="42.036185" lon="0.882185">
        <ele>1281.0</ele>
        <time>2015-08-29T09:46:33Z</time>
      </trkpt>
      <trkpt lat="42.036188" lon="0.882293">
        <ele>1279.0</ele>
        <time>2015-08-29T09:46:34Z</time>
      </trkpt>
      <trkpt lat="42.036192" lon="0.882390">
        <ele>1280.0</ele>
        <time>2015-08-29T09:46:35Z</time>
      </trkpt>
      <trkpt lat="42.036195" lon="0.882500">
        <ele>1279.0</ele>
        <time>2015-08-29T09:46:36Z</time>
      </trkpt>
      <trkpt lat="42.036202" lon="0.882612">
        <ele>1277.0</ele>
        <time>2015-08-29T09:46:37Z</time>
      </trkpt>
      <trkpt lat="42.036205" lon="0.882715">
        <ele>1275.0</ele>
        <time>2015-08-29T09:46:38Z</time>
      </trkpt>
      <trkpt lat="42.036207" lon="0.882813">
        <ele>1273.0</ele>
        <time>2015-08-29T09:46:39Z</time>
      </trkpt>
      <trkpt lat="42.036205" lon="0.882912">
        <ele>1271.0</ele>
        <time>2015-08-29T09:46:40Z</time>
      </trkpt>
      <trkpt lat="42.036203" lon="0.883010">
        <ele>1270.0</ele>
        <time>2015-08-29T09:46:41Z</time>
      </trkpt>
      <trkpt lat="42.036207" lon="0.883113">
        <ele>1269.0</ele>
        <time>2015-08-29T09:46:42Z</time>
      </trkpt>
      <trkpt lat="42.036212" lon="0.883220">
        <ele>1268.0</ele>
        <time>2015-08-29T09:46:43Z</time>
      </trkpt>
      <trkpt lat="42.036213" lon="0.883322">
        <ele>1267.0</ele>
        <time>2015-08-29T09:46:44Z</time>
      </trkpt>
      <trkpt lat="42.036208" lon="0.883420">
        <ele>1265.0</ele>
        <time>2015-08-29T09:46:45Z</time>
      </trkpt>
      <trkpt lat="42.036207" lon="0.883517">
        <ele>1264.0</ele>
        <time>2015-08-29T09:46:46Z</time>
      </trkpt>
      <trkpt lat="42.036208" lon="0.883615">
        <ele>1263.0</ele>
        <time>2015-08-29T09:46:47Z</time>
      </trkpt>
      <trkpt lat="42.036217" lon="0.883720">
        <ele>1262.0</ele>
        <time>2015-08-29T09:46:48Z</time>
      </trkpt>
      <trkpt lat="42.036227" lon="0.883827">
        <ele>1260.0</ele>
        <time>2015-08-29T09:46:49Z</time>
      </trkpt>
      <trkpt lat="42.036233" lon="0.883937">
        <ele>1258.0</ele>
        <time>2015-08-29T09:46:50Z</time>
      </trkpt>
      <trkpt lat="42.036237" lon="0.884045">
        <ele>1256.0</ele>
        <time>2015-08-29T09:46:51Z</time>
      </trkpt>
      <trkpt lat="42.036240" lon="0.884143">
        <ele>1256.0</ele>
        <time>2015-08-29T09:46:52Z</time>
      </trkpt>
      <trkpt lat="42.036245" lon="0.884245">
        <ele>1254.0</ele>
        <time>2015-08-29T09:46:53Z</time>
      </trkpt>
      <trkpt lat="42.036250" lon="0.884350">
        <ele>1252.0</ele>
        <time>2015-08-29T09:46:54Z</time>
      </trkpt>
      <trkpt lat="42.036253" lon="0.884448">
        <ele>1251.0</ele>
        <time>2015-08-29T09:46:55Z</time>
      </trkpt>
      <trkpt lat="42.036253" lon="0.884535">
        <ele>1250.0</ele>
        <time>2015-08-29T09:46:56Z</time>
      </trkpt>
      <trkpt lat="42.036257" lon="0.884617">
        <ele>1248.0</ele>
        <time>2015-08-29T09:46:57Z</time>
      </trkpt>
      <trkpt lat="42.036257" lon="0.884698">
        <ele>1247.0</ele>
        <time>2015-08-29T09:46:58Z</time>
      </trkpt>
      <trkpt lat="42.036257" lon="0.884787">
        <ele>1246.0</ele>
        <time>2015-08-29T09:46:59Z</time>
      </trkpt>
      <trkpt lat="42.036255" lon="0.884882">
        <ele>1244.0</ele>
        <time>2015-08-29T09:47:00Z</time>
      </trkpt>
      <trkpt lat="42.036255" lon="0.884975">
        <ele>1243.0</ele>
        <time>2015-08-29T09:47:01Z</time>
      </trkpt>
      <trkpt lat="42.036255" lon="0.885068">
        <ele>1241.0</ele>
        <time>2015-08-29T09:47:02Z</time>
      </trkpt>
      <trkpt lat="42.036257" lon="0.885160">
        <ele>1240.0</ele>
        <time>2015-08-29T09:47:03Z</time>
      </trkpt>
      <trkpt lat="42.036262" lon="0.885257">
        <ele>1238.0</ele>
        <time>2015-08-29T09:47:04Z</time>
      </trkpt>
      <trkpt lat="42.036265" lon="0.885352">
        <ele>1236.0</ele>
        <time>2015-08-29T09:47:05Z</time>
      </trkpt>
      <trkpt lat="42.036262" lon="0.885443">
        <ele>1234.0</ele>
        <time>2015-08-29T09:47:06Z</time>
      </trkpt>
      <trkpt lat="42.036255" lon="0.885533">
        <ele>1232.0</ele>
        <time>2015-08-29T09:47:07Z</time>
      </trkpt>
      <trkpt lat="42.036248" lon="0.885632">
        <ele>1230.0</ele>
        <time>2015-08-29T09:47:08Z</time>
      </trkpt>
      <trkpt lat="42.036243" lon="0.885718">
        <ele>1229.0</ele>
        <time>2015-08-29T09:47:09Z</time>
      </trkpt>
      <trkpt lat="42.036233" lon="0.885820">
        <ele>1227.0</ele>
        <time>2015-08-29T09:47:10Z</time>
      </trkpt>
      <trkpt lat="42.036225" lon="0.885915">
        <ele>1225.0</ele>
        <time>2015-08-29T09:47:11Z</time>
      </trkpt>
      <trkpt lat="42.036222" lon="0.886008">
        <ele>1223.0</ele>
        <time>2015-08-29T09:47:12Z</time>
      </trkpt>
      <trkpt lat="42.036220" lon="0.886097">
        <ele>1221.0</ele>
        <time>2015-08-29T09:47:13Z</time>
      </trkpt>
      <trkpt lat="42.036220" lon="0.886180">
        <ele>1220.0</ele>
        <time>2015-08-29T09:47:14Z</time>
      </trkpt>
      <trkpt lat="42.036222" lon="0.886265">
        <ele>1219.0</ele>
        <time>2015-08-29T09:47:15Z</time>
      </trkpt>
      <trkpt lat="42.036222" lon="0.886350">
        <ele>1218.0</ele>
        <time>2015-08-29T09:47:16Z</time>
      </trkpt>
      <trkpt lat="42.036222" lon="0.886435">
        <ele>1216.0</ele>
        <time>2015-08-29T09:47:17Z</time>
      </trkpt>
      <trkpt lat="42.036222" lon="0.886523">
        <ele>1215.0</ele>
        <time>2015-08-29T09:47:18Z</time>
      </trkpt>
      <trkpt lat="42.036218" lon="0.886615">
        <ele>1213.0</ele>
        <time>2015-08-29T09:47:19Z</time>
      </trkpt>
      <trkpt lat="42.036213" lon="0.886707">
        <ele>1212.0</ele>
        <time>2015-08-29T09:47:20Z</time>
      </trkpt>
      <trkpt lat="42.036210" lon="0.886795">
        <ele>1210.0</ele>
        <time>2015-08-29T09:47:21Z</time>
      </trkpt>
      <trkpt lat="42.036207" lon="0.886882">
        <ele>1209.0</ele>
        <time>2015-08-29T09:47:22Z</time>
      </trkpt>
      <trkpt lat="42.036200" lon="0.886967">
        <ele>1207.0</ele>
        <time>2015-08-29T09:47:23Z</time>
      </trkpt>
      <trkpt lat="42.036183" lon="0.887053">
        <ele>1205.0</ele>
        <time>2015-08-29T09:47:24Z</time>
      </trkpt>
      <trkpt lat="42.036173" lon="0.887132">
        <ele>1203.0</ele>
        <time>2015-08-29T09:47:25Z</time>
      </trkpt>
      <trkpt lat="42.036170" lon="0.887215">
        <ele>1202.0</ele>
        <time>2015-08-29T09:47:26Z</time>
      </trkpt>
      <trkpt lat="42.036167" lon="0.887312">
        <ele>1200.0</ele>
        <time>2015-08-29T09:47:27Z</time>
      </trkpt>
      <trkpt lat="42.036165" lon="0.887408">
        <ele>1199.0</ele>
        <time>2015-08-29T09:47:28Z</time>
      </trkpt>
      <trkpt lat="42.036162" lon="0.887498">
        <ele>1198.0</ele>
        <time>2015-08-29T09:47:29Z</time>
      </trkpt>
      <trkpt lat="42.036157" lon="0.887587">
        <ele>1197.0</ele>
        <time>2015-08-29T09:47:30Z</time>
      </trkpt>
      <trkpt lat="42.036155" lon="0.887672">
        <ele>1196.0</ele>
        <time>2015-08-29T09:47:31Z</time>
      </trkpt>
      <trkpt lat="42.036142" lon="0.887763">
        <ele>1195.0</ele>
        <time>2015-08-29T09:47:32Z</time>
      </trkpt>
      <trkpt lat="42.036133" lon="0.887847">
        <ele>1193.0</ele>
        <time>2015-08-29T09:47:33Z</time>
      </trkpt>
      <trkpt lat="42.036127" lon="0.887927">
        <ele>1192.0</ele>
        <time>2015-08-29T09:47:34Z</time>
      </trkpt>
      <trkpt lat="42.036120" lon="0.888008">
        <ele>1190.0</ele>
        <time>2015-08-29T09:47:35Z</time>
      </trkpt>
      <trkpt lat="42.036117" lon="0.888092">
        <ele>1189.0</ele>
        <time>2015-08-29T09:47:36Z</time>
      </trkpt>
      <trkpt lat="42.036112" lon="0.888180">
        <ele>1187.0</ele>
        <time>2015-08-29T09:47:37Z</time>
      </trkpt>
      <trkpt lat="42.036108" lon="0.888270">
        <ele>1186.0</ele>
        <time>2015-08-29T09:47:38Z</time>
      </trkpt>
      <trkpt lat="42.036105" lon="0.888358">
        <ele>1185.0</ele>
        <time>2015-08-29T09:47:39Z</time>
      </trkpt>
      <trkpt lat="42.036102" lon="0.888445">
        <ele>1184.0</ele>
        <time>2015-08-29T09:47:40Z</time>
      </trkpt>
      <trkpt lat="42.036102" lon="0.888525">
        <ele>1183.0</ele>
        <time>2015-08-29T09:47:41Z</time>
      </trkpt>
      <trkpt lat="42.036103" lon="0.888602">
        <ele>1182.0</ele>
        <time>2015-08-29T09:47:42Z</time>
      </trkpt>
      <trkpt lat="42.036103" lon="0.888680">
        <ele>1182.0</ele>
        <time>2015-08-29T09:47:43Z</time>
      </trkpt>
      <trkpt lat="42.036102" lon="0.888775">
        <ele>1181.0</ele>
        <time>2015-08-29T09:47:44Z</time>
      </trkpt>
      <trkpt lat="42.036100" lon="0.888877">
        <ele>1179.0</ele>
        <time>2015-08-29T09:47:45Z</time>
      </trkpt>
      <trkpt lat="42.036098" lon="0.888970">
        <ele>1178.0</ele>
        <time>2015-08-29T09:47:46Z</time>
      </trkpt>
      <trkpt lat="42.036097" lon="0.889053">
        <ele>1177.0</ele>
        <time>2015-08-29T09:47:47Z</time>
      </trkpt>
      <trkpt lat="42.036097" lon="0.889127">
        <ele>1176.0</ele>
        <time>2015-08-29T09:47:48Z</time>
      </trkpt>
      <trkpt lat="42.036097" lon="0.889200">
        <ele>1175.0</ele>
        <time>2015-08-29T09:47:49Z</time>
      </trkpt>
      <trkpt lat="42.036097" lon="0.889277">
        <ele>1174.0</ele>
        <time>2015-08-29T09:47:50Z</time>
      </trkpt>
      <trkpt lat="42.036098" lon="0.889358">
        <ele>1174.0</ele>
        <time>2015-08-29T09:47:51Z</time>
      </trkpt>
      <trkpt lat="42.036097" lon="0.889445">
        <ele>1173.0</ele>
        <time>2015-08-29T09:47:52Z</time>
      </trkpt>
      <trkpt lat="42.036098" lon="0.889530">
        <ele>1172.0</ele>
        <time>2015-08-29T09:47:53Z</time>
      </trkpt>
      <trkpt lat="42.036103" lon="0.889613">
        <ele>1171.0</ele>
        <time>2015-08-29T09:47:54Z</time>
      </trkpt>
      <trkpt lat="42.036102" lon="0.889693">
        <ele>1170.0</ele>
        <time>2015-08-29T09:47:55Z</time>
      </trkpt>
      <trkpt lat="42.036093" lon="0.889773">
        <ele>1168.0</ele>
        <time>2015-08-29T09:47:56Z</time>
      </trkpt>
      <trkpt lat="42.036078" lon="0.889855">
        <ele>1167.0</ele>
        <time>2015-08-29T09:47:57Z</time>
      </trkpt>
      <trkpt lat="42.036065" lon="0.889933">
        <ele>1166.0</ele>
        <time>2015-08-29T09:47:58Z</time>
      </trkpt>
      <trkpt lat="42.036058" lon="0.889997">
        <ele>1165.0</ele>
        <time>2015-08-29T09:47:59Z</time>
      </trkpt>
      <trkpt lat="42.036055" lon="0.890048">
        <ele>1166.0</ele>
        <time>2015-08-29T09:48:00Z</time>
      </trkpt>
      <trkpt lat="42.036035" lon="0.890117">
        <ele>1164.0</ele>
        <time>2015-08-29T09:48:01Z</time>
      </trkpt>
      <trkpt lat="42.036013" lon="0.890177">
        <ele>1162.0</ele>
        <time>2015-08-29T09:48:02Z</time>
      </trkpt>
      <trkpt lat="42.035992" lon="0.890237">
        <ele>1160.0</ele>
        <time>2015-08-29T09:48:03Z</time>
      </trkpt>
      <trkpt lat="42.035970" lon="0.890297">
        <ele>1158.0</ele>
        <time>2015-08-29T09:48:04Z</time>
      </trkpt>
      <trkpt lat="42.035953" lon="0.890355">
        <ele>1157.0</ele>
        <time>2015-08-29T09:48:05Z</time>
      </trkpt>
      <trkpt lat="42.035943" lon="0.890412">
        <ele>1156.0</ele>
        <time>2015-08-29T09:48:06Z</time>
      </trkpt>
      <trkpt lat="42.035935" lon="0.890477">
        <ele>1154.0</ele>
        <time>2015-08-29T09:48:07Z</time>
      </trkpt>
      <trkpt lat="42.035923" lon="0.890543">
        <ele>1153.0</ele>
        <time>2015-08-29T09:48:08Z</time>
      </trkpt>
      <trkpt lat="42.035910" lon="0.890608">
        <ele>1151.0</ele>
        <time>2015-08-29T09:48:09Z</time>
      </trkpt>
      <trkpt lat="42.035892" lon="0.890678">
        <ele>1149.0</ele>
        <time>2015-08-29T09:48:10Z</time>
      </trkpt>
      <trkpt lat="42.035873" lon="0.890752">
        <ele>1147.0</ele>
        <time>2015-08-29T09:48:11Z</time>
      </trkpt>
      <trkpt lat="42.035855" lon="0.890827">
        <ele>1145.0</ele>
        <time>2015-08-29T09:48:12Z</time>
      </trkpt>
      <trkpt lat="42.035832" lon="0.890898">
        <ele>1144.0</ele>
        <time>2015-08-29T09:48:13Z</time>
      </trkpt>
      <trkpt lat="42.035812" lon="0.890967">
        <ele>1143.0</ele>
        <time>2015-08-29T09:48:14Z</time>
      </trkpt>
      <trkpt lat="42.035795" lon="0.891038">
        <ele>1142.0</ele>
        <time>2015-08-29T09:48:15Z</time>
      </trkpt>
      <trkpt lat="42.035782" lon="0.891107">
        <ele>1141.0</ele>
        <time>2015-08-29T09:48:16Z</time>
      </trkpt>
      <trkpt lat="42.035765" lon="0.891178">
        <ele>1140.0</ele>
        <time>2015-08-29T09:48:17Z</time>
      </trkpt>
      <trkpt lat="42.035733" lon="0.891257">
        <ele>1138.0</ele>
        <time>2015-08-29T09:48:18Z</time>
      </trkpt>
      <trkpt lat="42.035697" lon="0.891333">
        <ele>1137.0</ele>
        <time>2015-08-29T09:48:19Z</time>
      </trkpt>
      <trkpt lat="42.035670" lon="0.891407">
        <ele>1137.0</ele>
        <time>2015-08-29T09:48:20Z</time>
      </trkpt>
      <trkpt lat="42.035655" lon="0.891467">
        <ele>1137.0</ele>
        <time>2015-08-29T09:48:21Z</time>
      </trkpt>
      <trkpt lat="42.035648" lon="0.891553">
        <ele>1136.0</ele>
        <time>2015-08-29T09:48:23Z</time>
      </trkpt>
      <trkpt lat="42.035620" lon="0.891663">
        <ele>1134.0</ele>
        <time>2015-08-29T09:48:25Z</time>
      </trkpt>
      <trkpt lat="42.035588" lon="0.891740">
        <ele>1134.0</ele>
        <time>2015-08-29T09:48:26Z</time>
      </trkpt>
      <trkpt lat="42.035563" lon="0.891800">
        <ele>1135.0</ele>
        <time>2015-08-29T09:48:27Z</time>
      </trkpt>
      <trkpt lat="42.035547" lon="0.891843">
        <ele>1135.0</ele>
        <time>2015-08-29T09:48:28Z</time>
      </trkpt>
      <trkpt lat="42.035517" lon="0.891920">
        <ele>1134.0</ele>
        <time>2015-08-29T09:48:30Z</time>
      </trkpt>
      <trkpt lat="42.035487" lon="0.891978">
        <ele>1133.0</ele>
        <time>2015-08-29T09:48:31Z</time>
      </trkpt>
      <trkpt lat="42.035453" lon="0.892052">
        <ele>1132.0</ele>
        <time>2015-08-29T09:48:32Z</time>
      </trkpt>
      <trkpt lat="42.035432" lon="0.892118">
        <ele>1132.0</ele>
        <time>2015-08-29T09:48:33Z</time>
      </trkpt>
      <trkpt lat="42.035410" lon="0.892185">
        <ele>1133.0</ele>
        <time>2015-08-29T09:48:34Z</time>
      </trkpt>
      <trkpt lat="42.035387" lon="0.892257">
        <ele>1131.0</ele>
        <time>2015-08-29T09:48:35Z</time>
      </trkpt>
      <trkpt lat="42.035365" lon="0.892338">
        <ele>1129.0</ele>
        <time>2015-08-29T09:48:36Z</time>
      </trkpt>
      <trkpt lat="42.035347" lon="0.892420">
        <ele>1128.0</ele>
        <time>2015-08-29T09:48:37Z</time>
      </trkpt>
      <trkpt lat="42.035332" lon="0.892497">
        <ele>1128.0</ele>
        <time>2015-08-29T09:48:38Z</time>
      </trkpt>
      <trkpt lat="42.035317" lon="0.892567">
        <ele>1128.0</ele>
        <time>2015-08-29T09:48:39Z</time>
      </trkpt>
      <trkpt lat="42.035297" lon="0.892630">
        <ele>1127.0</ele>
        <time>2015-08-29T09:48:40Z</time>
      </trkpt>
      <trkpt lat="42.035282" lon="0.892683">
        <ele>1126.0</ele>
        <time>2015-08-29T09:48:41Z</time>
      </trkpt>
      <trkpt lat="42.035263" lon="0.892742">
        <ele>1125.0</ele>
        <time>2015-08-29T09:48:42Z</time>
      </trkpt>
      <trkpt lat="42.035240" lon="0.892807">
        <ele>1123.0</ele>
        <time>2015-08-29T09:48:43Z</time>
      </trkpt>
      <trkpt lat="42.035212" lon="0.892877">
        <ele>1122.0</ele>
        <time>2015-08-29T09:48:44Z</time>
      </trkpt>
      <trkpt lat="42.035177" lon="0.892952">
        <ele>1121.0</ele>
        <time>2015-08-29T09:48:45Z</time>
      </trkpt>
      <trkpt lat="42.035143" lon="0.893025">
        <ele>1120.0</ele>
        <time>2015-08-29T09:48:46Z</time>
      </trkpt>
      <trkpt lat="42.035112" lon="0.893098">
        <ele>1120.0</ele>
        <time>2015-08-29T09:48:47Z</time>
      </trkpt>
      <trkpt lat="42.035092" lon="0.893168">
        <ele>1120.0</ele>
        <time>2015-08-29T09:48:48Z</time>
      </trkpt>
      <trkpt lat="42.035072" lon="0.893242">
        <ele>1119.0</ele>
        <time>2015-08-29T09:48:49Z</time>
      </trkpt>
      <trkpt lat="42.035055" lon="0.893313">
        <ele>1119.0</ele>
        <time>2015-08-29T09:48:50Z</time>
      </trkpt>
      <trkpt lat="42.035035" lon="0.893397">
        <ele>1119.0</ele>
        <time>2015-08-29T09:48:51Z</time>
      </trkpt>
      <trkpt lat="42.035022" lon="0.893497">
        <ele>1119.0</ele>
        <time>2015-08-29T09:48:52Z</time>
      </trkpt>
      <trkpt lat="42.035007" lon="0.893590">
        <ele>1119.0</ele>
        <time>2015-08-29T09:48:53Z</time>
      </trkpt>
      <trkpt lat="42.034993" lon="0.893672">
        <ele>1118.0</ele>
        <time>2015-08-29T09:48:54Z</time>
      </trkpt>
      <trkpt lat="42.034972" lon="0.893743">
        <ele>1118.0</ele>
        <time>2015-08-29T09:48:55Z</time>
      </trkpt>
      <trkpt lat="42.034947" lon="0.893812">
        <ele>1117.0</ele>
        <time>2015-08-29T09:48:56Z</time>
      </trkpt>
      <trkpt lat="42.034920" lon="0.893885">
        <ele>1117.0</ele>
        <time>2015-08-29T09:48:57Z</time>
      </trkpt>
      <trkpt lat="42.034895" lon="0.893968">
        <ele>1117.0</ele>
        <time>2015-08-29T09:48:58Z</time>
      </trkpt>
      <trkpt lat="42.034873" lon="0.894048">
        <ele>1117.0</ele>
        <time>2015-08-29T09:48:59Z</time>
      </trkpt>
      <trkpt lat="42.034847" lon="0.894123">
        <ele>1117.0</ele>
        <time>2015-08-29T09:49:00Z</time>
      </trkpt>
      <trkpt lat="42.034817" lon="0.894200">
        <ele>1117.0</ele>
        <time>2015-08-29T09:49:01Z</time>
      </trkpt>
      <trkpt lat="42.034787" lon="0.894277">
        <ele>1118.0</ele>
        <time>2015-08-29T09:49:02Z</time>
      </trkpt>
      <trkpt lat="42.034762" lon="0.894352">
        <ele>1119.0</ele>
        <time>2015-08-29T09:49:03Z</time>
      </trkpt>
      <trkpt lat="42.034740" lon="0.894422">
        <ele>1120.0</ele>
        <time>2015-08-29T09:49:04Z</time>
      </trkpt>
      <trkpt lat="42.034718" lon="0.894478">
        <ele>1121.0</ele>
        <time>2015-08-29T09:49:05Z</time>
      </trkpt>
      <trkpt lat="42.034688" lon="0.894533">
        <ele>1121.0</ele>
        <time>2015-08-29T09:49:06Z</time>
      </trkpt>
      <trkpt lat="42.034653" lon="0.894578">
        <ele>1122.0</ele>
        <time>2015-08-29T09:49:07Z</time>
      </trkpt>
      <trkpt lat="42.034610" lon="0.894635">
        <ele>1122.0</ele>
        <time>2015-08-29T09:49:08Z</time>
      </trkpt>
      <trkpt lat="42.034568" lon="0.894702">
        <ele>1122.0</ele>
        <time>2015-08-29T09:49:09Z</time>
      </trkpt>
      <trkpt lat="42.034542" lon="0.894767">
        <ele>1122.0</ele>
        <time>2015-08-29T09:49:10Z</time>
      </trkpt>
      <trkpt lat="42.034515" lon="0.894833">
        <ele>1122.0</ele>
        <time>2015-08-29T09:49:11Z</time>
      </trkpt>
      <trkpt lat="42.034488" lon="0.894895">
        <ele>1122.0</ele>
        <time>2015-08-29T09:49:12Z</time>
      </trkpt>
      <trkpt lat="42.034462" lon="0.894957">
        <ele>1122.0</ele>
        <time>2015-08-29T09:49:13Z</time>
      </trkpt>
      <trkpt lat="42.034435" lon="0.895020">
        <ele>1123.0</ele>
        <time>2015-08-29T09:49:14Z</time>
      </trkpt>
      <trkpt lat="42.034405" lon="0.895085">
        <ele>1124.0</ele>
        <time>2015-08-29T09:49:15Z</time>
      </trkpt>
      <trkpt lat="42.034372" lon="0.895147">
        <ele>1124.0</ele>
        <time>2015-08-29T09:49:16Z</time>
      </trkpt>
      <trkpt lat="42.034338" lon="0.895210">
        <ele>1125.0</ele>
        <time>2015-08-29T09:49:17Z</time>
      </trkpt>
      <trkpt lat="42.034310" lon="0.895272">
        <ele>1126.0</ele>
        <time>2015-08-29T09:49:18Z</time>
      </trkpt>
      <trkpt lat="42.034288" lon="0.895340">
        <ele>1127.0</ele>
        <time>2015-08-29T09:49:19Z</time>
      </trkpt>
      <trkpt lat="42.034273" lon="0.895417">
        <ele>1129.0</ele>
        <time>2015-08-29T09:49:20Z</time>
      </trkpt>
      <trkpt lat="42.034262" lon="0.895490">
        <ele>1130.0</ele>
        <time>2015-08-29T09:49:21Z</time>
      </trkpt>
      <trkpt lat="42.034248" lon="0.895562">
        <ele>1131.0</ele>
        <time>2015-08-29T09:49:22Z</time>
      </trkpt>
      <trkpt lat="42.034232" lon="0.895638">
        <ele>1131.0</ele>
        <time>2015-08-29T09:49:23Z</time>
      </trkpt>
      <trkpt lat="42.034215" lon="0.895720">
        <ele>1133.0</ele>
        <time>2015-08-29T09:49:24Z</time>
      </trkpt>
      <trkpt lat="42.034195" lon="0.895802">
        <ele>1135.0</ele>
        <time>2015-08-29T09:49:25Z</time>
      </trkpt>
      <trkpt lat="42.034175" lon="0.895882">
        <ele>1137.0</ele>
        <time>2015-08-29T09:49:26Z</time>
      </trkpt>
      <trkpt lat="42.034157" lon="0.895955">
        <ele>1137.0</ele>
        <time>2015-08-29T09:49:27Z</time>
      </trkpt>
      <trkpt lat="42.034140" lon="0.896033">
        <ele>1138.0</ele>
        <time>2015-08-29T09:49:28Z</time>
      </trkpt>
      <trkpt lat="42.034127" lon="0.896117">
        <ele>1139.0</ele>
        <time>2015-08-29T09:49:29Z</time>
      </trkpt>
      <trkpt lat="42.034115" lon="0.896205">
        <ele>1140.0</ele>
        <time>2015-08-29T09:49:30Z</time>
      </trkpt>
      <trkpt lat="42.034103" lon="0.896293">
        <ele>1141.0</ele>
        <time>2015-08-29T09:49:31Z</time>
      </trkpt>
      <trkpt lat="42.034090" lon="0.896375">
        <ele>1142.0</ele>
        <time>2015-08-29T09:49:32Z</time>
      </trkpt>
      <trkpt lat="42.034075" lon="0.896458">
        <ele>1142.0</ele>
        <time>2015-08-29T09:49:33Z</time>
      </trkpt>
      <trkpt lat="42.034060" lon="0.896550">
        <ele>1143.0</ele>
        <time>2015-08-29T09:49:34Z</time>
      </trkpt>
      <trkpt lat="42.034047" lon="0.896657">
        <ele>1143.0</ele>
        <time>2015-08-29T09:49:35Z</time>
      </trkpt>
      <trkpt lat="42.034033" lon="0.896772">
        <ele>1143.0</ele>
        <time>2015-08-29T09:49:36Z</time>
      </trkpt>
      <trkpt lat="42.034020" lon="0.896890">
        <ele>1143.0</ele>
        <time>2015-08-29T09:49:37Z</time>
      </trkpt>
      <trkpt lat="42.034003" lon="0.897022">
        <ele>1143.0</ele>
        <time>2015-08-29T09:49:38Z</time>
      </trkpt>
      <trkpt lat="42.033980" lon="0.897155">
        <ele>1144.0</ele>
        <time>2015-08-29T09:49:39Z</time>
      </trkpt>
      <trkpt lat="42.033957" lon="0.897278">
        <ele>1144.0</ele>
        <time>2015-08-29T09:49:40Z</time>
      </trkpt>
      <trkpt lat="42.033935" lon="0.897367">
        <ele>1146.0</ele>
        <time>2015-08-29T09:49:41Z</time>
      </trkpt>
      <trkpt lat="42.033915" lon="0.897455">
        <ele>1148.0</ele>
        <time>2015-08-29T09:49:42Z</time>
      </trkpt>
      <trkpt lat="42.033898" lon="0.897553">
        <ele>1148.0</ele>
        <time>2015-08-29T09:49:43Z</time>
      </trkpt>
      <trkpt lat="42.033883" lon="0.897653">
        <ele>1149.0</ele>
        <time>2015-08-29T09:49:44Z</time>
      </trkpt>
      <trkpt lat="42.033867" lon="0.897750">
        <ele>1150.0</ele>
        <time>2015-08-29T09:49:45Z</time>
      </trkpt>
      <trkpt lat="42.033845" lon="0.897850">
        <ele>1151.0</ele>
        <time>2015-08-29T09:49:46Z</time>
      </trkpt>
      <trkpt lat="42.033820" lon="0.897948">
        <ele>1152.0</ele>
        <time>2015-08-29T09:49:47Z</time>
      </trkpt>
      <trkpt lat="42.033792" lon="0.898042">
        <ele>1152.0</ele>
        <time>2015-08-29T09:49:48Z</time>
      </trkpt>
      <trkpt lat="42.033767" lon="0.898135">
        <ele>1153.0</ele>
        <time>2015-08-29T09:49:49Z</time>
      </trkpt>
      <trkpt lat="42.033743" lon="0.898232">
        <ele>1153.0</ele>
        <time>2015-08-29T09:49:50Z</time>
      </trkpt>
      <trkpt lat="42.033720" lon="0.898332">
        <ele>1153.0</ele>
        <time>2015-08-29T09:49:51Z</time>
      </trkpt>
      <trkpt lat="42.033698" lon="0.898433">
        <ele>1154.0</ele>
        <time>2015-08-29T09:49:52Z</time>
      </trkpt>
      <trkpt lat="42.033675" lon="0.898528">
        <ele>1155.0</ele>
        <time>2015-08-29T09:49:53Z</time>
      </trkpt>
      <trkpt lat="42.033650" lon="0.898618">
        <ele>1155.0</ele>
        <time>2015-08-29T09:49:54Z</time>
      </trkpt>
      <trkpt lat="42.033620" lon="0.898705">
        <ele>1158.0</ele>
        <time>2015-08-29T09:49:55Z</time>
      </trkpt>
      <trkpt lat="42.033588" lon="0.898795">
        <ele>1160.0</ele>
        <time>2015-08-29T09:49:56Z</time>
      </trkpt>
      <trkpt lat="42.033555" lon="0.898878">
        <ele>1162.0</ele>
        <time>2015-08-29T09:49:57Z</time>
      </trkpt>
      <trkpt lat="42.033525" lon="0.898937">
        <ele>1164.0</ele>
        <time>2015-08-29T09:49:58Z</time>
      </trkpt>
      <trkpt lat="42.033485" lon="0.899000">
        <ele>1167.0</ele>
        <time>2015-08-29T09:49:59Z</time>
      </trkpt>
      <trkpt lat="42.033442" lon="0.899083">
        <ele>1169.0</ele>
        <time>2015-08-29T09:50:00Z</time>
      </trkpt>
      <trkpt lat="42.033403" lon="0.899172">
        <ele>1172.0</ele>
        <time>2015-08-29T09:50:01Z</time>
      </trkpt>
      <trkpt lat="42.033368" lon="0.899240">
        <ele>1174.0</ele>
        <time>2015-08-29T09:50:02Z</time>
      </trkpt>
      <trkpt lat="42.033327" lon="0.899287">
        <ele>1176.0</ele>
        <time>2015-08-29T09:50:03Z</time>
      </trkpt>
      <trkpt lat="42.033287" lon="0.899315">
        <ele>1177.0</ele>
        <time>2015-08-29T09:50:04Z</time>
      </trkpt>
      <trkpt lat="42.033247" lon="0.899350">
        <ele>1179.0</ele>
        <time>2015-08-29T09:50:05Z</time>
      </trkpt>
      <trkpt lat="42.033210" lon="0.899395">
        <ele>1181.0</ele>
        <time>2015-08-29T09:50:06Z</time>
      </trkpt>
      <trkpt lat="42.033175" lon="0.899453">
        <ele>1182.0</ele>
        <time>2015-08-29T09:50:07Z</time>
      </trkpt>
      <trkpt lat="42.033145" lon="0.899518">
        <ele>1183.0</ele>
        <time>2015-08-29T09:50:08Z</time>
      </trkpt>
      <trkpt lat="42.033115" lon="0.899588">
        <ele>1182.0</ele>
        <time>2015-08-29T09:50:09Z</time>
      </trkpt>
      <trkpt lat="42.033083" lon="0.899668">
        <ele>1181.0</ele>
        <time>2015-08-29T09:50:10Z</time>
      </trkpt>
      <trkpt lat="42.033050" lon="0.899760">
        <ele>1181.0</ele>
        <time>2015-08-29T09:50:11Z</time>
      </trkpt>
      <trkpt lat="42.033018" lon="0.899863">
        <ele>1182.0</ele>
        <time>2015-08-29T09:50:12Z</time>
      </trkpt>
      <trkpt lat="42.032990" lon="0.899962">
        <ele>1183.0</ele>
        <time>2015-08-29T09:50:13Z</time>
      </trkpt>
      <trkpt lat="42.032960" lon="0.900057">
        <ele>1183.0</ele>
        <time>2015-08-29T09:50:14Z</time>
      </trkpt>
      <trkpt lat="42.032937" lon="0.900133">
        <ele>1185.0</ele>
        <time>2015-08-29T09:50:15Z</time>
      </trkpt>
      <trkpt lat="42.032907" lon="0.900218">
        <ele>1186.0</ele>
        <time>2015-08-29T09:50:16Z</time>
      </trkpt>
      <trkpt lat="42.032867" lon="0.900305">
        <ele>1187.0</ele>
        <time>2015-08-29T09:50:17Z</time>
      </trkpt>
      <trkpt lat="42.032832" lon="0.900380">
        <ele>1188.0</ele>
        <time>2015-08-29T09:50:18Z</time>
      </trkpt>
      <trkpt lat="42.032802" lon="0.900445">
        <ele>1190.0</ele>
        <time>2015-08-29T09:50:19Z</time>
      </trkpt>
      <trkpt lat="42.032773" lon="0.900508">
        <ele>1191.0</ele>
        <time>2015-08-29T09:50:20Z</time>
      </trkpt>
      <trkpt lat="42.032747" lon="0.900573">
        <ele>1192.0</ele>
        <time>2015-08-29T09:50:21Z</time>
      </trkpt>
      <trkpt lat="42.032712" lon="0.900642">
        <ele>1193.0</ele>
        <time>2015-08-29T09:50:22Z</time>
      </trkpt>
      <trkpt lat="42.032660" lon="0.900718">
        <ele>1195.0</ele>
        <time>2015-08-29T09:50:23Z</time>
      </trkpt>
      <trkpt lat="42.032618" lon="0.900780">
        <ele>1196.0</ele>
        <time>2015-08-29T09:50:24Z</time>
      </trkpt>
      <trkpt lat="42.032573" lon="0.900852">
        <ele>1199.0</ele>
        <time>2015-08-29T09:50:25Z</time>
      </trkpt>
      <trkpt lat="42.032532" lon="0.900923">
        <ele>1201.0</ele>
        <time>2015-08-29T09:50:26Z</time>
      </trkpt>
      <trkpt lat="42.032487" lon="0.900993">
        <ele>1202.0</ele>
        <time>2015-08-29T09:50:27Z</time>
      </trkpt>
      <trkpt lat="42.032435" lon="0.901058">
        <ele>1204.0</ele>
        <time>2015-08-29T09:50:28Z</time>
      </trkpt>
      <trkpt lat="42.032385" lon="0.901117">
        <ele>1207.0</ele>
        <time>2015-08-29T09:50:29Z</time>
      </trkpt>
      <trkpt lat="42.032332" lon="0.901173">
        <ele>1209.0</ele>
        <time>2015-08-29T09:50:30Z</time>
      </trkpt>
      <trkpt lat="42.032282" lon="0.901232">
        <ele>1209.0</ele>
        <time>2015-08-29T09:50:31Z</time>
      </trkpt>
      <trkpt lat="42.032245" lon="0.901290">
        <ele>1211.0</ele>
        <time>2015-08-29T09:50:32Z</time>
      </trkpt>
      <trkpt lat="42.032193" lon="0.901352">
        <ele>1211.0</ele>
        <time>2015-08-29T09:50:33Z</time>
      </trkpt>
      <trkpt lat="42.032130" lon="0.901413">
        <ele>1211.0</ele>
        <time>2015-08-29T09:50:34Z</time>
      </trkpt>
      <trkpt lat="42.032072" lon="0.901475">
        <ele>1211.0</ele>
        <time>2015-08-29T09:50:35Z</time>
      </trkpt>
      <trkpt lat="42.032018" lon="0.901538">
        <ele>1212.0</ele>
        <time>2015-08-29T09:50:36Z</time>
      </trkpt>
      <trkpt lat="42.031970" lon="0.901607">
        <ele>1213.0</ele>
        <time>2015-08-29T09:50:37Z</time>
      </trkpt>
      <trkpt lat="42.031932" lon="0.901672">
        <ele>1214.0</ele>
        <time>2015-08-29T09:50:38Z</time>
      </trkpt>
      <trkpt lat="42.031892" lon="0.901723">
        <ele>1215.0</ele>
        <time>2015-08-29T09:50:39Z</time>
      </trkpt>
      <trkpt lat="42.031850" lon="0.901760">
        <ele>1217.0</ele>
        <time>2015-08-29T09:50:40Z</time>
      </trkpt>
      <trkpt lat="42.031807" lon="0.901798">
        <ele>1219.0</ele>
        <time>2015-08-29T09:50:41Z</time>
      </trkpt>
      <trkpt lat="42.031760" lon="0.901855">
        <ele>1221.0</ele>
        <time>2015-08-29T09:50:42Z</time>
      </trkpt>
      <trkpt lat="42.031717" lon="0.901930">
        <ele>1223.0</ele>
        <time>2015-08-29T09:50:43Z</time>
      </trkpt>
      <trkpt lat="42.031677" lon="0.902013">
        <ele>1225.0</ele>
        <time>2015-08-29T09:50:44Z</time>
      </trkpt>
      <trkpt lat="42.031643" lon="0.902093">
        <ele>1226.0</ele>
        <time>2015-08-29T09:50:45Z</time>
      </trkpt>
      <trkpt lat="42.031617" lon="0.902175">
        <ele>1226.0</ele>
        <time>2015-08-29T09:50:46Z</time>
      </trkpt>
      <trkpt lat="42.031592" lon="0.902248">
        <ele>1227.0</ele>
        <time>2015-08-29T09:50:47Z</time>
      </trkpt>
      <trkpt lat="42.031558" lon="0.902322">
        <ele>1228.0</ele>
        <time>2015-08-29T09:50:48Z</time>
      </trkpt>
      <trkpt lat="42.031518" lon="0.902377">
        <ele>1231.0</ele>
        <time>2015-08-29T09:50:49Z</time>
      </trkpt>
      <trkpt lat="42.031470" lon="0.902450">
        <ele>1232.0</ele>
        <time>2015-08-29T09:50:50Z</time>
      </trkpt>
      <trkpt lat="42.031422" lon="0.902545">
        <ele>1233.0</ele>
        <time>2015-08-29T09:50:51Z</time>
      </trkpt>
      <trkpt lat="42.031380" lon="0.902652">
        <ele>1233.0</ele>
        <time>2015-08-29T09:50:52Z</time>
      </trkpt>
      <trkpt lat="42.031347" lon="0.902763">
        <ele>1233.0</ele>
        <time>2015-08-29T09:50:53Z</time>
      </trkpt>
      <trkpt lat="42.031325" lon="0.902850">
        <ele>1234.0</ele>
        <time>2015-08-29T09:50:54Z</time>
      </trkpt>
      <trkpt lat="42.031305" lon="0.902918">
        <ele>1235.0</ele>
        <time>2015-08-29T09:50:55Z</time>
      </trkpt>
      <trkpt lat="42.031275" lon="0.902975">
        <ele>1236.0</ele>
        <time>2015-08-29T09:50:56Z</time>
      </trkpt>
      <trkpt lat="42.031230" lon="0.903027">
        <ele>1237.0</ele>
        <time>2015-08-29T09:50:57Z</time>
      </trkpt>
      <trkpt lat="42.031170" lon="0.903088">
        <ele>1238.0</ele>
        <time>2015-08-29T09:50:58Z</time>
      </trkpt>
      <trkpt lat="42.031103" lon="0.903165">
        <ele>1239.0</ele>
        <time>2015-08-29T09:50:59Z</time>
      </trkpt>
      <trkpt lat="42.031053" lon="0.903250">
        <ele>1241.0</ele>
        <time>2015-08-29T09:51:00Z</time>
      </trkpt>
      <trkpt lat="42.031013" lon="0.903333">
        <ele>1242.0</ele>
        <time>2015-08-29T09:51:01Z</time>
      </trkpt>
      <trkpt lat="42.030980" lon="0.903422">
        <ele>1243.0</ele>
        <time>2015-08-29T09:51:02Z</time>
      </trkpt>
      <trkpt lat="42.030943" lon="0.903508">
        <ele>1244.0</ele>
        <time>2015-08-29T09:51:03Z</time>
      </trkpt>
      <trkpt lat="42.030902" lon="0.903600">
        <ele>1246.0</ele>
        <time>2015-08-29T09:51:04Z</time>
      </trkpt>
      <trkpt lat="42.030855" lon="0.903693">
        <ele>1246.0</ele>
        <time>2015-08-29T09:51:05Z</time>
      </trkpt>
      <trkpt lat="42.030810" lon="0.903763">
        <ele>1249.0</ele>
        <time>2015-08-29T09:51:06Z</time>
      </trkpt>
      <trkpt lat="42.030762" lon="0.903845">
        <ele>1249.0</ele>
        <time>2015-08-29T09:51:07Z</time>
      </trkpt>
      <trkpt lat="42.030710" lon="0.903940">
        <ele>1249.0</ele>
        <time>2015-08-29T09:51:08Z</time>
      </trkpt>
      <trkpt lat="42.030655" lon="0.904025">
        <ele>1249.0</ele>
        <time>2015-08-29T09:51:09Z</time>
      </trkpt>
      <trkpt lat="42.030597" lon="0.904103">
        <ele>1250.0</ele>
        <time>2015-08-29T09:51:10Z</time>
      </trkpt>
      <trkpt lat="42.030535" lon="0.904182">
        <ele>1250.0</ele>
        <time>2015-08-29T09:51:11Z</time>
      </trkpt>
      <trkpt lat="42.030475" lon="0.904265">
        <ele>1252.0</ele>
        <time>2015-08-29T09:51:12Z</time>
      </trkpt>
      <trkpt lat="42.030420" lon="0.904353">
        <ele>1252.0</ele>
        <time>2015-08-29T09:51:13Z</time>
      </trkpt>
      <trkpt lat="42.030375" lon="0.904440">
        <ele>1253.0</ele>
        <time>2015-08-29T09:51:14Z</time>
      </trkpt>
      <trkpt lat="42.030328" lon="0.904517">
        <ele>1254.0</ele>
        <time>2015-08-29T09:51:15Z</time>
      </trkpt>
      <trkpt lat="42.030277" lon="0.904588">
        <ele>1255.0</ele>
        <time>2015-08-29T09:51:16Z</time>
      </trkpt>
      <trkpt lat="42.030222" lon="0.904662">
        <ele>1257.0</ele>
        <time>2015-08-29T09:51:17Z</time>
      </trkpt>
      <trkpt lat="42.030162" lon="0.904745">
        <ele>1258.0</ele>
        <time>2015-08-29T09:51:18Z</time>
      </trkpt>
      <trkpt lat="42.030105" lon="0.904825">
        <ele>1259.0</ele>
        <time>2015-08-29T09:51:19Z</time>
      </trkpt>
      <trkpt lat="42.030048" lon="0.904893">
        <ele>1260.0</ele>
        <time>2015-08-29T09:51:20Z</time>
      </trkpt>
      <trkpt lat="42.029987" lon="0.904955">
        <ele>1260.0</ele>
        <time>2015-08-29T09:51:21Z</time>
      </trkpt>
      <trkpt lat="42.029907" lon="0.905025">
        <ele>1260.0</ele>
        <time>2015-08-29T09:51:22Z</time>
      </trkpt>
      <trkpt lat="42.029825" lon="0.905083">
        <ele>1262.0</ele>
        <time>2015-08-29T09:51:23Z</time>
      </trkpt>
      <trkpt lat="42.029755" lon="0.905178">
        <ele>1261.0</ele>
        <time>2015-08-29T09:51:24Z</time>
      </trkpt>
      <trkpt lat="42.029695" lon="0.905285">
        <ele>1261.0</ele>
        <time>2015-08-29T09:51:25Z</time>
      </trkpt>
      <trkpt lat="42.029642" lon="0.905382">
        <ele>1260.0</ele>
        <time>2015-08-29T09:51:26Z</time>
      </trkpt>
      <trkpt lat="42.029592" lon="0.905465">
        <ele>1260.0</ele>
        <time>2015-08-29T09:51:27Z</time>
      </trkpt>
      <trkpt lat="42.029538" lon="0.905543">
        <ele>1260.0</ele>
        <time>2015-08-29T09:51:28Z</time>
      </trkpt>
      <trkpt lat="42.029483" lon="0.905610">
        <ele>1260.0</ele>
        <time>2015-08-29T09:51:29Z</time>
      </trkpt>
      <trkpt lat="42.029427" lon="0.905673">
        <ele>1260.0</ele>
        <time>2015-08-29T09:51:30Z</time>
      </trkpt>
      <trkpt lat="42.029367" lon="0.905748">
        <ele>1260.0</ele>
        <time>2015-08-29T09:51:31Z</time>
      </trkpt>
      <trkpt lat="42.029303" lon="0.905835">
        <ele>1260.0</ele>
        <time>2015-08-29T09:51:32Z</time>
      </trkpt>
      <trkpt lat="42.029247" lon="0.905937">
        <ele>1260.0</ele>
        <time>2015-08-29T09:51:33Z</time>
      </trkpt>
      <trkpt lat="42.029193" lon="0.906040">
        <ele>1261.0</ele>
        <time>2015-08-29T09:51:34Z</time>
      </trkpt>
      <trkpt lat="42.029140" lon="0.906143">
        <ele>1261.0</ele>
        <time>2015-08-29T09:51:35Z</time>
      </trkpt>
      <trkpt lat="42.029088" lon="0.906247">
        <ele>1262.0</ele>
        <time>2015-08-29T09:51:36Z</time>
      </trkpt>
      <trkpt lat="42.029043" lon="0.906350">
        <ele>1263.0</ele>
        <time>2015-08-29T09:51:37Z</time>
      </trkpt>
      <trkpt lat="42.029002" lon="0.906448">
        <ele>1264.0</ele>
        <time>2015-08-29T09:51:38Z</time>
      </trkpt>
      <trkpt lat="42.028970" lon="0.906543">
        <ele>1264.0</ele>
        <time>2015-08-29T09:51:39Z</time>
      </trkpt>
      <trkpt lat="42.028943" lon="0.906612">
        <ele>1265.0</ele>
        <time>2015-08-29T09:51:40Z</time>
      </trkpt>
      <trkpt lat="42.028917" lon="0.906685">
        <ele>1265.0</ele>
        <time>2015-08-29T09:51:41Z</time>
      </trkpt>
      <trkpt lat="42.028883" lon="0.906782">
        <ele>1264.0</ele>
        <time>2015-08-29T09:51:42Z</time>
      </trkpt>
      <trkpt lat="42.028842" lon="0.906885">
        <ele>1264.0</ele>
        <time>2015-08-29T09:51:43Z</time>
      </trkpt>
      <trkpt lat="42.028795" lon="0.906998">
        <ele>1263.0</ele>
        <time>2015-08-29T09:51:44Z</time>
      </trkpt>
      <trkpt lat="42.028757" lon="0.907110">
        <ele>1262.0</ele>
        <time>2015-08-29T09:51:45Z</time>
      </trkpt>
      <trkpt lat="42.028728" lon="0.907218">
        <ele>1262.0</ele>
        <time>2015-08-29T09:51:46Z</time>
      </trkpt>
      <trkpt lat="42.028705" lon="0.907317">
        <ele>1262.0</ele>
        <time>2015-08-29T09:51:47Z</time>
      </trkpt>
      <trkpt lat="42.028673" lon="0.907415">
        <ele>1261.0</ele>
        <time>2015-08-29T09:51:48Z</time>
      </trkpt>
      <trkpt lat="42.028632" lon="0.907507">
        <ele>1261.0</ele>
        <time>2015-08-29T09:51:49Z</time>
      </trkpt>
      <trkpt lat="42.028578" lon="0.907602">
        <ele>1260.0</ele>
        <time>2015-08-29T09:51:50Z</time>
      </trkpt>
      <trkpt lat="42.028525" lon="0.907683">
        <ele>1260.0</ele>
        <time>2015-08-29T09:51:51Z</time>
      </trkpt>
      <trkpt lat="42.028477" lon="0.907748">
        <ele>1259.0</ele>
        <time>2015-08-29T09:51:52Z</time>
      </trkpt>
      <trkpt lat="42.028435" lon="0.907797">
        <ele>1259.0</ele>
        <time>2015-08-29T09:51:53Z</time>
      </trkpt>
      <trkpt lat="42.028393" lon="0.907830">
        <ele>1258.0</ele>
        <time>2015-08-29T09:51:54Z</time>
      </trkpt>
      <trkpt lat="42.028347" lon="0.907862">
        <ele>1257.0</ele>
        <time>2015-08-29T09:51:55Z</time>
      </trkpt>
      <trkpt lat="42.028282" lon="0.907888">
        <ele>1257.0</ele>
        <time>2015-08-29T09:51:56Z</time>
      </trkpt>
      <trkpt lat="42.028217" lon="0.907900">
        <ele>1257.0</ele>
        <time>2015-08-29T09:51:57Z</time>
      </trkpt>
      <trkpt lat="42.028145" lon="0.907937">
        <ele>1255.0</ele>
        <time>2015-08-29T09:51:58Z</time>
      </trkpt>
      <trkpt lat="42.028077" lon="0.907987">
        <ele>1253.0</ele>
        <time>2015-08-29T09:51:59Z</time>
      </trkpt>
      <trkpt lat="42.028010" lon="0.908020">
        <ele>1253.0</ele>
        <time>2015-08-29T09:52:00Z</time>
      </trkpt>
      <trkpt lat="42.027935" lon="0.908083">
        <ele>1252.0</ele>
        <time>2015-08-29T09:52:01Z</time>
      </trkpt>
      <trkpt lat="42.027860" lon="0.908148">
        <ele>1251.0</ele>
        <time>2015-08-29T09:52:02Z</time>
      </trkpt>
      <trkpt lat="42.027780" lon="0.908203">
        <ele>1250.0</ele>
        <time>2015-08-29T09:52:03Z</time>
      </trkpt>
      <trkpt lat="42.027707" lon="0.908232">
        <ele>1249.0</ele>
        <time>2015-08-29T09:52:04Z</time>
      </trkpt>
      <trkpt lat="42.027625" lon="0.908277">
        <ele>1248.0</ele>
        <time>2015-08-29T09:52:05Z</time>
      </trkpt>
      <trkpt lat="42.027548" lon="0.908327">
        <ele>1248.0</ele>
        <time>2015-08-29T09:52:06Z</time>
      </trkpt>
      <trkpt lat="42.027472" lon="0.908375">
        <ele>1248.0</ele>
        <time>2015-08-29T09:52:07Z</time>
      </trkpt>
      <trkpt lat="42.027393" lon="0.908428">
        <ele>1248.0</ele>
        <time>2015-08-29T09:52:08Z</time>
      </trkpt>
      <trkpt lat="42.027310" lon="0.908492">
        <ele>1249.0</ele>
        <time>2015-08-29T09:52:09Z</time>
      </trkpt>
      <trkpt lat="42.027232" lon="0.908557">
        <ele>1250.0</ele>
        <time>2015-08-29T09:52:10Z</time>
      </trkpt>
      <trkpt lat="42.027162" lon="0.908630">
        <ele>1251.0</ele>
        <time>2015-08-29T09:52:11Z</time>
      </trkpt>
      <trkpt lat="42.027098" lon="0.908708">
        <ele>1252.0</ele>
        <time>2015-08-29T09:52:12Z</time>
      </trkpt>
      <trkpt lat="42.027035" lon="0.908807">
        <ele>1252.0</ele>
        <time>2015-08-29T09:52:13Z</time>
      </trkpt>
      <trkpt lat="42.026975" lon="0.908908">
        <ele>1253.0</ele>
        <time>2015-08-29T09:52:14Z</time>
      </trkpt>
      <trkpt lat="42.026930" lon="0.909062">
        <ele>1252.0</ele>
        <time>2015-08-29T09:52:15Z</time>
      </trkpt>
      <trkpt lat="42.026903" lon="0.909223">
        <ele>1251.0</ele>
        <time>2015-08-29T09:52:16Z</time>
      </trkpt>
      <trkpt lat="42.026887" lon="0.909372">
        <ele>1250.0</ele>
        <time>2015-08-29T09:52:17Z</time>
      </trkpt>
      <trkpt lat="42.026887" lon="0.909515">
        <ele>1250.0</ele>
        <time>2015-08-29T09:52:18Z</time>
      </trkpt>
      <trkpt lat="42.026885" lon="0.909648">
        <ele>1250.0</ele>
        <time>2015-08-29T09:52:19Z</time>
      </trkpt>
      <trkpt lat="42.026882" lon="0.909782">
        <ele>1250.0</ele>
        <time>2015-08-29T09:52:20Z</time>
      </trkpt>
      <trkpt lat="42.026883" lon="0.909918">
        <ele>1250.0</ele>
        <time>2015-08-29T09:52:21Z</time>
      </trkpt>
      <trkpt lat="42.026873" lon="0.910040">
        <ele>1251.0</ele>
        <time>2015-08-29T09:52:22Z</time>
      </trkpt>
      <trkpt lat="42.026863" lon="0.910160">
        <ele>1253.0</ele>
        <time>2015-08-29T09:52:23Z</time>
      </trkpt>
      <trkpt lat="42.026855" lon="0.910285">
        <ele>1255.0</ele>
        <time>2015-08-29T09:52:24Z</time>
      </trkpt>
      <trkpt lat="42.026852" lon="0.910417">
        <ele>1257.0</ele>
        <time>2015-08-29T09:52:25Z</time>
      </trkpt>
      <trkpt lat="42.026847" lon="0.910540">
        <ele>1259.0</ele>
        <time>2015-08-29T09:52:26Z</time>
      </trkpt>
      <trkpt lat="42.026838" lon="0.910658">
        <ele>1261.0</ele>
        <time>2015-08-29T09:52:27Z</time>
      </trkpt>
      <trkpt lat="42.026818" lon="0.910762">
        <ele>1262.0</ele>
        <time>2015-08-29T09:52:28Z</time>
      </trkpt>
      <trkpt lat="42.026798" lon="0.910852">
        <ele>1263.0</ele>
        <time>2015-08-29T09:52:29Z</time>
      </trkpt>
      <trkpt lat="42.026780" lon="0.910935">
        <ele>1266.0</ele>
        <time>2015-08-29T09:52:30Z</time>
      </trkpt>
      <trkpt lat="42.026753" lon="0.911028">
        <ele>1269.0</ele>
        <time>2015-08-29T09:52:31Z</time>
      </trkpt>
      <trkpt lat="42.026717" lon="0.911138">
        <ele>1269.0</ele>
        <time>2015-08-29T09:52:32Z</time>
      </trkpt>
      <trkpt lat="42.026673" lon="0.911237">
        <ele>1269.0</ele>
        <time>2015-08-29T09:52:33Z</time>
      </trkpt>
      <trkpt lat="42.026628" lon="0.911312">
        <ele>1270.0</ele>
        <time>2015-08-29T09:52:34Z</time>
      </trkpt>
      <trkpt lat="42.026587" lon="0.911382">
        <ele>1270.0</ele>
        <time>2015-08-29T09:52:35Z</time>
      </trkpt>
      <trkpt lat="42.026550" lon="0.911440">
        <ele>1271.0</ele>
        <time>2015-08-29T09:52:36Z</time>
      </trkpt>
      <trkpt lat="42.026522" lon="0.911488">
        <ele>1272.0</ele>
        <time>2015-08-29T09:52:37Z</time>
      </trkpt>
      <trkpt lat="42.026473" lon="0.911545">
        <ele>1274.0</ele>
        <time>2015-08-29T09:52:39Z</time>
      </trkpt>
      <trkpt lat="42.026438" lon="0.911570">
        <ele>1275.0</ele>
        <time>2015-08-29T09:52:40Z</time>
      </trkpt>
      <trkpt lat="42.026393" lon="0.911593">
        <ele>1276.0</ele>
        <time>2015-08-29T09:52:41Z</time>
      </trkpt>
      <trkpt lat="42.026347" lon="0.911607">
        <ele>1277.0</ele>
        <time>2015-08-29T09:52:42Z</time>
      </trkpt>
      <trkpt lat="42.026295" lon="0.911588">
        <ele>1278.0</ele>
        <time>2015-08-29T09:52:43Z</time>
      </trkpt>
      <trkpt lat="42.026237" lon="0.911480">
        <ele>1279.0</ele>
        <time>2015-08-29T09:52:45Z</time>
      </trkpt>
      <trkpt lat="42.026297" lon="0.911403">
        <ele>1279.0</ele>
        <time>2015-08-29T09:52:47Z</time>
      </trkpt>
      <trkpt lat="42.026327" lon="0.911328">
        <ele>1280.0</ele>
        <time>2015-08-29T09:52:48Z</time>
      </trkpt>
      <trkpt lat="42.026380" lon="0.911242">
        <ele>1279.0</ele>
        <time>2015-08-29T09:52:49Z</time>
      </trkpt>
      <trkpt lat="42.026437" lon="0.911157">
        <ele>1279.0</ele>
        <time>2015-08-29T09:52:50Z</time>
      </trkpt>
      <trkpt lat="42.026498" lon="0.911065">
        <ele>1278.0</ele>
        <time>2015-08-29T09:52:51Z</time>
      </trkpt>
      <trkpt lat="42.026553" lon="0.910963">
        <ele>1278.0</ele>
        <time>2015-08-29T09:52:52Z</time>
      </trkpt>
      <trkpt lat="42.026610" lon="0.910848">
        <ele>1277.0</ele>
        <time>2015-08-29T09:52:53Z</time>
      </trkpt>
      <trkpt lat="42.026682" lon="0.910727">
        <ele>1277.0</ele>
        <time>2015-08-29T09:52:54Z</time>
      </trkpt>
      <trkpt lat="42.026753" lon="0.910622">
        <ele>1276.0</ele>
        <time>2015-08-29T09:52:55Z</time>
      </trkpt>
      <trkpt lat="42.026797" lon="0.910482">
        <ele>1278.0</ele>
        <time>2015-08-29T09:52:56Z</time>
      </trkpt>
      <trkpt lat="42.026842" lon="0.910352">
        <ele>1279.0</ele>
        <time>2015-08-29T09:52:57Z</time>
      </trkpt>
      <trkpt lat="42.026897" lon="0.910187">
        <ele>1280.0</ele>
        <time>2015-08-29T09:52:58Z</time>
      </trkpt>
      <trkpt lat="42.026930" lon="0.910023">
        <ele>1281.0</ele>
        <time>2015-08-29T09:52:59Z</time>
      </trkpt>
      <trkpt lat="42.026962" lon="0.909867">
        <ele>1282.0</ele>
        <time>2015-08-29T09:53:00Z</time>
      </trkpt>
      <trkpt lat="42.027060" lon="0.909708">
        <ele>1287.0</ele>
        <time>2015-08-29T09:53:01Z</time>
      </trkpt>
      <trkpt lat="42.027110" lon="0.909530">
        <ele>1293.0</ele>
        <time>2015-08-29T09:53:02Z</time>
      </trkpt>
      <trkpt lat="42.027015" lon="0.909318">
        <ele>1297.0</ele>
        <time>2015-08-29T09:53:03Z</time>
      </trkpt>
      <trkpt lat="42.026995" lon="0.909208">
        <ele>1300.0</ele>
        <time>2015-08-29T09:53:04Z</time>
      </trkpt>
      <trkpt lat="42.026988" lon="0.909112">
        <ele>1302.0</ele>
        <time>2015-08-29T09:53:05Z</time>
      </trkpt>
      <trkpt lat="42.026960" lon="0.909015">
        <ele>1305.0</ele>
        <time>2015-08-29T09:53:06Z</time>
      </trkpt>
      <trkpt lat="42.026912" lon="0.908918">
        <ele>1309.0</ele>
        <time>2015-08-29T09:53:07Z</time>
      </trkpt>
      <trkpt lat="42.026870" lon="0.908843">
        <ele>1313.0</ele>
        <time>2015-08-29T09:53:08Z</time>
      </trkpt>
      <trkpt lat="42.026820" lon="0.908812">
        <ele>1315.0</ele>
        <time>2015-08-29T09:53:09Z</time>
      </trkpt>
      <trkpt lat="42.026770" lon="0.908810">
        <ele>1318.0</ele>
        <time>2015-08-29T09:53:10Z</time>
      </trkpt>
      <trkpt lat="42.026703" lon="0.908805">
        <ele>1323.0</ele>
        <time>2015-08-29T09:53:11Z</time>
      </trkpt>
      <trkpt lat="42.026643" lon="0.908810">
        <ele>1329.0</ele>
        <time>2015-08-29T09:53:12Z</time>
      </trkpt>
      <trkpt lat="42.026545" lon="0.908823">
        <ele>1339.0</ele>
        <time>2015-08-29T09:53:13Z</time>
      </trkpt>
      <trkpt lat="42.026475" lon="0.908867">
        <ele>1345.0</ele>
        <time>2015-08-29T09:53:14Z</time>
      </trkpt>
      <trkpt lat="42.026400" lon="0.908942">
        <ele>1352.0</ele>
        <time>2015-08-29T09:53:15Z</time>
      </trkpt>
      <trkpt lat="42.026345" lon="0.909035">
        <ele>1358.0</ele>
        <time>2015-08-29T09:53:16Z</time>
      </trkpt>
      <trkpt lat="42.026307" lon="0.909132">
        <ele>1363.0</ele>
        <time>2015-08-29T09:53:17Z</time>
      </trkpt>
      <trkpt lat="42.026285" lon="0.909230">
        <ele>1366.0</ele>
        <time>2015-08-29T09:53:18Z</time>
      </trkpt>
      <trkpt lat="42.026275" lon="0.909307">
        <ele>1371.0</ele>
        <time>2015-08-29T09:53:19Z</time>
      </trkpt>
      <trkpt lat="42.026265" lon="0.909393">
        <ele>1376.0</ele>
        <time>2015-08-29T09:53:20Z</time>
      </trkpt>
      <trkpt lat="42.026242" lon="0.909463">
        <ele>1384.0</ele>
        <time>2015-08-29T09:53:21Z</time>
      </trkpt>
      <trkpt lat="42.026238" lon="0.909557">
        <ele>1389.0</ele>
        <time>2015-08-29T09:53:22Z</time>
      </trkpt>
      <trkpt lat="42.026262" lon="0.909645">
        <ele>1394.0</ele>
        <time>2015-08-29T09:53:23Z</time>
      </trkpt>
      <trkpt lat="42.026297" lon="0.909725">
        <ele>1398.0</ele>
        <time>2015-08-29T09:53:24Z</time>
      </trkpt>
      <trkpt lat="42.026350" lon="0.909792">
        <ele>1403.0</ele>
        <time>2015-08-29T09:53:25Z</time>
      </trkpt>
      <trkpt lat="42.026403" lon="0.909837">
        <ele>1405.0</ele>
        <time>2015-08-29T09:53:26Z</time>
      </trkpt>
      <trkpt lat="42.026455" lon="0.909872">
        <ele>1408.0</ele>
        <time>2015-08-29T09:53:27Z</time>
      </trkpt>
      <trkpt lat="42.026508" lon="0.909910">
        <ele>1412.0</ele>
        <time>2015-08-29T09:53:28Z</time>
      </trkpt>
      <trkpt lat="42.026577" lon="0.909950">
        <ele>1415.0</ele>
        <time>2015-08-29T09:53:29Z</time>
      </trkpt>
      <trkpt lat="42.026660" lon="0.909975">
        <ele>1419.0</ele>
        <time>2015-08-29T09:53:30Z</time>
      </trkpt>
      <trkpt lat="42.026752" lon="0.909975">
        <ele>1422.0</ele>
        <time>2015-08-29T09:53:31Z</time>
      </trkpt>
      <trkpt lat="42.026835" lon="0.909943">
        <ele>1427.0</ele>
        <time>2015-08-29T09:53:32Z</time>
      </trkpt>
      <trkpt lat="42.026910" lon="0.909870">
        <ele>1427.0</ele>
        <time>2015-08-29T09:53:33Z</time>
      </trkpt>
      <trkpt lat="42.026982" lon="0.909792">
        <ele>1429.0</ele>
        <time>2015-08-29T09:53:34Z</time>
      </trkpt>
      <trkpt lat="42.027052" lon="0.909712">
        <ele>1431.0</ele>
        <time>2015-08-29T09:53:35Z</time>
      </trkpt>
      <trkpt lat="42.027120" lon="0.909638">
        <ele>1433.0</ele>
        <time>2015-08-29T09:53:36Z</time>
      </trkpt>
      <trkpt lat="42.027173" lon="0.909555">
        <ele>1434.0</ele>
        <time>2015-08-29T09:53:37Z</time>
      </trkpt>
      <trkpt lat="42.027202" lon="0.909493">
        <ele>1438.0</ele>
        <time>2015-08-29T09:53:38Z</time>
      </trkpt>
      <trkpt lat="42.027220" lon="0.909403">
        <ele>1442.0</ele>
        <time>2015-08-29T09:53:39Z</time>
      </trkpt>
      <trkpt lat="42.027228" lon="0.909297">
        <ele>1443.0</ele>
        <time>2015-08-29T09:53:40Z</time>
      </trkpt>
      <trkpt lat="42.027227" lon="0.909192">
        <ele>1446.0</ele>
        <time>2015-08-29T09:53:41Z</time>
      </trkpt>
      <trkpt lat="42.027213" lon="0.909097">
        <ele>1448.0</ele>
        <time>2015-08-29T09:53:42Z</time>
      </trkpt>
      <trkpt lat="42.027193" lon="0.909018">
        <ele>1450.0</ele>
        <time>2015-08-29T09:53:43Z</time>
      </trkpt>
      <trkpt lat="42.027165" lon="0.908958">
        <ele>1453.0</ele>
        <time>2015-08-29T09:53:44Z</time>
      </trkpt>
      <trkpt lat="42.027125" lon="0.908920">
        <ele>1456.0</ele>
        <time>2015-08-29T09:53:45Z</time>
      </trkpt>
      <trkpt lat="42.027075" lon="0.908897">
        <ele>1460.0</ele>
        <time>2015-08-29T09:53:46Z</time>
      </trkpt>
      <trkpt lat="42.027008" lon="0.908883">
        <ele>1462.0</ele>
        <time>2015-08-29T09:53:47Z</time>
      </trkpt>
      <trkpt lat="42.026953" lon="0.908887">
        <ele>1466.0</ele>
        <time>2015-08-29T09:53:48Z</time>
      </trkpt>
      <trkpt lat="42.026902" lon="0.908902">
        <ele>1469.0</ele>
        <time>2015-08-29T09:53:49Z</time>
      </trkpt>
      <trkpt lat="42.026852" lon="0.908932">
        <ele>1475.0</ele>
        <time>2015-08-29T09:53:50Z</time>
      </trkpt>
      <trkpt lat="42.026802" lon="0.908963">
        <ele>1480.0</ele>
        <time>2015-08-29T09:53:51Z</time>
      </trkpt>
      <trkpt lat="42.026748" lon="0.909012">
        <ele>1484.0</ele>
        <time>2015-08-29T09:53:52Z</time>
      </trkpt>
      <trkpt lat="42.026710" lon="0.909073">
        <ele>1487.0</ele>
        <time>2015-08-29T09:53:53Z</time>
      </trkpt>
      <trkpt lat="42.026672" lon="0.909120">
        <ele>1490.0</ele>
        <time>2015-08-29T09:53:54Z</time>
      </trkpt>
      <trkpt lat="42.026655" lon="0.909177">
        <ele>1491.0</ele>
        <time>2015-08-29T09:53:55Z</time>
      </trkpt>
      <trkpt lat="42.026643" lon="0.909242">
        <ele>1493.0</ele>
        <time>2015-08-29T09:53:56Z</time>
      </trkpt>
      <trkpt lat="42.026615" lon="0.909308">
        <ele>1495.0</ele>
        <time>2015-08-29T09:53:57Z</time>
      </trkpt>
      <trkpt lat="42.026618" lon="0.909392">
        <ele>1495.0</ele>
        <time>2015-08-29T09:53:58Z</time>
      </trkpt>
      <trkpt lat="42.026580" lon="0.909503">
        <ele>1497.0</ele>
        <time>2015-08-29T09:53:59Z</time>
      </trkpt>
      <trkpt lat="42.026572" lon="0.909613">
        <ele>1498.0</ele>
        <time>2015-08-29T09:54:00Z</time>
      </trkpt>
      <trkpt lat="42.026612" lon="0.909695">
        <ele>1499.0</ele>
        <time>2015-08-29T09:54:01Z</time>
      </trkpt>
      <trkpt lat="42.026695" lon="0.909730">
        <ele>1500.0</ele>
        <time>2015-08-29T09:54:02Z</time>
      </trkpt>
      <trkpt lat="42.026740" lon="0.909772">
        <ele>1502.0</ele>
        <time>2015-08-29T09:54:03Z</time>
      </trkpt>
      <trkpt lat="42.026802" lon="0.909862">
        <ele>1505.0</ele>
        <time>2015-08-29T09:54:04Z</time>
      </trkpt>
      <trkpt lat="42.026865" lon="0.909908">
        <ele>1506.0</ele>
        <time>2015-08-29T09:54:05Z</time>
      </trkpt>
      <trkpt lat="42.026952" lon="0.909957">
        <ele>1506.0</ele>
        <time>2015-08-29T09:54:06Z</time>
      </trkpt>
      <trkpt lat="42.027043" lon="0.909995">
        <ele>1507.0</ele>
        <time>2015-08-29T09:54:07Z</time>
      </trkpt>
      <trkpt lat="42.027132" lon="0.910020">
        <ele>1508.0</ele>
        <time>2015-08-29T09:54:08Z</time>
      </trkpt>
      <trkpt lat="42.027235" lon="0.910020">
        <ele>1509.0</ele>
        <time>2015-08-29T09:54:09Z</time>
      </trkpt>
      <trkpt lat="42.027340" lon="0.910017">
        <ele>1510.0</ele>
        <time>2015-08-29T09:54:10Z</time>
      </trkpt>
      <trkpt lat="42.027443" lon="0.910005">
        <ele>1510.0</ele>
        <time>2015-08-29T09:54:11Z</time>
      </trkpt>
      <trkpt lat="42.027543" lon="0.909973">
        <ele>1511.0</ele>
        <time>2015-08-29T09:54:12Z</time>
      </trkpt>
      <trkpt lat="42.027638" lon="0.909925">
        <ele>1512.0</ele>
        <time>2015-08-29T09:54:13Z</time>
      </trkpt>
      <trkpt lat="42.027718" lon="0.909873">
        <ele>1513.0</ele>
        <time>2015-08-29T09:54:14Z</time>
      </trkpt>
      <trkpt lat="42.027787" lon="0.909832">
        <ele>1516.0</ele>
        <time>2015-08-29T09:54:15Z</time>
      </trkpt>
      <trkpt lat="42.027848" lon="0.909807">
        <ele>1518.0</ele>
        <time>2015-08-29T09:54:16Z</time>
      </trkpt>
      <trkpt lat="42.027913" lon="0.909778">
        <ele>1520.0</ele>
        <time>2015-08-29T09:54:17Z</time>
      </trkpt>
      <trkpt lat="42.027983" lon="0.909737">
        <ele>1521.0</ele>
        <time>2015-08-29T09:54:18Z</time>
      </trkpt>
      <trkpt lat="42.028057" lon="0.909682">
        <ele>1521.0</ele>
        <time>2015-08-29T09:54:19Z</time>
      </trkpt>
      <trkpt lat="42.028127" lon="0.909618">
        <ele>1522.0</ele>
        <time>2015-08-29T09:54:20Z</time>
      </trkpt>
      <trkpt lat="42.028193" lon="0.909563">
        <ele>1524.0</ele>
        <time>2015-08-29T09:54:21Z</time>
      </trkpt>
      <trkpt lat="42.028253" lon="0.909510">
        <ele>1527.0</ele>
        <time>2015-08-29T09:54:22Z</time>
      </trkpt>
      <trkpt lat="42.028310" lon="0.909428">
        <ele>1528.0</ele>
        <time>2015-08-29T09:54:23Z</time>
      </trkpt>
      <trkpt lat="42.028360" lon="0.909348">
        <ele>1530.0</ele>
        <time>2015-08-29T09:54:24Z</time>
      </trkpt>
      <trkpt lat="42.028398" lon="0.909277">
        <ele>1531.0</ele>
        <time>2015-08-29T09:54:25Z</time>
      </trkpt>
      <trkpt lat="42.028432" lon="0.909208">
        <ele>1533.0</ele>
        <time>2015-08-29T09:54:26Z</time>
      </trkpt>
      <trkpt lat="42.028458" lon="0.909142">
        <ele>1534.0</ele>
        <time>2015-08-29T09:54:27Z</time>
      </trkpt>
      <trkpt lat="42.028472" lon="0.909058">
        <ele>1536.0</ele>
        <time>2015-08-29T09:54:28Z</time>
      </trkpt>
      <trkpt lat="42.028470" lon="0.909005">
        <ele>1539.0</ele>
        <time>2015-08-29T09:54:29Z</time>
      </trkpt>
      <trkpt lat="42.028445" lon="0.908962">
        <ele>1545.0</ele>
        <time>2015-08-29T09:54:30Z</time>
      </trkpt>
      <trkpt lat="42.028422" lon="0.908900">
        <ele>1550.0</ele>
        <time>2015-08-29T09:54:31Z</time>
      </trkpt>
      <trkpt lat="42.028403" lon="0.908855">
        <ele>1554.0</ele>
        <time>2015-08-29T09:54:32Z</time>
      </trkpt>
      <trkpt lat="42.028355" lon="0.908840">
        <ele>1565.0</ele>
        <time>2015-08-29T09:54:34Z</time>
      </trkpt>
      <trkpt lat="42.028285" lon="0.908847">
        <ele>1572.0</ele>
        <time>2015-08-29T09:54:36Z</time>
      </trkpt>
      <trkpt lat="42.028243" lon="0.908845">
        <ele>1574.0</ele>
        <time>2015-08-29T09:54:37Z</time>
      </trkpt>
      <trkpt lat="42.028177" lon="0.908862">
        <ele>1581.0</ele>
        <time>2015-08-29T09:54:39Z</time>
      </trkpt>
      <trkpt lat="42.028138" lon="0.908888">
        <ele>1584.0</ele>
        <time>2015-08-29T09:54:40Z</time>
      </trkpt>
      <trkpt lat="42.028085" lon="0.908933">
        <ele>1587.0</ele>
        <time>2015-08-29T09:54:42Z</time>
      </trkpt>
      <trkpt lat="42.028043" lon="0.908970">
        <ele>1589.0</ele>
        <time>2015-08-29T09:54:45Z</time>
      </trkpt>
      <trkpt lat="42.028025" lon="0.909075">
        <ele>1590.0</ele>
        <time>2015-08-29T09:54:47Z</time>
      </trkpt>
      <trkpt lat="42.028027" lon="0.909152">
        <ele>1590.0</ele>
        <time>2015-08-29T09:54:48Z</time>
      </trkpt>
      <trkpt lat="42.028040" lon="0.909223">
        <ele>1591.0</ele>
        <time>2015-08-29T09:54:49Z</time>
      </trkpt>
      <trkpt lat="42.028053" lon="0.909297">
        <ele>1591.0</ele>
        <time>2015-08-29T09:54:50Z</time>
      </trkpt>
      <trkpt lat="42.028055" lon="0.909368">
        <ele>1592.0</ele>
        <time>2015-08-29T09:54:51Z</time>
      </trkpt>
      <trkpt lat="42.028042" lon="0.909438">
        <ele>1592.0</ele>
        <time>2015-08-29T09:54:52Z</time>
      </trkpt>
      <trkpt lat="42.028022" lon="0.909500">
        <ele>1591.0</ele>
        <time>2015-08-29T09:54:53Z</time>
      </trkpt>
      <trkpt lat="42.028000" lon="0.909558">
        <ele>1591.0</ele>
        <time>2015-08-29T09:54:54Z</time>
      </trkpt>
      <trkpt lat="42.027977" lon="0.909598">
        <ele>1592.0</ele>
        <time>2015-08-29T09:54:55Z</time>
      </trkpt>
      <trkpt lat="42.027942" lon="0.909628">
        <ele>1594.0</ele>
        <time>2015-08-29T09:54:56Z</time>
      </trkpt>
      <trkpt lat="42.027893" lon="0.909642">
        <ele>1593.0</ele>
        <time>2015-08-29T09:54:57Z</time>
      </trkpt>
      <trkpt lat="42.027837" lon="0.909648">
        <ele>1592.0</ele>
        <time>2015-08-29T09:54:58Z</time>
      </trkpt>
      <trkpt lat="42.027780" lon="0.909655">
        <ele>1591.0</ele>
        <time>2015-08-29T09:54:59Z</time>
      </trkpt>
      <trkpt lat="42.027722" lon="0.909678">
        <ele>1590.0</ele>
        <time>2015-08-29T09:55:00Z</time>
      </trkpt>
      <trkpt lat="42.027672" lon="0.909723">
        <ele>1590.0</ele>
        <time>2015-08-29T09:55:01Z</time>
      </trkpt>
      <trkpt lat="42.027623" lon="0.909780">
        <ele>1589.0</ele>
        <time>2015-08-29T09:55:02Z</time>
      </trkpt>
      <trkpt lat="42.027580" lon="0.909837">
        <ele>1589.0</ele>
        <time>2015-08-29T09:55:03Z</time>
      </trkpt>
      <trkpt lat="42.027528" lon="0.909900">
        <ele>1588.0</ele>
        <time>2015-08-29T09:55:04Z</time>
      </trkpt>
      <trkpt lat="42.027485" lon="0.909968">
        <ele>1588.0</ele>
        <time>2015-08-29T09:55:05Z</time>
      </trkpt>
      <trkpt lat="42.027455" lon="0.910043">
        <ele>1589.0</ele>
        <time>2015-08-29T09:55:06Z</time>
      </trkpt>
      <trkpt lat="42.027422" lon="0.910135">
        <ele>1590.0</ele>
        <time>2015-08-29T09:55:07Z</time>
      </trkpt>
      <trkpt lat="42.027383" lon="0.910220">
        <ele>1590.0</ele>
        <time>2015-08-29T09:55:08Z</time>
      </trkpt>
      <trkpt lat="42.027347" lon="0.910288">
        <ele>1591.0</ele>
        <time>2015-08-29T09:55:09Z</time>
      </trkpt>
      <trkpt lat="42.027313" lon="0.910353">
        <ele>1592.0</ele>
        <time>2015-08-29T09:55:10Z</time>
      </trkpt>
      <trkpt lat="42.027282" lon="0.910427">
        <ele>1592.0</ele>
        <time>2015-08-29T09:55:11Z</time>
      </trkpt>
      <trkpt lat="42.027255" lon="0.910502">
        <ele>1593.0</ele>
        <time>2015-08-29T09:55:12Z</time>
      </trkpt>
      <trkpt lat="42.027227" lon="0.910585">
        <ele>1593.0</ele>
        <time>2015-08-29T09:55:13Z</time>
      </trkpt>
      <trkpt lat="42.027193" lon="0.910670">
        <ele>1594.0</ele>
        <time>2015-08-29T09:55:14Z</time>
      </trkpt>
      <trkpt lat="42.027160" lon="0.910752">
        <ele>1595.0</ele>
        <time>2015-08-29T09:55:15Z</time>
      </trkpt>
      <trkpt lat="42.027123" lon="0.910847">
        <ele>1596.0</ele>
        <time>2015-08-29T09:55:16Z</time>
      </trkpt>
      <trkpt lat="42.027078" lon="0.910948">
        <ele>1596.0</ele>
        <time>2015-08-29T09:55:17Z</time>
      </trkpt>
      <trkpt lat="42.027028" lon="0.911047">
        <ele>1598.0</ele>
        <time>2015-08-29T09:55:18Z</time>
      </trkpt>
      <trkpt lat="42.026983" lon="0.911125">
        <ele>1599.0</ele>
        <time>2015-08-29T09:55:19Z</time>
      </trkpt>
      <trkpt lat="42.026935" lon="0.911200">
        <ele>1600.0</ele>
        <time>2015-08-29T09:55:20Z</time>
      </trkpt>
      <trkpt lat="42.026883" lon="0.911282">
        <ele>1602.0</ele>
        <time>2015-08-29T09:55:21Z</time>
      </trkpt>
      <trkpt lat="42.026835" lon="0.911368">
        <ele>1602.0</ele>
        <time>2015-08-29T09:55:22Z</time>
      </trkpt>
      <trkpt lat="42.026793" lon="0.911433">
        <ele>1604.0</ele>
        <time>2015-08-29T09:55:23Z</time>
      </trkpt>
      <trkpt lat="42.026737" lon="0.911497">
        <ele>1604.0</ele>
        <time>2015-08-29T09:55:24Z</time>
      </trkpt>
      <trkpt lat="42.026683" lon="0.911562">
        <ele>1604.0</ele>
        <time>2015-08-29T09:55:25Z</time>
      </trkpt>
      <trkpt lat="42.026638" lon="0.911637">
        <ele>1604.0</ele>
        <time>2015-08-29T09:55:26Z</time>
      </trkpt>
      <trkpt lat="42.026595" lon="0.911727">
        <ele>1604.0</ele>
        <time>2015-08-29T09:55:27Z</time>
      </trkpt>
      <trkpt lat="42.026553" lon="0.911820">
        <ele>1604.0</ele>
        <time>2015-08-29T09:55:28Z</time>
      </trkpt>
      <trkpt lat="42.026508" lon="0.911900">
        <ele>1604.0</ele>
        <time>2015-08-29T09:55:29Z</time>
      </trkpt>
      <trkpt lat="42.026455" lon="0.911970">
        <ele>1605.0</ele>
        <time>2015-08-29T09:55:30Z</time>
      </trkpt>
      <trkpt lat="42.026403" lon="0.912030">
        <ele>1606.0</ele>
        <time>2015-08-29T09:55:31Z</time>
      </trkpt>
      <trkpt lat="42.026355" lon="0.912095">
        <ele>1607.0</ele>
        <time>2015-08-29T09:55:32Z</time>
      </trkpt>
      <trkpt lat="42.026307" lon="0.912168">
        <ele>1608.0</ele>
        <time>2015-08-29T09:55:33Z</time>
      </trkpt>
      <trkpt lat="42.026252" lon="0.912252">
        <ele>1608.0</ele>
        <time>2015-08-29T09:55:34Z</time>
      </trkpt>
      <trkpt lat="42.026192" lon="0.912335">
        <ele>1609.0</ele>
        <time>2015-08-29T09:55:35Z</time>
      </trkpt>
      <trkpt lat="42.026133" lon="0.912413">
        <ele>1611.0</ele>
        <time>2015-08-29T09:55:36Z</time>
      </trkpt>
      <trkpt lat="42.026082" lon="0.912488">
        <ele>1613.0</ele>
        <time>2015-08-29T09:55:37Z</time>
      </trkpt>
      <trkpt lat="42.026043" lon="0.912563">
        <ele>1615.0</ele>
        <time>2015-08-29T09:55:38Z</time>
      </trkpt>
      <trkpt lat="42.026008" lon="0.912635">
        <ele>1617.0</ele>
        <time>2015-08-29T09:55:39Z</time>
      </trkpt>
      <trkpt lat="42.025975" lon="0.912703">
        <ele>1619.0</ele>
        <time>2015-08-29T09:55:40Z</time>
      </trkpt>
      <trkpt lat="42.025923" lon="0.912780">
        <ele>1620.0</ele>
        <time>2015-08-29T09:55:41Z</time>
      </trkpt>
      <trkpt lat="42.025870" lon="0.912858">
        <ele>1621.0</ele>
        <time>2015-08-29T09:55:42Z</time>
      </trkpt>
      <trkpt lat="42.025825" lon="0.912935">
        <ele>1622.0</ele>
        <time>2015-08-29T09:55:43Z</time>
      </trkpt>
      <trkpt lat="42.025783" lon="0.913012">
        <ele>1623.0</ele>
        <time>2015-08-29T09:55:44Z</time>
      </trkpt>
      <trkpt lat="42.025742" lon="0.913087">
        <ele>1625.0</ele>
        <time>2015-08-29T09:55:45Z</time>
      </trkpt>
      <trkpt lat="42.025693" lon="0.913150">
        <ele>1626.0</ele>
        <time>2015-08-29T09:55:46Z</time>
      </trkpt>
      <trkpt lat="42.025648" lon="0.913202">
        <ele>1628.0</ele>
        <time>2015-08-29T09:55:47Z</time>
      </trkpt>
      <trkpt lat="42.025607" lon="0.913257">
        <ele>1630.0</ele>
        <time>2015-08-29T09:55:48Z</time>
      </trkpt>
      <trkpt lat="42.025568" lon="0.913320">
        <ele>1632.0</ele>
        <time>2015-08-29T09:55:49Z</time>
      </trkpt>
      <trkpt lat="42.025523" lon="0.913387">
        <ele>1634.0</ele>
        <time>2015-08-29T09:55:50Z</time>
      </trkpt>
      <trkpt lat="42.025465" lon="0.913452">
        <ele>1637.0</ele>
        <time>2015-08-29T09:55:51Z</time>
      </trkpt>
      <trkpt lat="42.025402" lon="0.913503">
        <ele>1640.0</ele>
        <time>2015-08-29T09:55:52Z</time>
      </trkpt>
      <trkpt lat="42.025335" lon="0.913538">
        <ele>1639.0</ele>
        <time>2015-08-29T09:55:53Z</time>
      </trkpt>
      <trkpt lat="42.025273" lon="0.913560">
        <ele>1641.0</ele>
        <time>2015-08-29T09:55:54Z</time>
      </trkpt>
      <trkpt lat="42.025208" lon="0.913555">
        <ele>1643.0</ele>
        <time>2015-08-29T09:55:55Z</time>
      </trkpt>
      <trkpt lat="42.025145" lon="0.913538">
        <ele>1644.0</ele>
        <time>2015-08-29T09:55:56Z</time>
      </trkpt>
      <trkpt lat="42.025082" lon="0.913510">
        <ele>1646.0</ele>
        <time>2015-08-29T09:55:57Z</time>
      </trkpt>
      <trkpt lat="42.025017" lon="0.913457">
        <ele>1647.0</ele>
        <time>2015-08-29T09:55:58Z</time>
      </trkpt>
      <trkpt lat="42.024978" lon="0.913388">
        <ele>1649.0</ele>
        <time>2015-08-29T09:55:59Z</time>
      </trkpt>
      <trkpt lat="42.024953" lon="0.913320">
        <ele>1652.0</ele>
        <time>2015-08-29T09:56:00Z</time>
      </trkpt>
      <trkpt lat="42.024942" lon="0.913257">
        <ele>1654.0</ele>
        <time>2015-08-29T09:56:01Z</time>
      </trkpt>
      <trkpt lat="42.024935" lon="0.913192">
        <ele>1656.0</ele>
        <time>2015-08-29T09:56:02Z</time>
      </trkpt>
      <trkpt lat="42.024932" lon="0.913118">
        <ele>1656.0</ele>
        <time>2015-08-29T09:56:03Z</time>
      </trkpt>
      <trkpt lat="42.024942" lon="0.913042">
        <ele>1658.0</ele>
        <time>2015-08-29T09:56:04Z</time>
      </trkpt>
      <trkpt lat="42.024965" lon="0.912957">
        <ele>1660.0</ele>
        <time>2015-08-29T09:56:05Z</time>
      </trkpt>
      <trkpt lat="42.024992" lon="0.912863">
        <ele>1661.0</ele>
        <time>2015-08-29T09:56:06Z</time>
      </trkpt>
      <trkpt lat="42.025015" lon="0.912808">
        <ele>1664.0</ele>
        <time>2015-08-29T09:56:07Z</time>
      </trkpt>
      <trkpt lat="42.025040" lon="0.912713">
        <ele>1666.0</ele>
        <time>2015-08-29T09:56:08Z</time>
      </trkpt>
      <trkpt lat="42.025062" lon="0.912605">
        <ele>1667.0</ele>
        <time>2015-08-29T09:56:09Z</time>
      </trkpt>
      <trkpt lat="42.025078" lon="0.912507">
        <ele>1668.0</ele>
        <time>2015-08-29T09:56:10Z</time>
      </trkpt>
      <trkpt lat="42.025095" lon="0.912408">
        <ele>1669.0</ele>
        <time>2015-08-29T09:56:11Z</time>
      </trkpt>
      <trkpt lat="42.025113" lon="0.912333">
        <ele>1670.0</ele>
        <time>2015-08-29T09:56:12Z</time>
      </trkpt>
      <trkpt lat="42.025138" lon="0.912257">
        <ele>1671.0</ele>
        <time>2015-08-29T09:56:13Z</time>
      </trkpt>
      <trkpt lat="42.025173" lon="0.912170">
        <ele>1673.0</ele>
        <time>2015-08-29T09:56:14Z</time>
      </trkpt>
      <trkpt lat="42.025215" lon="0.912083">
        <ele>1674.0</ele>
        <time>2015-08-29T09:56:15Z</time>
      </trkpt>
      <trkpt lat="42.025262" lon="0.912008">
        <ele>1675.0</ele>
        <time>2015-08-29T09:56:16Z</time>
      </trkpt>
      <trkpt lat="42.025320" lon="0.911928">
        <ele>1675.0</ele>
        <time>2015-08-29T09:56:17Z</time>
      </trkpt>
      <trkpt lat="42.025382" lon="0.911872">
        <ele>1676.0</ele>
        <time>2015-08-29T09:56:18Z</time>
      </trkpt>
      <trkpt lat="42.025448" lon="0.911813">
        <ele>1677.0</ele>
        <time>2015-08-29T09:56:19Z</time>
      </trkpt>
      <trkpt lat="42.025520" lon="0.911772">
        <ele>1678.0</ele>
        <time>2015-08-29T09:56:20Z</time>
      </trkpt>
      <trkpt lat="42.025595" lon="0.911740">
        <ele>1678.0</ele>
        <time>2015-08-29T09:56:21Z</time>
      </trkpt>
      <trkpt lat="42.025667" lon="0.911722">
        <ele>1677.0</ele>
        <time>2015-08-29T09:56:22Z</time>
      </trkpt>
      <trkpt lat="42.025735" lon="0.911698">
        <ele>1677.0</ele>
        <time>2015-08-29T09:56:23Z</time>
      </trkpt>
      <trkpt lat="42.025800" lon="0.911673">
        <ele>1677.0</ele>
        <time>2015-08-29T09:56:24Z</time>
      </trkpt>
      <trkpt lat="42.025872" lon="0.911598">
        <ele>1676.0</ele>
        <time>2015-08-29T09:56:25Z</time>
      </trkpt>
      <trkpt lat="42.025942" lon="0.911517">
        <ele>1675.0</ele>
        <time>2015-08-29T09:56:26Z</time>
      </trkpt>
      <trkpt lat="42.026015" lon="0.911450">
        <ele>1675.0</ele>
        <time>2015-08-29T09:56:27Z</time>
      </trkpt>
      <trkpt lat="42.026090" lon="0.911402">
        <ele>1675.0</ele>
        <time>2015-08-29T09:56:28Z</time>
      </trkpt>
      <trkpt lat="42.026158" lon="0.911357">
        <ele>1675.0</ele>
        <time>2015-08-29T09:56:29Z</time>
      </trkpt>
      <trkpt lat="42.026218" lon="0.911302">
        <ele>1675.0</ele>
        <time>2015-08-29T09:56:30Z</time>
      </trkpt>
      <trkpt lat="42.026277" lon="0.911218">
        <ele>1674.0</ele>
        <time>2015-08-29T09:56:31Z</time>
      </trkpt>
      <trkpt lat="42.026337" lon="0.911122">
        <ele>1677.0</ele>
        <time>2015-08-29T09:56:32Z</time>
      </trkpt>
      <trkpt lat="42.026395" lon="0.911042">
        <ele>1679.0</ele>
        <time>2015-08-29T09:56:33Z</time>
      </trkpt>
      <trkpt lat="42.026442" lon="0.910983">
        <ele>1680.0</ele>
        <time>2015-08-29T09:56:34Z</time>
      </trkpt>
      <trkpt lat="42.026470" lon="0.910935">
        <ele>1681.0</ele>
        <time>2015-08-29T09:56:35Z</time>
      </trkpt>
      <trkpt lat="42.026488" lon="0.910877">
        <ele>1681.0</ele>
        <time>2015-08-29T09:56:36Z</time>
      </trkpt>
      <trkpt lat="42.026505" lon="0.910790">
        <ele>1680.0</ele>
        <time>2015-08-29T09:56:37Z</time>
      </trkpt>
      <trkpt lat="42.026523" lon="0.910682">
        <ele>1681.0</ele>
        <time>2015-08-29T09:56:38Z</time>
      </trkpt>
      <trkpt lat="42.026542" lon="0.910575">
        <ele>1682.0</ele>
        <time>2015-08-29T09:56:39Z</time>
      </trkpt>
      <trkpt lat="42.026535" lon="0.910497">
        <ele>1683.0</ele>
        <time>2015-08-29T09:56:40Z</time>
      </trkpt>
      <trkpt lat="42.026512" lon="0.910442">
        <ele>1685.0</ele>
        <time>2015-08-29T09:56:41Z</time>
      </trkpt>
      <trkpt lat="42.026455" lon="0.910382">
        <ele>1683.0</ele>
        <time>2015-08-29T09:56:42Z</time>
      </trkpt>
      <trkpt lat="42.026387" lon="0.910320">
        <ele>1682.0</ele>
        <time>2015-08-29T09:56:43Z</time>
      </trkpt>
      <trkpt lat="42.026322" lon="0.910260">
        <ele>1680.0</ele>
        <time>2015-08-29T09:56:44Z</time>
      </trkpt>
      <trkpt lat="42.026253" lon="0.910232">
        <ele>1679.0</ele>
        <time>2015-08-29T09:56:45Z</time>
      </trkpt>
      <trkpt lat="42.026185" lon="0.910265">
        <ele>1678.0</ele>
        <time>2015-08-29T09:56:46Z</time>
      </trkpt>
      <trkpt lat="42.026133" lon="0.910325">
        <ele>1677.0</ele>
        <time>2015-08-29T09:56:47Z</time>
      </trkpt>
      <trkpt lat="42.026087" lon="0.910385">
        <ele>1677.0</ele>
        <time>2015-08-29T09:56:48Z</time>
      </trkpt>
      <trkpt lat="42.026040" lon="0.910425">
        <ele>1675.0</ele>
        <time>2015-08-29T09:56:49Z</time>
      </trkpt>
      <trkpt lat="42.025983" lon="0.910463">
        <ele>1673.0</ele>
        <time>2015-08-29T09:56:50Z</time>
      </trkpt>
      <trkpt lat="42.025922" lon="0.910522">
        <ele>1670.0</ele>
        <time>2015-08-29T09:56:51Z</time>
      </trkpt>
      <trkpt lat="42.025862" lon="0.910597">
        <ele>1669.0</ele>
        <time>2015-08-29T09:56:52Z</time>
      </trkpt>
      <trkpt lat="42.025810" lon="0.910678">
        <ele>1668.0</ele>
        <time>2015-08-29T09:56:53Z</time>
      </trkpt>
      <trkpt lat="42.025763" lon="0.910753">
        <ele>1666.0</ele>
        <time>2015-08-29T09:56:54Z</time>
      </trkpt>
      <trkpt lat="42.025717" lon="0.910830">
        <ele>1664.0</ele>
        <time>2015-08-29T09:56:55Z</time>
      </trkpt>
      <trkpt lat="42.025668" lon="0.910917">
        <ele>1661.0</ele>
        <time>2015-08-29T09:56:56Z</time>
      </trkpt>
      <trkpt lat="42.025625" lon="0.911017">
        <ele>1660.0</ele>
        <time>2015-08-29T09:56:57Z</time>
      </trkpt>
      <trkpt lat="42.025593" lon="0.911123">
        <ele>1660.0</ele>
        <time>2015-08-29T09:56:58Z</time>
      </trkpt>
      <trkpt lat="42.025570" lon="0.911217">
        <ele>1659.0</ele>
        <time>2015-08-29T09:56:59Z</time>
      </trkpt>
      <trkpt lat="42.025540" lon="0.911302">
        <ele>1658.0</ele>
        <time>2015-08-29T09:57:00Z</time>
      </trkpt>
      <trkpt lat="42.025500" lon="0.911387">
        <ele>1657.0</ele>
        <time>2015-08-29T09:57:01Z</time>
      </trkpt>
      <trkpt lat="42.025452" lon="0.911485">
        <ele>1656.0</ele>
        <time>2015-08-29T09:57:02Z</time>
      </trkpt>
      <trkpt lat="42.025400" lon="0.911593">
        <ele>1656.0</ele>
        <time>2015-08-29T09:57:03Z</time>
      </trkpt>
      <trkpt lat="42.025362" lon="0.911693">
        <ele>1657.0</ele>
        <time>2015-08-29T09:57:04Z</time>
      </trkpt>
      <trkpt lat="42.025335" lon="0.911772">
        <ele>1657.0</ele>
        <time>2015-08-29T09:57:05Z</time>
      </trkpt>
      <trkpt lat="42.025303" lon="0.911837">
        <ele>1656.0</ele>
        <time>2015-08-29T09:57:06Z</time>
      </trkpt>
      <trkpt lat="42.025257" lon="0.911912">
        <ele>1656.0</ele>
        <time>2015-08-29T09:57:07Z</time>
      </trkpt>
      <trkpt lat="42.025220" lon="0.911970">
        <ele>1656.0</ele>
        <time>2015-08-29T09:57:08Z</time>
      </trkpt>
      <trkpt lat="42.025178" lon="0.912052">
        <ele>1654.0</ele>
        <time>2015-08-29T09:57:09Z</time>
      </trkpt>
      <trkpt lat="42.025130" lon="0.912132">
        <ele>1653.0</ele>
        <time>2015-08-29T09:57:10Z</time>
      </trkpt>
      <trkpt lat="42.025077" lon="0.912188">
        <ele>1653.0</ele>
        <time>2015-08-29T09:57:11Z</time>
      </trkpt>
      <trkpt lat="42.025012" lon="0.912220">
        <ele>1653.0</ele>
        <time>2015-08-29T09:57:12Z</time>
      </trkpt>
      <trkpt lat="42.024945" lon="0.912237">
        <ele>1653.0</ele>
        <time>2015-08-29T09:57:13Z</time>
      </trkpt>
      <trkpt lat="42.024877" lon="0.912257">
        <ele>1654.0</ele>
        <time>2015-08-29T09:57:14Z</time>
      </trkpt>
      <trkpt lat="42.024813" lon="0.912292">
        <ele>1656.0</ele>
        <time>2015-08-29T09:57:15Z</time>
      </trkpt>
      <trkpt lat="42.024753" lon="0.912333">
        <ele>1658.0</ele>
        <time>2015-08-29T09:57:16Z</time>
      </trkpt>
      <trkpt lat="42.024698" lon="0.912357">
        <ele>1660.0</ele>
        <time>2015-08-29T09:57:17Z</time>
      </trkpt>
      <trkpt lat="42.024647" lon="0.912367">
        <ele>1663.0</ele>
        <time>2015-08-29T09:57:18Z</time>
      </trkpt>
      <trkpt lat="42.024597" lon="0.912362">
        <ele>1664.0</ele>
        <time>2015-08-29T09:57:19Z</time>
      </trkpt>
      <trkpt lat="42.024542" lon="0.912357">
        <ele>1664.0</ele>
        <time>2015-08-29T09:57:20Z</time>
      </trkpt>
      <trkpt lat="42.024478" lon="0.912362">
        <ele>1665.0</ele>
        <time>2015-08-29T09:57:21Z</time>
      </trkpt>
      <trkpt lat="42.024415" lon="0.912365">
        <ele>1666.0</ele>
        <time>2015-08-29T09:57:22Z</time>
      </trkpt>
      <trkpt lat="42.024357" lon="0.912357">
        <ele>1668.0</ele>
        <time>2015-08-29T09:57:23Z</time>
      </trkpt>
      <trkpt lat="42.024302" lon="0.912333">
        <ele>1669.0</ele>
        <time>2015-08-29T09:57:24Z</time>
      </trkpt>
      <trkpt lat="42.024250" lon="0.912300">
        <ele>1671.0</ele>
        <time>2015-08-29T09:57:25Z</time>
      </trkpt>
      <trkpt lat="42.024188" lon="0.912268">
        <ele>1673.0</ele>
        <time>2015-08-29T09:57:26Z</time>
      </trkpt>
      <trkpt lat="42.024133" lon="0.912227">
        <ele>1674.0</ele>
        <time>2015-08-29T09:57:27Z</time>
      </trkpt>
      <trkpt lat="42.024093" lon="0.912165">
        <ele>1675.0</ele>
        <time>2015-08-29T09:57:28Z</time>
      </trkpt>
      <trkpt lat="42.024058" lon="0.912093">
        <ele>1677.0</ele>
        <time>2015-08-29T09:57:29Z</time>
      </trkpt>
      <trkpt lat="42.024018" lon="0.912027">
        <ele>1679.0</ele>
        <time>2015-08-29T09:57:30Z</time>
      </trkpt>
      <trkpt lat="42.023977" lon="0.911968">
        <ele>1682.0</ele>
        <time>2015-08-29T09:57:31Z</time>
      </trkpt>
      <trkpt lat="42.023932" lon="0.911915">
        <ele>1684.0</ele>
        <time>2015-08-29T09:57:32Z</time>
      </trkpt>
      <trkpt lat="42.023897" lon="0.911855">
        <ele>1687.0</ele>
        <time>2015-08-29T09:57:33Z</time>
      </trkpt>
      <trkpt lat="42.023870" lon="0.911787">
        <ele>1690.0</ele>
        <time>2015-08-29T09:57:34Z</time>
      </trkpt>
      <trkpt lat="42.023838" lon="0.911705">
        <ele>1692.0</ele>
        <time>2015-08-29T09:57:35Z</time>
      </trkpt>
      <trkpt lat="42.023805" lon="0.911618">
        <ele>1694.0</ele>
        <time>2015-08-29T09:57:36Z</time>
      </trkpt>
      <trkpt lat="42.023762" lon="0.911530">
        <ele>1697.0</ele>
        <time>2015-08-29T09:57:37Z</time>
      </trkpt>
      <trkpt lat="42.023723" lon="0.911438">
        <ele>1699.0</ele>
        <time>2015-08-29T09:57:38Z</time>
      </trkpt>
      <trkpt lat="42.023687" lon="0.911328">
        <ele>1698.0</ele>
        <time>2015-08-29T09:57:39Z</time>
      </trkpt>
      <trkpt lat="42.023665" lon="0.911203">
        <ele>1698.0</ele>
        <time>2015-08-29T09:57:40Z</time>
      </trkpt>
      <trkpt lat="42.023658" lon="0.911093">
        <ele>1700.0</ele>
        <time>2015-08-29T09:57:41Z</time>
      </trkpt>
      <trkpt lat="42.023665" lon="0.910982">
        <ele>1702.0</ele>
        <time>2015-08-29T09:57:42Z</time>
      </trkpt>
      <trkpt lat="42.023683" lon="0.910852">
        <ele>1702.0</ele>
        <time>2015-08-29T09:57:43Z</time>
      </trkpt>
      <trkpt lat="42.023713" lon="0.910722">
        <ele>1701.0</ele>
        <time>2015-08-29T09:57:44Z</time>
      </trkpt>
      <trkpt lat="42.023753" lon="0.910613">
        <ele>1700.0</ele>
        <time>2015-08-29T09:57:45Z</time>
      </trkpt>
      <trkpt lat="42.023808" lon="0.910518">
        <ele>1699.0</ele>
        <time>2015-08-29T09:57:46Z</time>
      </trkpt>
      <trkpt lat="42.023883" lon="0.910430">
        <ele>1699.0</ele>
        <time>2015-08-29T09:57:47Z</time>
      </trkpt>
      <trkpt lat="42.023970" lon="0.910357">
        <ele>1698.0</ele>
        <time>2015-08-29T09:57:48Z</time>
      </trkpt>
      <trkpt lat="42.024055" lon="0.910307">
        <ele>1699.0</ele>
        <time>2015-08-29T09:57:49Z</time>
      </trkpt>
      <trkpt lat="42.024135" lon="0.910292">
        <ele>1699.0</ele>
        <time>2015-08-29T09:57:50Z</time>
      </trkpt>
      <trkpt lat="42.024208" lon="0.910305">
        <ele>1699.0</ele>
        <time>2015-08-29T09:57:51Z</time>
      </trkpt>
      <trkpt lat="42.024278" lon="0.910353">
        <ele>1699.0</ele>
        <time>2015-08-29T09:57:52Z</time>
      </trkpt>
      <trkpt lat="42.024328" lon="0.910427">
        <ele>1700.0</ele>
        <time>2015-08-29T09:57:53Z</time>
      </trkpt>
      <trkpt lat="42.024358" lon="0.910513">
        <ele>1701.0</ele>
        <time>2015-08-29T09:57:54Z</time>
      </trkpt>
      <trkpt lat="42.024377" lon="0.910605">
        <ele>1702.0</ele>
        <time>2015-08-29T09:57:55Z</time>
      </trkpt>
      <trkpt lat="42.024385" lon="0.910695">
        <ele>1703.0</ele>
        <time>2015-08-29T09:57:56Z</time>
      </trkpt>
      <trkpt lat="42.024383" lon="0.910777">
        <ele>1704.0</ele>
        <time>2015-08-29T09:57:57Z</time>
      </trkpt>
      <trkpt lat="42.024378" lon="0.910853">
        <ele>1706.0</ele>
        <time>2015-08-29T09:57:58Z</time>
      </trkpt>
      <trkpt lat="42.024377" lon="0.910937">
        <ele>1708.0</ele>
        <time>2015-08-29T09:57:59Z</time>
      </trkpt>
      <trkpt lat="42.024377" lon="0.911028">
        <ele>1708.0</ele>
        <time>2015-08-29T09:58:00Z</time>
      </trkpt>
      <trkpt lat="42.024370" lon="0.911127">
        <ele>1709.0</ele>
        <time>2015-08-29T09:58:01Z</time>
      </trkpt>
      <trkpt lat="42.024358" lon="0.911223">
        <ele>1710.0</ele>
        <time>2015-08-29T09:58:02Z</time>
      </trkpt>
      <trkpt lat="42.024350" lon="0.911315">
        <ele>1711.0</ele>
        <time>2015-08-29T09:58:03Z</time>
      </trkpt>
      <trkpt lat="42.024345" lon="0.911388">
        <ele>1713.0</ele>
        <time>2015-08-29T09:58:04Z</time>
      </trkpt>
      <trkpt lat="42.024342" lon="0.911447">
        <ele>1715.0</ele>
        <time>2015-08-29T09:58:05Z</time>
      </trkpt>
      <trkpt lat="42.024327" lon="0.911522">
        <ele>1717.0</ele>
        <time>2015-08-29T09:58:07Z</time>
      </trkpt>
      <trkpt lat="42.024313" lon="0.911568">
        <ele>1718.0</ele>
        <time>2015-08-29T09:58:08Z</time>
      </trkpt>
      <trkpt lat="42.024273" lon="0.911672">
        <ele>1721.0</ele>
        <time>2015-08-29T09:58:10Z</time>
      </trkpt>
      <trkpt lat="42.024242" lon="0.911738">
        <ele>1723.0</ele>
        <time>2015-08-29T09:58:11Z</time>
      </trkpt>
      <trkpt lat="42.024217" lon="0.911800">
        <ele>1724.0</ele>
        <time>2015-08-29T09:58:12Z</time>
      </trkpt>
      <trkpt lat="42.024198" lon="0.911855">
        <ele>1726.0</ele>
        <time>2015-08-29T09:58:13Z</time>
      </trkpt>
      <trkpt lat="42.024187" lon="0.911907">
        <ele>1728.0</ele>
        <time>2015-08-29T09:58:14Z</time>
      </trkpt>
      <trkpt lat="42.024155" lon="0.911995">
        <ele>1732.0</ele>
        <time>2015-08-29T09:58:16Z</time>
      </trkpt>
      <trkpt lat="42.024120" lon="0.912033">
        <ele>1734.0</ele>
        <time>2015-08-29T09:58:17Z</time>
      </trkpt>
      <trkpt lat="42.024077" lon="0.912052">
        <ele>1734.0</ele>
        <time>2015-08-29T09:58:18Z</time>
      </trkpt>
      <trkpt lat="42.024037" lon="0.912053">
        <ele>1736.0</ele>
        <time>2015-08-29T09:58:19Z</time>
      </trkpt>
      <trkpt lat="42.023972" lon="0.912050">
        <ele>1738.0</ele>
        <time>2015-08-29T09:58:21Z</time>
      </trkpt>
      <trkpt lat="42.023900" lon="0.912023">
        <ele>1740.0</ele>
        <time>2015-08-29T09:58:23Z</time>
      </trkpt>
      <trkpt lat="42.023862" lon="0.911990">
        <ele>1741.0</ele>
        <time>2015-08-29T09:58:24Z</time>
      </trkpt>
      <trkpt lat="42.023820" lon="0.911930">
        <ele>1740.0</ele>
        <time>2015-08-29T09:58:25Z</time>
      </trkpt>
      <trkpt lat="42.023795" lon="0.911862">
        <ele>1742.0</ele>
        <time>2015-08-29T09:58:26Z</time>
      </trkpt>
      <trkpt lat="42.023773" lon="0.911777">
        <ele>1741.0</ele>
        <time>2015-08-29T09:58:27Z</time>
      </trkpt>
      <trkpt lat="42.023748" lon="0.911683">
        <ele>1739.0</ele>
        <time>2015-08-29T09:58:28Z</time>
      </trkpt>
      <trkpt lat="42.023730" lon="0.911583">
        <ele>1738.0</ele>
        <time>2015-08-29T09:58:29Z</time>
      </trkpt>
      <trkpt lat="42.023727" lon="0.911478">
        <ele>1737.0</ele>
        <time>2015-08-29T09:58:30Z</time>
      </trkpt>
      <trkpt lat="42.023735" lon="0.911368">
        <ele>1736.0</ele>
        <time>2015-08-29T09:58:31Z</time>
      </trkpt>
      <trkpt lat="42.023763" lon="0.911253">
        <ele>1735.0</ele>
        <time>2015-08-29T09:58:32Z</time>
      </trkpt>
      <trkpt lat="42.023817" lon="0.911117">
        <ele>1734.0</ele>
        <time>2015-08-29T09:58:33Z</time>
      </trkpt>
      <trkpt lat="42.023882" lon="0.911005">
        <ele>1733.0</ele>
        <time>2015-08-29T09:58:34Z</time>
      </trkpt>
      <trkpt lat="42.023948" lon="0.910910">
        <ele>1733.0</ele>
        <time>2015-08-29T09:58:35Z</time>
      </trkpt>
      <trkpt lat="42.024008" lon="0.910818">
        <ele>1732.0</ele>
        <time>2015-08-29T09:58:36Z</time>
      </trkpt>
      <trkpt lat="42.024067" lon="0.910718">
        <ele>1733.0</ele>
        <time>2015-08-29T09:58:37Z</time>
      </trkpt>
      <trkpt lat="42.024135" lon="0.910613">
        <ele>1732.0</ele>
        <time>2015-08-29T09:58:38Z</time>
      </trkpt>
      <trkpt lat="42.024213" lon="0.910513">
        <ele>1732.0</ele>
        <time>2015-08-29T09:58:39Z</time>
      </trkpt>
      <trkpt lat="42.024313" lon="0.910422">
        <ele>1732.0</ele>
        <time>2015-08-29T09:58:40Z</time>
      </trkpt>
      <trkpt lat="42.024407" lon="0.910362">
        <ele>1732.0</ele>
        <time>2015-08-29T09:58:41Z</time>
      </trkpt>
      <trkpt lat="42.024485" lon="0.910313">
        <ele>1732.0</ele>
        <time>2015-08-29T09:58:42Z</time>
      </trkpt>
      <trkpt lat="42.024562" lon="0.910280">
        <ele>1733.0</ele>
        <time>2015-08-29T09:58:43Z</time>
      </trkpt>
      <trkpt lat="42.024645" lon="0.910275">
        <ele>1735.0</ele>
        <time>2015-08-29T09:58:44Z</time>
      </trkpt>
      <trkpt lat="42.024740" lon="0.910272">
        <ele>1734.0</ele>
        <time>2015-08-29T09:58:45Z</time>
      </trkpt>
      <trkpt lat="42.024837" lon="0.910283">
        <ele>1734.0</ele>
        <time>2015-08-29T09:58:46Z</time>
      </trkpt>
      <trkpt lat="42.024927" lon="0.910308">
        <ele>1733.0</ele>
        <time>2015-08-29T09:58:47Z</time>
      </trkpt>
      <trkpt lat="42.025008" lon="0.910352">
        <ele>1733.0</ele>
        <time>2015-08-29T09:58:48Z</time>
      </trkpt>
      <trkpt lat="42.025078" lon="0.910412">
        <ele>1735.0</ele>
        <time>2015-08-29T09:58:49Z</time>
      </trkpt>
      <trkpt lat="42.025128" lon="0.910485">
        <ele>1736.0</ele>
        <time>2015-08-29T09:58:50Z</time>
      </trkpt>
      <trkpt lat="42.025165" lon="0.910567">
        <ele>1737.0</ele>
        <time>2015-08-29T09:58:51Z</time>
      </trkpt>
      <trkpt lat="42.025185" lon="0.910645">
        <ele>1739.0</ele>
        <time>2015-08-29T09:58:52Z</time>
      </trkpt>
      <trkpt lat="42.025197" lon="0.910710">
        <ele>1740.0</ele>
        <time>2015-08-29T09:58:53Z</time>
      </trkpt>
      <trkpt lat="42.025202" lon="0.910762">
        <ele>1742.0</ele>
        <time>2015-08-29T09:58:54Z</time>
      </trkpt>
      <trkpt lat="42.025175" lon="0.910855">
        <ele>1744.0</ele>
        <time>2015-08-29T09:58:56Z</time>
      </trkpt>
      <trkpt lat="42.025148" lon="0.910912">
        <ele>1745.0</ele>
        <time>2015-08-29T09:58:57Z</time>
      </trkpt>
      <trkpt lat="42.025130" lon="0.910965">
        <ele>1745.0</ele>
        <time>2015-08-29T09:58:58Z</time>
      </trkpt>
      <trkpt lat="42.025097" lon="0.911040">
        <ele>1748.0</ele>
        <time>2015-08-29T09:59:00Z</time>
      </trkpt>
      <trkpt lat="42.025072" lon="0.911078">
        <ele>1747.0</ele>
        <time>2015-08-29T09:59:01Z</time>
      </trkpt>
      <trkpt lat="42.025043" lon="0.911115">
        <ele>1746.0</ele>
        <time>2015-08-29T09:59:02Z</time>
      </trkpt>
      <trkpt lat="42.024997" lon="0.911150">
        <ele>1744.0</ele>
        <time>2015-08-29T09:59:04Z</time>
      </trkpt>
      <trkpt lat="42.024950" lon="0.911152">
        <ele>1744.0</ele>
        <time>2015-08-29T09:59:06Z</time>
      </trkpt>
      <trkpt lat="42.024895" lon="0.911130">
        <ele>1743.0</ele>
        <time>2015-08-29T09:59:08Z</time>
      </trkpt>
      <trkpt lat="42.024823" lon="0.911115">
        <ele>1743.0</ele>
        <time>2015-08-29T09:59:10Z</time>
      </trkpt>
      <trkpt lat="42.024782" lon="0.911118">
        <ele>1743.0</ele>
        <time>2015-08-29T09:59:11Z</time>
      </trkpt>
      <trkpt lat="42.024745" lon="0.911135">
        <ele>1743.0</ele>
        <time>2015-08-29T09:59:12Z</time>
      </trkpt>
      <trkpt lat="42.024703" lon="0.911207">
        <ele>1743.0</ele>
        <time>2015-08-29T09:59:14Z</time>
      </trkpt>
      <trkpt lat="42.024670" lon="0.911232">
        <ele>1742.0</ele>
        <time>2015-08-29T09:59:15Z</time>
      </trkpt>
      <trkpt lat="42.024620" lon="0.911340">
        <ele>1742.0</ele>
        <time>2015-08-29T09:59:17Z</time>
      </trkpt>
      <trkpt lat="42.024610" lon="0.911422">
        <ele>1740.0</ele>
        <time>2015-08-29T09:59:18Z</time>
      </trkpt>
      <trkpt lat="42.024607" lon="0.911498">
        <ele>1738.0</ele>
        <time>2015-08-29T09:59:19Z</time>
      </trkpt>
      <trkpt lat="42.024607" lon="0.911562">
        <ele>1737.0</ele>
        <time>2015-08-29T09:59:20Z</time>
      </trkpt>
      <trkpt lat="42.024605" lon="0.911610">
        <ele>1735.0</ele>
        <time>2015-08-29T09:59:21Z</time>
      </trkpt>
      <trkpt lat="42.024578" lon="0.911697">
        <ele>1735.0</ele>
        <time>2015-08-29T09:59:23Z</time>
      </trkpt>
      <trkpt lat="42.024563" lon="0.911772">
        <ele>1734.0</ele>
        <time>2015-08-29T09:59:24Z</time>
      </trkpt>
      <trkpt lat="42.024548" lon="0.911853">
        <ele>1733.0</ele>
        <time>2015-08-29T09:59:25Z</time>
      </trkpt>
      <trkpt lat="42.024537" lon="0.911922">
        <ele>1732.0</ele>
        <time>2015-08-29T09:59:26Z</time>
      </trkpt>
      <trkpt lat="42.024525" lon="0.912018">
        <ele>1729.0</ele>
        <time>2015-08-29T09:59:28Z</time>
      </trkpt>
      <trkpt lat="42.024510" lon="0.912078">
        <ele>1727.0</ele>
        <time>2015-08-29T09:59:29Z</time>
      </trkpt>
      <trkpt lat="42.024490" lon="0.912128">
        <ele>1728.0</ele>
        <time>2015-08-29T09:59:30Z</time>
      </trkpt>
      <trkpt lat="42.024473" lon="0.912187">
        <ele>1727.0</ele>
        <time>2015-08-29T09:59:31Z</time>
      </trkpt>
      <trkpt lat="42.024455" lon="0.912255">
        <ele>1725.0</ele>
        <time>2015-08-29T09:59:32Z</time>
      </trkpt>
      <trkpt lat="42.024428" lon="0.912377">
        <ele>1724.0</ele>
        <time>2015-08-29T09:59:34Z</time>
      </trkpt>
      <trkpt lat="42.024418" lon="0.912470">
        <ele>1723.0</ele>
        <time>2015-08-29T09:59:35Z</time>
      </trkpt>
      <trkpt lat="42.024408" lon="0.912567">
        <ele>1723.0</ele>
        <time>2015-08-29T09:59:36Z</time>
      </trkpt>
      <trkpt lat="42.024402" lon="0.912658">
        <ele>1723.0</ele>
        <time>2015-08-29T09:59:37Z</time>
      </trkpt>
      <trkpt lat="42.024395" lon="0.912735">
        <ele>1724.0</ele>
        <time>2015-08-29T09:59:38Z</time>
      </trkpt>
      <trkpt lat="42.024380" lon="0.912798">
        <ele>1725.0</ele>
        <time>2015-08-29T09:59:39Z</time>
      </trkpt>
      <trkpt lat="42.024363" lon="0.912848">
        <ele>1726.0</ele>
        <time>2015-08-29T09:59:40Z</time>
      </trkpt>
      <trkpt lat="42.024343" lon="0.912897">
        <ele>1727.0</ele>
        <time>2015-08-29T09:59:41Z</time>
      </trkpt>
      <trkpt lat="42.024312" lon="0.912977">
        <ele>1729.0</ele>
        <time>2015-08-29T09:59:43Z</time>
      </trkpt>
      <trkpt lat="42.024263" lon="0.913055">
        <ele>1729.0</ele>
        <time>2015-08-29T09:59:45Z</time>
      </trkpt>
      <trkpt lat="42.024227" lon="0.913090">
        <ele>1730.0</ele>
        <time>2015-08-29T09:59:46Z</time>
      </trkpt>
      <trkpt lat="42.024187" lon="0.913132">
        <ele>1731.0</ele>
        <time>2015-08-29T09:59:47Z</time>
      </trkpt>
      <trkpt lat="42.024150" lon="0.913177">
        <ele>1732.0</ele>
        <time>2015-08-29T09:59:48Z</time>
      </trkpt>
      <trkpt lat="42.024110" lon="0.913222">
        <ele>1733.0</ele>
        <time>2015-08-29T09:59:49Z</time>
      </trkpt>
      <trkpt lat="42.024072" lon="0.913257">
        <ele>1735.0</ele>
        <time>2015-08-29T09:59:50Z</time>
      </trkpt>
      <trkpt lat="42.024027" lon="0.913308">
        <ele>1736.0</ele>
        <time>2015-08-29T09:59:51Z</time>
      </trkpt>
      <trkpt lat="42.023977" lon="0.913360">
        <ele>1735.0</ele>
        <time>2015-08-29T09:59:52Z</time>
      </trkpt>
      <trkpt lat="42.023928" lon="0.913415">
        <ele>1736.0</ele>
        <time>2015-08-29T09:59:53Z</time>
      </trkpt>
      <trkpt lat="42.023887" lon="0.913473">
        <ele>1737.0</ele>
        <time>2015-08-29T09:59:54Z</time>
      </trkpt>
      <trkpt lat="42.023853" lon="0.913528">
        <ele>1738.0</ele>
        <time>2015-08-29T09:59:55Z</time>
      </trkpt>
      <trkpt lat="42.023837" lon="0.913595">
        <ele>1739.0</ele>
        <time>2015-08-29T09:59:56Z</time>
      </trkpt>
      <trkpt lat="42.023823" lon="0.913648">
        <ele>1741.0</ele>
        <time>2015-08-29T09:59:57Z</time>
      </trkpt>
      <trkpt lat="42.023793" lon="0.913730">
        <ele>1744.0</ele>
        <time>2015-08-29T09:59:59Z</time>
      </trkpt>
      <trkpt lat="42.023763" lon="0.913770">
        <ele>1745.0</ele>
        <time>2015-08-29T10:00:00Z</time>
      </trkpt>
      <trkpt lat="42.023723" lon="0.913808">
        <ele>1746.0</ele>
        <time>2015-08-29T10:00:01Z</time>
      </trkpt>
      <trkpt lat="42.023680" lon="0.913878">
        <ele>1746.0</ele>
        <time>2015-08-29T10:00:02Z</time>
      </trkpt>
      <trkpt lat="42.023642" lon="0.913973">
        <ele>1747.0</ele>
        <time>2015-08-29T10:00:03Z</time>
      </trkpt>
      <trkpt lat="42.023608" lon="0.914082">
        <ele>1748.0</ele>
        <time>2015-08-29T10:00:04Z</time>
      </trkpt>
      <trkpt lat="42.023582" lon="0.914188">
        <ele>1748.0</ele>
        <time>2015-08-29T10:00:05Z</time>
      </trkpt>
      <trkpt lat="42.023547" lon="0.914258">
        <ele>1750.0</ele>
        <time>2015-08-29T10:00:06Z</time>
      </trkpt>
      <trkpt lat="42.023513" lon="0.914318">
        <ele>1752.0</ele>
        <time>2015-08-29T10:00:07Z</time>
      </trkpt>
      <trkpt lat="42.023495" lon="0.914398">
        <ele>1750.0</ele>
        <time>2015-08-29T10:00:08Z</time>
      </trkpt>
      <trkpt lat="42.023480" lon="0.914477">
        <ele>1747.0</ele>
        <time>2015-08-29T10:00:09Z</time>
      </trkpt>
      <trkpt lat="42.023457" lon="0.914537">
        <ele>1747.0</ele>
        <time>2015-08-29T10:00:10Z</time>
      </trkpt>
      <trkpt lat="42.023430" lon="0.914633">
        <ele>1746.0</ele>
        <time>2015-08-29T10:00:11Z</time>
      </trkpt>
      <trkpt lat="42.023392" lon="0.914738">
        <ele>1744.0</ele>
        <time>2015-08-29T10:00:12Z</time>
      </trkpt>
      <trkpt lat="42.023352" lon="0.914855">
        <ele>1743.0</ele>
        <time>2015-08-29T10:00:13Z</time>
      </trkpt>
      <trkpt lat="42.023322" lon="0.914945">
        <ele>1742.0</ele>
        <time>2015-08-29T10:00:14Z</time>
      </trkpt>
      <trkpt lat="42.023305" lon="0.915005">
        <ele>1742.0</ele>
        <time>2015-08-29T10:00:15Z</time>
      </trkpt>
      <trkpt lat="42.023287" lon="0.915100">
        <ele>1739.0</ele>
        <time>2015-08-29T10:00:17Z</time>
      </trkpt>
      <trkpt lat="42.023265" lon="0.915157">
        <ele>1737.0</ele>
        <time>2015-08-29T10:00:18Z</time>
      </trkpt>
      <trkpt lat="42.023237" lon="0.915232">
        <ele>1736.0</ele>
        <time>2015-08-29T10:00:19Z</time>
      </trkpt>
      <trkpt lat="42.023205" lon="0.915310">
        <ele>1736.0</ele>
        <time>2015-08-29T10:00:20Z</time>
      </trkpt>
      <trkpt lat="42.023185" lon="0.915395">
        <ele>1736.0</ele>
        <time>2015-08-29T10:00:21Z</time>
      </trkpt>
      <trkpt lat="42.023170" lon="0.915472">
        <ele>1735.0</ele>
        <time>2015-08-29T10:00:22Z</time>
      </trkpt>
      <trkpt lat="42.023157" lon="0.915532">
        <ele>1734.0</ele>
        <time>2015-08-29T10:00:23Z</time>
      </trkpt>
      <trkpt lat="42.023138" lon="0.915588">
        <ele>1733.0</ele>
        <time>2015-08-29T10:00:24Z</time>
      </trkpt>
      <trkpt lat="42.023118" lon="0.915693">
        <ele>1731.0</ele>
        <time>2015-08-29T10:00:25Z</time>
      </trkpt>
      <trkpt lat="42.023100" lon="0.915800">
        <ele>1730.0</ele>
        <time>2015-08-29T10:00:26Z</time>
      </trkpt>
      <trkpt lat="42.023082" lon="0.915893">
        <ele>1729.0</ele>
        <time>2015-08-29T10:00:27Z</time>
      </trkpt>
      <trkpt lat="42.023065" lon="0.915975">
        <ele>1729.0</ele>
        <time>2015-08-29T10:00:28Z</time>
      </trkpt>
      <trkpt lat="42.023047" lon="0.916048">
        <ele>1729.0</ele>
        <time>2015-08-29T10:00:29Z</time>
      </trkpt>
      <trkpt lat="42.023023" lon="0.916128">
        <ele>1730.0</ele>
        <time>2015-08-29T10:00:30Z</time>
      </trkpt>
      <trkpt lat="42.022995" lon="0.916213">
        <ele>1731.0</ele>
        <time>2015-08-29T10:00:31Z</time>
      </trkpt>
      <trkpt lat="42.022970" lon="0.916303">
        <ele>1731.0</ele>
        <time>2015-08-29T10:00:32Z</time>
      </trkpt>
      <trkpt lat="42.022952" lon="0.916385">
        <ele>1732.0</ele>
        <time>2015-08-29T10:00:33Z</time>
      </trkpt>
      <trkpt lat="42.022942" lon="0.916450">
        <ele>1732.0</ele>
        <time>2015-08-29T10:00:34Z</time>
      </trkpt>
      <trkpt lat="42.022932" lon="0.916500">
        <ele>1733.0</ele>
        <time>2015-08-29T10:00:35Z</time>
      </trkpt>
      <trkpt lat="42.022912" lon="0.916550">
        <ele>1733.0</ele>
        <time>2015-08-29T10:00:36Z</time>
      </trkpt>
      <trkpt lat="42.022878" lon="0.916598">
        <ele>1732.0</ele>
        <time>2015-08-29T10:00:37Z</time>
      </trkpt>
      <trkpt lat="42.022840" lon="0.916653">
        <ele>1732.0</ele>
        <time>2015-08-29T10:00:38Z</time>
      </trkpt>
      <trkpt lat="42.022808" lon="0.916713">
        <ele>1732.0</ele>
        <time>2015-08-29T10:00:39Z</time>
      </trkpt>
      <trkpt lat="42.022795" lon="0.916770">
        <ele>1734.0</ele>
        <time>2015-08-29T10:00:40Z</time>
      </trkpt>
      <trkpt lat="42.022782" lon="0.916825">
        <ele>1737.0</ele>
        <time>2015-08-29T10:00:41Z</time>
      </trkpt>
      <trkpt lat="42.022775" lon="0.916907">
        <ele>1735.0</ele>
        <time>2015-08-29T10:00:42Z</time>
      </trkpt>
      <trkpt lat="42.022763" lon="0.916992">
        <ele>1734.0</ele>
        <time>2015-08-29T10:00:43Z</time>
      </trkpt>
      <trkpt lat="42.022750" lon="0.917063">
        <ele>1734.0</ele>
        <time>2015-08-29T10:00:44Z</time>
      </trkpt>
      <trkpt lat="42.022737" lon="0.917135">
        <ele>1734.0</ele>
        <time>2015-08-29T10:00:45Z</time>
      </trkpt>
      <trkpt lat="42.022728" lon="0.917205">
        <ele>1734.0</ele>
        <time>2015-08-29T10:00:46Z</time>
      </trkpt>
      <trkpt lat="42.022718" lon="0.917278">
        <ele>1734.0</ele>
        <time>2015-08-29T10:00:47Z</time>
      </trkpt>
      <trkpt lat="42.022705" lon="0.917350">
        <ele>1734.0</ele>
        <time>2015-08-29T10:00:48Z</time>
      </trkpt>
      <trkpt lat="42.022685" lon="0.917415">
        <ele>1734.0</ele>
        <time>2015-08-29T10:00:49Z</time>
      </trkpt>
      <trkpt lat="42.022663" lon="0.917473">
        <ele>1735.0</ele>
        <time>2015-08-29T10:00:50Z</time>
      </trkpt>
      <trkpt lat="42.022648" lon="0.917532">
        <ele>1735.0</ele>
        <time>2015-08-29T10:00:51Z</time>
      </trkpt>
      <trkpt lat="42.022637" lon="0.917588">
        <ele>1735.0</ele>
        <time>2015-08-29T10:00:52Z</time>
      </trkpt>
      <trkpt lat="42.022618" lon="0.917657">
        <ele>1734.0</ele>
        <time>2015-08-29T10:00:53Z</time>
      </trkpt>
      <trkpt lat="42.022590" lon="0.917742">
        <ele>1734.0</ele>
        <time>2015-08-29T10:00:54Z</time>
      </trkpt>
      <trkpt lat="42.022555" lon="0.917850">
        <ele>1734.0</ele>
        <time>2015-08-29T10:00:55Z</time>
      </trkpt>
      <trkpt lat="42.022520" lon="0.917967">
        <ele>1734.0</ele>
        <time>2015-08-29T10:00:56Z</time>
      </trkpt>
      <trkpt lat="42.022485" lon="0.918048">
        <ele>1736.0</ele>
        <time>2015-08-29T10:00:57Z</time>
      </trkpt>
      <trkpt lat="42.022450" lon="0.918133">
        <ele>1739.0</ele>
        <time>2015-08-29T10:00:58Z</time>
      </trkpt>
      <trkpt lat="42.022423" lon="0.918228">
        <ele>1738.0</ele>
        <time>2015-08-29T10:00:59Z</time>
      </trkpt>
      <trkpt lat="42.022397" lon="0.918307">
        <ele>1737.0</ele>
        <time>2015-08-29T10:01:00Z</time>
      </trkpt>
      <trkpt lat="42.022370" lon="0.918382">
        <ele>1735.0</ele>
        <time>2015-08-29T10:01:01Z</time>
      </trkpt>
      <trkpt lat="42.022343" lon="0.918455">
        <ele>1734.0</ele>
        <time>2015-08-29T10:01:02Z</time>
      </trkpt>
      <trkpt lat="42.022317" lon="0.918527">
        <ele>1733.0</ele>
        <time>2015-08-29T10:01:03Z</time>
      </trkpt>
      <trkpt lat="42.022292" lon="0.918603">
        <ele>1732.0</ele>
        <time>2015-08-29T10:01:04Z</time>
      </trkpt>
      <trkpt lat="42.022263" lon="0.918687">
        <ele>1731.0</ele>
        <time>2015-08-29T10:01:05Z</time>
      </trkpt>
      <trkpt lat="42.022230" lon="0.918760">
        <ele>1730.0</ele>
        <time>2015-08-29T10:01:06Z</time>
      </trkpt>
      <trkpt lat="42.022185" lon="0.918807">
        <ele>1728.0</ele>
        <time>2015-08-29T10:01:07Z</time>
      </trkpt>
      <trkpt lat="42.022133" lon="0.918842">
        <ele>1727.0</ele>
        <time>2015-08-29T10:01:08Z</time>
      </trkpt>
      <trkpt lat="42.022085" lon="0.918873">
        <ele>1726.0</ele>
        <time>2015-08-29T10:01:09Z</time>
      </trkpt>
      <trkpt lat="42.022042" lon="0.918927">
        <ele>1725.0</ele>
        <time>2015-08-29T10:01:10Z</time>
      </trkpt>
      <trkpt lat="42.022003" lon="0.919005">
        <ele>1723.0</ele>
        <time>2015-08-29T10:01:11Z</time>
      </trkpt>
      <trkpt lat="42.021972" lon="0.919098">
        <ele>1722.0</ele>
        <time>2015-08-29T10:01:12Z</time>
      </trkpt>
      <trkpt lat="42.021955" lon="0.919230">
        <ele>1720.0</ele>
        <time>2015-08-29T10:01:13Z</time>
      </trkpt>
      <trkpt lat="42.021948" lon="0.919360">
        <ele>1718.0</ele>
        <time>2015-08-29T10:01:14Z</time>
      </trkpt>
      <trkpt lat="42.021948" lon="0.919480">
        <ele>1715.0</ele>
        <time>2015-08-29T10:01:15Z</time>
      </trkpt>
      <trkpt lat="42.021955" lon="0.919578">
        <ele>1713.0</ele>
        <time>2015-08-29T10:01:16Z</time>
      </trkpt>
      <trkpt lat="42.021965" lon="0.919682">
        <ele>1710.0</ele>
        <time>2015-08-29T10:01:17Z</time>
      </trkpt>
      <trkpt lat="42.021967" lon="0.919772">
        <ele>1709.0</ele>
        <time>2015-08-29T10:01:18Z</time>
      </trkpt>
      <trkpt lat="42.021967" lon="0.919890">
        <ele>1707.0</ele>
        <time>2015-08-29T10:01:19Z</time>
      </trkpt>
      <trkpt lat="42.021960" lon="0.920010">
        <ele>1705.0</ele>
        <time>2015-08-29T10:01:20Z</time>
      </trkpt>
      <trkpt lat="42.021955" lon="0.920120">
        <ele>1704.0</ele>
        <time>2015-08-29T10:01:21Z</time>
      </trkpt>
      <trkpt lat="42.021957" lon="0.920215">
        <ele>1702.0</ele>
        <time>2015-08-29T10:01:22Z</time>
      </trkpt>
      <trkpt lat="42.021963" lon="0.920307">
        <ele>1699.0</ele>
        <time>2015-08-29T10:01:23Z</time>
      </trkpt>
      <trkpt lat="42.021963" lon="0.920393">
        <ele>1697.0</ele>
        <time>2015-08-29T10:01:24Z</time>
      </trkpt>
      <trkpt lat="42.021957" lon="0.920493">
        <ele>1695.0</ele>
        <time>2015-08-29T10:01:25Z</time>
      </trkpt>
      <trkpt lat="42.021955" lon="0.920622">
        <ele>1692.0</ele>
        <time>2015-08-29T10:01:26Z</time>
      </trkpt>
      <trkpt lat="42.021957" lon="0.920738">
        <ele>1690.0</ele>
        <time>2015-08-29T10:01:27Z</time>
      </trkpt>
      <trkpt lat="42.021965" lon="0.920862">
        <ele>1686.0</ele>
        <time>2015-08-29T10:01:28Z</time>
      </trkpt>
      <trkpt lat="42.021962" lon="0.920952">
        <ele>1685.0</ele>
        <time>2015-08-29T10:01:29Z</time>
      </trkpt>
      <trkpt lat="42.021953" lon="0.921063">
        <ele>1683.0</ele>
        <time>2015-08-29T10:01:30Z</time>
      </trkpt>
      <trkpt lat="42.021945" lon="0.921177">
        <ele>1680.0</ele>
        <time>2015-08-29T10:01:31Z</time>
      </trkpt>
      <trkpt lat="42.021945" lon="0.921292">
        <ele>1678.0</ele>
        <time>2015-08-29T10:01:32Z</time>
      </trkpt>
      <trkpt lat="42.021953" lon="0.921402">
        <ele>1677.0</ele>
        <time>2015-08-29T10:01:33Z</time>
      </trkpt>
      <trkpt lat="42.021967" lon="0.921510">
        <ele>1675.0</ele>
        <time>2015-08-29T10:01:34Z</time>
      </trkpt>
      <trkpt lat="42.021980" lon="0.921612">
        <ele>1674.0</ele>
        <time>2015-08-29T10:01:35Z</time>
      </trkpt>
      <trkpt lat="42.021993" lon="0.921722">
        <ele>1672.0</ele>
        <time>2015-08-29T10:01:36Z</time>
      </trkpt>
      <trkpt lat="42.022007" lon="0.921840">
        <ele>1671.0</ele>
        <time>2015-08-29T10:01:37Z</time>
      </trkpt>
      <trkpt lat="42.022027" lon="0.921955">
        <ele>1670.0</ele>
        <time>2015-08-29T10:01:38Z</time>
      </trkpt>
      <trkpt lat="42.022047" lon="0.922057">
        <ele>1669.0</ele>
        <time>2015-08-29T10:01:39Z</time>
      </trkpt>
      <trkpt lat="42.022062" lon="0.922128">
        <ele>1669.0</ele>
        <time>2015-08-29T10:01:40Z</time>
      </trkpt>
      <trkpt lat="42.022065" lon="0.922185">
        <ele>1669.0</ele>
        <time>2015-08-29T10:01:41Z</time>
      </trkpt>
      <trkpt lat="42.022062" lon="0.922288">
        <ele>1667.0</ele>
        <time>2015-08-29T10:01:43Z</time>
      </trkpt>
      <trkpt lat="42.022057" lon="0.922375">
        <ele>1666.0</ele>
        <time>2015-08-29T10:01:44Z</time>
      </trkpt>
      <trkpt lat="42.022048" lon="0.922467">
        <ele>1665.0</ele>
        <time>2015-08-29T10:01:45Z</time>
      </trkpt>
      <trkpt lat="42.022035" lon="0.922547">
        <ele>1665.0</ele>
        <time>2015-08-29T10:01:46Z</time>
      </trkpt>
      <trkpt lat="42.022035" lon="0.922662">
        <ele>1662.0</ele>
        <time>2015-08-29T10:01:47Z</time>
      </trkpt>
      <trkpt lat="42.022043" lon="0.922763">
        <ele>1658.0</ele>
        <time>2015-08-29T10:01:48Z</time>
      </trkpt>
      <trkpt lat="42.022052" lon="0.922850">
        <ele>1657.0</ele>
        <time>2015-08-29T10:01:49Z</time>
      </trkpt>
      <trkpt lat="42.022057" lon="0.922937">
        <ele>1655.0</ele>
        <time>2015-08-29T10:01:50Z</time>
      </trkpt>
      <trkpt lat="42.022065" lon="0.923020">
        <ele>1652.0</ele>
        <time>2015-08-29T10:01:51Z</time>
      </trkpt>
      <trkpt lat="42.022072" lon="0.923093">
        <ele>1651.0</ele>
        <time>2015-08-29T10:01:52Z</time>
      </trkpt>
      <trkpt lat="42.022073" lon="0.923152">
        <ele>1650.0</ele>
        <time>2015-08-29T10:01:53Z</time>
      </trkpt>
      <trkpt lat="42.022073" lon="0.923205">
        <ele>1649.0</ele>
        <time>2015-08-29T10:01:54Z</time>
      </trkpt>
      <trkpt lat="42.022067" lon="0.923300">
        <ele>1647.0</ele>
        <time>2015-08-29T10:01:56Z</time>
      </trkpt>
      <trkpt lat="42.022058" lon="0.923353">
        <ele>1647.0</ele>
        <time>2015-08-29T10:01:57Z</time>
      </trkpt>
      <trkpt lat="42.022053" lon="0.923412">
        <ele>1646.0</ele>
        <time>2015-08-29T10:01:58Z</time>
      </trkpt>
      <trkpt lat="42.022047" lon="0.923477">
        <ele>1645.0</ele>
        <time>2015-08-29T10:01:59Z</time>
      </trkpt>
      <trkpt lat="42.022045" lon="0.923553">
        <ele>1645.0</ele>
        <time>2015-08-29T10:02:00Z</time>
      </trkpt>
      <trkpt lat="42.022042" lon="0.923628">
        <ele>1644.0</ele>
        <time>2015-08-29T10:02:01Z</time>
      </trkpt>
      <trkpt lat="42.022040" lon="0.923695">
        <ele>1645.0</ele>
        <time>2015-08-29T10:02:02Z</time>
      </trkpt>
      <trkpt lat="42.022035" lon="0.923758">
        <ele>1646.0</ele>
        <time>2015-08-29T10:02:03Z</time>
      </trkpt>
      <trkpt lat="42.022028" lon="0.923845">
        <ele>1645.0</ele>
        <time>2015-08-29T10:02:04Z</time>
      </trkpt>
      <trkpt lat="42.022027" lon="0.923935">
        <ele>1644.0</ele>
        <time>2015-08-29T10:02:05Z</time>
      </trkpt>
      <trkpt lat="42.022032" lon="0.924013">
        <ele>1642.0</ele>
        <time>2015-08-29T10:02:06Z</time>
      </trkpt>
      <trkpt lat="42.022042" lon="0.924073">
        <ele>1642.0</ele>
        <time>2015-08-29T10:02:07Z</time>
      </trkpt>
      <trkpt lat="42.022048" lon="0.924138">
        <ele>1642.0</ele>
        <time>2015-08-29T10:02:08Z</time>
      </trkpt>
      <trkpt lat="42.022047" lon="0.924198">
        <ele>1642.0</ele>
        <time>2015-08-29T10:02:09Z</time>
      </trkpt>
      <trkpt lat="42.022038" lon="0.924270">
        <ele>1641.0</ele>
        <time>2015-08-29T10:02:10Z</time>
      </trkpt>
      <trkpt lat="42.022033" lon="0.924347">
        <ele>1641.0</ele>
        <time>2015-08-29T10:02:11Z</time>
      </trkpt>
      <trkpt lat="42.022038" lon="0.924403">
        <ele>1641.0</ele>
        <time>2015-08-29T10:02:12Z</time>
      </trkpt>
      <trkpt lat="42.022033" lon="0.924465">
        <ele>1643.0</ele>
        <time>2015-08-29T10:02:14Z</time>
      </trkpt>
      <trkpt lat="42.021993" lon="0.924498">
        <ele>1646.0</ele>
        <time>2015-08-29T10:02:16Z</time>
      </trkpt>
      <trkpt lat="42.021932" lon="0.924497">
        <ele>1649.0</ele>
        <time>2015-08-29T10:02:19Z</time>
      </trkpt>
      <trkpt lat="42.021873" lon="0.924537">
        <ele>1649.0</ele>
        <time>2015-08-29T10:02:21Z</time>
      </trkpt>
      <trkpt lat="42.021843" lon="0.924585">
        <ele>1648.0</ele>
        <time>2015-08-29T10:02:22Z</time>
      </trkpt>
      <trkpt lat="42.021820" lon="0.924635">
        <ele>1647.0</ele>
        <time>2015-08-29T10:02:23Z</time>
      </trkpt>
      <trkpt lat="42.021797" lon="0.924695">
        <ele>1648.0</ele>
        <time>2015-08-29T10:02:25Z</time>
      </trkpt>
      <trkpt lat="42.021748" lon="0.924733">
        <ele>1653.0</ele>
        <time>2015-08-29T10:02:27Z</time>
      </trkpt>
      <trkpt lat="42.021718" lon="0.924777">
        <ele>1653.0</ele>
        <time>2015-08-29T10:02:28Z</time>
      </trkpt>
      <trkpt lat="42.021688" lon="0.924813">
        <ele>1653.0</ele>
        <time>2015-08-29T10:02:29Z</time>
      </trkpt>
      <trkpt lat="42.021647" lon="0.924860">
        <ele>1657.0</ele>
        <time>2015-08-29T10:02:31Z</time>
      </trkpt>
      <trkpt lat="42.021592" lon="0.924913">
        <ele>1660.0</ele>
        <time>2015-08-29T10:02:33Z</time>
      </trkpt>
      <trkpt lat="42.021552" lon="0.924967">
        <ele>1661.0</ele>
        <time>2015-08-29T10:02:34Z</time>
      </trkpt>
      <trkpt lat="42.021523" lon="0.925037">
        <ele>1661.0</ele>
        <time>2015-08-29T10:02:35Z</time>
      </trkpt>
      <trkpt lat="42.021510" lon="0.925087">
        <ele>1662.0</ele>
        <time>2015-08-29T10:02:36Z</time>
      </trkpt>
      <trkpt lat="42.021502" lon="0.925138">
        <ele>1665.0</ele>
        <time>2015-08-29T10:02:37Z</time>
      </trkpt>
      <trkpt lat="42.021500" lon="0.925210">
        <ele>1663.0</ele>
        <time>2015-08-29T10:02:38Z</time>
      </trkpt>
      <trkpt lat="42.021493" lon="0.925263">
        <ele>1663.0</ele>
        <time>2015-08-29T10:02:39Z</time>
      </trkpt>
      <trkpt lat="42.021485" lon="0.925378">
        <ele>1663.0</ele>
        <time>2015-08-29T10:02:41Z</time>
      </trkpt>
      <trkpt lat="42.021487" lon="0.925457">
        <ele>1664.0</ele>
        <time>2015-08-29T10:02:42Z</time>
      </trkpt>
      <trkpt lat="42.021490" lon="0.925525">
        <ele>1664.0</ele>
        <time>2015-08-29T10:02:43Z</time>
      </trkpt>
      <trkpt lat="42.021502" lon="0.925590">
        <ele>1664.0</ele>
        <time>2015-08-29T10:02:44Z</time>
      </trkpt>
      <trkpt lat="42.021505" lon="0.925645">
        <ele>1664.0</ele>
        <time>2015-08-29T10:02:45Z</time>
      </trkpt>
      <trkpt lat="42.021502" lon="0.925697">
        <ele>1664.0</ele>
        <time>2015-08-29T10:02:46Z</time>
      </trkpt>
      <trkpt lat="42.021497" lon="0.925762">
        <ele>1664.0</ele>
        <time>2015-08-29T10:02:47Z</time>
      </trkpt>
      <trkpt lat="42.021490" lon="0.925838">
        <ele>1664.0</ele>
        <time>2015-08-29T10:02:48Z</time>
      </trkpt>
      <trkpt lat="42.021485" lon="0.925917">
        <ele>1663.0</ele>
        <time>2015-08-29T10:02:49Z</time>
      </trkpt>
      <trkpt lat="42.021485" lon="0.925988">
        <ele>1664.0</ele>
        <time>2015-08-29T10:02:50Z</time>
      </trkpt>
      <trkpt lat="42.021487" lon="0.926058">
        <ele>1664.0</ele>
        <time>2015-08-29T10:02:51Z</time>
      </trkpt>
      <trkpt lat="42.021492" lon="0.926133">
        <ele>1663.0</ele>
        <time>2015-08-29T10:02:52Z</time>
      </trkpt>
      <trkpt lat="42.021488" lon="0.926198">
        <ele>1664.0</ele>
        <time>2015-08-29T10:02:53Z</time>
      </trkpt>
      <trkpt lat="42.021483" lon="0.926270">
        <ele>1665.0</ele>
        <time>2015-08-29T10:02:54Z</time>
      </trkpt>
      <trkpt lat="42.021488" lon="0.926362">
        <ele>1663.0</ele>
        <time>2015-08-29T10:02:55Z</time>
      </trkpt>
      <trkpt lat="42.021498" lon="0.926453">
        <ele>1662.0</ele>
        <time>2015-08-29T10:02:56Z</time>
      </trkpt>
      <trkpt lat="42.021510" lon="0.926533">
        <ele>1662.0</ele>
        <time>2015-08-29T10:02:57Z</time>
      </trkpt>
      <trkpt lat="42.021525" lon="0.926607">
        <ele>1662.0</ele>
        <time>2015-08-29T10:02:58Z</time>
      </trkpt>
      <trkpt lat="42.021537" lon="0.926672">
        <ele>1662.0</ele>
        <time>2015-08-29T10:02:59Z</time>
      </trkpt>
      <trkpt lat="42.021547" lon="0.926738">
        <ele>1663.0</ele>
        <time>2015-08-29T10:03:00Z</time>
      </trkpt>
      <trkpt lat="42.021553" lon="0.926812">
        <ele>1663.0</ele>
        <time>2015-08-29T10:03:01Z</time>
      </trkpt>
      <trkpt lat="42.021558" lon="0.926888">
        <ele>1664.0</ele>
        <time>2015-08-29T10:03:02Z</time>
      </trkpt>
      <trkpt lat="42.021568" lon="0.926972">
        <ele>1664.0</ele>
        <time>2015-08-29T10:03:03Z</time>
      </trkpt>
      <trkpt lat="42.021582" lon="0.927053">
        <ele>1665.0</ele>
        <time>2015-08-29T10:03:04Z</time>
      </trkpt>
      <trkpt lat="42.021595" lon="0.927132">
        <ele>1666.0</ele>
        <time>2015-08-29T10:03:05Z</time>
      </trkpt>
      <trkpt lat="42.021603" lon="0.927207">
        <ele>1667.0</ele>
        <time>2015-08-29T10:03:06Z</time>
      </trkpt>
      <trkpt lat="42.021603" lon="0.927272">
        <ele>1667.0</ele>
        <time>2015-08-29T10:03:07Z</time>
      </trkpt>
      <trkpt lat="42.021598" lon="0.927325">
        <ele>1668.0</ele>
        <time>2015-08-29T10:03:08Z</time>
      </trkpt>
      <trkpt lat="42.021583" lon="0.927372">
        <ele>1668.0</ele>
        <time>2015-08-29T10:03:09Z</time>
      </trkpt>
      <trkpt lat="42.021555" lon="0.927412">
        <ele>1669.0</ele>
        <time>2015-08-29T10:03:10Z</time>
      </trkpt>
      <trkpt lat="42.021520" lon="0.927473">
        <ele>1671.0</ele>
        <time>2015-08-29T10:03:11Z</time>
      </trkpt>
      <trkpt lat="42.021492" lon="0.927560">
        <ele>1671.0</ele>
        <time>2015-08-29T10:03:12Z</time>
      </trkpt>
      <trkpt lat="42.021468" lon="0.927627">
        <ele>1671.0</ele>
        <time>2015-08-29T10:03:13Z</time>
      </trkpt>
      <trkpt lat="42.021452" lon="0.927677">
        <ele>1671.0</ele>
        <time>2015-08-29T10:03:14Z</time>
      </trkpt>
      <trkpt lat="42.021433" lon="0.927732">
        <ele>1671.0</ele>
        <time>2015-08-29T10:03:15Z</time>
      </trkpt>
      <trkpt lat="42.021412" lon="0.927793">
        <ele>1671.0</ele>
        <time>2015-08-29T10:03:16Z</time>
      </trkpt>
      <trkpt lat="42.021392" lon="0.927865">
        <ele>1672.0</ele>
        <time>2015-08-29T10:03:17Z</time>
      </trkpt>
      <trkpt lat="42.021385" lon="0.927940">
        <ele>1672.0</ele>
        <time>2015-08-29T10:03:18Z</time>
      </trkpt>
      <trkpt lat="42.021388" lon="0.928022">
        <ele>1673.0</ele>
        <time>2015-08-29T10:03:19Z</time>
      </trkpt>
      <trkpt lat="42.021387" lon="0.928102">
        <ele>1672.0</ele>
        <time>2015-08-29T10:03:20Z</time>
      </trkpt>
      <trkpt lat="42.021370" lon="0.928172">
        <ele>1672.0</ele>
        <time>2015-08-29T10:03:21Z</time>
      </trkpt>
      <trkpt lat="42.021348" lon="0.928237">
        <ele>1672.0</ele>
        <time>2015-08-29T10:03:22Z</time>
      </trkpt>
      <trkpt lat="42.021332" lon="0.928310">
        <ele>1671.0</ele>
        <time>2015-08-29T10:03:23Z</time>
      </trkpt>
      <trkpt lat="42.021332" lon="0.928400">
        <ele>1670.0</ele>
        <time>2015-08-29T10:03:24Z</time>
      </trkpt>
      <trkpt lat="42.021348" lon="0.928503">
        <ele>1669.0</ele>
        <time>2015-08-29T10:03:25Z</time>
      </trkpt>
      <trkpt lat="42.021373" lon="0.928610">
        <ele>1668.0</ele>
        <time>2015-08-29T10:03:26Z</time>
      </trkpt>
      <trkpt lat="42.021392" lon="0.928687">
        <ele>1671.0</ele>
        <time>2015-08-29T10:03:27Z</time>
      </trkpt>
      <trkpt lat="42.021413" lon="0.928772">
        <ele>1672.0</ele>
        <time>2015-08-29T10:03:28Z</time>
      </trkpt>
      <trkpt lat="42.021438" lon="0.928870">
        <ele>1671.0</ele>
        <time>2015-08-29T10:03:29Z</time>
      </trkpt>
      <trkpt lat="42.021458" lon="0.928943">
        <ele>1671.0</ele>
        <time>2015-08-29T10:03:30Z</time>
      </trkpt>
      <trkpt lat="42.021478" lon="0.928995">
        <ele>1670.0</ele>
        <time>2015-08-29T10:03:31Z</time>
      </trkpt>
      <trkpt lat="42.021503" lon="0.929055">
        <ele>1670.0</ele>
        <time>2015-08-29T10:03:32Z</time>
      </trkpt>
      <trkpt lat="42.021528" lon="0.929133">
        <ele>1670.0</ele>
        <time>2015-08-29T10:03:33Z</time>
      </trkpt>
      <trkpt lat="42.021553" lon="0.929225">
        <ele>1671.0</ele>
        <time>2015-08-29T10:03:34Z</time>
      </trkpt>
      <trkpt lat="42.021573" lon="0.929317">
        <ele>1671.0</ele>
        <time>2015-08-29T10:03:35Z</time>
      </trkpt>
      <trkpt lat="42.021583" lon="0.929382">
        <ele>1672.0</ele>
        <time>2015-08-29T10:03:36Z</time>
      </trkpt>
      <trkpt lat="42.021590" lon="0.929455">
        <ele>1675.0</ele>
        <time>2015-08-29T10:03:38Z</time>
      </trkpt>
      <trkpt lat="42.021580" lon="0.929508">
        <ele>1676.0</ele>
        <time>2015-08-29T10:03:39Z</time>
      </trkpt>
      <trkpt lat="42.021567" lon="0.929580">
        <ele>1678.0</ele>
        <time>2015-08-29T10:03:40Z</time>
      </trkpt>
      <trkpt lat="42.021553" lon="0.929657">
        <ele>1680.0</ele>
        <time>2015-08-29T10:03:41Z</time>
      </trkpt>
      <trkpt lat="42.021548" lon="0.929723">
        <ele>1682.0</ele>
        <time>2015-08-29T10:03:42Z</time>
      </trkpt>
      <trkpt lat="42.021550" lon="0.929783">
        <ele>1683.0</ele>
        <time>2015-08-29T10:03:43Z</time>
      </trkpt>
      <trkpt lat="42.021528" lon="0.929867">
        <ele>1689.0</ele>
        <time>2015-08-29T10:03:45Z</time>
      </trkpt>
      <trkpt lat="42.021508" lon="0.929943">
        <ele>1691.0</ele>
        <time>2015-08-29T10:03:46Z</time>
      </trkpt>
      <trkpt lat="42.021498" lon="0.930022">
        <ele>1694.0</ele>
        <time>2015-08-29T10:03:47Z</time>
      </trkpt>
      <trkpt lat="42.021495" lon="0.930088">
        <ele>1696.0</ele>
        <time>2015-08-29T10:03:48Z</time>
      </trkpt>
      <trkpt lat="42.021522" lon="0.930173">
        <ele>1699.0</ele>
        <time>2015-08-29T10:03:49Z</time>
      </trkpt>
      <trkpt lat="42.021563" lon="0.930248">
        <ele>1700.0</ele>
        <time>2015-08-29T10:03:50Z</time>
      </trkpt>
      <trkpt lat="42.021618" lon="0.930327">
        <ele>1703.0</ele>
        <time>2015-08-29T10:03:51Z</time>
      </trkpt>
      <trkpt lat="42.021668" lon="0.930395">
        <ele>1705.0</ele>
        <time>2015-08-29T10:03:52Z</time>
      </trkpt>
      <trkpt lat="42.021712" lon="0.930460">
        <ele>1708.0</ele>
        <time>2015-08-29T10:03:53Z</time>
      </trkpt>
      <trkpt lat="42.021755" lon="0.930517">
        <ele>1710.0</ele>
        <time>2015-08-29T10:03:54Z</time>
      </trkpt>
      <trkpt lat="42.021790" lon="0.930565">
        <ele>1712.0</ele>
        <time>2015-08-29T10:03:55Z</time>
      </trkpt>
      <trkpt lat="42.021813" lon="0.930622">
        <ele>1713.0</ele>
        <time>2015-08-29T10:03:56Z</time>
      </trkpt>
      <trkpt lat="42.021823" lon="0.930687">
        <ele>1715.0</ele>
        <time>2015-08-29T10:03:57Z</time>
      </trkpt>
      <trkpt lat="42.021817" lon="0.930758">
        <ele>1717.0</ele>
        <time>2015-08-29T10:03:58Z</time>
      </trkpt>
      <trkpt lat="42.021793" lon="0.930807">
        <ele>1719.0</ele>
        <time>2015-08-29T10:03:59Z</time>
      </trkpt>
      <trkpt lat="42.021563" lon="0.930248">
        <ele>1700.0</ele>
        <time>2015-08-29T10:03:50Z</time>
      </trkpt>
      <trkpt lat="42.021618" lon="0.930327">
        <ele>1703.0</ele>
        <time>2015-08-29T10:03:51Z</time>
      </trkpt>
      <trkpt lat="42.021668" lon="0.930395">
        <ele>1705.0</ele>
        <time>2015-08-29T10:03:52Z</time>
      </trkpt>
      <trkpt lat="42.021712" lon="0.930460">
        <ele>1708.0</ele>
        <time>2015-08-29T10:03:53Z</time>
      </trkpt>
      <trkpt lat="42.021755" lon="0.930517">
        <ele>1710.0</ele>
        <time>2015-08-29T10:03:54Z</time>
      </trkpt>
      <trkpt lat="42.021790" lon="0.930565">
        <ele>1712.0</ele>
        <time>2015-08-29T10:03:55Z</time>
      </trkpt>
      <trkpt lat="42.021813" lon="0.930622">
        <ele>1713.0</ele>
        <time>2015-08-29T10:03:56Z</time>
      </trkpt>
      <trkpt lat="42.021823" lon="0.930687">
        <ele>1715.0</ele>
        <time>2015-08-29T10:03:57Z</time>
      </trkpt>
      <trkpt lat="42.021817" lon="0.930758">
        <ele>1717.0</ele>
        <time>2015-08-29T10:03:58Z</time>
      </trkpt>
      <trkpt lat="42.021793" lon="0.930807">
        <ele>1719.0</ele>
        <time>2015-08-29T10:03:59Z</time>
      </trkpt>
      <trkpt lat="42.021748" lon="0.930755">
        <ele>1723.0</ele>
        <time>2015-08-29T10:04:02Z</time>
      </trkpt>
      <trkpt lat="42.021727" lon="0.930707">
        <ele>1722.0</ele>
        <time>2015-08-29T10:04:03Z</time>
      </trkpt>
      <trkpt lat="42.021705" lon="0.930655">
        <ele>1721.0</ele>
        <time>2015-08-29T10:04:04Z</time>
      </trkpt>
      <trkpt lat="42.021697" lon="0.930588">
        <ele>1721.0</ele>
        <time>2015-08-29T10:04:05Z</time>
      </trkpt>
      <trkpt lat="42.021693" lon="0.930513">
        <ele>1723.0</ele>
        <time>2015-08-29T10:04:06Z</time>
      </trkpt>
      <trkpt lat="42.021698" lon="0.930435">
        <ele>1724.0</ele>
        <time>2015-08-29T10:04:07Z</time>
      </trkpt>
      <trkpt lat="42.021705" lon="0.930357">
        <ele>1725.0</ele>
        <time>2015-08-29T10:04:08Z</time>
      </trkpt>
      <trkpt lat="42.021713" lon="0.930280">
        <ele>1725.0</ele>
        <time>2015-08-29T10:04:09Z</time>
      </trkpt>
      <trkpt lat="42.021722" lon="0.930207">
        <ele>1727.0</ele>
        <time>2015-08-29T10:04:10Z</time>
      </trkpt>
      <trkpt lat="42.021733" lon="0.930130">
        <ele>1728.0</ele>
        <time>2015-08-29T10:04:11Z</time>
      </trkpt>
      <trkpt lat="42.021742" lon="0.930045">
        <ele>1729.0</ele>
        <time>2015-08-29T10:04:12Z</time>
      </trkpt>
      <trkpt lat="42.021748" lon="0.929950">
        <ele>1730.0</ele>
        <time>2015-08-29T10:04:13Z</time>
      </trkpt>
      <trkpt lat="42.021765" lon="0.929835">
        <ele>1728.0</ele>
        <time>2015-08-29T10:04:14Z</time>
      </trkpt>
      <trkpt lat="42.021785" lon="0.929732">
        <ele>1731.0</ele>
        <time>2015-08-29T10:04:15Z</time>
      </trkpt>
      <trkpt lat="42.021818" lon="0.929617">
        <ele>1733.0</ele>
        <time>2015-08-29T10:04:16Z</time>
      </trkpt>
      <trkpt lat="42.021853" lon="0.929495">
        <ele>1733.0</ele>
        <time>2015-08-29T10:04:17Z</time>
      </trkpt>
      <trkpt lat="42.021888" lon="0.929392">
        <ele>1734.0</ele>
        <time>2015-08-29T10:04:18Z</time>
      </trkpt>
      <trkpt lat="42.021928" lon="0.929290">
        <ele>1735.0</ele>
        <time>2015-08-29T10:04:19Z</time>
      </trkpt>
      <trkpt lat="42.021980" lon="0.929198">
        <ele>1736.0</ele>
        <time>2015-08-29T10:04:20Z</time>
      </trkpt>
      <trkpt lat="42.022043" lon="0.929115">
        <ele>1737.0</ele>
        <time>2015-08-29T10:04:21Z</time>
      </trkpt>
      <trkpt lat="42.022113" lon="0.929035">
        <ele>1738.0</ele>
        <time>2015-08-29T10:04:22Z</time>
      </trkpt>
      <trkpt lat="42.022190" lon="0.928953">
        <ele>1739.0</ele>
        <time>2015-08-29T10:04:23Z</time>
      </trkpt>
      <trkpt lat="42.022278" lon="0.928868">
        <ele>1740.0</ele>
        <time>2015-08-29T10:04:24Z</time>
      </trkpt>
      <trkpt lat="42.022380" lon="0.928778">
        <ele>1741.0</ele>
        <time>2015-08-29T10:04:25Z</time>
      </trkpt>
      <trkpt lat="42.022493" lon="0.928703">
        <ele>1742.0</ele>
        <time>2015-08-29T10:04:26Z</time>
      </trkpt>
      <trkpt lat="42.022617" lon="0.928652">
        <ele>1743.0</ele>
        <time>2015-08-29T10:04:27Z</time>
      </trkpt>
      <trkpt lat="42.022742" lon="0.928642">
        <ele>1745.0</ele>
        <time>2015-08-29T10:04:28Z</time>
      </trkpt>
      <trkpt lat="42.022868" lon="0.928625">
        <ele>1746.0</ele>
        <time>2015-08-29T10:04:29Z</time>
      </trkpt>
      <trkpt lat="42.022987" lon="0.928643">
        <ele>1748.0</ele>
        <time>2015-08-29T10:04:30Z</time>
      </trkpt>
      <trkpt lat="42.023088" lon="0.928667">
        <ele>1750.0</ele>
        <time>2015-08-29T10:04:31Z</time>
      </trkpt>
      <trkpt lat="42.023178" lon="0.928740">
        <ele>1753.0</ele>
        <time>2015-08-29T10:04:32Z</time>
      </trkpt>
      <trkpt lat="42.023270" lon="0.928827">
        <ele>1755.0</ele>
        <time>2015-08-29T10:04:33Z</time>
      </trkpt>
      <trkpt lat="42.023358" lon="0.928918">
        <ele>1757.0</ele>
        <time>2015-08-29T10:04:34Z</time>
      </trkpt>
      <trkpt lat="42.023438" lon="0.928992">
        <ele>1759.0</ele>
        <time>2015-08-29T10:04:35Z</time>
      </trkpt>
      <trkpt lat="42.023517" lon="0.929055">
        <ele>1761.0</ele>
        <time>2015-08-29T10:04:36Z</time>
      </trkpt>
      <trkpt lat="42.023585" lon="0.929117">
        <ele>1763.0</ele>
        <time>2015-08-29T10:04:37Z</time>
      </trkpt>
      <trkpt lat="42.023640" lon="0.929185">
        <ele>1766.0</ele>
        <time>2015-08-29T10:04:38Z</time>
      </trkpt>
      <trkpt lat="42.023673" lon="0.929272">
        <ele>1768.0</ele>
        <time>2015-08-29T10:04:39Z</time>
      </trkpt>
      <trkpt lat="42.023687" lon="0.929355">
        <ele>1771.0</ele>
        <time>2015-08-29T10:04:40Z</time>
      </trkpt>
      <trkpt lat="42.023677" lon="0.929425">
        <ele>1773.0</ele>
        <time>2015-08-29T10:04:41Z</time>
      </trkpt>
      <trkpt lat="42.023648" lon="0.929467">
        <ele>1775.0</ele>
        <time>2015-08-29T10:04:42Z</time>
      </trkpt>
      <trkpt lat="42.023603" lon="0.929495">
        <ele>1777.0</ele>
        <time>2015-08-29T10:04:43Z</time>
      </trkpt>
      <trkpt lat="42.023558" lon="0.929510">
        <ele>1779.0</ele>
        <time>2015-08-29T10:04:44Z</time>
      </trkpt>
      <trkpt lat="42.023520" lon="0.929512">
        <ele>1780.0</ele>
        <time>2015-08-29T10:04:45Z</time>
      </trkpt>
      <trkpt lat="42.023487" lon="0.929490">
        <ele>1782.0</ele>
        <time>2015-08-29T10:04:46Z</time>
      </trkpt>
      <trkpt lat="42.023450" lon="0.929448">
        <ele>1784.0</ele>
        <time>2015-08-29T10:04:47Z</time>
      </trkpt>
      <trkpt lat="42.023417" lon="0.929392">
        <ele>1785.0</ele>
        <time>2015-08-29T10:04:48Z</time>
      </trkpt>
      <trkpt lat="42.023395" lon="0.929345">
        <ele>1788.0</ele>
        <time>2015-08-29T10:04:49Z</time>
      </trkpt>
      <trkpt lat="42.023368" lon="0.929292">
        <ele>1791.0</ele>
        <time>2015-08-29T10:04:50Z</time>
      </trkpt>
      <trkpt lat="42.023342" lon="0.929215">
        <ele>1792.0</ele>
        <time>2015-08-29T10:04:51Z</time>
      </trkpt>
      <trkpt lat="42.023323" lon="0.929128">
        <ele>1793.0</ele>
        <time>2015-08-29T10:04:52Z</time>
      </trkpt>
      <trkpt lat="42.023315" lon="0.929038">
        <ele>1795.0</ele>
        <time>2015-08-29T10:04:53Z</time>
      </trkpt>
      <trkpt lat="42.023315" lon="0.928947">
        <ele>1796.0</ele>
        <time>2015-08-29T10:04:54Z</time>
      </trkpt>
      <trkpt lat="42.023323" lon="0.928855">
        <ele>1798.0</ele>
        <time>2015-08-29T10:04:55Z</time>
      </trkpt>
      <trkpt lat="42.023348" lon="0.928758">
        <ele>1799.0</ele>
        <time>2015-08-29T10:04:56Z</time>
      </trkpt>
      <trkpt lat="42.023393" lon="0.928640">
        <ele>1800.0</ele>
        <time>2015-08-29T10:04:57Z</time>
      </trkpt>
      <trkpt lat="42.023455" lon="0.928520">
        <ele>1802.0</ele>
        <time>2015-08-29T10:04:58Z</time>
      </trkpt>
      <trkpt lat="42.023537" lon="0.928430">
        <ele>1804.0</ele>
        <time>2015-08-29T10:04:59Z</time>
      </trkpt>
      <trkpt lat="42.023623" lon="0.928343">
        <ele>1805.0</ele>
        <time>2015-08-29T10:05:00Z</time>
      </trkpt>
      <trkpt lat="42.023718" lon="0.928270">
        <ele>1806.0</ele>
        <time>2015-08-29T10:05:01Z</time>
      </trkpt>
      <trkpt lat="42.023822" lon="0.928198">
        <ele>1808.0</ele>
        <time>2015-08-29T10:05:02Z</time>
      </trkpt>
      <trkpt lat="42.023933" lon="0.928157">
        <ele>1809.0</ele>
        <time>2015-08-29T10:05:03Z</time>
      </trkpt>
      <trkpt lat="42.024055" lon="0.928160">
        <ele>1810.0</ele>
        <time>2015-08-29T10:05:04Z</time>
      </trkpt>
      <trkpt lat="42.024160" lon="0.928230">
        <ele>1812.0</ele>
        <time>2015-08-29T10:05:05Z</time>
      </trkpt>
      <trkpt lat="42.024248" lon="0.928327">
        <ele>1815.0</ele>
        <time>2015-08-29T10:05:06Z</time>
      </trkpt>
      <trkpt lat="42.024333" lon="0.928425">
        <ele>1816.0</ele>
        <time>2015-08-29T10:05:07Z</time>
      </trkpt>
      <trkpt lat="42.024398" lon="0.928505">
        <ele>1816.0</ele>
        <time>2015-08-29T10:05:08Z</time>
      </trkpt>
      <trkpt lat="42.024447" lon="0.928573">
        <ele>1817.0</ele>
        <time>2015-08-29T10:05:09Z</time>
      </trkpt>
      <trkpt lat="42.024487" lon="0.928650">
        <ele>1817.0</ele>
        <time>2015-08-29T10:05:10Z</time>
      </trkpt>
      <trkpt lat="42.024518" lon="0.928750">
        <ele>1817.0</ele>
        <time>2015-08-29T10:05:11Z</time>
      </trkpt>
      <trkpt lat="42.024542" lon="0.928840">
        <ele>1818.0</ele>
        <time>2015-08-29T10:05:12Z</time>
      </trkpt>
      <trkpt lat="42.024555" lon="0.928905">
        <ele>1818.0</ele>
        <time>2015-08-29T10:05:13Z</time>
      </trkpt>
      <trkpt lat="42.024553" lon="0.928993">
        <ele>1819.0</ele>
        <time>2015-08-29T10:05:15Z</time>
      </trkpt>
      <trkpt lat="42.024545" lon="0.929043">
        <ele>1820.0</ele>
        <time>2015-08-29T10:05:16Z</time>
      </trkpt>
      <trkpt lat="42.024535" lon="0.929102">
        <ele>1821.0</ele>
        <time>2015-08-29T10:05:17Z</time>
      </trkpt>
      <trkpt lat="42.024530" lon="0.929155">
        <ele>1822.0</ele>
        <time>2015-08-29T10:05:18Z</time>
      </trkpt>
      <trkpt lat="42.024493" lon="0.929187">
        <ele>1824.0</ele>
        <time>2015-08-29T10:05:20Z</time>
      </trkpt>
      <trkpt lat="42.024457" lon="0.929178">
        <ele>1824.0</ele>
        <time>2015-08-29T10:05:21Z</time>
      </trkpt>
      <trkpt lat="42.024420" lon="0.929188">
        <ele>1826.0</ele>
        <time>2015-08-29T10:05:22Z</time>
      </trkpt>
      <trkpt lat="42.024390" lon="0.929217">
        <ele>1828.0</ele>
        <time>2015-08-29T10:05:23Z</time>
      </trkpt>
      <trkpt lat="42.024373" lon="0.929290">
        <ele>1829.0</ele>
        <time>2015-08-29T10:05:24Z</time>
      </trkpt>
      <trkpt lat="42.024367" lon="0.929355">
        <ele>1831.0</ele>
        <time>2015-08-29T10:05:25Z</time>
      </trkpt>
      <trkpt lat="42.024358" lon="0.929420">
        <ele>1833.0</ele>
        <time>2015-08-29T10:05:27Z</time>
      </trkpt>
      <trkpt lat="42.024318" lon="0.929443">
        <ele>1834.0</ele>
        <time>2015-08-29T10:05:29Z</time>
      </trkpt>
      <trkpt lat="42.024267" lon="0.929460">
        <ele>1833.0</ele>
        <time>2015-08-29T10:05:30Z</time>
      </trkpt>
      <trkpt lat="42.024222" lon="0.929462">
        <ele>1833.0</ele>
        <time>2015-08-29T10:05:31Z</time>
      </trkpt>
      <trkpt lat="42.024182" lon="0.929440">
        <ele>1832.0</ele>
        <time>2015-08-29T10:05:32Z</time>
      </trkpt>
      <trkpt lat="42.024145" lon="0.929397">
        <ele>1832.0</ele>
        <time>2015-08-29T10:05:33Z</time>
      </trkpt>
      <trkpt lat="42.024132" lon="0.929317">
        <ele>1832.0</ele>
        <time>2015-08-29T10:05:34Z</time>
      </trkpt>
      <trkpt lat="42.024128" lon="0.929235">
        <ele>1833.0</ele>
        <time>2015-08-29T10:05:35Z</time>
      </trkpt>
      <trkpt lat="42.024130" lon="0.929152">
        <ele>1834.0</ele>
        <time>2015-08-29T10:05:36Z</time>
      </trkpt>
      <trkpt lat="42.024128" lon="0.929072">
        <ele>1834.0</ele>
        <time>2015-08-29T10:05:37Z</time>
      </trkpt>
      <trkpt lat="42.024127" lon="0.928988">
        <ele>1835.0</ele>
        <time>2015-08-29T10:05:38Z</time>
      </trkpt>
      <trkpt lat="42.024120" lon="0.928898">
        <ele>1835.0</ele>
        <time>2015-08-29T10:05:39Z</time>
      </trkpt>
      <trkpt lat="42.024107" lon="0.928822">
        <ele>1837.0</ele>
        <time>2015-08-29T10:05:40Z</time>
      </trkpt>
      <trkpt lat="42.024080" lon="0.928745">
        <ele>1835.0</ele>
        <time>2015-08-29T10:05:41Z</time>
      </trkpt>
      <trkpt lat="42.024052" lon="0.928697">
        <ele>1836.0</ele>
        <time>2015-08-29T10:05:42Z</time>
      </trkpt>
      <trkpt lat="42.024033" lon="0.928653">
        <ele>1836.0</ele>
        <time>2015-08-29T10:05:43Z</time>
      </trkpt>
      <trkpt lat="42.024023" lon="0.928605">
        <ele>1837.0</ele>
        <time>2015-08-29T10:05:44Z</time>
      </trkpt>
      <trkpt lat="42.024020" lon="0.928557">
        <ele>1838.0</ele>
        <time>2015-08-29T10:05:45Z</time>
      </trkpt>
      <trkpt lat="42.024008" lon="0.928507">
        <ele>1839.0</ele>
        <time>2015-08-29T10:05:46Z</time>
      </trkpt>
      <trkpt lat="42.023993" lon="0.928460">
        <ele>1840.0</ele>
        <time>2015-08-29T10:05:47Z</time>
      </trkpt>
      <trkpt lat="42.023950" lon="0.928418">
        <ele>1844.0</ele>
        <time>2015-08-29T10:05:48Z</time>
      </trkpt>
      <trkpt lat="42.023922" lon="0.928377">
        <ele>1846.0</ele>
        <time>2015-08-29T10:05:49Z</time>
      </trkpt>
      <trkpt lat="42.023897" lon="0.928338">
        <ele>1848.0</ele>
        <time>2015-08-29T10:05:50Z</time>
      </trkpt>
      <trkpt lat="42.023867" lon="0.928308">
        <ele>1850.0</ele>
        <time>2015-08-29T10:05:51Z</time>
      </trkpt>
      <trkpt lat="42.023823" lon="0.928297">
        <ele>1852.0</ele>
        <time>2015-08-29T10:05:52Z</time>
      </trkpt>
      <trkpt lat="42.023773" lon="0.928300">
        <ele>1853.0</ele>
        <time>2015-08-29T10:05:53Z</time>
      </trkpt>
      <trkpt lat="42.023728" lon="0.928307">
        <ele>1855.0</ele>
        <time>2015-08-29T10:05:54Z</time>
      </trkpt>
      <trkpt lat="42.023685" lon="0.928305">
        <ele>1856.0</ele>
        <time>2015-08-29T10:05:55Z</time>
      </trkpt>
      <trkpt lat="42.023625" lon="0.928287">
        <ele>1860.0</ele>
        <time>2015-08-29T10:05:57Z</time>
      </trkpt>
      <trkpt lat="42.023578" lon="0.928273">
        <ele>1861.0</ele>
        <time>2015-08-29T10:05:58Z</time>
      </trkpt>
      <trkpt lat="42.023533" lon="0.928252">
        <ele>1863.0</ele>
        <time>2015-08-29T10:05:59Z</time>
      </trkpt>
      <trkpt lat="42.023483" lon="0.928232">
        <ele>1866.0</ele>
        <time>2015-08-29T10:06:00Z</time>
      </trkpt>
      <trkpt lat="42.023440" lon="0.928212">
        <ele>1868.0</ele>
        <time>2015-08-29T10:06:01Z</time>
      </trkpt>
      <trkpt lat="42.023408" lon="0.928188">
        <ele>1868.0</ele>
        <time>2015-08-29T10:06:02Z</time>
      </trkpt>
      <trkpt lat="42.023363" lon="0.928147">
        <ele>1873.0</ele>
        <time>2015-08-29T10:06:04Z</time>
      </trkpt>
      <trkpt lat="42.023303" lon="0.928150">
        <ele>1875.0</ele>
        <time>2015-08-29T10:06:06Z</time>
      </trkpt>
      <trkpt lat="42.023257" lon="0.928172">
        <ele>1876.0</ele>
        <time>2015-08-29T10:06:07Z</time>
      </trkpt>
      <trkpt lat="42.023212" lon="0.928192">
        <ele>1877.0</ele>
        <time>2015-08-29T10:06:08Z</time>
      </trkpt>
      <trkpt lat="42.023175" lon="0.928202">
        <ele>1878.0</ele>
        <time>2015-08-29T10:06:09Z</time>
      </trkpt>
      <trkpt lat="42.023100" lon="0.928237">
        <ele>1879.0</ele>
        <time>2015-08-29T10:06:11Z</time>
      </trkpt>
      <trkpt lat="42.023060" lon="0.928292">
        <ele>1879.0</ele>
        <time>2015-08-29T10:06:12Z</time>
      </trkpt>
      <trkpt lat="42.023035" lon="0.928350">
        <ele>1881.0</ele>
        <time>2015-08-29T10:06:13Z</time>
      </trkpt>
      <trkpt lat="42.023022" lon="0.928413">
        <ele>1883.0</ele>
        <time>2015-08-29T10:06:14Z</time>
      </trkpt>
      <trkpt lat="42.023015" lon="0.928488">
        <ele>1882.0</ele>
        <time>2015-08-29T10:06:15Z</time>
      </trkpt>
      <trkpt lat="42.023000" lon="0.928567">
        <ele>1881.0</ele>
        <time>2015-08-29T10:06:16Z</time>
      </trkpt>
      <trkpt lat="42.022982" lon="0.928642">
        <ele>1879.0</ele>
        <time>2015-08-29T10:06:17Z</time>
      </trkpt>
      <trkpt lat="42.022962" lon="0.928735">
        <ele>1877.0</ele>
        <time>2015-08-29T10:06:18Z</time>
      </trkpt>
      <trkpt lat="42.022947" lon="0.928828">
        <ele>1876.0</ele>
        <time>2015-08-29T10:06:19Z</time>
      </trkpt>
      <trkpt lat="42.022942" lon="0.928925">
        <ele>1874.0</ele>
        <time>2015-08-29T10:06:20Z</time>
      </trkpt>
      <trkpt lat="42.022935" lon="0.929010">
        <ele>1873.0</ele>
        <time>2015-08-29T10:06:21Z</time>
      </trkpt>
      <trkpt lat="42.022920" lon="0.929087">
        <ele>1871.0</ele>
        <time>2015-08-29T10:06:22Z</time>
      </trkpt>
      <trkpt lat="42.022900" lon="0.929160">
        <ele>1870.0</ele>
        <time>2015-08-29T10:06:23Z</time>
      </trkpt>
      <trkpt lat="42.022878" lon="0.929242">
        <ele>1868.0</ele>
        <time>2015-08-29T10:06:24Z</time>
      </trkpt>
      <trkpt lat="42.022863" lon="0.929333">
        <ele>1866.0</ele>
        <time>2015-08-29T10:06:25Z</time>
      </trkpt>
      <trkpt lat="42.022853" lon="0.929428">
        <ele>1865.0</ele>
        <time>2015-08-29T10:06:26Z</time>
      </trkpt>
      <trkpt lat="42.022843" lon="0.929525">
        <ele>1863.0</ele>
        <time>2015-08-29T10:06:27Z</time>
      </trkpt>
      <trkpt lat="42.022832" lon="0.929623">
        <ele>1861.0</ele>
        <time>2015-08-29T10:06:28Z</time>
      </trkpt>
      <trkpt lat="42.022820" lon="0.929720">
        <ele>1859.0</ele>
        <time>2015-08-29T10:06:29Z</time>
      </trkpt>
      <trkpt lat="42.022810" lon="0.929788">
        <ele>1858.0</ele>
        <time>2015-08-29T10:06:30Z</time>
      </trkpt>
      <trkpt lat="42.022800" lon="0.929853">
        <ele>1858.0</ele>
        <time>2015-08-29T10:06:31Z</time>
      </trkpt>
      <trkpt lat="42.022793" lon="0.929937">
        <ele>1855.0</ele>
        <time>2015-08-29T10:06:32Z</time>
      </trkpt>
      <trkpt lat="42.022775" lon="0.930022">
        <ele>1852.0</ele>
        <time>2015-08-29T10:06:33Z</time>
      </trkpt>
      <trkpt lat="42.022737" lon="0.930137">
        <ele>1849.0</ele>
        <time>2015-08-29T10:06:34Z</time>
      </trkpt>
      <trkpt lat="42.022708" lon="0.930258">
        <ele>1847.0</ele>
        <time>2015-08-29T10:06:35Z</time>
      </trkpt>
      <trkpt lat="42.022695" lon="0.930377">
        <ele>1846.0</ele>
        <time>2015-08-29T10:06:36Z</time>
      </trkpt>
      <trkpt lat="42.022695" lon="0.930477">
        <ele>1844.0</ele>
        <time>2015-08-29T10:06:37Z</time>
      </trkpt>
      <trkpt lat="42.022698" lon="0.930550">
        <ele>1843.0</ele>
        <time>2015-08-29T10:06:38Z</time>
      </trkpt>
      <trkpt lat="42.022697" lon="0.930605">
        <ele>1842.0</ele>
        <time>2015-08-29T10:06:39Z</time>
      </trkpt>
      <trkpt lat="42.022683" lon="0.930668">
        <ele>1841.0</ele>
        <time>2015-08-29T10:06:40Z</time>
      </trkpt>
      <trkpt lat="42.022663" lon="0.930753">
        <ele>1840.0</ele>
        <time>2015-08-29T10:06:41Z</time>
      </trkpt>
      <trkpt lat="42.022643" lon="0.930852">
        <ele>1839.0</ele>
        <time>2015-08-29T10:06:42Z</time>
      </trkpt>
      <trkpt lat="42.022625" lon="0.930955">
        <ele>1838.0</ele>
        <time>2015-08-29T10:06:43Z</time>
      </trkpt>
      <trkpt lat="42.022610" lon="0.931042">
        <ele>1837.0</ele>
        <time>2015-08-29T10:06:44Z</time>
      </trkpt>
      <trkpt lat="42.022590" lon="0.931115">
        <ele>1836.0</ele>
        <time>2015-08-29T10:06:45Z</time>
      </trkpt>
      <trkpt lat="42.022563" lon="0.931203">
        <ele>1835.0</ele>
        <time>2015-08-29T10:06:46Z</time>
      </trkpt>
      <trkpt lat="42.022543" lon="0.931280">
        <ele>1836.0</ele>
        <time>2015-08-29T10:06:47Z</time>
      </trkpt>
      <trkpt lat="42.022528" lon="0.931372">
        <ele>1836.0</ele>
        <time>2015-08-29T10:06:48Z</time>
      </trkpt>
      <trkpt lat="42.022520" lon="0.931470">
        <ele>1835.0</ele>
        <time>2015-08-29T10:06:49Z</time>
      </trkpt>
      <trkpt lat="42.022508" lon="0.931553">
        <ele>1835.0</ele>
        <time>2015-08-29T10:06:50Z</time>
      </trkpt>
      <trkpt lat="42.022497" lon="0.931615">
        <ele>1834.0</ele>
        <time>2015-08-29T10:06:51Z</time>
      </trkpt>
      <trkpt lat="42.022490" lon="0.931670">
        <ele>1833.0</ele>
        <time>2015-08-29T10:06:52Z</time>
      </trkpt>
      <trkpt lat="42.022483" lon="0.931723">
        <ele>1832.0</ele>
        <time>2015-08-29T10:06:53Z</time>
      </trkpt>
      <trkpt lat="42.022473" lon="0.931777">
        <ele>1832.0</ele>
        <time>2015-08-29T10:06:54Z</time>
      </trkpt>
      <trkpt lat="42.022453" lon="0.931823">
        <ele>1831.0</ele>
        <time>2015-08-29T10:06:55Z</time>
      </trkpt>
      <trkpt lat="42.022420" lon="0.931853">
        <ele>1830.0</ele>
        <time>2015-08-29T10:06:56Z</time>
      </trkpt>
      <trkpt lat="42.022380" lon="0.931875">
        <ele>1829.0</ele>
        <time>2015-08-29T10:06:57Z</time>
      </trkpt>
      <trkpt lat="42.022343" lon="0.931903">
        <ele>1828.0</ele>
        <time>2015-08-29T10:06:58Z</time>
      </trkpt>
      <trkpt lat="42.022307" lon="0.931952">
        <ele>1828.0</ele>
        <time>2015-08-29T10:06:59Z</time>
      </trkpt>
      <trkpt lat="42.022277" lon="0.932017">
        <ele>1827.0</ele>
        <time>2015-08-29T10:07:00Z</time>
      </trkpt>
      <trkpt lat="42.022252" lon="0.932090">
        <ele>1827.0</ele>
        <time>2015-08-29T10:07:01Z</time>
      </trkpt>
      <trkpt lat="42.022232" lon="0.932168">
        <ele>1827.0</ele>
        <time>2015-08-29T10:07:02Z</time>
      </trkpt>
      <trkpt lat="42.022215" lon="0.932245">
        <ele>1825.0</ele>
        <time>2015-08-29T10:07:03Z</time>
      </trkpt>
      <trkpt lat="42.022197" lon="0.932300">
        <ele>1826.0</ele>
        <time>2015-08-29T10:07:04Z</time>
      </trkpt>
      <trkpt lat="42.022182" lon="0.932365">
        <ele>1826.0</ele>
        <time>2015-08-29T10:07:05Z</time>
      </trkpt>
      <trkpt lat="42.022175" lon="0.932458">
        <ele>1825.0</ele>
        <time>2015-08-29T10:07:06Z</time>
      </trkpt>
      <trkpt lat="42.022167" lon="0.932557">
        <ele>1824.0</ele>
        <time>2015-08-29T10:07:07Z</time>
      </trkpt>
      <trkpt lat="42.022160" lon="0.932648">
        <ele>1822.0</ele>
        <time>2015-08-29T10:07:08Z</time>
      </trkpt>
      <trkpt lat="42.022167" lon="0.932720">
        <ele>1822.0</ele>
        <time>2015-08-29T10:07:09Z</time>
      </trkpt>
      <trkpt lat="42.022178" lon="0.932803">
        <ele>1821.0</ele>
        <time>2015-08-29T10:07:11Z</time>
      </trkpt>
      <trkpt lat="42.022147" lon="0.932907">
        <ele>1820.0</ele>
        <time>2015-08-29T10:07:13Z</time>
      </trkpt>
      <trkpt lat="42.022120" lon="0.932985">
        <ele>1820.0</ele>
        <time>2015-08-29T10:07:14Z</time>
      </trkpt>
      <trkpt lat="42.022095" lon="0.933057">
        <ele>1820.0</ele>
        <time>2015-08-29T10:07:15Z</time>
      </trkpt>
      <trkpt lat="42.022075" lon="0.933127">
        <ele>1820.0</ele>
        <time>2015-08-29T10:07:16Z</time>
      </trkpt>
      <trkpt lat="42.022072" lon="0.933198">
        <ele>1820.0</ele>
        <time>2015-08-29T10:07:17Z</time>
      </trkpt>
      <trkpt lat="42.022067" lon="0.933263">
        <ele>1819.0</ele>
        <time>2015-08-29T10:07:18Z</time>
      </trkpt>
      <trkpt lat="42.022060" lon="0.933330">
        <ele>1819.0</ele>
        <time>2015-08-29T10:07:19Z</time>
      </trkpt>
      <trkpt lat="42.022053" lon="0.933412">
        <ele>1818.0</ele>
        <time>2015-08-29T10:07:20Z</time>
      </trkpt>
      <trkpt lat="42.022042" lon="0.933485">
        <ele>1819.0</ele>
        <time>2015-08-29T10:07:21Z</time>
      </trkpt>
      <trkpt lat="42.022038" lon="0.933568">
        <ele>1820.0</ele>
        <time>2015-08-29T10:07:22Z</time>
      </trkpt>
      <trkpt lat="42.022047" lon="0.933662">
        <ele>1818.0</ele>
        <time>2015-08-29T10:07:23Z</time>
      </trkpt>
      <trkpt lat="42.022050" lon="0.933760">
        <ele>1817.0</ele>
        <time>2015-08-29T10:07:24Z</time>
      </trkpt>
      <trkpt lat="42.022053" lon="0.933855">
        <ele>1816.0</ele>
        <time>2015-08-29T10:07:25Z</time>
      </trkpt>
      <trkpt lat="42.022053" lon="0.933945">
        <ele>1815.0</ele>
        <time>2015-08-29T10:07:26Z</time>
      </trkpt>
      <trkpt lat="42.022052" lon="0.934033">
        <ele>1814.0</ele>
        <time>2015-08-29T10:07:27Z</time>
      </trkpt>
      <trkpt lat="42.022050" lon="0.934118">
        <ele>1813.0</ele>
        <time>2015-08-29T10:07:28Z</time>
      </trkpt>
      <trkpt lat="42.022050" lon="0.934208">
        <ele>1812.0</ele>
        <time>2015-08-29T10:07:29Z</time>
      </trkpt>
      <trkpt lat="42.022050" lon="0.934308">
        <ele>1811.0</ele>
        <time>2015-08-29T10:07:30Z</time>
      </trkpt>
      <trkpt lat="42.022050" lon="0.934410">
        <ele>1811.0</ele>
        <time>2015-08-29T10:07:31Z</time>
      </trkpt>
      <trkpt lat="42.022047" lon="0.934503">
        <ele>1810.0</ele>
        <time>2015-08-29T10:07:32Z</time>
      </trkpt>
      <trkpt lat="42.022042" lon="0.934587">
        <ele>1810.0</ele>
        <time>2015-08-29T10:07:33Z</time>
      </trkpt>
      <trkpt lat="42.022037" lon="0.934668">
        <ele>1808.0</ele>
        <time>2015-08-29T10:07:34Z</time>
      </trkpt>
      <trkpt lat="42.022037" lon="0.934758">
        <ele>1807.0</ele>
        <time>2015-08-29T10:07:35Z</time>
      </trkpt>
      <trkpt lat="42.022042" lon="0.934858">
        <ele>1806.0</ele>
        <time>2015-08-29T10:07:36Z</time>
      </trkpt>
      <trkpt lat="42.022055" lon="0.934978">
        <ele>1803.0</ele>
        <time>2015-08-29T10:07:37Z</time>
      </trkpt>
      <trkpt lat="42.022068" lon="0.935083">
        <ele>1803.0</ele>
        <time>2015-08-29T10:07:38Z</time>
      </trkpt>
      <trkpt lat="42.022087" lon="0.935193">
        <ele>1802.0</ele>
        <time>2015-08-29T10:07:39Z</time>
      </trkpt>
      <trkpt lat="42.022105" lon="0.935300">
        <ele>1799.0</ele>
        <time>2015-08-29T10:07:40Z</time>
      </trkpt>
      <trkpt lat="42.022107" lon="0.935398">
        <ele>1800.0</ele>
        <time>2015-08-29T10:07:41Z</time>
      </trkpt>
      <trkpt lat="42.022047" lon="0.934503">
        <ele>1810.0</ele>
        <time>2015-08-29T10:07:32Z</time>
      </trkpt>
      <trkpt lat="42.022042" lon="0.934587">
        <ele>1810.0</ele>
        <time>2015-08-29T10:07:33Z</time>
      </trkpt>
      <trkpt lat="42.022037" lon="0.934668">
        <ele>1808.0</ele>
        <time>2015-08-29T10:07:34Z</time>
      </trkpt>
      <trkpt lat="42.022037" lon="0.934758">
        <ele>1807.0</ele>
        <time>2015-08-29T10:07:35Z</time>
      </trkpt>
      <trkpt lat="42.022042" lon="0.934858">
        <ele>1806.0</ele>
        <time>2015-08-29T10:07:36Z</time>
      </trkpt>
      <trkpt lat="42.022055" lon="0.934978">
        <ele>1803.0</ele>
        <time>2015-08-29T10:07:37Z</time>
      </trkpt>
      <trkpt lat="42.022068" lon="0.935083">
        <ele>1803.0</ele>
        <time>2015-08-29T10:07:38Z</time>
      </trkpt>
      <trkpt lat="42.022087" lon="0.935193">
        <ele>1802.0</ele>
        <time>2015-08-29T10:07:39Z</time>
      </trkpt>
      <trkpt lat="42.022105" lon="0.935300">
        <ele>1799.0</ele>
        <time>2015-08-29T10:07:40Z</time>
      </trkpt>
      <trkpt lat="42.022107" lon="0.935398">
        <ele>1800.0</ele>
        <time>2015-08-29T10:07:41Z</time>
      </trkpt>
      <trkpt lat="42.022108" lon="0.935500">
        <ele>1798.0</ele>
        <time>2015-08-29T10:07:42Z</time>
      </trkpt>
      <trkpt lat="42.022107" lon="0.935603">
        <ele>1796.0</ele>
        <time>2015-08-29T10:07:43Z</time>
      </trkpt>
      <trkpt lat="42.022107" lon="0.935717">
        <ele>1795.0</ele>
        <time>2015-08-29T10:07:44Z</time>
      </trkpt>
      <trkpt lat="42.022110" lon="0.935833">
        <ele>1794.0</ele>
        <time>2015-08-29T10:07:45Z</time>
      </trkpt>
      <trkpt lat="42.022118" lon="0.935952">
        <ele>1792.0</ele>
        <time>2015-08-29T10:07:46Z</time>
      </trkpt>
      <trkpt lat="42.022127" lon="0.936057">
        <ele>1791.0</ele>
        <time>2015-08-29T10:07:47Z</time>
      </trkpt>
      <trkpt lat="42.022140" lon="0.936155">
        <ele>1789.0</ele>
        <time>2015-08-29T10:07:48Z</time>
      </trkpt>
      <trkpt lat="42.022152" lon="0.936250">
        <ele>1787.0</ele>
        <time>2015-08-29T10:07:49Z</time>
      </trkpt>
      <trkpt lat="42.022162" lon="0.936350">
        <ele>1785.0</ele>
        <time>2015-08-29T10:07:50Z</time>
      </trkpt>
      <trkpt lat="42.022167" lon="0.936457">
        <ele>1783.0</ele>
        <time>2015-08-29T10:07:51Z</time>
      </trkpt>
      <trkpt lat="42.022175" lon="0.936575">
        <ele>1781.0</ele>
        <time>2015-08-29T10:07:52Z</time>
      </trkpt>
      <trkpt lat="42.022180" lon="0.936682">
        <ele>1779.0</ele>
        <time>2015-08-29T10:07:53Z</time>
      </trkpt>
      <trkpt lat="42.022197" lon="0.936793">
        <ele>1777.0</ele>
        <time>2015-08-29T10:07:54Z</time>
      </trkpt>
      <trkpt lat="42.022205" lon="0.936897">
        <ele>1777.0</ele>
        <time>2015-08-29T10:07:55Z</time>
      </trkpt>
      <trkpt lat="42.022212" lon="0.937010">
        <ele>1777.0</ele>
        <time>2015-08-29T10:07:56Z</time>
      </trkpt>
      <trkpt lat="42.022222" lon="0.937118">
        <ele>1775.0</ele>
        <time>2015-08-29T10:07:57Z</time>
      </trkpt>
      <trkpt lat="42.022225" lon="0.937203">
        <ele>1774.0</ele>
        <time>2015-08-29T10:07:58Z</time>
      </trkpt>
      <trkpt lat="42.022220" lon="0.937270">
        <ele>1773.0</ele>
        <time>2015-08-29T10:07:59Z</time>
      </trkpt>
      <trkpt lat="42.022203" lon="0.937337">
        <ele>1771.0</ele>
        <time>2015-08-29T10:08:00Z</time>
      </trkpt>
      <trkpt lat="42.022168" lon="0.937418">
        <ele>1770.0</ele>
        <time>2015-08-29T10:08:01Z</time>
      </trkpt>
      <trkpt lat="42.022138" lon="0.937505">
        <ele>1769.0</ele>
        <time>2015-08-29T10:08:02Z</time>
      </trkpt>
      <trkpt lat="42.022117" lon="0.937590">
        <ele>1768.0</ele>
        <time>2015-08-29T10:08:03Z</time>
      </trkpt>
      <trkpt lat="42.022105" lon="0.937648">
        <ele>1767.0</ele>
        <time>2015-08-29T10:08:04Z</time>
      </trkpt>
      <trkpt lat="42.022083" lon="0.937693">
        <ele>1765.0</ele>
        <time>2015-08-29T10:08:06Z</time>
      </trkpt>
      <trkpt lat="42.022053" lon="0.937728">
        <ele>1763.0</ele>
        <time>2015-08-29T10:08:07Z</time>
      </trkpt>
      <trkpt lat="42.022020" lon="0.937793">
        <ele>1762.0</ele>
        <time>2015-08-29T10:08:08Z</time>
      </trkpt>
      <trkpt lat="42.021998" lon="0.937877">
        <ele>1761.0</ele>
        <time>2015-08-29T10:08:09Z</time>
      </trkpt>
      <trkpt lat="42.021988" lon="0.937962">
        <ele>1760.0</ele>
        <time>2015-08-29T10:08:10Z</time>
      </trkpt>
      <trkpt lat="42.021982" lon="0.938042">
        <ele>1759.0</ele>
        <time>2015-08-29T10:08:11Z</time>
      </trkpt>
      <trkpt lat="42.021967" lon="0.938102">
        <ele>1759.0</ele>
        <time>2015-08-29T10:08:12Z</time>
      </trkpt>
      <trkpt lat="42.021955" lon="0.938183">
        <ele>1757.0</ele>
        <time>2015-08-29T10:08:13Z</time>
      </trkpt>
      <trkpt lat="42.021957" lon="0.938290">
        <ele>1755.0</ele>
        <time>2015-08-29T10:08:14Z</time>
      </trkpt>
      <trkpt lat="42.021965" lon="0.938382">
        <ele>1754.0</ele>
        <time>2015-08-29T10:08:15Z</time>
      </trkpt>
      <trkpt lat="42.021973" lon="0.938463">
        <ele>1753.0</ele>
        <time>2015-08-29T10:08:16Z</time>
      </trkpt>
      <trkpt lat="42.021983" lon="0.938535">
        <ele>1752.0</ele>
        <time>2015-08-29T10:08:17Z</time>
      </trkpt>
      <trkpt lat="42.021987" lon="0.938602">
        <ele>1750.0</ele>
        <time>2015-08-29T10:08:18Z</time>
      </trkpt>
      <trkpt lat="42.021987" lon="0.938677">
        <ele>1749.0</ele>
        <time>2015-08-29T10:08:19Z</time>
      </trkpt>
      <trkpt lat="42.021985" lon="0.938763">
        <ele>1748.0</ele>
        <time>2015-08-29T10:08:20Z</time>
      </trkpt>
      <trkpt lat="42.021988" lon="0.938850">
        <ele>1747.0</ele>
        <time>2015-08-29T10:08:21Z</time>
      </trkpt>
      <trkpt lat="42.021997" lon="0.938933">
        <ele>1746.0</ele>
        <time>2015-08-29T10:08:22Z</time>
      </trkpt>
      <trkpt lat="42.022012" lon="0.939018">
        <ele>1745.0</ele>
        <time>2015-08-29T10:08:23Z</time>
      </trkpt>
      <trkpt lat="42.022025" lon="0.939112">
        <ele>1743.0</ele>
        <time>2015-08-29T10:08:24Z</time>
      </trkpt>
      <trkpt lat="42.022037" lon="0.939215">
        <ele>1742.0</ele>
        <time>2015-08-29T10:08:25Z</time>
      </trkpt>
      <trkpt lat="42.022047" lon="0.939325">
        <ele>1740.0</ele>
        <time>2015-08-29T10:08:26Z</time>
      </trkpt>
      <trkpt lat="42.022058" lon="0.939442">
        <ele>1739.0</ele>
        <time>2015-08-29T10:08:27Z</time>
      </trkpt>
      <trkpt lat="42.022072" lon="0.939562">
        <ele>1736.0</ele>
        <time>2015-08-29T10:08:28Z</time>
      </trkpt>
      <trkpt lat="42.022075" lon="0.939655">
        <ele>1737.0</ele>
        <time>2015-08-29T10:08:29Z</time>
      </trkpt>
      <trkpt lat="42.022078" lon="0.939747">
        <ele>1738.0</ele>
        <time>2015-08-29T10:08:30Z</time>
      </trkpt>
      <trkpt lat="42.022090" lon="0.939850">
        <ele>1736.0</ele>
        <time>2015-08-29T10:08:31Z</time>
      </trkpt>
      <trkpt lat="42.022105" lon="0.939952">
        <ele>1734.0</ele>
        <time>2015-08-29T10:08:32Z</time>
      </trkpt>
      <trkpt lat="42.022122" lon="0.940030">
        <ele>1733.0</ele>
        <time>2015-08-29T10:08:33Z</time>
      </trkpt>
      <trkpt lat="42.022130" lon="0.940102">
        <ele>1732.0</ele>
        <time>2015-08-29T10:08:34Z</time>
      </trkpt>
      <trkpt lat="42.022128" lon="0.940168">
        <ele>1731.0</ele>
        <time>2015-08-29T10:08:35Z</time>
      </trkpt>
      <trkpt lat="42.022125" lon="0.940243">
        <ele>1729.0</ele>
        <time>2015-08-29T10:08:36Z</time>
      </trkpt>
      <trkpt lat="42.022128" lon="0.940333">
        <ele>1728.0</ele>
        <time>2015-08-29T10:08:37Z</time>
      </trkpt>
      <trkpt lat="42.022138" lon="0.940435">
        <ele>1727.0</ele>
        <time>2015-08-29T10:08:38Z</time>
      </trkpt>
      <trkpt lat="42.022150" lon="0.940545">
        <ele>1726.0</ele>
        <time>2015-08-29T10:08:39Z</time>
      </trkpt>
      <trkpt lat="42.022160" lon="0.940652">
        <ele>1725.0</ele>
        <time>2015-08-29T10:08:40Z</time>
      </trkpt>
      <trkpt lat="42.022167" lon="0.940755">
        <ele>1724.0</ele>
        <time>2015-08-29T10:08:41Z</time>
      </trkpt>
      <trkpt lat="42.022178" lon="0.940872">
        <ele>1722.0</ele>
        <time>2015-08-29T10:08:42Z</time>
      </trkpt>
      <trkpt lat="42.022193" lon="0.941003">
        <ele>1722.0</ele>
        <time>2015-08-29T10:08:43Z</time>
      </trkpt>
      <trkpt lat="42.022213" lon="0.941147">
        <ele>1721.0</ele>
        <time>2015-08-29T10:08:44Z</time>
      </trkpt>
      <trkpt lat="42.022227" lon="0.941280">
        <ele>1721.0</ele>
        <time>2015-08-29T10:08:45Z</time>
      </trkpt>
      <trkpt lat="42.022232" lon="0.941390">
        <ele>1723.0</ele>
        <time>2015-08-29T10:08:46Z</time>
      </trkpt>
      <trkpt lat="42.022235" lon="0.941507">
        <ele>1725.0</ele>
        <time>2015-08-29T10:08:47Z</time>
      </trkpt>
      <trkpt lat="42.022248" lon="0.941620">
        <ele>1724.0</ele>
        <time>2015-08-29T10:08:48Z</time>
      </trkpt>
      <trkpt lat="42.022270" lon="0.941718">
        <ele>1724.0</ele>
        <time>2015-08-29T10:08:49Z</time>
      </trkpt>
      <trkpt lat="42.022295" lon="0.941813">
        <ele>1724.0</ele>
        <time>2015-08-29T10:08:50Z</time>
      </trkpt>
      <trkpt lat="42.022315" lon="0.941910">
        <ele>1724.0</ele>
        <time>2015-08-29T10:08:51Z</time>
      </trkpt>
      <trkpt lat="42.022328" lon="0.942013">
        <ele>1725.0</ele>
        <time>2015-08-29T10:08:52Z</time>
      </trkpt>
      <trkpt lat="42.022338" lon="0.942108">
        <ele>1725.0</ele>
        <time>2015-08-29T10:08:53Z</time>
      </trkpt>
      <trkpt lat="42.022348" lon="0.942210">
        <ele>1725.0</ele>
        <time>2015-08-29T10:08:54Z</time>
      </trkpt>
      <trkpt lat="42.022358" lon="0.942307">
        <ele>1725.0</ele>
        <time>2015-08-29T10:08:55Z</time>
      </trkpt>
      <trkpt lat="42.022372" lon="0.942402">
        <ele>1726.0</ele>
        <time>2015-08-29T10:08:56Z</time>
      </trkpt>
      <trkpt lat="42.022380" lon="0.942495">
        <ele>1726.0</ele>
        <time>2015-08-29T10:08:57Z</time>
      </trkpt>
      <trkpt lat="42.022382" lon="0.942585">
        <ele>1726.0</ele>
        <time>2015-08-29T10:08:58Z</time>
      </trkpt>
      <trkpt lat="42.022372" lon="0.942685">
        <ele>1726.0</ele>
        <time>2015-08-29T10:08:59Z</time>
      </trkpt>
      <trkpt lat="42.022360" lon="0.942773">
        <ele>1726.0</ele>
        <time>2015-08-29T10:09:00Z</time>
      </trkpt>
      <trkpt lat="42.022358" lon="0.942847">
        <ele>1727.0</ele>
        <time>2015-08-29T10:09:01Z</time>
      </trkpt>
      <trkpt lat="42.022368" lon="0.942915">
        <ele>1727.0</ele>
        <time>2015-08-29T10:09:02Z</time>
      </trkpt>
      <trkpt lat="42.022380" lon="0.942968">
        <ele>1728.0</ele>
        <time>2015-08-29T10:09:03Z</time>
      </trkpt>
      <trkpt lat="42.022397" lon="0.943052">
        <ele>1728.0</ele>
        <time>2015-08-29T10:09:04Z</time>
      </trkpt>
      <trkpt lat="42.022412" lon="0.943157">
        <ele>1727.0</ele>
        <time>2015-08-29T10:09:05Z</time>
      </trkpt>
      <trkpt lat="42.022422" lon="0.943253">
        <ele>1726.0</ele>
        <time>2015-08-29T10:09:06Z</time>
      </trkpt>
      <trkpt lat="42.022430" lon="0.943345">
        <ele>1726.0</ele>
        <time>2015-08-29T10:09:07Z</time>
      </trkpt>
      <trkpt lat="42.022440" lon="0.943428">
        <ele>1727.0</ele>
        <time>2015-08-29T10:09:08Z</time>
      </trkpt>
      <trkpt lat="42.022455" lon="0.943500">
        <ele>1728.0</ele>
        <time>2015-08-29T10:09:09Z</time>
      </trkpt>
      <trkpt lat="42.022477" lon="0.943573">
        <ele>1729.0</ele>
        <time>2015-08-29T10:09:10Z</time>
      </trkpt>
      <trkpt lat="42.022502" lon="0.943647">
        <ele>1730.0</ele>
        <time>2015-08-29T10:09:11Z</time>
      </trkpt>
      <trkpt lat="42.022528" lon="0.943718">
        <ele>1731.0</ele>
        <time>2015-08-29T10:09:12Z</time>
      </trkpt>
      <trkpt lat="42.022545" lon="0.943790">
        <ele>1732.0</ele>
        <time>2015-08-29T10:09:13Z</time>
      </trkpt>
      <trkpt lat="42.022550" lon="0.943857">
        <ele>1733.0</ele>
        <time>2015-08-29T10:09:14Z</time>
      </trkpt>
      <trkpt lat="42.022550" lon="0.943923">
        <ele>1735.0</ele>
        <time>2015-08-29T10:09:15Z</time>
      </trkpt>
      <trkpt lat="42.022558" lon="0.943983">
        <ele>1736.0</ele>
        <time>2015-08-29T10:09:16Z</time>
      </trkpt>
      <trkpt lat="42.022577" lon="0.944048">
        <ele>1738.0</ele>
        <time>2015-08-29T10:09:17Z</time>
      </trkpt>
      <trkpt lat="42.022598" lon="0.944120">
        <ele>1739.0</ele>
        <time>2015-08-29T10:09:18Z</time>
      </trkpt>
      <trkpt lat="42.022613" lon="0.944193">
        <ele>1740.0</ele>
        <time>2015-08-29T10:09:19Z</time>
      </trkpt>
      <trkpt lat="42.022612" lon="0.944292">
        <ele>1745.0</ele>
        <time>2015-08-29T10:09:21Z</time>
      </trkpt>
      <trkpt lat="42.022573" lon="0.944345">
        <ele>1749.0</ele>
        <time>2015-08-29T10:09:23Z</time>
      </trkpt>
      <trkpt lat="42.022552" lon="0.944305">
        <ele>1755.0</ele>
        <time>2015-08-29T10:09:25Z</time>
      </trkpt>
      <trkpt lat="42.022503" lon="0.944300">
        <ele>1758.0</ele>
        <time>2015-08-29T10:09:27Z</time>
      </trkpt>
      <trkpt lat="42.022453" lon="0.944353">
        <ele>1760.0</ele>
        <time>2015-08-29T10:09:29Z</time>
      </trkpt>
      <trkpt lat="42.022440" lon="0.944412">
        <ele>1761.0</ele>
        <time>2015-08-29T10:09:30Z</time>
      </trkpt>
      <trkpt lat="42.022430" lon="0.944483">
        <ele>1763.0</ele>
        <time>2015-08-29T10:09:31Z</time>
      </trkpt>
      <trkpt lat="42.022415" lon="0.944557">
        <ele>1764.0</ele>
        <time>2015-08-29T10:09:32Z</time>
      </trkpt>
      <trkpt lat="42.022400" lon="0.944635">
        <ele>1765.0</ele>
        <time>2015-08-29T10:09:33Z</time>
      </trkpt>
      <trkpt lat="42.022385" lon="0.944710">
        <ele>1767.0</ele>
        <time>2015-08-29T10:09:34Z</time>
      </trkpt>
      <trkpt lat="42.022375" lon="0.944785">
        <ele>1768.0</ele>
        <time>2015-08-29T10:09:35Z</time>
      </trkpt>
      <trkpt lat="42.022367" lon="0.944872">
        <ele>1769.0</ele>
        <time>2015-08-29T10:09:36Z</time>
      </trkpt>
      <trkpt lat="42.022355" lon="0.944937">
        <ele>1772.0</ele>
        <time>2015-08-29T10:09:37Z</time>
      </trkpt>
      <trkpt lat="42.022360" lon="0.945032">
        <ele>1772.0</ele>
        <time>2015-08-29T10:09:38Z</time>
      </trkpt>
      <trkpt lat="42.022373" lon="0.945132">
        <ele>1773.0</ele>
        <time>2015-08-29T10:09:39Z</time>
      </trkpt>
      <trkpt lat="42.022387" lon="0.945232">
        <ele>1773.0</ele>
        <time>2015-08-29T10:09:40Z</time>
      </trkpt>
      <trkpt lat="42.022402" lon="0.945332">
        <ele>1774.0</ele>
        <time>2015-08-29T10:09:41Z</time>
      </trkpt>
      <trkpt lat="42.022420" lon="0.945433">
        <ele>1775.0</ele>
        <time>2015-08-29T10:09:42Z</time>
      </trkpt>
      <trkpt lat="42.022442" lon="0.945530">
        <ele>1776.0</ele>
        <time>2015-08-29T10:09:43Z</time>
      </trkpt>
      <trkpt lat="42.022467" lon="0.945623">
        <ele>1777.0</ele>
        <time>2015-08-29T10:09:44Z</time>
      </trkpt>
      <trkpt lat="42.022498" lon="0.945715">
        <ele>1778.0</ele>
        <time>2015-08-29T10:09:45Z</time>
      </trkpt>
      <trkpt lat="42.022538" lon="0.945807">
        <ele>1779.0</ele>
        <time>2015-08-29T10:09:46Z</time>
      </trkpt>
      <trkpt lat="42.022590" lon="0.945898">
        <ele>1780.0</ele>
        <time>2015-08-29T10:09:47Z</time>
      </trkpt>
      <trkpt lat="42.022642" lon="0.945998">
        <ele>1782.0</ele>
        <time>2015-08-29T10:09:48Z</time>
      </trkpt>
      <trkpt lat="42.022690" lon="0.946107">
        <ele>1783.0</ele>
        <time>2015-08-29T10:09:49Z</time>
      </trkpt>
      <trkpt lat="42.022732" lon="0.946210">
        <ele>1784.0</ele>
        <time>2015-08-29T10:09:50Z</time>
      </trkpt>
      <trkpt lat="42.022762" lon="0.946303">
        <ele>1785.0</ele>
        <time>2015-08-29T10:09:51Z</time>
      </trkpt>
      <trkpt lat="42.022783" lon="0.946398">
        <ele>1785.0</ele>
        <time>2015-08-29T10:09:52Z</time>
      </trkpt>
      <trkpt lat="42.022792" lon="0.946497">
        <ele>1786.0</ele>
        <time>2015-08-29T10:09:53Z</time>
      </trkpt>
      <trkpt lat="42.022788" lon="0.946588">
        <ele>1788.0</ele>
        <time>2015-08-29T10:09:54Z</time>
      </trkpt>
      <trkpt lat="42.022780" lon="0.946688">
        <ele>1788.0</ele>
        <time>2015-08-29T10:09:55Z</time>
      </trkpt>
      <trkpt lat="42.022760" lon="0.946773">
        <ele>1788.0</ele>
        <time>2015-08-29T10:09:56Z</time>
      </trkpt>
      <trkpt lat="42.022730" lon="0.946817">
        <ele>1788.0</ele>
        <time>2015-08-29T10:09:57Z</time>
      </trkpt>
      <trkpt lat="42.022693" lon="0.946852">
        <ele>1788.0</ele>
        <time>2015-08-29T10:09:58Z</time>
      </trkpt>
      <trkpt lat="42.022643" lon="0.946850">
        <ele>1790.0</ele>
        <time>2015-08-29T10:10:00Z</time>
      </trkpt>
      <trkpt lat="42.022632" lon="0.946795">
        <ele>1791.0</ele>
        <time>2015-08-29T10:10:01Z</time>
      </trkpt>
      <trkpt lat="42.022628" lon="0.946645">
        <ele>1793.0</ele>
        <time>2015-08-29T10:10:03Z</time>
      </trkpt>
      <trkpt lat="42.022635" lon="0.946547">
        <ele>1793.0</ele>
        <time>2015-08-29T10:10:04Z</time>
      </trkpt>
      <trkpt lat="42.022645" lon="0.946463">
        <ele>1793.0</ele>
        <time>2015-08-29T10:10:05Z</time>
      </trkpt>
      <trkpt lat="42.022660" lon="0.946388">
        <ele>1793.0</ele>
        <time>2015-08-29T10:10:06Z</time>
      </trkpt>
      <trkpt lat="42.022672" lon="0.946325">
        <ele>1793.0</ele>
        <time>2015-08-29T10:10:07Z</time>
      </trkpt>
      <trkpt lat="42.022672" lon="0.946257">
        <ele>1792.0</ele>
        <time>2015-08-29T10:10:08Z</time>
      </trkpt>
      <trkpt lat="42.022667" lon="0.946175">
        <ele>1792.0</ele>
        <time>2015-08-29T10:10:09Z</time>
      </trkpt>
      <trkpt lat="42.022670" lon="0.946080">
        <ele>1792.0</ele>
        <time>2015-08-29T10:10:10Z</time>
      </trkpt>
      <trkpt lat="42.022678" lon="0.945988">
        <ele>1792.0</ele>
        <time>2015-08-29T10:10:11Z</time>
      </trkpt>
      <trkpt lat="42.022682" lon="0.945902">
        <ele>1790.0</ele>
        <time>2015-08-29T10:10:12Z</time>
      </trkpt>
      <trkpt lat="42.022670" lon="0.945833">
        <ele>1789.0</ele>
        <time>2015-08-29T10:10:13Z</time>
      </trkpt>
      <trkpt lat="42.022657" lon="0.945773">
        <ele>1789.0</ele>
        <time>2015-08-29T10:10:14Z</time>
      </trkpt>
      <trkpt lat="42.022648" lon="0.945713">
        <ele>1789.0</ele>
        <time>2015-08-29T10:10:15Z</time>
      </trkpt>
      <trkpt lat="42.022640" lon="0.945660">
        <ele>1789.0</ele>
        <time>2015-08-29T10:10:16Z</time>
      </trkpt>
      <trkpt lat="42.022627" lon="0.945577">
        <ele>1790.0</ele>
        <time>2015-08-29T10:10:18Z</time>
      </trkpt>
      <trkpt lat="42.022612" lon="0.945460">
        <ele>1791.0</ele>
        <time>2015-08-29T10:10:20Z</time>
      </trkpt>
      <trkpt lat="42.022612" lon="0.945365">
        <ele>1791.0</ele>
        <time>2015-08-29T10:10:21Z</time>
      </trkpt>
      <trkpt lat="42.022622" lon="0.945275">
        <ele>1792.0</ele>
        <time>2015-08-29T10:10:22Z</time>
      </trkpt>
      <trkpt lat="42.022640" lon="0.945195">
        <ele>1793.0</ele>
        <time>2015-08-29T10:10:23Z</time>
      </trkpt>
      <trkpt lat="42.022665" lon="0.945123">
        <ele>1794.0</ele>
        <time>2015-08-29T10:10:24Z</time>
      </trkpt>
      <trkpt lat="42.022697" lon="0.945052">
        <ele>1794.0</ele>
        <time>2015-08-29T10:10:25Z</time>
      </trkpt>
      <trkpt lat="42.022730" lon="0.944972">
        <ele>1794.0</ele>
        <time>2015-08-29T10:10:26Z</time>
      </trkpt>
      <trkpt lat="42.022747" lon="0.944893">
        <ele>1794.0</ele>
        <time>2015-08-29T10:10:27Z</time>
      </trkpt>
      <trkpt lat="42.022755" lon="0.944805">
        <ele>1796.0</ele>
        <time>2015-08-29T10:10:28Z</time>
      </trkpt>
      <trkpt lat="42.022768" lon="0.944708">
        <ele>1795.0</ele>
        <time>2015-08-29T10:10:29Z</time>
      </trkpt>
      <trkpt lat="42.022788" lon="0.944615">
        <ele>1794.0</ele>
        <time>2015-08-29T10:10:30Z</time>
      </trkpt>
      <trkpt lat="42.022802" lon="0.944540">
        <ele>1794.0</ele>
        <time>2015-08-29T10:10:31Z</time>
      </trkpt>
      <trkpt lat="42.022805" lon="0.944470">
        <ele>1793.0</ele>
        <time>2015-08-29T10:10:32Z</time>
      </trkpt>
      <trkpt lat="42.022797" lon="0.944407">
        <ele>1793.0</ele>
        <time>2015-08-29T10:10:33Z</time>
      </trkpt>
      <trkpt lat="42.022785" lon="0.944345">
        <ele>1792.0</ele>
        <time>2015-08-29T10:10:34Z</time>
      </trkpt>
      <trkpt lat="42.022778" lon="0.944283">
        <ele>1791.0</ele>
        <time>2015-08-29T10:10:35Z</time>
      </trkpt>
      <trkpt lat="42.022775" lon="0.944220">
        <ele>1790.0</ele>
        <time>2015-08-29T10:10:36Z</time>
      </trkpt>
      <trkpt lat="42.022772" lon="0.944160">
        <ele>1790.0</ele>
        <time>2015-08-29T10:10:37Z</time>
      </trkpt>
      <trkpt lat="42.022732" lon="0.944100">
        <ele>1786.0</ele>
        <time>2015-08-29T10:10:39Z</time>
      </trkpt>
      <trkpt lat="42.022685" lon="0.944123">
        <ele>1785.0</ele>
        <time>2015-08-29T10:10:40Z</time>
      </trkpt>
      <trkpt lat="42.022638" lon="0.944190">
        <ele>1784.0</ele>
        <time>2015-08-29T10:10:41Z</time>
      </trkpt>
      <trkpt lat="42.022605" lon="0.944283">
        <ele>1783.0</ele>
        <time>2015-08-29T10:10:42Z</time>
      </trkpt>
      <trkpt lat="42.022585" lon="0.944380">
        <ele>1782.0</ele>
        <time>2015-08-29T10:10:43Z</time>
      </trkpt>
      <trkpt lat="42.022572" lon="0.944458">
        <ele>1782.0</ele>
        <time>2015-08-29T10:10:44Z</time>
      </trkpt>
      <trkpt lat="42.022558" lon="0.944547">
        <ele>1782.0</ele>
        <time>2015-08-29T10:10:45Z</time>
      </trkpt>
      <trkpt lat="42.022545" lon="0.944670">
        <ele>1780.0</ele>
        <time>2015-08-29T10:10:46Z</time>
      </trkpt>
      <trkpt lat="42.022532" lon="0.944795">
        <ele>1778.0</ele>
        <time>2015-08-29T10:10:47Z</time>
      </trkpt>
      <trkpt lat="42.022518" lon="0.944885">
        <ele>1778.0</ele>
        <time>2015-08-29T10:10:48Z</time>
      </trkpt>
      <trkpt lat="42.022507" lon="0.944942">
        <ele>1778.0</ele>
        <time>2015-08-29T10:10:49Z</time>
      </trkpt>
      <trkpt lat="42.022472" lon="0.945013">
        <ele>1777.0</ele>
        <time>2015-08-29T10:10:51Z</time>
      </trkpt>
      <trkpt lat="42.022443" lon="0.945083">
        <ele>1777.0</ele>
        <time>2015-08-29T10:10:52Z</time>
      </trkpt>
      <trkpt lat="42.022415" lon="0.945183">
        <ele>1776.0</ele>
        <time>2015-08-29T10:10:53Z</time>
      </trkpt>
      <trkpt lat="42.022390" lon="0.945290">
        <ele>1776.0</ele>
        <time>2015-08-29T10:10:54Z</time>
      </trkpt>
      <trkpt lat="42.022375" lon="0.945395">
        <ele>1775.0</ele>
        <time>2015-08-29T10:10:55Z</time>
      </trkpt>
      <trkpt lat="42.022360" lon="0.945490">
        <ele>1775.0</ele>
        <time>2015-08-29T10:10:56Z</time>
      </trkpt>
      <trkpt lat="42.022343" lon="0.945585">
        <ele>1774.0</ele>
        <time>2015-08-29T10:10:57Z</time>
      </trkpt>
      <trkpt lat="42.022325" lon="0.945682">
        <ele>1774.0</ele>
        <time>2015-08-29T10:10:58Z</time>
      </trkpt>
      <trkpt lat="42.022308" lon="0.945780">
        <ele>1773.0</ele>
        <time>2015-08-29T10:10:59Z</time>
      </trkpt>
      <trkpt lat="42.022293" lon="0.945880">
        <ele>1772.0</ele>
        <time>2015-08-29T10:11:00Z</time>
      </trkpt>
      <trkpt lat="42.022272" lon="0.945950">
        <ele>1773.0</ele>
        <time>2015-08-29T10:11:01Z</time>
      </trkpt>
      <trkpt lat="42.022255" lon="0.946025">
        <ele>1774.0</ele>
        <time>2015-08-29T10:11:02Z</time>
      </trkpt>
      <trkpt lat="42.022255" lon="0.946123">
        <ele>1771.0</ele>
        <time>2015-08-29T10:11:03Z</time>
      </trkpt>
      <trkpt lat="42.022247" lon="0.946228">
        <ele>1768.0</ele>
        <time>2015-08-29T10:11:04Z</time>
      </trkpt>
      <trkpt lat="42.022225" lon="0.946328">
        <ele>1766.0</ele>
        <time>2015-08-29T10:11:05Z</time>
      </trkpt>
      <trkpt lat="42.022205" lon="0.946432">
        <ele>1764.0</ele>
        <time>2015-08-29T10:11:06Z</time>
      </trkpt>
      <trkpt lat="42.022185" lon="0.946530">
        <ele>1763.0</ele>
        <time>2015-08-29T10:11:07Z</time>
      </trkpt>
      <trkpt lat="42.022168" lon="0.946623">
        <ele>1763.0</ele>
        <time>2015-08-29T10:11:08Z</time>
      </trkpt>
      <trkpt lat="42.022160" lon="0.946702">
        <ele>1762.0</ele>
        <time>2015-08-29T10:11:09Z</time>
      </trkpt>
      <trkpt lat="42.022153" lon="0.946768">
        <ele>1761.0</ele>
        <time>2015-08-29T10:11:10Z</time>
      </trkpt>
      <trkpt lat="42.022147" lon="0.946833">
        <ele>1760.0</ele>
        <time>2015-08-29T10:11:11Z</time>
      </trkpt>
      <trkpt lat="42.022142" lon="0.946913">
        <ele>1759.0</ele>
        <time>2015-08-29T10:11:12Z</time>
      </trkpt>
      <trkpt lat="42.022130" lon="0.947000">
        <ele>1757.0</ele>
        <time>2015-08-29T10:11:13Z</time>
      </trkpt>
      <trkpt lat="42.022117" lon="0.947090">
        <ele>1756.0</ele>
        <time>2015-08-29T10:11:14Z</time>
      </trkpt>
      <trkpt lat="42.022098" lon="0.947180">
        <ele>1755.0</ele>
        <time>2015-08-29T10:11:15Z</time>
      </trkpt>
      <trkpt lat="42.022078" lon="0.947277">
        <ele>1754.0</ele>
        <time>2015-08-29T10:11:16Z</time>
      </trkpt>
      <trkpt lat="42.022067" lon="0.947390">
        <ele>1752.0</ele>
        <time>2015-08-29T10:11:17Z</time>
      </trkpt>
      <trkpt lat="42.022048" lon="0.947472">
        <ele>1752.0</ele>
        <time>2015-08-29T10:11:18Z</time>
      </trkpt>
      <trkpt lat="42.022033" lon="0.947553">
        <ele>1753.0</ele>
        <time>2015-08-29T10:11:19Z</time>
      </trkpt>
      <trkpt lat="42.022023" lon="0.947660">
        <ele>1749.0</ele>
        <time>2015-08-29T10:11:20Z</time>
      </trkpt>
      <trkpt lat="42.022003" lon="0.947757">
        <ele>1747.0</ele>
        <time>2015-08-29T10:11:21Z</time>
      </trkpt>
      <trkpt lat="42.021983" lon="0.947847">
        <ele>1745.0</ele>
        <time>2015-08-29T10:11:22Z</time>
      </trkpt>
      <trkpt lat="42.021963" lon="0.947925">
        <ele>1743.0</ele>
        <time>2015-08-29T10:11:23Z</time>
      </trkpt>
      <trkpt lat="42.021942" lon="0.947993">
        <ele>1741.0</ele>
        <time>2015-08-29T10:11:24Z</time>
      </trkpt>
      <trkpt lat="42.021913" lon="0.948057">
        <ele>1740.0</ele>
        <time>2015-08-29T10:11:25Z</time>
      </trkpt>
      <trkpt lat="42.021880" lon="0.948115">
        <ele>1740.0</ele>
        <time>2015-08-29T10:11:26Z</time>
      </trkpt>
      <trkpt lat="42.021855" lon="0.948208">
        <ele>1737.0</ele>
        <time>2015-08-29T10:11:27Z</time>
      </trkpt>
      <trkpt lat="42.021835" lon="0.948305">
        <ele>1735.0</ele>
        <time>2015-08-29T10:11:28Z</time>
      </trkpt>
      <trkpt lat="42.021815" lon="0.948395">
        <ele>1732.0</ele>
        <time>2015-08-29T10:11:29Z</time>
      </trkpt>
      <trkpt lat="42.021795" lon="0.948472">
        <ele>1730.0</ele>
        <time>2015-08-29T10:11:30Z</time>
      </trkpt>
      <trkpt lat="42.021770" lon="0.948542">
        <ele>1729.0</ele>
        <time>2015-08-29T10:11:31Z</time>
      </trkpt>
      <trkpt lat="42.021745" lon="0.948610">
        <ele>1728.0</ele>
        <time>2015-08-29T10:11:32Z</time>
      </trkpt>
      <trkpt lat="42.021717" lon="0.948688">
        <ele>1727.0</ele>
        <time>2015-08-29T10:11:33Z</time>
      </trkpt>
      <trkpt lat="42.021697" lon="0.948775">
        <ele>1726.0</ele>
        <time>2015-08-29T10:11:34Z</time>
      </trkpt>
      <trkpt lat="42.021680" lon="0.948858">
        <ele>1725.0</ele>
        <time>2015-08-29T10:11:35Z</time>
      </trkpt>
      <trkpt lat="42.021667" lon="0.948943">
        <ele>1724.0</ele>
        <time>2015-08-29T10:11:36Z</time>
      </trkpt>
      <trkpt lat="42.021650" lon="0.949023">
        <ele>1723.0</ele>
        <time>2015-08-29T10:11:37Z</time>
      </trkpt>
      <trkpt lat="42.021625" lon="0.949105">
        <ele>1721.0</ele>
        <time>2015-08-29T10:11:38Z</time>
      </trkpt>
      <trkpt lat="42.021598" lon="0.949193">
        <ele>1720.0</ele>
        <time>2015-08-29T10:11:39Z</time>
      </trkpt>
      <trkpt lat="42.021577" lon="0.949297">
        <ele>1719.0</ele>
        <time>2015-08-29T10:11:40Z</time>
      </trkpt>
      <trkpt lat="42.021563" lon="0.949407">
        <ele>1717.0</ele>
        <time>2015-08-29T10:11:41Z</time>
      </trkpt>
      <trkpt lat="42.021550" lon="0.949490">
        <ele>1717.0</ele>
        <time>2015-08-29T10:11:42Z</time>
      </trkpt>
      <trkpt lat="42.021537" lon="0.949575">
        <ele>1716.0</ele>
        <time>2015-08-29T10:11:43Z</time>
      </trkpt>
      <trkpt lat="42.021528" lon="0.949683">
        <ele>1713.0</ele>
        <time>2015-08-29T10:11:44Z</time>
      </trkpt>
      <trkpt lat="42.021518" lon="0.949795">
        <ele>1711.0</ele>
        <time>2015-08-29T10:11:45Z</time>
      </trkpt>
      <trkpt lat="42.021512" lon="0.949913">
        <ele>1707.0</ele>
        <time>2015-08-29T10:11:46Z</time>
      </trkpt>
      <trkpt lat="42.021503" lon="0.950028">
        <ele>1705.0</ele>
        <time>2015-08-29T10:11:47Z</time>
      </trkpt>
      <trkpt lat="42.021497" lon="0.950132">
        <ele>1704.0</ele>
        <time>2015-08-29T10:11:48Z</time>
      </trkpt>
      <trkpt lat="42.021492" lon="0.950225">
        <ele>1703.0</ele>
        <time>2015-08-29T10:11:49Z</time>
      </trkpt>
      <trkpt lat="42.021493" lon="0.950308">
        <ele>1703.0</ele>
        <time>2015-08-29T10:11:50Z</time>
      </trkpt>
      <trkpt lat="42.021493" lon="0.950387">
        <ele>1701.0</ele>
        <time>2015-08-29T10:11:51Z</time>
      </trkpt>
      <trkpt lat="42.021490" lon="0.950477">
        <ele>1700.0</ele>
        <time>2015-08-29T10:11:52Z</time>
      </trkpt>
      <trkpt lat="42.021480" lon="0.950577">
        <ele>1700.0</ele>
        <time>2015-08-29T10:11:53Z</time>
      </trkpt>
      <trkpt lat="42.021470" lon="0.950682">
        <ele>1699.0</ele>
        <time>2015-08-29T10:11:54Z</time>
      </trkpt>
      <trkpt lat="42.021463" lon="0.950775">
        <ele>1698.0</ele>
        <time>2015-08-29T10:11:55Z</time>
      </trkpt>
      <trkpt lat="42.021455" lon="0.950855">
        <ele>1697.0</ele>
        <time>2015-08-29T10:11:56Z</time>
      </trkpt>
      <trkpt lat="42.021440" lon="0.950925">
        <ele>1696.0</ele>
        <time>2015-08-29T10:11:57Z</time>
      </trkpt>
      <trkpt lat="42.021427" lon="0.951002">
        <ele>1695.0</ele>
        <time>2015-08-29T10:11:58Z</time>
      </trkpt>
      <trkpt lat="42.021405" lon="0.951068">
        <ele>1695.0</ele>
        <time>2015-08-29T10:11:59Z</time>
      </trkpt>
      <trkpt lat="42.021385" lon="0.951152">
        <ele>1695.0</ele>
        <time>2015-08-29T10:12:00Z</time>
      </trkpt>
      <trkpt lat="42.021373" lon="0.951248">
        <ele>1693.0</ele>
        <time>2015-08-29T10:12:01Z</time>
      </trkpt>
      <trkpt lat="42.021362" lon="0.951340">
        <ele>1690.0</ele>
        <time>2015-08-29T10:12:02Z</time>
      </trkpt>
      <trkpt lat="42.021342" lon="0.951410">
        <ele>1690.0</ele>
        <time>2015-08-29T10:12:03Z</time>
      </trkpt>
      <trkpt lat="42.021322" lon="0.951487">
        <ele>1689.0</ele>
        <time>2015-08-29T10:12:04Z</time>
      </trkpt>
      <trkpt lat="42.021295" lon="0.951580">
        <ele>1687.0</ele>
        <time>2015-08-29T10:12:05Z</time>
      </trkpt>
      <trkpt lat="42.021272" lon="0.951680">
        <ele>1687.0</ele>
        <time>2015-08-29T10:12:06Z</time>
      </trkpt>
      <trkpt lat="42.021260" lon="0.951770">
        <ele>1686.0</ele>
        <time>2015-08-29T10:12:07Z</time>
      </trkpt>
      <trkpt lat="42.021260" lon="0.951838">
        <ele>1685.0</ele>
        <time>2015-08-29T10:12:08Z</time>
      </trkpt>
      <trkpt lat="42.021247" lon="0.951925">
        <ele>1684.0</ele>
        <time>2015-08-29T10:12:10Z</time>
      </trkpt>
      <trkpt lat="42.021217" lon="0.951992">
        <ele>1683.0</ele>
        <time>2015-08-29T10:12:11Z</time>
      </trkpt>
      <trkpt lat="42.021185" lon="0.952087">
        <ele>1681.0</ele>
        <time>2015-08-29T10:12:12Z</time>
      </trkpt>
      <trkpt lat="42.021162" lon="0.952195">
        <ele>1681.0</ele>
        <time>2015-08-29T10:12:13Z</time>
      </trkpt>
      <trkpt lat="42.021148" lon="0.952298">
        <ele>1679.0</ele>
        <time>2015-08-29T10:12:14Z</time>
      </trkpt>
      <trkpt lat="42.021133" lon="0.952380">
        <ele>1678.0</ele>
        <time>2015-08-29T10:12:15Z</time>
      </trkpt>
      <trkpt lat="42.021108" lon="0.952443">
        <ele>1678.0</ele>
        <time>2015-08-29T10:12:16Z</time>
      </trkpt>
      <trkpt lat="42.021078" lon="0.952517">
        <ele>1678.0</ele>
        <time>2015-08-29T10:12:17Z</time>
      </trkpt>
      <trkpt lat="42.021057" lon="0.952642">
        <ele>1675.0</ele>
        <time>2015-08-29T10:12:18Z</time>
      </trkpt>
      <trkpt lat="42.021035" lon="0.952775">
        <ele>1673.0</ele>
        <time>2015-08-29T10:12:19Z</time>
      </trkpt>
      <trkpt lat="42.021008" lon="0.952872">
        <ele>1671.0</ele>
        <time>2015-08-29T10:12:20Z</time>
      </trkpt>
      <trkpt lat="42.020980" lon="0.952927">
        <ele>1671.0</ele>
        <time>2015-08-29T10:12:21Z</time>
      </trkpt>
      <trkpt lat="42.020975" lon="0.952993">
        <ele>1670.0</ele>
        <time>2015-08-29T10:12:22Z</time>
      </trkpt>
      <trkpt lat="42.020967" lon="0.953060">
        <ele>1669.0</ele>
        <time>2015-08-29T10:12:23Z</time>
      </trkpt>
      <trkpt lat="42.020950" lon="0.953142">
        <ele>1667.0</ele>
        <time>2015-08-29T10:12:24Z</time>
      </trkpt>
      <trkpt lat="42.020930" lon="0.953253">
        <ele>1666.0</ele>
        <time>2015-08-29T10:12:25Z</time>
      </trkpt>
      <trkpt lat="42.020915" lon="0.953382">
        <ele>1664.0</ele>
        <time>2015-08-29T10:12:26Z</time>
      </trkpt>
      <trkpt lat="42.020908" lon="0.953507">
        <ele>1663.0</ele>
        <time>2015-08-29T10:12:27Z</time>
      </trkpt>
      <trkpt lat="42.020900" lon="0.953617">
        <ele>1662.0</ele>
        <time>2015-08-29T10:12:28Z</time>
      </trkpt>
      <trkpt lat="42.020885" lon="0.953710">
        <ele>1660.0</ele>
        <time>2015-08-29T10:12:29Z</time>
      </trkpt>
      <trkpt lat="42.020865" lon="0.953805">
        <ele>1659.0</ele>
        <time>2015-08-29T10:12:30Z</time>
      </trkpt>
      <trkpt lat="42.020850" lon="0.953928">
        <ele>1658.0</ele>
        <time>2015-08-29T10:12:31Z</time>
      </trkpt>
      <trkpt lat="42.020848" lon="0.954058">
        <ele>1656.0</ele>
        <time>2015-08-29T10:12:32Z</time>
      </trkpt>
      <trkpt lat="42.020858" lon="0.954158">
        <ele>1657.0</ele>
        <time>2015-08-29T10:12:33Z</time>
      </trkpt>
      <trkpt lat="42.020868" lon="0.954262">
        <ele>1659.0</ele>
        <time>2015-08-29T10:12:34Z</time>
      </trkpt>
      <trkpt lat="42.020877" lon="0.954378">
        <ele>1656.0</ele>
        <time>2015-08-29T10:12:35Z</time>
      </trkpt>
      <trkpt lat="42.020867" lon="0.954480">
        <ele>1654.0</ele>
        <time>2015-08-29T10:12:36Z</time>
      </trkpt>
      <trkpt lat="42.020833" lon="0.954588">
        <ele>1652.0</ele>
        <time>2015-08-29T10:12:37Z</time>
      </trkpt>
      <trkpt lat="42.020798" lon="0.954678">
        <ele>1650.0</ele>
        <time>2015-08-29T10:12:38Z</time>
      </trkpt>
      <trkpt lat="42.020768" lon="0.954755">
        <ele>1650.0</ele>
        <time>2015-08-29T10:12:39Z</time>
      </trkpt>
      <trkpt lat="42.020753" lon="0.954835">
        <ele>1649.0</ele>
        <time>2015-08-29T10:12:40Z</time>
      </trkpt>
      <trkpt lat="42.020775" lon="0.954937">
        <ele>1648.0</ele>
        <time>2015-08-29T10:12:41Z</time>
      </trkpt>
      <trkpt lat="42.020778" lon="0.955012">
        <ele>1648.0</ele>
        <time>2015-08-29T10:12:42Z</time>
      </trkpt>
      <trkpt lat="42.020772" lon="0.955077">
        <ele>1647.0</ele>
        <time>2015-08-29T10:12:43Z</time>
      </trkpt>
      <trkpt lat="42.020767" lon="0.955135">
        <ele>1647.0</ele>
        <time>2015-08-29T10:12:44Z</time>
      </trkpt>
      <trkpt lat="42.020775" lon="0.955202">
        <ele>1646.0</ele>
        <time>2015-08-29T10:12:45Z</time>
      </trkpt>
      <trkpt lat="42.020787" lon="0.955283">
        <ele>1646.0</ele>
        <time>2015-08-29T10:12:47Z</time>
      </trkpt>
      <trkpt lat="42.020748" lon="0.955362">
        <ele>1646.0</ele>
        <time>2015-08-29T10:12:49Z</time>
      </trkpt>
      <trkpt lat="42.020727" lon="0.955412">
        <ele>1648.0</ele>
        <time>2015-08-29T10:12:50Z</time>
      </trkpt>
      <trkpt lat="42.020710" lon="0.955485">
        <ele>1651.0</ele>
        <time>2015-08-29T10:12:51Z</time>
      </trkpt>
      <trkpt lat="42.020705" lon="0.955560">
        <ele>1651.0</ele>
        <time>2015-08-29T10:12:52Z</time>
      </trkpt>
      <trkpt lat="42.020698" lon="0.955617">
        <ele>1653.0</ele>
        <time>2015-08-29T10:12:53Z</time>
      </trkpt>
      <trkpt lat="42.020668" lon="0.955660">
        <ele>1658.0</ele>
        <time>2015-08-29T10:12:55Z</time>
      </trkpt>
      <trkpt lat="42.020642" lon="0.955695">
        <ele>1663.0</ele>
        <time>2015-08-29T10:12:57Z</time>
      </trkpt>
      <trkpt lat="42.020602" lon="0.955638">
        <ele>1671.0</ele>
        <time>2015-08-29T10:13:00Z</time>
      </trkpt>
      <trkpt lat="42.020587" lon="0.955593">
        <ele>1674.0</ele>
        <time>2015-08-29T10:13:01Z</time>
      </trkpt>
      <trkpt lat="42.020577" lon="0.955535">
        <ele>1676.0</ele>
        <time>2015-08-29T10:13:02Z</time>
      </trkpt>
      <trkpt lat="42.020582" lon="0.955457">
        <ele>1678.0</ele>
        <time>2015-08-29T10:13:03Z</time>
      </trkpt>
      <trkpt lat="42.020600" lon="0.955370">
        <ele>1680.0</ele>
        <time>2015-08-29T10:13:04Z</time>
      </trkpt>
      <trkpt lat="42.020662" lon="0.955282">
        <ele>1682.0</ele>
        <time>2015-08-29T10:13:05Z</time>
      </trkpt>
      <trkpt lat="42.020742" lon="0.955210">
        <ele>1684.0</ele>
        <time>2015-08-29T10:13:06Z</time>
      </trkpt>
      <trkpt lat="42.020850" lon="0.955173">
        <ele>1686.0</ele>
        <time>2015-08-29T10:13:07Z</time>
      </trkpt>
      <trkpt lat="42.020978" lon="0.955132">
        <ele>1689.0</ele>
        <time>2015-08-29T10:13:08Z</time>
      </trkpt>
      <trkpt lat="42.021122" lon="0.955088">
        <ele>1689.0</ele>
        <time>2015-08-29T10:13:09Z</time>
      </trkpt>
      <trkpt lat="42.021252" lon="0.955088">
        <ele>1691.0</ele>
        <time>2015-08-29T10:13:10Z</time>
      </trkpt>
      <trkpt lat="42.021368" lon="0.955128">
        <ele>1694.0</ele>
        <time>2015-08-29T10:13:11Z</time>
      </trkpt>
      <trkpt lat="42.021475" lon="0.955188">
        <ele>1696.0</ele>
        <time>2015-08-29T10:13:12Z</time>
      </trkpt>
      <trkpt lat="42.021592" lon="0.955248">
        <ele>1699.0</ele>
        <time>2015-08-29T10:13:13Z</time>
      </trkpt>
      <trkpt lat="42.021712" lon="0.955305">
        <ele>1701.0</ele>
        <time>2015-08-29T10:13:14Z</time>
      </trkpt>
      <trkpt lat="42.021828" lon="0.955372">
        <ele>1704.0</ele>
        <time>2015-08-29T10:13:15Z</time>
      </trkpt>
      <trkpt lat="42.021932" lon="0.955445">
        <ele>1707.0</ele>
        <time>2015-08-29T10:13:16Z</time>
      </trkpt>
      <trkpt lat="42.022022" lon="0.955527">
        <ele>1709.0</ele>
        <time>2015-08-29T10:13:17Z</time>
      </trkpt>
      <trkpt lat="42.022103" lon="0.955617">
        <ele>1711.0</ele>
        <time>2015-08-29T10:13:18Z</time>
      </trkpt>
      <trkpt lat="42.022180" lon="0.955715">
        <ele>1714.0</ele>
        <time>2015-08-29T10:13:19Z</time>
      </trkpt>
      <trkpt lat="42.022250" lon="0.955822">
        <ele>1717.0</ele>
        <time>2015-08-29T10:13:20Z</time>
      </trkpt>
      <trkpt lat="42.022305" lon="0.955930">
        <ele>1720.0</ele>
        <time>2015-08-29T10:13:21Z</time>
      </trkpt>
      <trkpt lat="42.022333" lon="0.956035">
        <ele>1722.0</ele>
        <time>2015-08-29T10:13:22Z</time>
      </trkpt>
      <trkpt lat="42.022338" lon="0.956125">
        <ele>1725.0</ele>
        <time>2015-08-29T10:13:23Z</time>
      </trkpt>
      <trkpt lat="42.022332" lon="0.956182">
        <ele>1730.0</ele>
        <time>2015-08-29T10:13:24Z</time>
      </trkpt>
      <trkpt lat="42.022315" lon="0.956227">
        <ele>1733.0</ele>
        <time>2015-08-29T10:13:25Z</time>
      </trkpt>
      <trkpt lat="42.022267" lon="0.956230">
        <ele>1739.0</ele>
        <time>2015-08-29T10:13:27Z</time>
      </trkpt>
      <trkpt lat="42.022243" lon="0.956133">
        <ele>1744.0</ele>
        <time>2015-08-29T10:13:29Z</time>
      </trkpt>
      <trkpt lat="42.022255" lon="0.956048">
        <ele>1746.0</ele>
        <time>2015-08-29T10:13:30Z</time>
      </trkpt>
      <trkpt lat="42.022285" lon="0.955972">
        <ele>1748.0</ele>
        <time>2015-08-29T10:13:31Z</time>
      </trkpt>
      <trkpt lat="42.022328" lon="0.955897">
        <ele>1750.0</ele>
        <time>2015-08-29T10:13:32Z</time>
      </trkpt>
      <trkpt lat="42.022382" lon="0.955820">
        <ele>1752.0</ele>
        <time>2015-08-29T10:13:33Z</time>
      </trkpt>
      <trkpt lat="42.022442" lon="0.955720">
        <ele>1754.0</ele>
        <time>2015-08-29T10:13:34Z</time>
      </trkpt>
      <trkpt lat="42.022513" lon="0.955610">
        <ele>1755.0</ele>
        <time>2015-08-29T10:13:35Z</time>
      </trkpt>
      <trkpt lat="42.022617" lon="0.955512">
        <ele>1757.0</ele>
        <time>2015-08-29T10:13:36Z</time>
      </trkpt>
      <trkpt lat="42.022740" lon="0.955440">
        <ele>1758.0</ele>
        <time>2015-08-29T10:13:37Z</time>
      </trkpt>
      <trkpt lat="42.022880" lon="0.955405">
        <ele>1760.0</ele>
        <time>2015-08-29T10:13:38Z</time>
      </trkpt>
      <trkpt lat="42.023010" lon="0.955425">
        <ele>1762.0</ele>
        <time>2015-08-29T10:13:39Z</time>
      </trkpt>
      <trkpt lat="42.023135" lon="0.955468">
        <ele>1765.0</ele>
        <time>2015-08-29T10:13:40Z</time>
      </trkpt>
      <trkpt lat="42.023233" lon="0.955545">
        <ele>1769.0</ele>
        <time>2015-08-29T10:13:41Z</time>
      </trkpt>
      <trkpt lat="42.023323" lon="0.955650">
        <ele>1772.0</ele>
        <time>2015-08-29T10:13:42Z</time>
      </trkpt>
      <trkpt lat="42.023408" lon="0.955777">
        <ele>1773.0</ele>
        <time>2015-08-29T10:13:43Z</time>
      </trkpt>
      <trkpt lat="42.023473" lon="0.955900">
        <ele>1775.0</ele>
        <time>2015-08-29T10:13:44Z</time>
      </trkpt>
      <trkpt lat="42.023517" lon="0.956008">
        <ele>1777.0</ele>
        <time>2015-08-29T10:13:45Z</time>
      </trkpt>
      <trkpt lat="42.023552" lon="0.956100">
        <ele>1780.0</ele>
        <time>2015-08-29T10:13:46Z</time>
      </trkpt>
      <trkpt lat="42.023578" lon="0.956183">
        <ele>1783.0</ele>
        <time>2015-08-29T10:13:47Z</time>
      </trkpt>
      <trkpt lat="42.023605" lon="0.956265">
        <ele>1784.0</ele>
        <time>2015-08-29T10:13:48Z</time>
      </trkpt>
      <trkpt lat="42.023622" lon="0.956340">
        <ele>1786.0</ele>
        <time>2015-08-29T10:13:49Z</time>
      </trkpt>
      <trkpt lat="42.023623" lon="0.956395">
        <ele>1788.0</ele>
        <time>2015-08-29T10:13:50Z</time>
      </trkpt>
      <trkpt lat="42.023563" lon="0.956348">
        <ele>1795.0</ele>
        <time>2015-08-29T10:13:53Z</time>
      </trkpt>
      <trkpt lat="42.023550" lon="0.956262">
        <ele>1797.0</ele>
        <time>2015-08-29T10:13:54Z</time>
      </trkpt>
      <trkpt lat="42.023557" lon="0.956157">
        <ele>1797.0</ele>
        <time>2015-08-29T10:13:55Z</time>
      </trkpt>
      <trkpt lat="42.023577" lon="0.956058">
        <ele>1799.0</ele>
        <time>2015-08-29T10:13:56Z</time>
      </trkpt>
      <trkpt lat="42.023607" lon="0.955970">
        <ele>1801.0</ele>
        <time>2015-08-29T10:13:57Z</time>
      </trkpt>
      <trkpt lat="42.023643" lon="0.955898">
        <ele>1804.0</ele>
        <time>2015-08-29T10:13:58Z</time>
      </trkpt>
      <trkpt lat="42.023675" lon="0.955797">
        <ele>1807.0</ele>
        <time>2015-08-29T10:13:59Z</time>
      </trkpt>
      <trkpt lat="42.023702" lon="0.955688">
        <ele>1809.0</ele>
        <time>2015-08-29T10:14:00Z</time>
      </trkpt>
      <trkpt lat="42.023715" lon="0.955608">
        <ele>1811.0</ele>
        <time>2015-08-29T10:14:01Z</time>
      </trkpt>
      <trkpt lat="42.023727" lon="0.955555">
        <ele>1814.0</ele>
        <time>2015-08-29T10:14:02Z</time>
      </trkpt>
      <trkpt lat="42.023763" lon="0.955472">
        <ele>1820.0</ele>
        <time>2015-08-29T10:14:04Z</time>
      </trkpt>
      <trkpt lat="42.023777" lon="0.955397">
        <ele>1825.0</ele>
        <time>2015-08-29T10:14:06Z</time>
      </trkpt>
      <trkpt lat="42.023747" lon="0.955347">
        <ele>1830.0</ele>
        <time>2015-08-29T10:14:09Z</time>
      </trkpt>
      <trkpt lat="42.023755" lon="0.955288">
        <ele>1832.0</ele>
        <time>2015-08-29T10:14:10Z</time>
      </trkpt>
      <trkpt lat="42.023780" lon="0.955215">
        <ele>1833.0</ele>
        <time>2015-08-29T10:14:11Z</time>
      </trkpt>
      <trkpt lat="42.023820" lon="0.955138">
        <ele>1835.0</ele>
        <time>2015-08-29T10:14:12Z</time>
      </trkpt>
      <trkpt lat="42.023867" lon="0.955075">
        <ele>1837.0</ele>
        <time>2015-08-29T10:14:13Z</time>
      </trkpt>
      <trkpt lat="42.023913" lon="0.955008">
        <ele>1839.0</ele>
        <time>2015-08-29T10:14:14Z</time>
      </trkpt>
      <trkpt lat="42.023967" lon="0.954970">
        <ele>1841.0</ele>
        <time>2015-08-29T10:14:15Z</time>
      </trkpt>
      <trkpt lat="42.024053" lon="0.954908">
        <ele>1842.0</ele>
        <time>2015-08-29T10:14:16Z</time>
      </trkpt>
      <trkpt lat="42.024160" lon="0.954865">
        <ele>1841.0</ele>
        <time>2015-08-29T10:14:17Z</time>
      </trkpt>
      <trkpt lat="42.024277" lon="0.954847">
        <ele>1841.0</ele>
        <time>2015-08-29T10:14:18Z</time>
      </trkpt>
      <trkpt lat="42.024392" lon="0.954872">
        <ele>1840.0</ele>
        <time>2015-08-29T10:14:19Z</time>
      </trkpt>
      <trkpt lat="42.024503" lon="0.954940">
        <ele>1840.0</ele>
        <time>2015-08-29T10:14:20Z</time>
      </trkpt>
      <trkpt lat="42.024613" lon="0.955037">
        <ele>1840.0</ele>
        <time>2015-08-29T10:14:21Z</time>
      </trkpt>
      <trkpt lat="42.024715" lon="0.955143">
        <ele>1841.0</ele>
        <time>2015-08-29T10:14:22Z</time>
      </trkpt>
      <trkpt lat="42.024807" lon="0.955240">
        <ele>1842.0</ele>
        <time>2015-08-29T10:14:23Z</time>
      </trkpt>
      <trkpt lat="42.024887" lon="0.955325">
        <ele>1843.0</ele>
        <time>2015-08-29T10:14:24Z</time>
      </trkpt>
      <trkpt lat="42.024962" lon="0.955413">
        <ele>1844.0</ele>
        <time>2015-08-29T10:14:25Z</time>
      </trkpt>
      <trkpt lat="42.025028" lon="0.955503">
        <ele>1844.0</ele>
        <time>2015-08-29T10:14:26Z</time>
      </trkpt>
      <trkpt lat="42.025087" lon="0.955602">
        <ele>1845.0</ele>
        <time>2015-08-29T10:14:27Z</time>
      </trkpt>
      <trkpt lat="42.025128" lon="0.955715">
        <ele>1846.0</ele>
        <time>2015-08-29T10:14:28Z</time>
      </trkpt>
      <trkpt lat="42.025158" lon="0.955833">
        <ele>1846.0</ele>
        <time>2015-08-29T10:14:29Z</time>
      </trkpt>
      <trkpt lat="42.025185" lon="0.955940">
        <ele>1847.0</ele>
        <time>2015-08-29T10:14:30Z</time>
      </trkpt>
      <trkpt lat="42.025202" lon="0.956010">
        <ele>1848.0</ele>
        <time>2015-08-29T10:14:31Z</time>
      </trkpt>
      <trkpt lat="42.025208" lon="0.956070">
        <ele>1850.0</ele>
        <time>2015-08-29T10:14:32Z</time>
      </trkpt>
      <trkpt lat="42.025197" lon="0.956125">
        <ele>1849.0</ele>
        <time>2015-08-29T10:14:33Z</time>
      </trkpt>
      <trkpt lat="42.025175" lon="0.956177">
        <ele>1849.0</ele>
        <time>2015-08-29T10:14:34Z</time>
      </trkpt>
      <trkpt lat="42.025147" lon="0.956227">
        <ele>1848.0</ele>
        <time>2015-08-29T10:14:36Z</time>
      </trkpt>
      <trkpt lat="42.025060" lon="0.956252">
        <ele>1851.0</ele>
        <time>2015-08-29T10:14:40Z</time>
      </trkpt>
      <trkpt lat="42.025025" lon="0.956272">
        <ele>1851.0</ele>
        <time>2015-08-29T10:14:41Z</time>
      </trkpt>
      <trkpt lat="42.024992" lon="0.956303">
        <ele>1852.0</ele>
        <time>2015-08-29T10:14:42Z</time>
      </trkpt>
      <trkpt lat="42.024963" lon="0.956343">
        <ele>1852.0</ele>
        <time>2015-08-29T10:14:43Z</time>
      </trkpt>
      <trkpt lat="42.024923" lon="0.956390">
        <ele>1853.0</ele>
        <time>2015-08-29T10:14:45Z</time>
      </trkpt>
      <trkpt lat="42.024858" lon="0.956382">
        <ele>1853.0</ele>
        <time>2015-08-29T10:14:47Z</time>
      </trkpt>
      <trkpt lat="42.024795" lon="0.956385">
        <ele>1857.0</ele>
        <time>2015-08-29T10:14:49Z</time>
      </trkpt>
      <trkpt lat="42.024743" lon="0.956400">
        <ele>1855.0</ele>
        <time>2015-08-29T10:14:51Z</time>
      </trkpt>
      <trkpt lat="42.024677" lon="0.956367">
        <ele>1857.0</ele>
        <time>2015-08-29T10:14:53Z</time>
      </trkpt>
      <trkpt lat="42.024620" lon="0.956387">
        <ele>1859.0</ele>
        <time>2015-08-29T10:14:55Z</time>
      </trkpt>
      <trkpt lat="42.024585" lon="0.956445">
        <ele>1863.0</ele>
        <time>2015-08-29T10:14:57Z</time>
      </trkpt>
      <trkpt lat="42.024522" lon="0.956505">
        <ele>1867.0</ele>
        <time>2015-08-29T10:14:59Z</time>
      </trkpt>
      <trkpt lat="42.024492" lon="0.956547">
        <ele>1870.0</ele>
        <time>2015-08-29T10:15:00Z</time>
      </trkpt>
      <trkpt lat="42.024462" lon="0.956638">
        <ele>1875.0</ele>
        <time>2015-08-29T10:15:02Z</time>
      </trkpt>
      <trkpt lat="42.024445" lon="0.956687">
        <ele>1877.0</ele>
        <time>2015-08-29T10:15:03Z</time>
      </trkpt>
      <trkpt lat="42.024422" lon="0.956752">
        <ele>1881.0</ele>
        <time>2015-08-29T10:15:05Z</time>
      </trkpt>
      <trkpt lat="42.024380" lon="0.956763">
        <ele>1885.0</ele>
        <time>2015-08-29T10:15:07Z</time>
      </trkpt>
      <trkpt lat="42.024333" lon="0.956777">
        <ele>1885.0</ele>
        <time>2015-08-29T10:15:08Z</time>
      </trkpt>
      <trkpt lat="42.024302" lon="0.956807">
        <ele>1885.0</ele>
        <time>2015-08-29T10:15:09Z</time>
      </trkpt>
      <trkpt lat="42.024295" lon="0.956883">
        <ele>1884.0</ele>
        <time>2015-08-29T10:15:11Z</time>
      </trkpt>
      <trkpt lat="42.024255" lon="0.956840">
        <ele>1882.0</ele>
        <time>2015-08-29T10:15:15Z</time>
      </trkpt>
      <trkpt lat="42.024212" lon="0.956848">
        <ele>1881.0</ele>
        <time>2015-08-29T10:15:16Z</time>
      </trkpt>
      <trkpt lat="42.024168" lon="0.956877">
        <ele>1879.0</ele>
        <time>2015-08-29T10:15:17Z</time>
      </trkpt>
      <trkpt lat="42.024130" lon="0.956907">
        <ele>1877.0</ele>
        <time>2015-08-29T10:15:18Z</time>
      </trkpt>
      <trkpt lat="42.024102" lon="0.956938">
        <ele>1875.0</ele>
        <time>2015-08-29T10:15:19Z</time>
      </trkpt>
      <trkpt lat="42.024043" lon="0.956958">
        <ele>1873.0</ele>
        <time>2015-08-29T10:15:20Z</time>
      </trkpt>
      <trkpt lat="42.023990" lon="0.956987">
        <ele>1870.0</ele>
        <time>2015-08-29T10:15:21Z</time>
      </trkpt>
      <trkpt lat="42.023943" lon="0.957025">
        <ele>1868.0</ele>
        <time>2015-08-29T10:15:22Z</time>
      </trkpt>
      <trkpt lat="42.023905" lon="0.957065">
        <ele>1867.0</ele>
        <time>2015-08-29T10:15:23Z</time>
      </trkpt>
      <trkpt lat="42.023873" lon="0.957110">
        <ele>1863.0</ele>
        <time>2015-08-29T10:15:24Z</time>
      </trkpt>
      <trkpt lat="42.023837" lon="0.957150">
        <ele>1861.0</ele>
        <time>2015-08-29T10:15:25Z</time>
      </trkpt>
      <trkpt lat="42.023800" lon="0.957187">
        <ele>1860.0</ele>
        <time>2015-08-29T10:15:26Z</time>
      </trkpt>
      <trkpt lat="42.023763" lon="0.957218">
        <ele>1858.0</ele>
        <time>2015-08-29T10:15:27Z</time>
      </trkpt>
      <trkpt lat="42.023727" lon="0.957243">
        <ele>1857.0</ele>
        <time>2015-08-29T10:15:28Z</time>
      </trkpt>
      <trkpt lat="42.023672" lon="0.957277">
        <ele>1856.0</ele>
        <time>2015-08-29T10:15:30Z</time>
      </trkpt>
      <trkpt lat="42.023598" lon="0.957307">
        <ele>1854.0</ele>
        <time>2015-08-29T10:15:32Z</time>
      </trkpt>
      <trkpt lat="42.023555" lon="0.957342">
        <ele>1853.0</ele>
        <time>2015-08-29T10:15:33Z</time>
      </trkpt>
      <trkpt lat="42.023515" lon="0.957395">
        <ele>1853.0</ele>
        <time>2015-08-29T10:15:34Z</time>
      </trkpt>
      <trkpt lat="42.023482" lon="0.957460">
        <ele>1852.0</ele>
        <time>2015-08-29T10:15:35Z</time>
      </trkpt>
      <trkpt lat="42.023447" lon="0.957517">
        <ele>1851.0</ele>
        <time>2015-08-29T10:15:36Z</time>
      </trkpt>
      <trkpt lat="42.023407" lon="0.957572">
        <ele>1848.0</ele>
        <time>2015-08-29T10:15:37Z</time>
      </trkpt>
      <trkpt lat="42.023368" lon="0.957640">
        <ele>1846.0</ele>
        <time>2015-08-29T10:15:38Z</time>
      </trkpt>
      <trkpt lat="42.023337" lon="0.957715">
        <ele>1847.0</ele>
        <time>2015-08-29T10:15:39Z</time>
      </trkpt>
      <trkpt lat="42.023313" lon="0.957797">
        <ele>1848.0</ele>
        <time>2015-08-29T10:15:40Z</time>
      </trkpt>
      <trkpt lat="42.023288" lon="0.957868">
        <ele>1847.0</ele>
        <time>2015-08-29T10:15:41Z</time>
      </trkpt>
      <trkpt lat="42.023238" lon="0.957928">
        <ele>1845.0</ele>
        <time>2015-08-29T10:15:43Z</time>
      </trkpt>
      <trkpt lat="42.023182" lon="0.957975">
        <ele>1842.0</ele>
        <time>2015-08-29T10:15:45Z</time>
      </trkpt>
      <trkpt lat="42.023143" lon="0.958017">
        <ele>1840.0</ele>
        <time>2015-08-29T10:15:46Z</time>
      </trkpt>
      <trkpt lat="42.023102" lon="0.958053">
        <ele>1840.0</ele>
        <time>2015-08-29T10:15:47Z</time>
      </trkpt>
      <trkpt lat="42.023067" lon="0.958083">
        <ele>1839.0</ele>
        <time>2015-08-29T10:15:48Z</time>
      </trkpt>
      <trkpt lat="42.023038" lon="0.958115">
        <ele>1839.0</ele>
        <time>2015-08-29T10:15:49Z</time>
      </trkpt>
      <trkpt lat="42.023015" lon="0.958165">
        <ele>1839.0</ele>
        <time>2015-08-29T10:15:50Z</time>
      </trkpt>
      <trkpt lat="42.022992" lon="0.958228">
        <ele>1838.0</ele>
        <time>2015-08-29T10:15:51Z</time>
      </trkpt>
      <trkpt lat="42.022953" lon="0.958308">
        <ele>1837.0</ele>
        <time>2015-08-29T10:15:52Z</time>
      </trkpt>
      <trkpt lat="42.022908" lon="0.958375">
        <ele>1835.0</ele>
        <time>2015-08-29T10:15:53Z</time>
      </trkpt>
      <trkpt lat="42.022862" lon="0.958422">
        <ele>1832.0</ele>
        <time>2015-08-29T10:15:54Z</time>
      </trkpt>
      <trkpt lat="42.022807" lon="0.958460">
        <ele>1829.0</ele>
        <time>2015-08-29T10:15:55Z</time>
      </trkpt>
      <trkpt lat="42.022755" lon="0.958505">
        <ele>1828.0</ele>
        <time>2015-08-29T10:15:56Z</time>
      </trkpt>
      <trkpt lat="42.022707" lon="0.958573">
        <ele>1827.0</ele>
        <time>2015-08-29T10:15:57Z</time>
      </trkpt>
      <trkpt lat="42.022673" lon="0.958647">
        <ele>1825.0</ele>
        <time>2015-08-29T10:15:58Z</time>
      </trkpt>
      <trkpt lat="42.022653" lon="0.958698">
        <ele>1822.0</ele>
        <time>2015-08-29T10:15:59Z</time>
      </trkpt>
      <trkpt lat="42.022620" lon="0.958757">
        <ele>1819.0</ele>
        <time>2015-08-29T10:16:01Z</time>
      </trkpt>
      <trkpt lat="42.022573" lon="0.958787">
        <ele>1815.0</ele>
        <time>2015-08-29T10:16:02Z</time>
      </trkpt>
      <trkpt lat="42.022525" lon="0.958835">
        <ele>1814.0</ele>
        <time>2015-08-29T10:16:03Z</time>
      </trkpt>
      <trkpt lat="42.022488" lon="0.958897">
        <ele>1812.0</ele>
        <time>2015-08-29T10:16:04Z</time>
      </trkpt>
      <trkpt lat="42.022472" lon="0.958948">
        <ele>1811.0</ele>
        <time>2015-08-29T10:16:05Z</time>
      </trkpt>
      <trkpt lat="42.022445" lon="0.959027">
        <ele>1807.0</ele>
        <time>2015-08-29T10:16:07Z</time>
      </trkpt>
      <trkpt lat="42.022418" lon="0.959068">
        <ele>1805.0</ele>
        <time>2015-08-29T10:16:08Z</time>
      </trkpt>
      <trkpt lat="42.022388" lon="0.959120">
        <ele>1803.0</ele>
        <time>2015-08-29T10:16:09Z</time>
      </trkpt>
      <trkpt lat="42.022362" lon="0.959170">
        <ele>1802.0</ele>
        <time>2015-08-29T10:16:10Z</time>
      </trkpt>
      <trkpt lat="42.022333" lon="0.959237">
        <ele>1800.0</ele>
        <time>2015-08-29T10:16:12Z</time>
      </trkpt>
      <trkpt lat="42.022292" lon="0.959277">
        <ele>1799.0</ele>
        <time>2015-08-29T10:16:14Z</time>
      </trkpt>
      <trkpt lat="42.022252" lon="0.959338">
        <ele>1795.0</ele>
        <time>2015-08-29T10:16:15Z</time>
      </trkpt>
      <trkpt lat="42.022208" lon="0.959413">
        <ele>1792.0</ele>
        <time>2015-08-29T10:16:16Z</time>
      </trkpt>
      <trkpt lat="42.022173" lon="0.959493">
        <ele>1789.0</ele>
        <time>2015-08-29T10:16:17Z</time>
      </trkpt>
      <trkpt lat="42.022145" lon="0.959565">
        <ele>1787.0</ele>
        <time>2015-08-29T10:16:18Z</time>
      </trkpt>
      <trkpt lat="42.022117" lon="0.959618">
        <ele>1786.0</ele>
        <time>2015-08-29T10:16:19Z</time>
      </trkpt>
      <trkpt lat="42.022095" lon="0.959675">
        <ele>1784.0</ele>
        <time>2015-08-29T10:16:20Z</time>
      </trkpt>
      <trkpt lat="42.022055" lon="0.959728">
        <ele>1780.0</ele>
        <time>2015-08-29T10:16:21Z</time>
      </trkpt>
      <trkpt lat="42.021997" lon="0.959782">
        <ele>1779.0</ele>
        <time>2015-08-29T10:16:22Z</time>
      </trkpt>
      <trkpt lat="42.021950" lon="0.959843">
        <ele>1777.0</ele>
        <time>2015-08-29T10:16:23Z</time>
      </trkpt>
      <trkpt lat="42.021928" lon="0.959912">
        <ele>1776.0</ele>
        <time>2015-08-29T10:16:24Z</time>
      </trkpt>
      <trkpt lat="42.021922" lon="0.959968">
        <ele>1775.0</ele>
        <time>2015-08-29T10:16:25Z</time>
      </trkpt>
      <trkpt lat="42.021918" lon="0.960017">
        <ele>1773.0</ele>
        <time>2015-08-29T10:16:26Z</time>
      </trkpt>
      <trkpt lat="42.021878" lon="0.960105">
        <ele>1768.0</ele>
        <time>2015-08-29T10:16:28Z</time>
      </trkpt>
      <trkpt lat="42.021843" lon="0.960158">
        <ele>1765.0</ele>
        <time>2015-08-29T10:16:29Z</time>
      </trkpt>
      <trkpt lat="42.021812" lon="0.960212">
        <ele>1766.0</ele>
        <time>2015-08-29T10:16:30Z</time>
      </trkpt>
      <trkpt lat="42.021783" lon="0.960263">
        <ele>1766.0</ele>
        <time>2015-08-29T10:16:31Z</time>
      </trkpt>
      <trkpt lat="42.021758" lon="0.960318">
        <ele>1764.0</ele>
        <time>2015-08-29T10:16:32Z</time>
      </trkpt>
      <trkpt lat="42.021727" lon="0.960367">
        <ele>1762.0</ele>
        <time>2015-08-29T10:16:33Z</time>
      </trkpt>
      <trkpt lat="42.021693" lon="0.960413">
        <ele>1761.0</ele>
        <time>2015-08-29T10:16:34Z</time>
      </trkpt>
      <trkpt lat="42.021662" lon="0.960463">
        <ele>1759.0</ele>
        <time>2015-08-29T10:16:35Z</time>
      </trkpt>
      <trkpt lat="42.021637" lon="0.960507">
        <ele>1758.0</ele>
        <time>2015-08-29T10:16:36Z</time>
      </trkpt>
      <trkpt lat="42.021625" lon="0.960555">
        <ele>1758.0</ele>
        <time>2015-08-29T10:16:37Z</time>
      </trkpt>
      <trkpt lat="42.021618" lon="0.960620">
        <ele>1757.0</ele>
        <time>2015-08-29T10:16:39Z</time>
      </trkpt>
      <trkpt lat="42.021572" lon="0.960680">
        <ele>1753.0</ele>
        <time>2015-08-29T10:16:41Z</time>
      </trkpt>
      <trkpt lat="42.021537" lon="0.960717">
        <ele>1752.0</ele>
        <time>2015-08-29T10:16:42Z</time>
      </trkpt>
      <trkpt lat="42.021510" lon="0.960750">
        <ele>1751.0</ele>
        <time>2015-08-29T10:16:43Z</time>
      </trkpt>
      <trkpt lat="42.021498" lon="0.960810">
        <ele>1751.0</ele>
        <time>2015-08-29T10:16:45Z</time>
      </trkpt>
      <trkpt lat="42.021470" lon="0.960850">
        <ele>1750.0</ele>
        <time>2015-08-29T10:16:47Z</time>
      </trkpt>
      <trkpt lat="42.021430" lon="0.960875">
        <ele>1750.0</ele>
        <time>2015-08-29T10:16:48Z</time>
      </trkpt>
      <trkpt lat="42.021400" lon="0.960938">
        <ele>1749.0</ele>
        <time>2015-08-29T10:16:49Z</time>
      </trkpt>
      <trkpt lat="42.021383" lon="0.960990">
        <ele>1748.0</ele>
        <time>2015-08-29T10:16:50Z</time>
      </trkpt>
      <trkpt lat="42.021358" lon="0.961053">
        <ele>1748.0</ele>
        <time>2015-08-29T10:16:52Z</time>
      </trkpt>
      <trkpt lat="42.021278" lon="0.961068">
        <ele>1745.0</ele>
        <time>2015-08-29T10:16:54Z</time>
      </trkpt>
      <trkpt lat="42.021235" lon="0.961103">
        <ele>1745.0</ele>
        <time>2015-08-29T10:16:55Z</time>
      </trkpt>
      <trkpt lat="42.021198" lon="0.961137">
        <ele>1745.0</ele>
        <time>2015-08-29T10:16:56Z</time>
      </trkpt>
      <trkpt lat="42.021150" lon="0.961193">
        <ele>1746.0</ele>
        <time>2015-08-29T10:16:58Z</time>
      </trkpt>
      <trkpt lat="42.021083" lon="0.961243">
        <ele>1745.0</ele>
        <time>2015-08-29T10:17:00Z</time>
      </trkpt>
      <trkpt lat="42.021045" lon="0.961270">
        <ele>1746.0</ele>
        <time>2015-08-29T10:17:01Z</time>
      </trkpt>
      <trkpt lat="42.021010" lon="0.961302">
        <ele>1746.0</ele>
        <time>2015-08-29T10:17:02Z</time>
      </trkpt>
      <trkpt lat="42.020980" lon="0.961337">
        <ele>1745.0</ele>
        <time>2015-08-29T10:17:03Z</time>
      </trkpt>
      <trkpt lat="42.020947" lon="0.961362">
        <ele>1747.0</ele>
        <time>2015-08-29T10:17:04Z</time>
      </trkpt>
      <trkpt lat="42.020915" lon="0.961415">
        <ele>1748.0</ele>
        <time>2015-08-29T10:17:05Z</time>
      </trkpt>
      <trkpt lat="42.020888" lon="0.961480">
        <ele>1748.0</ele>
        <time>2015-08-29T10:17:06Z</time>
      </trkpt>
      <trkpt lat="42.020865" lon="0.961540">
        <ele>1747.0</ele>
        <time>2015-08-29T10:17:07Z</time>
      </trkpt>
      <trkpt lat="42.020850" lon="0.961595">
        <ele>1747.0</ele>
        <time>2015-08-29T10:17:08Z</time>
      </trkpt>
      <trkpt lat="42.020837" lon="0.961650">
        <ele>1747.0</ele>
        <time>2015-08-29T10:17:09Z</time>
      </trkpt>
      <trkpt lat="42.020823" lon="0.961713">
        <ele>1746.0</ele>
        <time>2015-08-29T10:17:10Z</time>
      </trkpt>
      <trkpt lat="42.020805" lon="0.961782">
        <ele>1746.0</ele>
        <time>2015-08-29T10:17:11Z</time>
      </trkpt>
      <trkpt lat="42.020787" lon="0.961852">
        <ele>1746.0</ele>
        <time>2015-08-29T10:17:12Z</time>
      </trkpt>
      <trkpt lat="42.020765" lon="0.961925">
        <ele>1746.0</ele>
        <time>2015-08-29T10:17:13Z</time>
      </trkpt>
      <trkpt lat="42.020743" lon="0.962003">
        <ele>1745.0</ele>
        <time>2015-08-29T10:17:14Z</time>
      </trkpt>
      <trkpt lat="42.020717" lon="0.962087">
        <ele>1745.0</ele>
        <time>2015-08-29T10:17:15Z</time>
      </trkpt>
      <trkpt lat="42.020685" lon="0.962167">
        <ele>1744.0</ele>
        <time>2015-08-29T10:17:16Z</time>
      </trkpt>
      <trkpt lat="42.020658" lon="0.962240">
        <ele>1744.0</ele>
        <time>2015-08-29T10:17:17Z</time>
      </trkpt>
      <trkpt lat="42.020638" lon="0.962293">
        <ele>1744.0</ele>
        <time>2015-08-29T10:17:18Z</time>
      </trkpt>
      <trkpt lat="42.020623" lon="0.962360">
        <ele>1743.0</ele>
        <time>2015-08-29T10:17:20Z</time>
      </trkpt>
      <trkpt lat="42.020580" lon="0.962432">
        <ele>1742.0</ele>
        <time>2015-08-29T10:17:22Z</time>
      </trkpt>
      <trkpt lat="42.020553" lon="0.962500">
        <ele>1740.0</ele>
        <time>2015-08-29T10:17:23Z</time>
      </trkpt>
      <trkpt lat="42.020532" lon="0.962568">
        <ele>1737.0</ele>
        <time>2015-08-29T10:17:24Z</time>
      </trkpt>
      <trkpt lat="42.020515" lon="0.962615">
        <ele>1737.0</ele>
        <time>2015-08-29T10:17:25Z</time>
      </trkpt>
      <trkpt lat="42.020503" lon="0.962665">
        <ele>1735.0</ele>
        <time>2015-08-29T10:17:26Z</time>
      </trkpt>
      <trkpt lat="42.020488" lon="0.962713">
        <ele>1734.0</ele>
        <time>2015-08-29T10:17:27Z</time>
      </trkpt>
      <trkpt lat="42.020468" lon="0.962765">
        <ele>1733.0</ele>
        <time>2015-08-29T10:17:28Z</time>
      </trkpt>
      <trkpt lat="42.020445" lon="0.962820">
        <ele>1732.0</ele>
        <time>2015-08-29T10:17:29Z</time>
      </trkpt>
      <trkpt lat="42.020417" lon="0.962877">
        <ele>1731.0</ele>
        <time>2015-08-29T10:17:30Z</time>
      </trkpt>
      <trkpt lat="42.020388" lon="0.962933">
        <ele>1730.0</ele>
        <time>2015-08-29T10:17:31Z</time>
      </trkpt>
      <trkpt lat="42.020358" lon="0.962988">
        <ele>1729.0</ele>
        <time>2015-08-29T10:17:32Z</time>
      </trkpt>
      <trkpt lat="42.020328" lon="0.963032">
        <ele>1727.0</ele>
        <time>2015-08-29T10:17:33Z</time>
      </trkpt>
      <trkpt lat="42.020293" lon="0.963070">
        <ele>1726.0</ele>
        <time>2015-08-29T10:17:34Z</time>
      </trkpt>
      <trkpt lat="42.020260" lon="0.963113">
        <ele>1725.0</ele>
        <time>2015-08-29T10:17:35Z</time>
      </trkpt>
      <trkpt lat="42.020227" lon="0.963172">
        <ele>1724.0</ele>
        <time>2015-08-29T10:17:36Z</time>
      </trkpt>
      <trkpt lat="42.020198" lon="0.963235">
        <ele>1722.0</ele>
        <time>2015-08-29T10:17:37Z</time>
      </trkpt>
      <trkpt lat="42.020168" lon="0.963273">
        <ele>1723.0</ele>
        <time>2015-08-29T10:17:38Z</time>
      </trkpt>
      <trkpt lat="42.020143" lon="0.963328">
        <ele>1723.0</ele>
        <time>2015-08-29T10:17:39Z</time>
      </trkpt>
      <trkpt lat="42.020128" lon="0.963397">
        <ele>1720.0</ele>
        <time>2015-08-29T10:17:40Z</time>
      </trkpt>
      <trkpt lat="42.020110" lon="0.963468">
        <ele>1718.0</ele>
        <time>2015-08-29T10:17:41Z</time>
      </trkpt>
      <trkpt lat="42.020090" lon="0.963540">
        <ele>1716.0</ele>
        <time>2015-08-29T10:17:42Z</time>
      </trkpt>
      <trkpt lat="42.020067" lon="0.963602">
        <ele>1716.0</ele>
        <time>2015-08-29T10:17:43Z</time>
      </trkpt>
      <trkpt lat="42.020048" lon="0.963660">
        <ele>1715.0</ele>
        <time>2015-08-29T10:17:44Z</time>
      </trkpt>
      <trkpt lat="42.020038" lon="0.963718">
        <ele>1713.0</ele>
        <time>2015-08-29T10:17:45Z</time>
      </trkpt>
      <trkpt lat="42.020032" lon="0.963785">
        <ele>1712.0</ele>
        <time>2015-08-29T10:17:46Z</time>
      </trkpt>
      <trkpt lat="42.020028" lon="0.963868">
        <ele>1711.0</ele>
        <time>2015-08-29T10:17:47Z</time>
      </trkpt>
      <trkpt lat="42.020027" lon="0.963958">
        <ele>1710.0</ele>
        <time>2015-08-29T10:17:48Z</time>
      </trkpt>
      <trkpt lat="42.020032" lon="0.964045">
        <ele>1708.0</ele>
        <time>2015-08-29T10:17:49Z</time>
      </trkpt>
      <trkpt lat="42.020038" lon="0.964128">
        <ele>1707.0</ele>
        <time>2015-08-29T10:17:50Z</time>
      </trkpt>
      <trkpt lat="42.020050" lon="0.964212">
        <ele>1706.0</ele>
        <time>2015-08-29T10:17:51Z</time>
      </trkpt>
      <trkpt lat="42.020062" lon="0.964292">
        <ele>1705.0</ele>
        <time>2015-08-29T10:17:52Z</time>
      </trkpt>
      <trkpt lat="42.020068" lon="0.964367">
        <ele>1703.0</ele>
        <time>2015-08-29T10:17:53Z</time>
      </trkpt>
      <trkpt lat="42.020065" lon="0.964437">
        <ele>1702.0</ele>
        <time>2015-08-29T10:17:54Z</time>
      </trkpt>
      <trkpt lat="42.020048" lon="0.964485">
        <ele>1702.0</ele>
        <time>2015-08-29T10:17:55Z</time>
      </trkpt>
      <trkpt lat="42.020028" lon="0.964558">
        <ele>1701.0</ele>
        <time>2015-08-29T10:17:56Z</time>
      </trkpt>
      <trkpt lat="42.020023" lon="0.964660">
        <ele>1699.0</ele>
        <time>2015-08-29T10:17:57Z</time>
      </trkpt>
      <trkpt lat="42.020023" lon="0.964753">
        <ele>1697.0</ele>
        <time>2015-08-29T10:17:58Z</time>
      </trkpt>
      <trkpt lat="42.020025" lon="0.964842">
        <ele>1695.0</ele>
        <time>2015-08-29T10:17:59Z</time>
      </trkpt>
      <trkpt lat="42.020023" lon="0.964915">
        <ele>1694.0</ele>
        <time>2015-08-29T10:18:00Z</time>
      </trkpt>
      <trkpt lat="42.020018" lon="0.964985">
        <ele>1692.0</ele>
        <time>2015-08-29T10:18:01Z</time>
      </trkpt>
      <trkpt lat="42.020013" lon="0.965063">
        <ele>1690.0</ele>
        <time>2015-08-29T10:18:02Z</time>
      </trkpt>
      <trkpt lat="42.020012" lon="0.965158">
        <ele>1688.0</ele>
        <time>2015-08-29T10:18:03Z</time>
      </trkpt>
      <trkpt lat="42.020012" lon="0.965253">
        <ele>1687.0</ele>
        <time>2015-08-29T10:18:04Z</time>
      </trkpt>
      <trkpt lat="42.020002" lon="0.965332">
        <ele>1685.0</ele>
        <time>2015-08-29T10:18:05Z</time>
      </trkpt>
      <trkpt lat="42.019985" lon="0.965393">
        <ele>1684.0</ele>
        <time>2015-08-29T10:18:06Z</time>
      </trkpt>
      <trkpt lat="42.019962" lon="0.965447">
        <ele>1683.0</ele>
        <time>2015-08-29T10:18:07Z</time>
      </trkpt>
      <trkpt lat="42.019943" lon="0.965505">
        <ele>1681.0</ele>
        <time>2015-08-29T10:18:08Z</time>
      </trkpt>
      <trkpt lat="42.019930" lon="0.965578">
        <ele>1680.0</ele>
        <time>2015-08-29T10:18:09Z</time>
      </trkpt>
      <trkpt lat="42.019918" lon="0.965663">
        <ele>1678.0</ele>
        <time>2015-08-29T10:18:10Z</time>
      </trkpt>
      <trkpt lat="42.019905" lon="0.965750">
        <ele>1676.0</ele>
        <time>2015-08-29T10:18:11Z</time>
      </trkpt>
      <trkpt lat="42.019882" lon="0.965798">
        <ele>1676.0</ele>
        <time>2015-08-29T10:18:12Z</time>
      </trkpt>
      <trkpt lat="42.019862" lon="0.965853">
        <ele>1675.0</ele>
        <time>2015-08-29T10:18:13Z</time>
      </trkpt>
      <trkpt lat="42.019838" lon="0.965907">
        <ele>1673.0</ele>
        <time>2015-08-29T10:18:14Z</time>
      </trkpt>
      <trkpt lat="42.019813" lon="0.965963">
        <ele>1672.0</ele>
        <time>2015-08-29T10:18:15Z</time>
      </trkpt>
      <trkpt lat="42.019785" lon="0.966032">
        <ele>1670.0</ele>
        <time>2015-08-29T10:18:16Z</time>
      </trkpt>
      <trkpt lat="42.019762" lon="0.966113">
        <ele>1669.0</ele>
        <time>2015-08-29T10:18:17Z</time>
      </trkpt>
      <trkpt lat="42.019745" lon="0.966195">
        <ele>1668.0</ele>
        <time>2015-08-29T10:18:18Z</time>
      </trkpt>
      <trkpt lat="42.019737" lon="0.966275">
        <ele>1667.0</ele>
        <time>2015-08-29T10:18:19Z</time>
      </trkpt>
      <trkpt lat="42.019733" lon="0.966353">
        <ele>1666.0</ele>
        <time>2015-08-29T10:18:20Z</time>
      </trkpt>
      <trkpt lat="42.019733" lon="0.966437">
        <ele>1665.0</ele>
        <time>2015-08-29T10:18:21Z</time>
      </trkpt>
      <trkpt lat="42.019738" lon="0.966540">
        <ele>1664.0</ele>
        <time>2015-08-29T10:18:22Z</time>
      </trkpt>
      <trkpt lat="42.019735" lon="0.966632">
        <ele>1663.0</ele>
        <time>2015-08-29T10:18:23Z</time>
      </trkpt>
      <trkpt lat="42.019732" lon="0.966733">
        <ele>1661.0</ele>
        <time>2015-08-29T10:18:24Z</time>
      </trkpt>
      <trkpt lat="42.019733" lon="0.966845">
        <ele>1659.0</ele>
        <time>2015-08-29T10:18:25Z</time>
      </trkpt>
      <trkpt lat="42.019740" lon="0.966953">
        <ele>1657.0</ele>
        <time>2015-08-29T10:18:26Z</time>
      </trkpt>
      <trkpt lat="42.019750" lon="0.967050">
        <ele>1655.0</ele>
        <time>2015-08-29T10:18:27Z</time>
      </trkpt>
      <trkpt lat="42.019757" lon="0.967145">
        <ele>1654.0</ele>
        <time>2015-08-29T10:18:28Z</time>
      </trkpt>
      <trkpt lat="42.019755" lon="0.967245">
        <ele>1653.0</ele>
        <time>2015-08-29T10:18:29Z</time>
      </trkpt>
      <trkpt lat="42.019763" lon="0.967370">
        <ele>1652.0</ele>
        <time>2015-08-29T10:18:30Z</time>
      </trkpt>
      <trkpt lat="42.019775" lon="0.967492">
        <ele>1651.0</ele>
        <time>2015-08-29T10:18:31Z</time>
      </trkpt>
      <trkpt lat="42.019792" lon="0.967603">
        <ele>1649.0</ele>
        <time>2015-08-29T10:18:32Z</time>
      </trkpt>
      <trkpt lat="42.019795" lon="0.967722">
        <ele>1648.0</ele>
        <time>2015-08-29T10:18:33Z</time>
      </trkpt>
      <trkpt lat="42.019798" lon="0.967828">
        <ele>1647.0</ele>
        <time>2015-08-29T10:18:34Z</time>
      </trkpt>
      <trkpt lat="42.019800" lon="0.967940">
        <ele>1647.0</ele>
        <time>2015-08-29T10:18:35Z</time>
      </trkpt>
      <trkpt lat="42.019807" lon="0.968047">
        <ele>1646.0</ele>
        <time>2015-08-29T10:18:36Z</time>
      </trkpt>
      <trkpt lat="42.019817" lon="0.968147">
        <ele>1645.0</ele>
        <time>2015-08-29T10:18:37Z</time>
      </trkpt>
      <trkpt lat="42.019837" lon="0.968247">
        <ele>1644.0</ele>
        <time>2015-08-29T10:18:38Z</time>
      </trkpt>
      <trkpt lat="42.019865" lon="0.968345">
        <ele>1644.0</ele>
        <time>2015-08-29T10:18:39Z</time>
      </trkpt>
      <trkpt lat="42.019895" lon="0.968447">
        <ele>1642.0</ele>
        <time>2015-08-29T10:18:40Z</time>
      </trkpt>
      <trkpt lat="42.019922" lon="0.968550">
        <ele>1641.0</ele>
        <time>2015-08-29T10:18:41Z</time>
      </trkpt>
      <trkpt lat="42.019937" lon="0.968658">
        <ele>1640.0</ele>
        <time>2015-08-29T10:18:42Z</time>
      </trkpt>
      <trkpt lat="42.019945" lon="0.968772">
        <ele>1638.0</ele>
        <time>2015-08-29T10:18:43Z</time>
      </trkpt>
      <trkpt lat="42.019947" lon="0.968885">
        <ele>1637.0</ele>
        <time>2015-08-29T10:18:44Z</time>
      </trkpt>
      <trkpt lat="42.019965" lon="0.969008">
        <ele>1636.0</ele>
        <time>2015-08-29T10:18:45Z</time>
      </trkpt>
      <trkpt lat="42.019977" lon="0.969100">
        <ele>1636.0</ele>
        <time>2015-08-29T10:18:46Z</time>
      </trkpt>
      <trkpt lat="42.019992" lon="0.969210">
        <ele>1634.0</ele>
        <time>2015-08-29T10:18:47Z</time>
      </trkpt>
      <trkpt lat="42.020005" lon="0.969318">
        <ele>1632.0</ele>
        <time>2015-08-29T10:18:48Z</time>
      </trkpt>
      <trkpt lat="42.020010" lon="0.969417">
        <ele>1632.0</ele>
        <time>2015-08-29T10:18:49Z</time>
      </trkpt>
      <trkpt lat="42.020015" lon="0.969513">
        <ele>1630.0</ele>
        <time>2015-08-29T10:18:50Z</time>
      </trkpt>
      <trkpt lat="42.020032" lon="0.969623">
        <ele>1630.0</ele>
        <time>2015-08-29T10:18:51Z</time>
      </trkpt>
      <trkpt lat="42.020055" lon="0.969735">
        <ele>1629.0</ele>
        <time>2015-08-29T10:18:52Z</time>
      </trkpt>
      <trkpt lat="42.020080" lon="0.969838">
        <ele>1629.0</ele>
        <time>2015-08-29T10:18:53Z</time>
      </trkpt>
      <trkpt lat="42.020092" lon="0.969940">
        <ele>1628.0</ele>
        <time>2015-08-29T10:18:54Z</time>
      </trkpt>
      <trkpt lat="42.020083" lon="0.970017">
        <ele>1628.0</ele>
        <time>2015-08-29T10:18:55Z</time>
      </trkpt>
      <trkpt lat="42.020055" lon="0.970080">
        <ele>1628.0</ele>
        <time>2015-08-29T10:18:56Z</time>
      </trkpt>
      <trkpt lat="42.020032" lon="0.970140">
        <ele>1628.0</ele>
        <time>2015-08-29T10:18:57Z</time>
      </trkpt>
      <trkpt lat="42.020013" lon="0.970208">
        <ele>1628.0</ele>
        <time>2015-08-29T10:18:58Z</time>
      </trkpt>
      <trkpt lat="42.019997" lon="0.970277">
        <ele>1628.0</ele>
        <time>2015-08-29T10:18:59Z</time>
      </trkpt>
      <trkpt lat="42.019978" lon="0.970348">
        <ele>1628.0</ele>
        <time>2015-08-29T10:19:00Z</time>
      </trkpt>
      <trkpt lat="42.019947" lon="0.970377">
        <ele>1631.0</ele>
        <time>2015-08-29T10:19:01Z</time>
      </trkpt>
      <trkpt lat="42.019878" lon="0.970328">
        <ele>1637.0</ele>
        <time>2015-08-29T10:19:03Z</time>
      </trkpt>
      <trkpt lat="42.019842" lon="0.970298">
        <ele>1636.0</ele>
        <time>2015-08-29T10:19:04Z</time>
      </trkpt>
      <trkpt lat="42.019803" lon="0.970232">
        <ele>1639.0</ele>
        <time>2015-08-29T10:19:05Z</time>
      </trkpt>
      <trkpt lat="42.019775" lon="0.970162">
        <ele>1642.0</ele>
        <time>2015-08-29T10:19:06Z</time>
      </trkpt>
      <trkpt lat="42.019753" lon="0.970085">
        <ele>1644.0</ele>
        <time>2015-08-29T10:19:07Z</time>
      </trkpt>
      <trkpt lat="42.019737" lon="0.970008">
        <ele>1646.0</ele>
        <time>2015-08-29T10:19:08Z</time>
      </trkpt>
      <trkpt lat="42.019722" lon="0.969933">
        <ele>1648.0</ele>
        <time>2015-08-29T10:19:09Z</time>
      </trkpt>
      <trkpt lat="42.019720" lon="0.969860">
        <ele>1650.0</ele>
        <time>2015-08-29T10:19:10Z</time>
      </trkpt>
      <trkpt lat="42.019735" lon="0.969780">
        <ele>1652.0</ele>
        <time>2015-08-29T10:19:11Z</time>
      </trkpt>
      <trkpt lat="42.019760" lon="0.969698">
        <ele>1654.0</ele>
        <time>2015-08-29T10:19:12Z</time>
      </trkpt>
      <trkpt lat="42.019792" lon="0.969603">
        <ele>1655.0</ele>
        <time>2015-08-29T10:19:13Z</time>
      </trkpt>
      <trkpt lat="42.019828" lon="0.969488">
        <ele>1657.0</ele>
        <time>2015-08-29T10:19:14Z</time>
      </trkpt>
      <trkpt lat="42.019868" lon="0.969358">
        <ele>1659.0</ele>
        <time>2015-08-29T10:19:15Z</time>
      </trkpt>
      <trkpt lat="42.019920" lon="0.969210">
        <ele>1661.0</ele>
        <time>2015-08-29T10:19:16Z</time>
      </trkpt>
      <trkpt lat="42.019987" lon="0.969070">
        <ele>1664.0</ele>
        <time>2015-08-29T10:19:17Z</time>
      </trkpt>
      <trkpt lat="42.020073" lon="0.968952">
        <ele>1666.0</ele>
        <time>2015-08-29T10:19:18Z</time>
      </trkpt>
      <trkpt lat="42.020157" lon="0.968863">
        <ele>1668.0</ele>
        <time>2015-08-29T10:19:19Z</time>
      </trkpt>
      <trkpt lat="42.020237" lon="0.968782">
        <ele>1670.0</ele>
        <time>2015-08-29T10:19:20Z</time>
      </trkpt>
      <trkpt lat="42.020330" lon="0.968685">
        <ele>1669.0</ele>
        <time>2015-08-29T10:19:21Z</time>
      </trkpt>
      <trkpt lat="42.020448" lon="0.968597">
        <ele>1667.0</ele>
        <time>2015-08-29T10:19:22Z</time>
      </trkpt>
      <trkpt lat="42.020587" lon="0.968548">
        <ele>1665.0</ele>
        <time>2015-08-29T10:19:23Z</time>
      </trkpt>
      <trkpt lat="42.020727" lon="0.968547">
        <ele>1665.0</ele>
        <time>2015-08-29T10:19:24Z</time>
      </trkpt>
      <trkpt lat="42.020852" lon="0.968593">
        <ele>1664.0</ele>
        <time>2015-08-29T10:19:25Z</time>
      </trkpt>
      <trkpt lat="42.020925" lon="0.968682">
        <ele>1664.0</ele>
        <time>2015-08-29T10:19:26Z</time>
      </trkpt>
      <trkpt lat="42.020973" lon="0.968783">
        <ele>1664.0</ele>
        <time>2015-08-29T10:19:27Z</time>
      </trkpt>
      <trkpt lat="42.021007" lon="0.968888">
        <ele>1663.0</ele>
        <time>2015-08-29T10:19:28Z</time>
      </trkpt>
      <trkpt lat="42.021013" lon="0.968988">
        <ele>1664.0</ele>
        <time>2015-08-29T10:19:29Z</time>
      </trkpt>
      <trkpt lat="42.021028" lon="0.969080">
        <ele>1665.0</ele>
        <time>2015-08-29T10:19:30Z</time>
      </trkpt>
      <trkpt lat="42.021050" lon="0.969165">
        <ele>1666.0</ele>
        <time>2015-08-29T10:19:31Z</time>
      </trkpt>
      <trkpt lat="42.021077" lon="0.969238">
        <ele>1668.0</ele>
        <time>2015-08-29T10:19:32Z</time>
      </trkpt>
      <trkpt lat="42.021098" lon="0.969310">
        <ele>1670.0</ele>
        <time>2015-08-29T10:19:33Z</time>
      </trkpt>
      <trkpt lat="42.021107" lon="0.969372">
        <ele>1672.0</ele>
        <time>2015-08-29T10:19:34Z</time>
      </trkpt>
      <trkpt lat="42.021108" lon="0.969437">
        <ele>1673.0</ele>
        <time>2015-08-29T10:19:35Z</time>
      </trkpt>
      <trkpt lat="42.021102" lon="0.969490">
        <ele>1675.0</ele>
        <time>2015-08-29T10:19:36Z</time>
      </trkpt>
      <trkpt lat="42.021092" lon="0.969552">
        <ele>1678.0</ele>
        <time>2015-08-29T10:19:37Z</time>
      </trkpt>
      <trkpt lat="42.021090" lon="0.969633">
        <ele>1678.0</ele>
        <time>2015-08-29T10:19:38Z</time>
      </trkpt>
      <trkpt lat="42.021097" lon="0.969727">
        <ele>1678.0</ele>
        <time>2015-08-29T10:19:39Z</time>
      </trkpt>
      <trkpt lat="42.021098" lon="0.969808">
        <ele>1679.0</ele>
        <time>2015-08-29T10:19:40Z</time>
      </trkpt>
      <trkpt lat="42.021093" lon="0.969878">
        <ele>1680.0</ele>
        <time>2015-08-29T10:19:41Z</time>
      </trkpt>
      <trkpt lat="42.021085" lon="0.969943">
        <ele>1681.0</ele>
        <time>2015-08-29T10:19:42Z</time>
      </trkpt>
      <trkpt lat="42.021070" lon="0.970000">
        <ele>1682.0</ele>
        <time>2015-08-29T10:19:43Z</time>
      </trkpt>
      <trkpt lat="42.021047" lon="0.970057">
        <ele>1683.0</ele>
        <time>2015-08-29T10:19:44Z</time>
      </trkpt>
      <trkpt lat="42.021015" lon="0.970110">
        <ele>1684.0</ele>
        <time>2015-08-29T10:19:45Z</time>
      </trkpt>
      <trkpt lat="42.020982" lon="0.970153">
        <ele>1684.0</ele>
        <time>2015-08-29T10:19:46Z</time>
      </trkpt>
      <trkpt lat="42.020948" lon="0.970183">
        <ele>1684.0</ele>
        <time>2015-08-29T10:19:47Z</time>
      </trkpt>
      <trkpt lat="42.020910" lon="0.970190">
        <ele>1685.0</ele>
        <time>2015-08-29T10:19:48Z</time>
      </trkpt>
      <trkpt lat="42.020870" lon="0.970157">
        <ele>1686.0</ele>
        <time>2015-08-29T10:19:49Z</time>
      </trkpt>
      <trkpt lat="42.020833" lon="0.970105">
        <ele>1688.0</ele>
        <time>2015-08-29T10:19:50Z</time>
      </trkpt>
      <trkpt lat="42.020802" lon="0.970030">
        <ele>1689.0</ele>
        <time>2015-08-29T10:19:51Z</time>
      </trkpt>
      <trkpt lat="42.020768" lon="0.969940">
        <ele>1691.0</ele>
        <time>2015-08-29T10:19:52Z</time>
      </trkpt>
      <trkpt lat="42.020742" lon="0.969840">
        <ele>1693.0</ele>
        <time>2015-08-29T10:19:53Z</time>
      </trkpt>
      <trkpt lat="42.020715" lon="0.969722">
        <ele>1695.0</ele>
        <time>2015-08-29T10:19:54Z</time>
      </trkpt>
      <trkpt lat="42.020710" lon="0.969578">
        <ele>1696.0</ele>
        <time>2015-08-29T10:19:55Z</time>
      </trkpt>
      <trkpt lat="42.020727" lon="0.969440">
        <ele>1696.0</ele>
        <time>2015-08-29T10:19:56Z</time>
      </trkpt>
      <trkpt lat="42.020758" lon="0.969317">
        <ele>1697.0</ele>
        <time>2015-08-29T10:19:57Z</time>
      </trkpt>
      <trkpt lat="42.020808" lon="0.969208">
        <ele>1697.0</ele>
        <time>2015-08-29T10:19:58Z</time>
      </trkpt>
      <trkpt lat="42.020862" lon="0.969098">
        <ele>1698.0</ele>
        <time>2015-08-29T10:19:59Z</time>
      </trkpt>
      <trkpt lat="42.020925" lon="0.968992">
        <ele>1698.0</ele>
        <time>2015-08-29T10:20:00Z</time>
      </trkpt>
      <trkpt lat="42.020993" lon="0.968870">
        <ele>1699.0</ele>
        <time>2015-08-29T10:20:01Z</time>
      </trkpt>
      <trkpt lat="42.021057" lon="0.968757">
        <ele>1700.0</ele>
        <time>2015-08-29T10:20:02Z</time>
      </trkpt>
      <trkpt lat="42.021110" lon="0.968658">
        <ele>1701.0</ele>
        <time>2015-08-29T10:20:03Z</time>
      </trkpt>
      <trkpt lat="42.021157" lon="0.968585">
        <ele>1703.0</ele>
        <time>2015-08-29T10:20:04Z</time>
      </trkpt>
      <trkpt lat="42.021198" lon="0.968527">
        <ele>1704.0</ele>
        <time>2015-08-29T10:20:05Z</time>
      </trkpt>
      <trkpt lat="42.021243" lon="0.968467">
        <ele>1704.0</ele>
        <time>2015-08-29T10:20:06Z</time>
      </trkpt>
      <trkpt lat="42.021290" lon="0.968400">
        <ele>1705.0</ele>
        <time>2015-08-29T10:20:07Z</time>
      </trkpt>
      <trkpt lat="42.021343" lon="0.968323">
        <ele>1706.0</ele>
        <time>2015-08-29T10:20:08Z</time>
      </trkpt>
      <trkpt lat="42.021402" lon="0.968245">
        <ele>1706.0</ele>
        <time>2015-08-29T10:20:09Z</time>
      </trkpt>
      <trkpt lat="42.021452" lon="0.968182">
        <ele>1707.0</ele>
        <time>2015-08-29T10:20:10Z</time>
      </trkpt>
      <trkpt lat="42.021492" lon="0.968132">
        <ele>1710.0</ele>
        <time>2015-08-29T10:20:11Z</time>
      </trkpt>
      <trkpt lat="42.021528" lon="0.968067">
        <ele>1710.0</ele>
        <time>2015-08-29T10:20:12Z</time>
      </trkpt>
      <trkpt lat="42.021553" lon="0.968010">
        <ele>1709.0</ele>
        <time>2015-08-29T10:20:13Z</time>
      </trkpt>
      <trkpt lat="42.021567" lon="0.967955">
        <ele>1710.0</ele>
        <time>2015-08-29T10:20:14Z</time>
      </trkpt>
      <trkpt lat="42.021563" lon="0.967905">
        <ele>1711.0</ele>
        <time>2015-08-29T10:20:15Z</time>
      </trkpt>
      <trkpt lat="42.021560" lon="0.967857">
        <ele>1712.0</ele>
        <time>2015-08-29T10:20:16Z</time>
      </trkpt>
      <trkpt lat="42.021508" lon="0.967857">
        <ele>1713.0</ele>
        <time>2015-08-29T10:20:17Z</time>
      </trkpt>
      <trkpt lat="42.021472" lon="0.967887">
        <ele>1715.0</ele>
        <time>2015-08-29T10:20:18Z</time>
      </trkpt>
      <trkpt lat="42.021445" lon="0.967938">
        <ele>1716.0</ele>
        <time>2015-08-29T10:20:19Z</time>
      </trkpt>
      <trkpt lat="42.021427" lon="0.967993">
        <ele>1718.0</ele>
        <time>2015-08-29T10:20:20Z</time>
      </trkpt>
      <trkpt lat="42.021408" lon="0.968050">
        <ele>1720.0</ele>
        <time>2015-08-29T10:20:21Z</time>
      </trkpt>
      <trkpt lat="42.021385" lon="0.968103">
        <ele>1721.0</ele>
        <time>2015-08-29T10:20:22Z</time>
      </trkpt>
      <trkpt lat="42.021358" lon="0.968160">
        <ele>1723.0</ele>
        <time>2015-08-29T10:20:23Z</time>
      </trkpt>
      <trkpt lat="42.021332" lon="0.968220">
        <ele>1725.0</ele>
        <time>2015-08-29T10:20:24Z</time>
      </trkpt>
      <trkpt lat="42.021310" lon="0.968278">
        <ele>1727.0</ele>
        <time>2015-08-29T10:20:25Z</time>
      </trkpt>
      <trkpt lat="42.021293" lon="0.968323">
        <ele>1728.0</ele>
        <time>2015-08-29T10:20:26Z</time>
      </trkpt>
      <trkpt lat="42.021282" lon="0.968372">
        <ele>1731.0</ele>
        <time>2015-08-29T10:20:28Z</time>
      </trkpt>
      <trkpt lat="42.021277" lon="0.968467">
        <ele>1730.0</ele>
        <time>2015-08-29T10:20:29Z</time>
      </trkpt>
      <trkpt lat="42.021275" lon="0.968568">
        <ele>1730.0</ele>
        <time>2015-08-29T10:20:30Z</time>
      </trkpt>
      <trkpt lat="42.021282" lon="0.968662">
        <ele>1730.0</ele>
        <time>2015-08-29T10:20:31Z</time>
      </trkpt>
      <trkpt lat="42.021298" lon="0.968753">
        <ele>1729.0</ele>
        <time>2015-08-29T10:20:32Z</time>
      </trkpt>
      <trkpt lat="42.021320" lon="0.968842">
        <ele>1729.0</ele>
        <time>2015-08-29T10:20:33Z</time>
      </trkpt>
      <trkpt lat="42.021348" lon="0.968943">
        <ele>1729.0</ele>
        <time>2015-08-29T10:20:34Z</time>
      </trkpt>
      <trkpt lat="42.021350" lon="0.969028">
        <ele>1732.0</ele>
        <time>2015-08-29T10:20:35Z</time>
      </trkpt>
      <trkpt lat="42.021345" lon="0.969128">
        <ele>1732.0</ele>
        <time>2015-08-29T10:20:36Z</time>
      </trkpt>
      <trkpt lat="42.021340" lon="0.969240">
        <ele>1731.0</ele>
        <time>2015-08-29T10:20:37Z</time>
      </trkpt>
      <trkpt lat="42.021328" lon="0.969337">
        <ele>1730.0</ele>
        <time>2015-08-29T10:20:38Z</time>
      </trkpt>
      <trkpt lat="42.021317" lon="0.969408">
        <ele>1729.0</ele>
        <time>2015-08-29T10:20:39Z</time>
      </trkpt>
      <trkpt lat="42.021303" lon="0.969460">
        <ele>1729.0</ele>
        <time>2015-08-29T10:20:40Z</time>
      </trkpt>
      <trkpt lat="42.021273" lon="0.969487">
        <ele>1728.0</ele>
        <time>2015-08-29T10:20:41Z</time>
      </trkpt>
      <trkpt lat="42.021233" lon="0.969510">
        <ele>1728.0</ele>
        <time>2015-08-29T10:20:42Z</time>
      </trkpt>
      <trkpt lat="42.021192" lon="0.969538">
        <ele>1727.0</ele>
        <time>2015-08-29T10:20:43Z</time>
      </trkpt>
      <trkpt lat="42.021153" lon="0.969557">
        <ele>1726.0</ele>
        <time>2015-08-29T10:20:44Z</time>
      </trkpt>
      <trkpt lat="42.021095" lon="0.969590">
        <ele>1724.0</ele>
        <time>2015-08-29T10:20:46Z</time>
      </trkpt>
      <trkpt lat="42.021050" lon="0.969608">
        <ele>1724.0</ele>
        <time>2015-08-29T10:20:47Z</time>
      </trkpt>
      <trkpt lat="42.021005" lon="0.969643">
        <ele>1723.0</ele>
        <time>2015-08-29T10:20:48Z</time>
      </trkpt>
      <trkpt lat="42.020967" lon="0.969687">
        <ele>1722.0</ele>
        <time>2015-08-29T10:20:49Z</time>
      </trkpt>
      <trkpt lat="42.020938" lon="0.969727">
        <ele>1721.0</ele>
        <time>2015-08-29T10:20:50Z</time>
      </trkpt>
      <trkpt lat="42.020903" lon="0.969752">
        <ele>1720.0</ele>
        <time>2015-08-29T10:20:51Z</time>
      </trkpt>
      <trkpt lat="42.020857" lon="0.969758">
        <ele>1719.0</ele>
        <time>2015-08-29T10:20:52Z</time>
      </trkpt>
      <trkpt lat="42.020808" lon="0.969813">
        <ele>1716.0</ele>
        <time>2015-08-29T10:20:53Z</time>
      </trkpt>
      <trkpt lat="42.020767" lon="0.969908">
        <ele>1714.0</ele>
        <time>2015-08-29T10:20:54Z</time>
      </trkpt>
      <trkpt lat="42.020748" lon="0.970028">
        <ele>1711.0</ele>
        <time>2015-08-29T10:20:55Z</time>
      </trkpt>
      <trkpt lat="42.020743" lon="0.970128">
        <ele>1711.0</ele>
        <time>2015-08-29T10:20:56Z</time>
      </trkpt>
      <trkpt lat="42.020738" lon="0.970200">
        <ele>1710.0</ele>
        <time>2015-08-29T10:20:57Z</time>
      </trkpt>
      <trkpt lat="42.020733" lon="0.970248">
        <ele>1709.0</ele>
        <time>2015-08-29T10:20:58Z</time>
      </trkpt>
      <trkpt lat="42.020697" lon="0.970358">
        <ele>1707.0</ele>
        <time>2015-08-29T10:21:00Z</time>
      </trkpt>
      <trkpt lat="42.020680" lon="0.970462">
        <ele>1705.0</ele>
        <time>2015-08-29T10:21:01Z</time>
      </trkpt>
      <trkpt lat="42.020667" lon="0.970573">
        <ele>1704.0</ele>
        <time>2015-08-29T10:21:02Z</time>
      </trkpt>
      <trkpt lat="42.020660" lon="0.970678">
        <ele>1703.0</ele>
        <time>2015-08-29T10:21:03Z</time>
      </trkpt>
      <trkpt lat="42.020648" lon="0.970773">
        <ele>1702.0</ele>
        <time>2015-08-29T10:21:04Z</time>
      </trkpt>
      <trkpt lat="42.020640" lon="0.970887">
        <ele>1699.0</ele>
        <time>2015-08-29T10:21:05Z</time>
      </trkpt>
      <trkpt lat="42.020638" lon="0.971008">
        <ele>1696.0</ele>
        <time>2015-08-29T10:21:06Z</time>
      </trkpt>
      <trkpt lat="42.020643" lon="0.971122">
        <ele>1693.0</ele>
        <time>2015-08-29T10:21:07Z</time>
      </trkpt>
      <trkpt lat="42.020653" lon="0.971225">
        <ele>1691.0</ele>
        <time>2015-08-29T10:21:08Z</time>
      </trkpt>
      <trkpt lat="42.020657" lon="0.971303">
        <ele>1690.0</ele>
        <time>2015-08-29T10:21:09Z</time>
      </trkpt>
      <trkpt lat="42.020663" lon="0.971390">
        <ele>1686.0</ele>
        <time>2015-08-29T10:21:10Z</time>
      </trkpt>
      <trkpt lat="42.020655" lon="0.971482">
        <ele>1684.0</ele>
        <time>2015-08-29T10:21:11Z</time>
      </trkpt>
      <trkpt lat="42.020648" lon="0.971592">
        <ele>1681.0</ele>
        <time>2015-08-29T10:21:12Z</time>
      </trkpt>
      <trkpt lat="42.020640" lon="0.971703">
        <ele>1679.0</ele>
        <time>2015-08-29T10:21:13Z</time>
      </trkpt>
      <trkpt lat="42.020633" lon="0.971817">
        <ele>1676.0</ele>
        <time>2015-08-29T10:21:14Z</time>
      </trkpt>
      <trkpt lat="42.020623" lon="0.971902">
        <ele>1675.0</ele>
        <time>2015-08-29T10:21:15Z</time>
      </trkpt>
      <trkpt lat="42.020615" lon="0.971983">
        <ele>1674.0</ele>
        <time>2015-08-29T10:21:16Z</time>
      </trkpt>
      <trkpt lat="42.020608" lon="0.972065">
        <ele>1672.0</ele>
        <time>2015-08-29T10:21:17Z</time>
      </trkpt>
      <trkpt lat="42.020603" lon="0.972158">
        <ele>1671.0</ele>
        <time>2015-08-29T10:21:18Z</time>
      </trkpt>
      <trkpt lat="42.020603" lon="0.972255">
        <ele>1669.0</ele>
        <time>2015-08-29T10:21:19Z</time>
      </trkpt>
      <trkpt lat="42.020607" lon="0.972353">
        <ele>1667.0</ele>
        <time>2015-08-29T10:21:20Z</time>
      </trkpt>
      <trkpt lat="42.020612" lon="0.972453">
        <ele>1665.0</ele>
        <time>2015-08-29T10:21:21Z</time>
      </trkpt>
      <trkpt lat="42.020612" lon="0.972548">
        <ele>1664.0</ele>
        <time>2015-08-29T10:21:22Z</time>
      </trkpt>
      <trkpt lat="42.020608" lon="0.972650">
        <ele>1662.0</ele>
        <time>2015-08-29T10:21:23Z</time>
      </trkpt>
      <trkpt lat="42.020610" lon="0.972768">
        <ele>1659.0</ele>
        <time>2015-08-29T10:21:24Z</time>
      </trkpt>
      <trkpt lat="42.020608" lon="0.972870">
        <ele>1658.0</ele>
        <time>2015-08-29T10:21:25Z</time>
      </trkpt>
      <trkpt lat="42.020603" lon="0.972957">
        <ele>1658.0</ele>
        <time>2015-08-29T10:21:26Z</time>
      </trkpt>
      <trkpt lat="42.020610" lon="0.973060">
        <ele>1655.0</ele>
        <time>2015-08-29T10:21:27Z</time>
      </trkpt>
      <trkpt lat="42.020627" lon="0.973173">
        <ele>1651.0</ele>
        <time>2015-08-29T10:21:28Z</time>
      </trkpt>
      <trkpt lat="42.020642" lon="0.973283">
        <ele>1649.0</ele>
        <time>2015-08-29T10:21:29Z</time>
      </trkpt>
      <trkpt lat="42.020663" lon="0.973387">
        <ele>1647.0</ele>
        <time>2015-08-29T10:21:30Z</time>
      </trkpt>
      <trkpt lat="42.020682" lon="0.973482">
        <ele>1645.0</ele>
        <time>2015-08-29T10:21:31Z</time>
      </trkpt>
      <trkpt lat="42.020697" lon="0.973570">
        <ele>1643.0</ele>
        <time>2015-08-29T10:21:32Z</time>
      </trkpt>
      <trkpt lat="42.020707" lon="0.973652">
        <ele>1642.0</ele>
        <time>2015-08-29T10:21:33Z</time>
      </trkpt>
      <trkpt lat="42.020717" lon="0.973735">
        <ele>1641.0</ele>
        <time>2015-08-29T10:21:34Z</time>
      </trkpt>
      <trkpt lat="42.020720" lon="0.973815">
        <ele>1639.0</ele>
        <time>2015-08-29T10:21:35Z</time>
      </trkpt>
      <trkpt lat="42.020718" lon="0.973887">
        <ele>1639.0</ele>
        <time>2015-08-29T10:21:36Z</time>
      </trkpt>
      <trkpt lat="42.020718" lon="0.973972">
        <ele>1637.0</ele>
        <time>2015-08-29T10:21:37Z</time>
      </trkpt>
      <trkpt lat="42.020730" lon="0.974072">
        <ele>1634.0</ele>
        <time>2015-08-29T10:21:38Z</time>
      </trkpt>
      <trkpt lat="42.020747" lon="0.974172">
        <ele>1631.0</ele>
        <time>2015-08-29T10:21:39Z</time>
      </trkpt>
      <trkpt lat="42.020767" lon="0.974268">
        <ele>1629.0</ele>
        <time>2015-08-29T10:21:40Z</time>
      </trkpt>
      <trkpt lat="42.020787" lon="0.974350">
        <ele>1628.0</ele>
        <time>2015-08-29T10:21:41Z</time>
      </trkpt>
      <trkpt lat="42.020800" lon="0.974405">
        <ele>1627.0</ele>
        <time>2015-08-29T10:21:42Z</time>
      </trkpt>
      <trkpt lat="42.020793" lon="0.974483">
        <ele>1624.0</ele>
        <time>2015-08-29T10:21:44Z</time>
      </trkpt>
      <trkpt lat="42.020775" lon="0.974533">
        <ele>1623.0</ele>
        <time>2015-08-29T10:21:45Z</time>
      </trkpt>
      <trkpt lat="42.020752" lon="0.974602">
        <ele>1623.0</ele>
        <time>2015-08-29T10:21:46Z</time>
      </trkpt>
      <trkpt lat="42.020730" lon="0.974682">
        <ele>1622.0</ele>
        <time>2015-08-29T10:21:47Z</time>
      </trkpt>
      <trkpt lat="42.020712" lon="0.974762">
        <ele>1621.0</ele>
        <time>2015-08-29T10:21:48Z</time>
      </trkpt>
      <trkpt lat="42.020698" lon="0.974842">
        <ele>1620.0</ele>
        <time>2015-08-29T10:21:49Z</time>
      </trkpt>
      <trkpt lat="42.020690" lon="0.974922">
        <ele>1619.0</ele>
        <time>2015-08-29T10:21:50Z</time>
      </trkpt>
      <trkpt lat="42.020683" lon="0.975002">
        <ele>1619.0</ele>
        <time>2015-08-29T10:21:51Z</time>
      </trkpt>
      <trkpt lat="42.020677" lon="0.975083">
        <ele>1618.0</ele>
        <time>2015-08-29T10:21:52Z</time>
      </trkpt>
      <trkpt lat="42.020670" lon="0.975155">
        <ele>1617.0</ele>
        <time>2015-08-29T10:21:53Z</time>
      </trkpt>
      <trkpt lat="42.020677" lon="0.975252">
        <ele>1616.0</ele>
        <time>2015-08-29T10:21:54Z</time>
      </trkpt>
      <trkpt lat="42.020688" lon="0.975357">
        <ele>1614.0</ele>
        <time>2015-08-29T10:21:55Z</time>
      </trkpt>
      <trkpt lat="42.020698" lon="0.975452">
        <ele>1613.0</ele>
        <time>2015-08-29T10:21:56Z</time>
      </trkpt>
      <trkpt lat="42.020702" lon="0.975538">
        <ele>1613.0</ele>
        <time>2015-08-29T10:21:57Z</time>
      </trkpt>
      <trkpt lat="42.020700" lon="0.975617">
        <ele>1613.0</ele>
        <time>2015-08-29T10:21:58Z</time>
      </trkpt>
      <trkpt lat="42.020698" lon="0.975698">
        <ele>1614.0</ele>
        <time>2015-08-29T10:21:59Z</time>
      </trkpt>
      <trkpt lat="42.020697" lon="0.975780">
        <ele>1614.0</ele>
        <time>2015-08-29T10:22:00Z</time>
      </trkpt>
      <trkpt lat="42.020692" lon="0.975858">
        <ele>1613.0</ele>
        <time>2015-08-29T10:22:01Z</time>
      </trkpt>
      <trkpt lat="42.020683" lon="0.975935">
        <ele>1613.0</ele>
        <time>2015-08-29T10:22:02Z</time>
      </trkpt>
      <trkpt lat="42.020668" lon="0.976022">
        <ele>1612.0</ele>
        <time>2015-08-29T10:22:03Z</time>
      </trkpt>
      <trkpt lat="42.020650" lon="0.976107">
        <ele>1612.0</ele>
        <time>2015-08-29T10:22:04Z</time>
      </trkpt>
      <trkpt lat="42.020628" lon="0.976190">
        <ele>1612.0</ele>
        <time>2015-08-29T10:22:05Z</time>
      </trkpt>
      <trkpt lat="42.020605" lon="0.976265">
        <ele>1612.0</ele>
        <time>2015-08-29T10:22:06Z</time>
      </trkpt>
      <trkpt lat="42.020587" lon="0.976343">
        <ele>1612.0</ele>
        <time>2015-08-29T10:22:07Z</time>
      </trkpt>
      <trkpt lat="42.020577" lon="0.976430">
        <ele>1612.0</ele>
        <time>2015-08-29T10:22:08Z</time>
      </trkpt>
      <trkpt lat="42.020565" lon="0.976508">
        <ele>1611.0</ele>
        <time>2015-08-29T10:22:09Z</time>
      </trkpt>
      <trkpt lat="42.020555" lon="0.976588">
        <ele>1612.0</ele>
        <time>2015-08-29T10:22:10Z</time>
      </trkpt>
      <trkpt lat="42.020568" lon="0.976705">
        <ele>1611.0</ele>
        <time>2015-08-29T10:22:11Z</time>
      </trkpt>
      <trkpt lat="42.020590" lon="0.976817">
        <ele>1610.0</ele>
        <time>2015-08-29T10:22:12Z</time>
      </trkpt>
      <trkpt lat="42.020605" lon="0.976900">
        <ele>1610.0</ele>
        <time>2015-08-29T10:22:13Z</time>
      </trkpt>
      <trkpt lat="42.020620" lon="0.976985">
        <ele>1609.0</ele>
        <time>2015-08-29T10:22:14Z</time>
      </trkpt>
      <trkpt lat="42.020625" lon="0.977090">
        <ele>1608.0</ele>
        <time>2015-08-29T10:22:15Z</time>
      </trkpt>
      <trkpt lat="42.020630" lon="0.977198">
        <ele>1608.0</ele>
        <time>2015-08-29T10:22:16Z</time>
      </trkpt>
      <trkpt lat="42.020637" lon="0.977307">
        <ele>1607.0</ele>
        <time>2015-08-29T10:22:17Z</time>
      </trkpt>
      <trkpt lat="42.020652" lon="0.977418">
        <ele>1607.0</ele>
        <time>2015-08-29T10:22:18Z</time>
      </trkpt>
      <trkpt lat="42.020668" lon="0.977517">
        <ele>1607.0</ele>
        <time>2015-08-29T10:22:19Z</time>
      </trkpt>
      <trkpt lat="42.020693" lon="0.977618">
        <ele>1606.0</ele>
        <time>2015-08-29T10:22:20Z</time>
      </trkpt>
      <trkpt lat="42.020713" lon="0.977715">
        <ele>1606.0</ele>
        <time>2015-08-29T10:22:21Z</time>
      </trkpt>
      <trkpt lat="42.020733" lon="0.977828">
        <ele>1604.0</ele>
        <time>2015-08-29T10:22:22Z</time>
      </trkpt>
      <trkpt lat="42.020752" lon="0.977945">
        <ele>1604.0</ele>
        <time>2015-08-29T10:22:23Z</time>
      </trkpt>
      <trkpt lat="42.020775" lon="0.978065">
        <ele>1603.0</ele>
        <time>2015-08-29T10:22:24Z</time>
      </trkpt>
      <trkpt lat="42.020800" lon="0.978182">
        <ele>1603.0</ele>
        <time>2015-08-29T10:22:25Z</time>
      </trkpt>
      <trkpt lat="42.020817" lon="0.978288">
        <ele>1604.0</ele>
        <time>2015-08-29T10:22:26Z</time>
      </trkpt>
      <trkpt lat="42.020825" lon="0.978392">
        <ele>1607.0</ele>
        <time>2015-08-29T10:22:27Z</time>
      </trkpt>
      <trkpt lat="42.020845" lon="0.978513">
        <ele>1606.0</ele>
        <time>2015-08-29T10:22:28Z</time>
      </trkpt>
      <trkpt lat="42.020870" lon="0.978645">
        <ele>1606.0</ele>
        <time>2015-08-29T10:22:29Z</time>
      </trkpt>
      <trkpt lat="42.020895" lon="0.978773">
        <ele>1605.0</ele>
        <time>2015-08-29T10:22:30Z</time>
      </trkpt>
      <trkpt lat="42.020915" lon="0.978885">
        <ele>1605.0</ele>
        <time>2015-08-29T10:22:31Z</time>
      </trkpt>
      <trkpt lat="42.020932" lon="0.978972">
        <ele>1606.0</ele>
        <time>2015-08-29T10:22:32Z</time>
      </trkpt>
      <trkpt lat="42.020945" lon="0.979040">
        <ele>1607.0</ele>
        <time>2015-08-29T10:22:33Z</time>
      </trkpt>
      <trkpt lat="42.020958" lon="0.979113">
        <ele>1609.0</ele>
        <time>2015-08-29T10:22:34Z</time>
      </trkpt>
      <trkpt lat="42.020972" lon="0.979188">
        <ele>1610.0</ele>
        <time>2015-08-29T10:22:35Z</time>
      </trkpt>
      <trkpt lat="42.020977" lon="0.979257">
        <ele>1612.0</ele>
        <time>2015-08-29T10:22:36Z</time>
      </trkpt>
      <trkpt lat="42.020983" lon="0.979330">
        <ele>1614.0</ele>
        <time>2015-08-29T10:22:37Z</time>
      </trkpt>
      <trkpt lat="42.020997" lon="0.979415">
        <ele>1616.0</ele>
        <time>2015-08-29T10:22:38Z</time>
      </trkpt>
      <trkpt lat="42.021008" lon="0.979498">
        <ele>1617.0</ele>
        <time>2015-08-29T10:22:39Z</time>
      </trkpt>
      <trkpt lat="42.021022" lon="0.979577">
        <ele>1620.0</ele>
        <time>2015-08-29T10:22:40Z</time>
      </trkpt>
      <trkpt lat="42.021045" lon="0.979652">
        <ele>1620.0</ele>
        <time>2015-08-29T10:22:41Z</time>
      </trkpt>
      <trkpt lat="42.021060" lon="0.979707">
        <ele>1622.0</ele>
        <time>2015-08-29T10:22:42Z</time>
      </trkpt>
      <trkpt lat="42.021063" lon="0.979760">
        <ele>1625.0</ele>
        <time>2015-08-29T10:22:43Z</time>
      </trkpt>
      <trkpt lat="42.021063" lon="0.979822">
        <ele>1628.0</ele>
        <time>2015-08-29T10:22:44Z</time>
      </trkpt>
      <trkpt lat="42.021042" lon="0.979872">
        <ele>1632.0</ele>
        <time>2015-08-29T10:22:45Z</time>
      </trkpt>
      <trkpt lat="42.021013" lon="0.979902">
        <ele>1636.0</ele>
        <time>2015-08-29T10:22:46Z</time>
      </trkpt>
      <trkpt lat="42.020997" lon="0.979850">
        <ele>1649.0</ele>
        <time>2015-08-29T10:22:50Z</time>
      </trkpt>
      <trkpt lat="42.020990" lon="0.979780">
        <ele>1655.0</ele>
        <time>2015-08-29T10:22:52Z</time>
      </trkpt>
      <trkpt lat="42.020948" lon="0.979715">
        <ele>1662.0</ele>
        <time>2015-08-29T10:22:54Z</time>
      </trkpt>
      <trkpt lat="42.020932" lon="0.979667">
        <ele>1664.0</ele>
        <time>2015-08-29T10:22:55Z</time>
      </trkpt>
      <trkpt lat="42.020907" lon="0.979603">
        <ele>1667.0</ele>
        <time>2015-08-29T10:22:56Z</time>
      </trkpt>
      <trkpt lat="42.020885" lon="0.979523">
        <ele>1671.0</ele>
        <time>2015-08-29T10:22:57Z</time>
      </trkpt>
      <trkpt lat="42.020882" lon="0.979413">
        <ele>1671.0</ele>
        <time>2015-08-29T10:22:58Z</time>
      </trkpt>
      <trkpt lat="42.020895" lon="0.979293">
        <ele>1673.0</ele>
        <time>2015-08-29T10:22:59Z</time>
      </trkpt>
      <trkpt lat="42.020922" lon="0.979172">
        <ele>1678.0</ele>
        <time>2015-08-29T10:23:00Z</time>
      </trkpt>
      <trkpt lat="42.020957" lon="0.979043">
        <ele>1682.0</ele>
        <time>2015-08-29T10:23:01Z</time>
      </trkpt>
      <trkpt lat="42.021030" lon="0.978903">
        <ele>1684.0</ele>
        <time>2015-08-29T10:23:02Z</time>
      </trkpt>
      <trkpt lat="42.021135" lon="0.978815">
        <ele>1685.0</ele>
        <time>2015-08-29T10:23:03Z</time>
      </trkpt>
      <trkpt lat="42.021255" lon="0.978768">
        <ele>1687.0</ele>
        <time>2015-08-29T10:23:04Z</time>
      </trkpt>
      <trkpt lat="42.021400" lon="0.978757">
        <ele>1689.0</ele>
        <time>2015-08-29T10:23:05Z</time>
      </trkpt>
      <trkpt lat="42.021515" lon="0.978837">
        <ele>1692.0</ele>
        <time>2015-08-29T10:23:06Z</time>
      </trkpt>
      <trkpt lat="42.021593" lon="0.978955">
        <ele>1695.0</ele>
        <time>2015-08-29T10:23:07Z</time>
      </trkpt>
      <trkpt lat="42.021628" lon="0.979080">
        <ele>1698.0</ele>
        <time>2015-08-29T10:23:08Z</time>
      </trkpt>
      <trkpt lat="42.021633" lon="0.979193">
        <ele>1701.0</ele>
        <time>2015-08-29T10:23:09Z</time>
      </trkpt>
      <trkpt lat="42.021625" lon="0.979283">
        <ele>1704.0</ele>
        <time>2015-08-29T10:23:10Z</time>
      </trkpt>
      <trkpt lat="42.021610" lon="0.979367">
        <ele>1707.0</ele>
        <time>2015-08-29T10:23:11Z</time>
      </trkpt>
      <trkpt lat="42.021590" lon="0.979418">
        <ele>1710.0</ele>
        <time>2015-08-29T10:23:12Z</time>
      </trkpt>
      <trkpt lat="42.021552" lon="0.979448">
        <ele>1713.0</ele>
        <time>2015-08-29T10:23:14Z</time>
      </trkpt>
      <trkpt lat="42.021543" lon="0.979507">
        <ele>1719.0</ele>
        <time>2015-08-29T10:23:16Z</time>
      </trkpt>
      <trkpt lat="42.021507" lon="0.979542">
        <ele>1725.0</ele>
        <time>2015-08-29T10:23:18Z</time>
      </trkpt>
      <trkpt lat="42.021465" lon="0.979540">
        <ele>1727.0</ele>
        <time>2015-08-29T10:23:19Z</time>
      </trkpt>
      <trkpt lat="42.021400" lon="0.979490">
        <ele>1732.0</ele>
        <time>2015-08-29T10:23:21Z</time>
      </trkpt>
      <trkpt lat="42.021375" lon="0.979452">
        <ele>1735.0</ele>
        <time>2015-08-29T10:23:22Z</time>
      </trkpt>
      <trkpt lat="42.021370" lon="0.979398">
        <ele>1738.0</ele>
        <time>2015-08-29T10:23:23Z</time>
      </trkpt>
      <trkpt lat="42.021383" lon="0.979330">
        <ele>1741.0</ele>
        <time>2015-08-29T10:23:24Z</time>
      </trkpt>
      <trkpt lat="42.021415" lon="0.979273">
        <ele>1744.0</ele>
        <time>2015-08-29T10:23:25Z</time>
      </trkpt>
      <trkpt lat="42.021460" lon="0.979218">
        <ele>1747.0</ele>
        <time>2015-08-29T10:23:26Z</time>
      </trkpt>
      <trkpt lat="42.021525" lon="0.979142">
        <ele>1749.0</ele>
        <time>2015-08-29T10:23:27Z</time>
      </trkpt>
      <trkpt lat="42.021598" lon="0.979052">
        <ele>1752.0</ele>
        <time>2015-08-29T10:23:28Z</time>
      </trkpt>
      <trkpt lat="42.021673" lon="0.978962">
        <ele>1755.0</ele>
        <time>2015-08-29T10:23:29Z</time>
      </trkpt>
      <trkpt lat="42.021767" lon="0.978885">
        <ele>1757.0</ele>
        <time>2015-08-29T10:23:30Z</time>
      </trkpt>
      <trkpt lat="42.021875" lon="0.978825">
        <ele>1760.0</ele>
        <time>2015-08-29T10:23:31Z</time>
      </trkpt>
      <trkpt lat="42.021990" lon="0.978812">
        <ele>1764.0</ele>
        <time>2015-08-29T10:23:32Z</time>
      </trkpt>
      <trkpt lat="42.022100" lon="0.978832">
        <ele>1769.0</ele>
        <time>2015-08-29T10:23:33Z</time>
      </trkpt>
      <trkpt lat="42.022187" lon="0.978908">
        <ele>1773.0</ele>
        <time>2015-08-29T10:23:34Z</time>
      </trkpt>
      <trkpt lat="42.022263" lon="0.979012">
        <ele>1777.0</ele>
        <time>2015-08-29T10:23:35Z</time>
      </trkpt>
      <trkpt lat="42.022322" lon="0.979122">
        <ele>1780.0</ele>
        <time>2015-08-29T10:23:36Z</time>
      </trkpt>
      <trkpt lat="42.022375" lon="0.979227">
        <ele>1782.0</ele>
        <time>2015-08-29T10:23:37Z</time>
      </trkpt>
      <trkpt lat="42.022417" lon="0.979320">
        <ele>1785.0</ele>
        <time>2015-08-29T10:23:38Z</time>
      </trkpt>
      <trkpt lat="42.022440" lon="0.979403">
        <ele>1789.0</ele>
        <time>2015-08-29T10:23:39Z</time>
      </trkpt>
      <trkpt lat="42.022458" lon="0.979480">
        <ele>1789.0</ele>
        <time>2015-08-29T10:23:40Z</time>
      </trkpt>
      <trkpt lat="42.022465" lon="0.979562">
        <ele>1792.0</ele>
        <time>2015-08-29T10:23:41Z</time>
      </trkpt>
      <trkpt lat="42.022472" lon="0.979638">
        <ele>1795.0</ele>
        <time>2015-08-29T10:23:42Z</time>
      </trkpt>
      <trkpt lat="42.022473" lon="0.979717">
        <ele>1798.0</ele>
        <time>2015-08-29T10:23:43Z</time>
      </trkpt>
      <trkpt lat="42.022470" lon="0.979797">
        <ele>1801.0</ele>
        <time>2015-08-29T10:23:44Z</time>
      </trkpt>
      <trkpt lat="42.022463" lon="0.979863">
        <ele>1804.0</ele>
        <time>2015-08-29T10:23:45Z</time>
      </trkpt>
      <trkpt lat="42.022453" lon="0.979922">
        <ele>1807.0</ele>
        <time>2015-08-29T10:23:46Z</time>
      </trkpt>
      <trkpt lat="42.022440" lon="0.979968">
        <ele>1810.0</ele>
        <time>2015-08-29T10:23:47Z</time>
      </trkpt>
      <trkpt lat="42.022415" lon="0.980015">
        <ele>1815.0</ele>
        <time>2015-08-29T10:23:49Z</time>
      </trkpt>
      <trkpt lat="42.022362" lon="0.980063">
        <ele>1824.0</ele>
        <time>2015-08-29T10:23:51Z</time>
      </trkpt>
      <trkpt lat="42.022323" lon="0.980098">
        <ele>1828.0</ele>
        <time>2015-08-29T10:23:52Z</time>
      </trkpt>
      <trkpt lat="42.022295" lon="0.980135">
        <ele>1831.0</ele>
        <time>2015-08-29T10:23:53Z</time>
      </trkpt>
      <trkpt lat="42.022263" lon="0.980202">
        <ele>1838.0</ele>
        <time>2015-08-29T10:23:55Z</time>
      </trkpt>
      <trkpt lat="42.022237" lon="0.980293">
        <ele>1843.0</ele>
        <time>2015-08-29T10:23:57Z</time>
      </trkpt>
      <trkpt lat="42.022212" lon="0.980337">
        <ele>1845.0</ele>
        <time>2015-08-29T10:23:58Z</time>
      </trkpt>
      <trkpt lat="42.022190" lon="0.980382">
        <ele>1848.0</ele>
        <time>2015-08-29T10:23:59Z</time>
      </trkpt>
      <trkpt lat="42.022152" lon="0.980370">
        <ele>1854.0</ele>
        <time>2015-08-29T10:24:02Z</time>
      </trkpt>
      <trkpt lat="42.022095" lon="0.980302">
        <ele>1859.0</ele>
        <time>2015-08-29T10:24:04Z</time>
      </trkpt>
      <trkpt lat="42.022080" lon="0.980235">
        <ele>1860.0</ele>
        <time>2015-08-29T10:24:05Z</time>
      </trkpt>
      <trkpt lat="42.022083" lon="0.980147">
        <ele>1862.0</ele>
        <time>2015-08-29T10:24:06Z</time>
      </trkpt>
      <trkpt lat="42.022122" lon="0.980040">
        <ele>1863.0</ele>
        <time>2015-08-29T10:24:07Z</time>
      </trkpt>
      <trkpt lat="42.022182" lon="0.979952">
        <ele>1865.0</ele>
        <time>2015-08-29T10:24:08Z</time>
      </trkpt>
      <trkpt lat="42.022273" lon="0.979852">
        <ele>1867.0</ele>
        <time>2015-08-29T10:24:09Z</time>
      </trkpt>
      <trkpt lat="42.022378" lon="0.979765">
        <ele>1867.0</ele>
        <time>2015-08-29T10:24:10Z</time>
      </trkpt>
      <trkpt lat="42.022493" lon="0.979708">
        <ele>1867.0</ele>
        <time>2015-08-29T10:24:11Z</time>
      </trkpt>
      <trkpt lat="42.022620" lon="0.979685">
        <ele>1867.0</ele>
        <time>2015-08-29T10:24:12Z</time>
      </trkpt>
      <trkpt lat="42.022750" lon="0.979697">
        <ele>1866.0</ele>
        <time>2015-08-29T10:24:13Z</time>
      </trkpt>
      <trkpt lat="42.022880" lon="0.979728">
        <ele>1866.0</ele>
        <time>2015-08-29T10:24:14Z</time>
      </trkpt>
      <trkpt lat="42.023007" lon="0.979780">
        <ele>1868.0</ele>
        <time>2015-08-29T10:24:15Z</time>
      </trkpt>
      <trkpt lat="42.023127" lon="0.979848">
        <ele>1870.0</ele>
        <time>2015-08-29T10:24:16Z</time>
      </trkpt>
      <trkpt lat="42.023238" lon="0.979930">
        <ele>1871.0</ele>
        <time>2015-08-29T10:24:17Z</time>
      </trkpt>
      <trkpt lat="42.023333" lon="0.980020">
        <ele>1872.0</ele>
        <time>2015-08-29T10:24:18Z</time>
      </trkpt>
      <trkpt lat="42.023392" lon="0.980125">
        <ele>1874.0</ele>
        <time>2015-08-29T10:24:19Z</time>
      </trkpt>
      <trkpt lat="42.023457" lon="0.980220">
        <ele>1876.0</ele>
        <time>2015-08-29T10:24:20Z</time>
      </trkpt>
      <trkpt lat="42.023527" lon="0.980310">
        <ele>1878.0</ele>
        <time>2015-08-29T10:24:21Z</time>
      </trkpt>
      <trkpt lat="42.023603" lon="0.980387">
        <ele>1880.0</ele>
        <time>2015-08-29T10:24:22Z</time>
      </trkpt>
      <trkpt lat="42.023682" lon="0.980463">
        <ele>1882.0</ele>
        <time>2015-08-29T10:24:23Z</time>
      </trkpt>
      <trkpt lat="42.023758" lon="0.980553">
        <ele>1883.0</ele>
        <time>2015-08-29T10:24:24Z</time>
      </trkpt>
      <trkpt lat="42.023813" lon="0.980658">
        <ele>1886.0</ele>
        <time>2015-08-29T10:24:25Z</time>
      </trkpt>
      <trkpt lat="42.023875" lon="0.980763">
        <ele>1888.0</ele>
        <time>2015-08-29T10:24:26Z</time>
      </trkpt>
      <trkpt lat="42.023942" lon="0.980857">
        <ele>1889.0</ele>
        <time>2015-08-29T10:24:27Z</time>
      </trkpt>
      <trkpt lat="42.023998" lon="0.980943">
        <ele>1890.0</ele>
        <time>2015-08-29T10:24:28Z</time>
      </trkpt>
      <trkpt lat="42.024037" lon="0.981032">
        <ele>1892.0</ele>
        <time>2015-08-29T10:24:29Z</time>
      </trkpt>
      <trkpt lat="42.024063" lon="0.981138">
        <ele>1893.0</ele>
        <time>2015-08-29T10:24:30Z</time>
      </trkpt>
      <trkpt lat="42.024082" lon="0.981262">
        <ele>1894.0</ele>
        <time>2015-08-29T10:24:31Z</time>
      </trkpt>
      <trkpt lat="42.024102" lon="0.981383">
        <ele>1896.0</ele>
        <time>2015-08-29T10:24:32Z</time>
      </trkpt>
      <trkpt lat="42.024132" lon="0.981500">
        <ele>1898.0</ele>
        <time>2015-08-29T10:24:33Z</time>
      </trkpt>
      <trkpt lat="42.024163" lon="0.981602">
        <ele>1900.0</ele>
        <time>2015-08-29T10:24:34Z</time>
      </trkpt>
      <trkpt lat="42.024193" lon="0.981698">
        <ele>1902.0</ele>
        <time>2015-08-29T10:24:35Z</time>
      </trkpt>
      <trkpt lat="42.024218" lon="0.981798">
        <ele>1904.0</ele>
        <time>2015-08-29T10:24:36Z</time>
      </trkpt>
      <trkpt lat="42.024228" lon="0.981910">
        <ele>1905.0</ele>
        <time>2015-08-29T10:24:37Z</time>
      </trkpt>
      <trkpt lat="42.024230" lon="0.982030">
        <ele>1907.0</ele>
        <time>2015-08-29T10:24:38Z</time>
      </trkpt>
      <trkpt lat="42.024227" lon="0.982158">
        <ele>1909.0</ele>
        <time>2015-08-29T10:24:39Z</time>
      </trkpt>
      <trkpt lat="42.024222" lon="0.982282">
        <ele>1911.0</ele>
        <time>2015-08-29T10:24:40Z</time>
      </trkpt>
      <trkpt lat="42.024215" lon="0.982395">
        <ele>1912.0</ele>
        <time>2015-08-29T10:24:41Z</time>
      </trkpt>
      <trkpt lat="42.024195" lon="0.982473">
        <ele>1915.0</ele>
        <time>2015-08-29T10:24:42Z</time>
      </trkpt>
      <trkpt lat="42.024167" lon="0.982538">
        <ele>1917.0</ele>
        <time>2015-08-29T10:24:43Z</time>
      </trkpt>
      <trkpt lat="42.024140" lon="0.982597">
        <ele>1917.0</ele>
        <time>2015-08-29T10:24:44Z</time>
      </trkpt>
      <trkpt lat="42.024113" lon="0.982633">
        <ele>1918.0</ele>
        <time>2015-08-29T10:24:45Z</time>
      </trkpt>
      <trkpt lat="42.024060" lon="0.982653">
        <ele>1919.0</ele>
        <time>2015-08-29T10:24:47Z</time>
      </trkpt>
      <trkpt lat="42.024010" lon="0.982603">
        <ele>1921.0</ele>
        <time>2015-08-29T10:24:49Z</time>
      </trkpt>
      <trkpt lat="42.023973" lon="0.982558">
        <ele>1923.0</ele>
        <time>2015-08-29T10:24:51Z</time>
      </trkpt>
      <trkpt lat="42.023920" lon="0.982530">
        <ele>1924.0</ele>
        <time>2015-08-29T10:24:53Z</time>
      </trkpt>
      <trkpt lat="42.023863" lon="0.982478">
        <ele>1923.0</ele>
        <time>2015-08-29T10:24:55Z</time>
      </trkpt>
      <trkpt lat="42.023825" lon="0.982432">
        <ele>1923.0</ele>
        <time>2015-08-29T10:24:56Z</time>
      </trkpt>
      <trkpt lat="42.023788" lon="0.982375">
        <ele>1923.0</ele>
        <time>2015-08-29T10:24:57Z</time>
      </trkpt>
      <trkpt lat="42.023760" lon="0.982305">
        <ele>1922.0</ele>
        <time>2015-08-29T10:24:58Z</time>
      </trkpt>
      <trkpt lat="42.023705" lon="0.982250">
        <ele>1920.0</ele>
        <time>2015-08-29T10:25:00Z</time>
      </trkpt>
      <trkpt lat="42.023652" lon="0.982262">
        <ele>1918.0</ele>
        <time>2015-08-29T10:25:01Z</time>
      </trkpt>
      <trkpt lat="42.023598" lon="0.982292">
        <ele>1917.0</ele>
        <time>2015-08-29T10:25:02Z</time>
      </trkpt>
      <trkpt lat="42.023557" lon="0.982328">
        <ele>1915.0</ele>
        <time>2015-08-29T10:25:03Z</time>
      </trkpt>
      <trkpt lat="42.023522" lon="0.982368">
        <ele>1914.0</ele>
        <time>2015-08-29T10:25:04Z</time>
      </trkpt>
      <trkpt lat="42.023493" lon="0.982410">
        <ele>1913.0</ele>
        <time>2015-08-29T10:25:05Z</time>
      </trkpt>
      <trkpt lat="42.023458" lon="0.982448">
        <ele>1911.0</ele>
        <time>2015-08-29T10:25:06Z</time>
      </trkpt>
      <trkpt lat="42.023413" lon="0.982487">
        <ele>1910.0</ele>
        <time>2015-08-29T10:25:07Z</time>
      </trkpt>
      <trkpt lat="42.023363" lon="0.982532">
        <ele>1908.0</ele>
        <time>2015-08-29T10:25:08Z</time>
      </trkpt>
      <trkpt lat="42.023310" lon="0.982592">
        <ele>1907.0</ele>
        <time>2015-08-29T10:25:09Z</time>
      </trkpt>
      <trkpt lat="42.023263" lon="0.982660">
        <ele>1906.0</ele>
        <time>2015-08-29T10:25:10Z</time>
      </trkpt>
      <trkpt lat="42.023192" lon="0.982813">
        <ele>1903.0</ele>
        <time>2015-08-29T10:25:12Z</time>
      </trkpt>
      <trkpt lat="42.023160" lon="0.982888">
        <ele>1902.0</ele>
        <time>2015-08-29T10:25:13Z</time>
      </trkpt>
      <trkpt lat="42.023125" lon="0.982963">
        <ele>1900.0</ele>
        <time>2015-08-29T10:25:14Z</time>
      </trkpt>
      <trkpt lat="42.023085" lon="0.983047">
        <ele>1898.0</ele>
        <time>2015-08-29T10:25:15Z</time>
      </trkpt>
      <trkpt lat="42.023037" lon="0.983107">
        <ele>1898.0</ele>
        <time>2015-08-29T10:25:16Z</time>
      </trkpt>
      <trkpt lat="42.023005" lon="0.983193">
        <ele>1896.0</ele>
        <time>2015-08-29T10:25:17Z</time>
      </trkpt>
      <trkpt lat="42.022980" lon="0.983278">
        <ele>1892.0</ele>
        <time>2015-08-29T10:25:18Z</time>
      </trkpt>
      <trkpt lat="42.022948" lon="0.983360">
        <ele>1889.0</ele>
        <time>2015-08-29T10:25:19Z</time>
      </trkpt>
      <trkpt lat="42.022897" lon="0.983422">
        <ele>1890.0</ele>
        <time>2015-08-29T10:25:20Z</time>
      </trkpt>
      <trkpt lat="42.022855" lon="0.983500">
        <ele>1888.0</ele>
        <time>2015-08-29T10:25:21Z</time>
      </trkpt>
      <trkpt lat="42.022818" lon="0.983588">
        <ele>1886.0</ele>
        <time>2015-08-29T10:25:22Z</time>
      </trkpt>
      <trkpt lat="42.022790" lon="0.983678">
        <ele>1884.0</ele>
        <time>2015-08-29T10:25:23Z</time>
      </trkpt>
      <trkpt lat="42.022763" lon="0.983762">
        <ele>1885.0</ele>
        <time>2015-08-29T10:25:24Z</time>
      </trkpt>
      <trkpt lat="42.022747" lon="0.983852">
        <ele>1883.0</ele>
        <time>2015-08-29T10:25:25Z</time>
      </trkpt>
      <trkpt lat="42.022728" lon="0.983937">
        <ele>1881.0</ele>
        <time>2015-08-29T10:25:26Z</time>
      </trkpt>
      <trkpt lat="42.022705" lon="0.984022">
        <ele>1880.0</ele>
        <time>2015-08-29T10:25:27Z</time>
      </trkpt>
      <trkpt lat="42.022677" lon="0.984105">
        <ele>1878.0</ele>
        <time>2015-08-29T10:25:28Z</time>
      </trkpt>
      <trkpt lat="42.022652" lon="0.984185">
        <ele>1877.0</ele>
        <time>2015-08-29T10:25:29Z</time>
      </trkpt>
      <trkpt lat="42.022628" lon="0.984270">
        <ele>1876.0</ele>
        <time>2015-08-29T10:25:30Z</time>
      </trkpt>
      <trkpt lat="42.022605" lon="0.984360">
        <ele>1874.0</ele>
        <time>2015-08-29T10:25:31Z</time>
      </trkpt>
      <trkpt lat="42.022575" lon="0.984453">
        <ele>1872.0</ele>
        <time>2015-08-29T10:25:32Z</time>
      </trkpt>
      <trkpt lat="42.022533" lon="0.984533">
        <ele>1871.0</ele>
        <time>2015-08-29T10:25:33Z</time>
      </trkpt>
      <trkpt lat="42.022500" lon="0.984635">
        <ele>1869.0</ele>
        <time>2015-08-29T10:25:34Z</time>
      </trkpt>
      <trkpt lat="42.022480" lon="0.984753">
        <ele>1867.0</ele>
        <time>2015-08-29T10:25:35Z</time>
      </trkpt>
      <trkpt lat="42.022458" lon="0.984853">
        <ele>1864.0</ele>
        <time>2015-08-29T10:25:36Z</time>
      </trkpt>
      <trkpt lat="42.022430" lon="0.984938">
        <ele>1863.0</ele>
        <time>2015-08-29T10:25:37Z</time>
      </trkpt>
      <trkpt lat="42.022398" lon="0.985013">
        <ele>1861.0</ele>
        <time>2015-08-29T10:25:38Z</time>
      </trkpt>
      <trkpt lat="42.022372" lon="0.985098">
        <ele>1858.0</ele>
        <time>2015-08-29T10:25:39Z</time>
      </trkpt>
      <trkpt lat="42.022338" lon="0.985178">
        <ele>1857.0</ele>
        <time>2015-08-29T10:25:40Z</time>
      </trkpt>
      <trkpt lat="42.022312" lon="0.985277">
        <ele>1856.0</ele>
        <time>2015-08-29T10:25:41Z</time>
      </trkpt>
      <trkpt lat="42.022278" lon="0.985372">
        <ele>1854.0</ele>
        <time>2015-08-29T10:25:42Z</time>
      </trkpt>
      <trkpt lat="42.022232" lon="0.985450">
        <ele>1852.0</ele>
        <time>2015-08-29T10:25:43Z</time>
      </trkpt>
      <trkpt lat="42.022177" lon="0.985495">
        <ele>1850.0</ele>
        <time>2015-08-29T10:25:44Z</time>
      </trkpt>
      <trkpt lat="42.022135" lon="0.985545">
        <ele>1847.0</ele>
        <time>2015-08-29T10:25:45Z</time>
      </trkpt>
      <trkpt lat="42.022093" lon="0.985582">
        <ele>1845.0</ele>
        <time>2015-08-29T10:25:46Z</time>
      </trkpt>
      <trkpt lat="42.022058" lon="0.985627">
        <ele>1842.0</ele>
        <time>2015-08-29T10:25:47Z</time>
      </trkpt>
      <trkpt lat="42.022020" lon="0.985662">
        <ele>1839.0</ele>
        <time>2015-08-29T10:25:48Z</time>
      </trkpt>
      <trkpt lat="42.021993" lon="0.985728">
        <ele>1836.0</ele>
        <time>2015-08-29T10:25:49Z</time>
      </trkpt>
      <trkpt lat="42.021952" lon="0.985775">
        <ele>1833.0</ele>
        <time>2015-08-29T10:25:50Z</time>
      </trkpt>
      <trkpt lat="42.021895" lon="0.985800">
        <ele>1831.0</ele>
        <time>2015-08-29T10:25:51Z</time>
      </trkpt>
      <trkpt lat="42.021840" lon="0.985822">
        <ele>1829.0</ele>
        <time>2015-08-29T10:25:52Z</time>
      </trkpt>
      <trkpt lat="42.021787" lon="0.985843">
        <ele>1827.0</ele>
        <time>2015-08-29T10:25:53Z</time>
      </trkpt>
      <trkpt lat="42.021742" lon="0.985877">
        <ele>1824.0</ele>
        <time>2015-08-29T10:25:54Z</time>
      </trkpt>
      <trkpt lat="42.021695" lon="0.985892">
        <ele>1821.0</ele>
        <time>2015-08-29T10:25:55Z</time>
      </trkpt>
      <trkpt lat="42.021613" lon="0.985918">
        <ele>1816.0</ele>
        <time>2015-08-29T10:25:57Z</time>
      </trkpt>
      <trkpt lat="42.021563" lon="0.985982">
        <ele>1813.0</ele>
        <time>2015-08-29T10:25:58Z</time>
      </trkpt>
      <trkpt lat="42.021517" lon="0.986048">
        <ele>1811.0</ele>
        <time>2015-08-29T10:25:59Z</time>
      </trkpt>
      <trkpt lat="42.021472" lon="0.986093">
        <ele>1809.0</ele>
        <time>2015-08-29T10:26:00Z</time>
      </trkpt>
      <trkpt lat="42.021430" lon="0.986105">
        <ele>1807.0</ele>
        <time>2015-08-29T10:26:01Z</time>
      </trkpt>
      <trkpt lat="42.021393" lon="0.986110">
        <ele>1805.0</ele>
        <time>2015-08-29T10:26:02Z</time>
      </trkpt>
      <trkpt lat="42.021355" lon="0.986115">
        <ele>1803.0</ele>
        <time>2015-08-29T10:26:03Z</time>
      </trkpt>
      <trkpt lat="42.021320" lon="0.986148">
        <ele>1800.0</ele>
        <time>2015-08-29T10:26:04Z</time>
      </trkpt>
      <trkpt lat="42.021275" lon="0.986207">
        <ele>1798.0</ele>
        <time>2015-08-29T10:26:05Z</time>
      </trkpt>
      <trkpt lat="42.021217" lon="0.986273">
        <ele>1797.0</ele>
        <time>2015-08-29T10:26:06Z</time>
      </trkpt>
      <trkpt lat="42.021157" lon="0.986342">
        <ele>1795.0</ele>
        <time>2015-08-29T10:26:07Z</time>
      </trkpt>
      <trkpt lat="42.021097" lon="0.986395">
        <ele>1793.0</ele>
        <time>2015-08-29T10:26:08Z</time>
      </trkpt>
      <trkpt lat="42.021042" lon="0.986440">
        <ele>1792.0</ele>
        <time>2015-08-29T10:26:09Z</time>
      </trkpt>
      <trkpt lat="42.020992" lon="0.986503">
        <ele>1794.0</ele>
        <time>2015-08-29T10:26:10Z</time>
      </trkpt>
      <trkpt lat="42.020955" lon="0.986583">
        <ele>1793.0</ele>
        <time>2015-08-29T10:26:11Z</time>
      </trkpt>
      <trkpt lat="42.020918" lon="0.986670">
        <ele>1792.0</ele>
        <time>2015-08-29T10:26:12Z</time>
      </trkpt>
      <trkpt lat="42.020878" lon="0.986755">
        <ele>1791.0</ele>
        <time>2015-08-29T10:26:13Z</time>
      </trkpt>
      <trkpt lat="42.020845" lon="0.986823">
        <ele>1791.0</ele>
        <time>2015-08-29T10:26:14Z</time>
      </trkpt>
      <trkpt lat="42.020820" lon="0.986910">
        <ele>1791.0</ele>
        <time>2015-08-29T10:26:15Z</time>
      </trkpt>
      <trkpt lat="42.020792" lon="0.987008">
        <ele>1790.0</ele>
        <time>2015-08-29T10:26:16Z</time>
      </trkpt>
      <trkpt lat="42.020753" lon="0.987097">
        <ele>1788.0</ele>
        <time>2015-08-29T10:26:17Z</time>
      </trkpt>
      <trkpt lat="42.020707" lon="0.987173">
        <ele>1787.0</ele>
        <time>2015-08-29T10:26:18Z</time>
      </trkpt>
      <trkpt lat="42.020667" lon="0.987258">
        <ele>1786.0</ele>
        <time>2015-08-29T10:26:19Z</time>
      </trkpt>
      <trkpt lat="42.020638" lon="0.987342">
        <ele>1785.0</ele>
        <time>2015-08-29T10:26:20Z</time>
      </trkpt>
      <trkpt lat="42.020602" lon="0.987398">
        <ele>1783.0</ele>
        <time>2015-08-29T10:26:21Z</time>
      </trkpt>
      <trkpt lat="42.020567" lon="0.987455">
        <ele>1782.0</ele>
        <time>2015-08-29T10:26:22Z</time>
      </trkpt>
      <trkpt lat="42.020525" lon="0.987525">
        <ele>1781.0</ele>
        <time>2015-08-29T10:26:23Z</time>
      </trkpt>
      <trkpt lat="42.020480" lon="0.987597">
        <ele>1780.0</ele>
        <time>2015-08-29T10:26:24Z</time>
      </trkpt>
      <trkpt lat="42.020440" lon="0.987668">
        <ele>1779.0</ele>
        <time>2015-08-29T10:26:25Z</time>
      </trkpt>
      <trkpt lat="42.020407" lon="0.987737">
        <ele>1778.0</ele>
        <time>2015-08-29T10:26:26Z</time>
      </trkpt>
      <trkpt lat="42.020372" lon="0.987793">
        <ele>1777.0</ele>
        <time>2015-08-29T10:26:27Z</time>
      </trkpt>
      <trkpt lat="42.020328" lon="0.987850">
        <ele>1777.0</ele>
        <time>2015-08-29T10:26:28Z</time>
      </trkpt>
      <trkpt lat="42.020280" lon="0.987923">
        <ele>1776.0</ele>
        <time>2015-08-29T10:26:29Z</time>
      </trkpt>
      <trkpt lat="42.020230" lon="0.987987">
        <ele>1775.0</ele>
        <time>2015-08-29T10:26:30Z</time>
      </trkpt>
      <trkpt lat="42.020178" lon="0.988023">
        <ele>1775.0</ele>
        <time>2015-08-29T10:26:31Z</time>
      </trkpt>
      <trkpt lat="42.020150" lon="0.988098">
        <ele>1773.0</ele>
        <time>2015-08-29T10:26:32Z</time>
      </trkpt>
      <trkpt lat="42.020122" lon="0.988173">
        <ele>1772.0</ele>
        <time>2015-08-29T10:26:33Z</time>
      </trkpt>
      <trkpt lat="42.020083" lon="0.988240">
        <ele>1770.0</ele>
        <time>2015-08-29T10:26:34Z</time>
      </trkpt>
      <trkpt lat="42.020042" lon="0.988310">
        <ele>1769.0</ele>
        <time>2015-08-29T10:26:35Z</time>
      </trkpt>
      <trkpt lat="42.020000" lon="0.988387">
        <ele>1769.0</ele>
        <time>2015-08-29T10:26:36Z</time>
      </trkpt>
      <trkpt lat="42.019967" lon="0.988472">
        <ele>1768.0</ele>
        <time>2015-08-29T10:26:37Z</time>
      </trkpt>
      <trkpt lat="42.019948" lon="0.988568">
        <ele>1767.0</ele>
        <time>2015-08-29T10:26:38Z</time>
      </trkpt>
      <trkpt lat="42.019950" lon="0.988670">
        <ele>1766.0</ele>
        <time>2015-08-29T10:26:39Z</time>
      </trkpt>
      <trkpt lat="42.019985" lon="0.988825">
        <ele>1765.0</ele>
        <time>2015-08-29T10:26:40Z</time>
      </trkpt>
      <trkpt lat="42.019947" lon="0.988950">
        <ele>1767.0</ele>
        <time>2015-08-29T10:26:42Z</time>
      </trkpt>
      <trkpt lat="42.019927" lon="0.989052">
        <ele>1765.0</ele>
        <time>2015-08-29T10:26:43Z</time>
      </trkpt>
      <trkpt lat="42.019912" lon="0.989143">
        <ele>1764.0</ele>
        <time>2015-08-29T10:26:44Z</time>
      </trkpt>
      <trkpt lat="42.019893" lon="0.989217">
        <ele>1762.0</ele>
        <time>2015-08-29T10:26:45Z</time>
      </trkpt>
      <trkpt lat="42.019885" lon="0.989303">
        <ele>1761.0</ele>
        <time>2015-08-29T10:26:46Z</time>
      </trkpt>
      <trkpt lat="42.019860" lon="0.989353">
        <ele>1760.0</ele>
        <time>2015-08-29T10:26:47Z</time>
      </trkpt>
      <trkpt lat="42.019828" lon="0.989378">
        <ele>1760.0</ele>
        <time>2015-08-29T10:26:48Z</time>
      </trkpt>
      <trkpt lat="42.019745" lon="0.989360">
        <ele>1757.0</ele>
        <time>2015-08-29T10:26:50Z</time>
      </trkpt>
      <trkpt lat="42.019703" lon="0.989278">
        <ele>1756.0</ele>
        <time>2015-08-29T10:26:52Z</time>
      </trkpt>
      <trkpt lat="42.019658" lon="0.989228">
        <ele>1754.0</ele>
        <time>2015-08-29T10:26:54Z</time>
      </trkpt>
      <trkpt lat="42.019623" lon="0.989200">
        <ele>1753.0</ele>
        <time>2015-08-29T10:26:55Z</time>
      </trkpt>
      <trkpt lat="42.019580" lon="0.989158">
        <ele>1753.0</ele>
        <time>2015-08-29T10:26:56Z</time>
      </trkpt>
      <trkpt lat="42.019540" lon="0.989133">
        <ele>1752.0</ele>
        <time>2015-08-29T10:26:57Z</time>
      </trkpt>
      <trkpt lat="42.019495" lon="0.989118">
        <ele>1752.0</ele>
        <time>2015-08-29T10:26:58Z</time>
      </trkpt>
      <trkpt lat="42.019467" lon="0.989042">
        <ele>1751.0</ele>
        <time>2015-08-29T10:26:59Z</time>
      </trkpt>
      <trkpt lat="42.019420" lon="0.988982">
        <ele>1751.0</ele>
        <time>2015-08-29T10:27:00Z</time>
      </trkpt>
      <trkpt lat="42.019367" lon="0.988910">
        <ele>1750.0</ele>
        <time>2015-08-29T10:27:01Z</time>
      </trkpt>
      <trkpt lat="42.019322" lon="0.988830">
        <ele>1750.0</ele>
        <time>2015-08-29T10:27:02Z</time>
      </trkpt>
      <trkpt lat="42.019267" lon="0.988752">
        <ele>1749.0</ele>
        <time>2015-08-29T10:27:03Z</time>
      </trkpt>
      <trkpt lat="42.019220" lon="0.988643">
        <ele>1749.0</ele>
        <time>2015-08-29T10:27:04Z</time>
      </trkpt>
      <trkpt lat="42.019193" lon="0.988523">
        <ele>1748.0</ele>
        <time>2015-08-29T10:27:05Z</time>
      </trkpt>
      <trkpt lat="42.019195" lon="0.988408">
        <ele>1748.0</ele>
        <time>2015-08-29T10:27:06Z</time>
      </trkpt>
      <trkpt lat="42.019208" lon="0.988313">
        <ele>1748.0</ele>
        <time>2015-08-29T10:27:07Z</time>
      </trkpt>
      <trkpt lat="42.019225" lon="0.988232">
        <ele>1748.0</ele>
        <time>2015-08-29T10:27:08Z</time>
      </trkpt>
      <trkpt lat="42.019238" lon="0.988145">
        <ele>1748.0</ele>
        <time>2015-08-29T10:27:09Z</time>
      </trkpt>
      <trkpt lat="42.019250" lon="0.988050">
        <ele>1749.0</ele>
        <time>2015-08-29T10:27:10Z</time>
      </trkpt>
      <trkpt lat="42.019265" lon="0.987943">
        <ele>1749.0</ele>
        <time>2015-08-29T10:27:11Z</time>
      </trkpt>
      <trkpt lat="42.019287" lon="0.987837">
        <ele>1750.0</ele>
        <time>2015-08-29T10:27:12Z</time>
      </trkpt>
      <trkpt lat="42.019325" lon="0.987747">
        <ele>1750.0</ele>
        <time>2015-08-29T10:27:13Z</time>
      </trkpt>
      <trkpt lat="42.019382" lon="0.987675">
        <ele>1751.0</ele>
        <time>2015-08-29T10:27:14Z</time>
      </trkpt>
      <trkpt lat="42.019452" lon="0.987637">
        <ele>1753.0</ele>
        <time>2015-08-29T10:27:15Z</time>
      </trkpt>
      <trkpt lat="42.019538" lon="0.987593">
        <ele>1753.0</ele>
        <time>2015-08-29T10:27:16Z</time>
      </trkpt>
      <trkpt lat="42.019632" lon="0.987545">
        <ele>1754.0</ele>
        <time>2015-08-29T10:27:17Z</time>
      </trkpt>
      <trkpt lat="42.019722" lon="0.987508">
        <ele>1755.0</ele>
        <time>2015-08-29T10:27:18Z</time>
      </trkpt>
      <trkpt lat="42.019807" lon="0.987480">
        <ele>1756.0</ele>
        <time>2015-08-29T10:27:19Z</time>
      </trkpt>
      <trkpt lat="42.019892" lon="0.987457">
        <ele>1756.0</ele>
        <time>2015-08-29T10:27:20Z</time>
      </trkpt>
      <trkpt lat="42.019978" lon="0.987427">
        <ele>1756.0</ele>
        <time>2015-08-29T10:27:21Z</time>
      </trkpt>
      <trkpt lat="42.020072" lon="0.987403">
        <ele>1756.0</ele>
        <time>2015-08-29T10:27:22Z</time>
      </trkpt>
      <trkpt lat="42.020167" lon="0.987397">
        <ele>1756.0</ele>
        <time>2015-08-29T10:27:23Z</time>
      </trkpt>
      <trkpt lat="42.020273" lon="0.987410">
        <ele>1756.0</ele>
        <time>2015-08-29T10:27:24Z</time>
      </trkpt>
      <trkpt lat="42.020377" lon="0.987447">
        <ele>1755.0</ele>
        <time>2015-08-29T10:27:25Z</time>
      </trkpt>
      <trkpt lat="42.020475" lon="0.987508">
        <ele>1755.0</ele>
        <time>2015-08-29T10:27:26Z</time>
      </trkpt>
      <trkpt lat="42.020565" lon="0.987595">
        <ele>1754.0</ele>
        <time>2015-08-29T10:27:27Z</time>
      </trkpt>
      <trkpt lat="42.020642" lon="0.987698">
        <ele>1754.0</ele>
        <time>2015-08-29T10:27:28Z</time>
      </trkpt>
      <trkpt lat="42.020710" lon="0.987813">
        <ele>1753.0</ele>
        <time>2015-08-29T10:27:29Z</time>
      </trkpt>
      <trkpt lat="42.020738" lon="0.987937">
        <ele>1753.0</ele>
        <time>2015-08-29T10:27:30Z</time>
      </trkpt>
      <trkpt lat="42.020775" lon="0.988040">
        <ele>1752.0</ele>
        <time>2015-08-29T10:27:31Z</time>
      </trkpt>
      <trkpt lat="42.020803" lon="0.988123">
        <ele>1753.0</ele>
        <time>2015-08-29T10:27:32Z</time>
      </trkpt>
      <trkpt lat="42.020842" lon="0.988227">
        <ele>1752.0</ele>
        <time>2015-08-29T10:27:33Z</time>
      </trkpt>
      <trkpt lat="42.020867" lon="0.988335">
        <ele>1750.0</ele>
        <time>2015-08-29T10:27:34Z</time>
      </trkpt>
      <trkpt lat="42.020885" lon="0.988438">
        <ele>1749.0</ele>
        <time>2015-08-29T10:27:35Z</time>
      </trkpt>
      <trkpt lat="42.020898" lon="0.988537">
        <ele>1747.0</ele>
        <time>2015-08-29T10:27:36Z</time>
      </trkpt>
      <trkpt lat="42.020908" lon="0.988635">
        <ele>1746.0</ele>
        <time>2015-08-29T10:27:37Z</time>
      </trkpt>
      <trkpt lat="42.020913" lon="0.988728">
        <ele>1745.0</ele>
        <time>2015-08-29T10:27:38Z</time>
      </trkpt>
      <trkpt lat="42.020908" lon="0.988828">
        <ele>1744.0</ele>
        <time>2015-08-29T10:27:39Z</time>
      </trkpt>
      <trkpt lat="42.020898" lon="0.988942">
        <ele>1744.0</ele>
        <time>2015-08-29T10:27:40Z</time>
      </trkpt>
      <trkpt lat="42.020900" lon="0.989058">
        <ele>1742.0</ele>
        <time>2015-08-29T10:27:41Z</time>
      </trkpt>
      <trkpt lat="42.020903" lon="0.989147">
        <ele>1744.0</ele>
        <time>2015-08-29T10:27:42Z</time>
      </trkpt>
      <trkpt lat="42.020915" lon="0.989238">
        <ele>1746.0</ele>
        <time>2015-08-29T10:27:43Z</time>
      </trkpt>
      <trkpt lat="42.020922" lon="0.989338">
        <ele>1745.0</ele>
        <time>2015-08-29T10:27:44Z</time>
      </trkpt>
      <trkpt lat="42.020913" lon="0.989435">
        <ele>1744.0</ele>
        <time>2015-08-29T10:27:45Z</time>
      </trkpt>
      <trkpt lat="42.020893" lon="0.989533">
        <ele>1744.0</ele>
        <time>2015-08-29T10:27:46Z</time>
      </trkpt>
      <trkpt lat="42.020868" lon="0.989627">
        <ele>1744.0</ele>
        <time>2015-08-29T10:27:47Z</time>
      </trkpt>
      <trkpt lat="42.020842" lon="0.989733">
        <ele>1744.0</ele>
        <time>2015-08-29T10:27:48Z</time>
      </trkpt>
      <trkpt lat="42.020815" lon="0.989840">
        <ele>1744.0</ele>
        <time>2015-08-29T10:27:49Z</time>
      </trkpt>
      <trkpt lat="42.020788" lon="0.989942">
        <ele>1744.0</ele>
        <time>2015-08-29T10:27:50Z</time>
      </trkpt>
      <trkpt lat="42.020758" lon="0.990025">
        <ele>1744.0</ele>
        <time>2015-08-29T10:27:51Z</time>
      </trkpt>
      <trkpt lat="42.020728" lon="0.990090">
        <ele>1744.0</ele>
        <time>2015-08-29T10:27:52Z</time>
      </trkpt>
      <trkpt lat="42.020697" lon="0.990150">
        <ele>1744.0</ele>
        <time>2015-08-29T10:27:53Z</time>
      </trkpt>
      <trkpt lat="42.020663" lon="0.990227">
        <ele>1744.0</ele>
        <time>2015-08-29T10:27:54Z</time>
      </trkpt>
      <trkpt lat="42.020632" lon="0.990312">
        <ele>1743.0</ele>
        <time>2015-08-29T10:27:55Z</time>
      </trkpt>
      <trkpt lat="42.020610" lon="0.990402">
        <ele>1743.0</ele>
        <time>2015-08-29T10:27:56Z</time>
      </trkpt>
      <trkpt lat="42.020590" lon="0.990482">
        <ele>1744.0</ele>
        <time>2015-08-29T10:27:57Z</time>
      </trkpt>
      <trkpt lat="42.020583" lon="0.990547">
        <ele>1744.0</ele>
        <time>2015-08-29T10:27:58Z</time>
      </trkpt>
      <trkpt lat="42.020568" lon="0.990595">
        <ele>1745.0</ele>
        <time>2015-08-29T10:27:59Z</time>
      </trkpt>
      <trkpt lat="42.020555" lon="0.990682">
        <ele>1745.0</ele>
        <time>2015-08-29T10:28:00Z</time>
      </trkpt>
      <trkpt lat="42.020545" lon="0.990807">
        <ele>1743.0</ele>
        <time>2015-08-29T10:28:01Z</time>
      </trkpt>
      <trkpt lat="42.020540" lon="0.990935">
        <ele>1741.0</ele>
        <time>2015-08-29T10:28:02Z</time>
      </trkpt>
      <trkpt lat="42.020542" lon="0.991060">
        <ele>1739.0</ele>
        <time>2015-08-29T10:28:03Z</time>
      </trkpt>
      <trkpt lat="42.020543" lon="0.991170">
        <ele>1739.0</ele>
        <time>2015-08-29T10:28:04Z</time>
      </trkpt>
      <trkpt lat="42.020542" lon="0.991272">
        <ele>1739.0</ele>
        <time>2015-08-29T10:28:05Z</time>
      </trkpt>
      <trkpt lat="42.020537" lon="0.991377">
        <ele>1738.0</ele>
        <time>2015-08-29T10:28:06Z</time>
      </trkpt>
      <trkpt lat="42.020535" lon="0.991492">
        <ele>1738.0</ele>
        <time>2015-08-29T10:28:07Z</time>
      </trkpt>
      <trkpt lat="42.020533" lon="0.991618">
        <ele>1738.0</ele>
        <time>2015-08-29T10:28:08Z</time>
      </trkpt>
      <trkpt lat="42.020535" lon="0.991760">
        <ele>1737.0</ele>
        <time>2015-08-29T10:28:09Z</time>
      </trkpt>
      <trkpt lat="42.020538" lon="0.991897">
        <ele>1737.0</ele>
        <time>2015-08-29T10:28:10Z</time>
      </trkpt>
      <trkpt lat="42.020540" lon="0.992013">
        <ele>1738.0</ele>
        <time>2015-08-29T10:28:11Z</time>
      </trkpt>
      <trkpt lat="42.020543" lon="0.992118">
        <ele>1737.0</ele>
        <time>2015-08-29T10:28:12Z</time>
      </trkpt>
      <trkpt lat="42.020545" lon="0.992222">
        <ele>1736.0</ele>
        <time>2015-08-29T10:28:13Z</time>
      </trkpt>
      <trkpt lat="42.020538" lon="0.992330">
        <ele>1736.0</ele>
        <time>2015-08-29T10:28:14Z</time>
      </trkpt>
      <trkpt lat="42.020545" lon="0.992487">
        <ele>1735.0</ele>
        <time>2015-08-29T10:28:15Z</time>
      </trkpt>
      <trkpt lat="42.020537" lon="0.992612">
        <ele>1736.0</ele>
        <time>2015-08-29T10:28:16Z</time>
      </trkpt>
      <trkpt lat="42.020542" lon="0.992722">
        <ele>1735.0</ele>
        <time>2015-08-29T10:28:17Z</time>
      </trkpt>
      <trkpt lat="42.020543" lon="0.992820">
        <ele>1732.0</ele>
        <time>2015-08-29T10:28:18Z</time>
      </trkpt>
      <trkpt lat="42.020525" lon="0.992913">
        <ele>1732.0</ele>
        <time>2015-08-29T10:28:19Z</time>
      </trkpt>
      <trkpt lat="42.020510" lon="0.993018">
        <ele>1730.0</ele>
        <time>2015-08-29T10:28:20Z</time>
      </trkpt>
      <trkpt lat="42.020503" lon="0.993155">
        <ele>1729.0</ele>
        <time>2015-08-29T10:28:21Z</time>
      </trkpt>
      <trkpt lat="42.020502" lon="0.993302">
        <ele>1727.0</ele>
        <time>2015-08-29T10:28:22Z</time>
      </trkpt>
      <trkpt lat="42.020508" lon="0.993447">
        <ele>1726.0</ele>
        <time>2015-08-29T10:28:23Z</time>
      </trkpt>
      <trkpt lat="42.020515" lon="0.993570">
        <ele>1725.0</ele>
        <time>2015-08-29T10:28:24Z</time>
      </trkpt>
      <trkpt lat="42.020507" lon="0.993672">
        <ele>1725.0</ele>
        <time>2015-08-29T10:28:25Z</time>
      </trkpt>
      <trkpt lat="42.020493" lon="0.993782">
        <ele>1724.0</ele>
        <time>2015-08-29T10:28:26Z</time>
      </trkpt>
      <trkpt lat="42.020478" lon="0.993913">
        <ele>1723.0</ele>
        <time>2015-08-29T10:28:27Z</time>
      </trkpt>
      <trkpt lat="42.020477" lon="0.994058">
        <ele>1722.0</ele>
        <time>2015-08-29T10:28:28Z</time>
      </trkpt>
      <trkpt lat="42.020487" lon="0.994207">
        <ele>1721.0</ele>
        <time>2015-08-29T10:28:29Z</time>
      </trkpt>
      <trkpt lat="42.020498" lon="0.994333">
        <ele>1721.0</ele>
        <time>2015-08-29T10:28:30Z</time>
      </trkpt>
      <trkpt lat="42.020507" lon="0.994443">
        <ele>1721.0</ele>
        <time>2015-08-29T10:28:31Z</time>
      </trkpt>
      <trkpt lat="42.020498" lon="0.994535">
        <ele>1719.0</ele>
        <time>2015-08-29T10:28:32Z</time>
      </trkpt>
      <trkpt lat="42.020487" lon="0.994633">
        <ele>1719.0</ele>
        <time>2015-08-29T10:28:33Z</time>
      </trkpt>
      <trkpt lat="42.020493" lon="0.994762">
        <ele>1717.0</ele>
        <time>2015-08-29T10:28:34Z</time>
      </trkpt>
      <trkpt lat="42.020517" lon="0.994892">
        <ele>1715.0</ele>
        <time>2015-08-29T10:28:35Z</time>
      </trkpt>
      <trkpt lat="42.020545" lon="0.995003">
        <ele>1713.0</ele>
        <time>2015-08-29T10:28:36Z</time>
      </trkpt>
      <trkpt lat="42.020572" lon="0.995098">
        <ele>1710.0</ele>
        <time>2015-08-29T10:28:37Z</time>
      </trkpt>
      <trkpt lat="42.020590" lon="0.995183">
        <ele>1709.0</ele>
        <time>2015-08-29T10:28:38Z</time>
      </trkpt>
      <trkpt lat="42.020598" lon="0.995288">
        <ele>1707.0</ele>
        <time>2015-08-29T10:28:39Z</time>
      </trkpt>
      <trkpt lat="42.020605" lon="0.995407">
        <ele>1705.0</ele>
        <time>2015-08-29T10:28:40Z</time>
      </trkpt>
      <trkpt lat="42.020623" lon="0.995538">
        <ele>1703.0</ele>
        <time>2015-08-29T10:28:41Z</time>
      </trkpt>
      <trkpt lat="42.020645" lon="0.995663">
        <ele>1701.0</ele>
        <time>2015-08-29T10:28:42Z</time>
      </trkpt>
      <trkpt lat="42.020658" lon="0.995772">
        <ele>1702.0</ele>
        <time>2015-08-29T10:28:43Z</time>
      </trkpt>
      <trkpt lat="42.020668" lon="0.995883">
        <ele>1702.0</ele>
        <time>2015-08-29T10:28:44Z</time>
      </trkpt>
      <trkpt lat="42.020685" lon="0.996008">
        <ele>1699.0</ele>
        <time>2015-08-29T10:28:45Z</time>
      </trkpt>
      <trkpt lat="42.020698" lon="0.996138">
        <ele>1696.0</ele>
        <time>2015-08-29T10:28:46Z</time>
      </trkpt>
      <trkpt lat="42.020708" lon="0.996255">
        <ele>1694.0</ele>
        <time>2015-08-29T10:28:47Z</time>
      </trkpt>
      <trkpt lat="42.020717" lon="0.996350">
        <ele>1693.0</ele>
        <time>2015-08-29T10:28:48Z</time>
      </trkpt>
      <trkpt lat="42.020725" lon="0.996430">
        <ele>1692.0</ele>
        <time>2015-08-29T10:28:49Z</time>
      </trkpt>
      <trkpt lat="42.020735" lon="0.996503">
        <ele>1691.0</ele>
        <time>2015-08-29T10:28:50Z</time>
      </trkpt>
      <trkpt lat="42.020748" lon="0.996582">
        <ele>1689.0</ele>
        <time>2015-08-29T10:28:51Z</time>
      </trkpt>
      <trkpt lat="42.020762" lon="0.996670">
        <ele>1688.0</ele>
        <time>2015-08-29T10:28:52Z</time>
      </trkpt>
      <trkpt lat="42.020772" lon="0.996768">
        <ele>1686.0</ele>
        <time>2015-08-29T10:28:53Z</time>
      </trkpt>
      <trkpt lat="42.020780" lon="0.996882">
        <ele>1684.0</ele>
        <time>2015-08-29T10:28:54Z</time>
      </trkpt>
      <trkpt lat="42.020785" lon="0.996997">
        <ele>1683.0</ele>
        <time>2015-08-29T10:28:55Z</time>
      </trkpt>
      <trkpt lat="42.020788" lon="0.997115">
        <ele>1681.0</ele>
        <time>2015-08-29T10:28:56Z</time>
      </trkpt>
      <trkpt lat="42.020788" lon="0.997233">
        <ele>1679.0</ele>
        <time>2015-08-29T10:28:57Z</time>
      </trkpt>
      <trkpt lat="42.020788" lon="0.997352">
        <ele>1678.0</ele>
        <time>2015-08-29T10:28:58Z</time>
      </trkpt>
      <trkpt lat="42.020783" lon="0.997467">
        <ele>1676.0</ele>
        <time>2015-08-29T10:28:59Z</time>
      </trkpt>
      <trkpt lat="42.020773" lon="0.997570">
        <ele>1677.0</ele>
        <time>2015-08-29T10:29:00Z</time>
      </trkpt>
      <trkpt lat="42.020770" lon="0.997687">
        <ele>1678.0</ele>
        <time>2015-08-29T10:29:01Z</time>
      </trkpt>
      <trkpt lat="42.020782" lon="0.997815">
        <ele>1677.0</ele>
        <time>2015-08-29T10:29:02Z</time>
      </trkpt>
      <trkpt lat="42.020802" lon="0.997940">
        <ele>1675.0</ele>
        <time>2015-08-29T10:29:03Z</time>
      </trkpt>
      <trkpt lat="42.020822" lon="0.998067">
        <ele>1675.0</ele>
        <time>2015-08-29T10:29:04Z</time>
      </trkpt>
      <trkpt lat="42.020840" lon="0.998193">
        <ele>1674.0</ele>
        <time>2015-08-29T10:29:05Z</time>
      </trkpt>
      <trkpt lat="42.020850" lon="0.998320">
        <ele>1674.0</ele>
        <time>2015-08-29T10:29:06Z</time>
      </trkpt>
      <trkpt lat="42.020855" lon="0.998450">
        <ele>1674.0</ele>
        <time>2015-08-29T10:29:07Z</time>
      </trkpt>
      <trkpt lat="42.020858" lon="0.998582">
        <ele>1675.0</ele>
        <time>2015-08-29T10:29:08Z</time>
      </trkpt>
      <trkpt lat="42.020865" lon="0.998710">
        <ele>1676.0</ele>
        <time>2015-08-29T10:29:09Z</time>
      </trkpt>
      <trkpt lat="42.020868" lon="0.998835">
        <ele>1676.0</ele>
        <time>2015-08-29T10:29:10Z</time>
      </trkpt>
      <trkpt lat="42.020863" lon="0.998948">
        <ele>1677.0</ele>
        <time>2015-08-29T10:29:11Z</time>
      </trkpt>
      <trkpt lat="42.020853" lon="0.999050">
        <ele>1677.0</ele>
        <time>2015-08-29T10:29:12Z</time>
      </trkpt>
      <trkpt lat="42.020842" lon="0.999152">
        <ele>1677.0</ele>
        <time>2015-08-29T10:29:13Z</time>
      </trkpt>
      <trkpt lat="42.020837" lon="0.999260">
        <ele>1678.0</ele>
        <time>2015-08-29T10:29:14Z</time>
      </trkpt>
      <trkpt lat="42.020838" lon="0.999377">
        <ele>1679.0</ele>
        <time>2015-08-29T10:29:15Z</time>
      </trkpt>
      <trkpt lat="42.020840" lon="0.999492">
        <ele>1678.0</ele>
        <time>2015-08-29T10:29:16Z</time>
      </trkpt>
      <trkpt lat="42.020832" lon="0.999583">
        <ele>1680.0</ele>
        <time>2015-08-29T10:29:17Z</time>
      </trkpt>
      <trkpt lat="42.020823" lon="0.999675">
        <ele>1683.0</ele>
        <time>2015-08-29T10:29:18Z</time>
      </trkpt>
      <trkpt lat="42.020842" lon="0.999792">
        <ele>1682.0</ele>
        <time>2015-08-29T10:29:19Z</time>
      </trkpt>
      <trkpt lat="42.020862" lon="0.999902">
        <ele>1682.0</ele>
        <time>2015-08-29T10:29:20Z</time>
      </trkpt>
      <trkpt lat="42.020880" lon="1.000002">
        <ele>1682.0</ele>
        <time>2015-08-29T10:29:21Z</time>
      </trkpt>
      <trkpt lat="42.020893" lon="1.000083">
        <ele>1683.0</ele>
        <time>2015-08-29T10:29:22Z</time>
      </trkpt>
      <trkpt lat="42.020897" lon="1.000150">
        <ele>1683.0</ele>
        <time>2015-08-29T10:29:23Z</time>
      </trkpt>
      <trkpt lat="42.020902" lon="1.000290">
        <ele>1680.0</ele>
        <time>2015-08-29T10:29:25Z</time>
      </trkpt>
      <trkpt lat="42.020903" lon="1.000375">
        <ele>1679.0</ele>
        <time>2015-08-29T10:29:26Z</time>
      </trkpt>
      <trkpt lat="42.020902" lon="1.000470">
        <ele>1678.0</ele>
        <time>2015-08-29T10:29:27Z</time>
      </trkpt>
      <trkpt lat="42.020903" lon="1.000592">
        <ele>1677.0</ele>
        <time>2015-08-29T10:29:28Z</time>
      </trkpt>
      <trkpt lat="42.020902" lon="1.000712">
        <ele>1675.0</ele>
        <time>2015-08-29T10:29:29Z</time>
      </trkpt>
      <trkpt lat="42.020898" lon="1.000815">
        <ele>1674.0</ele>
        <time>2015-08-29T10:29:30Z</time>
      </trkpt>
      <trkpt lat="42.020900" lon="1.000915">
        <ele>1673.0</ele>
        <time>2015-08-29T10:29:31Z</time>
      </trkpt>
      <trkpt lat="42.020900" lon="1.001028">
        <ele>1671.0</ele>
        <time>2015-08-29T10:29:32Z</time>
      </trkpt>
      <trkpt lat="42.020907" lon="1.001165">
        <ele>1669.0</ele>
        <time>2015-08-29T10:29:33Z</time>
      </trkpt>
      <trkpt lat="42.020905" lon="1.001278">
        <ele>1670.0</ele>
        <time>2015-08-29T10:29:34Z</time>
      </trkpt>
      <trkpt lat="42.020910" lon="1.001375">
        <ele>1669.0</ele>
        <time>2015-08-29T10:29:35Z</time>
      </trkpt>
      <trkpt lat="42.020920" lon="1.001468">
        <ele>1666.0</ele>
        <time>2015-08-29T10:29:36Z</time>
      </trkpt>
      <trkpt lat="42.020925" lon="1.001567">
        <ele>1663.0</ele>
        <time>2015-08-29T10:29:37Z</time>
      </trkpt>
      <trkpt lat="42.020922" lon="1.001670">
        <ele>1661.0</ele>
        <time>2015-08-29T10:29:38Z</time>
      </trkpt>
      <trkpt lat="42.020912" lon="1.001783">
        <ele>1658.0</ele>
        <time>2015-08-29T10:29:39Z</time>
      </trkpt>
      <trkpt lat="42.020900" lon="1.001905">
        <ele>1657.0</ele>
        <time>2015-08-29T10:29:40Z</time>
      </trkpt>
      <trkpt lat="42.020890" lon="1.002028">
        <ele>1655.0</ele>
        <time>2015-08-29T10:29:41Z</time>
      </trkpt>
      <trkpt lat="42.020885" lon="1.002143">
        <ele>1654.0</ele>
        <time>2015-08-29T10:29:42Z</time>
      </trkpt>
      <trkpt lat="42.020887" lon="1.002263">
        <ele>1650.0</ele>
        <time>2015-08-29T10:29:43Z</time>
      </trkpt>
      <trkpt lat="42.020882" lon="1.002365">
        <ele>1650.0</ele>
        <time>2015-08-29T10:29:44Z</time>
      </trkpt>
      <trkpt lat="42.020885" lon="1.002478">
        <ele>1649.0</ele>
        <time>2015-08-29T10:29:45Z</time>
      </trkpt>
      <trkpt lat="42.020903" lon="1.002603">
        <ele>1647.0</ele>
        <time>2015-08-29T10:29:46Z</time>
      </trkpt>
      <trkpt lat="42.020925" lon="1.002722">
        <ele>1647.0</ele>
        <time>2015-08-29T10:29:47Z</time>
      </trkpt>
      <trkpt lat="42.020945" lon="1.002822">
        <ele>1647.0</ele>
        <time>2015-08-29T10:29:48Z</time>
      </trkpt>
      <trkpt lat="42.020970" lon="1.002910">
        <ele>1648.0</ele>
        <time>2015-08-29T10:29:49Z</time>
      </trkpt>
      <trkpt lat="42.020992" lon="1.002987">
        <ele>1647.0</ele>
        <time>2015-08-29T10:29:50Z</time>
      </trkpt>
      <trkpt lat="42.021000" lon="1.003065">
        <ele>1647.0</ele>
        <time>2015-08-29T10:29:51Z</time>
      </trkpt>
      <trkpt lat="42.021005" lon="1.003157">
        <ele>1647.0</ele>
        <time>2015-08-29T10:29:52Z</time>
      </trkpt>
      <trkpt lat="42.021013" lon="1.003262">
        <ele>1647.0</ele>
        <time>2015-08-29T10:29:53Z</time>
      </trkpt>
      <trkpt lat="42.021030" lon="1.003368">
        <ele>1647.0</ele>
        <time>2015-08-29T10:29:54Z</time>
      </trkpt>
      <trkpt lat="42.021045" lon="1.003465">
        <ele>1647.0</ele>
        <time>2015-08-29T10:29:55Z</time>
      </trkpt>
      <trkpt lat="42.021052" lon="1.003552">
        <ele>1647.0</ele>
        <time>2015-08-29T10:29:56Z</time>
      </trkpt>
      <trkpt lat="42.021040" lon="1.003635">
        <ele>1648.0</ele>
        <time>2015-08-29T10:29:57Z</time>
      </trkpt>
      <trkpt lat="42.021015" lon="1.003718">
        <ele>1648.0</ele>
        <time>2015-08-29T10:29:58Z</time>
      </trkpt>
      <trkpt lat="42.020993" lon="1.003813">
        <ele>1648.0</ele>
        <time>2015-08-29T10:29:59Z</time>
      </trkpt>
      <trkpt lat="42.020977" lon="1.003913">
        <ele>1648.0</ele>
        <time>2015-08-29T10:30:00Z</time>
      </trkpt>
      <trkpt lat="42.020965" lon="1.004002">
        <ele>1649.0</ele>
        <time>2015-08-29T10:30:01Z</time>
      </trkpt>
      <trkpt lat="42.020952" lon="1.004090">
        <ele>1651.0</ele>
        <time>2015-08-29T10:30:02Z</time>
      </trkpt>
      <trkpt lat="42.020943" lon="1.004192">
        <ele>1649.0</ele>
        <time>2015-08-29T10:30:03Z</time>
      </trkpt>
      <trkpt lat="42.020935" lon="1.004282">
        <ele>1647.0</ele>
        <time>2015-08-29T10:30:04Z</time>
      </trkpt>
      <trkpt lat="42.020930" lon="1.004380">
        <ele>1646.0</ele>
        <time>2015-08-29T10:30:05Z</time>
      </trkpt>
      <trkpt lat="42.020932" lon="1.004488">
        <ele>1644.0</ele>
        <time>2015-08-29T10:30:06Z</time>
      </trkpt>
      <trkpt lat="42.020940" lon="1.004598">
        <ele>1643.0</ele>
        <time>2015-08-29T10:30:07Z</time>
      </trkpt>
      <trkpt lat="42.020950" lon="1.004707">
        <ele>1641.0</ele>
        <time>2015-08-29T10:30:08Z</time>
      </trkpt>
      <trkpt lat="42.020963" lon="1.004813">
        <ele>1640.0</ele>
        <time>2015-08-29T10:30:09Z</time>
      </trkpt>
      <trkpt lat="42.020982" lon="1.004917">
        <ele>1638.0</ele>
        <time>2015-08-29T10:30:10Z</time>
      </trkpt>
      <trkpt lat="42.021003" lon="1.005018">
        <ele>1636.0</ele>
        <time>2015-08-29T10:30:11Z</time>
      </trkpt>
      <trkpt lat="42.021032" lon="1.005130">
        <ele>1633.0</ele>
        <time>2015-08-29T10:30:12Z</time>
      </trkpt>
      <trkpt lat="42.021060" lon="1.005250">
        <ele>1631.0</ele>
        <time>2015-08-29T10:30:13Z</time>
      </trkpt>
      <trkpt lat="42.021092" lon="1.005383">
        <ele>1629.0</ele>
        <time>2015-08-29T10:30:14Z</time>
      </trkpt>
      <trkpt lat="42.021110" lon="1.005500">
        <ele>1628.0</ele>
        <time>2015-08-29T10:30:15Z</time>
      </trkpt>
      <trkpt lat="42.021122" lon="1.005600">
        <ele>1626.0</ele>
        <time>2015-08-29T10:30:16Z</time>
      </trkpt>
      <trkpt lat="42.021120" lon="1.005693">
        <ele>1624.0</ele>
        <time>2015-08-29T10:30:17Z</time>
      </trkpt>
      <trkpt lat="42.021113" lon="1.005775">
        <ele>1623.0</ele>
        <time>2015-08-29T10:30:18Z</time>
      </trkpt>
      <trkpt lat="42.021118" lon="1.005882">
        <ele>1621.0</ele>
        <time>2015-08-29T10:30:19Z</time>
      </trkpt>
      <trkpt lat="42.021138" lon="1.006007">
        <ele>1618.0</ele>
        <time>2015-08-29T10:30:20Z</time>
      </trkpt>
      <trkpt lat="42.021155" lon="1.006122">
        <ele>1616.0</ele>
        <time>2015-08-29T10:30:21Z</time>
      </trkpt>
      <trkpt lat="42.021165" lon="1.006220">
        <ele>1615.0</ele>
        <time>2015-08-29T10:30:22Z</time>
      </trkpt>
      <trkpt lat="42.021175" lon="1.006322">
        <ele>1613.0</ele>
        <time>2015-08-29T10:30:23Z</time>
      </trkpt>
      <trkpt lat="42.021187" lon="1.006423">
        <ele>1611.0</ele>
        <time>2015-08-29T10:30:24Z</time>
      </trkpt>
      <trkpt lat="42.021208" lon="1.006537">
        <ele>1610.0</ele>
        <time>2015-08-29T10:30:25Z</time>
      </trkpt>
      <trkpt lat="42.021233" lon="1.006645">
        <ele>1609.0</ele>
        <time>2015-08-29T10:30:26Z</time>
      </trkpt>
      <trkpt lat="42.021262" lon="1.006747">
        <ele>1607.0</ele>
        <time>2015-08-29T10:30:27Z</time>
      </trkpt>
      <trkpt lat="42.021287" lon="1.006833">
        <ele>1605.0</ele>
        <time>2015-08-29T10:30:28Z</time>
      </trkpt>
      <trkpt lat="42.021305" lon="1.006918">
        <ele>1603.0</ele>
        <time>2015-08-29T10:30:29Z</time>
      </trkpt>
      <trkpt lat="42.021322" lon="1.007015">
        <ele>1602.0</ele>
        <time>2015-08-29T10:30:30Z</time>
      </trkpt>
      <trkpt lat="42.021340" lon="1.007137">
        <ele>1601.0</ele>
        <time>2015-08-29T10:30:31Z</time>
      </trkpt>
      <trkpt lat="42.021358" lon="1.007255">
        <ele>1599.0</ele>
        <time>2015-08-29T10:30:32Z</time>
      </trkpt>
      <trkpt lat="42.021368" lon="1.007357">
        <ele>1599.0</ele>
        <time>2015-08-29T10:30:33Z</time>
      </trkpt>
      <trkpt lat="42.021362" lon="1.007447">
        <ele>1598.0</ele>
        <time>2015-08-29T10:30:34Z</time>
      </trkpt>
      <trkpt lat="42.021343" lon="1.007518">
        <ele>1598.0</ele>
        <time>2015-08-29T10:30:35Z</time>
      </trkpt>
      <trkpt lat="42.021325" lon="1.007612">
        <ele>1597.0</ele>
        <time>2015-08-29T10:30:36Z</time>
      </trkpt>
      <trkpt lat="42.021303" lon="1.007708">
        <ele>1596.0</ele>
        <time>2015-08-29T10:30:37Z</time>
      </trkpt>
      <trkpt lat="42.021272" lon="1.007787">
        <ele>1595.0</ele>
        <time>2015-08-29T10:30:38Z</time>
      </trkpt>
      <trkpt lat="42.021235" lon="1.007855">
        <ele>1594.0</ele>
        <time>2015-08-29T10:30:39Z</time>
      </trkpt>
      <trkpt lat="42.021198" lon="1.007903">
        <ele>1593.0</ele>
        <time>2015-08-29T10:30:40Z</time>
      </trkpt>
      <trkpt lat="42.021157" lon="1.007950">
        <ele>1591.0</ele>
        <time>2015-08-29T10:30:41Z</time>
      </trkpt>
      <trkpt lat="42.021115" lon="1.007995">
        <ele>1590.0</ele>
        <time>2015-08-29T10:30:42Z</time>
      </trkpt>
      <trkpt lat="42.021065" lon="1.008048">
        <ele>1589.0</ele>
        <time>2015-08-29T10:30:43Z</time>
      </trkpt>
      <trkpt lat="42.021012" lon="1.008098">
        <ele>1588.0</ele>
        <time>2015-08-29T10:30:44Z</time>
      </trkpt>
      <trkpt lat="42.020968" lon="1.008157">
        <ele>1588.0</ele>
        <time>2015-08-29T10:30:45Z</time>
      </trkpt>
      <trkpt lat="42.020940" lon="1.008248">
        <ele>1588.0</ele>
        <time>2015-08-29T10:30:46Z</time>
      </trkpt>
      <trkpt lat="42.020925" lon="1.008365">
        <ele>1586.0</ele>
        <time>2015-08-29T10:30:47Z</time>
      </trkpt>
      <trkpt lat="42.020913" lon="1.008483">
        <ele>1584.0</ele>
        <time>2015-08-29T10:30:48Z</time>
      </trkpt>
      <trkpt lat="42.020908" lon="1.008603">
        <ele>1583.0</ele>
        <time>2015-08-29T10:30:49Z</time>
      </trkpt>
      <trkpt lat="42.020912" lon="1.008722">
        <ele>1582.0</ele>
        <time>2015-08-29T10:30:50Z</time>
      </trkpt>
      <trkpt lat="42.020925" lon="1.008840">
        <ele>1580.0</ele>
        <time>2015-08-29T10:30:51Z</time>
      </trkpt>
      <trkpt lat="42.020943" lon="1.008967">
        <ele>1580.0</ele>
        <time>2015-08-29T10:30:52Z</time>
      </trkpt>
      <trkpt lat="42.020963" lon="1.009092">
        <ele>1579.0</ele>
        <time>2015-08-29T10:30:53Z</time>
      </trkpt>
      <trkpt lat="42.020983" lon="1.009210">
        <ele>1579.0</ele>
        <time>2015-08-29T10:30:54Z</time>
      </trkpt>
      <trkpt lat="42.021007" lon="1.009327">
        <ele>1578.0</ele>
        <time>2015-08-29T10:30:55Z</time>
      </trkpt>
      <trkpt lat="42.021032" lon="1.009452">
        <ele>1577.0</ele>
        <time>2015-08-29T10:30:56Z</time>
      </trkpt>
      <trkpt lat="42.021055" lon="1.009585">
        <ele>1575.0</ele>
        <time>2015-08-29T10:30:57Z</time>
      </trkpt>
      <trkpt lat="42.021078" lon="1.009722">
        <ele>1574.0</ele>
        <time>2015-08-29T10:30:58Z</time>
      </trkpt>
      <trkpt lat="42.021105" lon="1.009858">
        <ele>1573.0</ele>
        <time>2015-08-29T10:30:59Z</time>
      </trkpt>
      <trkpt lat="42.021137" lon="1.009993">
        <ele>1571.0</ele>
        <time>2015-08-29T10:31:00Z</time>
      </trkpt>
      <trkpt lat="42.021172" lon="1.010127">
        <ele>1570.0</ele>
        <time>2015-08-29T10:31:01Z</time>
      </trkpt>
      <trkpt lat="42.021197" lon="1.010242">
        <ele>1570.0</ele>
        <time>2015-08-29T10:31:02Z</time>
      </trkpt>
      <trkpt lat="42.021232" lon="1.010357">
        <ele>1570.0</ele>
        <time>2015-08-29T10:31:03Z</time>
      </trkpt>
      <trkpt lat="42.021272" lon="1.010468">
        <ele>1568.0</ele>
        <time>2015-08-29T10:31:04Z</time>
      </trkpt>
      <trkpt lat="42.021298" lon="1.010563">
        <ele>1566.0</ele>
        <time>2015-08-29T10:31:05Z</time>
      </trkpt>
      <trkpt lat="42.021317" lon="1.010645">
        <ele>1566.0</ele>
        <time>2015-08-29T10:31:06Z</time>
      </trkpt>
      <trkpt lat="42.021330" lon="1.010723">
        <ele>1566.0</ele>
        <time>2015-08-29T10:31:07Z</time>
      </trkpt>
      <trkpt lat="42.021343" lon="1.010813">
        <ele>1566.0</ele>
        <time>2015-08-29T10:31:08Z</time>
      </trkpt>
      <trkpt lat="42.021357" lon="1.010905">
        <ele>1565.0</ele>
        <time>2015-08-29T10:31:09Z</time>
      </trkpt>
      <trkpt lat="42.021373" lon="1.010997">
        <ele>1565.0</ele>
        <time>2015-08-29T10:31:10Z</time>
      </trkpt>
      <trkpt lat="42.021393" lon="1.011087">
        <ele>1564.0</ele>
        <time>2015-08-29T10:31:11Z</time>
      </trkpt>
      <trkpt lat="42.021418" lon="1.011172">
        <ele>1564.0</ele>
        <time>2015-08-29T10:31:12Z</time>
      </trkpt>
      <trkpt lat="42.021443" lon="1.011257">
        <ele>1563.0</ele>
        <time>2015-08-29T10:31:13Z</time>
      </trkpt>
      <trkpt lat="42.021462" lon="1.011347">
        <ele>1562.0</ele>
        <time>2015-08-29T10:31:14Z</time>
      </trkpt>
      <trkpt lat="42.021475" lon="1.011445">
        <ele>1562.0</ele>
        <time>2015-08-29T10:31:15Z</time>
      </trkpt>
      <trkpt lat="42.021485" lon="1.011538">
        <ele>1562.0</ele>
        <time>2015-08-29T10:31:16Z</time>
      </trkpt>
      <trkpt lat="42.021480" lon="1.011613">
        <ele>1562.0</ele>
        <time>2015-08-29T10:31:17Z</time>
      </trkpt>
      <trkpt lat="42.021468" lon="1.011667">
        <ele>1562.0</ele>
        <time>2015-08-29T10:31:18Z</time>
      </trkpt>
      <trkpt lat="42.021445" lon="1.011707">
        <ele>1563.0</ele>
        <time>2015-08-29T10:31:19Z</time>
      </trkpt>
      <trkpt lat="42.021422" lon="1.011767">
        <ele>1564.0</ele>
        <time>2015-08-29T10:31:20Z</time>
      </trkpt>
      <trkpt lat="42.021412" lon="1.011863">
        <ele>1562.0</ele>
        <time>2015-08-29T10:31:21Z</time>
      </trkpt>
      <trkpt lat="42.021407" lon="1.011963">
        <ele>1561.0</ele>
        <time>2015-08-29T10:31:22Z</time>
      </trkpt>
      <trkpt lat="42.021397" lon="1.012042">
        <ele>1560.0</ele>
        <time>2015-08-29T10:31:23Z</time>
      </trkpt>
      <trkpt lat="42.021393" lon="1.012105">
        <ele>1559.0</ele>
        <time>2015-08-29T10:31:24Z</time>
      </trkpt>
      <trkpt lat="42.021405" lon="1.012168">
        <ele>1558.0</ele>
        <time>2015-08-29T10:31:25Z</time>
      </trkpt>
      <trkpt lat="42.021415" lon="1.012222">
        <ele>1557.0</ele>
        <time>2015-08-29T10:31:26Z</time>
      </trkpt>
      <trkpt lat="42.021418" lon="1.012283">
        <ele>1557.0</ele>
        <time>2015-08-29T10:31:27Z</time>
      </trkpt>
      <trkpt lat="42.021413" lon="1.012357">
        <ele>1557.0</ele>
        <time>2015-08-29T10:31:28Z</time>
      </trkpt>
      <trkpt lat="42.021408" lon="1.012440">
        <ele>1556.0</ele>
        <time>2015-08-29T10:31:29Z</time>
      </trkpt>
      <trkpt lat="42.021405" lon="1.012523">
        <ele>1556.0</ele>
        <time>2015-08-29T10:31:30Z</time>
      </trkpt>
      <trkpt lat="42.021408" lon="1.012597">
        <ele>1556.0</ele>
        <time>2015-08-29T10:31:31Z</time>
      </trkpt>
      <trkpt lat="42.021412" lon="1.012667">
        <ele>1556.0</ele>
        <time>2015-08-29T10:31:32Z</time>
      </trkpt>
      <trkpt lat="42.021413" lon="1.012750">
        <ele>1556.0</ele>
        <time>2015-08-29T10:31:33Z</time>
      </trkpt>
      <trkpt lat="42.021415" lon="1.012850">
        <ele>1556.0</ele>
        <time>2015-08-29T10:31:34Z</time>
      </trkpt>
      <trkpt lat="42.021430" lon="1.012978">
        <ele>1555.0</ele>
        <time>2015-08-29T10:31:35Z</time>
      </trkpt>
      <trkpt lat="42.021432" lon="1.013077">
        <ele>1557.0</ele>
        <time>2015-08-29T10:31:36Z</time>
      </trkpt>
      <trkpt lat="42.021445" lon="1.013178">
        <ele>1558.0</ele>
        <time>2015-08-29T10:31:37Z</time>
      </trkpt>
      <trkpt lat="42.021468" lon="1.013283">
        <ele>1558.0</ele>
        <time>2015-08-29T10:31:38Z</time>
      </trkpt>
      <trkpt lat="42.021487" lon="1.013383">
        <ele>1558.0</ele>
        <time>2015-08-29T10:31:39Z</time>
      </trkpt>
      <trkpt lat="42.021503" lon="1.013483">
        <ele>1558.0</ele>
        <time>2015-08-29T10:31:40Z</time>
      </trkpt>
      <trkpt lat="42.021513" lon="1.013585">
        <ele>1559.0</ele>
        <time>2015-08-29T10:31:41Z</time>
      </trkpt>
      <trkpt lat="42.021513" lon="1.013688">
        <ele>1560.0</ele>
        <time>2015-08-29T10:31:42Z</time>
      </trkpt>
      <trkpt lat="42.021520" lon="1.013800">
        <ele>1561.0</ele>
        <time>2015-08-29T10:31:43Z</time>
      </trkpt>
      <trkpt lat="42.021537" lon="1.013922">
        <ele>1561.0</ele>
        <time>2015-08-29T10:31:44Z</time>
      </trkpt>
      <trkpt lat="42.021570" lon="1.014048">
        <ele>1559.0</ele>
        <time>2015-08-29T10:31:45Z</time>
      </trkpt>
      <trkpt lat="42.021587" lon="1.014152">
        <ele>1562.0</ele>
        <time>2015-08-29T10:31:46Z</time>
      </trkpt>
      <trkpt lat="42.021607" lon="1.014250">
        <ele>1565.0</ele>
        <time>2015-08-29T10:31:47Z</time>
      </trkpt>
      <trkpt lat="42.021640" lon="1.014353">
        <ele>1564.0</ele>
        <time>2015-08-29T10:31:48Z</time>
      </trkpt>
      <trkpt lat="42.021667" lon="1.014440">
        <ele>1563.0</ele>
        <time>2015-08-29T10:31:49Z</time>
      </trkpt>
      <trkpt lat="42.021692" lon="1.014543">
        <ele>1562.0</ele>
        <time>2015-08-29T10:31:50Z</time>
      </trkpt>
      <trkpt lat="42.021713" lon="1.014667">
        <ele>1561.0</ele>
        <time>2015-08-29T10:31:51Z</time>
      </trkpt>
      <trkpt lat="42.021737" lon="1.014797">
        <ele>1560.0</ele>
        <time>2015-08-29T10:31:52Z</time>
      </trkpt>
      <trkpt lat="42.021763" lon="1.014915">
        <ele>1562.0</ele>
        <time>2015-08-29T10:31:53Z</time>
      </trkpt>
      <trkpt lat="42.021795" lon="1.015010">
        <ele>1562.0</ele>
        <time>2015-08-29T10:31:54Z</time>
      </trkpt>
      <trkpt lat="42.021817" lon="1.015092">
        <ele>1561.0</ele>
        <time>2015-08-29T10:31:55Z</time>
      </trkpt>
      <trkpt lat="42.021827" lon="1.015177">
        <ele>1560.0</ele>
        <time>2015-08-29T10:31:56Z</time>
      </trkpt>
      <trkpt lat="42.021835" lon="1.015280">
        <ele>1560.0</ele>
        <time>2015-08-29T10:31:57Z</time>
      </trkpt>
      <trkpt lat="42.021860" lon="1.015407">
        <ele>1560.0</ele>
        <time>2015-08-29T10:31:58Z</time>
      </trkpt>
      <trkpt lat="42.021888" lon="1.015523">
        <ele>1559.0</ele>
        <time>2015-08-29T10:31:59Z</time>
      </trkpt>
      <trkpt lat="42.021920" lon="1.015628">
        <ele>1559.0</ele>
        <time>2015-08-29T10:32:00Z</time>
      </trkpt>
      <trkpt lat="42.021940" lon="1.015730">
        <ele>1559.0</ele>
        <time>2015-08-29T10:32:01Z</time>
      </trkpt>
      <trkpt lat="42.021960" lon="1.015845">
        <ele>1558.0</ele>
        <time>2015-08-29T10:32:02Z</time>
      </trkpt>
      <trkpt lat="42.021975" lon="1.015958">
        <ele>1559.0</ele>
        <time>2015-08-29T10:32:03Z</time>
      </trkpt>
      <trkpt lat="42.022000" lon="1.016082">
        <ele>1559.0</ele>
        <time>2015-08-29T10:32:04Z</time>
      </trkpt>
      <trkpt lat="42.022023" lon="1.016195">
        <ele>1558.0</ele>
        <time>2015-08-29T10:32:05Z</time>
      </trkpt>
      <trkpt lat="42.022032" lon="1.016297">
        <ele>1558.0</ele>
        <time>2015-08-29T10:32:06Z</time>
      </trkpt>
      <trkpt lat="42.022028" lon="1.016392">
        <ele>1558.0</ele>
        <time>2015-08-29T10:32:07Z</time>
      </trkpt>
      <trkpt lat="42.022015" lon="1.016492">
        <ele>1559.0</ele>
        <time>2015-08-29T10:32:08Z</time>
      </trkpt>
      <trkpt lat="42.022002" lon="1.016598">
        <ele>1560.0</ele>
        <time>2015-08-29T10:32:09Z</time>
      </trkpt>
      <trkpt lat="42.021997" lon="1.016710">
        <ele>1560.0</ele>
        <time>2015-08-29T10:32:10Z</time>
      </trkpt>
      <trkpt lat="42.022000" lon="1.016822">
        <ele>1560.0</ele>
        <time>2015-08-29T10:32:11Z</time>
      </trkpt>
      <trkpt lat="42.022002" lon="1.016923">
        <ele>1560.0</ele>
        <time>2015-08-29T10:32:12Z</time>
      </trkpt>
      <trkpt lat="42.022013" lon="1.017032">
        <ele>1559.0</ele>
        <time>2015-08-29T10:32:13Z</time>
      </trkpt>
      <trkpt lat="42.022030" lon="1.017152">
        <ele>1559.0</ele>
        <time>2015-08-29T10:32:14Z</time>
      </trkpt>
      <trkpt lat="42.022050" lon="1.017285">
        <ele>1558.0</ele>
        <time>2015-08-29T10:32:15Z</time>
      </trkpt>
      <trkpt lat="42.022072" lon="1.017415">
        <ele>1558.0</ele>
        <time>2015-08-29T10:32:16Z</time>
      </trkpt>
      <trkpt lat="42.022095" lon="1.017530">
        <ele>1558.0</ele>
        <time>2015-08-29T10:32:17Z</time>
      </trkpt>
      <trkpt lat="42.022112" lon="1.017647">
        <ele>1557.0</ele>
        <time>2015-08-29T10:32:18Z</time>
      </trkpt>
      <trkpt lat="42.022117" lon="1.017772">
        <ele>1556.0</ele>
        <time>2015-08-29T10:32:19Z</time>
      </trkpt>
      <trkpt lat="42.022113" lon="1.017887">
        <ele>1559.0</ele>
        <time>2015-08-29T10:32:20Z</time>
      </trkpt>
      <trkpt lat="42.022125" lon="1.018012">
        <ele>1560.0</ele>
        <time>2015-08-29T10:32:21Z</time>
      </trkpt>
      <trkpt lat="42.022140" lon="1.018132">
        <ele>1559.0</ele>
        <time>2015-08-29T10:32:22Z</time>
      </trkpt>
      <trkpt lat="42.022148" lon="1.018242">
        <ele>1557.0</ele>
        <time>2015-08-29T10:32:23Z</time>
      </trkpt>
      <trkpt lat="42.022153" lon="1.018345">
        <ele>1555.0</ele>
        <time>2015-08-29T10:32:24Z</time>
      </trkpt>
      <trkpt lat="42.022158" lon="1.018453">
        <ele>1554.0</ele>
        <time>2015-08-29T10:32:25Z</time>
      </trkpt>
      <trkpt lat="42.022165" lon="1.018562">
        <ele>1552.0</ele>
        <time>2015-08-29T10:32:26Z</time>
      </trkpt>
      <trkpt lat="42.022170" lon="1.018663">
        <ele>1550.0</ele>
        <time>2015-08-29T10:32:27Z</time>
      </trkpt>
      <trkpt lat="42.022170" lon="1.018755">
        <ele>1549.0</ele>
        <time>2015-08-29T10:32:28Z</time>
      </trkpt>
      <trkpt lat="42.022168" lon="1.018847">
        <ele>1547.0</ele>
        <time>2015-08-29T10:32:29Z</time>
      </trkpt>
      <trkpt lat="42.022163" lon="1.018952">
        <ele>1546.0</ele>
        <time>2015-08-29T10:32:30Z</time>
      </trkpt>
      <trkpt lat="42.022158" lon="1.019068">
        <ele>1544.0</ele>
        <time>2015-08-29T10:32:31Z</time>
      </trkpt>
      <trkpt lat="42.022160" lon="1.019182">
        <ele>1542.0</ele>
        <time>2015-08-29T10:32:32Z</time>
      </trkpt>
      <trkpt lat="42.022163" lon="1.019288">
        <ele>1541.0</ele>
        <time>2015-08-29T10:32:33Z</time>
      </trkpt>
      <trkpt lat="42.022167" lon="1.019385">
        <ele>1539.0</ele>
        <time>2015-08-29T10:32:34Z</time>
      </trkpt>
      <trkpt lat="42.022163" lon="1.019485">
        <ele>1538.0</ele>
        <time>2015-08-29T10:32:35Z</time>
      </trkpt>
      <trkpt lat="42.022163" lon="1.019597">
        <ele>1535.0</ele>
        <time>2015-08-29T10:32:36Z</time>
      </trkpt>
      <trkpt lat="42.022157" lon="1.019698">
        <ele>1535.0</ele>
        <time>2015-08-29T10:32:37Z</time>
      </trkpt>
      <trkpt lat="42.022160" lon="1.019813">
        <ele>1534.0</ele>
        <time>2015-08-29T10:32:38Z</time>
      </trkpt>
      <trkpt lat="42.022168" lon="1.019923">
        <ele>1531.0</ele>
        <time>2015-08-29T10:32:39Z</time>
      </trkpt>
      <trkpt lat="42.022173" lon="1.020025">
        <ele>1530.0</ele>
        <time>2015-08-29T10:32:40Z</time>
      </trkpt>
      <trkpt lat="42.022178" lon="1.020125">
        <ele>1528.0</ele>
        <time>2015-08-29T10:32:41Z</time>
      </trkpt>
      <trkpt lat="42.022190" lon="1.020230">
        <ele>1527.0</ele>
        <time>2015-08-29T10:32:42Z</time>
      </trkpt>
      <trkpt lat="42.022202" lon="1.020337">
        <ele>1525.0</ele>
        <time>2015-08-29T10:32:43Z</time>
      </trkpt>
      <trkpt lat="42.022212" lon="1.020442">
        <ele>1523.0</ele>
        <time>2015-08-29T10:32:44Z</time>
      </trkpt>
      <trkpt lat="42.022218" lon="1.020548">
        <ele>1522.0</ele>
        <time>2015-08-29T10:32:45Z</time>
      </trkpt>
      <trkpt lat="42.022220" lon="1.020665">
        <ele>1520.0</ele>
        <time>2015-08-29T10:32:46Z</time>
      </trkpt>
      <trkpt lat="42.022212" lon="1.020780">
        <ele>1521.0</ele>
        <time>2015-08-29T10:32:47Z</time>
      </trkpt>
      <trkpt lat="42.022202" lon="1.020908">
        <ele>1522.0</ele>
        <time>2015-08-29T10:32:48Z</time>
      </trkpt>
      <trkpt lat="42.022203" lon="1.021042">
        <ele>1521.0</ele>
        <time>2015-08-29T10:32:49Z</time>
      </trkpt>
      <trkpt lat="42.022202" lon="1.021167">
        <ele>1520.0</ele>
        <time>2015-08-29T10:32:50Z</time>
      </trkpt>
      <trkpt lat="42.022207" lon="1.021278">
        <ele>1519.0</ele>
        <time>2015-08-29T10:32:51Z</time>
      </trkpt>
      <trkpt lat="42.022208" lon="1.021392">
        <ele>1518.0</ele>
        <time>2015-08-29T10:32:52Z</time>
      </trkpt>
      <trkpt lat="42.022207" lon="1.021503">
        <ele>1517.0</ele>
        <time>2015-08-29T10:32:53Z</time>
      </trkpt>
      <trkpt lat="42.022210" lon="1.021617">
        <ele>1516.0</ele>
        <time>2015-08-29T10:32:54Z</time>
      </trkpt>
      <trkpt lat="42.022218" lon="1.021730">
        <ele>1515.0</ele>
        <time>2015-08-29T10:32:55Z</time>
      </trkpt>
      <trkpt lat="42.022232" lon="1.021842">
        <ele>1514.0</ele>
        <time>2015-08-29T10:32:56Z</time>
      </trkpt>
      <trkpt lat="42.022248" lon="1.021947">
        <ele>1513.0</ele>
        <time>2015-08-29T10:32:57Z</time>
      </trkpt>
      <trkpt lat="42.022267" lon="1.022048">
        <ele>1512.0</ele>
        <time>2015-08-29T10:32:58Z</time>
      </trkpt>
      <trkpt lat="42.022283" lon="1.022152">
        <ele>1511.0</ele>
        <time>2015-08-29T10:32:59Z</time>
      </trkpt>
      <trkpt lat="42.022297" lon="1.022262">
        <ele>1509.0</ele>
        <time>2015-08-29T10:33:00Z</time>
      </trkpt>
      <trkpt lat="42.022308" lon="1.022377">
        <ele>1508.0</ele>
        <time>2015-08-29T10:33:01Z</time>
      </trkpt>
      <trkpt lat="42.022322" lon="1.022488">
        <ele>1507.0</ele>
        <time>2015-08-29T10:33:02Z</time>
      </trkpt>
      <trkpt lat="42.022332" lon="1.022597">
        <ele>1506.0</ele>
        <time>2015-08-29T10:33:03Z</time>
      </trkpt>
      <trkpt lat="42.022337" lon="1.022697">
        <ele>1507.0</ele>
        <time>2015-08-29T10:33:04Z</time>
      </trkpt>
      <trkpt lat="42.022348" lon="1.022808">
        <ele>1508.0</ele>
        <time>2015-08-29T10:33:05Z</time>
      </trkpt>
      <trkpt lat="42.022363" lon="1.022925">
        <ele>1505.0</ele>
        <time>2015-08-29T10:33:06Z</time>
      </trkpt>
      <trkpt lat="42.022380" lon="1.023037">
        <ele>1503.0</ele>
        <time>2015-08-29T10:33:07Z</time>
      </trkpt>
      <trkpt lat="42.022398" lon="1.023142">
        <ele>1501.0</ele>
        <time>2015-08-29T10:33:08Z</time>
      </trkpt>
      <trkpt lat="42.022420" lon="1.023240">
        <ele>1499.0</ele>
        <time>2015-08-29T10:33:09Z</time>
      </trkpt>
      <trkpt lat="42.022440" lon="1.023338">
        <ele>1498.0</ele>
        <time>2015-08-29T10:33:10Z</time>
      </trkpt>
      <trkpt lat="42.022453" lon="1.023445">
        <ele>1496.0</ele>
        <time>2015-08-29T10:33:11Z</time>
      </trkpt>
      <trkpt lat="42.022457" lon="1.023552">
        <ele>1494.0</ele>
        <time>2015-08-29T10:33:12Z</time>
      </trkpt>
      <trkpt lat="42.022460" lon="1.023658">
        <ele>1493.0</ele>
        <time>2015-08-29T10:33:13Z</time>
      </trkpt>
      <trkpt lat="42.022470" lon="1.023770">
        <ele>1492.0</ele>
        <time>2015-08-29T10:33:14Z</time>
      </trkpt>
      <trkpt lat="42.022488" lon="1.023883">
        <ele>1490.0</ele>
        <time>2015-08-29T10:33:15Z</time>
      </trkpt>
      <trkpt lat="42.022512" lon="1.023995">
        <ele>1489.0</ele>
        <time>2015-08-29T10:33:16Z</time>
      </trkpt>
      <trkpt lat="42.022532" lon="1.024103">
        <ele>1488.0</ele>
        <time>2015-08-29T10:33:17Z</time>
      </trkpt>
      <trkpt lat="42.022547" lon="1.024213">
        <ele>1487.0</ele>
        <time>2015-08-29T10:33:18Z</time>
      </trkpt>
      <trkpt lat="42.022555" lon="1.024327">
        <ele>1486.0</ele>
        <time>2015-08-29T10:33:19Z</time>
      </trkpt>
      <trkpt lat="42.022573" lon="1.024447">
        <ele>1482.0</ele>
        <time>2015-08-29T10:33:20Z</time>
      </trkpt>
      <trkpt lat="42.022582" lon="1.024550">
        <ele>1483.0</ele>
        <time>2015-08-29T10:33:21Z</time>
      </trkpt>
      <trkpt lat="42.022602" lon="1.024657">
        <ele>1483.0</ele>
        <time>2015-08-29T10:33:22Z</time>
      </trkpt>
      <trkpt lat="42.022627" lon="1.024772">
        <ele>1480.0</ele>
        <time>2015-08-29T10:33:23Z</time>
      </trkpt>
      <trkpt lat="42.022650" lon="1.024883">
        <ele>1479.0</ele>
        <time>2015-08-29T10:33:24Z</time>
      </trkpt>
      <trkpt lat="42.022673" lon="1.024987">
        <ele>1477.0</ele>
        <time>2015-08-29T10:33:25Z</time>
      </trkpt>
      <trkpt lat="42.022693" lon="1.025087">
        <ele>1475.0</ele>
        <time>2015-08-29T10:33:26Z</time>
      </trkpt>
      <trkpt lat="42.022715" lon="1.025188">
        <ele>1473.0</ele>
        <time>2015-08-29T10:33:27Z</time>
      </trkpt>
      <trkpt lat="42.022732" lon="1.025292">
        <ele>1473.0</ele>
        <time>2015-08-29T10:33:28Z</time>
      </trkpt>
      <trkpt lat="42.022743" lon="1.025392">
        <ele>1472.0</ele>
        <time>2015-08-29T10:33:29Z</time>
      </trkpt>
      <trkpt lat="42.022745" lon="1.025487">
        <ele>1471.0</ele>
        <time>2015-08-29T10:33:30Z</time>
      </trkpt>
      <trkpt lat="42.022738" lon="1.025582">
        <ele>1470.0</ele>
        <time>2015-08-29T10:33:31Z</time>
      </trkpt>
      <trkpt lat="42.022728" lon="1.025680">
        <ele>1469.0</ele>
        <time>2015-08-29T10:33:32Z</time>
      </trkpt>
      <trkpt lat="42.022727" lon="1.025778">
        <ele>1468.0</ele>
        <time>2015-08-29T10:33:33Z</time>
      </trkpt>
      <trkpt lat="42.022732" lon="1.025872">
        <ele>1468.0</ele>
        <time>2015-08-29T10:33:34Z</time>
      </trkpt>
      <trkpt lat="42.022752" lon="1.025958">
        <ele>1467.0</ele>
        <time>2015-08-29T10:33:35Z</time>
      </trkpt>
      <trkpt lat="42.022777" lon="1.026042">
        <ele>1466.0</ele>
        <time>2015-08-29T10:33:36Z</time>
      </trkpt>
      <trkpt lat="42.022810" lon="1.026135">
        <ele>1464.0</ele>
        <time>2015-08-29T10:33:37Z</time>
      </trkpt>
      <trkpt lat="42.022832" lon="1.026233">
        <ele>1464.0</ele>
        <time>2015-08-29T10:33:38Z</time>
      </trkpt>
      <trkpt lat="42.022867" lon="1.026347">
        <ele>1462.0</ele>
        <time>2015-08-29T10:33:39Z</time>
      </trkpt>
      <trkpt lat="42.022907" lon="1.026467">
        <ele>1460.0</ele>
        <time>2015-08-29T10:33:40Z</time>
      </trkpt>
      <trkpt lat="42.022943" lon="1.026580">
        <ele>1459.0</ele>
        <time>2015-08-29T10:33:41Z</time>
      </trkpt>
      <trkpt lat="42.022980" lon="1.026682">
        <ele>1458.0</ele>
        <time>2015-08-29T10:33:42Z</time>
      </trkpt>
      <trkpt lat="42.023012" lon="1.026775">
        <ele>1457.0</ele>
        <time>2015-08-29T10:33:43Z</time>
      </trkpt>
      <trkpt lat="42.023037" lon="1.026868">
        <ele>1456.0</ele>
        <time>2015-08-29T10:33:44Z</time>
      </trkpt>
      <trkpt lat="42.023047" lon="1.026968">
        <ele>1455.0</ele>
        <time>2015-08-29T10:33:45Z</time>
      </trkpt>
      <trkpt lat="42.023048" lon="1.027077">
        <ele>1454.0</ele>
        <time>2015-08-29T10:33:46Z</time>
      </trkpt>
      <trkpt lat="42.023048" lon="1.027188">
        <ele>1451.0</ele>
        <time>2015-08-29T10:33:47Z</time>
      </trkpt>
      <trkpt lat="42.023033" lon="1.027287">
        <ele>1452.0</ele>
        <time>2015-08-29T10:33:48Z</time>
      </trkpt>
      <trkpt lat="42.023015" lon="1.027390">
        <ele>1452.0</ele>
        <time>2015-08-29T10:33:49Z</time>
      </trkpt>
      <trkpt lat="42.023002" lon="1.027500">
        <ele>1449.0</ele>
        <time>2015-08-29T10:33:50Z</time>
      </trkpt>
      <trkpt lat="42.022987" lon="1.027595">
        <ele>1448.0</ele>
        <time>2015-08-29T10:33:51Z</time>
      </trkpt>
      <trkpt lat="42.022970" lon="1.027678">
        <ele>1447.0</ele>
        <time>2015-08-29T10:33:52Z</time>
      </trkpt>
      <trkpt lat="42.022957" lon="1.027755">
        <ele>1447.0</ele>
        <time>2015-08-29T10:33:53Z</time>
      </trkpt>
      <trkpt lat="42.022943" lon="1.027832">
        <ele>1445.0</ele>
        <time>2015-08-29T10:33:54Z</time>
      </trkpt>
      <trkpt lat="42.022925" lon="1.027913">
        <ele>1445.0</ele>
        <time>2015-08-29T10:33:55Z</time>
      </trkpt>
      <trkpt lat="42.022910" lon="1.028010">
        <ele>1445.0</ele>
        <time>2015-08-29T10:33:56Z</time>
      </trkpt>
      <trkpt lat="42.022900" lon="1.028113">
        <ele>1444.0</ele>
        <time>2015-08-29T10:33:57Z</time>
      </trkpt>
      <trkpt lat="42.022887" lon="1.028195">
        <ele>1445.0</ele>
        <time>2015-08-29T10:33:58Z</time>
      </trkpt>
      <trkpt lat="42.022873" lon="1.028265">
        <ele>1444.0</ele>
        <time>2015-08-29T10:33:59Z</time>
      </trkpt>
      <trkpt lat="42.022847" lon="1.028328">
        <ele>1444.0</ele>
        <time>2015-08-29T10:34:00Z</time>
      </trkpt>
      <trkpt lat="42.022817" lon="1.028397">
        <ele>1444.0</ele>
        <time>2015-08-29T10:34:01Z</time>
      </trkpt>
      <trkpt lat="42.022785" lon="1.028477">
        <ele>1443.0</ele>
        <time>2015-08-29T10:34:02Z</time>
      </trkpt>
      <trkpt lat="42.022755" lon="1.028562">
        <ele>1443.0</ele>
        <time>2015-08-29T10:34:03Z</time>
      </trkpt>
      <trkpt lat="42.022737" lon="1.028655">
        <ele>1440.0</ele>
        <time>2015-08-29T10:34:04Z</time>
      </trkpt>
      <trkpt lat="42.022697" lon="1.028707">
        <ele>1442.0</ele>
        <time>2015-08-29T10:34:05Z</time>
      </trkpt>
      <trkpt lat="42.022662" lon="1.028763">
        <ele>1443.0</ele>
        <time>2015-08-29T10:34:06Z</time>
      </trkpt>
      <trkpt lat="42.022637" lon="1.028852">
        <ele>1441.0</ele>
        <time>2015-08-29T10:34:07Z</time>
      </trkpt>
      <trkpt lat="42.022607" lon="1.028943">
        <ele>1439.0</ele>
        <time>2015-08-29T10:34:08Z</time>
      </trkpt>
      <trkpt lat="42.022570" lon="1.029030">
        <ele>1438.0</ele>
        <time>2015-08-29T10:34:09Z</time>
      </trkpt>
      <trkpt lat="42.022533" lon="1.029108">
        <ele>1437.0</ele>
        <time>2015-08-29T10:34:10Z</time>
      </trkpt>
      <trkpt lat="42.022495" lon="1.029177">
        <ele>1437.0</ele>
        <time>2015-08-29T10:34:11Z</time>
      </trkpt>
      <trkpt lat="42.022460" lon="1.029248">
        <ele>1437.0</ele>
        <time>2015-08-29T10:34:12Z</time>
      </trkpt>
      <trkpt lat="42.022423" lon="1.029338">
        <ele>1436.0</ele>
        <time>2015-08-29T10:34:13Z</time>
      </trkpt>
      <trkpt lat="42.022387" lon="1.029437">
        <ele>1436.0</ele>
        <time>2015-08-29T10:34:14Z</time>
      </trkpt>
      <trkpt lat="42.022355" lon="1.029530">
        <ele>1436.0</ele>
        <time>2015-08-29T10:34:15Z</time>
      </trkpt>
      <trkpt lat="42.022337" lon="1.029605">
        <ele>1435.0</ele>
        <time>2015-08-29T10:34:16Z</time>
      </trkpt>
      <trkpt lat="42.022327" lon="1.029673">
        <ele>1433.0</ele>
        <time>2015-08-29T10:34:17Z</time>
      </trkpt>
      <trkpt lat="42.022310" lon="1.029752">
        <ele>1431.0</ele>
        <time>2015-08-29T10:34:18Z</time>
      </trkpt>
      <trkpt lat="42.022283" lon="1.029843">
        <ele>1429.0</ele>
        <time>2015-08-29T10:34:19Z</time>
      </trkpt>
      <trkpt lat="42.022258" lon="1.029952">
        <ele>1428.0</ele>
        <time>2015-08-29T10:34:20Z</time>
      </trkpt>
      <trkpt lat="42.022240" lon="1.030057">
        <ele>1426.0</ele>
        <time>2015-08-29T10:34:21Z</time>
      </trkpt>
      <trkpt lat="42.022222" lon="1.030120">
        <ele>1427.0</ele>
        <time>2015-08-29T10:34:22Z</time>
      </trkpt>
      <trkpt lat="42.022200" lon="1.030185">
        <ele>1429.0</ele>
        <time>2015-08-29T10:34:23Z</time>
      </trkpt>
      <trkpt lat="42.022183" lon="1.030277">
        <ele>1429.0</ele>
        <time>2015-08-29T10:34:24Z</time>
      </trkpt>
      <trkpt lat="42.022165" lon="1.030380">
        <ele>1429.0</ele>
        <time>2015-08-29T10:34:25Z</time>
      </trkpt>
      <trkpt lat="42.022158" lon="1.030485">
        <ele>1428.0</ele>
        <time>2015-08-29T10:34:26Z</time>
      </trkpt>
      <trkpt lat="42.022153" lon="1.030572">
        <ele>1429.0</ele>
        <time>2015-08-29T10:34:27Z</time>
      </trkpt>
      <trkpt lat="42.022143" lon="1.030625">
        <ele>1429.0</ele>
        <time>2015-08-29T10:34:28Z</time>
      </trkpt>
      <trkpt lat="42.022098" lon="1.030715">
        <ele>1427.0</ele>
        <time>2015-08-29T10:34:30Z</time>
      </trkpt>
      <trkpt lat="42.022052" lon="1.030788">
        <ele>1427.0</ele>
        <time>2015-08-29T10:34:31Z</time>
      </trkpt>
      <trkpt lat="42.022007" lon="1.030888">
        <ele>1426.0</ele>
        <time>2015-08-29T10:34:32Z</time>
      </trkpt>
      <trkpt lat="42.021968" lon="1.030982">
        <ele>1426.0</ele>
        <time>2015-08-29T10:34:33Z</time>
      </trkpt>
      <trkpt lat="42.021938" lon="1.031043">
        <ele>1426.0</ele>
        <time>2015-08-29T10:34:34Z</time>
      </trkpt>
      <trkpt lat="42.021912" lon="1.031080">
        <ele>1426.0</ele>
        <time>2015-08-29T10:34:35Z</time>
      </trkpt>
      <trkpt lat="42.021873" lon="1.031112">
        <ele>1425.0</ele>
        <time>2015-08-29T10:34:36Z</time>
      </trkpt>
      <trkpt lat="42.021825" lon="1.031168">
        <ele>1424.0</ele>
        <time>2015-08-29T10:34:37Z</time>
      </trkpt>
      <trkpt lat="42.021780" lon="1.031248">
        <ele>1423.0</ele>
        <time>2015-08-29T10:34:38Z</time>
      </trkpt>
      <trkpt lat="42.021740" lon="1.031313">
        <ele>1424.0</ele>
        <time>2015-08-29T10:34:39Z</time>
      </trkpt>
      <trkpt lat="42.021712" lon="1.031380">
        <ele>1424.0</ele>
        <time>2015-08-29T10:34:40Z</time>
      </trkpt>
      <trkpt lat="42.021687" lon="1.031462">
        <ele>1422.0</ele>
        <time>2015-08-29T10:34:41Z</time>
      </trkpt>
      <trkpt lat="42.021648" lon="1.031532">
        <ele>1420.0</ele>
        <time>2015-08-29T10:34:42Z</time>
      </trkpt>
      <trkpt lat="42.021600" lon="1.031610">
        <ele>1419.0</ele>
        <time>2015-08-29T10:34:43Z</time>
      </trkpt>
      <trkpt lat="42.021552" lon="1.031702">
        <ele>1418.0</ele>
        <time>2015-08-29T10:34:44Z</time>
      </trkpt>
      <trkpt lat="42.021503" lon="1.031773">
        <ele>1417.0</ele>
        <time>2015-08-29T10:34:45Z</time>
      </trkpt>
      <trkpt lat="42.021468" lon="1.031835">
        <ele>1416.0</ele>
        <time>2015-08-29T10:34:46Z</time>
      </trkpt>
      <trkpt lat="42.021460" lon="1.031917">
        <ele>1415.0</ele>
        <time>2015-08-29T10:34:47Z</time>
      </trkpt>
      <trkpt lat="42.021452" lon="1.032017">
        <ele>1414.0</ele>
        <time>2015-08-29T10:34:48Z</time>
      </trkpt>
      <trkpt lat="42.021417" lon="1.032105">
        <ele>1414.0</ele>
        <time>2015-08-29T10:34:49Z</time>
      </trkpt>
      <trkpt lat="42.021372" lon="1.032203">
        <ele>1413.0</ele>
        <time>2015-08-29T10:34:50Z</time>
      </trkpt>
      <trkpt lat="42.021327" lon="1.032318">
        <ele>1412.0</ele>
        <time>2015-08-29T10:34:51Z</time>
      </trkpt>
      <trkpt lat="42.021280" lon="1.032413">
        <ele>1410.0</ele>
        <time>2015-08-29T10:34:52Z</time>
      </trkpt>
      <trkpt lat="42.021243" lon="1.032517">
        <ele>1408.0</ele>
        <time>2015-08-29T10:34:53Z</time>
      </trkpt>
      <trkpt lat="42.021203" lon="1.032610">
        <ele>1407.0</ele>
        <time>2015-08-29T10:34:54Z</time>
      </trkpt>
      <trkpt lat="42.021162" lon="1.032703">
        <ele>1406.0</ele>
        <time>2015-08-29T10:34:55Z</time>
      </trkpt>
      <trkpt lat="42.021120" lon="1.032797">
        <ele>1405.0</ele>
        <time>2015-08-29T10:34:56Z</time>
      </trkpt>
      <trkpt lat="42.021085" lon="1.032883">
        <ele>1404.0</ele>
        <time>2015-08-29T10:34:57Z</time>
      </trkpt>
      <trkpt lat="42.021058" lon="1.032965">
        <ele>1404.0</ele>
        <time>2015-08-29T10:34:58Z</time>
      </trkpt>
      <trkpt lat="42.021028" lon="1.033055">
        <ele>1402.0</ele>
        <time>2015-08-29T10:34:59Z</time>
      </trkpt>
      <trkpt lat="42.020993" lon="1.033153">
        <ele>1401.0</ele>
        <time>2015-08-29T10:35:00Z</time>
      </trkpt>
      <trkpt lat="42.020955" lon="1.033257">
        <ele>1400.0</ele>
        <time>2015-08-29T10:35:01Z</time>
      </trkpt>
      <trkpt lat="42.020920" lon="1.033363">
        <ele>1399.0</ele>
        <time>2015-08-29T10:35:02Z</time>
      </trkpt>
      <trkpt lat="42.020893" lon="1.033467">
        <ele>1398.0</ele>
        <time>2015-08-29T10:35:03Z</time>
      </trkpt>
      <trkpt lat="42.020875" lon="1.033567">
        <ele>1397.0</ele>
        <time>2015-08-29T10:35:04Z</time>
      </trkpt>
      <trkpt lat="42.020860" lon="1.033675">
        <ele>1395.0</ele>
        <time>2015-08-29T10:35:05Z</time>
      </trkpt>
      <trkpt lat="42.020828" lon="1.033762">
        <ele>1395.0</ele>
        <time>2015-08-29T10:35:06Z</time>
      </trkpt>
      <trkpt lat="42.020795" lon="1.033860">
        <ele>1395.0</ele>
        <time>2015-08-29T10:35:07Z</time>
      </trkpt>
      <trkpt lat="42.020778" lon="1.033970">
        <ele>1393.0</ele>
        <time>2015-08-29T10:35:08Z</time>
      </trkpt>
      <trkpt lat="42.020763" lon="1.034065">
        <ele>1391.0</ele>
        <time>2015-08-29T10:35:09Z</time>
      </trkpt>
      <trkpt lat="42.020750" lon="1.034148">
        <ele>1390.0</ele>
        <time>2015-08-29T10:35:10Z</time>
      </trkpt>
      <trkpt lat="42.020733" lon="1.034220">
        <ele>1389.0</ele>
        <time>2015-08-29T10:35:11Z</time>
      </trkpt>
      <trkpt lat="42.020700" lon="1.034275">
        <ele>1389.0</ele>
        <time>2015-08-29T10:35:12Z</time>
      </trkpt>
      <trkpt lat="42.020667" lon="1.034348">
        <ele>1388.0</ele>
        <time>2015-08-29T10:35:13Z</time>
      </trkpt>
      <trkpt lat="42.020635" lon="1.034442">
        <ele>1387.0</ele>
        <time>2015-08-29T10:35:14Z</time>
      </trkpt>
      <trkpt lat="42.020610" lon="1.034542">
        <ele>1386.0</ele>
        <time>2015-08-29T10:35:15Z</time>
      </trkpt>
      <trkpt lat="42.020597" lon="1.034640">
        <ele>1385.0</ele>
        <time>2015-08-29T10:35:16Z</time>
      </trkpt>
      <trkpt lat="42.020588" lon="1.034728">
        <ele>1384.0</ele>
        <time>2015-08-29T10:35:17Z</time>
      </trkpt>
      <trkpt lat="42.020578" lon="1.034810">
        <ele>1383.0</ele>
        <time>2015-08-29T10:35:18Z</time>
      </trkpt>
      <trkpt lat="42.020567" lon="1.034898">
        <ele>1382.0</ele>
        <time>2015-08-29T10:35:19Z</time>
      </trkpt>
      <trkpt lat="42.020552" lon="1.035002">
        <ele>1381.0</ele>
        <time>2015-08-29T10:35:20Z</time>
      </trkpt>
      <trkpt lat="42.020537" lon="1.035108">
        <ele>1380.0</ele>
        <time>2015-08-29T10:35:21Z</time>
      </trkpt>
      <trkpt lat="42.020523" lon="1.035213">
        <ele>1379.0</ele>
        <time>2015-08-29T10:35:22Z</time>
      </trkpt>
      <trkpt lat="42.020498" lon="1.035283">
        <ele>1379.0</ele>
        <time>2015-08-29T10:35:23Z</time>
      </trkpt>
      <trkpt lat="42.020468" lon="1.035362">
        <ele>1379.0</ele>
        <time>2015-08-29T10:35:24Z</time>
      </trkpt>
      <trkpt lat="42.020445" lon="1.035463">
        <ele>1376.0</ele>
        <time>2015-08-29T10:35:25Z</time>
      </trkpt>
      <trkpt lat="42.020417" lon="1.035568">
        <ele>1374.0</ele>
        <time>2015-08-29T10:35:26Z</time>
      </trkpt>
      <trkpt lat="42.020377" lon="1.035658">
        <ele>1374.0</ele>
        <time>2015-08-29T10:35:27Z</time>
      </trkpt>
      <trkpt lat="42.020343" lon="1.035740">
        <ele>1373.0</ele>
        <time>2015-08-29T10:35:28Z</time>
      </trkpt>
      <trkpt lat="42.020313" lon="1.035813">
        <ele>1372.0</ele>
        <time>2015-08-29T10:35:29Z</time>
      </trkpt>
      <trkpt lat="42.020318" lon="1.035938">
        <ele>1371.0</ele>
        <time>2015-08-29T10:35:30Z</time>
      </trkpt>
      <trkpt lat="42.020320" lon="1.036015">
        <ele>1370.0</ele>
        <time>2015-08-29T10:35:31Z</time>
      </trkpt>
      <trkpt lat="42.020323" lon="1.036090">
        <ele>1368.0</ele>
        <time>2015-08-29T10:35:32Z</time>
      </trkpt>
      <trkpt lat="42.020320" lon="1.036163">
        <ele>1367.0</ele>
        <time>2015-08-29T10:35:33Z</time>
      </trkpt>
      <trkpt lat="42.020317" lon="1.036248">
        <ele>1366.0</ele>
        <time>2015-08-29T10:35:34Z</time>
      </trkpt>
      <trkpt lat="42.020318" lon="1.036332">
        <ele>1365.0</ele>
        <time>2015-08-29T10:35:35Z</time>
      </trkpt>
      <trkpt lat="42.020332" lon="1.036413">
        <ele>1364.0</ele>
        <time>2015-08-29T10:35:36Z</time>
      </trkpt>
      <trkpt lat="42.020338" lon="1.036488">
        <ele>1362.0</ele>
        <time>2015-08-29T10:35:37Z</time>
      </trkpt>
      <trkpt lat="42.020330" lon="1.036567">
        <ele>1360.0</ele>
        <time>2015-08-29T10:35:38Z</time>
      </trkpt>
      <trkpt lat="42.020328" lon="1.036675">
        <ele>1358.0</ele>
        <time>2015-08-29T10:35:39Z</time>
      </trkpt>
      <trkpt lat="42.020333" lon="1.036777">
        <ele>1357.0</ele>
        <time>2015-08-29T10:35:40Z</time>
      </trkpt>
      <trkpt lat="42.020362" lon="1.036893">
        <ele>1355.0</ele>
        <time>2015-08-29T10:35:41Z</time>
      </trkpt>
      <trkpt lat="42.020380" lon="1.036995">
        <ele>1352.0</ele>
        <time>2015-08-29T10:35:42Z</time>
      </trkpt>
      <trkpt lat="42.020385" lon="1.037090">
        <ele>1349.0</ele>
        <time>2015-08-29T10:35:43Z</time>
      </trkpt>
      <trkpt lat="42.020382" lon="1.037182">
        <ele>1347.0</ele>
        <time>2015-08-29T10:35:44Z</time>
      </trkpt>
      <trkpt lat="42.020373" lon="1.037268">
        <ele>1346.0</ele>
        <time>2015-08-29T10:35:45Z</time>
      </trkpt>
      <trkpt lat="42.020368" lon="1.037360">
        <ele>1345.0</ele>
        <time>2015-08-29T10:35:46Z</time>
      </trkpt>
      <trkpt lat="42.020372" lon="1.037450">
        <ele>1344.0</ele>
        <time>2015-08-29T10:35:47Z</time>
      </trkpt>
      <trkpt lat="42.020377" lon="1.037537">
        <ele>1343.0</ele>
        <time>2015-08-29T10:35:48Z</time>
      </trkpt>
      <trkpt lat="42.020390" lon="1.037637">
        <ele>1339.0</ele>
        <time>2015-08-29T10:35:49Z</time>
      </trkpt>
      <trkpt lat="42.020387" lon="1.037725">
        <ele>1339.0</ele>
        <time>2015-08-29T10:35:50Z</time>
      </trkpt>
      <trkpt lat="42.020375" lon="1.037808">
        <ele>1340.0</ele>
        <time>2015-08-29T10:35:51Z</time>
      </trkpt>
      <trkpt lat="42.020390" lon="1.037923">
        <ele>1338.0</ele>
        <time>2015-08-29T10:35:52Z</time>
      </trkpt>
      <trkpt lat="42.020408" lon="1.038035">
        <ele>1337.0</ele>
        <time>2015-08-29T10:35:53Z</time>
      </trkpt>
      <trkpt lat="42.020427" lon="1.038127">
        <ele>1336.0</ele>
        <time>2015-08-29T10:35:54Z</time>
      </trkpt>
      <trkpt lat="42.020430" lon="1.038178">
        <ele>1335.0</ele>
        <time>2015-08-29T10:35:55Z</time>
      </trkpt>
      <trkpt lat="42.020412" lon="1.038253">
        <ele>1332.0</ele>
        <time>2015-08-29T10:35:57Z</time>
      </trkpt>
      <trkpt lat="42.020385" lon="1.038327">
        <ele>1330.0</ele>
        <time>2015-08-29T10:35:58Z</time>
      </trkpt>
      <trkpt lat="42.020362" lon="1.038428">
        <ele>1329.0</ele>
        <time>2015-08-29T10:35:59Z</time>
      </trkpt>
      <trkpt lat="42.020347" lon="1.038540">
        <ele>1328.0</ele>
        <time>2015-08-29T10:36:00Z</time>
      </trkpt>
      <trkpt lat="42.020340" lon="1.038625">
        <ele>1327.0</ele>
        <time>2015-08-29T10:36:01Z</time>
      </trkpt>
      <trkpt lat="42.020332" lon="1.038688">
        <ele>1326.0</ele>
        <time>2015-08-29T10:36:02Z</time>
      </trkpt>
      <trkpt lat="42.020315" lon="1.038740">
        <ele>1325.0</ele>
        <time>2015-08-29T10:36:03Z</time>
      </trkpt>
      <trkpt lat="42.020292" lon="1.038805">
        <ele>1324.0</ele>
        <time>2015-08-29T10:36:04Z</time>
      </trkpt>
      <trkpt lat="42.020262" lon="1.038898">
        <ele>1323.0</ele>
        <time>2015-08-29T10:36:05Z</time>
      </trkpt>
      <trkpt lat="42.020235" lon="1.038987">
        <ele>1321.0</ele>
        <time>2015-08-29T10:36:06Z</time>
      </trkpt>
      <trkpt lat="42.020208" lon="1.039038">
        <ele>1323.0</ele>
        <time>2015-08-29T10:36:07Z</time>
      </trkpt>
      <trkpt lat="42.020182" lon="1.039087">
        <ele>1325.0</ele>
        <time>2015-08-29T10:36:08Z</time>
      </trkpt>
      <trkpt lat="42.020160" lon="1.039153">
        <ele>1324.0</ele>
        <time>2015-08-29T10:36:09Z</time>
      </trkpt>
      <trkpt lat="42.020135" lon="1.039212">
        <ele>1323.0</ele>
        <time>2015-08-29T10:36:10Z</time>
      </trkpt>
      <trkpt lat="42.020107" lon="1.039267">
        <ele>1324.0</ele>
        <time>2015-08-29T10:36:11Z</time>
      </trkpt>
      <trkpt lat="42.020082" lon="1.039307">
        <ele>1324.0</ele>
        <time>2015-08-29T10:36:12Z</time>
      </trkpt>
      <trkpt lat="42.020060" lon="1.039355">
        <ele>1324.0</ele>
        <time>2015-08-29T10:36:14Z</time>
      </trkpt>
      <trkpt lat="42.019995" lon="1.039402">
        <ele>1324.0</ele>
        <time>2015-08-29T10:36:17Z</time>
      </trkpt>
      <trkpt lat="42.019948" lon="1.039433">
        <ele>1323.0</ele>
        <time>2015-08-29T10:36:18Z</time>
      </trkpt>
      <trkpt lat="42.019912" lon="1.039487">
        <ele>1323.0</ele>
        <time>2015-08-29T10:36:19Z</time>
      </trkpt>
      <trkpt lat="42.019887" lon="1.039547">
        <ele>1323.0</ele>
        <time>2015-08-29T10:36:20Z</time>
      </trkpt>
      <trkpt lat="42.019863" lon="1.039603">
        <ele>1322.0</ele>
        <time>2015-08-29T10:36:21Z</time>
      </trkpt>
      <trkpt lat="42.019827" lon="1.039658">
        <ele>1322.0</ele>
        <time>2015-08-29T10:36:22Z</time>
      </trkpt>
      <trkpt lat="42.019777" lon="1.039725">
        <ele>1322.0</ele>
        <time>2015-08-29T10:36:23Z</time>
      </trkpt>
      <trkpt lat="42.019732" lon="1.039793">
        <ele>1323.0</ele>
        <time>2015-08-29T10:36:24Z</time>
      </trkpt>
      <trkpt lat="42.019715" lon="1.039873">
        <ele>1325.0</ele>
        <time>2015-08-29T10:36:25Z</time>
      </trkpt>
      <trkpt lat="42.019718" lon="1.039950">
        <ele>1324.0</ele>
        <time>2015-08-29T10:36:26Z</time>
      </trkpt>
      <trkpt lat="42.019717" lon="1.040012">
        <ele>1323.0</ele>
        <time>2015-08-29T10:36:27Z</time>
      </trkpt>
      <trkpt lat="42.019703" lon="1.040072">
        <ele>1322.0</ele>
        <time>2015-08-29T10:36:28Z</time>
      </trkpt>
      <trkpt lat="42.019683" lon="1.040138">
        <ele>1322.0</ele>
        <time>2015-08-29T10:36:29Z</time>
      </trkpt>
      <trkpt lat="42.019665" lon="1.040200">
        <ele>1321.0</ele>
        <time>2015-08-29T10:36:30Z</time>
      </trkpt>
      <trkpt lat="42.019643" lon="1.040255">
        <ele>1320.0</ele>
        <time>2015-08-29T10:36:31Z</time>
      </trkpt>
      <trkpt lat="42.019600" lon="1.040328">
        <ele>1320.0</ele>
        <time>2015-08-29T10:36:32Z</time>
      </trkpt>
      <trkpt lat="42.019570" lon="1.040392">
        <ele>1320.0</ele>
        <time>2015-08-29T10:36:33Z</time>
      </trkpt>
      <trkpt lat="42.019540" lon="1.040462">
        <ele>1320.0</ele>
        <time>2015-08-29T10:36:34Z</time>
      </trkpt>
      <trkpt lat="42.019505" lon="1.040538">
        <ele>1320.0</ele>
        <time>2015-08-29T10:36:35Z</time>
      </trkpt>
      <trkpt lat="42.019483" lon="1.040632">
        <ele>1320.0</ele>
        <time>2015-08-29T10:36:36Z</time>
      </trkpt>
      <trkpt lat="42.019482" lon="1.040733">
        <ele>1320.0</ele>
        <time>2015-08-29T10:36:37Z</time>
      </trkpt>
      <trkpt lat="42.019490" lon="1.040838">
        <ele>1320.0</ele>
        <time>2015-08-29T10:36:38Z</time>
      </trkpt>
      <trkpt lat="42.019513" lon="1.040943">
        <ele>1320.0</ele>
        <time>2015-08-29T10:36:39Z</time>
      </trkpt>
      <trkpt lat="42.019558" lon="1.041053">
        <ele>1319.0</ele>
        <time>2015-08-29T10:36:40Z</time>
      </trkpt>
      <trkpt lat="42.019607" lon="1.041140">
        <ele>1321.0</ele>
        <time>2015-08-29T10:36:41Z</time>
      </trkpt>
      <trkpt lat="42.019683" lon="1.041232">
        <ele>1321.0</ele>
        <time>2015-08-29T10:36:42Z</time>
      </trkpt>
      <trkpt lat="42.019783" lon="1.041317">
        <ele>1321.0</ele>
        <time>2015-08-29T10:36:43Z</time>
      </trkpt>
      <trkpt lat="42.019890" lon="1.041387">
        <ele>1321.0</ele>
        <time>2015-08-29T10:36:44Z</time>
      </trkpt>
      <trkpt lat="42.020007" lon="1.041417">
        <ele>1321.0</ele>
        <time>2015-08-29T10:36:45Z</time>
      </trkpt>
      <trkpt lat="42.020132" lon="1.041412">
        <ele>1322.0</ele>
        <time>2015-08-29T10:36:46Z</time>
      </trkpt>
      <trkpt lat="42.020252" lon="1.041380">
        <ele>1323.0</ele>
        <time>2015-08-29T10:36:47Z</time>
      </trkpt>
      <trkpt lat="42.020353" lon="1.041342">
        <ele>1323.0</ele>
        <time>2015-08-29T10:36:48Z</time>
      </trkpt>
      <trkpt lat="42.020413" lon="1.041342">
        <ele>1324.0</ele>
        <time>2015-08-29T10:36:49Z</time>
      </trkpt>
      <trkpt lat="42.020475" lon="1.041313">
        <ele>1326.0</ele>
        <time>2015-08-29T10:36:50Z</time>
      </trkpt>
      <trkpt lat="42.020533" lon="1.041278">
        <ele>1328.0</ele>
        <time>2015-08-29T10:36:51Z</time>
      </trkpt>
      <trkpt lat="42.020603" lon="1.041205">
        <ele>1331.0</ele>
        <time>2015-08-29T10:36:52Z</time>
      </trkpt>
      <trkpt lat="42.020672" lon="1.041088">
        <ele>1332.0</ele>
        <time>2015-08-29T10:36:53Z</time>
      </trkpt>
      <trkpt lat="42.020725" lon="1.040967">
        <ele>1334.0</ele>
        <time>2015-08-29T10:36:54Z</time>
      </trkpt>
      <trkpt lat="42.020767" lon="1.040863">
        <ele>1337.0</ele>
        <time>2015-08-29T10:36:55Z</time>
      </trkpt>
      <trkpt lat="42.020798" lon="1.040775">
        <ele>1339.0</ele>
        <time>2015-08-29T10:36:56Z</time>
      </trkpt>
      <trkpt lat="42.020823" lon="1.040695">
        <ele>1342.0</ele>
        <time>2015-08-29T10:36:57Z</time>
      </trkpt>
      <trkpt lat="42.020837" lon="1.040610">
        <ele>1345.0</ele>
        <time>2015-08-29T10:36:58Z</time>
      </trkpt>
      <trkpt lat="42.020845" lon="1.040515">
        <ele>1347.0</ele>
        <time>2015-08-29T10:36:59Z</time>
      </trkpt>
      <trkpt lat="42.020845" lon="1.040412">
        <ele>1350.0</ele>
        <time>2015-08-29T10:37:00Z</time>
      </trkpt>
      <trkpt lat="42.020847" lon="1.040305">
        <ele>1352.0</ele>
        <time>2015-08-29T10:37:01Z</time>
      </trkpt>
      <trkpt lat="42.020842" lon="1.040232">
        <ele>1354.0</ele>
        <time>2015-08-29T10:37:02Z</time>
      </trkpt>
      <trkpt lat="42.020825" lon="1.040165">
        <ele>1354.0</ele>
        <time>2015-08-29T10:37:03Z</time>
      </trkpt>
      <trkpt lat="42.020802" lon="1.040118">
        <ele>1356.0</ele>
        <time>2015-08-29T10:37:04Z</time>
      </trkpt>
      <trkpt lat="42.020777" lon="1.040068">
        <ele>1357.0</ele>
        <time>2015-08-29T10:37:05Z</time>
      </trkpt>
      <trkpt lat="42.020752" lon="1.040027">
        <ele>1359.0</ele>
        <time>2015-08-29T10:37:06Z</time>
      </trkpt>
      <trkpt lat="42.020707" lon="1.040000">
        <ele>1365.0</ele>
        <time>2015-08-29T10:37:08Z</time>
      </trkpt>
      <trkpt lat="42.020655" lon="1.040010">
        <ele>1371.0</ele>
        <time>2015-08-29T10:37:10Z</time>
      </trkpt>
      <trkpt lat="42.020625" lon="1.040120">
        <ele>1377.0</ele>
        <time>2015-08-29T10:37:12Z</time>
      </trkpt>
      <trkpt lat="42.020600" lon="1.040182">
        <ele>1380.0</ele>
        <time>2015-08-29T10:37:13Z</time>
      </trkpt>
      <trkpt lat="42.020560" lon="1.040250">
        <ele>1382.0</ele>
        <time>2015-08-29T10:37:14Z</time>
      </trkpt>
      <trkpt lat="42.020508" lon="1.040322">
        <ele>1383.0</ele>
        <time>2015-08-29T10:37:15Z</time>
      </trkpt>
      <trkpt lat="42.020472" lon="1.040395">
        <ele>1385.0</ele>
        <time>2015-08-29T10:37:16Z</time>
      </trkpt>
      <trkpt lat="42.020482" lon="1.040493">
        <ele>1386.0</ele>
        <time>2015-08-29T10:37:17Z</time>
      </trkpt>
      <trkpt lat="42.020530" lon="1.040583">
        <ele>1387.0</ele>
        <time>2015-08-29T10:37:18Z</time>
      </trkpt>
      <trkpt lat="42.020592" lon="1.040655">
        <ele>1389.0</ele>
        <time>2015-08-29T10:37:19Z</time>
      </trkpt>
      <trkpt lat="42.020648" lon="1.040727">
        <ele>1390.0</ele>
        <time>2015-08-29T10:37:20Z</time>
      </trkpt>
      <trkpt lat="42.020692" lon="1.040818">
        <ele>1391.0</ele>
        <time>2015-08-29T10:37:21Z</time>
      </trkpt>
      <trkpt lat="42.020735" lon="1.040927">
        <ele>1392.0</ele>
        <time>2015-08-29T10:37:22Z</time>
      </trkpt>
      <trkpt lat="42.020800" lon="1.041037">
        <ele>1393.0</ele>
        <time>2015-08-29T10:37:23Z</time>
      </trkpt>
      <trkpt lat="42.020887" lon="1.041133">
        <ele>1393.0</ele>
        <time>2015-08-29T10:37:24Z</time>
      </trkpt>
      <trkpt lat="42.020985" lon="1.041200">
        <ele>1395.0</ele>
        <time>2015-08-29T10:37:25Z</time>
      </trkpt>
      <trkpt lat="42.021092" lon="1.041248">
        <ele>1397.0</ele>
        <time>2015-08-29T10:37:26Z</time>
      </trkpt>
      <trkpt lat="42.021218" lon="1.041265">
        <ele>1397.0</ele>
        <time>2015-08-29T10:37:27Z</time>
      </trkpt>
      <trkpt lat="42.021360" lon="1.041250">
        <ele>1397.0</ele>
        <time>2015-08-29T10:37:28Z</time>
      </trkpt>
      <trkpt lat="42.021502" lon="1.041218">
        <ele>1396.0</ele>
        <time>2015-08-29T10:37:29Z</time>
      </trkpt>
      <trkpt lat="42.021632" lon="1.041150">
        <ele>1397.0</ele>
        <time>2015-08-29T10:37:30Z</time>
      </trkpt>
      <trkpt lat="42.021733" lon="1.041055">
        <ele>1398.0</ele>
        <time>2015-08-29T10:37:31Z</time>
      </trkpt>
      <trkpt lat="42.021812" lon="1.040963">
        <ele>1399.0</ele>
        <time>2015-08-29T10:37:32Z</time>
      </trkpt>
      <trkpt lat="42.021885" lon="1.040868">
        <ele>1400.0</ele>
        <time>2015-08-29T10:37:33Z</time>
      </trkpt>
      <trkpt lat="42.021958" lon="1.040778">
        <ele>1401.0</ele>
        <time>2015-08-29T10:37:34Z</time>
      </trkpt>
      <trkpt lat="42.022032" lon="1.040682">
        <ele>1404.0</ele>
        <time>2015-08-29T10:37:35Z</time>
      </trkpt>
      <trkpt lat="42.022095" lon="1.040573">
        <ele>1405.0</ele>
        <time>2015-08-29T10:37:36Z</time>
      </trkpt>
      <trkpt lat="42.022145" lon="1.040458">
        <ele>1406.0</ele>
        <time>2015-08-29T10:37:37Z</time>
      </trkpt>
      <trkpt lat="42.022187" lon="1.040345">
        <ele>1407.0</ele>
        <time>2015-08-29T10:37:38Z</time>
      </trkpt>
      <trkpt lat="42.022210" lon="1.040250">
        <ele>1408.0</ele>
        <time>2015-08-29T10:37:39Z</time>
      </trkpt>
      <trkpt lat="42.022238" lon="1.040162">
        <ele>1410.0</ele>
        <time>2015-08-29T10:37:40Z</time>
      </trkpt>
      <trkpt lat="42.022268" lon="1.040077">
        <ele>1411.0</ele>
        <time>2015-08-29T10:37:41Z</time>
      </trkpt>
      <trkpt lat="42.022297" lon="1.040013">
        <ele>1414.0</ele>
        <time>2015-08-29T10:37:42Z</time>
      </trkpt>
      <trkpt lat="42.022337" lon="1.039927">
        <ele>1416.0</ele>
        <time>2015-08-29T10:37:43Z</time>
      </trkpt>
      <trkpt lat="42.022373" lon="1.039827">
        <ele>1417.0</ele>
        <time>2015-08-29T10:37:44Z</time>
      </trkpt>
      <trkpt lat="42.022395" lon="1.039738">
        <ele>1419.0</ele>
        <time>2015-08-29T10:37:45Z</time>
      </trkpt>
      <trkpt lat="42.022402" lon="1.039652">
        <ele>1421.0</ele>
        <time>2015-08-29T10:37:46Z</time>
      </trkpt>
      <trkpt lat="42.022405" lon="1.039567">
        <ele>1422.0</ele>
        <time>2015-08-29T10:37:47Z</time>
      </trkpt>
      <trkpt lat="42.022407" lon="1.039483">
        <ele>1423.0</ele>
        <time>2015-08-29T10:37:48Z</time>
      </trkpt>
      <trkpt lat="42.022417" lon="1.039407">
        <ele>1425.0</ele>
        <time>2015-08-29T10:37:49Z</time>
      </trkpt>
      <trkpt lat="42.022423" lon="1.039345">
        <ele>1426.0</ele>
        <time>2015-08-29T10:37:50Z</time>
      </trkpt>
      <trkpt lat="42.022413" lon="1.039292">
        <ele>1426.0</ele>
        <time>2015-08-29T10:37:51Z</time>
      </trkpt>
      <trkpt lat="42.022357" lon="1.039247">
        <ele>1430.0</ele>
        <time>2015-08-29T10:37:53Z</time>
      </trkpt>
      <trkpt lat="42.022320" lon="1.039273">
        <ele>1430.0</ele>
        <time>2015-08-29T10:37:54Z</time>
      </trkpt>
      <trkpt lat="42.022283" lon="1.039325">
        <ele>1431.0</ele>
        <time>2015-08-29T10:37:55Z</time>
      </trkpt>
      <trkpt lat="42.022252" lon="1.039392">
        <ele>1431.0</ele>
        <time>2015-08-29T10:37:56Z</time>
      </trkpt>
      <trkpt lat="42.022230" lon="1.039455">
        <ele>1432.0</ele>
        <time>2015-08-29T10:37:57Z</time>
      </trkpt>
      <trkpt lat="42.022240" lon="1.039562">
        <ele>1432.0</ele>
        <time>2015-08-29T10:37:58Z</time>
      </trkpt>
      <trkpt lat="42.022260" lon="1.039662">
        <ele>1432.0</ele>
        <time>2015-08-29T10:37:59Z</time>
      </trkpt>
      <trkpt lat="42.022302" lon="1.039763">
        <ele>1433.0</ele>
        <time>2015-08-29T10:38:00Z</time>
      </trkpt>
      <trkpt lat="42.022363" lon="1.039855">
        <ele>1433.0</ele>
        <time>2015-08-29T10:38:01Z</time>
      </trkpt>
      <trkpt lat="42.022438" lon="1.039940">
        <ele>1434.0</ele>
        <time>2015-08-29T10:38:02Z</time>
      </trkpt>
      <trkpt lat="42.022518" lon="1.040027">
        <ele>1435.0</ele>
        <time>2015-08-29T10:38:03Z</time>
      </trkpt>
      <trkpt lat="42.022598" lon="1.040115">
        <ele>1436.0</ele>
        <time>2015-08-29T10:38:04Z</time>
      </trkpt>
      <trkpt lat="42.022673" lon="1.040195">
        <ele>1437.0</ele>
        <time>2015-08-29T10:38:05Z</time>
      </trkpt>
      <trkpt lat="42.022755" lon="1.040260">
        <ele>1438.0</ele>
        <time>2015-08-29T10:38:06Z</time>
      </trkpt>
      <trkpt lat="42.022850" lon="1.040312">
        <ele>1439.0</ele>
        <time>2015-08-29T10:38:07Z</time>
      </trkpt>
      <trkpt lat="42.022942" lon="1.040363">
        <ele>1440.0</ele>
        <time>2015-08-29T10:38:08Z</time>
      </trkpt>
      <trkpt lat="42.023002" lon="1.040423">
        <ele>1442.0</ele>
        <time>2015-08-29T10:38:09Z</time>
      </trkpt>
      <trkpt lat="42.023060" lon="1.040485">
        <ele>1445.0</ele>
        <time>2015-08-29T10:38:10Z</time>
      </trkpt>
      <trkpt lat="42.023145" lon="1.040562">
        <ele>1445.0</ele>
        <time>2015-08-29T10:38:11Z</time>
      </trkpt>
      <trkpt lat="42.023233" lon="1.040638">
        <ele>1446.0</ele>
        <time>2015-08-29T10:38:12Z</time>
      </trkpt>
      <trkpt lat="42.023327" lon="1.040708">
        <ele>1446.0</ele>
        <time>2015-08-29T10:38:13Z</time>
      </trkpt>
      <trkpt lat="42.023403" lon="1.040768">
        <ele>1447.0</ele>
        <time>2015-08-29T10:38:14Z</time>
      </trkpt>
      <trkpt lat="42.023473" lon="1.040835">
        <ele>1448.0</ele>
        <time>2015-08-29T10:38:15Z</time>
      </trkpt>
      <trkpt lat="42.023550" lon="1.040912">
        <ele>1450.0</ele>
        <time>2015-08-29T10:38:16Z</time>
      </trkpt>
      <trkpt lat="42.023645" lon="1.040995">
        <ele>1451.0</ele>
        <time>2015-08-29T10:38:17Z</time>
      </trkpt>
      <trkpt lat="42.023748" lon="1.041070">
        <ele>1452.0</ele>
        <time>2015-08-29T10:38:18Z</time>
      </trkpt>
      <trkpt lat="42.023848" lon="1.041118">
        <ele>1454.0</ele>
        <time>2015-08-29T10:38:19Z</time>
      </trkpt>
      <trkpt lat="42.023945" lon="1.041140">
        <ele>1455.0</ele>
        <time>2015-08-29T10:38:20Z</time>
      </trkpt>
      <trkpt lat="42.024040" lon="1.041147">
        <ele>1456.0</ele>
        <time>2015-08-29T10:38:21Z</time>
      </trkpt>
      <trkpt lat="42.024133" lon="1.041148">
        <ele>1457.0</ele>
        <time>2015-08-29T10:38:22Z</time>
      </trkpt>
      <trkpt lat="42.024227" lon="1.041138">
        <ele>1459.0</ele>
        <time>2015-08-29T10:38:23Z</time>
      </trkpt>
      <trkpt lat="42.024318" lon="1.041107">
        <ele>1460.0</ele>
        <time>2015-08-29T10:38:24Z</time>
      </trkpt>
      <trkpt lat="42.024418" lon="1.041065">
        <ele>1461.0</ele>
        <time>2015-08-29T10:38:25Z</time>
      </trkpt>
      <trkpt lat="42.024497" lon="1.041040">
        <ele>1464.0</ele>
        <time>2015-08-29T10:38:26Z</time>
      </trkpt>
      <trkpt lat="42.024575" lon="1.041007">
        <ele>1466.0</ele>
        <time>2015-08-29T10:38:27Z</time>
      </trkpt>
      <trkpt lat="42.024658" lon="1.040962">
        <ele>1466.0</ele>
        <time>2015-08-29T10:38:28Z</time>
      </trkpt>
      <trkpt lat="42.024728" lon="1.040908">
        <ele>1466.0</ele>
        <time>2015-08-29T10:38:29Z</time>
      </trkpt>
      <trkpt lat="42.024788" lon="1.040847">
        <ele>1467.0</ele>
        <time>2015-08-29T10:38:30Z</time>
      </trkpt>
      <trkpt lat="42.024842" lon="1.040772">
        <ele>1468.0</ele>
        <time>2015-08-29T10:38:31Z</time>
      </trkpt>
      <trkpt lat="42.024885" lon="1.040700">
        <ele>1469.0</ele>
        <time>2015-08-29T10:38:32Z</time>
      </trkpt>
      <trkpt lat="42.024918" lon="1.040623">
        <ele>1470.0</ele>
        <time>2015-08-29T10:38:33Z</time>
      </trkpt>
      <trkpt lat="42.024960" lon="1.040537">
        <ele>1472.0</ele>
        <time>2015-08-29T10:38:34Z</time>
      </trkpt>
      <trkpt lat="42.025013" lon="1.040465">
        <ele>1474.0</ele>
        <time>2015-08-29T10:38:35Z</time>
      </trkpt>
      <trkpt lat="42.025070" lon="1.040403">
        <ele>1476.0</ele>
        <time>2015-08-29T10:38:36Z</time>
      </trkpt>
      <trkpt lat="42.025120" lon="1.040333">
        <ele>1477.0</ele>
        <time>2015-08-29T10:38:37Z</time>
      </trkpt>
      <trkpt lat="42.025160" lon="1.040257">
        <ele>1478.0</ele>
        <time>2015-08-29T10:38:38Z</time>
      </trkpt>
      <trkpt lat="42.025203" lon="1.040148">
        <ele>1476.0</ele>
        <time>2015-08-29T10:38:39Z</time>
      </trkpt>
      <trkpt lat="42.025235" lon="1.040048">
        <ele>1477.0</ele>
        <time>2015-08-29T10:38:40Z</time>
      </trkpt>
      <trkpt lat="42.025265" lon="1.039948">
        <ele>1478.0</ele>
        <time>2015-08-29T10:38:41Z</time>
      </trkpt>
      <trkpt lat="42.025288" lon="1.039862">
        <ele>1478.0</ele>
        <time>2015-08-29T10:38:42Z</time>
      </trkpt>
      <trkpt lat="42.025297" lon="1.039795">
        <ele>1480.0</ele>
        <time>2015-08-29T10:38:43Z</time>
      </trkpt>
      <trkpt lat="42.025290" lon="1.039730">
        <ele>1481.0</ele>
        <time>2015-08-29T10:38:44Z</time>
      </trkpt>
      <trkpt lat="42.025257" lon="1.039660">
        <ele>1480.0</ele>
        <time>2015-08-29T10:38:45Z</time>
      </trkpt>
      <trkpt lat="42.025217" lon="1.039615">
        <ele>1479.0</ele>
        <time>2015-08-29T10:38:46Z</time>
      </trkpt>
      <trkpt lat="42.025145" lon="1.039605">
        <ele>1479.0</ele>
        <time>2015-08-29T10:38:48Z</time>
      </trkpt>
      <trkpt lat="42.025087" lon="1.039593">
        <ele>1479.0</ele>
        <time>2015-08-29T10:38:50Z</time>
      </trkpt>
      <trkpt lat="42.025028" lon="1.039535">
        <ele>1478.0</ele>
        <time>2015-08-29T10:38:52Z</time>
      </trkpt>
      <trkpt lat="42.024970" lon="1.039532">
        <ele>1482.0</ele>
        <time>2015-08-29T10:38:54Z</time>
      </trkpt>
      <trkpt lat="42.024918" lon="1.039533">
        <ele>1484.0</ele>
        <time>2015-08-29T10:38:56Z</time>
      </trkpt>
      <trkpt lat="42.024865" lon="1.039533">
        <ele>1484.0</ele>
        <time>2015-08-29T10:38:58Z</time>
      </trkpt>
      <trkpt lat="42.024797" lon="1.039535">
        <ele>1486.0</ele>
        <time>2015-08-29T10:39:00Z</time>
      </trkpt>
      <trkpt lat="42.024752" lon="1.039527">
        <ele>1488.0</ele>
        <time>2015-08-29T10:39:02Z</time>
      </trkpt>
      <trkpt lat="42.024710" lon="1.039527">
        <ele>1490.0</ele>
        <time>2015-08-29T10:39:04Z</time>
      </trkpt>
      <trkpt lat="42.024633" lon="1.039552">
        <ele>1490.0</ele>
        <time>2015-08-29T10:39:06Z</time>
      </trkpt>
      <trkpt lat="42.024595" lon="1.039563">
        <ele>1491.0</ele>
        <time>2015-08-29T10:39:07Z</time>
      </trkpt>
      <trkpt lat="42.024532" lon="1.039588">
        <ele>1492.0</ele>
        <time>2015-08-29T10:39:09Z</time>
      </trkpt>
      <trkpt lat="42.024507" lon="1.039663">
        <ele>1494.0</ele>
        <time>2015-08-29T10:39:11Z</time>
      </trkpt>
      <trkpt lat="42.024537" lon="1.039757">
        <ele>1493.0</ele>
        <time>2015-08-29T10:39:12Z</time>
      </trkpt>
      <trkpt lat="42.024580" lon="1.039867">
        <ele>1493.0</ele>
        <time>2015-08-29T10:39:13Z</time>
      </trkpt>
      <trkpt lat="42.024627" lon="1.039970">
        <ele>1492.0</ele>
        <time>2015-08-29T10:39:14Z</time>
      </trkpt>
      <trkpt lat="42.024670" lon="1.040067">
        <ele>1492.0</ele>
        <time>2015-08-29T10:39:15Z</time>
      </trkpt>
      <trkpt lat="42.024707" lon="1.040145">
        <ele>1491.0</ele>
        <time>2015-08-29T10:39:16Z</time>
      </trkpt>
      <trkpt lat="42.024738" lon="1.040215">
        <ele>1490.0</ele>
        <time>2015-08-29T10:39:17Z</time>
      </trkpt>
      <trkpt lat="42.024772" lon="1.040293">
        <ele>1489.0</ele>
        <time>2015-08-29T10:39:18Z</time>
      </trkpt>
      <trkpt lat="42.024815" lon="1.040385">
        <ele>1487.0</ele>
        <time>2015-08-29T10:39:19Z</time>
      </trkpt>
      <trkpt lat="42.024868" lon="1.040475">
        <ele>1487.0</ele>
        <time>2015-08-29T10:39:20Z</time>
      </trkpt>
      <trkpt lat="42.024943" lon="1.040565">
        <ele>1486.0</ele>
        <time>2015-08-29T10:39:21Z</time>
      </trkpt>
      <trkpt lat="42.025018" lon="1.040653">
        <ele>1485.0</ele>
        <time>2015-08-29T10:39:22Z</time>
      </trkpt>
      <trkpt lat="42.025083" lon="1.040745">
        <ele>1484.0</ele>
        <time>2015-08-29T10:39:23Z</time>
      </trkpt>
      <trkpt lat="42.025138" lon="1.040840">
        <ele>1483.0</ele>
        <time>2015-08-29T10:39:24Z</time>
      </trkpt>
      <trkpt lat="42.025187" lon="1.040940">
        <ele>1482.0</ele>
        <time>2015-08-29T10:39:25Z</time>
      </trkpt>
      <trkpt lat="42.025247" lon="1.041052">
        <ele>1481.0</ele>
        <time>2015-08-29T10:39:26Z</time>
      </trkpt>
      <trkpt lat="42.025308" lon="1.041162">
        <ele>1482.0</ele>
        <time>2015-08-29T10:39:27Z</time>
      </trkpt>
      <trkpt lat="42.025390" lon="1.041272">
        <ele>1483.0</ele>
        <time>2015-08-29T10:39:28Z</time>
      </trkpt>
      <trkpt lat="42.025487" lon="1.041367">
        <ele>1483.0</ele>
        <time>2015-08-29T10:39:29Z</time>
      </trkpt>
      <trkpt lat="42.025580" lon="1.041448">
        <ele>1484.0</ele>
        <time>2015-08-29T10:39:30Z</time>
      </trkpt>
      <trkpt lat="42.025663" lon="1.041530">
        <ele>1485.0</ele>
        <time>2015-08-29T10:39:31Z</time>
      </trkpt>
      <trkpt lat="42.025732" lon="1.041623">
        <ele>1485.0</ele>
        <time>2015-08-29T10:39:32Z</time>
      </trkpt>
      <trkpt lat="42.025798" lon="1.041725">
        <ele>1485.0</ele>
        <time>2015-08-29T10:39:33Z</time>
      </trkpt>
      <trkpt lat="42.025867" lon="1.041827">
        <ele>1485.0</ele>
        <time>2015-08-29T10:39:34Z</time>
      </trkpt>
      <trkpt lat="42.025958" lon="1.041923">
        <ele>1478.0</ele>
        <time>2015-08-29T10:39:35Z</time>
      </trkpt>
      <trkpt lat="42.026035" lon="1.042015">
        <ele>1476.0</ele>
        <time>2015-08-29T10:39:36Z</time>
      </trkpt>
      <trkpt lat="42.026117" lon="1.042105">
        <ele>1474.0</ele>
        <time>2015-08-29T10:39:37Z</time>
      </trkpt>
      <trkpt lat="42.026200" lon="1.042195">
        <ele>1472.0</ele>
        <time>2015-08-29T10:39:38Z</time>
      </trkpt>
      <trkpt lat="42.026292" lon="1.042282">
        <ele>1469.0</ele>
        <time>2015-08-29T10:39:39Z</time>
      </trkpt>
      <trkpt lat="42.026392" lon="1.042362">
        <ele>1466.0</ele>
        <time>2015-08-29T10:39:40Z</time>
      </trkpt>
      <trkpt lat="42.026495" lon="1.042425">
        <ele>1464.0</ele>
        <time>2015-08-29T10:39:41Z</time>
      </trkpt>
      <trkpt lat="42.026607" lon="1.042478">
        <ele>1461.0</ele>
        <time>2015-08-29T10:39:42Z</time>
      </trkpt>
      <trkpt lat="42.026727" lon="1.042527">
        <ele>1458.0</ele>
        <time>2015-08-29T10:39:43Z</time>
      </trkpt>
      <trkpt lat="42.026853" lon="1.042570">
        <ele>1457.0</ele>
        <time>2015-08-29T10:39:44Z</time>
      </trkpt>
      <trkpt lat="42.026983" lon="1.042597">
        <ele>1457.0</ele>
        <time>2015-08-29T10:39:45Z</time>
      </trkpt>
      <trkpt lat="42.027117" lon="1.042603">
        <ele>1454.0</ele>
        <time>2015-08-29T10:39:46Z</time>
      </trkpt>
      <trkpt lat="42.027247" lon="1.042608">
        <ele>1453.0</ele>
        <time>2015-08-29T10:39:47Z</time>
      </trkpt>
      <trkpt lat="42.027383" lon="1.042608">
        <ele>1451.0</ele>
        <time>2015-08-29T10:39:48Z</time>
      </trkpt>
      <trkpt lat="42.027522" lon="1.042610">
        <ele>1449.0</ele>
        <time>2015-08-29T10:39:49Z</time>
      </trkpt>
      <trkpt lat="42.027665" lon="1.042602">
        <ele>1447.0</ele>
        <time>2015-08-29T10:39:50Z</time>
      </trkpt>
      <trkpt lat="42.027812" lon="1.042593">
        <ele>1445.0</ele>
        <time>2015-08-29T10:39:51Z</time>
      </trkpt>
      <trkpt lat="42.027953" lon="1.042590">
        <ele>1443.0</ele>
        <time>2015-08-29T10:39:52Z</time>
      </trkpt>
      <trkpt lat="42.028095" lon="1.042600">
        <ele>1440.0</ele>
        <time>2015-08-29T10:39:53Z</time>
      </trkpt>
      <trkpt lat="42.028243" lon="1.042612">
        <ele>1439.0</ele>
        <time>2015-08-29T10:39:54Z</time>
      </trkpt>
      <trkpt lat="42.028403" lon="1.042602">
        <ele>1437.0</ele>
        <time>2015-08-29T10:39:55Z</time>
      </trkpt>
      <trkpt lat="42.028568" lon="1.042555">
        <ele>1436.0</ele>
        <time>2015-08-29T10:39:56Z</time>
      </trkpt>
      <trkpt lat="42.028720" lon="1.042503">
        <ele>1436.0</ele>
        <time>2015-08-29T10:39:57Z</time>
      </trkpt>
      <trkpt lat="42.028860" lon="1.042462">
        <ele>1436.0</ele>
        <time>2015-08-29T10:39:58Z</time>
      </trkpt>
      <trkpt lat="42.028993" lon="1.042423">
        <ele>1436.0</ele>
        <time>2015-08-29T10:39:59Z</time>
      </trkpt>
      <trkpt lat="42.029132" lon="1.042370">
        <ele>1436.0</ele>
        <time>2015-08-29T10:40:00Z</time>
      </trkpt>
      <trkpt lat="42.029268" lon="1.042327">
        <ele>1438.0</ele>
        <time>2015-08-29T10:40:01Z</time>
      </trkpt>
      <trkpt lat="42.029402" lon="1.042293">
        <ele>1441.0</ele>
        <time>2015-08-29T10:40:02Z</time>
      </trkpt>
      <trkpt lat="42.029537" lon="1.042275">
        <ele>1443.0</ele>
        <time>2015-08-29T10:40:03Z</time>
      </trkpt>
      <trkpt lat="42.029673" lon="1.042272">
        <ele>1446.0</ele>
        <time>2015-08-29T10:40:04Z</time>
      </trkpt>
      <trkpt lat="42.029808" lon="1.042263">
        <ele>1449.0</ele>
        <time>2015-08-29T10:40:05Z</time>
      </trkpt>
      <trkpt lat="42.029932" lon="1.042240">
        <ele>1453.0</ele>
        <time>2015-08-29T10:40:06Z</time>
      </trkpt>
      <trkpt lat="42.030043" lon="1.042197">
        <ele>1456.0</ele>
        <time>2015-08-29T10:40:07Z</time>
      </trkpt>
      <trkpt lat="42.030138" lon="1.042135">
        <ele>1458.0</ele>
        <time>2015-08-29T10:40:08Z</time>
      </trkpt>
      <trkpt lat="42.030222" lon="1.042053">
        <ele>1460.0</ele>
        <time>2015-08-29T10:40:09Z</time>
      </trkpt>
      <trkpt lat="42.030290" lon="1.041962">
        <ele>1462.0</ele>
        <time>2015-08-29T10:40:10Z</time>
      </trkpt>
      <trkpt lat="42.030340" lon="1.041858">
        <ele>1464.0</ele>
        <time>2015-08-29T10:40:11Z</time>
      </trkpt>
      <trkpt lat="42.030378" lon="1.041748">
        <ele>1466.0</ele>
        <time>2015-08-29T10:40:12Z</time>
      </trkpt>
      <trkpt lat="42.030400" lon="1.041628">
        <ele>1466.0</ele>
        <time>2015-08-29T10:40:13Z</time>
      </trkpt>
      <trkpt lat="42.030415" lon="1.041510">
        <ele>1467.0</ele>
        <time>2015-08-29T10:40:14Z</time>
      </trkpt>
      <trkpt lat="42.030422" lon="1.041403">
        <ele>1467.0</ele>
        <time>2015-08-29T10:40:15Z</time>
      </trkpt>
      <trkpt lat="42.030423" lon="1.041308">
        <ele>1468.0</ele>
        <time>2015-08-29T10:40:16Z</time>
      </trkpt>
      <trkpt lat="42.030392" lon="1.041232">
        <ele>1471.0</ele>
        <time>2015-08-29T10:40:17Z</time>
      </trkpt>
      <trkpt lat="42.030383" lon="1.041153">
        <ele>1474.0</ele>
        <time>2015-08-29T10:40:18Z</time>
      </trkpt>
      <trkpt lat="42.030380" lon="1.041075">
        <ele>1476.0</ele>
        <time>2015-08-29T10:40:19Z</time>
      </trkpt>
      <trkpt lat="42.030345" lon="1.041022">
        <ele>1478.0</ele>
        <time>2015-08-29T10:40:20Z</time>
      </trkpt>
      <trkpt lat="42.030313" lon="1.040977">
        <ele>1480.0</ele>
        <time>2015-08-29T10:40:21Z</time>
      </trkpt>
      <trkpt lat="42.030277" lon="1.040940">
        <ele>1481.0</ele>
        <time>2015-08-29T10:40:22Z</time>
      </trkpt>
      <trkpt lat="42.030232" lon="1.040918">
        <ele>1481.0</ele>
        <time>2015-08-29T10:40:23Z</time>
      </trkpt>
      <trkpt lat="42.030182" lon="1.040918">
        <ele>1482.0</ele>
        <time>2015-08-29T10:40:24Z</time>
      </trkpt>
      <trkpt lat="42.030138" lon="1.040960">
        <ele>1482.0</ele>
        <time>2015-08-29T10:40:25Z</time>
      </trkpt>
      <trkpt lat="42.030100" lon="1.041020">
        <ele>1483.0</ele>
        <time>2015-08-29T10:40:26Z</time>
      </trkpt>
      <trkpt lat="42.030075" lon="1.041120">
        <ele>1483.0</ele>
        <time>2015-08-29T10:40:27Z</time>
      </trkpt>
      <trkpt lat="42.030095" lon="1.041203">
        <ele>1484.0</ele>
        <time>2015-08-29T10:40:28Z</time>
      </trkpt>
      <trkpt lat="42.030142" lon="1.041277">
        <ele>1485.0</ele>
        <time>2015-08-29T10:40:29Z</time>
      </trkpt>
      <trkpt lat="42.030212" lon="1.041357">
        <ele>1485.0</ele>
        <time>2015-08-29T10:40:30Z</time>
      </trkpt>
      <trkpt lat="42.030300" lon="1.041433">
        <ele>1485.0</ele>
        <time>2015-08-29T10:40:31Z</time>
      </trkpt>
      <trkpt lat="42.030407" lon="1.041508">
        <ele>1485.0</ele>
        <time>2015-08-29T10:40:32Z</time>
      </trkpt>
      <trkpt lat="42.030533" lon="1.041568">
        <ele>1484.0</ele>
        <time>2015-08-29T10:40:33Z</time>
      </trkpt>
      <trkpt lat="42.030658" lon="1.041600">
        <ele>1484.0</ele>
        <time>2015-08-29T10:40:34Z</time>
      </trkpt>
      <trkpt lat="42.030775" lon="1.041592">
        <ele>1484.0</ele>
        <time>2015-08-29T10:40:35Z</time>
      </trkpt>
      <trkpt lat="42.030870" lon="1.041550">
        <ele>1485.0</ele>
        <time>2015-08-29T10:40:36Z</time>
      </trkpt>
      <trkpt lat="42.030942" lon="1.041487">
        <ele>1486.0</ele>
        <time>2015-08-29T10:40:37Z</time>
      </trkpt>
      <trkpt lat="42.031015" lon="1.041423">
        <ele>1488.0</ele>
        <time>2015-08-29T10:40:38Z</time>
      </trkpt>
      <trkpt lat="42.031105" lon="1.041378">
        <ele>1489.0</ele>
        <time>2015-08-29T10:40:39Z</time>
      </trkpt>
      <trkpt lat="42.031212" lon="1.041348">
        <ele>1491.0</ele>
        <time>2015-08-29T10:40:40Z</time>
      </trkpt>
      <trkpt lat="42.031323" lon="1.041305">
        <ele>1493.0</ele>
        <time>2015-08-29T10:40:41Z</time>
      </trkpt>
      <trkpt lat="42.031425" lon="1.041237">
        <ele>1496.0</ele>
        <time>2015-08-29T10:40:42Z</time>
      </trkpt>
      <trkpt lat="42.031515" lon="1.041148">
        <ele>1498.0</ele>
        <time>2015-08-29T10:40:43Z</time>
      </trkpt>
      <trkpt lat="42.031610" lon="1.041042">
        <ele>1499.0</ele>
        <time>2015-08-29T10:40:44Z</time>
      </trkpt>
      <trkpt lat="42.031688" lon="1.040957">
        <ele>1502.0</ele>
        <time>2015-08-29T10:40:45Z</time>
      </trkpt>
      <trkpt lat="42.031763" lon="1.040843">
        <ele>1504.0</ele>
        <time>2015-08-29T10:40:46Z</time>
      </trkpt>
      <trkpt lat="42.031818" lon="1.040697">
        <ele>1506.0</ele>
        <time>2015-08-29T10:40:47Z</time>
      </trkpt>
      <trkpt lat="42.031857" lon="1.040553">
        <ele>1508.0</ele>
        <time>2015-08-29T10:40:48Z</time>
      </trkpt>
      <trkpt lat="42.031892" lon="1.040425">
        <ele>1510.0</ele>
        <time>2015-08-29T10:40:49Z</time>
      </trkpt>
      <trkpt lat="42.031928" lon="1.040315">
        <ele>1512.0</ele>
        <time>2015-08-29T10:40:50Z</time>
      </trkpt>
      <trkpt lat="42.031968" lon="1.040217">
        <ele>1514.0</ele>
        <time>2015-08-29T10:40:51Z</time>
      </trkpt>
      <trkpt lat="42.032008" lon="1.040113">
        <ele>1516.0</ele>
        <time>2015-08-29T10:40:52Z</time>
      </trkpt>
      <trkpt lat="42.032047" lon="1.040003">
        <ele>1518.0</ele>
        <time>2015-08-29T10:40:53Z</time>
      </trkpt>
      <trkpt lat="42.032078" lon="1.039907">
        <ele>1520.0</ele>
        <time>2015-08-29T10:40:54Z</time>
      </trkpt>
      <trkpt lat="42.032097" lon="1.039805">
        <ele>1522.0</ele>
        <time>2015-08-29T10:40:55Z</time>
      </trkpt>
      <trkpt lat="42.032103" lon="1.039718">
        <ele>1525.0</ele>
        <time>2015-08-29T10:40:56Z</time>
      </trkpt>
      <trkpt lat="42.032082" lon="1.039652">
        <ele>1526.0</ele>
        <time>2015-08-29T10:40:57Z</time>
      </trkpt>
      <trkpt lat="42.032068" lon="1.039607">
        <ele>1526.0</ele>
        <time>2015-08-29T10:40:58Z</time>
      </trkpt>
      <trkpt lat="42.032057" lon="1.039535">
        <ele>1527.0</ele>
        <time>2015-08-29T10:41:00Z</time>
      </trkpt>
      <trkpt lat="42.032017" lon="1.039502">
        <ele>1527.0</ele>
        <time>2015-08-29T10:41:02Z</time>
      </trkpt>
      <trkpt lat="42.031978" lon="1.039502">
        <ele>1526.0</ele>
        <time>2015-08-29T10:41:04Z</time>
      </trkpt>
      <trkpt lat="42.031943" lon="1.039575">
        <ele>1526.0</ele>
        <time>2015-08-29T10:41:06Z</time>
      </trkpt>
      <trkpt lat="42.031928" lon="1.039640">
        <ele>1526.0</ele>
        <time>2015-08-29T10:41:07Z</time>
      </trkpt>
      <trkpt lat="42.031940" lon="1.039722">
        <ele>1526.0</ele>
        <time>2015-08-29T10:41:08Z</time>
      </trkpt>
      <trkpt lat="42.031977" lon="1.039815">
        <ele>1526.0</ele>
        <time>2015-08-29T10:41:09Z</time>
      </trkpt>
      <trkpt lat="42.032040" lon="1.039915">
        <ele>1526.0</ele>
        <time>2015-08-29T10:41:10Z</time>
      </trkpt>
      <trkpt lat="42.032118" lon="1.040008">
        <ele>1526.0</ele>
        <time>2015-08-29T10:41:11Z</time>
      </trkpt>
      <trkpt lat="42.032180" lon="1.040082">
        <ele>1527.0</ele>
        <time>2015-08-29T10:41:12Z</time>
      </trkpt>
      <trkpt lat="42.032248" lon="1.040155">
        <ele>1529.0</ele>
        <time>2015-08-29T10:41:13Z</time>
      </trkpt>
      <trkpt lat="42.032340" lon="1.040228">
        <ele>1528.0</ele>
        <time>2015-08-29T10:41:14Z</time>
      </trkpt>
      <trkpt lat="42.032443" lon="1.040275">
        <ele>1529.0</ele>
        <time>2015-08-29T10:41:15Z</time>
      </trkpt>
      <trkpt lat="42.032555" lon="1.040302">
        <ele>1530.0</ele>
        <time>2015-08-29T10:41:16Z</time>
      </trkpt>
      <trkpt lat="42.032658" lon="1.040332">
        <ele>1531.0</ele>
        <time>2015-08-29T10:41:17Z</time>
      </trkpt>
      <trkpt lat="42.032750" lon="1.040377">
        <ele>1532.0</ele>
        <time>2015-08-29T10:41:18Z</time>
      </trkpt>
      <trkpt lat="42.032838" lon="1.040432">
        <ele>1533.0</ele>
        <time>2015-08-29T10:41:19Z</time>
      </trkpt>
      <trkpt lat="42.032923" lon="1.040490">
        <ele>1535.0</ele>
        <time>2015-08-29T10:41:20Z</time>
      </trkpt>
      <trkpt lat="42.033005" lon="1.040535">
        <ele>1536.0</ele>
        <time>2015-08-29T10:41:21Z</time>
      </trkpt>
      <trkpt lat="42.033087" lon="1.040572">
        <ele>1538.0</ele>
        <time>2015-08-29T10:41:22Z</time>
      </trkpt>
      <trkpt lat="42.033177" lon="1.040605">
        <ele>1539.0</ele>
        <time>2015-08-29T10:41:23Z</time>
      </trkpt>
      <trkpt lat="42.033278" lon="1.040635">
        <ele>1541.0</ele>
        <time>2015-08-29T10:41:24Z</time>
      </trkpt>
      <trkpt lat="42.033375" lon="1.040657">
        <ele>1544.0</ele>
        <time>2015-08-29T10:41:25Z</time>
      </trkpt>
      <trkpt lat="42.033468" lon="1.040665">
        <ele>1545.0</ele>
        <time>2015-08-29T10:41:26Z</time>
      </trkpt>
      <trkpt lat="42.033550" lon="1.040670">
        <ele>1547.0</ele>
        <time>2015-08-29T10:41:27Z</time>
      </trkpt>
      <trkpt lat="42.033647" lon="1.040657">
        <ele>1546.0</ele>
        <time>2015-08-29T10:41:28Z</time>
      </trkpt>
      <trkpt lat="42.033740" lon="1.040652">
        <ele>1548.0</ele>
        <time>2015-08-29T10:41:29Z</time>
      </trkpt>
      <trkpt lat="42.033840" lon="1.040662">
        <ele>1550.0</ele>
        <time>2015-08-29T10:41:30Z</time>
      </trkpt>
      <trkpt lat="42.033947" lon="1.040677">
        <ele>1548.0</ele>
        <time>2015-08-29T10:41:31Z</time>
      </trkpt>
      <trkpt lat="42.034035" lon="1.040708">
        <ele>1548.0</ele>
        <time>2015-08-29T10:41:32Z</time>
      </trkpt>
      <trkpt lat="42.034110" lon="1.040755">
        <ele>1548.0</ele>
        <time>2015-08-29T10:41:33Z</time>
      </trkpt>
      <trkpt lat="42.034173" lon="1.040817">
        <ele>1548.0</ele>
        <time>2015-08-29T10:41:34Z</time>
      </trkpt>
      <trkpt lat="42.034227" lon="1.040888">
        <ele>1549.0</ele>
        <time>2015-08-29T10:41:35Z</time>
      </trkpt>
      <trkpt lat="42.034270" lon="1.040952">
        <ele>1549.0</ele>
        <time>2015-08-29T10:41:36Z</time>
      </trkpt>
      <trkpt lat="42.034305" lon="1.040997">
        <ele>1549.0</ele>
        <time>2015-08-29T10:41:37Z</time>
      </trkpt>
      <trkpt lat="42.034290" lon="1.041063">
        <ele>1550.0</ele>
        <time>2015-08-29T10:41:39Z</time>
      </trkpt>
      <trkpt lat="42.034307" lon="1.041137">
        <ele>1550.0</ele>
        <time>2015-08-29T10:41:41Z</time>
      </trkpt>
      <trkpt lat="42.034332" lon="1.041182">
        <ele>1551.0</ele>
        <time>2015-08-29T10:41:42Z</time>
      </trkpt>
      <trkpt lat="42.034350" lon="1.041230">
        <ele>1552.0</ele>
        <time>2015-08-29T10:41:43Z</time>
      </trkpt>
      <trkpt lat="42.034362" lon="1.041292">
        <ele>1553.0</ele>
        <time>2015-08-29T10:41:44Z</time>
      </trkpt>
      <trkpt lat="42.034337" lon="1.041350">
        <ele>1553.0</ele>
        <time>2015-08-29T10:41:45Z</time>
      </trkpt>
      <trkpt lat="42.034340" lon="1.041452">
        <ele>1556.0</ele>
        <time>2015-08-29T10:41:47Z</time>
      </trkpt>
      <trkpt lat="42.034360" lon="1.041528">
        <ele>1556.0</ele>
        <time>2015-08-29T10:41:48Z</time>
      </trkpt>
      <trkpt lat="42.034370" lon="1.041588">
        <ele>1556.0</ele>
        <time>2015-08-29T10:41:49Z</time>
      </trkpt>
      <trkpt lat="42.034377" lon="1.041637">
        <ele>1557.0</ele>
        <time>2015-08-29T10:41:50Z</time>
      </trkpt>
      <trkpt lat="42.034392" lon="1.041733">
        <ele>1560.0</ele>
        <time>2015-08-29T10:41:52Z</time>
      </trkpt>
      <trkpt lat="42.034420" lon="1.041822">
        <ele>1560.0</ele>
        <time>2015-08-29T10:41:53Z</time>
      </trkpt>
      <trkpt lat="42.034470" lon="1.041925">
        <ele>1561.0</ele>
        <time>2015-08-29T10:41:54Z</time>
      </trkpt>
      <trkpt lat="42.034528" lon="1.042005">
        <ele>1562.0</ele>
        <time>2015-08-29T10:41:55Z</time>
      </trkpt>
      <trkpt lat="42.034583" lon="1.042057">
        <ele>1563.0</ele>
        <time>2015-08-29T10:41:56Z</time>
      </trkpt>
      <trkpt lat="42.034633" lon="1.042112">
        <ele>1565.0</ele>
        <time>2015-08-29T10:41:57Z</time>
      </trkpt>
      <trkpt lat="42.034690" lon="1.042202">
        <ele>1564.0</ele>
        <time>2015-08-29T10:41:58Z</time>
      </trkpt>
      <trkpt lat="42.034747" lon="1.042317">
        <ele>1564.0</ele>
        <time>2015-08-29T10:41:59Z</time>
      </trkpt>
      <trkpt lat="42.034818" lon="1.042438">
        <ele>1563.0</ele>
        <time>2015-08-29T10:42:00Z</time>
      </trkpt>
      <trkpt lat="42.034900" lon="1.042538">
        <ele>1563.0</ele>
        <time>2015-08-29T10:42:01Z</time>
      </trkpt>
      <trkpt lat="42.034980" lon="1.042615">
        <ele>1565.0</ele>
        <time>2015-08-29T10:42:02Z</time>
      </trkpt>
      <trkpt lat="42.035070" lon="1.042687">
        <ele>1566.0</ele>
        <time>2015-08-29T10:42:03Z</time>
      </trkpt>
      <trkpt lat="42.035168" lon="1.042765">
        <ele>1566.0</ele>
        <time>2015-08-29T10:42:04Z</time>
      </trkpt>
      <trkpt lat="42.035277" lon="1.042848">
        <ele>1568.0</ele>
        <time>2015-08-29T10:42:05Z</time>
      </trkpt>
      <trkpt lat="42.035395" lon="1.042933">
        <ele>1569.0</ele>
        <time>2015-08-29T10:42:06Z</time>
      </trkpt>
      <trkpt lat="42.035520" lon="1.042998">
        <ele>1572.0</ele>
        <time>2015-08-29T10:42:07Z</time>
      </trkpt>
      <trkpt lat="42.035652" lon="1.043045">
        <ele>1574.0</ele>
        <time>2015-08-29T10:42:08Z</time>
      </trkpt>
      <trkpt lat="42.035778" lon="1.043080">
        <ele>1576.0</ele>
        <time>2015-08-29T10:42:09Z</time>
      </trkpt>
      <trkpt lat="42.035907" lon="1.043117">
        <ele>1578.0</ele>
        <time>2015-08-29T10:42:10Z</time>
      </trkpt>
      <trkpt lat="42.036038" lon="1.043157">
        <ele>1580.0</ele>
        <time>2015-08-29T10:42:11Z</time>
      </trkpt>
      <trkpt lat="42.036180" lon="1.043187">
        <ele>1581.0</ele>
        <time>2015-08-29T10:42:12Z</time>
      </trkpt>
      <trkpt lat="42.036308" lon="1.043210">
        <ele>1584.0</ele>
        <time>2015-08-29T10:42:13Z</time>
      </trkpt>
      <trkpt lat="42.036430" lon="1.043203">
        <ele>1587.0</ele>
        <time>2015-08-29T10:42:14Z</time>
      </trkpt>
      <trkpt lat="42.036557" lon="1.043168">
        <ele>1589.0</ele>
        <time>2015-08-29T10:42:15Z</time>
      </trkpt>
      <trkpt lat="42.036682" lon="1.043130">
        <ele>1591.0</ele>
        <time>2015-08-29T10:42:16Z</time>
      </trkpt>
      <trkpt lat="42.036803" lon="1.043098">
        <ele>1594.0</ele>
        <time>2015-08-29T10:42:17Z</time>
      </trkpt>
      <trkpt lat="42.036913" lon="1.043077">
        <ele>1597.0</ele>
        <time>2015-08-29T10:42:18Z</time>
      </trkpt>
      <trkpt lat="42.037010" lon="1.043077">
        <ele>1599.0</ele>
        <time>2015-08-29T10:42:19Z</time>
      </trkpt>
      <trkpt lat="42.037103" lon="1.043072">
        <ele>1602.0</ele>
        <time>2015-08-29T10:42:20Z</time>
      </trkpt>
      <trkpt lat="42.037197" lon="1.043067">
        <ele>1603.0</ele>
        <time>2015-08-29T10:42:21Z</time>
      </trkpt>
      <trkpt lat="42.037290" lon="1.043062">
        <ele>1605.0</ele>
        <time>2015-08-29T10:42:22Z</time>
      </trkpt>
      <trkpt lat="42.037387" lon="1.043045">
        <ele>1607.0</ele>
        <time>2015-08-29T10:42:23Z</time>
      </trkpt>
      <trkpt lat="42.037478" lon="1.043020">
        <ele>1609.0</ele>
        <time>2015-08-29T10:42:24Z</time>
      </trkpt>
      <trkpt lat="42.037568" lon="1.042987">
        <ele>1611.0</ele>
        <time>2015-08-29T10:42:25Z</time>
      </trkpt>
      <trkpt lat="42.037660" lon="1.042955">
        <ele>1613.0</ele>
        <time>2015-08-29T10:42:26Z</time>
      </trkpt>
      <trkpt lat="42.037752" lon="1.042935">
        <ele>1614.0</ele>
        <time>2015-08-29T10:42:27Z</time>
      </trkpt>
      <trkpt lat="42.037847" lon="1.042920">
        <ele>1616.0</ele>
        <time>2015-08-29T10:42:28Z</time>
      </trkpt>
      <trkpt lat="42.037938" lon="1.042912">
        <ele>1618.0</ele>
        <time>2015-08-29T10:42:29Z</time>
      </trkpt>
      <trkpt lat="42.038037" lon="1.042905">
        <ele>1621.0</ele>
        <time>2015-08-29T10:42:30Z</time>
      </trkpt>
      <trkpt lat="42.038140" lon="1.042890">
        <ele>1623.0</ele>
        <time>2015-08-29T10:42:31Z</time>
      </trkpt>
      <trkpt lat="42.038248" lon="1.042865">
        <ele>1625.0</ele>
        <time>2015-08-29T10:42:32Z</time>
      </trkpt>
      <trkpt lat="42.038338" lon="1.042838">
        <ele>1628.0</ele>
        <time>2015-08-29T10:42:33Z</time>
      </trkpt>
      <trkpt lat="42.038423" lon="1.042812">
        <ele>1629.0</ele>
        <time>2015-08-29T10:42:34Z</time>
      </trkpt>
      <trkpt lat="42.038512" lon="1.042787">
        <ele>1631.0</ele>
        <time>2015-08-29T10:42:35Z</time>
      </trkpt>
      <trkpt lat="42.038610" lon="1.042737">
        <ele>1633.0</ele>
        <time>2015-08-29T10:42:36Z</time>
      </trkpt>
      <trkpt lat="42.038703" lon="1.042688">
        <ele>1639.0</ele>
        <time>2015-08-29T10:42:37Z</time>
      </trkpt>
      <trkpt lat="42.038793" lon="1.042630">
        <ele>1643.0</ele>
        <time>2015-08-29T10:42:38Z</time>
      </trkpt>
      <trkpt lat="42.038872" lon="1.042563">
        <ele>1647.0</ele>
        <time>2015-08-29T10:42:39Z</time>
      </trkpt>
      <trkpt lat="42.038940" lon="1.042495">
        <ele>1651.0</ele>
        <time>2015-08-29T10:42:40Z</time>
      </trkpt>
      <trkpt lat="42.039002" lon="1.042427">
        <ele>1656.0</ele>
        <time>2015-08-29T10:42:41Z</time>
      </trkpt>
      <trkpt lat="42.039062" lon="1.042362">
        <ele>1659.0</ele>
        <time>2015-08-29T10:42:42Z</time>
      </trkpt>
      <trkpt lat="42.039122" lon="1.042293">
        <ele>1662.0</ele>
        <time>2015-08-29T10:42:43Z</time>
      </trkpt>
      <trkpt lat="42.039173" lon="1.042205">
        <ele>1665.0</ele>
        <time>2015-08-29T10:42:44Z</time>
      </trkpt>
      <trkpt lat="42.039213" lon="1.042098">
        <ele>1667.0</ele>
        <time>2015-08-29T10:42:45Z</time>
      </trkpt>
      <trkpt lat="42.039240" lon="1.041992">
        <ele>1669.0</ele>
        <time>2015-08-29T10:42:46Z</time>
      </trkpt>
      <trkpt lat="42.039258" lon="1.041915">
        <ele>1673.0</ele>
        <time>2015-08-29T10:42:47Z</time>
      </trkpt>
      <trkpt lat="42.039282" lon="1.041835">
        <ele>1675.0</ele>
        <time>2015-08-29T10:42:48Z</time>
      </trkpt>
      <trkpt lat="42.039302" lon="1.041747">
        <ele>1675.0</ele>
        <time>2015-08-29T10:42:49Z</time>
      </trkpt>
      <trkpt lat="42.039312" lon="1.041658">
        <ele>1675.0</ele>
        <time>2015-08-29T10:42:50Z</time>
      </trkpt>
      <trkpt lat="42.039305" lon="1.041567">
        <ele>1674.0</ele>
        <time>2015-08-29T10:42:51Z</time>
      </trkpt>
      <trkpt lat="42.039285" lon="1.041480">
        <ele>1675.0</ele>
        <time>2015-08-29T10:42:52Z</time>
      </trkpt>
      <trkpt lat="42.039250" lon="1.041408">
        <ele>1674.0</ele>
        <time>2015-08-29T10:42:53Z</time>
      </trkpt>
      <trkpt lat="42.039225" lon="1.041362">
        <ele>1675.0</ele>
        <time>2015-08-29T10:42:54Z</time>
      </trkpt>
      <trkpt lat="42.039185" lon="1.041350">
        <ele>1675.0</ele>
        <time>2015-08-29T10:42:56Z</time>
      </trkpt>
      <trkpt lat="42.039137" lon="1.041375">
        <ele>1674.0</ele>
        <time>2015-08-29T10:42:57Z</time>
      </trkpt>
      <trkpt lat="42.039085" lon="1.041408">
        <ele>1675.0</ele>
        <time>2015-08-29T10:42:58Z</time>
      </trkpt>
      <trkpt lat="42.039053" lon="1.041483">
        <ele>1674.0</ele>
        <time>2015-08-29T10:42:59Z</time>
      </trkpt>
      <trkpt lat="42.039037" lon="1.041578">
        <ele>1673.0</ele>
        <time>2015-08-29T10:43:00Z</time>
      </trkpt>
      <trkpt lat="42.039025" lon="1.041667">
        <ele>1672.0</ele>
        <time>2015-08-29T10:43:01Z</time>
      </trkpt>
      <trkpt lat="42.039015" lon="1.041743">
        <ele>1671.0</ele>
        <time>2015-08-29T10:43:02Z</time>
      </trkpt>
      <trkpt lat="42.039017" lon="1.041850">
        <ele>1670.0</ele>
        <time>2015-08-29T10:43:03Z</time>
      </trkpt>
      <trkpt lat="42.039025" lon="1.041935">
        <ele>1669.0</ele>
        <time>2015-08-29T10:43:04Z</time>
      </trkpt>
      <trkpt lat="42.039042" lon="1.042022">
        <ele>1669.0</ele>
        <time>2015-08-29T10:43:05Z</time>
      </trkpt>
      <trkpt lat="42.039093" lon="1.042137">
        <ele>1668.0</ele>
        <time>2015-08-29T10:43:06Z</time>
      </trkpt>
      <trkpt lat="42.039150" lon="1.042255">
        <ele>1668.0</ele>
        <time>2015-08-29T10:43:07Z</time>
      </trkpt>
      <trkpt lat="42.039207" lon="1.042362">
        <ele>1668.0</ele>
        <time>2015-08-29T10:43:08Z</time>
      </trkpt>
      <trkpt lat="42.039262" lon="1.042445">
        <ele>1667.0</ele>
        <time>2015-08-29T10:43:09Z</time>
      </trkpt>
      <trkpt lat="42.039318" lon="1.042512">
        <ele>1667.0</ele>
        <time>2015-08-29T10:43:10Z</time>
      </trkpt>
      <trkpt lat="42.039385" lon="1.042580">
        <ele>1667.0</ele>
        <time>2015-08-29T10:43:11Z</time>
      </trkpt>
      <trkpt lat="42.039468" lon="1.042663">
        <ele>1667.0</ele>
        <time>2015-08-29T10:43:12Z</time>
      </trkpt>
      <trkpt lat="42.039570" lon="1.042757">
        <ele>1666.0</ele>
        <time>2015-08-29T10:43:13Z</time>
      </trkpt>
      <trkpt lat="42.039675" lon="1.042827">
        <ele>1668.0</ele>
        <time>2015-08-29T10:43:14Z</time>
      </trkpt>
      <trkpt lat="42.039778" lon="1.042860">
        <ele>1670.0</ele>
        <time>2015-08-29T10:43:15Z</time>
      </trkpt>
      <trkpt lat="42.039890" lon="1.042880">
        <ele>1671.0</ele>
        <time>2015-08-29T10:43:16Z</time>
      </trkpt>
      <trkpt lat="42.039995" lon="1.042923">
        <ele>1671.0</ele>
        <time>2015-08-29T10:43:17Z</time>
      </trkpt>
      <trkpt lat="42.040085" lon="1.042987">
        <ele>1673.0</ele>
        <time>2015-08-29T10:43:18Z</time>
      </trkpt>
      <trkpt lat="42.040168" lon="1.043053">
        <ele>1675.0</ele>
        <time>2015-08-29T10:43:19Z</time>
      </trkpt>
      <trkpt lat="42.040248" lon="1.043102">
        <ele>1677.0</ele>
        <time>2015-08-29T10:43:20Z</time>
      </trkpt>
      <trkpt lat="42.040337" lon="1.043130">
        <ele>1679.0</ele>
        <time>2015-08-29T10:43:21Z</time>
      </trkpt>
      <trkpt lat="42.040435" lon="1.043137">
        <ele>1681.0</ele>
        <time>2015-08-29T10:43:22Z</time>
      </trkpt>
      <trkpt lat="42.040535" lon="1.043148">
        <ele>1682.0</ele>
        <time>2015-08-29T10:43:23Z</time>
      </trkpt>
      <trkpt lat="42.040632" lon="1.043175">
        <ele>1684.0</ele>
        <time>2015-08-29T10:43:24Z</time>
      </trkpt>
      <trkpt lat="42.040723" lon="1.043200">
        <ele>1685.0</ele>
        <time>2015-08-29T10:43:25Z</time>
      </trkpt>
      <trkpt lat="42.040813" lon="1.043205">
        <ele>1686.0</ele>
        <time>2015-08-29T10:43:26Z</time>
      </trkpt>
      <trkpt lat="42.040903" lon="1.043190">
        <ele>1687.0</ele>
        <time>2015-08-29T10:43:27Z</time>
      </trkpt>
      <trkpt lat="42.040997" lon="1.043145">
        <ele>1688.0</ele>
        <time>2015-08-29T10:43:28Z</time>
      </trkpt>
      <trkpt lat="42.041088" lon="1.043088">
        <ele>1689.0</ele>
        <time>2015-08-29T10:43:29Z</time>
      </trkpt>
      <trkpt lat="42.041178" lon="1.043017">
        <ele>1690.0</ele>
        <time>2015-08-29T10:43:30Z</time>
      </trkpt>
      <trkpt lat="42.041257" lon="1.042955">
        <ele>1691.0</ele>
        <time>2015-08-29T10:43:31Z</time>
      </trkpt>
      <trkpt lat="42.041327" lon="1.042893">
        <ele>1694.0</ele>
        <time>2015-08-29T10:43:32Z</time>
      </trkpt>
      <trkpt lat="42.041397" lon="1.042807">
        <ele>1694.0</ele>
        <time>2015-08-29T10:43:33Z</time>
      </trkpt>
      <trkpt lat="42.041460" lon="1.042715">
        <ele>1694.0</ele>
        <time>2015-08-29T10:43:34Z</time>
      </trkpt>
      <trkpt lat="42.041520" lon="1.042620">
        <ele>1694.0</ele>
        <time>2015-08-29T10:43:35Z</time>
      </trkpt>
      <trkpt lat="42.041583" lon="1.042517">
        <ele>1695.0</ele>
        <time>2015-08-29T10:43:36Z</time>
      </trkpt>
      <trkpt lat="42.041648" lon="1.042425">
        <ele>1696.0</ele>
        <time>2015-08-29T10:43:37Z</time>
      </trkpt>
      <trkpt lat="42.041720" lon="1.042327">
        <ele>1699.0</ele>
        <time>2015-08-29T10:43:38Z</time>
      </trkpt>
      <trkpt lat="42.041797" lon="1.042235">
        <ele>1701.0</ele>
        <time>2015-08-29T10:43:39Z</time>
      </trkpt>
      <trkpt lat="42.041872" lon="1.042150">
        <ele>1703.0</ele>
        <time>2015-08-29T10:43:40Z</time>
      </trkpt>
      <trkpt lat="42.041952" lon="1.042073">
        <ele>1705.0</ele>
        <time>2015-08-29T10:43:41Z</time>
      </trkpt>
      <trkpt lat="42.042042" lon="1.042007">
        <ele>1707.0</ele>
        <time>2015-08-29T10:43:42Z</time>
      </trkpt>
      <trkpt lat="42.042143" lon="1.041950">
        <ele>1709.0</ele>
        <time>2015-08-29T10:43:43Z</time>
      </trkpt>
      <trkpt lat="42.042250" lon="1.041908">
        <ele>1711.0</ele>
        <time>2015-08-29T10:43:44Z</time>
      </trkpt>
      <trkpt lat="42.042360" lon="1.041880">
        <ele>1714.0</ele>
        <time>2015-08-29T10:43:45Z</time>
      </trkpt>
      <trkpt lat="42.042473" lon="1.041860">
        <ele>1716.0</ele>
        <time>2015-08-29T10:43:46Z</time>
      </trkpt>
      <trkpt lat="42.042573" lon="1.041845">
        <ele>1718.0</ele>
        <time>2015-08-29T10:43:47Z</time>
      </trkpt>
      <trkpt lat="42.042673" lon="1.041833">
        <ele>1721.0</ele>
        <time>2015-08-29T10:43:48Z</time>
      </trkpt>
      <trkpt lat="42.042785" lon="1.041835">
        <ele>1723.0</ele>
        <time>2015-08-29T10:43:49Z</time>
      </trkpt>
      <trkpt lat="42.042907" lon="1.041847">
        <ele>1725.0</ele>
        <time>2015-08-29T10:43:50Z</time>
      </trkpt>
      <trkpt lat="42.043022" lon="1.041888">
        <ele>1726.0</ele>
        <time>2015-08-29T10:43:51Z</time>
      </trkpt>
      <trkpt lat="42.043130" lon="1.041942">
        <ele>1728.0</ele>
        <time>2015-08-29T10:43:52Z</time>
      </trkpt>
      <trkpt lat="42.043233" lon="1.042002">
        <ele>1729.0</ele>
        <time>2015-08-29T10:43:53Z</time>
      </trkpt>
      <trkpt lat="42.043328" lon="1.042063">
        <ele>1731.0</ele>
        <time>2015-08-29T10:43:54Z</time>
      </trkpt>
      <trkpt lat="42.043410" lon="1.042137">
        <ele>1732.0</ele>
        <time>2015-08-29T10:43:55Z</time>
      </trkpt>
      <trkpt lat="42.043460" lon="1.042228">
        <ele>1734.0</ele>
        <time>2015-08-29T10:43:56Z</time>
      </trkpt>
      <trkpt lat="42.043497" lon="1.042337">
        <ele>1735.0</ele>
        <time>2015-08-29T10:43:57Z</time>
      </trkpt>
      <trkpt lat="42.043518" lon="1.042455">
        <ele>1737.0</ele>
        <time>2015-08-29T10:43:58Z</time>
      </trkpt>
      <trkpt lat="42.043532" lon="1.042558">
        <ele>1739.0</ele>
        <time>2015-08-29T10:43:59Z</time>
      </trkpt>
      <trkpt lat="42.043533" lon="1.042655">
        <ele>1739.0</ele>
        <time>2015-08-29T10:44:00Z</time>
      </trkpt>
      <trkpt lat="42.043517" lon="1.042725">
        <ele>1738.0</ele>
        <time>2015-08-29T10:44:01Z</time>
      </trkpt>
      <trkpt lat="42.043480" lon="1.042767">
        <ele>1738.0</ele>
        <time>2015-08-29T10:44:02Z</time>
      </trkpt>
      <trkpt lat="42.043445" lon="1.042787">
        <ele>1737.0</ele>
        <time>2015-08-29T10:44:03Z</time>
      </trkpt>
      <trkpt lat="42.043408" lon="1.042788">
        <ele>1736.0</ele>
        <time>2015-08-29T10:44:04Z</time>
      </trkpt>
      <trkpt lat="42.043370" lon="1.042773">
        <ele>1736.0</ele>
        <time>2015-08-29T10:44:05Z</time>
      </trkpt>
      <trkpt lat="42.043327" lon="1.042743">
        <ele>1736.0</ele>
        <time>2015-08-29T10:44:06Z</time>
      </trkpt>
      <trkpt lat="42.043292" lon="1.042687">
        <ele>1736.0</ele>
        <time>2015-08-29T10:44:07Z</time>
      </trkpt>
      <trkpt lat="42.043273" lon="1.042600">
        <ele>1736.0</ele>
        <time>2015-08-29T10:44:08Z</time>
      </trkpt>
      <trkpt lat="42.043277" lon="1.042495">
        <ele>1736.0</ele>
        <time>2015-08-29T10:44:09Z</time>
      </trkpt>
      <trkpt lat="42.043297" lon="1.042382">
        <ele>1736.0</ele>
        <time>2015-08-29T10:44:10Z</time>
      </trkpt>
      <trkpt lat="42.043333" lon="1.042265">
        <ele>1736.0</ele>
        <time>2015-08-29T10:44:11Z</time>
      </trkpt>
      <trkpt lat="42.043377" lon="1.042160">
        <ele>1737.0</ele>
        <time>2015-08-29T10:44:12Z</time>
      </trkpt>
      <trkpt lat="42.043432" lon="1.042062">
        <ele>1739.0</ele>
        <time>2015-08-29T10:44:13Z</time>
      </trkpt>
      <trkpt lat="42.043493" lon="1.041960">
        <ele>1740.0</ele>
        <time>2015-08-29T10:44:14Z</time>
      </trkpt>
      <trkpt lat="42.043547" lon="1.041875">
        <ele>1742.0</ele>
        <time>2015-08-29T10:44:15Z</time>
      </trkpt>
      <trkpt lat="42.043592" lon="1.041798">
        <ele>1744.0</ele>
        <time>2015-08-29T10:44:16Z</time>
      </trkpt>
      <trkpt lat="42.043638" lon="1.041693">
        <ele>1745.0</ele>
        <time>2015-08-29T10:44:17Z</time>
      </trkpt>
      <trkpt lat="42.043682" lon="1.041588">
        <ele>1746.0</ele>
        <time>2015-08-29T10:44:18Z</time>
      </trkpt>
      <trkpt lat="42.043725" lon="1.041483">
        <ele>1747.0</ele>
        <time>2015-08-29T10:44:19Z</time>
      </trkpt>
      <trkpt lat="42.043767" lon="1.041387">
        <ele>1748.0</ele>
        <time>2015-08-29T10:44:20Z</time>
      </trkpt>
      <trkpt lat="42.043807" lon="1.041303">
        <ele>1750.0</ele>
        <time>2015-08-29T10:44:21Z</time>
      </trkpt>
      <trkpt lat="42.043847" lon="1.041217">
        <ele>1751.0</ele>
        <time>2015-08-29T10:44:22Z</time>
      </trkpt>
      <trkpt lat="42.043888" lon="1.041125">
        <ele>1752.0</ele>
        <time>2015-08-29T10:44:23Z</time>
      </trkpt>
      <trkpt lat="42.043943" lon="1.041027">
        <ele>1754.0</ele>
        <time>2015-08-29T10:44:24Z</time>
      </trkpt>
      <trkpt lat="42.044015" lon="1.040933">
        <ele>1755.0</ele>
        <time>2015-08-29T10:44:25Z</time>
      </trkpt>
      <trkpt lat="42.044100" lon="1.040857">
        <ele>1757.0</ele>
        <time>2015-08-29T10:44:26Z</time>
      </trkpt>
      <trkpt lat="42.044187" lon="1.040802">
        <ele>1759.0</ele>
        <time>2015-08-29T10:44:27Z</time>
      </trkpt>
      <trkpt lat="42.044272" lon="1.040753">
        <ele>1762.0</ele>
        <time>2015-08-29T10:44:28Z</time>
      </trkpt>
      <trkpt lat="42.044353" lon="1.040703">
        <ele>1764.0</ele>
        <time>2015-08-29T10:44:29Z</time>
      </trkpt>
      <trkpt lat="42.044440" lon="1.040648">
        <ele>1766.0</ele>
        <time>2015-08-29T10:44:30Z</time>
      </trkpt>
      <trkpt lat="42.044535" lon="1.040593">
        <ele>1767.0</ele>
        <time>2015-08-29T10:44:31Z</time>
      </trkpt>
      <trkpt lat="42.044623" lon="1.040568">
        <ele>1769.0</ele>
        <time>2015-08-29T10:44:32Z</time>
      </trkpt>
      <trkpt lat="42.044717" lon="1.040540">
        <ele>1771.0</ele>
        <time>2015-08-29T10:44:33Z</time>
      </trkpt>
      <trkpt lat="42.044827" lon="1.040502">
        <ele>1772.0</ele>
        <time>2015-08-29T10:44:34Z</time>
      </trkpt>
      <trkpt lat="42.044932" lon="1.040475">
        <ele>1772.0</ele>
        <time>2015-08-29T10:44:35Z</time>
      </trkpt>
      <trkpt lat="42.045028" lon="1.040457">
        <ele>1773.0</ele>
        <time>2015-08-29T10:44:36Z</time>
      </trkpt>
      <trkpt lat="42.045125" lon="1.040448">
        <ele>1774.0</ele>
        <time>2015-08-29T10:44:37Z</time>
      </trkpt>
      <trkpt lat="42.045223" lon="1.040448">
        <ele>1775.0</ele>
        <time>2015-08-29T10:44:38Z</time>
      </trkpt>
      <trkpt lat="42.045333" lon="1.040452">
        <ele>1775.0</ele>
        <time>2015-08-29T10:44:39Z</time>
      </trkpt>
      <trkpt lat="42.045437" lon="1.040478">
        <ele>1776.0</ele>
        <time>2015-08-29T10:44:40Z</time>
      </trkpt>
      <trkpt lat="42.045535" lon="1.040513">
        <ele>1777.0</ele>
        <time>2015-08-29T10:44:41Z</time>
      </trkpt>
      <trkpt lat="42.045633" lon="1.040560">
        <ele>1777.0</ele>
        <time>2015-08-29T10:44:42Z</time>
      </trkpt>
      <trkpt lat="42.045728" lon="1.040620">
        <ele>1778.0</ele>
        <time>2015-08-29T10:44:43Z</time>
      </trkpt>
      <trkpt lat="42.045815" lon="1.040695">
        <ele>1778.0</ele>
        <time>2015-08-29T10:44:44Z</time>
      </trkpt>
      <trkpt lat="42.045895" lon="1.040782">
        <ele>1779.0</ele>
        <time>2015-08-29T10:44:45Z</time>
      </trkpt>
      <trkpt lat="42.045960" lon="1.040880">
        <ele>1780.0</ele>
        <time>2015-08-29T10:44:46Z</time>
      </trkpt>
      <trkpt lat="42.046012" lon="1.040985">
        <ele>1780.0</ele>
        <time>2015-08-29T10:44:47Z</time>
      </trkpt>
      <trkpt lat="42.046045" lon="1.041095">
        <ele>1781.0</ele>
        <time>2015-08-29T10:44:48Z</time>
      </trkpt>
      <trkpt lat="42.046073" lon="1.041210">
        <ele>1783.0</ele>
        <time>2015-08-29T10:44:49Z</time>
      </trkpt>
      <trkpt lat="42.046103" lon="1.041330">
        <ele>1785.0</ele>
        <time>2015-08-29T10:44:50Z</time>
      </trkpt>
      <trkpt lat="42.046130" lon="1.041445">
        <ele>1785.0</ele>
        <time>2015-08-29T10:44:51Z</time>
      </trkpt>
      <trkpt lat="42.046153" lon="1.041558">
        <ele>1784.0</ele>
        <time>2015-08-29T10:44:52Z</time>
      </trkpt>
      <trkpt lat="42.046163" lon="1.041668">
        <ele>1784.0</ele>
        <time>2015-08-29T10:44:53Z</time>
      </trkpt>
      <trkpt lat="42.046173" lon="1.041758">
        <ele>1783.0</ele>
        <time>2015-08-29T10:44:54Z</time>
      </trkpt>
      <trkpt lat="42.046143" lon="1.041827">
        <ele>1782.0</ele>
        <time>2015-08-29T10:44:55Z</time>
      </trkpt>
      <trkpt lat="42.046108" lon="1.041873">
        <ele>1782.0</ele>
        <time>2015-08-29T10:44:56Z</time>
      </trkpt>
      <trkpt lat="42.046060" lon="1.041897">
        <ele>1781.0</ele>
        <time>2015-08-29T10:44:57Z</time>
      </trkpt>
      <trkpt lat="42.046005" lon="1.041890">
        <ele>1781.0</ele>
        <time>2015-08-29T10:44:58Z</time>
      </trkpt>
      <trkpt lat="42.045958" lon="1.041848">
        <ele>1781.0</ele>
        <time>2015-08-29T10:44:59Z</time>
      </trkpt>
      <trkpt lat="42.045922" lon="1.041790">
        <ele>1782.0</ele>
        <time>2015-08-29T10:45:00Z</time>
      </trkpt>
      <trkpt lat="42.045903" lon="1.041717">
        <ele>1782.0</ele>
        <time>2015-08-29T10:45:01Z</time>
      </trkpt>
      <trkpt lat="42.045897" lon="1.041652">
        <ele>1783.0</ele>
        <time>2015-08-29T10:45:02Z</time>
      </trkpt>
      <trkpt lat="42.045892" lon="1.041600">
        <ele>1783.0</ele>
        <time>2015-08-29T10:45:03Z</time>
      </trkpt>
      <trkpt lat="42.045883" lon="1.041552">
        <ele>1784.0</ele>
        <time>2015-08-29T10:45:04Z</time>
      </trkpt>
      <trkpt lat="42.045875" lon="1.041498">
        <ele>1785.0</ele>
        <time>2015-08-29T10:45:05Z</time>
      </trkpt>
      <trkpt lat="42.045875" lon="1.041422">
        <ele>1786.0</ele>
        <time>2015-08-29T10:45:06Z</time>
      </trkpt>
      <trkpt lat="42.045892" lon="1.041330">
        <ele>1787.0</ele>
        <time>2015-08-29T10:45:07Z</time>
      </trkpt>
      <trkpt lat="42.045915" lon="1.041237">
        <ele>1789.0</ele>
        <time>2015-08-29T10:45:08Z</time>
      </trkpt>
      <trkpt lat="42.045942" lon="1.041133">
        <ele>1790.0</ele>
        <time>2015-08-29T10:45:09Z</time>
      </trkpt>
      <trkpt lat="42.045957" lon="1.041035">
        <ele>1792.0</ele>
        <time>2015-08-29T10:45:10Z</time>
      </trkpt>
      <trkpt lat="42.045973" lon="1.040943">
        <ele>1793.0</ele>
        <time>2015-08-29T10:45:11Z</time>
      </trkpt>
      <trkpt lat="42.045997" lon="1.040860">
        <ele>1794.0</ele>
        <time>2015-08-29T10:45:12Z</time>
      </trkpt>
      <trkpt lat="42.046027" lon="1.040778">
        <ele>1795.0</ele>
        <time>2015-08-29T10:45:13Z</time>
      </trkpt>
      <trkpt lat="42.046073" lon="1.040683">
        <ele>1796.0</ele>
        <time>2015-08-29T10:45:14Z</time>
      </trkpt>
      <trkpt lat="42.046137" lon="1.040580">
        <ele>1797.0</ele>
        <time>2015-08-29T10:45:15Z</time>
      </trkpt>
      <trkpt lat="42.046212" lon="1.040503">
        <ele>1799.0</ele>
        <time>2015-08-29T10:45:16Z</time>
      </trkpt>
      <trkpt lat="42.046290" lon="1.040438">
        <ele>1802.0</ele>
        <time>2015-08-29T10:45:17Z</time>
      </trkpt>
      <trkpt lat="42.046382" lon="1.040362">
        <ele>1802.0</ele>
        <time>2015-08-29T10:45:18Z</time>
      </trkpt>
      <trkpt lat="42.046472" lon="1.040292">
        <ele>1802.0</ele>
        <time>2015-08-29T10:45:19Z</time>
      </trkpt>
      <trkpt lat="42.046562" lon="1.040222">
        <ele>1802.0</ele>
        <time>2015-08-29T10:45:20Z</time>
      </trkpt>
      <trkpt lat="42.046657" lon="1.040145">
        <ele>1802.0</ele>
        <time>2015-08-29T10:45:21Z</time>
      </trkpt>
      <trkpt lat="42.046750" lon="1.040078">
        <ele>1802.0</ele>
        <time>2015-08-29T10:45:22Z</time>
      </trkpt>
      <trkpt lat="42.046842" lon="1.040008">
        <ele>1802.0</ele>
        <time>2015-08-29T10:45:23Z</time>
      </trkpt>
      <trkpt lat="42.046930" lon="1.039935">
        <ele>1801.0</ele>
        <time>2015-08-29T10:45:24Z</time>
      </trkpt>
      <trkpt lat="42.047015" lon="1.039857">
        <ele>1801.0</ele>
        <time>2015-08-29T10:45:25Z</time>
      </trkpt>
      <trkpt lat="42.047102" lon="1.039775">
        <ele>1801.0</ele>
        <time>2015-08-29T10:45:26Z</time>
      </trkpt>
      <trkpt lat="42.047193" lon="1.039693">
        <ele>1802.0</ele>
        <time>2015-08-29T10:45:27Z</time>
      </trkpt>
      <trkpt lat="42.047288" lon="1.039623">
        <ele>1802.0</ele>
        <time>2015-08-29T10:45:28Z</time>
      </trkpt>
      <trkpt lat="42.047387" lon="1.039560">
        <ele>1803.0</ele>
        <time>2015-08-29T10:45:29Z</time>
      </trkpt>
      <trkpt lat="42.047490" lon="1.039493">
        <ele>1803.0</ele>
        <time>2015-08-29T10:45:30Z</time>
      </trkpt>
      <trkpt lat="42.047593" lon="1.039432">
        <ele>1804.0</ele>
        <time>2015-08-29T10:45:31Z</time>
      </trkpt>
      <trkpt lat="42.047695" lon="1.039377">
        <ele>1805.0</ele>
        <time>2015-08-29T10:45:32Z</time>
      </trkpt>
      <trkpt lat="42.047792" lon="1.039333">
        <ele>1806.0</ele>
        <time>2015-08-29T10:45:33Z</time>
      </trkpt>
      <trkpt lat="42.047893" lon="1.039287">
        <ele>1807.0</ele>
        <time>2015-08-29T10:45:34Z</time>
      </trkpt>
      <trkpt lat="42.048005" lon="1.039222">
        <ele>1805.0</ele>
        <time>2015-08-29T10:45:35Z</time>
      </trkpt>
      <trkpt lat="42.048118" lon="1.039148">
        <ele>1803.0</ele>
        <time>2015-08-29T10:45:36Z</time>
      </trkpt>
      <trkpt lat="42.048235" lon="1.039065">
        <ele>1800.0</ele>
        <time>2015-08-29T10:45:37Z</time>
      </trkpt>
      <trkpt lat="42.048343" lon="1.038985">
        <ele>1799.0</ele>
        <time>2015-08-29T10:45:38Z</time>
      </trkpt>
      <trkpt lat="42.048452" lon="1.038902">
        <ele>1798.0</ele>
        <time>2015-08-29T10:45:39Z</time>
      </trkpt>
      <trkpt lat="42.048562" lon="1.038815">
        <ele>1796.0</ele>
        <time>2015-08-29T10:45:40Z</time>
      </trkpt>
      <trkpt lat="42.048667" lon="1.038742">
        <ele>1795.0</ele>
        <time>2015-08-29T10:45:41Z</time>
      </trkpt>
      <trkpt lat="42.048775" lon="1.038668">
        <ele>1793.0</ele>
        <time>2015-08-29T10:45:42Z</time>
      </trkpt>
      <trkpt lat="42.048883" lon="1.038590">
        <ele>1791.0</ele>
        <time>2015-08-29T10:45:43Z</time>
      </trkpt>
      <trkpt lat="42.048997" lon="1.038512">
        <ele>1790.0</ele>
        <time>2015-08-29T10:45:44Z</time>
      </trkpt>
      <trkpt lat="42.049110" lon="1.038435">
        <ele>1789.0</ele>
        <time>2015-08-29T10:45:45Z</time>
      </trkpt>
      <trkpt lat="42.049218" lon="1.038365">
        <ele>1788.0</ele>
        <time>2015-08-29T10:45:46Z</time>
      </trkpt>
      <trkpt lat="42.049322" lon="1.038297">
        <ele>1787.0</ele>
        <time>2015-08-29T10:45:47Z</time>
      </trkpt>
      <trkpt lat="42.049432" lon="1.038222">
        <ele>1785.0</ele>
        <time>2015-08-29T10:45:48Z</time>
      </trkpt>
      <trkpt lat="42.049548" lon="1.038150">
        <ele>1782.0</ele>
        <time>2015-08-29T10:45:49Z</time>
      </trkpt>
      <trkpt lat="42.049670" lon="1.038092">
        <ele>1782.0</ele>
        <time>2015-08-29T10:45:50Z</time>
      </trkpt>
      <trkpt lat="42.049788" lon="1.038035">
        <ele>1782.0</ele>
        <time>2015-08-29T10:45:51Z</time>
      </trkpt>
      <trkpt lat="42.049908" lon="1.037960">
        <ele>1780.0</ele>
        <time>2015-08-29T10:45:52Z</time>
      </trkpt>
      <trkpt lat="42.050020" lon="1.037892">
        <ele>1779.0</ele>
        <time>2015-08-29T10:45:53Z</time>
      </trkpt>
      <trkpt lat="42.050133" lon="1.037827">
        <ele>1777.0</ele>
        <time>2015-08-29T10:45:54Z</time>
      </trkpt>
      <trkpt lat="42.050255" lon="1.037755">
        <ele>1776.0</ele>
        <time>2015-08-29T10:45:55Z</time>
      </trkpt>
      <trkpt lat="42.050378" lon="1.037682">
        <ele>1774.0</ele>
        <time>2015-08-29T10:45:56Z</time>
      </trkpt>
      <trkpt lat="42.050505" lon="1.037597">
        <ele>1774.0</ele>
        <time>2015-08-29T10:45:57Z</time>
      </trkpt>
      <trkpt lat="42.050620" lon="1.037525">
        <ele>1773.0</ele>
        <time>2015-08-29T10:45:58Z</time>
      </trkpt>
      <trkpt lat="42.050723" lon="1.037470">
        <ele>1773.0</ele>
        <time>2015-08-29T10:45:59Z</time>
      </trkpt>
      <trkpt lat="42.050818" lon="1.037418">
        <ele>1772.0</ele>
        <time>2015-08-29T10:46:00Z</time>
      </trkpt>
      <trkpt lat="42.050912" lon="1.037368">
        <ele>1772.0</ele>
        <time>2015-08-29T10:46:01Z</time>
      </trkpt>
      <trkpt lat="42.051020" lon="1.037293">
        <ele>1769.0</ele>
        <time>2015-08-29T10:46:02Z</time>
      </trkpt>
      <trkpt lat="42.051143" lon="1.037213">
        <ele>1766.0</ele>
        <time>2015-08-29T10:46:03Z</time>
      </trkpt>
      <trkpt lat="42.051263" lon="1.037140">
        <ele>1764.0</ele>
        <time>2015-08-29T10:46:04Z</time>
      </trkpt>
      <trkpt lat="42.051373" lon="1.037063">
        <ele>1763.0</ele>
        <time>2015-08-29T10:46:05Z</time>
      </trkpt>
      <trkpt lat="42.051472" lon="1.036995">
        <ele>1763.0</ele>
        <time>2015-08-29T10:46:06Z</time>
      </trkpt>
      <trkpt lat="42.051563" lon="1.036927">
        <ele>1762.0</ele>
        <time>2015-08-29T10:46:07Z</time>
      </trkpt>
      <trkpt lat="42.051667" lon="1.036810">
        <ele>1756.0</ele>
        <time>2015-08-29T10:46:08Z</time>
      </trkpt>
      <trkpt lat="42.051775" lon="1.036727">
        <ele>1754.0</ele>
        <time>2015-08-29T10:46:09Z</time>
      </trkpt>
      <trkpt lat="42.051893" lon="1.036663">
        <ele>1752.0</ele>
        <time>2015-08-29T10:46:10Z</time>
      </trkpt>
      <trkpt lat="42.052007" lon="1.036623">
        <ele>1751.0</ele>
        <time>2015-08-29T10:46:11Z</time>
      </trkpt>
      <trkpt lat="42.052102" lon="1.036600">
        <ele>1750.0</ele>
        <time>2015-08-29T10:46:12Z</time>
      </trkpt>
      <trkpt lat="42.052183" lon="1.036568">
        <ele>1748.0</ele>
        <time>2015-08-29T10:46:13Z</time>
      </trkpt>
      <trkpt lat="42.052270" lon="1.036513">
        <ele>1743.0</ele>
        <time>2015-08-29T10:46:14Z</time>
      </trkpt>
      <trkpt lat="42.052373" lon="1.036433">
        <ele>1738.0</ele>
        <time>2015-08-29T10:46:15Z</time>
      </trkpt>
      <trkpt lat="42.052485" lon="1.036350">
        <ele>1733.0</ele>
        <time>2015-08-29T10:46:16Z</time>
      </trkpt>
      <trkpt lat="42.052593" lon="1.036282">
        <ele>1732.0</ele>
        <time>2015-08-29T10:46:17Z</time>
      </trkpt>
      <trkpt lat="42.052692" lon="1.036220">
        <ele>1731.0</ele>
        <time>2015-08-29T10:46:18Z</time>
      </trkpt>
      <trkpt lat="42.052783" lon="1.036133">
        <ele>1728.0</ele>
        <time>2015-08-29T10:46:19Z</time>
      </trkpt>
      <trkpt lat="42.052872" lon="1.036058">
        <ele>1726.0</ele>
        <time>2015-08-29T10:46:20Z</time>
      </trkpt>
      <trkpt lat="42.052960" lon="1.035985">
        <ele>1725.0</ele>
        <time>2015-08-29T10:46:21Z</time>
      </trkpt>
      <trkpt lat="42.053057" lon="1.035908">
        <ele>1723.0</ele>
        <time>2015-08-29T10:46:22Z</time>
      </trkpt>
      <trkpt lat="42.053155" lon="1.035827">
        <ele>1722.0</ele>
        <time>2015-08-29T10:46:23Z</time>
      </trkpt>
      <trkpt lat="42.053252" lon="1.035735">
        <ele>1719.0</ele>
        <time>2015-08-29T10:46:24Z</time>
      </trkpt>
      <trkpt lat="42.053342" lon="1.035653">
        <ele>1717.0</ele>
        <time>2015-08-29T10:46:25Z</time>
      </trkpt>
      <trkpt lat="42.053433" lon="1.035567">
        <ele>1715.0</ele>
        <time>2015-08-29T10:46:26Z</time>
      </trkpt>
      <trkpt lat="42.053527" lon="1.035478">
        <ele>1712.0</ele>
        <time>2015-08-29T10:46:27Z</time>
      </trkpt>
      <trkpt lat="42.053622" lon="1.035378">
        <ele>1710.0</ele>
        <time>2015-08-29T10:46:28Z</time>
      </trkpt>
      <trkpt lat="42.053717" lon="1.035272">
        <ele>1708.0</ele>
        <time>2015-08-29T10:46:29Z</time>
      </trkpt>
      <trkpt lat="42.053813" lon="1.035172">
        <ele>1707.0</ele>
        <time>2015-08-29T10:46:30Z</time>
      </trkpt>
      <trkpt lat="42.053910" lon="1.035083">
        <ele>1707.0</ele>
        <time>2015-08-29T10:46:31Z</time>
      </trkpt>
      <trkpt lat="42.054010" lon="1.035002">
        <ele>1706.0</ele>
        <time>2015-08-29T10:46:32Z</time>
      </trkpt>
      <trkpt lat="42.054108" lon="1.034927">
        <ele>1704.0</ele>
        <time>2015-08-29T10:46:33Z</time>
      </trkpt>
      <trkpt lat="42.054212" lon="1.034852">
        <ele>1703.0</ele>
        <time>2015-08-29T10:46:34Z</time>
      </trkpt>
      <trkpt lat="42.054322" lon="1.034770">
        <ele>1703.0</ele>
        <time>2015-08-29T10:46:35Z</time>
      </trkpt>
      <trkpt lat="42.054437" lon="1.034678">
        <ele>1701.0</ele>
        <time>2015-08-29T10:46:36Z</time>
      </trkpt>
      <trkpt lat="42.054547" lon="1.034595">
        <ele>1699.0</ele>
        <time>2015-08-29T10:46:37Z</time>
      </trkpt>
      <trkpt lat="42.054655" lon="1.034517">
        <ele>1699.0</ele>
        <time>2015-08-29T10:46:38Z</time>
      </trkpt>
      <trkpt lat="42.054762" lon="1.034442">
        <ele>1699.0</ele>
        <time>2015-08-29T10:46:39Z</time>
      </trkpt>
      <trkpt lat="42.054862" lon="1.034372">
        <ele>1698.0</ele>
        <time>2015-08-29T10:46:40Z</time>
      </trkpt>
      <trkpt lat="42.054963" lon="1.034293">
        <ele>1696.0</ele>
        <time>2015-08-29T10:46:41Z</time>
      </trkpt>
      <trkpt lat="42.055057" lon="1.034230">
        <ele>1695.0</ele>
        <time>2015-08-29T10:46:42Z</time>
      </trkpt>
      <trkpt lat="42.055153" lon="1.034153">
        <ele>1693.0</ele>
        <time>2015-08-29T10:46:43Z</time>
      </trkpt>
      <trkpt lat="42.055253" lon="1.034062">
        <ele>1691.0</ele>
        <time>2015-08-29T10:46:44Z</time>
      </trkpt>
      <trkpt lat="42.055357" lon="1.033958">
        <ele>1689.0</ele>
        <time>2015-08-29T10:46:45Z</time>
      </trkpt>
      <trkpt lat="42.055452" lon="1.033853">
        <ele>1689.0</ele>
        <time>2015-08-29T10:46:46Z</time>
      </trkpt>
      <trkpt lat="42.055538" lon="1.033757">
        <ele>1689.0</ele>
        <time>2015-08-29T10:46:47Z</time>
      </trkpt>
      <trkpt lat="42.055625" lon="1.033670">
        <ele>1687.0</ele>
        <time>2015-08-29T10:46:48Z</time>
      </trkpt>
      <trkpt lat="42.055718" lon="1.033590">
        <ele>1685.0</ele>
        <time>2015-08-29T10:46:49Z</time>
      </trkpt>
      <trkpt lat="42.055813" lon="1.033512">
        <ele>1681.0</ele>
        <time>2015-08-29T10:46:50Z</time>
      </trkpt>
      <trkpt lat="42.055912" lon="1.033427">
        <ele>1680.0</ele>
        <time>2015-08-29T10:46:51Z</time>
      </trkpt>
      <trkpt lat="42.056017" lon="1.033330">
        <ele>1679.0</ele>
        <time>2015-08-29T10:46:52Z</time>
      </trkpt>
      <trkpt lat="42.056128" lon="1.033230">
        <ele>1677.0</ele>
        <time>2015-08-29T10:46:53Z</time>
      </trkpt>
      <trkpt lat="42.056228" lon="1.033157">
        <ele>1675.0</ele>
        <time>2015-08-29T10:46:54Z</time>
      </trkpt>
      <trkpt lat="42.056317" lon="1.033097">
        <ele>1673.0</ele>
        <time>2015-08-29T10:46:55Z</time>
      </trkpt>
      <trkpt lat="42.056403" lon="1.033037">
        <ele>1672.0</ele>
        <time>2015-08-29T10:46:56Z</time>
      </trkpt>
      <trkpt lat="42.056495" lon="1.032970">
        <ele>1671.0</ele>
        <time>2015-08-29T10:46:57Z</time>
      </trkpt>
      <trkpt lat="42.056592" lon="1.032890">
        <ele>1668.0</ele>
        <time>2015-08-29T10:46:58Z</time>
      </trkpt>
      <trkpt lat="42.056683" lon="1.032820">
        <ele>1667.0</ele>
        <time>2015-08-29T10:46:59Z</time>
      </trkpt>
      <trkpt lat="42.056767" lon="1.032758">
        <ele>1666.0</ele>
        <time>2015-08-29T10:47:00Z</time>
      </trkpt>
      <trkpt lat="42.056840" lon="1.032697">
        <ele>1666.0</ele>
        <time>2015-08-29T10:47:01Z</time>
      </trkpt>
      <trkpt lat="42.056913" lon="1.032632">
        <ele>1665.0</ele>
        <time>2015-08-29T10:47:02Z</time>
      </trkpt>
      <trkpt lat="42.057000" lon="1.032540">
        <ele>1664.0</ele>
        <time>2015-08-29T10:47:03Z</time>
      </trkpt>
      <trkpt lat="42.057083" lon="1.032443">
        <ele>1662.0</ele>
        <time>2015-08-29T10:47:04Z</time>
      </trkpt>
      <trkpt lat="42.057158" lon="1.032352">
        <ele>1661.0</ele>
        <time>2015-08-29T10:47:05Z</time>
      </trkpt>
      <trkpt lat="42.057228" lon="1.032265">
        <ele>1660.0</ele>
        <time>2015-08-29T10:47:06Z</time>
      </trkpt>
      <trkpt lat="42.057293" lon="1.032182">
        <ele>1659.0</ele>
        <time>2015-08-29T10:47:07Z</time>
      </trkpt>
      <trkpt lat="42.057373" lon="1.032085">
        <ele>1655.0</ele>
        <time>2015-08-29T10:47:08Z</time>
      </trkpt>
      <trkpt lat="42.057452" lon="1.031995">
        <ele>1653.0</ele>
        <time>2015-08-29T10:47:09Z</time>
      </trkpt>
      <trkpt lat="42.057532" lon="1.031912">
        <ele>1652.0</ele>
        <time>2015-08-29T10:47:10Z</time>
      </trkpt>
      <trkpt lat="42.057617" lon="1.031832">
        <ele>1651.0</ele>
        <time>2015-08-29T10:47:11Z</time>
      </trkpt>
      <trkpt lat="42.057705" lon="1.031767">
        <ele>1650.0</ele>
        <time>2015-08-29T10:47:12Z</time>
      </trkpt>
      <trkpt lat="42.057798" lon="1.031717">
        <ele>1649.0</ele>
        <time>2015-08-29T10:47:13Z</time>
      </trkpt>
      <trkpt lat="42.057898" lon="1.031677">
        <ele>1647.0</ele>
        <time>2015-08-29T10:47:14Z</time>
      </trkpt>
      <trkpt lat="42.058000" lon="1.031640">
        <ele>1646.0</ele>
        <time>2015-08-29T10:47:15Z</time>
      </trkpt>
      <trkpt lat="42.058100" lon="1.031603">
        <ele>1645.0</ele>
        <time>2015-08-29T10:47:16Z</time>
      </trkpt>
      <trkpt lat="42.058193" lon="1.031572">
        <ele>1644.0</ele>
        <time>2015-08-29T10:47:17Z</time>
      </trkpt>
      <trkpt lat="42.058282" lon="1.031547">
        <ele>1643.0</ele>
        <time>2015-08-29T10:47:18Z</time>
      </trkpt>
      <trkpt lat="42.058375" lon="1.031527">
        <ele>1642.0</ele>
        <time>2015-08-29T10:47:19Z</time>
      </trkpt>
      <trkpt lat="42.058487" lon="1.031492">
        <ele>1640.0</ele>
        <time>2015-08-29T10:47:20Z</time>
      </trkpt>
      <trkpt lat="42.058600" lon="1.031463">
        <ele>1637.0</ele>
        <time>2015-08-29T10:47:21Z</time>
      </trkpt>
      <trkpt lat="42.058712" lon="1.031450">
        <ele>1636.0</ele>
        <time>2015-08-29T10:47:22Z</time>
      </trkpt>
      <trkpt lat="42.058823" lon="1.031450">
        <ele>1634.0</ele>
        <time>2015-08-29T10:47:23Z</time>
      </trkpt>
      <trkpt lat="42.058938" lon="1.031457">
        <ele>1632.0</ele>
        <time>2015-08-29T10:47:24Z</time>
      </trkpt>
      <trkpt lat="42.059053" lon="1.031458">
        <ele>1629.0</ele>
        <time>2015-08-29T10:47:25Z</time>
      </trkpt>
      <trkpt lat="42.059165" lon="1.031457">
        <ele>1627.0</ele>
        <time>2015-08-29T10:47:26Z</time>
      </trkpt>
      <trkpt lat="42.059275" lon="1.031448">
        <ele>1625.0</ele>
        <time>2015-08-29T10:47:27Z</time>
      </trkpt>
      <trkpt lat="42.059387" lon="1.031438">
        <ele>1623.0</ele>
        <time>2015-08-29T10:47:28Z</time>
      </trkpt>
      <trkpt lat="42.059502" lon="1.031433">
        <ele>1621.0</ele>
        <time>2015-08-29T10:47:29Z</time>
      </trkpt>
      <trkpt lat="42.059622" lon="1.031438">
        <ele>1619.0</ele>
        <time>2015-08-29T10:47:30Z</time>
      </trkpt>
      <trkpt lat="42.059748" lon="1.031448">
        <ele>1617.0</ele>
        <time>2015-08-29T10:47:31Z</time>
      </trkpt>
      <trkpt lat="42.059873" lon="1.031457">
        <ele>1615.0</ele>
        <time>2015-08-29T10:47:32Z</time>
      </trkpt>
      <trkpt lat="42.059998" lon="1.031460">
        <ele>1614.0</ele>
        <time>2015-08-29T10:47:33Z</time>
      </trkpt>
      <trkpt lat="42.060120" lon="1.031467">
        <ele>1612.0</ele>
        <time>2015-08-29T10:47:34Z</time>
      </trkpt>
      <trkpt lat="42.060242" lon="1.031473">
        <ele>1611.0</ele>
        <time>2015-08-29T10:47:35Z</time>
      </trkpt>
      <trkpt lat="42.060365" lon="1.031475">
        <ele>1611.0</ele>
        <time>2015-08-29T10:47:36Z</time>
      </trkpt>
      <trkpt lat="42.060497" lon="1.031462">
        <ele>1609.0</ele>
        <time>2015-08-29T10:47:37Z</time>
      </trkpt>
      <trkpt lat="42.060622" lon="1.031447">
        <ele>1606.0</ele>
        <time>2015-08-29T10:47:38Z</time>
      </trkpt>
      <trkpt lat="42.060750" lon="1.031428">
        <ele>1604.0</ele>
        <time>2015-08-29T10:47:39Z</time>
      </trkpt>
      <trkpt lat="42.060877" lon="1.031413">
        <ele>1602.0</ele>
        <time>2015-08-29T10:47:40Z</time>
      </trkpt>
      <trkpt lat="42.061005" lon="1.031397">
        <ele>1600.0</ele>
        <time>2015-08-29T10:47:41Z</time>
      </trkpt>
      <trkpt lat="42.061132" lon="1.031372">
        <ele>1598.0</ele>
        <time>2015-08-29T10:47:42Z</time>
      </trkpt>
      <trkpt lat="42.061255" lon="1.031353">
        <ele>1596.0</ele>
        <time>2015-08-29T10:47:43Z</time>
      </trkpt>
      <trkpt lat="42.061377" lon="1.031338">
        <ele>1594.0</ele>
        <time>2015-08-29T10:47:44Z</time>
      </trkpt>
      <trkpt lat="42.061505" lon="1.031322">
        <ele>1592.0</ele>
        <time>2015-08-29T10:47:45Z</time>
      </trkpt>
      <trkpt lat="42.061635" lon="1.031302">
        <ele>1590.0</ele>
        <time>2015-08-29T10:47:46Z</time>
      </trkpt>
      <trkpt lat="42.061768" lon="1.031277">
        <ele>1589.0</ele>
        <time>2015-08-29T10:47:47Z</time>
      </trkpt>
      <trkpt lat="42.061897" lon="1.031247">
        <ele>1588.0</ele>
        <time>2015-08-29T10:47:48Z</time>
      </trkpt>
      <trkpt lat="42.062020" lon="1.031222">
        <ele>1588.0</ele>
        <time>2015-08-29T10:47:49Z</time>
      </trkpt>
      <trkpt lat="42.062138" lon="1.031203">
        <ele>1587.0</ele>
        <time>2015-08-29T10:47:50Z</time>
      </trkpt>
      <trkpt lat="42.062253" lon="1.031193">
        <ele>1587.0</ele>
        <time>2015-08-29T10:47:51Z</time>
      </trkpt>
      <trkpt lat="42.062372" lon="1.031185">
        <ele>1587.0</ele>
        <time>2015-08-29T10:47:52Z</time>
      </trkpt>
      <trkpt lat="42.062500" lon="1.031162">
        <ele>1586.0</ele>
        <time>2015-08-29T10:47:53Z</time>
      </trkpt>
      <trkpt lat="42.062633" lon="1.031123">
        <ele>1585.0</ele>
        <time>2015-08-29T10:47:54Z</time>
      </trkpt>
      <trkpt lat="42.062762" lon="1.031078">
        <ele>1584.0</ele>
        <time>2015-08-29T10:47:55Z</time>
      </trkpt>
      <trkpt lat="42.062883" lon="1.031040">
        <ele>1582.0</ele>
        <time>2015-08-29T10:47:56Z</time>
      </trkpt>
      <trkpt lat="42.063005" lon="1.031003">
        <ele>1581.0</ele>
        <time>2015-08-29T10:47:57Z</time>
      </trkpt>
      <trkpt lat="42.063132" lon="1.030963">
        <ele>1579.0</ele>
        <time>2015-08-29T10:47:58Z</time>
      </trkpt>
      <trkpt lat="42.063258" lon="1.030913">
        <ele>1577.0</ele>
        <time>2015-08-29T10:47:59Z</time>
      </trkpt>
      <trkpt lat="42.063382" lon="1.030862">
        <ele>1575.0</ele>
        <time>2015-08-29T10:48:00Z</time>
      </trkpt>
      <trkpt lat="42.063495" lon="1.030823">
        <ele>1574.0</ele>
        <time>2015-08-29T10:48:01Z</time>
      </trkpt>
      <trkpt lat="42.063595" lon="1.030795">
        <ele>1574.0</ele>
        <time>2015-08-29T10:48:02Z</time>
      </trkpt>
      <trkpt lat="42.063685" lon="1.030778">
        <ele>1574.0</ele>
        <time>2015-08-29T10:48:03Z</time>
      </trkpt>
      <trkpt lat="42.063788" lon="1.030742">
        <ele>1573.0</ele>
        <time>2015-08-29T10:48:04Z</time>
      </trkpt>
      <trkpt lat="42.063908" lon="1.030695">
        <ele>1570.0</ele>
        <time>2015-08-29T10:48:05Z</time>
      </trkpt>
      <trkpt lat="42.064030" lon="1.030660">
        <ele>1569.0</ele>
        <time>2015-08-29T10:48:06Z</time>
      </trkpt>
      <trkpt lat="42.064152" lon="1.030635">
        <ele>1567.0</ele>
        <time>2015-08-29T10:48:07Z</time>
      </trkpt>
      <trkpt lat="42.064263" lon="1.030612">
        <ele>1566.0</ele>
        <time>2015-08-29T10:48:08Z</time>
      </trkpt>
      <trkpt lat="42.064372" lon="1.030577">
        <ele>1566.0</ele>
        <time>2015-08-29T10:48:09Z</time>
      </trkpt>
      <trkpt lat="42.064468" lon="1.030550">
        <ele>1566.0</ele>
        <time>2015-08-29T10:48:10Z</time>
      </trkpt>
      <trkpt lat="42.064570" lon="1.030530">
        <ele>1564.0</ele>
        <time>2015-08-29T10:48:11Z</time>
      </trkpt>
      <trkpt lat="42.064685" lon="1.030512">
        <ele>1563.0</ele>
        <time>2015-08-29T10:48:12Z</time>
      </trkpt>
      <trkpt lat="42.064807" lon="1.030500">
        <ele>1562.0</ele>
        <time>2015-08-29T10:48:13Z</time>
      </trkpt>
      <trkpt lat="42.064925" lon="1.030497">
        <ele>1562.0</ele>
        <time>2015-08-29T10:48:14Z</time>
      </trkpt>
      <trkpt lat="42.065038" lon="1.030497">
        <ele>1562.0</ele>
        <time>2015-08-29T10:48:15Z</time>
      </trkpt>
      <trkpt lat="42.065148" lon="1.030497">
        <ele>1563.0</ele>
        <time>2015-08-29T10:48:16Z</time>
      </trkpt>
      <trkpt lat="42.065260" lon="1.030488">
        <ele>1563.0</ele>
        <time>2015-08-29T10:48:17Z</time>
      </trkpt>
      <trkpt lat="42.065372" lon="1.030480">
        <ele>1563.0</ele>
        <time>2015-08-29T10:48:18Z</time>
      </trkpt>
      <trkpt lat="42.065488" lon="1.030475">
        <ele>1564.0</ele>
        <time>2015-08-29T10:48:19Z</time>
      </trkpt>
      <trkpt lat="42.065613" lon="1.030477">
        <ele>1565.0</ele>
        <time>2015-08-29T10:48:20Z</time>
      </trkpt>
      <trkpt lat="42.065757" lon="1.030473">
        <ele>1565.0</ele>
        <time>2015-08-29T10:48:21Z</time>
      </trkpt>
      <trkpt lat="42.065892" lon="1.030465">
        <ele>1565.0</ele>
        <time>2015-08-29T10:48:22Z</time>
      </trkpt>
      <trkpt lat="42.066015" lon="1.030462">
        <ele>1566.0</ele>
        <time>2015-08-29T10:48:23Z</time>
      </trkpt>
      <trkpt lat="42.066135" lon="1.030457">
        <ele>1568.0</ele>
        <time>2015-08-29T10:48:24Z</time>
      </trkpt>
      <trkpt lat="42.066258" lon="1.030453">
        <ele>1568.0</ele>
        <time>2015-08-29T10:48:25Z</time>
      </trkpt>
      <trkpt lat="42.066385" lon="1.030450">
        <ele>1569.0</ele>
        <time>2015-08-29T10:48:26Z</time>
      </trkpt>
      <trkpt lat="42.066520" lon="1.030440">
        <ele>1571.0</ele>
        <time>2015-08-29T10:48:27Z</time>
      </trkpt>
      <trkpt lat="42.066652" lon="1.030430">
        <ele>1572.0</ele>
        <time>2015-08-29T10:48:28Z</time>
      </trkpt>
      <trkpt lat="42.066780" lon="1.030413">
        <ele>1574.0</ele>
        <time>2015-08-29T10:48:29Z</time>
      </trkpt>
      <trkpt lat="42.066902" lon="1.030390">
        <ele>1577.0</ele>
        <time>2015-08-29T10:48:30Z</time>
      </trkpt>
      <trkpt lat="42.067017" lon="1.030358">
        <ele>1578.0</ele>
        <time>2015-08-29T10:48:31Z</time>
      </trkpt>
      <trkpt lat="42.067132" lon="1.030320">
        <ele>1580.0</ele>
        <time>2015-08-29T10:48:32Z</time>
      </trkpt>
      <trkpt lat="42.067245" lon="1.030267">
        <ele>1582.0</ele>
        <time>2015-08-29T10:48:33Z</time>
      </trkpt>
      <trkpt lat="42.067352" lon="1.030195">
        <ele>1584.0</ele>
        <time>2015-08-29T10:48:34Z</time>
      </trkpt>
      <trkpt lat="42.067442" lon="1.030107">
        <ele>1585.0</ele>
        <time>2015-08-29T10:48:35Z</time>
      </trkpt>
      <trkpt lat="42.067508" lon="1.030002">
        <ele>1588.0</ele>
        <time>2015-08-29T10:48:36Z</time>
      </trkpt>
      <trkpt lat="42.067567" lon="1.029887">
        <ele>1590.0</ele>
        <time>2015-08-29T10:48:37Z</time>
      </trkpt>
      <trkpt lat="42.067612" lon="1.029755">
        <ele>1591.0</ele>
        <time>2015-08-29T10:48:38Z</time>
      </trkpt>
      <trkpt lat="42.067648" lon="1.029627">
        <ele>1593.0</ele>
        <time>2015-08-29T10:48:39Z</time>
      </trkpt>
      <trkpt lat="42.067672" lon="1.029518">
        <ele>1594.0</ele>
        <time>2015-08-29T10:48:40Z</time>
      </trkpt>
      <trkpt lat="42.067687" lon="1.029418">
        <ele>1596.0</ele>
        <time>2015-08-29T10:48:41Z</time>
      </trkpt>
      <trkpt lat="42.067697" lon="1.029322">
        <ele>1597.0</ele>
        <time>2015-08-29T10:48:42Z</time>
      </trkpt>
      <trkpt lat="42.067703" lon="1.029220">
        <ele>1599.0</ele>
        <time>2015-08-29T10:48:43Z</time>
      </trkpt>
      <trkpt lat="42.067702" lon="1.029103">
        <ele>1600.0</ele>
        <time>2015-08-29T10:48:44Z</time>
      </trkpt>
      <trkpt lat="42.067695" lon="1.028998">
        <ele>1601.0</ele>
        <time>2015-08-29T10:48:45Z</time>
      </trkpt>
      <trkpt lat="42.067680" lon="1.028893">
        <ele>1601.0</ele>
        <time>2015-08-29T10:48:46Z</time>
      </trkpt>
      <trkpt lat="42.067648" lon="1.028808">
        <ele>1602.0</ele>
        <time>2015-08-29T10:48:47Z</time>
      </trkpt>
      <trkpt lat="42.067617" lon="1.028735">
        <ele>1603.0</ele>
        <time>2015-08-29T10:48:48Z</time>
      </trkpt>
      <trkpt lat="42.067583" lon="1.028670">
        <ele>1604.0</ele>
        <time>2015-08-29T10:48:49Z</time>
      </trkpt>
      <trkpt lat="42.067545" lon="1.028613">
        <ele>1605.0</ele>
        <time>2015-08-29T10:48:50Z</time>
      </trkpt>
      <trkpt lat="42.067502" lon="1.028570">
        <ele>1606.0</ele>
        <time>2015-08-29T10:48:51Z</time>
      </trkpt>
      <trkpt lat="42.067455" lon="1.028535">
        <ele>1606.0</ele>
        <time>2015-08-29T10:48:52Z</time>
      </trkpt>
      <trkpt lat="42.067407" lon="1.028512">
        <ele>1607.0</ele>
        <time>2015-08-29T10:48:53Z</time>
      </trkpt>
      <trkpt lat="42.067352" lon="1.028495">
        <ele>1610.0</ele>
        <time>2015-08-29T10:48:54Z</time>
      </trkpt>
      <trkpt lat="42.067290" lon="1.028472">
        <ele>1608.0</ele>
        <time>2015-08-29T10:48:55Z</time>
      </trkpt>
      <trkpt lat="42.067223" lon="1.028455">
        <ele>1607.0</ele>
        <time>2015-08-29T10:48:56Z</time>
      </trkpt>
      <trkpt lat="42.067163" lon="1.028442">
        <ele>1605.0</ele>
        <time>2015-08-29T10:48:57Z</time>
      </trkpt>
      <trkpt lat="42.067113" lon="1.028443">
        <ele>1604.0</ele>
        <time>2015-08-29T10:48:58Z</time>
      </trkpt>
      <trkpt lat="42.067162" lon="1.028505">
        <ele>1600.0</ele>
        <time>2015-08-29T10:49:03Z</time>
      </trkpt>
      <trkpt lat="42.067122" lon="1.028588">
        <ele>1599.0</ele>
        <time>2015-08-29T10:49:04Z</time>
      </trkpt>
      <trkpt lat="42.067093" lon="1.028700">
        <ele>1598.0</ele>
        <time>2015-08-29T10:49:05Z</time>
      </trkpt>
      <trkpt lat="42.067082" lon="1.028803">
        <ele>1597.0</ele>
        <time>2015-08-29T10:49:06Z</time>
      </trkpt>
      <trkpt lat="42.067072" lon="1.028887">
        <ele>1596.0</ele>
        <time>2015-08-29T10:49:07Z</time>
      </trkpt>
      <trkpt lat="42.067068" lon="1.028968">
        <ele>1596.0</ele>
        <time>2015-08-29T10:49:08Z</time>
      </trkpt>
      <trkpt lat="42.067067" lon="1.029058">
        <ele>1595.0</ele>
        <time>2015-08-29T10:49:09Z</time>
      </trkpt>
      <trkpt lat="42.067073" lon="1.029172">
        <ele>1594.0</ele>
        <time>2015-08-29T10:49:10Z</time>
      </trkpt>
      <trkpt lat="42.067073" lon="1.029283">
        <ele>1594.0</ele>
        <time>2015-08-29T10:49:11Z</time>
      </trkpt>
      <trkpt lat="42.067068" lon="1.029388">
        <ele>1594.0</ele>
        <time>2015-08-29T10:49:12Z</time>
      </trkpt>
      <trkpt lat="42.067067" lon="1.029482">
        <ele>1594.0</ele>
        <time>2015-08-29T10:49:13Z</time>
      </trkpt>
      <trkpt lat="42.067067" lon="1.029577">
        <ele>1594.0</ele>
        <time>2015-08-29T10:49:14Z</time>
      </trkpt>
      <trkpt lat="42.067073" lon="1.029675">
        <ele>1594.0</ele>
        <time>2015-08-29T10:49:15Z</time>
      </trkpt>
      <trkpt lat="42.067087" lon="1.029777">
        <ele>1594.0</ele>
        <time>2015-08-29T10:49:16Z</time>
      </trkpt>
      <trkpt lat="42.067107" lon="1.029883">
        <ele>1594.0</ele>
        <time>2015-08-29T10:49:17Z</time>
      </trkpt>
      <trkpt lat="42.067132" lon="1.029995">
        <ele>1594.0</ele>
        <time>2015-08-29T10:49:18Z</time>
      </trkpt>
      <trkpt lat="42.067163" lon="1.030102">
        <ele>1594.0</ele>
        <time>2015-08-29T10:49:19Z</time>
      </trkpt>
      <trkpt lat="42.067197" lon="1.030193">
        <ele>1594.0</ele>
        <time>2015-08-29T10:49:20Z</time>
      </trkpt>
      <trkpt lat="42.067230" lon="1.030278">
        <ele>1595.0</ele>
        <time>2015-08-29T10:49:21Z</time>
      </trkpt>
      <trkpt lat="42.067297" lon="1.030382">
        <ele>1593.0</ele>
        <time>2015-08-29T10:49:22Z</time>
      </trkpt>
      <trkpt lat="42.067373" lon="1.030488">
        <ele>1591.0</ele>
        <time>2015-08-29T10:49:23Z</time>
      </trkpt>
      <trkpt lat="42.067450" lon="1.030595">
        <ele>1590.0</ele>
        <time>2015-08-29T10:49:24Z</time>
      </trkpt>
      <trkpt lat="42.067523" lon="1.030697">
        <ele>1588.0</ele>
        <time>2015-08-29T10:49:25Z</time>
      </trkpt>
      <trkpt lat="42.067595" lon="1.030790">
        <ele>1587.0</ele>
        <time>2015-08-29T10:49:26Z</time>
      </trkpt>
      <trkpt lat="42.067667" lon="1.030880">
        <ele>1586.0</ele>
        <time>2015-08-29T10:49:27Z</time>
      </trkpt>
      <trkpt lat="42.067752" lon="1.030975">
        <ele>1584.0</ele>
        <time>2015-08-29T10:49:28Z</time>
      </trkpt>
      <trkpt lat="42.067850" lon="1.031068">
        <ele>1583.0</ele>
        <time>2015-08-29T10:49:29Z</time>
      </trkpt>
      <trkpt lat="42.067963" lon="1.031145">
        <ele>1583.0</ele>
        <time>2015-08-29T10:49:30Z</time>
      </trkpt>
      <trkpt lat="42.068095" lon="1.031197">
        <ele>1582.0</ele>
        <time>2015-08-29T10:49:31Z</time>
      </trkpt>
      <trkpt lat="42.068225" lon="1.031228">
        <ele>1582.0</ele>
        <time>2015-08-29T10:49:32Z</time>
      </trkpt>
      <trkpt lat="42.068348" lon="1.031250">
        <ele>1582.0</ele>
        <time>2015-08-29T10:49:33Z</time>
      </trkpt>
      <trkpt lat="42.068463" lon="1.031268">
        <ele>1581.0</ele>
        <time>2015-08-29T10:49:34Z</time>
      </trkpt>
      <trkpt lat="42.068577" lon="1.031292">
        <ele>1582.0</ele>
        <time>2015-08-29T10:49:35Z</time>
      </trkpt>
      <trkpt lat="42.068703" lon="1.031297">
        <ele>1581.0</ele>
        <time>2015-08-29T10:49:36Z</time>
      </trkpt>
      <trkpt lat="42.068825" lon="1.031303">
        <ele>1582.0</ele>
        <time>2015-08-29T10:49:37Z</time>
      </trkpt>
      <trkpt lat="42.068942" lon="1.031310">
        <ele>1584.0</ele>
        <time>2015-08-29T10:49:38Z</time>
      </trkpt>
      <trkpt lat="42.069067" lon="1.031298">
        <ele>1584.0</ele>
        <time>2015-08-29T10:49:39Z</time>
      </trkpt>
      <trkpt lat="42.069187" lon="1.031305">
        <ele>1585.0</ele>
        <time>2015-08-29T10:49:40Z</time>
      </trkpt>
      <trkpt lat="42.069305" lon="1.031338">
        <ele>1586.0</ele>
        <time>2015-08-29T10:49:41Z</time>
      </trkpt>
      <trkpt lat="42.069423" lon="1.031383">
        <ele>1588.0</ele>
        <time>2015-08-29T10:49:42Z</time>
      </trkpt>
      <trkpt lat="42.069533" lon="1.031423">
        <ele>1590.0</ele>
        <time>2015-08-29T10:49:43Z</time>
      </trkpt>
      <trkpt lat="42.069633" lon="1.031463">
        <ele>1592.0</ele>
        <time>2015-08-29T10:49:44Z</time>
      </trkpt>
      <trkpt lat="42.069738" lon="1.031483">
        <ele>1594.0</ele>
        <time>2015-08-29T10:49:45Z</time>
      </trkpt>
      <trkpt lat="42.069852" lon="1.031503">
        <ele>1596.0</ele>
        <time>2015-08-29T10:49:46Z</time>
      </trkpt>
      <trkpt lat="42.069968" lon="1.031533">
        <ele>1598.0</ele>
        <time>2015-08-29T10:49:47Z</time>
      </trkpt>
      <trkpt lat="42.070077" lon="1.031575">
        <ele>1601.0</ele>
        <time>2015-08-29T10:49:48Z</time>
      </trkpt>
      <trkpt lat="42.070178" lon="1.031620">
        <ele>1601.0</ele>
        <time>2015-08-29T10:49:49Z</time>
      </trkpt>
      <trkpt lat="42.070272" lon="1.031660">
        <ele>1603.0</ele>
        <time>2015-08-29T10:49:50Z</time>
      </trkpt>
      <trkpt lat="42.070362" lon="1.031697">
        <ele>1605.0</ele>
        <time>2015-08-29T10:49:51Z</time>
      </trkpt>
      <trkpt lat="42.070450" lon="1.031740">
        <ele>1606.0</ele>
        <time>2015-08-29T10:49:52Z</time>
      </trkpt>
      <trkpt lat="42.070538" lon="1.031798">
        <ele>1606.0</ele>
        <time>2015-08-29T10:49:53Z</time>
      </trkpt>
      <trkpt lat="42.070623" lon="1.031872">
        <ele>1607.0</ele>
        <time>2015-08-29T10:49:54Z</time>
      </trkpt>
      <trkpt lat="42.070712" lon="1.031937">
        <ele>1609.0</ele>
        <time>2015-08-29T10:49:55Z</time>
      </trkpt>
      <trkpt lat="42.070817" lon="1.031960">
        <ele>1610.0</ele>
        <time>2015-08-29T10:49:56Z</time>
      </trkpt>
      <trkpt lat="42.070920" lon="1.031967">
        <ele>1611.0</ele>
        <time>2015-08-29T10:49:57Z</time>
      </trkpt>
      <trkpt lat="42.071022" lon="1.031942">
        <ele>1611.0</ele>
        <time>2015-08-29T10:49:58Z</time>
      </trkpt>
      <trkpt lat="42.071115" lon="1.031925">
        <ele>1611.0</ele>
        <time>2015-08-29T10:49:59Z</time>
      </trkpt>
      <trkpt lat="42.071205" lon="1.031913">
        <ele>1610.0</ele>
        <time>2015-08-29T10:50:00Z</time>
      </trkpt>
      <trkpt lat="42.071288" lon="1.031890">
        <ele>1610.0</ele>
        <time>2015-08-29T10:50:01Z</time>
      </trkpt>
      <trkpt lat="42.071367" lon="1.031820">
        <ele>1609.0</ele>
        <time>2015-08-29T10:50:02Z</time>
      </trkpt>
      <trkpt lat="42.071423" lon="1.031715">
        <ele>1609.0</ele>
        <time>2015-08-29T10:50:03Z</time>
      </trkpt>
      <trkpt lat="42.071457" lon="1.031597">
        <ele>1610.0</ele>
        <time>2015-08-29T10:50:04Z</time>
      </trkpt>
      <trkpt lat="42.071478" lon="1.031485">
        <ele>1611.0</ele>
        <time>2015-08-29T10:50:05Z</time>
      </trkpt>
      <trkpt lat="42.071498" lon="1.031393">
        <ele>1611.0</ele>
        <time>2015-08-29T10:50:06Z</time>
      </trkpt>
      <trkpt lat="42.071517" lon="1.031317">
        <ele>1611.0</ele>
        <time>2015-08-29T10:50:07Z</time>
      </trkpt>
      <trkpt lat="42.071527" lon="1.031235">
        <ele>1609.0</ele>
        <time>2015-08-29T10:50:08Z</time>
      </trkpt>
      <trkpt lat="42.071523" lon="1.031143">
        <ele>1608.0</ele>
        <time>2015-08-29T10:50:09Z</time>
      </trkpt>
      <trkpt lat="42.071518" lon="1.031028">
        <ele>1607.0</ele>
        <time>2015-08-29T10:50:10Z</time>
      </trkpt>
      <trkpt lat="42.071513" lon="1.030945">
        <ele>1607.0</ele>
        <time>2015-08-29T10:50:11Z</time>
      </trkpt>
      <trkpt lat="42.071510" lon="1.030867">
        <ele>1609.0</ele>
        <time>2015-08-29T10:50:12Z</time>
      </trkpt>
      <trkpt lat="42.071507" lon="1.030770">
        <ele>1607.0</ele>
        <time>2015-08-29T10:50:13Z</time>
      </trkpt>
      <trkpt lat="42.071503" lon="1.030673">
        <ele>1605.0</ele>
        <time>2015-08-29T10:50:14Z</time>
      </trkpt>
      <trkpt lat="42.071502" lon="1.030573">
        <ele>1602.0</ele>
        <time>2015-08-29T10:50:15Z</time>
      </trkpt>
      <trkpt lat="42.071508" lon="1.030477">
        <ele>1602.0</ele>
        <time>2015-08-29T10:50:16Z</time>
      </trkpt>
      <trkpt lat="42.071535" lon="1.030375">
        <ele>1600.0</ele>
        <time>2015-08-29T10:50:17Z</time>
      </trkpt>
      <trkpt lat="42.071582" lon="1.030268">
        <ele>1598.0</ele>
        <time>2015-08-29T10:50:18Z</time>
      </trkpt>
      <trkpt lat="42.071640" lon="1.030175">
        <ele>1596.0</ele>
        <time>2015-08-29T10:50:19Z</time>
      </trkpt>
      <trkpt lat="42.071703" lon="1.030088">
        <ele>1594.0</ele>
        <time>2015-08-29T10:50:20Z</time>
      </trkpt>
      <trkpt lat="42.071768" lon="1.030003">
        <ele>1592.0</ele>
        <time>2015-08-29T10:50:21Z</time>
      </trkpt>
      <trkpt lat="42.071832" lon="1.029913">
        <ele>1590.0</ele>
        <time>2015-08-29T10:50:22Z</time>
      </trkpt>
      <trkpt lat="42.071902" lon="1.029818">
        <ele>1589.0</ele>
        <time>2015-08-29T10:50:23Z</time>
      </trkpt>
      <trkpt lat="42.071982" lon="1.029725">
        <ele>1588.0</ele>
        <time>2015-08-29T10:50:24Z</time>
      </trkpt>
      <trkpt lat="42.072082" lon="1.029635">
        <ele>1587.0</ele>
        <time>2015-08-29T10:50:25Z</time>
      </trkpt>
      <trkpt lat="42.072183" lon="1.029572">
        <ele>1587.0</ele>
        <time>2015-08-29T10:50:26Z</time>
      </trkpt>
      <trkpt lat="42.072278" lon="1.029517">
        <ele>1585.0</ele>
        <time>2015-08-29T10:50:27Z</time>
      </trkpt>
      <trkpt lat="42.072350" lon="1.029490">
        <ele>1585.0</ele>
        <time>2015-08-29T10:50:28Z</time>
      </trkpt>
      <trkpt lat="42.072433" lon="1.029465">
        <ele>1584.0</ele>
        <time>2015-08-29T10:50:29Z</time>
      </trkpt>
      <trkpt lat="42.072547" lon="1.029438">
        <ele>1582.0</ele>
        <time>2015-08-29T10:50:30Z</time>
      </trkpt>
      <trkpt lat="42.072665" lon="1.029422">
        <ele>1581.0</ele>
        <time>2015-08-29T10:50:31Z</time>
      </trkpt>
      <trkpt lat="42.072783" lon="1.029408">
        <ele>1580.0</ele>
        <time>2015-08-29T10:50:32Z</time>
      </trkpt>
      <trkpt lat="42.072897" lon="1.029392">
        <ele>1580.0</ele>
        <time>2015-08-29T10:50:33Z</time>
      </trkpt>
      <trkpt lat="42.073005" lon="1.029377">
        <ele>1579.0</ele>
        <time>2015-08-29T10:50:34Z</time>
      </trkpt>
      <trkpt lat="42.073123" lon="1.029350">
        <ele>1576.0</ele>
        <time>2015-08-29T10:50:35Z</time>
      </trkpt>
      <trkpt lat="42.073235" lon="1.029342">
        <ele>1574.0</ele>
        <time>2015-08-29T10:50:36Z</time>
      </trkpt>
      <trkpt lat="42.073352" lon="1.029335">
        <ele>1572.0</ele>
        <time>2015-08-29T10:50:37Z</time>
      </trkpt>
      <trkpt lat="42.073475" lon="1.029328">
        <ele>1569.0</ele>
        <time>2015-08-29T10:50:38Z</time>
      </trkpt>
      <trkpt lat="42.073605" lon="1.029325">
        <ele>1567.0</ele>
        <time>2015-08-29T10:50:39Z</time>
      </trkpt>
      <trkpt lat="42.073735" lon="1.029333">
        <ele>1565.0</ele>
        <time>2015-08-29T10:50:40Z</time>
      </trkpt>
      <trkpt lat="42.073857" lon="1.029350">
        <ele>1564.0</ele>
        <time>2015-08-29T10:50:41Z</time>
      </trkpt>
      <trkpt lat="42.073965" lon="1.029363">
        <ele>1563.0</ele>
        <time>2015-08-29T10:50:42Z</time>
      </trkpt>
      <trkpt lat="42.074068" lon="1.029370">
        <ele>1562.0</ele>
        <time>2015-08-29T10:50:43Z</time>
      </trkpt>
      <trkpt lat="42.074175" lon="1.029375">
        <ele>1560.0</ele>
        <time>2015-08-29T10:50:44Z</time>
      </trkpt>
      <trkpt lat="42.074292" lon="1.029390">
        <ele>1558.0</ele>
        <time>2015-08-29T10:50:45Z</time>
      </trkpt>
      <trkpt lat="42.074422" lon="1.029398">
        <ele>1555.0</ele>
        <time>2015-08-29T10:50:46Z</time>
      </trkpt>
      <trkpt lat="42.074553" lon="1.029403">
        <ele>1554.0</ele>
        <time>2015-08-29T10:50:47Z</time>
      </trkpt>
      <trkpt lat="42.074668" lon="1.029415">
        <ele>1553.0</ele>
        <time>2015-08-29T10:50:48Z</time>
      </trkpt>
      <trkpt lat="42.074768" lon="1.029432">
        <ele>1552.0</ele>
        <time>2015-08-29T10:50:49Z</time>
      </trkpt>
      <trkpt lat="42.074868" lon="1.029443">
        <ele>1550.0</ele>
        <time>2015-08-29T10:50:50Z</time>
      </trkpt>
      <trkpt lat="42.074972" lon="1.029455">
        <ele>1548.0</ele>
        <time>2015-08-29T10:50:51Z</time>
      </trkpt>
      <trkpt lat="42.075100" lon="1.029452">
        <ele>1542.0</ele>
        <time>2015-08-29T10:50:52Z</time>
      </trkpt>
      <trkpt lat="42.075227" lon="1.029452">
        <ele>1540.0</ele>
        <time>2015-08-29T10:50:53Z</time>
      </trkpt>
      <trkpt lat="42.075347" lon="1.029452">
        <ele>1539.0</ele>
        <time>2015-08-29T10:50:54Z</time>
      </trkpt>
      <trkpt lat="42.075458" lon="1.029453">
        <ele>1538.0</ele>
        <time>2015-08-29T10:50:55Z</time>
      </trkpt>
      <trkpt lat="42.075563" lon="1.029455">
        <ele>1537.0</ele>
        <time>2015-08-29T10:50:56Z</time>
      </trkpt>
      <trkpt lat="42.075672" lon="1.029463">
        <ele>1535.0</ele>
        <time>2015-08-29T10:50:57Z</time>
      </trkpt>
      <trkpt lat="42.075790" lon="1.029480">
        <ele>1533.0</ele>
        <time>2015-08-29T10:50:58Z</time>
      </trkpt>
      <trkpt lat="42.075915" lon="1.029500">
        <ele>1531.0</ele>
        <time>2015-08-29T10:50:59Z</time>
      </trkpt>
      <trkpt lat="42.076038" lon="1.029517">
        <ele>1531.0</ele>
        <time>2015-08-29T10:51:00Z</time>
      </trkpt>
      <trkpt lat="42.076148" lon="1.029535">
        <ele>1532.0</ele>
        <time>2015-08-29T10:51:01Z</time>
      </trkpt>
      <trkpt lat="42.076247" lon="1.029557">
        <ele>1533.0</ele>
        <time>2015-08-29T10:51:02Z</time>
      </trkpt>
      <trkpt lat="42.076352" lon="1.029573">
        <ele>1532.0</ele>
        <time>2015-08-29T10:51:03Z</time>
      </trkpt>
      <trkpt lat="42.076470" lon="1.029597">
        <ele>1531.0</ele>
        <time>2015-08-29T10:51:04Z</time>
      </trkpt>
      <trkpt lat="42.076583" lon="1.029627">
        <ele>1529.0</ele>
        <time>2015-08-29T10:51:05Z</time>
      </trkpt>
      <trkpt lat="42.076688" lon="1.029655">
        <ele>1528.0</ele>
        <time>2015-08-29T10:51:06Z</time>
      </trkpt>
      <trkpt lat="42.076785" lon="1.029680">
        <ele>1528.0</ele>
        <time>2015-08-29T10:51:07Z</time>
      </trkpt>
      <trkpt lat="42.076875" lon="1.029707">
        <ele>1527.0</ele>
        <time>2015-08-29T10:51:08Z</time>
      </trkpt>
      <trkpt lat="42.076977" lon="1.029733">
        <ele>1523.0</ele>
        <time>2015-08-29T10:51:09Z</time>
      </trkpt>
      <trkpt lat="42.077077" lon="1.029770">
        <ele>1521.0</ele>
        <time>2015-08-29T10:51:10Z</time>
      </trkpt>
      <trkpt lat="42.077183" lon="1.029805">
        <ele>1520.0</ele>
        <time>2015-08-29T10:51:11Z</time>
      </trkpt>
      <trkpt lat="42.077290" lon="1.029833">
        <ele>1520.0</ele>
        <time>2015-08-29T10:51:12Z</time>
      </trkpt>
      <trkpt lat="42.077393" lon="1.029855">
        <ele>1519.0</ele>
        <time>2015-08-29T10:51:13Z</time>
      </trkpt>
      <trkpt lat="42.077487" lon="1.029877">
        <ele>1519.0</ele>
        <time>2015-08-29T10:51:14Z</time>
      </trkpt>
      <trkpt lat="42.077578" lon="1.029897">
        <ele>1518.0</ele>
        <time>2015-08-29T10:51:15Z</time>
      </trkpt>
      <trkpt lat="42.077677" lon="1.029918">
        <ele>1516.0</ele>
        <time>2015-08-29T10:51:16Z</time>
      </trkpt>
      <trkpt lat="42.077783" lon="1.029942">
        <ele>1514.0</ele>
        <time>2015-08-29T10:51:17Z</time>
      </trkpt>
      <trkpt lat="42.077888" lon="1.029972">
        <ele>1511.0</ele>
        <time>2015-08-29T10:51:18Z</time>
      </trkpt>
      <trkpt lat="42.077982" lon="1.030008">
        <ele>1510.0</ele>
        <time>2015-08-29T10:51:19Z</time>
      </trkpt>
      <trkpt lat="42.078075" lon="1.030040">
        <ele>1508.0</ele>
        <time>2015-08-29T10:51:20Z</time>
      </trkpt>
      <trkpt lat="42.078180" lon="1.030053">
        <ele>1506.0</ele>
        <time>2015-08-29T10:51:21Z</time>
      </trkpt>
      <trkpt lat="42.078285" lon="1.030062">
        <ele>1504.0</ele>
        <time>2015-08-29T10:51:22Z</time>
      </trkpt>
      <trkpt lat="42.078392" lon="1.030065">
        <ele>1503.0</ele>
        <time>2015-08-29T10:51:23Z</time>
      </trkpt>
      <trkpt lat="42.078493" lon="1.030072">
        <ele>1501.0</ele>
        <time>2015-08-29T10:51:24Z</time>
      </trkpt>
      <trkpt lat="42.078598" lon="1.030067">
        <ele>1498.0</ele>
        <time>2015-08-29T10:51:25Z</time>
      </trkpt>
      <trkpt lat="42.078702" lon="1.030055">
        <ele>1496.0</ele>
        <time>2015-08-29T10:51:26Z</time>
      </trkpt>
      <trkpt lat="42.078803" lon="1.030040">
        <ele>1494.0</ele>
        <time>2015-08-29T10:51:27Z</time>
      </trkpt>
      <trkpt lat="42.078903" lon="1.030012">
        <ele>1491.0</ele>
        <time>2015-08-29T10:51:28Z</time>
      </trkpt>
      <trkpt lat="42.078997" lon="1.029975">
        <ele>1489.0</ele>
        <time>2015-08-29T10:51:29Z</time>
      </trkpt>
      <trkpt lat="42.079082" lon="1.029930">
        <ele>1487.0</ele>
        <time>2015-08-29T10:51:30Z</time>
      </trkpt>
      <trkpt lat="42.079160" lon="1.029882">
        <ele>1485.0</ele>
        <time>2015-08-29T10:51:31Z</time>
      </trkpt>
      <trkpt lat="42.079237" lon="1.029830">
        <ele>1483.0</ele>
        <time>2015-08-29T10:51:32Z</time>
      </trkpt>
      <trkpt lat="42.079315" lon="1.029773">
        <ele>1480.0</ele>
        <time>2015-08-29T10:51:33Z</time>
      </trkpt>
      <trkpt lat="42.079393" lon="1.029707">
        <ele>1478.0</ele>
        <time>2015-08-29T10:51:34Z</time>
      </trkpt>
      <trkpt lat="42.079467" lon="1.029633">
        <ele>1475.0</ele>
        <time>2015-08-29T10:51:35Z</time>
      </trkpt>
      <trkpt lat="42.079532" lon="1.029570">
        <ele>1474.0</ele>
        <time>2015-08-29T10:51:36Z</time>
      </trkpt>
      <trkpt lat="42.079595" lon="1.029498">
        <ele>1473.0</ele>
        <time>2015-08-29T10:51:37Z</time>
      </trkpt>
      <trkpt lat="42.079657" lon="1.029422">
        <ele>1471.0</ele>
        <time>2015-08-29T10:51:38Z</time>
      </trkpt>
      <trkpt lat="42.079718" lon="1.029352">
        <ele>1470.0</ele>
        <time>2015-08-29T10:51:39Z</time>
      </trkpt>
      <trkpt lat="42.079785" lon="1.029283">
        <ele>1468.0</ele>
        <time>2015-08-29T10:51:40Z</time>
      </trkpt>
      <trkpt lat="42.079857" lon="1.029232">
        <ele>1466.0</ele>
        <time>2015-08-29T10:51:41Z</time>
      </trkpt>
      <trkpt lat="42.079945" lon="1.029182">
        <ele>1463.0</ele>
        <time>2015-08-29T10:51:42Z</time>
      </trkpt>
      <trkpt lat="42.080038" lon="1.029150">
        <ele>1461.0</ele>
        <time>2015-08-29T10:51:43Z</time>
      </trkpt>
      <trkpt lat="42.080142" lon="1.029133">
        <ele>1458.0</ele>
        <time>2015-08-29T10:51:44Z</time>
      </trkpt>
      <trkpt lat="42.080248" lon="1.029125">
        <ele>1456.0</ele>
        <time>2015-08-29T10:51:45Z</time>
      </trkpt>
      <trkpt lat="42.080357" lon="1.029122">
        <ele>1455.0</ele>
        <time>2015-08-29T10:51:46Z</time>
      </trkpt>
      <trkpt lat="42.080467" lon="1.029122">
        <ele>1453.0</ele>
        <time>2015-08-29T10:51:47Z</time>
      </trkpt>
      <trkpt lat="42.080578" lon="1.029125">
        <ele>1451.0</ele>
        <time>2015-08-29T10:51:48Z</time>
      </trkpt>
      <trkpt lat="42.080690" lon="1.029132">
        <ele>1448.0</ele>
        <time>2015-08-29T10:51:49Z</time>
      </trkpt>
      <trkpt lat="42.080802" lon="1.029142">
        <ele>1446.0</ele>
        <time>2015-08-29T10:51:50Z</time>
      </trkpt>
      <trkpt lat="42.080912" lon="1.029160">
        <ele>1444.0</ele>
        <time>2015-08-29T10:51:51Z</time>
      </trkpt>
      <trkpt lat="42.081017" lon="1.029193">
        <ele>1444.0</ele>
        <time>2015-08-29T10:51:52Z</time>
      </trkpt>
      <trkpt lat="42.081117" lon="1.029240">
        <ele>1443.0</ele>
        <time>2015-08-29T10:51:53Z</time>
      </trkpt>
      <trkpt lat="42.081217" lon="1.029300">
        <ele>1442.0</ele>
        <time>2015-08-29T10:51:54Z</time>
      </trkpt>
      <trkpt lat="42.081320" lon="1.029363">
        <ele>1440.0</ele>
        <time>2015-08-29T10:51:55Z</time>
      </trkpt>
      <trkpt lat="42.081417" lon="1.029438">
        <ele>1439.0</ele>
        <time>2015-08-29T10:51:56Z</time>
      </trkpt>
      <trkpt lat="42.081520" lon="1.029512">
        <ele>1438.0</ele>
        <time>2015-08-29T10:51:57Z</time>
      </trkpt>
      <trkpt lat="42.081627" lon="1.029578">
        <ele>1436.0</ele>
        <time>2015-08-29T10:51:58Z</time>
      </trkpt>
      <trkpt lat="42.081735" lon="1.029633">
        <ele>1434.0</ele>
        <time>2015-08-29T10:51:59Z</time>
      </trkpt>
      <trkpt lat="42.081852" lon="1.029678">
        <ele>1431.0</ele>
        <time>2015-08-29T10:52:00Z</time>
      </trkpt>
      <trkpt lat="42.081960" lon="1.029722">
        <ele>1428.0</ele>
        <time>2015-08-29T10:52:01Z</time>
      </trkpt>
      <trkpt lat="42.082062" lon="1.029770">
        <ele>1426.0</ele>
        <time>2015-08-29T10:52:02Z</time>
      </trkpt>
      <trkpt lat="42.082168" lon="1.029825">
        <ele>1424.0</ele>
        <time>2015-08-29T10:52:03Z</time>
      </trkpt>
      <trkpt lat="42.082277" lon="1.029883">
        <ele>1423.0</ele>
        <time>2015-08-29T10:52:04Z</time>
      </trkpt>
      <trkpt lat="42.082378" lon="1.029938">
        <ele>1422.0</ele>
        <time>2015-08-29T10:52:05Z</time>
      </trkpt>
      <trkpt lat="42.082463" lon="1.029992">
        <ele>1422.0</ele>
        <time>2015-08-29T10:52:06Z</time>
      </trkpt>
      <trkpt lat="42.082543" lon="1.030035">
        <ele>1422.0</ele>
        <time>2015-08-29T10:52:07Z</time>
      </trkpt>
      <trkpt lat="42.082632" lon="1.030067">
        <ele>1419.0</ele>
        <time>2015-08-29T10:52:08Z</time>
      </trkpt>
      <trkpt lat="42.082728" lon="1.030115">
        <ele>1417.0</ele>
        <time>2015-08-29T10:52:09Z</time>
      </trkpt>
      <trkpt lat="42.082840" lon="1.030160">
        <ele>1415.0</ele>
        <time>2015-08-29T10:52:10Z</time>
      </trkpt>
      <trkpt lat="42.082952" lon="1.030195">
        <ele>1414.0</ele>
        <time>2015-08-29T10:52:11Z</time>
      </trkpt>
      <trkpt lat="42.083048" lon="1.030220">
        <ele>1412.0</ele>
        <time>2015-08-29T10:52:12Z</time>
      </trkpt>
      <trkpt lat="42.083135" lon="1.030243">
        <ele>1410.0</ele>
        <time>2015-08-29T10:52:13Z</time>
      </trkpt>
      <trkpt lat="42.083220" lon="1.030272">
        <ele>1408.0</ele>
        <time>2015-08-29T10:52:14Z</time>
      </trkpt>
      <trkpt lat="42.083308" lon="1.030307">
        <ele>1406.0</ele>
        <time>2015-08-29T10:52:15Z</time>
      </trkpt>
      <trkpt lat="42.083432" lon="1.030327">
        <ele>1400.0</ele>
        <time>2015-08-29T10:52:16Z</time>
      </trkpt>
      <trkpt lat="42.083543" lon="1.030353">
        <ele>1398.0</ele>
        <time>2015-08-29T10:52:17Z</time>
      </trkpt>
      <trkpt lat="42.083657" lon="1.030377">
        <ele>1396.0</ele>
        <time>2015-08-29T10:52:18Z</time>
      </trkpt>
      <trkpt lat="42.083763" lon="1.030407">
        <ele>1395.0</ele>
        <time>2015-08-29T10:52:19Z</time>
      </trkpt>
      <trkpt lat="42.083870" lon="1.030455">
        <ele>1394.0</ele>
        <time>2015-08-29T10:52:20Z</time>
      </trkpt>
      <trkpt lat="42.083980" lon="1.030517">
        <ele>1393.0</ele>
        <time>2015-08-29T10:52:21Z</time>
      </trkpt>
      <trkpt lat="42.084093" lon="1.030582">
        <ele>1392.0</ele>
        <time>2015-08-29T10:52:22Z</time>
      </trkpt>
      <trkpt lat="42.084193" lon="1.030645">
        <ele>1394.0</ele>
        <time>2015-08-29T10:52:23Z</time>
      </trkpt>
      <trkpt lat="42.084295" lon="1.030688">
        <ele>1395.0</ele>
        <time>2015-08-29T10:52:24Z</time>
      </trkpt>
      <trkpt lat="42.084415" lon="1.030710">
        <ele>1395.0</ele>
        <time>2015-08-29T10:52:25Z</time>
      </trkpt>
      <trkpt lat="42.084537" lon="1.030747">
        <ele>1396.0</ele>
        <time>2015-08-29T10:52:26Z</time>
      </trkpt>
      <trkpt lat="42.084657" lon="1.030793">
        <ele>1396.0</ele>
        <time>2015-08-29T10:52:27Z</time>
      </trkpt>
      <trkpt lat="42.084767" lon="1.030842">
        <ele>1397.0</ele>
        <time>2015-08-29T10:52:28Z</time>
      </trkpt>
      <trkpt lat="42.084873" lon="1.030893">
        <ele>1399.0</ele>
        <time>2015-08-29T10:52:29Z</time>
      </trkpt>
      <trkpt lat="42.084985" lon="1.030942">
        <ele>1400.0</ele>
        <time>2015-08-29T10:52:30Z</time>
      </trkpt>
      <trkpt lat="42.085103" lon="1.030992">
        <ele>1400.0</ele>
        <time>2015-08-29T10:52:31Z</time>
      </trkpt>
      <trkpt lat="42.085223" lon="1.031042">
        <ele>1401.0</ele>
        <time>2015-08-29T10:52:32Z</time>
      </trkpt>
      <trkpt lat="42.085342" lon="1.031090">
        <ele>1404.0</ele>
        <time>2015-08-29T10:52:33Z</time>
      </trkpt>
      <trkpt lat="42.085453" lon="1.031140">
        <ele>1407.0</ele>
        <time>2015-08-29T10:52:34Z</time>
      </trkpt>
      <trkpt lat="42.085558" lon="1.031185">
        <ele>1410.0</ele>
        <time>2015-08-29T10:52:35Z</time>
      </trkpt>
      <trkpt lat="42.085662" lon="1.031225">
        <ele>1412.0</ele>
        <time>2015-08-29T10:52:36Z</time>
      </trkpt>
      <trkpt lat="42.085762" lon="1.031263">
        <ele>1414.0</ele>
        <time>2015-08-29T10:52:37Z</time>
      </trkpt>
      <trkpt lat="42.085850" lon="1.031307">
        <ele>1417.0</ele>
        <time>2015-08-29T10:52:38Z</time>
      </trkpt>
      <trkpt lat="42.085938" lon="1.031360">
        <ele>1418.0</ele>
        <time>2015-08-29T10:52:39Z</time>
      </trkpt>
      <trkpt lat="42.086022" lon="1.031420">
        <ele>1421.0</ele>
        <time>2015-08-29T10:52:40Z</time>
      </trkpt>
      <trkpt lat="42.086125" lon="1.031445">
        <ele>1421.0</ele>
        <time>2015-08-29T10:52:41Z</time>
      </trkpt>
      <trkpt lat="42.086235" lon="1.031420">
        <ele>1419.0</ele>
        <time>2015-08-29T10:52:42Z</time>
      </trkpt>
      <trkpt lat="42.086340" lon="1.031375">
        <ele>1418.0</ele>
        <time>2015-08-29T10:52:43Z</time>
      </trkpt>
      <trkpt lat="42.086445" lon="1.031325">
        <ele>1416.0</ele>
        <time>2015-08-29T10:52:44Z</time>
      </trkpt>
      <trkpt lat="42.086545" lon="1.031287">
        <ele>1414.0</ele>
        <time>2015-08-29T10:52:45Z</time>
      </trkpt>
      <trkpt lat="42.086650" lon="1.031237">
        <ele>1412.0</ele>
        <time>2015-08-29T10:52:46Z</time>
      </trkpt>
      <trkpt lat="42.086748" lon="1.031162">
        <ele>1411.0</ele>
        <time>2015-08-29T10:52:47Z</time>
      </trkpt>
      <trkpt lat="42.086817" lon="1.031053">
        <ele>1410.0</ele>
        <time>2015-08-29T10:52:48Z</time>
      </trkpt>
      <trkpt lat="42.086867" lon="1.030940">
        <ele>1409.0</ele>
        <time>2015-08-29T10:52:49Z</time>
      </trkpt>
      <trkpt lat="42.086873" lon="1.030840">
        <ele>1408.0</ele>
        <time>2015-08-29T10:52:50Z</time>
      </trkpt>
      <trkpt lat="42.086865" lon="1.030770">
        <ele>1408.0</ele>
        <time>2015-08-29T10:52:51Z</time>
      </trkpt>
      <trkpt lat="42.086863" lon="1.030707">
        <ele>1408.0</ele>
        <time>2015-08-29T10:52:52Z</time>
      </trkpt>
      <trkpt lat="42.086868" lon="1.030645">
        <ele>1406.0</ele>
        <time>2015-08-29T10:52:53Z</time>
      </trkpt>
      <trkpt lat="42.086875" lon="1.030578">
        <ele>1406.0</ele>
        <time>2015-08-29T10:52:54Z</time>
      </trkpt>
      <trkpt lat="42.086873" lon="1.030503">
        <ele>1404.0</ele>
        <time>2015-08-29T10:52:55Z</time>
      </trkpt>
      <trkpt lat="42.086860" lon="1.030437">
        <ele>1403.0</ele>
        <time>2015-08-29T10:52:56Z</time>
      </trkpt>
      <trkpt lat="42.086842" lon="1.030362">
        <ele>1403.0</ele>
        <time>2015-08-29T10:52:57Z</time>
      </trkpt>
      <trkpt lat="42.086813" lon="1.030248">
        <ele>1402.0</ele>
        <time>2015-08-29T10:52:58Z</time>
      </trkpt>
      <trkpt lat="42.086778" lon="1.030137">
        <ele>1401.0</ele>
        <time>2015-08-29T10:52:59Z</time>
      </trkpt>
      <trkpt lat="42.086770" lon="1.030048">
        <ele>1402.0</ele>
        <time>2015-08-29T10:53:00Z</time>
      </trkpt>
      <trkpt lat="42.086768" lon="1.029975">
        <ele>1403.0</ele>
        <time>2015-08-29T10:53:01Z</time>
      </trkpt>
      <trkpt lat="42.086780" lon="1.029907">
        <ele>1404.0</ele>
        <time>2015-08-29T10:53:02Z</time>
      </trkpt>
      <trkpt lat="42.086793" lon="1.029837">
        <ele>1405.0</ele>
        <time>2015-08-29T10:53:03Z</time>
      </trkpt>
      <trkpt lat="42.086800" lon="1.029755">
        <ele>1406.0</ele>
        <time>2015-08-29T10:53:04Z</time>
      </trkpt>
      <trkpt lat="42.086787" lon="1.029662">
        <ele>1406.0</ele>
        <time>2015-08-29T10:53:05Z</time>
      </trkpt>
      <trkpt lat="42.086772" lon="1.029580">
        <ele>1408.0</ele>
        <time>2015-08-29T10:53:06Z</time>
      </trkpt>
      <trkpt lat="42.086765" lon="1.029512">
        <ele>1409.0</ele>
        <time>2015-08-29T10:53:07Z</time>
      </trkpt>
      <trkpt lat="42.086763" lon="1.029453">
        <ele>1411.0</ele>
        <time>2015-08-29T10:53:08Z</time>
      </trkpt>
      <trkpt lat="42.086765" lon="1.029395">
        <ele>1412.0</ele>
        <time>2015-08-29T10:53:09Z</time>
      </trkpt>
      <trkpt lat="42.086762" lon="1.029325">
        <ele>1413.0</ele>
        <time>2015-08-29T10:53:10Z</time>
      </trkpt>
      <trkpt lat="42.086750" lon="1.029252">
        <ele>1414.0</ele>
        <time>2015-08-29T10:53:11Z</time>
      </trkpt>
      <trkpt lat="42.086738" lon="1.029185">
        <ele>1415.0</ele>
        <time>2015-08-29T10:53:12Z</time>
      </trkpt>
      <trkpt lat="42.086723" lon="1.029132">
        <ele>1416.0</ele>
        <time>2015-08-29T10:53:13Z</time>
      </trkpt>
      <trkpt lat="42.086700" lon="1.029063">
        <ele>1421.0</ele>
        <time>2015-08-29T10:53:15Z</time>
      </trkpt>
      <trkpt lat="42.086670" lon="1.029017">
        <ele>1423.0</ele>
        <time>2015-08-29T10:53:16Z</time>
      </trkpt>
      <trkpt lat="42.086638" lon="1.028970">
        <ele>1425.0</ele>
        <time>2015-08-29T10:53:17Z</time>
      </trkpt>
      <trkpt lat="42.086607" lon="1.028935">
        <ele>1426.0</ele>
        <time>2015-08-29T10:53:18Z</time>
      </trkpt>
      <trkpt lat="42.086562" lon="1.028905">
        <ele>1430.0</ele>
        <time>2015-08-29T10:53:20Z</time>
      </trkpt>
      <trkpt lat="42.086507" lon="1.028895">
        <ele>1434.0</ele>
        <time>2015-08-29T10:53:22Z</time>
      </trkpt>
      <trkpt lat="42.086467" lon="1.028893">
        <ele>1436.0</ele>
        <time>2015-08-29T10:53:23Z</time>
      </trkpt>
      <trkpt lat="42.086428" lon="1.028902">
        <ele>1438.0</ele>
        <time>2015-08-29T10:53:24Z</time>
      </trkpt>
      <trkpt lat="42.086388" lon="1.028913">
        <ele>1440.0</ele>
        <time>2015-08-29T10:53:25Z</time>
      </trkpt>
      <trkpt lat="42.086348" lon="1.028937">
        <ele>1441.0</ele>
        <time>2015-08-29T10:53:26Z</time>
      </trkpt>
      <trkpt lat="42.086300" lon="1.028972">
        <ele>1442.0</ele>
        <time>2015-08-29T10:53:27Z</time>
      </trkpt>
      <trkpt lat="42.086250" lon="1.029017">
        <ele>1443.0</ele>
        <time>2015-08-29T10:53:28Z</time>
      </trkpt>
      <trkpt lat="42.086202" lon="1.029070">
        <ele>1444.0</ele>
        <time>2015-08-29T10:53:29Z</time>
      </trkpt>
      <trkpt lat="42.086145" lon="1.029137">
        <ele>1445.0</ele>
        <time>2015-08-29T10:53:30Z</time>
      </trkpt>
      <trkpt lat="42.086112" lon="1.029200">
        <ele>1447.0</ele>
        <time>2015-08-29T10:53:31Z</time>
      </trkpt>
      <trkpt lat="42.086110" lon="1.029295">
        <ele>1446.0</ele>
        <time>2015-08-29T10:53:32Z</time>
      </trkpt>
      <trkpt lat="42.086110" lon="1.029397">
        <ele>1444.0</ele>
        <time>2015-08-29T10:53:33Z</time>
      </trkpt>
      <trkpt lat="42.086107" lon="1.029490">
        <ele>1443.0</ele>
        <time>2015-08-29T10:53:34Z</time>
      </trkpt>
      <trkpt lat="42.086103" lon="1.029573">
        <ele>1443.0</ele>
        <time>2015-08-29T10:53:35Z</time>
      </trkpt>
      <trkpt lat="42.086105" lon="1.029645">
        <ele>1443.0</ele>
        <time>2015-08-29T10:53:36Z</time>
      </trkpt>
      <trkpt lat="42.086117" lon="1.029723">
        <ele>1442.0</ele>
        <time>2015-08-29T10:53:37Z</time>
      </trkpt>
      <trkpt lat="42.086142" lon="1.029813">
        <ele>1441.0</ele>
        <time>2015-08-29T10:53:38Z</time>
      </trkpt>
      <trkpt lat="42.086193" lon="1.029922">
        <ele>1440.0</ele>
        <time>2015-08-29T10:53:39Z</time>
      </trkpt>
      <trkpt lat="42.086267" lon="1.030025">
        <ele>1440.0</ele>
        <time>2015-08-29T10:53:40Z</time>
      </trkpt>
      <trkpt lat="42.086357" lon="1.030113">
        <ele>1439.0</ele>
        <time>2015-08-29T10:53:41Z</time>
      </trkpt>
      <trkpt lat="42.086463" lon="1.030183">
        <ele>1439.0</ele>
        <time>2015-08-29T10:53:42Z</time>
      </trkpt>
      <trkpt lat="42.086573" lon="1.030232">
        <ele>1438.0</ele>
        <time>2015-08-29T10:53:43Z</time>
      </trkpt>
      <trkpt lat="42.086685" lon="1.030252">
        <ele>1439.0</ele>
        <time>2015-08-29T10:53:44Z</time>
      </trkpt>
      <trkpt lat="42.086795" lon="1.030258">
        <ele>1439.0</ele>
        <time>2015-08-29T10:53:45Z</time>
      </trkpt>
      <trkpt lat="42.086905" lon="1.030252">
        <ele>1438.0</ele>
        <time>2015-08-29T10:53:46Z</time>
      </trkpt>
      <trkpt lat="42.087013" lon="1.030252">
        <ele>1437.0</ele>
        <time>2015-08-29T10:53:47Z</time>
      </trkpt>
      <trkpt lat="42.087117" lon="1.030255">
        <ele>1438.0</ele>
        <time>2015-08-29T10:53:48Z</time>
      </trkpt>
      <trkpt lat="42.087237" lon="1.030235">
        <ele>1437.0</ele>
        <time>2015-08-29T10:53:49Z</time>
      </trkpt>
      <trkpt lat="42.087355" lon="1.030203">
        <ele>1437.0</ele>
        <time>2015-08-29T10:53:50Z</time>
      </trkpt>
      <trkpt lat="42.087457" lon="1.030167">
        <ele>1439.0</ele>
        <time>2015-08-29T10:53:51Z</time>
      </trkpt>
      <trkpt lat="42.087543" lon="1.030127">
        <ele>1440.0</ele>
        <time>2015-08-29T10:53:52Z</time>
      </trkpt>
      <trkpt lat="42.087625" lon="1.030073">
        <ele>1441.0</ele>
        <time>2015-08-29T10:53:53Z</time>
      </trkpt>
      <trkpt lat="42.087710" lon="1.030007">
        <ele>1441.0</ele>
        <time>2015-08-29T10:53:54Z</time>
      </trkpt>
      <trkpt lat="42.087800" lon="1.029928">
        <ele>1441.0</ele>
        <time>2015-08-29T10:53:55Z</time>
      </trkpt>
      <trkpt lat="42.087885" lon="1.029842">
        <ele>1442.0</ele>
        <time>2015-08-29T10:53:56Z</time>
      </trkpt>
      <trkpt lat="42.087953" lon="1.029732">
        <ele>1443.0</ele>
        <time>2015-08-29T10:53:57Z</time>
      </trkpt>
      <trkpt lat="42.088002" lon="1.029610">
        <ele>1445.0</ele>
        <time>2015-08-29T10:53:58Z</time>
      </trkpt>
      <trkpt lat="42.088038" lon="1.029477">
        <ele>1446.0</ele>
        <time>2015-08-29T10:53:59Z</time>
      </trkpt>
      <trkpt lat="42.088067" lon="1.029358">
        <ele>1449.0</ele>
        <time>2015-08-29T10:54:00Z</time>
      </trkpt>
      <trkpt lat="42.088103" lon="1.029247">
        <ele>1452.0</ele>
        <time>2015-08-29T10:54:01Z</time>
      </trkpt>
      <trkpt lat="42.088143" lon="1.029148">
        <ele>1455.0</ele>
        <time>2015-08-29T10:54:02Z</time>
      </trkpt>
      <trkpt lat="42.088180" lon="1.029065">
        <ele>1457.0</ele>
        <time>2015-08-29T10:54:03Z</time>
      </trkpt>
      <trkpt lat="42.088207" lon="1.029000">
        <ele>1458.0</ele>
        <time>2015-08-29T10:54:04Z</time>
      </trkpt>
      <trkpt lat="42.088232" lon="1.028920">
        <ele>1460.0</ele>
        <time>2015-08-29T10:54:05Z</time>
      </trkpt>
      <trkpt lat="42.088270" lon="1.028807">
        <ele>1459.0</ele>
        <time>2015-08-29T10:54:06Z</time>
      </trkpt>
      <trkpt lat="42.088315" lon="1.028690">
        <ele>1460.0</ele>
        <time>2015-08-29T10:54:07Z</time>
      </trkpt>
      <trkpt lat="42.088357" lon="1.028583">
        <ele>1460.0</ele>
        <time>2015-08-29T10:54:08Z</time>
      </trkpt>
      <trkpt lat="42.088390" lon="1.028480">
        <ele>1460.0</ele>
        <time>2015-08-29T10:54:09Z</time>
      </trkpt>
      <trkpt lat="42.088422" lon="1.028368">
        <ele>1463.0</ele>
        <time>2015-08-29T10:54:10Z</time>
      </trkpt>
      <trkpt lat="42.088453" lon="1.028278">
        <ele>1467.0</ele>
        <time>2015-08-29T10:54:11Z</time>
      </trkpt>
      <trkpt lat="42.088508" lon="1.028182">
        <ele>1470.0</ele>
        <time>2015-08-29T10:54:12Z</time>
      </trkpt>
      <trkpt lat="42.088575" lon="1.028087">
        <ele>1473.0</ele>
        <time>2015-08-29T10:54:13Z</time>
      </trkpt>
      <trkpt lat="42.088635" lon="1.027987">
        <ele>1475.0</ele>
        <time>2015-08-29T10:54:14Z</time>
      </trkpt>
      <trkpt lat="42.088675" lon="1.027893">
        <ele>1477.0</ele>
        <time>2015-08-29T10:54:15Z</time>
      </trkpt>
      <trkpt lat="42.088698" lon="1.027795">
        <ele>1480.0</ele>
        <time>2015-08-29T10:54:16Z</time>
      </trkpt>
      <trkpt lat="42.088720" lon="1.027700">
        <ele>1482.0</ele>
        <time>2015-08-29T10:54:17Z</time>
      </trkpt>
      <trkpt lat="42.088755" lon="1.027595">
        <ele>1485.0</ele>
        <time>2015-08-29T10:54:18Z</time>
      </trkpt>
      <trkpt lat="42.088810" lon="1.027493">
        <ele>1487.0</ele>
        <time>2015-08-29T10:54:19Z</time>
      </trkpt>
      <trkpt lat="42.088880" lon="1.027397">
        <ele>1490.0</ele>
        <time>2015-08-29T10:54:20Z</time>
      </trkpt>
      <trkpt lat="42.088968" lon="1.027320">
        <ele>1492.0</ele>
        <time>2015-08-29T10:54:21Z</time>
      </trkpt>
      <trkpt lat="42.089055" lon="1.027255">
        <ele>1495.0</ele>
        <time>2015-08-29T10:54:22Z</time>
      </trkpt>
      <trkpt lat="42.089150" lon="1.027183">
        <ele>1497.0</ele>
        <time>2015-08-29T10:54:23Z</time>
      </trkpt>
      <trkpt lat="42.089250" lon="1.027128">
        <ele>1499.0</ele>
        <time>2015-08-29T10:54:24Z</time>
      </trkpt>
      <trkpt lat="42.089355" lon="1.027100">
        <ele>1501.0</ele>
        <time>2015-08-29T10:54:25Z</time>
      </trkpt>
      <trkpt lat="42.089462" lon="1.027100">
        <ele>1502.0</ele>
        <time>2015-08-29T10:54:26Z</time>
      </trkpt>
      <trkpt lat="42.089580" lon="1.027108">
        <ele>1504.0</ele>
        <time>2015-08-29T10:54:27Z</time>
      </trkpt>
      <trkpt lat="42.089707" lon="1.027128">
        <ele>1505.0</ele>
        <time>2015-08-29T10:54:28Z</time>
      </trkpt>
      <trkpt lat="42.089820" lon="1.027170">
        <ele>1507.0</ele>
        <time>2015-08-29T10:54:29Z</time>
      </trkpt>
      <trkpt lat="42.089923" lon="1.027230">
        <ele>1507.0</ele>
        <time>2015-08-29T10:54:30Z</time>
      </trkpt>
      <trkpt lat="42.090007" lon="1.027305">
        <ele>1509.0</ele>
        <time>2015-08-29T10:54:31Z</time>
      </trkpt>
      <trkpt lat="42.090068" lon="1.027388">
        <ele>1511.0</ele>
        <time>2015-08-29T10:54:32Z</time>
      </trkpt>
      <trkpt lat="42.090115" lon="1.027468">
        <ele>1512.0</ele>
        <time>2015-08-29T10:54:33Z</time>
      </trkpt>
      <trkpt lat="42.090148" lon="1.027553">
        <ele>1514.0</ele>
        <time>2015-08-29T10:54:34Z</time>
      </trkpt>
      <trkpt lat="42.090172" lon="1.027637">
        <ele>1515.0</ele>
        <time>2015-08-29T10:54:35Z</time>
      </trkpt>
      <trkpt lat="42.090187" lon="1.027730">
        <ele>1517.0</ele>
        <time>2015-08-29T10:54:36Z</time>
      </trkpt>
      <trkpt lat="42.090198" lon="1.027837">
        <ele>1518.0</ele>
        <time>2015-08-29T10:54:37Z</time>
      </trkpt>
      <trkpt lat="42.090182" lon="1.027932">
        <ele>1519.0</ele>
        <time>2015-08-29T10:54:38Z</time>
      </trkpt>
      <trkpt lat="42.090155" lon="1.027980">
        <ele>1521.0</ele>
        <time>2015-08-29T10:54:39Z</time>
      </trkpt>
      <trkpt lat="42.090125" lon="1.028010">
        <ele>1522.0</ele>
        <time>2015-08-29T10:54:40Z</time>
      </trkpt>
      <trkpt lat="42.090093" lon="1.028040">
        <ele>1523.0</ele>
        <time>2015-08-29T10:54:41Z</time>
      </trkpt>
      <trkpt lat="42.090063" lon="1.028073">
        <ele>1523.0</ele>
        <time>2015-08-29T10:54:42Z</time>
      </trkpt>
      <trkpt lat="42.090035" lon="1.028107">
        <ele>1524.0</ele>
        <time>2015-08-29T10:54:43Z</time>
      </trkpt>
      <trkpt lat="42.090005" lon="1.028137">
        <ele>1525.0</ele>
        <time>2015-08-29T10:54:44Z</time>
      </trkpt>
      <trkpt lat="42.089947" lon="1.028152">
        <ele>1526.0</ele>
        <time>2015-08-29T10:54:46Z</time>
      </trkpt>
      <trkpt lat="42.089898" lon="1.028135">
        <ele>1529.0</ele>
        <time>2015-08-29T10:54:48Z</time>
      </trkpt>
      <trkpt lat="42.089840" lon="1.028083">
        <ele>1534.0</ele>
        <time>2015-08-29T10:54:50Z</time>
      </trkpt>
      <trkpt lat="42.089812" lon="1.028032">
        <ele>1536.0</ele>
        <time>2015-08-29T10:54:51Z</time>
      </trkpt>
      <trkpt lat="42.089785" lon="1.027982">
        <ele>1539.0</ele>
        <time>2015-08-29T10:54:52Z</time>
      </trkpt>
      <trkpt lat="42.089758" lon="1.027940">
        <ele>1542.0</ele>
        <time>2015-08-29T10:54:53Z</time>
      </trkpt>
      <trkpt lat="42.089730" lon="1.027907">
        <ele>1544.0</ele>
        <time>2015-08-29T10:54:54Z</time>
      </trkpt>
      <trkpt lat="42.089702" lon="1.027860">
        <ele>1546.0</ele>
        <time>2015-08-29T10:54:55Z</time>
      </trkpt>
      <trkpt lat="42.089687" lon="1.027807">
        <ele>1549.0</ele>
        <time>2015-08-29T10:54:56Z</time>
      </trkpt>
      <trkpt lat="42.089682" lon="1.027727">
        <ele>1550.0</ele>
        <time>2015-08-29T10:54:57Z</time>
      </trkpt>
      <trkpt lat="42.089677" lon="1.027642">
        <ele>1552.0</ele>
        <time>2015-08-29T10:54:58Z</time>
      </trkpt>
      <trkpt lat="42.089677" lon="1.027568">
        <ele>1554.0</ele>
        <time>2015-08-29T10:54:59Z</time>
      </trkpt>
      <trkpt lat="42.089680" lon="1.027500">
        <ele>1555.0</ele>
        <time>2015-08-29T10:55:00Z</time>
      </trkpt>
      <trkpt lat="42.089682" lon="1.027433">
        <ele>1556.0</ele>
        <time>2015-08-29T10:55:01Z</time>
      </trkpt>
      <trkpt lat="42.089690" lon="1.027355">
        <ele>1557.0</ele>
        <time>2015-08-29T10:55:02Z</time>
      </trkpt>
      <trkpt lat="42.089713" lon="1.027260">
        <ele>1558.0</ele>
        <time>2015-08-29T10:55:03Z</time>
      </trkpt>
      <trkpt lat="42.089750" lon="1.027157">
        <ele>1560.0</ele>
        <time>2015-08-29T10:55:04Z</time>
      </trkpt>
      <trkpt lat="42.089800" lon="1.027053">
        <ele>1562.0</ele>
        <time>2015-08-29T10:55:05Z</time>
      </trkpt>
      <trkpt lat="42.089855" lon="1.026952">
        <ele>1563.0</ele>
        <time>2015-08-29T10:55:06Z</time>
      </trkpt>
      <trkpt lat="42.089917" lon="1.026853">
        <ele>1565.0</ele>
        <time>2015-08-29T10:55:07Z</time>
      </trkpt>
      <trkpt lat="42.089988" lon="1.026752">
        <ele>1566.0</ele>
        <time>2015-08-29T10:55:08Z</time>
      </trkpt>
      <trkpt lat="42.090063" lon="1.026678">
        <ele>1569.0</ele>
        <time>2015-08-29T10:55:09Z</time>
      </trkpt>
      <trkpt lat="42.090152" lon="1.026602">
        <ele>1571.0</ele>
        <time>2015-08-29T10:55:10Z</time>
      </trkpt>
      <trkpt lat="42.090247" lon="1.026522">
        <ele>1573.0</ele>
        <time>2015-08-29T10:55:11Z</time>
      </trkpt>
      <trkpt lat="42.090332" lon="1.026458">
        <ele>1575.0</ele>
        <time>2015-08-29T10:55:12Z</time>
      </trkpt>
      <trkpt lat="42.090415" lon="1.026400">
        <ele>1577.0</ele>
        <time>2015-08-29T10:55:13Z</time>
      </trkpt>
      <trkpt lat="42.090508" lon="1.026340">
        <ele>1578.0</ele>
        <time>2015-08-29T10:55:14Z</time>
      </trkpt>
      <trkpt lat="42.090603" lon="1.026290">
        <ele>1579.0</ele>
        <time>2015-08-29T10:55:15Z</time>
      </trkpt>
      <trkpt lat="42.090710" lon="1.026247">
        <ele>1581.0</ele>
        <time>2015-08-29T10:55:16Z</time>
      </trkpt>
      <trkpt lat="42.090815" lon="1.026217">
        <ele>1583.0</ele>
        <time>2015-08-29T10:55:17Z</time>
      </trkpt>
      <trkpt lat="42.090915" lon="1.026205">
        <ele>1584.0</ele>
        <time>2015-08-29T10:55:18Z</time>
      </trkpt>
      <trkpt lat="42.091015" lon="1.026203">
        <ele>1586.0</ele>
        <time>2015-08-29T10:55:19Z</time>
      </trkpt>
      <trkpt lat="42.091117" lon="1.026213">
        <ele>1588.0</ele>
        <time>2015-08-29T10:55:20Z</time>
      </trkpt>
      <trkpt lat="42.091222" lon="1.026225">
        <ele>1589.0</ele>
        <time>2015-08-29T10:55:21Z</time>
      </trkpt>
      <trkpt lat="42.091327" lon="1.026242">
        <ele>1590.0</ele>
        <time>2015-08-29T10:55:22Z</time>
      </trkpt>
      <trkpt lat="42.091435" lon="1.026267">
        <ele>1591.0</ele>
        <time>2015-08-29T10:55:23Z</time>
      </trkpt>
      <trkpt lat="42.091535" lon="1.026307">
        <ele>1592.0</ele>
        <time>2015-08-29T10:55:24Z</time>
      </trkpt>
      <trkpt lat="42.091627" lon="1.026363">
        <ele>1593.0</ele>
        <time>2015-08-29T10:55:25Z</time>
      </trkpt>
      <trkpt lat="42.091705" lon="1.026455">
        <ele>1594.0</ele>
        <time>2015-08-29T10:55:26Z</time>
      </trkpt>
      <trkpt lat="42.091792" lon="1.026563">
        <ele>1595.0</ele>
        <time>2015-08-29T10:55:27Z</time>
      </trkpt>
      <trkpt lat="42.091872" lon="1.026685">
        <ele>1595.0</ele>
        <time>2015-08-29T10:55:28Z</time>
      </trkpt>
      <trkpt lat="42.091928" lon="1.026812">
        <ele>1596.0</ele>
        <time>2015-08-29T10:55:29Z</time>
      </trkpt>
      <trkpt lat="42.091965" lon="1.026940">
        <ele>1596.0</ele>
        <time>2015-08-29T10:55:30Z</time>
      </trkpt>
      <trkpt lat="42.091983" lon="1.027062">
        <ele>1598.0</ele>
        <time>2015-08-29T10:55:31Z</time>
      </trkpt>
      <trkpt lat="42.091992" lon="1.027158">
        <ele>1599.0</ele>
        <time>2015-08-29T10:55:32Z</time>
      </trkpt>
      <trkpt lat="42.092010" lon="1.027218">
        <ele>1600.0</ele>
        <time>2015-08-29T10:55:33Z</time>
      </trkpt>
      <trkpt lat="42.092028" lon="1.027267">
        <ele>1600.0</ele>
        <time>2015-08-29T10:55:34Z</time>
      </trkpt>
      <trkpt lat="42.092042" lon="1.027322">
        <ele>1601.0</ele>
        <time>2015-08-29T10:55:35Z</time>
      </trkpt>
      <trkpt lat="42.092055" lon="1.027412">
        <ele>1601.0</ele>
        <time>2015-08-29T10:55:36Z</time>
      </trkpt>
      <trkpt lat="42.092057" lon="1.027517">
        <ele>1602.0</ele>
        <time>2015-08-29T10:55:37Z</time>
      </trkpt>
      <trkpt lat="42.092055" lon="1.027618">
        <ele>1603.0</ele>
        <time>2015-08-29T10:55:38Z</time>
      </trkpt>
      <trkpt lat="42.092053" lon="1.027707">
        <ele>1604.0</ele>
        <time>2015-08-29T10:55:39Z</time>
      </trkpt>
      <trkpt lat="42.092053" lon="1.027767">
        <ele>1606.0</ele>
        <time>2015-08-29T10:55:40Z</time>
      </trkpt>
      <trkpt lat="42.092045" lon="1.027820">
        <ele>1606.0</ele>
        <time>2015-08-29T10:55:41Z</time>
      </trkpt>
      <trkpt lat="42.092005" lon="1.027878">
        <ele>1606.0</ele>
        <time>2015-08-29T10:55:42Z</time>
      </trkpt>
      <trkpt lat="42.091968" lon="1.027928">
        <ele>1609.0</ele>
        <time>2015-08-29T10:55:43Z</time>
      </trkpt>
      <trkpt lat="42.091935" lon="1.027982">
        <ele>1611.0</ele>
        <time>2015-08-29T10:55:44Z</time>
      </trkpt>
      <trkpt lat="42.091897" lon="1.028032">
        <ele>1613.0</ele>
        <time>2015-08-29T10:55:45Z</time>
      </trkpt>
      <trkpt lat="42.091868" lon="1.028075">
        <ele>1614.0</ele>
        <time>2015-08-29T10:55:46Z</time>
      </trkpt>
      <trkpt lat="42.091842" lon="1.028112">
        <ele>1615.0</ele>
        <time>2015-08-29T10:55:47Z</time>
      </trkpt>
      <trkpt lat="42.091792" lon="1.028175">
        <ele>1617.0</ele>
        <time>2015-08-29T10:55:49Z</time>
      </trkpt>
      <trkpt lat="42.091733" lon="1.028227">
        <ele>1620.0</ele>
        <time>2015-08-29T10:55:51Z</time>
      </trkpt>
      <trkpt lat="42.091687" lon="1.028273">
        <ele>1624.0</ele>
        <time>2015-08-29T10:55:53Z</time>
      </trkpt>
      <trkpt lat="42.091663" lon="1.028313">
        <ele>1625.0</ele>
        <time>2015-08-29T10:55:54Z</time>
      </trkpt>
      <trkpt lat="42.091637" lon="1.028362">
        <ele>1626.0</ele>
        <time>2015-08-29T10:55:55Z</time>
      </trkpt>
      <trkpt lat="42.091603" lon="1.028403">
        <ele>1627.0</ele>
        <time>2015-08-29T10:55:56Z</time>
      </trkpt>
      <trkpt lat="42.091565" lon="1.028432">
        <ele>1629.0</ele>
        <time>2015-08-29T10:55:57Z</time>
      </trkpt>
      <trkpt lat="42.091528" lon="1.028422">
        <ele>1631.0</ele>
        <time>2015-08-29T10:55:58Z</time>
      </trkpt>
      <trkpt lat="42.091497" lon="1.028398">
        <ele>1632.0</ele>
        <time>2015-08-29T10:55:59Z</time>
      </trkpt>
      <trkpt lat="42.091463" lon="1.028373">
        <ele>1634.0</ele>
        <time>2015-08-29T10:56:00Z</time>
      </trkpt>
      <trkpt lat="42.091425" lon="1.028338">
        <ele>1636.0</ele>
        <time>2015-08-29T10:56:01Z</time>
      </trkpt>
      <trkpt lat="42.091390" lon="1.028288">
        <ele>1637.0</ele>
        <time>2015-08-29T10:56:02Z</time>
      </trkpt>
      <trkpt lat="42.091375" lon="1.028225">
        <ele>1637.0</ele>
        <time>2015-08-29T10:56:03Z</time>
      </trkpt>
      <trkpt lat="42.091373" lon="1.028148">
        <ele>1637.0</ele>
        <time>2015-08-29T10:56:04Z</time>
      </trkpt>
      <trkpt lat="42.091388" lon="1.028067">
        <ele>1638.0</ele>
        <time>2015-08-29T10:56:05Z</time>
      </trkpt>
      <trkpt lat="42.091417" lon="1.027973">
        <ele>1639.0</ele>
        <time>2015-08-29T10:56:06Z</time>
      </trkpt>
      <trkpt lat="42.091453" lon="1.027872">
        <ele>1640.0</ele>
        <time>2015-08-29T10:56:07Z</time>
      </trkpt>
      <trkpt lat="42.091498" lon="1.027768">
        <ele>1640.0</ele>
        <time>2015-08-29T10:56:08Z</time>
      </trkpt>
      <trkpt lat="42.091563" lon="1.027647">
        <ele>1639.0</ele>
        <time>2015-08-29T10:56:09Z</time>
      </trkpt>
      <trkpt lat="42.091637" lon="1.027567">
        <ele>1640.0</ele>
        <time>2015-08-29T10:56:10Z</time>
      </trkpt>
      <trkpt lat="42.091727" lon="1.027488">
        <ele>1642.0</ele>
        <time>2015-08-29T10:56:11Z</time>
      </trkpt>
      <trkpt lat="42.091830" lon="1.027418">
        <ele>1642.0</ele>
        <time>2015-08-29T10:56:12Z</time>
      </trkpt>
      <trkpt lat="42.091935" lon="1.027357">
        <ele>1642.0</ele>
        <time>2015-08-29T10:56:13Z</time>
      </trkpt>
      <trkpt lat="42.092042" lon="1.027305">
        <ele>1642.0</ele>
        <time>2015-08-29T10:56:14Z</time>
      </trkpt>
      <trkpt lat="42.092155" lon="1.027263">
        <ele>1642.0</ele>
        <time>2015-08-29T10:56:15Z</time>
      </trkpt>
      <trkpt lat="42.092268" lon="1.027245">
        <ele>1643.0</ele>
        <time>2015-08-29T10:56:16Z</time>
      </trkpt>
      <trkpt lat="42.092377" lon="1.027253">
        <ele>1644.0</ele>
        <time>2015-08-29T10:56:17Z</time>
      </trkpt>
      <trkpt lat="42.092473" lon="1.027275">
        <ele>1644.0</ele>
        <time>2015-08-29T10:56:18Z</time>
      </trkpt>
      <trkpt lat="42.092563" lon="1.027300">
        <ele>1646.0</ele>
        <time>2015-08-29T10:56:19Z</time>
      </trkpt>
      <trkpt lat="42.092653" lon="1.027323">
        <ele>1646.0</ele>
        <time>2015-08-29T10:56:20Z</time>
      </trkpt>
      <trkpt lat="42.092755" lon="1.027347">
        <ele>1647.0</ele>
        <time>2015-08-29T10:56:21Z</time>
      </trkpt>
      <trkpt lat="42.092865" lon="1.027372">
        <ele>1649.0</ele>
        <time>2015-08-29T10:56:22Z</time>
      </trkpt>
      <trkpt lat="42.092972" lon="1.027395">
        <ele>1650.0</ele>
        <time>2015-08-29T10:56:23Z</time>
      </trkpt>
      <trkpt lat="42.093070" lon="1.027422">
        <ele>1652.0</ele>
        <time>2015-08-29T10:56:24Z</time>
      </trkpt>
      <trkpt lat="42.093163" lon="1.027453">
        <ele>1653.0</ele>
        <time>2015-08-29T10:56:25Z</time>
      </trkpt>
      <trkpt lat="42.093260" lon="1.027497">
        <ele>1653.0</ele>
        <time>2015-08-29T10:56:26Z</time>
      </trkpt>
      <trkpt lat="42.093353" lon="1.027557">
        <ele>1655.0</ele>
        <time>2015-08-29T10:56:27Z</time>
      </trkpt>
      <trkpt lat="42.093443" lon="1.027633">
        <ele>1657.0</ele>
        <time>2015-08-29T10:56:28Z</time>
      </trkpt>
      <trkpt lat="42.093533" lon="1.027725">
        <ele>1658.0</ele>
        <time>2015-08-29T10:56:29Z</time>
      </trkpt>
      <trkpt lat="42.093598" lon="1.027812">
        <ele>1659.0</ele>
        <time>2015-08-29T10:56:30Z</time>
      </trkpt>
      <trkpt lat="42.093643" lon="1.027893">
        <ele>1660.0</ele>
        <time>2015-08-29T10:56:31Z</time>
      </trkpt>
      <trkpt lat="42.093682" lon="1.027985">
        <ele>1661.0</ele>
        <time>2015-08-29T10:56:32Z</time>
      </trkpt>
      <trkpt lat="42.093720" lon="1.028092">
        <ele>1662.0</ele>
        <time>2015-08-29T10:56:33Z</time>
      </trkpt>
      <trkpt lat="42.093758" lon="1.028200">
        <ele>1663.0</ele>
        <time>2015-08-29T10:56:34Z</time>
      </trkpt>
      <trkpt lat="42.093790" lon="1.028305">
        <ele>1665.0</ele>
        <time>2015-08-29T10:56:35Z</time>
      </trkpt>
      <trkpt lat="42.093807" lon="1.028403">
        <ele>1666.0</ele>
        <time>2015-08-29T10:56:36Z</time>
      </trkpt>
      <trkpt lat="42.093808" lon="1.028495">
        <ele>1667.0</ele>
        <time>2015-08-29T10:56:37Z</time>
      </trkpt>
      <trkpt lat="42.093803" lon="1.028580">
        <ele>1668.0</ele>
        <time>2015-08-29T10:56:38Z</time>
      </trkpt>
      <trkpt lat="42.093795" lon="1.028665">
        <ele>1669.0</ele>
        <time>2015-08-29T10:56:39Z</time>
      </trkpt>
      <trkpt lat="42.093785" lon="1.028742">
        <ele>1670.0</ele>
        <time>2015-08-29T10:56:40Z</time>
      </trkpt>
      <trkpt lat="42.093770" lon="1.028810">
        <ele>1672.0</ele>
        <time>2015-08-29T10:56:41Z</time>
      </trkpt>
      <trkpt lat="42.093747" lon="1.028872">
        <ele>1674.0</ele>
        <time>2015-08-29T10:56:42Z</time>
      </trkpt>
      <trkpt lat="42.093715" lon="1.028935">
        <ele>1675.0</ele>
        <time>2015-08-29T10:56:43Z</time>
      </trkpt>
      <trkpt lat="42.093690" lon="1.028988">
        <ele>1678.0</ele>
        <time>2015-08-29T10:56:44Z</time>
      </trkpt>
      <trkpt lat="42.093668" lon="1.029057">
        <ele>1680.0</ele>
        <time>2015-08-29T10:56:45Z</time>
      </trkpt>
      <trkpt lat="42.093652" lon="1.029130">
        <ele>1682.0</ele>
        <time>2015-08-29T10:56:46Z</time>
      </trkpt>
      <trkpt lat="42.093635" lon="1.029197">
        <ele>1683.0</ele>
        <time>2015-08-29T10:56:47Z</time>
      </trkpt>
      <trkpt lat="42.093610" lon="1.029262">
        <ele>1683.0</ele>
        <time>2015-08-29T10:56:48Z</time>
      </trkpt>
      <trkpt lat="42.093587" lon="1.029322">
        <ele>1684.0</ele>
        <time>2015-08-29T10:56:49Z</time>
      </trkpt>
      <trkpt lat="42.093565" lon="1.029375">
        <ele>1684.0</ele>
        <time>2015-08-29T10:56:50Z</time>
      </trkpt>
      <trkpt lat="42.093542" lon="1.029418">
        <ele>1685.0</ele>
        <time>2015-08-29T10:56:51Z</time>
      </trkpt>
      <trkpt lat="42.093513" lon="1.029450">
        <ele>1686.0</ele>
        <time>2015-08-29T10:56:52Z</time>
      </trkpt>
      <trkpt lat="42.093447" lon="1.029430">
        <ele>1687.0</ele>
        <time>2015-08-29T10:56:54Z</time>
      </trkpt>
      <trkpt lat="42.093410" lon="1.029405">
        <ele>1687.0</ele>
        <time>2015-08-29T10:56:55Z</time>
      </trkpt>
      <trkpt lat="42.093377" lon="1.029377">
        <ele>1688.0</ele>
        <time>2015-08-29T10:56:56Z</time>
      </trkpt>
      <trkpt lat="42.093353" lon="1.029337">
        <ele>1689.0</ele>
        <time>2015-08-29T10:56:57Z</time>
      </trkpt>
      <trkpt lat="42.093332" lon="1.029280">
        <ele>1689.0</ele>
        <time>2015-08-29T10:56:58Z</time>
      </trkpt>
      <trkpt lat="42.093315" lon="1.029197">
        <ele>1689.0</ele>
        <time>2015-08-29T10:56:59Z</time>
      </trkpt>
      <trkpt lat="42.093308" lon="1.029087">
        <ele>1689.0</ele>
        <time>2015-08-29T10:57:00Z</time>
      </trkpt>
      <trkpt lat="42.093312" lon="1.028995">
        <ele>1691.0</ele>
        <time>2015-08-29T10:57:01Z</time>
      </trkpt>
      <trkpt lat="42.093320" lon="1.028900">
        <ele>1693.0</ele>
        <time>2015-08-29T10:57:02Z</time>
      </trkpt>
      <trkpt lat="42.093348" lon="1.028805">
        <ele>1692.0</ele>
        <time>2015-08-29T10:57:03Z</time>
      </trkpt>
      <trkpt lat="42.093378" lon="1.028722">
        <ele>1692.0</ele>
        <time>2015-08-29T10:57:04Z</time>
      </trkpt>
      <trkpt lat="42.093400" lon="1.028637">
        <ele>1693.0</ele>
        <time>2015-08-29T10:57:05Z</time>
      </trkpt>
      <trkpt lat="42.093410" lon="1.028543">
        <ele>1693.0</ele>
        <time>2015-08-29T10:57:06Z</time>
      </trkpt>
      <trkpt lat="42.093418" lon="1.028457">
        <ele>1693.0</ele>
        <time>2015-08-29T10:57:07Z</time>
      </trkpt>
      <trkpt lat="42.093440" lon="1.028373">
        <ele>1694.0</ele>
        <time>2015-08-29T10:57:08Z</time>
      </trkpt>
      <trkpt lat="42.093487" lon="1.028288">
        <ele>1693.0</ele>
        <time>2015-08-29T10:57:09Z</time>
      </trkpt>
      <trkpt lat="42.093553" lon="1.028193">
        <ele>1693.0</ele>
        <time>2015-08-29T10:57:10Z</time>
      </trkpt>
      <trkpt lat="42.093622" lon="1.028083">
        <ele>1692.0</ele>
        <time>2015-08-29T10:57:11Z</time>
      </trkpt>
      <trkpt lat="42.093683" lon="1.027967">
        <ele>1693.0</ele>
        <time>2015-08-29T10:57:12Z</time>
      </trkpt>
      <trkpt lat="42.093738" lon="1.027850">
        <ele>1694.0</ele>
        <time>2015-08-29T10:57:13Z</time>
      </trkpt>
      <trkpt lat="42.093795" lon="1.027750">
        <ele>1695.0</ele>
        <time>2015-08-29T10:57:14Z</time>
      </trkpt>
      <trkpt lat="42.093855" lon="1.027663">
        <ele>1696.0</ele>
        <time>2015-08-29T10:57:15Z</time>
      </trkpt>
      <trkpt lat="42.093917" lon="1.027590">
        <ele>1697.0</ele>
        <time>2015-08-29T10:57:16Z</time>
      </trkpt>
      <trkpt lat="42.093985" lon="1.027508">
        <ele>1697.0</ele>
        <time>2015-08-29T10:57:17Z</time>
      </trkpt>
      <trkpt lat="42.094053" lon="1.027438">
        <ele>1699.0</ele>
        <time>2015-08-29T10:57:18Z</time>
      </trkpt>
      <trkpt lat="42.094133" lon="1.027365">
        <ele>1700.0</ele>
        <time>2015-08-29T10:57:19Z</time>
      </trkpt>
      <trkpt lat="42.094225" lon="1.027295">
        <ele>1701.0</ele>
        <time>2015-08-29T10:57:20Z</time>
      </trkpt>
      <trkpt lat="42.094315" lon="1.027250">
        <ele>1702.0</ele>
        <time>2015-08-29T10:57:21Z</time>
      </trkpt>
      <trkpt lat="42.094397" lon="1.027227">
        <ele>1701.0</ele>
        <time>2015-08-29T10:57:22Z</time>
      </trkpt>
      <trkpt lat="42.094485" lon="1.027202">
        <ele>1701.0</ele>
        <time>2015-08-29T10:57:23Z</time>
      </trkpt>
      <trkpt lat="42.094583" lon="1.027165">
        <ele>1700.0</ele>
        <time>2015-08-29T10:57:24Z</time>
      </trkpt>
      <trkpt lat="42.094683" lon="1.027117">
        <ele>1700.0</ele>
        <time>2015-08-29T10:57:25Z</time>
      </trkpt>
      <trkpt lat="42.094778" lon="1.027062">
        <ele>1700.0</ele>
        <time>2015-08-29T10:57:26Z</time>
      </trkpt>
      <trkpt lat="42.094865" lon="1.027008">
        <ele>1700.0</ele>
        <time>2015-08-29T10:57:27Z</time>
      </trkpt>
      <trkpt lat="42.094948" lon="1.026962">
        <ele>1698.0</ele>
        <time>2015-08-29T10:57:28Z</time>
      </trkpt>
      <trkpt lat="42.095040" lon="1.026913">
        <ele>1696.0</ele>
        <time>2015-08-29T10:57:29Z</time>
      </trkpt>
      <trkpt lat="42.095142" lon="1.026857">
        <ele>1693.0</ele>
        <time>2015-08-29T10:57:30Z</time>
      </trkpt>
      <trkpt lat="42.095240" lon="1.026792">
        <ele>1691.0</ele>
        <time>2015-08-29T10:57:31Z</time>
      </trkpt>
      <trkpt lat="42.095333" lon="1.026723">
        <ele>1691.0</ele>
        <time>2015-08-29T10:57:32Z</time>
      </trkpt>
      <trkpt lat="42.095417" lon="1.026663">
        <ele>1691.0</ele>
        <time>2015-08-29T10:57:33Z</time>
      </trkpt>
      <trkpt lat="42.095495" lon="1.026622">
        <ele>1692.0</ele>
        <time>2015-08-29T10:57:34Z</time>
      </trkpt>
      <trkpt lat="42.095577" lon="1.026598">
        <ele>1691.0</ele>
        <time>2015-08-29T10:57:35Z</time>
      </trkpt>
      <trkpt lat="42.095677" lon="1.026558">
        <ele>1688.0</ele>
        <time>2015-08-29T10:57:36Z</time>
      </trkpt>
      <trkpt lat="42.095778" lon="1.026498">
        <ele>1686.0</ele>
        <time>2015-08-29T10:57:37Z</time>
      </trkpt>
      <trkpt lat="42.095870" lon="1.026437">
        <ele>1684.0</ele>
        <time>2015-08-29T10:57:38Z</time>
      </trkpt>
      <trkpt lat="42.095953" lon="1.026383">
        <ele>1683.0</ele>
        <time>2015-08-29T10:57:39Z</time>
      </trkpt>
      <trkpt lat="42.096038" lon="1.026340">
        <ele>1682.0</ele>
        <time>2015-08-29T10:57:40Z</time>
      </trkpt>
      <trkpt lat="42.096123" lon="1.026302">
        <ele>1679.0</ele>
        <time>2015-08-29T10:57:41Z</time>
      </trkpt>
      <trkpt lat="42.096210" lon="1.026275">
        <ele>1675.0</ele>
        <time>2015-08-29T10:57:42Z</time>
      </trkpt>
      <trkpt lat="42.096305" lon="1.026235">
        <ele>1670.0</ele>
        <time>2015-08-29T10:57:43Z</time>
      </trkpt>
      <trkpt lat="42.096405" lon="1.026190">
        <ele>1666.0</ele>
        <time>2015-08-29T10:57:44Z</time>
      </trkpt>
      <trkpt lat="42.096505" lon="1.026135">
        <ele>1663.0</ele>
        <time>2015-08-29T10:57:45Z</time>
      </trkpt>
      <trkpt lat="42.096602" lon="1.026078">
        <ele>1661.0</ele>
        <time>2015-08-29T10:57:46Z</time>
      </trkpt>
      <trkpt lat="42.096692" lon="1.026023">
        <ele>1658.0</ele>
        <time>2015-08-29T10:57:47Z</time>
      </trkpt>
      <trkpt lat="42.096777" lon="1.025972">
        <ele>1656.0</ele>
        <time>2015-08-29T10:57:48Z</time>
      </trkpt>
      <trkpt lat="42.096860" lon="1.025915">
        <ele>1654.0</ele>
        <time>2015-08-29T10:57:49Z</time>
      </trkpt>
      <trkpt lat="42.096947" lon="1.025852">
        <ele>1652.0</ele>
        <time>2015-08-29T10:57:50Z</time>
      </trkpt>
      <trkpt lat="42.097040" lon="1.025772">
        <ele>1649.0</ele>
        <time>2015-08-29T10:57:51Z</time>
      </trkpt>
      <trkpt lat="42.097132" lon="1.025697">
        <ele>1647.0</ele>
        <time>2015-08-29T10:57:52Z</time>
      </trkpt>
      <trkpt lat="42.097228" lon="1.025598">
        <ele>1645.0</ele>
        <time>2015-08-29T10:57:53Z</time>
      </trkpt>
      <trkpt lat="42.097335" lon="1.025500">
        <ele>1644.0</ele>
        <time>2015-08-29T10:57:54Z</time>
      </trkpt>
      <trkpt lat="42.097450" lon="1.025420">
        <ele>1644.0</ele>
        <time>2015-08-29T10:57:55Z</time>
      </trkpt>
      <trkpt lat="42.097563" lon="1.025358">
        <ele>1645.0</ele>
        <time>2015-08-29T10:57:56Z</time>
      </trkpt>
      <trkpt lat="42.097667" lon="1.025300">
        <ele>1646.0</ele>
        <time>2015-08-29T10:57:57Z</time>
      </trkpt>
      <trkpt lat="42.097757" lon="1.025235">
        <ele>1647.0</ele>
        <time>2015-08-29T10:57:58Z</time>
      </trkpt>
      <trkpt lat="42.097837" lon="1.025162">
        <ele>1648.0</ele>
        <time>2015-08-29T10:57:59Z</time>
      </trkpt>
      <trkpt lat="42.097915" lon="1.025092">
        <ele>1647.0</ele>
        <time>2015-08-29T10:58:00Z</time>
      </trkpt>
      <trkpt lat="42.097998" lon="1.025030">
        <ele>1648.0</ele>
        <time>2015-08-29T10:58:01Z</time>
      </trkpt>
      <trkpt lat="42.098090" lon="1.024978">
        <ele>1648.0</ele>
        <time>2015-08-29T10:58:02Z</time>
      </trkpt>
      <trkpt lat="42.098185" lon="1.024925">
        <ele>1649.0</ele>
        <time>2015-08-29T10:58:03Z</time>
      </trkpt>
      <trkpt lat="42.098277" lon="1.024858">
        <ele>1649.0</ele>
        <time>2015-08-29T10:58:04Z</time>
      </trkpt>
      <trkpt lat="42.098360" lon="1.024773">
        <ele>1649.0</ele>
        <time>2015-08-29T10:58:05Z</time>
      </trkpt>
      <trkpt lat="42.098435" lon="1.024682">
        <ele>1648.0</ele>
        <time>2015-08-29T10:58:06Z</time>
      </trkpt>
      <trkpt lat="42.098520" lon="1.024608">
        <ele>1648.0</ele>
        <time>2015-08-29T10:58:07Z</time>
      </trkpt>
      <trkpt lat="42.098620" lon="1.024542">
        <ele>1648.0</ele>
        <time>2015-08-29T10:58:08Z</time>
      </trkpt>
      <trkpt lat="42.098723" lon="1.024482">
        <ele>1648.0</ele>
        <time>2015-08-29T10:58:09Z</time>
      </trkpt>
      <trkpt lat="42.098837" lon="1.024428">
        <ele>1647.0</ele>
        <time>2015-08-29T10:58:10Z</time>
      </trkpt>
      <trkpt lat="42.098952" lon="1.024372">
        <ele>1645.0</ele>
        <time>2015-08-29T10:58:11Z</time>
      </trkpt>
      <trkpt lat="42.099055" lon="1.024322">
        <ele>1644.0</ele>
        <time>2015-08-29T10:58:12Z</time>
      </trkpt>
      <trkpt lat="42.099158" lon="1.024267">
        <ele>1644.0</ele>
        <time>2015-08-29T10:58:13Z</time>
      </trkpt>
      <trkpt lat="42.099257" lon="1.024222">
        <ele>1643.0</ele>
        <time>2015-08-29T10:58:14Z</time>
      </trkpt>
      <trkpt lat="42.099362" lon="1.024167">
        <ele>1644.0</ele>
        <time>2015-08-29T10:58:15Z</time>
      </trkpt>
      <trkpt lat="42.099468" lon="1.024105">
        <ele>1643.0</ele>
        <time>2015-08-29T10:58:16Z</time>
      </trkpt>
      <trkpt lat="42.099580" lon="1.024043">
        <ele>1643.0</ele>
        <time>2015-08-29T10:58:17Z</time>
      </trkpt>
      <trkpt lat="42.099698" lon="1.023982">
        <ele>1643.0</ele>
        <time>2015-08-29T10:58:18Z</time>
      </trkpt>
      <trkpt lat="42.099825" lon="1.023927">
        <ele>1644.0</ele>
        <time>2015-08-29T10:58:19Z</time>
      </trkpt>
      <trkpt lat="42.098837" lon="1.024428">
        <ele>1647.0</ele>
        <time>2015-08-29T10:58:10Z</time>
      </trkpt>
      <trkpt lat="42.098952" lon="1.024372">
        <ele>1645.0</ele>
        <time>2015-08-29T10:58:11Z</time>
      </trkpt>
      <trkpt lat="42.099055" lon="1.024322">
        <ele>1644.0</ele>
        <time>2015-08-29T10:58:12Z</time>
      </trkpt>
      <trkpt lat="42.099158" lon="1.024267">
        <ele>1644.0</ele>
        <time>2015-08-29T10:58:13Z</time>
      </trkpt>
      <trkpt lat="42.099257" lon="1.024222">
        <ele>1643.0</ele>
        <time>2015-08-29T10:58:14Z</time>
      </trkpt>
      <trkpt lat="42.099362" lon="1.024167">
        <ele>1644.0</ele>
        <time>2015-08-29T10:58:15Z</time>
      </trkpt>
      <trkpt lat="42.099468" lon="1.024105">
        <ele>1643.0</ele>
        <time>2015-08-29T10:58:16Z</time>
      </trkpt>
      <trkpt lat="42.099580" lon="1.024043">
        <ele>1643.0</ele>
        <time>2015-08-29T10:58:17Z</time>
      </trkpt>
      <trkpt lat="42.099698" lon="1.023982">
        <ele>1643.0</ele>
        <time>2015-08-29T10:58:18Z</time>
      </trkpt>
      <trkpt lat="42.099825" lon="1.023927">
        <ele>1644.0</ele>
        <time>2015-08-29T10:58:19Z</time>
      </trkpt>
      <trkpt lat="42.099948" lon="1.023878">
        <ele>1645.0</ele>
        <time>2015-08-29T10:58:20Z</time>
      </trkpt>
      <trkpt lat="42.100060" lon="1.023828">
        <ele>1646.0</ele>
        <time>2015-08-29T10:58:21Z</time>
      </trkpt>
      <trkpt lat="42.100163" lon="1.023777">
        <ele>1647.0</ele>
        <time>2015-08-29T10:58:22Z</time>
      </trkpt>
      <trkpt lat="42.100263" lon="1.023725">
        <ele>1646.0</ele>
        <time>2015-08-29T10:58:23Z</time>
      </trkpt>
      <trkpt lat="42.100368" lon="1.023677">
        <ele>1645.0</ele>
        <time>2015-08-29T10:58:24Z</time>
      </trkpt>
      <trkpt lat="42.100482" lon="1.023622">
        <ele>1644.0</ele>
        <time>2015-08-29T10:58:25Z</time>
      </trkpt>
      <trkpt lat="42.100592" lon="1.023555">
        <ele>1644.0</ele>
        <time>2015-08-29T10:58:26Z</time>
      </trkpt>
      <trkpt lat="42.100695" lon="1.023478">
        <ele>1644.0</ele>
        <time>2015-08-29T10:58:27Z</time>
      </trkpt>
      <trkpt lat="42.100788" lon="1.023413">
        <ele>1644.0</ele>
        <time>2015-08-29T10:58:28Z</time>
      </trkpt>
      <trkpt lat="42.100873" lon="1.023370">
        <ele>1644.0</ele>
        <time>2015-08-29T10:58:29Z</time>
      </trkpt>
      <trkpt lat="42.100958" lon="1.023333">
        <ele>1643.0</ele>
        <time>2015-08-29T10:58:30Z</time>
      </trkpt>
      <trkpt lat="42.101045" lon="1.023290">
        <ele>1642.0</ele>
        <time>2015-08-29T10:58:31Z</time>
      </trkpt>
      <trkpt lat="42.101170" lon="1.023205">
        <ele>1635.0</ele>
        <time>2015-08-29T10:58:32Z</time>
      </trkpt>
      <trkpt lat="42.101280" lon="1.023132">
        <ele>1632.0</ele>
        <time>2015-08-29T10:58:33Z</time>
      </trkpt>
      <trkpt lat="42.101383" lon="1.023070">
        <ele>1631.0</ele>
        <time>2015-08-29T10:58:34Z</time>
      </trkpt>
      <trkpt lat="42.101482" lon="1.023025">
        <ele>1630.0</ele>
        <time>2015-08-29T10:58:35Z</time>
      </trkpt>
      <trkpt lat="42.101582" lon="1.022990">
        <ele>1628.0</ele>
        <time>2015-08-29T10:58:36Z</time>
      </trkpt>
      <trkpt lat="42.101683" lon="1.022952">
        <ele>1626.0</ele>
        <time>2015-08-29T10:58:37Z</time>
      </trkpt>
      <trkpt lat="42.101788" lon="1.022902">
        <ele>1624.0</ele>
        <time>2015-08-29T10:58:38Z</time>
      </trkpt>
      <trkpt lat="42.101893" lon="1.022853">
        <ele>1622.0</ele>
        <time>2015-08-29T10:58:39Z</time>
      </trkpt>
      <trkpt lat="42.101995" lon="1.022815">
        <ele>1620.0</ele>
        <time>2015-08-29T10:58:40Z</time>
      </trkpt>
      <trkpt lat="42.102093" lon="1.022793">
        <ele>1618.0</ele>
        <time>2015-08-29T10:58:41Z</time>
      </trkpt>
      <trkpt lat="42.102192" lon="1.022770">
        <ele>1617.0</ele>
        <time>2015-08-29T10:58:42Z</time>
      </trkpt>
      <trkpt lat="42.102290" lon="1.022737">
        <ele>1617.0</ele>
        <time>2015-08-29T10:58:43Z</time>
      </trkpt>
      <trkpt lat="42.102392" lon="1.022683">
        <ele>1615.0</ele>
        <time>2015-08-29T10:58:44Z</time>
      </trkpt>
      <trkpt lat="42.102488" lon="1.022628">
        <ele>1613.0</ele>
        <time>2015-08-29T10:58:45Z</time>
      </trkpt>
      <trkpt lat="42.102580" lon="1.022577">
        <ele>1611.0</ele>
        <time>2015-08-29T10:58:46Z</time>
      </trkpt>
      <trkpt lat="42.102668" lon="1.022528">
        <ele>1609.0</ele>
        <time>2015-08-29T10:58:47Z</time>
      </trkpt>
      <trkpt lat="42.102755" lon="1.022483">
        <ele>1607.0</ele>
        <time>2015-08-29T10:58:48Z</time>
      </trkpt>
      <trkpt lat="42.102850" lon="1.022425">
        <ele>1602.0</ele>
        <time>2015-08-29T10:58:49Z</time>
      </trkpt>
      <trkpt lat="42.102947" lon="1.022373">
        <ele>1599.0</ele>
        <time>2015-08-29T10:58:50Z</time>
      </trkpt>
      <trkpt lat="42.103043" lon="1.022320">
        <ele>1596.0</ele>
        <time>2015-08-29T10:58:51Z</time>
      </trkpt>
      <trkpt lat="42.103137" lon="1.022265">
        <ele>1595.0</ele>
        <time>2015-08-29T10:58:52Z</time>
      </trkpt>
      <trkpt lat="42.103225" lon="1.022213">
        <ele>1593.0</ele>
        <time>2015-08-29T10:58:53Z</time>
      </trkpt>
      <trkpt lat="42.103313" lon="1.022165">
        <ele>1591.0</ele>
        <time>2015-08-29T10:58:54Z</time>
      </trkpt>
      <trkpt lat="42.103397" lon="1.022120">
        <ele>1588.0</ele>
        <time>2015-08-29T10:58:55Z</time>
      </trkpt>
      <trkpt lat="42.103477" lon="1.022077">
        <ele>1585.0</ele>
        <time>2015-08-29T10:58:56Z</time>
      </trkpt>
      <trkpt lat="42.103560" lon="1.022032">
        <ele>1581.0</ele>
        <time>2015-08-29T10:58:57Z</time>
      </trkpt>
      <trkpt lat="42.103648" lon="1.021988">
        <ele>1577.0</ele>
        <time>2015-08-29T10:58:58Z</time>
      </trkpt>
      <trkpt lat="42.103737" lon="1.021935">
        <ele>1576.0</ele>
        <time>2015-08-29T10:58:59Z</time>
      </trkpt>
      <trkpt lat="42.103818" lon="1.021880">
        <ele>1574.0</ele>
        <time>2015-08-29T10:59:00Z</time>
      </trkpt>
      <trkpt lat="42.103893" lon="1.021808">
        <ele>1572.0</ele>
        <time>2015-08-29T10:59:01Z</time>
      </trkpt>
      <trkpt lat="42.103967" lon="1.021757">
        <ele>1569.0</ele>
        <time>2015-08-29T10:59:02Z</time>
      </trkpt>
      <trkpt lat="42.104043" lon="1.021712">
        <ele>1566.0</ele>
        <time>2015-08-29T10:59:03Z</time>
      </trkpt>
      <trkpt lat="42.104125" lon="1.021662">
        <ele>1563.0</ele>
        <time>2015-08-29T10:59:04Z</time>
      </trkpt>
      <trkpt lat="42.104200" lon="1.021610">
        <ele>1560.0</ele>
        <time>2015-08-29T10:59:05Z</time>
      </trkpt>
      <trkpt lat="42.104277" lon="1.021528">
        <ele>1556.0</ele>
        <time>2015-08-29T10:59:06Z</time>
      </trkpt>
      <trkpt lat="42.104345" lon="1.021453">
        <ele>1552.0</ele>
        <time>2015-08-29T10:59:07Z</time>
      </trkpt>
      <trkpt lat="42.104420" lon="1.021390">
        <ele>1549.0</ele>
        <time>2015-08-29T10:59:08Z</time>
      </trkpt>
      <trkpt lat="42.104503" lon="1.021343">
        <ele>1546.0</ele>
        <time>2015-08-29T10:59:09Z</time>
      </trkpt>
      <trkpt lat="42.104593" lon="1.021310">
        <ele>1542.0</ele>
        <time>2015-08-29T10:59:10Z</time>
      </trkpt>
      <trkpt lat="42.104687" lon="1.021278">
        <ele>1538.0</ele>
        <time>2015-08-29T10:59:11Z</time>
      </trkpt>
      <trkpt lat="42.104777" lon="1.021243">
        <ele>1534.0</ele>
        <time>2015-08-29T10:59:12Z</time>
      </trkpt>
      <trkpt lat="42.104872" lon="1.021203">
        <ele>1532.0</ele>
        <time>2015-08-29T10:59:13Z</time>
      </trkpt>
      <trkpt lat="42.104977" lon="1.021155">
        <ele>1529.0</ele>
        <time>2015-08-29T10:59:14Z</time>
      </trkpt>
      <trkpt lat="42.105082" lon="1.021093">
        <ele>1525.0</ele>
        <time>2015-08-29T10:59:15Z</time>
      </trkpt>
      <trkpt lat="42.105172" lon="1.021038">
        <ele>1523.0</ele>
        <time>2015-08-29T10:59:16Z</time>
      </trkpt>
      <trkpt lat="42.105252" lon="1.020975">
        <ele>1522.0</ele>
        <time>2015-08-29T10:59:17Z</time>
      </trkpt>
      <trkpt lat="42.105333" lon="1.020897">
        <ele>1518.0</ele>
        <time>2015-08-29T10:59:18Z</time>
      </trkpt>
      <trkpt lat="42.105415" lon="1.020827">
        <ele>1518.0</ele>
        <time>2015-08-29T10:59:19Z</time>
      </trkpt>
      <trkpt lat="42.105515" lon="1.020742">
        <ele>1514.0</ele>
        <time>2015-08-29T10:59:20Z</time>
      </trkpt>
      <trkpt lat="42.105608" lon="1.020673">
        <ele>1510.0</ele>
        <time>2015-08-29T10:59:21Z</time>
      </trkpt>
      <trkpt lat="42.105697" lon="1.020608">
        <ele>1508.0</ele>
        <time>2015-08-29T10:59:22Z</time>
      </trkpt>
      <trkpt lat="42.105777" lon="1.020548">
        <ele>1505.0</ele>
        <time>2015-08-29T10:59:23Z</time>
      </trkpt>
      <trkpt lat="42.105853" lon="1.020490">
        <ele>1502.0</ele>
        <time>2015-08-29T10:59:24Z</time>
      </trkpt>
      <trkpt lat="42.105937" lon="1.020423">
        <ele>1498.0</ele>
        <time>2015-08-29T10:59:25Z</time>
      </trkpt>
      <trkpt lat="42.106027" lon="1.020342">
        <ele>1494.0</ele>
        <time>2015-08-29T10:59:26Z</time>
      </trkpt>
      <trkpt lat="42.106125" lon="1.020257">
        <ele>1491.0</ele>
        <time>2015-08-29T10:59:27Z</time>
      </trkpt>
      <trkpt lat="42.106227" lon="1.020177">
        <ele>1489.0</ele>
        <time>2015-08-29T10:59:28Z</time>
      </trkpt>
      <trkpt lat="42.106323" lon="1.020107">
        <ele>1487.0</ele>
        <time>2015-08-29T10:59:29Z</time>
      </trkpt>
      <trkpt lat="42.106412" lon="1.020047">
        <ele>1486.0</ele>
        <time>2015-08-29T10:59:30Z</time>
      </trkpt>
      <trkpt lat="42.106500" lon="1.019975">
        <ele>1484.0</ele>
        <time>2015-08-29T10:59:31Z</time>
      </trkpt>
      <trkpt lat="42.106600" lon="1.019890">
        <ele>1481.0</ele>
        <time>2015-08-29T10:59:32Z</time>
      </trkpt>
      <trkpt lat="42.106705" lon="1.019805">
        <ele>1480.0</ele>
        <time>2015-08-29T10:59:33Z</time>
      </trkpt>
      <trkpt lat="42.106810" lon="1.019725">
        <ele>1478.0</ele>
        <time>2015-08-29T10:59:34Z</time>
      </trkpt>
      <trkpt lat="42.106907" lon="1.019645">
        <ele>1477.0</ele>
        <time>2015-08-29T10:59:35Z</time>
      </trkpt>
      <trkpt lat="42.107002" lon="1.019567">
        <ele>1475.0</ele>
        <time>2015-08-29T10:59:36Z</time>
      </trkpt>
      <trkpt lat="42.107095" lon="1.019482">
        <ele>1471.0</ele>
        <time>2015-08-29T10:59:37Z</time>
      </trkpt>
      <trkpt lat="42.107187" lon="1.019407">
        <ele>1468.0</ele>
        <time>2015-08-29T10:59:38Z</time>
      </trkpt>
      <trkpt lat="42.107285" lon="1.019335">
        <ele>1464.0</ele>
        <time>2015-08-29T10:59:39Z</time>
      </trkpt>
      <trkpt lat="42.107393" lon="1.019258">
        <ele>1461.0</ele>
        <time>2015-08-29T10:59:40Z</time>
      </trkpt>
      <trkpt lat="42.107502" lon="1.019180">
        <ele>1459.0</ele>
        <time>2015-08-29T10:59:41Z</time>
      </trkpt>
      <trkpt lat="42.107603" lon="1.019100">
        <ele>1458.0</ele>
        <time>2015-08-29T10:59:42Z</time>
      </trkpt>
      <trkpt lat="42.107700" lon="1.019018">
        <ele>1456.0</ele>
        <time>2015-08-29T10:59:43Z</time>
      </trkpt>
      <trkpt lat="42.107792" lon="1.018935">
        <ele>1455.0</ele>
        <time>2015-08-29T10:59:44Z</time>
      </trkpt>
      <trkpt lat="42.107885" lon="1.018853">
        <ele>1453.0</ele>
        <time>2015-08-29T10:59:45Z</time>
      </trkpt>
      <trkpt lat="42.107978" lon="1.018775">
        <ele>1451.0</ele>
        <time>2015-08-29T10:59:46Z</time>
      </trkpt>
      <trkpt lat="42.108073" lon="1.018692">
        <ele>1449.0</ele>
        <time>2015-08-29T10:59:47Z</time>
      </trkpt>
      <trkpt lat="42.108173" lon="1.018600">
        <ele>1447.0</ele>
        <time>2015-08-29T10:59:48Z</time>
      </trkpt>
      <trkpt lat="42.108278" lon="1.018507">
        <ele>1445.0</ele>
        <time>2015-08-29T10:59:49Z</time>
      </trkpt>
      <trkpt lat="42.108385" lon="1.018430">
        <ele>1444.0</ele>
        <time>2015-08-29T10:59:50Z</time>
      </trkpt>
      <trkpt lat="42.108495" lon="1.018370">
        <ele>1443.0</ele>
        <time>2015-08-29T10:59:51Z</time>
      </trkpt>
      <trkpt lat="42.108607" lon="1.018320">
        <ele>1442.0</ele>
        <time>2015-08-29T10:59:52Z</time>
      </trkpt>
      <trkpt lat="42.108717" lon="1.018265">
        <ele>1441.0</ele>
        <time>2015-08-29T10:59:53Z</time>
      </trkpt>
      <trkpt lat="42.108827" lon="1.018193">
        <ele>1439.0</ele>
        <time>2015-08-29T10:59:54Z</time>
      </trkpt>
      <trkpt lat="42.108932" lon="1.018120">
        <ele>1438.0</ele>
        <time>2015-08-29T10:59:55Z</time>
      </trkpt>
      <trkpt lat="42.109038" lon="1.018052">
        <ele>1437.0</ele>
        <time>2015-08-29T10:59:56Z</time>
      </trkpt>
      <trkpt lat="42.109143" lon="1.017992">
        <ele>1437.0</ele>
        <time>2015-08-29T10:59:57Z</time>
      </trkpt>
      <trkpt lat="42.109240" lon="1.017937">
        <ele>1437.0</ele>
        <time>2015-08-29T10:59:58Z</time>
      </trkpt>
      <trkpt lat="42.109327" lon="1.017878">
        <ele>1436.0</ele>
        <time>2015-08-29T10:59:59Z</time>
      </trkpt>
      <trkpt lat="42.109413" lon="1.017807">
        <ele>1434.0</ele>
        <time>2015-08-29T11:00:00Z</time>
      </trkpt>
      <trkpt lat="42.109503" lon="1.017730">
        <ele>1433.0</ele>
        <time>2015-08-29T11:00:01Z</time>
      </trkpt>
      <trkpt lat="42.109600" lon="1.017658">
        <ele>1432.0</ele>
        <time>2015-08-29T11:00:02Z</time>
      </trkpt>
      <trkpt lat="42.109697" lon="1.017598">
        <ele>1431.0</ele>
        <time>2015-08-29T11:00:03Z</time>
      </trkpt>
      <trkpt lat="42.109783" lon="1.017552">
        <ele>1432.0</ele>
        <time>2015-08-29T11:00:04Z</time>
      </trkpt>
      <trkpt lat="42.109867" lon="1.017483">
        <ele>1431.0</ele>
        <time>2015-08-29T11:00:05Z</time>
      </trkpt>
      <trkpt lat="42.109960" lon="1.017393">
        <ele>1429.0</ele>
        <time>2015-08-29T11:00:06Z</time>
      </trkpt>
      <trkpt lat="42.110062" lon="1.017300">
        <ele>1428.0</ele>
        <time>2015-08-29T11:00:07Z</time>
      </trkpt>
      <trkpt lat="42.110168" lon="1.017227">
        <ele>1428.0</ele>
        <time>2015-08-29T11:00:08Z</time>
      </trkpt>
      <trkpt lat="42.110270" lon="1.017178">
        <ele>1429.0</ele>
        <time>2015-08-29T11:00:09Z</time>
      </trkpt>
      <trkpt lat="42.110368" lon="1.017135">
        <ele>1430.0</ele>
        <time>2015-08-29T11:00:10Z</time>
      </trkpt>
      <trkpt lat="42.110472" lon="1.017078">
        <ele>1430.0</ele>
        <time>2015-08-29T11:00:11Z</time>
      </trkpt>
      <trkpt lat="42.110585" lon="1.017010">
        <ele>1428.0</ele>
        <time>2015-08-29T11:00:12Z</time>
      </trkpt>
      <trkpt lat="42.110702" lon="1.016942">
        <ele>1428.0</ele>
        <time>2015-08-29T11:00:13Z</time>
      </trkpt>
      <trkpt lat="42.110822" lon="1.016875">
        <ele>1430.0</ele>
        <time>2015-08-29T11:00:14Z</time>
      </trkpt>
      <trkpt lat="42.110937" lon="1.016812">
        <ele>1432.0</ele>
        <time>2015-08-29T11:00:15Z</time>
      </trkpt>
      <trkpt lat="42.111035" lon="1.016757">
        <ele>1435.0</ele>
        <time>2015-08-29T11:00:16Z</time>
      </trkpt>
      <trkpt lat="42.111118" lon="1.016702">
        <ele>1436.0</ele>
        <time>2015-08-29T11:00:17Z</time>
      </trkpt>
      <trkpt lat="42.111203" lon="1.016647">
        <ele>1437.0</ele>
        <time>2015-08-29T11:00:18Z</time>
      </trkpt>
      <trkpt lat="42.111297" lon="1.016598">
        <ele>1436.0</ele>
        <time>2015-08-29T11:00:19Z</time>
      </trkpt>
      <trkpt lat="42.111400" lon="1.016555">
        <ele>1434.0</ele>
        <time>2015-08-29T11:00:20Z</time>
      </trkpt>
      <trkpt lat="42.111502" lon="1.016525">
        <ele>1432.0</ele>
        <time>2015-08-29T11:00:21Z</time>
      </trkpt>
      <trkpt lat="42.111600" lon="1.016492">
        <ele>1432.0</ele>
        <time>2015-08-29T11:00:22Z</time>
      </trkpt>
      <trkpt lat="42.111692" lon="1.016440">
        <ele>1431.0</ele>
        <time>2015-08-29T11:00:23Z</time>
      </trkpt>
      <trkpt lat="42.111777" lon="1.016388">
        <ele>1430.0</ele>
        <time>2015-08-29T11:00:24Z</time>
      </trkpt>
      <trkpt lat="42.111870" lon="1.016338">
        <ele>1429.0</ele>
        <time>2015-08-29T11:00:25Z</time>
      </trkpt>
      <trkpt lat="42.111968" lon="1.016297">
        <ele>1428.0</ele>
        <time>2015-08-29T11:00:26Z</time>
      </trkpt>
      <trkpt lat="42.112075" lon="1.016262">
        <ele>1427.0</ele>
        <time>2015-08-29T11:00:27Z</time>
      </trkpt>
      <trkpt lat="42.112168" lon="1.016232">
        <ele>1430.0</ele>
        <time>2015-08-29T11:00:28Z</time>
      </trkpt>
      <trkpt lat="42.112252" lon="1.016198">
        <ele>1431.0</ele>
        <time>2015-08-29T11:00:29Z</time>
      </trkpt>
      <trkpt lat="42.112327" lon="1.016158">
        <ele>1430.0</ele>
        <time>2015-08-29T11:00:30Z</time>
      </trkpt>
      <trkpt lat="42.112408" lon="1.016112">
        <ele>1428.0</ele>
        <time>2015-08-29T11:00:31Z</time>
      </trkpt>
      <trkpt lat="42.112500" lon="1.016063">
        <ele>1426.0</ele>
        <time>2015-08-29T11:00:32Z</time>
      </trkpt>
      <trkpt lat="42.112603" lon="1.016017">
        <ele>1425.0</ele>
        <time>2015-08-29T11:00:33Z</time>
      </trkpt>
      <trkpt lat="42.112703" lon="1.015973">
        <ele>1424.0</ele>
        <time>2015-08-29T11:00:34Z</time>
      </trkpt>
      <trkpt lat="42.112797" lon="1.015932">
        <ele>1424.0</ele>
        <time>2015-08-29T11:00:35Z</time>
      </trkpt>
      <trkpt lat="42.112885" lon="1.015893">
        <ele>1423.0</ele>
        <time>2015-08-29T11:00:36Z</time>
      </trkpt>
      <trkpt lat="42.112975" lon="1.015857">
        <ele>1422.0</ele>
        <time>2015-08-29T11:00:37Z</time>
      </trkpt>
      <trkpt lat="42.113073" lon="1.015817">
        <ele>1420.0</ele>
        <time>2015-08-29T11:00:38Z</time>
      </trkpt>
      <trkpt lat="42.113177" lon="1.015780">
        <ele>1419.0</ele>
        <time>2015-08-29T11:00:39Z</time>
      </trkpt>
      <trkpt lat="42.113282" lon="1.015737">
        <ele>1418.0</ele>
        <time>2015-08-29T11:00:40Z</time>
      </trkpt>
      <trkpt lat="42.113378" lon="1.015690">
        <ele>1417.0</ele>
        <time>2015-08-29T11:00:41Z</time>
      </trkpt>
      <trkpt lat="42.113477" lon="1.015625">
        <ele>1416.0</ele>
        <time>2015-08-29T11:00:42Z</time>
      </trkpt>
      <trkpt lat="42.113572" lon="1.015548">
        <ele>1416.0</ele>
        <time>2015-08-29T11:00:43Z</time>
      </trkpt>
      <trkpt lat="42.113658" lon="1.015472">
        <ele>1415.0</ele>
        <time>2015-08-29T11:00:44Z</time>
      </trkpt>
      <trkpt lat="42.113745" lon="1.015395">
        <ele>1415.0</ele>
        <time>2015-08-29T11:00:45Z</time>
      </trkpt>
      <trkpt lat="42.113833" lon="1.015320">
        <ele>1414.0</ele>
        <time>2015-08-29T11:00:46Z</time>
      </trkpt>
      <trkpt lat="42.113927" lon="1.015243">
        <ele>1413.0</ele>
        <time>2015-08-29T11:00:47Z</time>
      </trkpt>
      <trkpt lat="42.114023" lon="1.015162">
        <ele>1413.0</ele>
        <time>2015-08-29T11:00:48Z</time>
      </trkpt>
      <trkpt lat="42.114120" lon="1.015072">
        <ele>1412.0</ele>
        <time>2015-08-29T11:00:49Z</time>
      </trkpt>
      <trkpt lat="42.114213" lon="1.014972">
        <ele>1412.0</ele>
        <time>2015-08-29T11:00:50Z</time>
      </trkpt>
      <trkpt lat="42.114303" lon="1.014860">
        <ele>1413.0</ele>
        <time>2015-08-29T11:00:51Z</time>
      </trkpt>
      <trkpt lat="42.114387" lon="1.014748">
        <ele>1414.0</ele>
        <time>2015-08-29T11:00:52Z</time>
      </trkpt>
      <trkpt lat="42.114462" lon="1.014655">
        <ele>1415.0</ele>
        <time>2015-08-29T11:00:53Z</time>
      </trkpt>
      <trkpt lat="42.114535" lon="1.014583">
        <ele>1415.0</ele>
        <time>2015-08-29T11:00:54Z</time>
      </trkpt>
      <trkpt lat="42.114612" lon="1.014517">
        <ele>1416.0</ele>
        <time>2015-08-29T11:00:55Z</time>
      </trkpt>
      <trkpt lat="42.114703" lon="1.014435">
        <ele>1415.0</ele>
        <time>2015-08-29T11:00:56Z</time>
      </trkpt>
      <trkpt lat="42.114797" lon="1.014330">
        <ele>1414.0</ele>
        <time>2015-08-29T11:00:57Z</time>
      </trkpt>
      <trkpt lat="42.114887" lon="1.014217">
        <ele>1413.0</ele>
        <time>2015-08-29T11:00:58Z</time>
      </trkpt>
      <trkpt lat="42.114975" lon="1.014103">
        <ele>1412.0</ele>
        <time>2015-08-29T11:00:59Z</time>
      </trkpt>
      <trkpt lat="42.115062" lon="1.013997">
        <ele>1412.0</ele>
        <time>2015-08-29T11:01:00Z</time>
      </trkpt>
      <trkpt lat="42.115152" lon="1.013890">
        <ele>1412.0</ele>
        <time>2015-08-29T11:01:01Z</time>
      </trkpt>
      <trkpt lat="42.115243" lon="1.013785">
        <ele>1411.0</ele>
        <time>2015-08-29T11:01:02Z</time>
      </trkpt>
      <trkpt lat="42.115330" lon="1.013682">
        <ele>1410.0</ele>
        <time>2015-08-29T11:01:03Z</time>
      </trkpt>
      <trkpt lat="42.115417" lon="1.013570">
        <ele>1410.0</ele>
        <time>2015-08-29T11:01:04Z</time>
      </trkpt>
      <trkpt lat="42.115498" lon="1.013458">
        <ele>1410.0</ele>
        <time>2015-08-29T11:01:05Z</time>
      </trkpt>
      <trkpt lat="42.115580" lon="1.013345">
        <ele>1409.0</ele>
        <time>2015-08-29T11:01:06Z</time>
      </trkpt>
      <trkpt lat="42.115662" lon="1.013232">
        <ele>1408.0</ele>
        <time>2015-08-29T11:01:07Z</time>
      </trkpt>
      <trkpt lat="42.115747" lon="1.013112">
        <ele>1407.0</ele>
        <time>2015-08-29T11:01:08Z</time>
      </trkpt>
      <trkpt lat="42.115828" lon="1.012980">
        <ele>1407.0</ele>
        <time>2015-08-29T11:01:09Z</time>
      </trkpt>
      <trkpt lat="42.115908" lon="1.012838">
        <ele>1407.0</ele>
        <time>2015-08-29T11:01:10Z</time>
      </trkpt>
      <trkpt lat="42.115988" lon="1.012708">
        <ele>1408.0</ele>
        <time>2015-08-29T11:01:11Z</time>
      </trkpt>
      <trkpt lat="42.116060" lon="1.012607">
        <ele>1409.0</ele>
        <time>2015-08-29T11:01:12Z</time>
      </trkpt>
      <trkpt lat="42.116145" lon="1.012518">
        <ele>1407.0</ele>
        <time>2015-08-29T11:01:13Z</time>
      </trkpt>
      <trkpt lat="42.116245" lon="1.012410">
        <ele>1405.0</ele>
        <time>2015-08-29T11:01:14Z</time>
      </trkpt>
      <trkpt lat="42.116340" lon="1.012293">
        <ele>1404.0</ele>
        <time>2015-08-29T11:01:15Z</time>
      </trkpt>
      <trkpt lat="42.116427" lon="1.012168">
        <ele>1403.0</ele>
        <time>2015-08-29T11:01:16Z</time>
      </trkpt>
      <trkpt lat="42.116512" lon="1.012040">
        <ele>1403.0</ele>
        <time>2015-08-29T11:01:17Z</time>
      </trkpt>
      <trkpt lat="42.116597" lon="1.011918">
        <ele>1403.0</ele>
        <time>2015-08-29T11:01:18Z</time>
      </trkpt>
      <trkpt lat="42.116682" lon="1.011812">
        <ele>1403.0</ele>
        <time>2015-08-29T11:01:19Z</time>
      </trkpt>
      <trkpt lat="42.116770" lon="1.011712">
        <ele>1402.0</ele>
        <time>2015-08-29T11:01:20Z</time>
      </trkpt>
      <trkpt lat="42.116863" lon="1.011605">
        <ele>1400.0</ele>
        <time>2015-08-29T11:01:21Z</time>
      </trkpt>
      <trkpt lat="42.116963" lon="1.011493">
        <ele>1399.0</ele>
        <time>2015-08-29T11:01:22Z</time>
      </trkpt>
      <trkpt lat="42.117065" lon="1.011382">
        <ele>1399.0</ele>
        <time>2015-08-29T11:01:23Z</time>
      </trkpt>
      <trkpt lat="42.117162" lon="1.011280">
        <ele>1400.0</ele>
        <time>2015-08-29T11:01:24Z</time>
      </trkpt>
      <trkpt lat="42.117248" lon="1.011185">
        <ele>1401.0</ele>
        <time>2015-08-29T11:01:25Z</time>
      </trkpt>
      <trkpt lat="42.117332" lon="1.011085">
        <ele>1401.0</ele>
        <time>2015-08-29T11:01:26Z</time>
      </trkpt>
      <trkpt lat="42.117413" lon="1.010980">
        <ele>1401.0</ele>
        <time>2015-08-29T11:01:27Z</time>
      </trkpt>
      <trkpt lat="42.117495" lon="1.010870">
        <ele>1401.0</ele>
        <time>2015-08-29T11:01:28Z</time>
      </trkpt>
      <trkpt lat="42.117575" lon="1.010767">
        <ele>1401.0</ele>
        <time>2015-08-29T11:01:29Z</time>
      </trkpt>
      <trkpt lat="42.117660" lon="1.010648">
        <ele>1402.0</ele>
        <time>2015-08-29T11:01:30Z</time>
      </trkpt>
      <trkpt lat="42.117735" lon="1.010540">
        <ele>1402.0</ele>
        <time>2015-08-29T11:01:31Z</time>
      </trkpt>
      <trkpt lat="42.117810" lon="1.010428">
        <ele>1401.0</ele>
        <time>2015-08-29T11:01:32Z</time>
      </trkpt>
      <trkpt lat="42.117887" lon="1.010308">
        <ele>1401.0</ele>
        <time>2015-08-29T11:01:33Z</time>
      </trkpt>
      <trkpt lat="42.117962" lon="1.010188">
        <ele>1402.0</ele>
        <time>2015-08-29T11:01:34Z</time>
      </trkpt>
      <trkpt lat="42.118042" lon="1.010053">
        <ele>1404.0</ele>
        <time>2015-08-29T11:01:35Z</time>
      </trkpt>
      <trkpt lat="42.118118" lon="1.009915">
        <ele>1407.0</ele>
        <time>2015-08-29T11:01:36Z</time>
      </trkpt>
      <trkpt lat="42.118187" lon="1.009782">
        <ele>1410.0</ele>
        <time>2015-08-29T11:01:37Z</time>
      </trkpt>
      <trkpt lat="42.118250" lon="1.009658">
        <ele>1414.0</ele>
        <time>2015-08-29T11:01:38Z</time>
      </trkpt>
      <trkpt lat="42.118315" lon="1.009545">
        <ele>1417.0</ele>
        <time>2015-08-29T11:01:39Z</time>
      </trkpt>
      <trkpt lat="42.118383" lon="1.009435">
        <ele>1419.0</ele>
        <time>2015-08-29T11:01:40Z</time>
      </trkpt>
      <trkpt lat="42.118452" lon="1.009315">
        <ele>1420.0</ele>
        <time>2015-08-29T11:01:41Z</time>
      </trkpt>
      <trkpt lat="42.118517" lon="1.009178">
        <ele>1421.0</ele>
        <time>2015-08-29T11:01:42Z</time>
      </trkpt>
      <trkpt lat="42.118578" lon="1.009033">
        <ele>1421.0</ele>
        <time>2015-08-29T11:01:43Z</time>
      </trkpt>
      <trkpt lat="42.118640" lon="1.008898">
        <ele>1422.0</ele>
        <time>2015-08-29T11:01:44Z</time>
      </trkpt>
      <trkpt lat="42.118698" lon="1.008782">
        <ele>1424.0</ele>
        <time>2015-08-29T11:01:45Z</time>
      </trkpt>
      <trkpt lat="42.118755" lon="1.008665">
        <ele>1426.0</ele>
        <time>2015-08-29T11:01:46Z</time>
      </trkpt>
      <trkpt lat="42.118813" lon="1.008530">
        <ele>1426.0</ele>
        <time>2015-08-29T11:01:47Z</time>
      </trkpt>
      <trkpt lat="42.118870" lon="1.008398">
        <ele>1425.0</ele>
        <time>2015-08-29T11:01:48Z</time>
      </trkpt>
      <trkpt lat="42.118930" lon="1.008275">
        <ele>1425.0</ele>
        <time>2015-08-29T11:01:49Z</time>
      </trkpt>
      <trkpt lat="42.118993" lon="1.008162">
        <ele>1425.0</ele>
        <time>2015-08-29T11:01:50Z</time>
      </trkpt>
      <trkpt lat="42.119058" lon="1.008058">
        <ele>1426.0</ele>
        <time>2015-08-29T11:01:51Z</time>
      </trkpt>
      <trkpt lat="42.119137" lon="1.007958">
        <ele>1426.0</ele>
        <time>2015-08-29T11:01:52Z</time>
      </trkpt>
      <trkpt lat="42.119228" lon="1.007870">
        <ele>1426.0</ele>
        <time>2015-08-29T11:01:53Z</time>
      </trkpt>
      <trkpt lat="42.119333" lon="1.007798">
        <ele>1426.0</ele>
        <time>2015-08-29T11:01:54Z</time>
      </trkpt>
      <trkpt lat="42.119442" lon="1.007747">
        <ele>1426.0</ele>
        <time>2015-08-29T11:01:55Z</time>
      </trkpt>
      <trkpt lat="42.119543" lon="1.007718">
        <ele>1428.0</ele>
        <time>2015-08-29T11:01:56Z</time>
      </trkpt>
      <trkpt lat="42.119637" lon="1.007703">
        <ele>1429.0</ele>
        <time>2015-08-29T11:01:57Z</time>
      </trkpt>
      <trkpt lat="42.119718" lon="1.007697">
        <ele>1430.0</ele>
        <time>2015-08-29T11:01:58Z</time>
      </trkpt>
      <trkpt lat="42.119803" lon="1.007698">
        <ele>1429.0</ele>
        <time>2015-08-29T11:01:59Z</time>
      </trkpt>
      <trkpt lat="42.119902" lon="1.007712">
        <ele>1429.0</ele>
        <time>2015-08-29T11:02:00Z</time>
      </trkpt>
      <trkpt lat="42.120003" lon="1.007733">
        <ele>1428.0</ele>
        <time>2015-08-29T11:02:01Z</time>
      </trkpt>
      <trkpt lat="42.120087" lon="1.007762">
        <ele>1428.0</ele>
        <time>2015-08-29T11:02:02Z</time>
      </trkpt>
      <trkpt lat="42.120155" lon="1.007800">
        <ele>1429.0</ele>
        <time>2015-08-29T11:02:03Z</time>
      </trkpt>
      <trkpt lat="42.120213" lon="1.007853">
        <ele>1429.0</ele>
        <time>2015-08-29T11:02:04Z</time>
      </trkpt>
      <trkpt lat="42.120263" lon="1.007908">
        <ele>1429.0</ele>
        <time>2015-08-29T11:02:05Z</time>
      </trkpt>
      <trkpt lat="42.120320" lon="1.007965">
        <ele>1429.0</ele>
        <time>2015-08-29T11:02:06Z</time>
      </trkpt>
      <trkpt lat="42.120383" lon="1.008027">
        <ele>1429.0</ele>
        <time>2015-08-29T11:02:07Z</time>
      </trkpt>
      <trkpt lat="42.120443" lon="1.008093">
        <ele>1429.0</ele>
        <time>2015-08-29T11:02:08Z</time>
      </trkpt>
      <trkpt lat="42.120490" lon="1.008152">
        <ele>1430.0</ele>
        <time>2015-08-29T11:02:09Z</time>
      </trkpt>
      <trkpt lat="42.120527" lon="1.008207">
        <ele>1431.0</ele>
        <time>2015-08-29T11:02:10Z</time>
      </trkpt>
      <trkpt lat="42.120560" lon="1.008265">
        <ele>1432.0</ele>
        <time>2015-08-29T11:02:11Z</time>
      </trkpt>
      <trkpt lat="42.120598" lon="1.008327">
        <ele>1433.0</ele>
        <time>2015-08-29T11:02:12Z</time>
      </trkpt>
      <trkpt lat="42.120638" lon="1.008392">
        <ele>1434.0</ele>
        <time>2015-08-29T11:02:13Z</time>
      </trkpt>
      <trkpt lat="42.120678" lon="1.008448">
        <ele>1435.0</ele>
        <time>2015-08-29T11:02:14Z</time>
      </trkpt>
      <trkpt lat="42.120713" lon="1.008495">
        <ele>1437.0</ele>
        <time>2015-08-29T11:02:15Z</time>
      </trkpt>
      <trkpt lat="42.120740" lon="1.008535">
        <ele>1438.0</ele>
        <time>2015-08-29T11:02:16Z</time>
      </trkpt>
      <trkpt lat="42.120768" lon="1.008645">
        <ele>1439.0</ele>
        <time>2015-08-29T11:02:18Z</time>
      </trkpt>
      <trkpt lat="42.120815" lon="1.008725">
        <ele>1444.0</ele>
        <time>2015-08-29T11:02:20Z</time>
      </trkpt>
      <trkpt lat="42.120835" lon="1.008782">
        <ele>1444.0</ele>
        <time>2015-08-29T11:02:21Z</time>
      </trkpt>
      <trkpt lat="42.120837" lon="1.008847">
        <ele>1442.0</ele>
        <time>2015-08-29T11:02:22Z</time>
      </trkpt>
      <trkpt lat="42.120823" lon="1.008903">
        <ele>1442.0</ele>
        <time>2015-08-29T11:02:23Z</time>
      </trkpt>
      <trkpt lat="42.120805" lon="1.008960">
        <ele>1441.0</ele>
        <time>2015-08-29T11:02:24Z</time>
      </trkpt>
      <trkpt lat="42.120788" lon="1.009010">
        <ele>1442.0</ele>
        <time>2015-08-29T11:02:25Z</time>
      </trkpt>
      <trkpt lat="42.120753" lon="1.009073">
        <ele>1444.0</ele>
        <time>2015-08-29T11:02:27Z</time>
      </trkpt>
      <trkpt lat="42.120707" lon="1.009107">
        <ele>1446.0</ele>
        <time>2015-08-29T11:02:29Z</time>
      </trkpt>
      <trkpt lat="42.120638" lon="1.009142">
        <ele>1447.0</ele>
        <time>2015-08-29T11:02:31Z</time>
      </trkpt>
      <trkpt lat="42.120597" lon="1.009158">
        <ele>1448.0</ele>
        <time>2015-08-29T11:02:32Z</time>
      </trkpt>
      <trkpt lat="42.120548" lon="1.009162">
        <ele>1448.0</ele>
        <time>2015-08-29T11:02:33Z</time>
      </trkpt>
      <trkpt lat="42.120492" lon="1.009160">
        <ele>1449.0</ele>
        <time>2015-08-29T11:02:34Z</time>
      </trkpt>
      <trkpt lat="42.120435" lon="1.009135">
        <ele>1450.0</ele>
        <time>2015-08-29T11:02:35Z</time>
      </trkpt>
      <trkpt lat="42.120385" lon="1.009100">
        <ele>1452.0</ele>
        <time>2015-08-29T11:02:36Z</time>
      </trkpt>
      <trkpt lat="42.120322" lon="1.009048">
        <ele>1454.0</ele>
        <time>2015-08-29T11:02:37Z</time>
      </trkpt>
      <trkpt lat="42.120258" lon="1.008978">
        <ele>1455.0</ele>
        <time>2015-08-29T11:02:38Z</time>
      </trkpt>
      <trkpt lat="42.120207" lon="1.008883">
        <ele>1457.0</ele>
        <time>2015-08-29T11:02:39Z</time>
      </trkpt>
      <trkpt lat="42.120157" lon="1.008793">
        <ele>1458.0</ele>
        <time>2015-08-29T11:02:40Z</time>
      </trkpt>
      <trkpt lat="42.120103" lon="1.008717">
        <ele>1460.0</ele>
        <time>2015-08-29T11:02:41Z</time>
      </trkpt>
      <trkpt lat="42.120055" lon="1.008655">
        <ele>1463.0</ele>
        <time>2015-08-29T11:02:42Z</time>
      </trkpt>
      <trkpt lat="42.120008" lon="1.008607">
        <ele>1466.0</ele>
        <time>2015-08-29T11:02:43Z</time>
      </trkpt>
      <trkpt lat="42.119967" lon="1.008563">
        <ele>1470.0</ele>
        <time>2015-08-29T11:02:44Z</time>
      </trkpt>
      <trkpt lat="42.119932" lon="1.008515">
        <ele>1472.0</ele>
        <time>2015-08-29T11:02:45Z</time>
      </trkpt>
      <trkpt lat="42.119898" lon="1.008458">
        <ele>1475.0</ele>
        <time>2015-08-29T11:02:46Z</time>
      </trkpt>
      <trkpt lat="42.119855" lon="1.008400">
        <ele>1477.0</ele>
        <time>2015-08-29T11:02:47Z</time>
      </trkpt>
      <trkpt lat="42.119807" lon="1.008350">
        <ele>1479.0</ele>
        <time>2015-08-29T11:02:48Z</time>
      </trkpt>
      <trkpt lat="42.119760" lon="1.008315">
        <ele>1479.0</ele>
        <time>2015-08-29T11:02:49Z</time>
      </trkpt>
      <trkpt lat="42.119707" lon="1.008297">
        <ele>1481.0</ele>
        <time>2015-08-29T11:02:50Z</time>
      </trkpt>
      <trkpt lat="42.119662" lon="1.008262">
        <ele>1483.0</ele>
        <time>2015-08-29T11:02:51Z</time>
      </trkpt>
      <trkpt lat="42.119620" lon="1.008212">
        <ele>1485.0</ele>
        <time>2015-08-29T11:02:52Z</time>
      </trkpt>
      <trkpt lat="42.119573" lon="1.008155">
        <ele>1488.0</ele>
        <time>2015-08-29T11:02:53Z</time>
      </trkpt>
      <trkpt lat="42.119513" lon="1.008102">
        <ele>1490.0</ele>
        <time>2015-08-29T11:02:54Z</time>
      </trkpt>
      <trkpt lat="42.119450" lon="1.008047">
        <ele>1492.0</ele>
        <time>2015-08-29T11:02:55Z</time>
      </trkpt>
      <trkpt lat="42.119397" lon="1.007980">
        <ele>1493.0</ele>
        <time>2015-08-29T11:02:56Z</time>
      </trkpt>
      <trkpt lat="42.119350" lon="1.007898">
        <ele>1495.0</ele>
        <time>2015-08-29T11:02:57Z</time>
      </trkpt>
      <trkpt lat="42.119308" lon="1.007812">
        <ele>1496.0</ele>
        <time>2015-08-29T11:02:58Z</time>
      </trkpt>
      <trkpt lat="42.119280" lon="1.007717">
        <ele>1498.0</ele>
        <time>2015-08-29T11:02:59Z</time>
      </trkpt>
      <trkpt lat="42.119263" lon="1.007615">
        <ele>1500.0</ele>
        <time>2015-08-29T11:03:00Z</time>
      </trkpt>
      <trkpt lat="42.119258" lon="1.007505">
        <ele>1501.0</ele>
        <time>2015-08-29T11:03:01Z</time>
      </trkpt>
      <trkpt lat="42.119258" lon="1.007388">
        <ele>1503.0</ele>
        <time>2015-08-29T11:03:02Z</time>
      </trkpt>
      <trkpt lat="42.119258" lon="1.007265">
        <ele>1505.0</ele>
        <time>2015-08-29T11:03:03Z</time>
      </trkpt>
      <trkpt lat="42.119263" lon="1.007135">
        <ele>1506.0</ele>
        <time>2015-08-29T11:03:04Z</time>
      </trkpt>
      <trkpt lat="42.119280" lon="1.006997">
        <ele>1508.0</ele>
        <time>2015-08-29T11:03:05Z</time>
      </trkpt>
      <trkpt lat="42.119313" lon="1.006855">
        <ele>1508.0</ele>
        <time>2015-08-29T11:03:06Z</time>
      </trkpt>
      <trkpt lat="42.119360" lon="1.006750">
        <ele>1510.0</ele>
        <time>2015-08-29T11:03:07Z</time>
      </trkpt>
      <trkpt lat="42.119418" lon="1.006663">
        <ele>1511.0</ele>
        <time>2015-08-29T11:03:08Z</time>
      </trkpt>
      <trkpt lat="42.119485" lon="1.006568">
        <ele>1512.0</ele>
        <time>2015-08-29T11:03:09Z</time>
      </trkpt>
      <trkpt lat="42.119557" lon="1.006507">
        <ele>1514.0</ele>
        <time>2015-08-29T11:03:10Z</time>
      </trkpt>
      <trkpt lat="42.119648" lon="1.006448">
        <ele>1515.0</ele>
        <time>2015-08-29T11:03:11Z</time>
      </trkpt>
      <trkpt lat="42.119752" lon="1.006408">
        <ele>1515.0</ele>
        <time>2015-08-29T11:03:12Z</time>
      </trkpt>
      <trkpt lat="42.119848" lon="1.006385">
        <ele>1516.0</ele>
        <time>2015-08-29T11:03:13Z</time>
      </trkpt>
      <trkpt lat="42.119937" lon="1.006388">
        <ele>1516.0</ele>
        <time>2015-08-29T11:03:14Z</time>
      </trkpt>
      <trkpt lat="42.120025" lon="1.006415">
        <ele>1517.0</ele>
        <time>2015-08-29T11:03:15Z</time>
      </trkpt>
      <trkpt lat="42.120102" lon="1.006468">
        <ele>1518.0</ele>
        <time>2015-08-29T11:03:16Z</time>
      </trkpt>
      <trkpt lat="42.120168" lon="1.006538">
        <ele>1520.0</ele>
        <time>2015-08-29T11:03:17Z</time>
      </trkpt>
      <trkpt lat="42.120223" lon="1.006620">
        <ele>1521.0</ele>
        <time>2015-08-29T11:03:18Z</time>
      </trkpt>
      <trkpt lat="42.120245" lon="1.006702">
        <ele>1522.0</ele>
        <time>2015-08-29T11:03:19Z</time>
      </trkpt>
      <trkpt lat="42.120267" lon="1.006772">
        <ele>1524.0</ele>
        <time>2015-08-29T11:03:20Z</time>
      </trkpt>
      <trkpt lat="42.120290" lon="1.006842">
        <ele>1525.0</ele>
        <time>2015-08-29T11:03:21Z</time>
      </trkpt>
      <trkpt lat="42.120313" lon="1.006920">
        <ele>1526.0</ele>
        <time>2015-08-29T11:03:22Z</time>
      </trkpt>
      <trkpt lat="42.120340" lon="1.007008">
        <ele>1527.0</ele>
        <time>2015-08-29T11:03:23Z</time>
      </trkpt>
      <trkpt lat="42.120367" lon="1.007097">
        <ele>1529.0</ele>
        <time>2015-08-29T11:03:24Z</time>
      </trkpt>
      <trkpt lat="42.120387" lon="1.007180">
        <ele>1531.0</ele>
        <time>2015-08-29T11:03:25Z</time>
      </trkpt>
      <trkpt lat="42.120405" lon="1.007253">
        <ele>1532.0</ele>
        <time>2015-08-29T11:03:26Z</time>
      </trkpt>
      <trkpt lat="42.120417" lon="1.007308">
        <ele>1535.0</ele>
        <time>2015-08-29T11:03:27Z</time>
      </trkpt>
      <trkpt lat="42.120438" lon="1.007373">
        <ele>1537.0</ele>
        <time>2015-08-29T11:03:28Z</time>
      </trkpt>
      <trkpt lat="42.120465" lon="1.007443">
        <ele>1538.0</ele>
        <time>2015-08-29T11:03:29Z</time>
      </trkpt>
      <trkpt lat="42.120485" lon="1.007505">
        <ele>1540.0</ele>
        <time>2015-08-29T11:03:30Z</time>
      </trkpt>
      <trkpt lat="42.120495" lon="1.007568">
        <ele>1541.0</ele>
        <time>2015-08-29T11:03:31Z</time>
      </trkpt>
      <trkpt lat="42.120490" lon="1.007625">
        <ele>1542.0</ele>
        <time>2015-08-29T11:03:32Z</time>
      </trkpt>
      <trkpt lat="42.120455" lon="1.007700">
        <ele>1545.0</ele>
        <time>2015-08-29T11:03:34Z</time>
      </trkpt>
      <trkpt lat="42.120398" lon="1.007750">
        <ele>1548.0</ele>
        <time>2015-08-29T11:03:36Z</time>
      </trkpt>
      <trkpt lat="42.120365" lon="1.007798">
        <ele>1549.0</ele>
        <time>2015-08-29T11:03:37Z</time>
      </trkpt>
      <trkpt lat="42.120325" lon="1.007837">
        <ele>1550.0</ele>
        <time>2015-08-29T11:03:38Z</time>
      </trkpt>
      <trkpt lat="42.120282" lon="1.007867">
        <ele>1552.0</ele>
        <time>2015-08-29T11:03:39Z</time>
      </trkpt>
      <trkpt lat="42.120228" lon="1.007883">
        <ele>1553.0</ele>
        <time>2015-08-29T11:03:40Z</time>
      </trkpt>
      <trkpt lat="42.120173" lon="1.007888">
        <ele>1555.0</ele>
        <time>2015-08-29T11:03:41Z</time>
      </trkpt>
      <trkpt lat="42.120130" lon="1.007870">
        <ele>1556.0</ele>
        <time>2015-08-29T11:03:42Z</time>
      </trkpt>
      <trkpt lat="42.120075" lon="1.007863">
        <ele>1557.0</ele>
        <time>2015-08-29T11:03:43Z</time>
      </trkpt>
      <trkpt lat="42.120018" lon="1.007840">
        <ele>1558.0</ele>
        <time>2015-08-29T11:03:44Z</time>
      </trkpt>
      <trkpt lat="42.119948" lon="1.007797">
        <ele>1559.0</ele>
        <time>2015-08-29T11:03:45Z</time>
      </trkpt>
      <trkpt lat="42.119883" lon="1.007732">
        <ele>1560.0</ele>
        <time>2015-08-29T11:03:46Z</time>
      </trkpt>
      <trkpt lat="42.119827" lon="1.007657">
        <ele>1560.0</ele>
        <time>2015-08-29T11:03:47Z</time>
      </trkpt>
      <trkpt lat="42.119770" lon="1.007573">
        <ele>1561.0</ele>
        <time>2015-08-29T11:03:48Z</time>
      </trkpt>
      <trkpt lat="42.119717" lon="1.007493">
        <ele>1561.0</ele>
        <time>2015-08-29T11:03:49Z</time>
      </trkpt>
      <trkpt lat="42.119675" lon="1.007408">
        <ele>1562.0</ele>
        <time>2015-08-29T11:03:50Z</time>
      </trkpt>
      <trkpt lat="42.119645" lon="1.007295">
        <ele>1563.0</ele>
        <time>2015-08-29T11:03:51Z</time>
      </trkpt>
      <trkpt lat="42.119632" lon="1.007187">
        <ele>1565.0</ele>
        <time>2015-08-29T11:03:52Z</time>
      </trkpt>
      <trkpt lat="42.119623" lon="1.007075">
        <ele>1566.0</ele>
        <time>2015-08-29T11:03:53Z</time>
      </trkpt>
      <trkpt lat="42.119612" lon="1.006967">
        <ele>1568.0</ele>
        <time>2015-08-29T11:03:54Z</time>
      </trkpt>
      <trkpt lat="42.119592" lon="1.006857">
        <ele>1570.0</ele>
        <time>2015-08-29T11:03:55Z</time>
      </trkpt>
      <trkpt lat="42.119573" lon="1.006750">
        <ele>1572.0</ele>
        <time>2015-08-29T11:03:56Z</time>
      </trkpt>
      <trkpt lat="42.119560" lon="1.006642">
        <ele>1573.0</ele>
        <time>2015-08-29T11:03:57Z</time>
      </trkpt>
      <trkpt lat="42.119552" lon="1.006527">
        <ele>1573.0</ele>
        <time>2015-08-29T11:03:58Z</time>
      </trkpt>
      <trkpt lat="42.119542" lon="1.006405">
        <ele>1574.0</ele>
        <time>2015-08-29T11:03:59Z</time>
      </trkpt>
      <trkpt lat="42.119530" lon="1.006275">
        <ele>1575.0</ele>
        <time>2015-08-29T11:04:00Z</time>
      </trkpt>
      <trkpt lat="42.119518" lon="1.006152">
        <ele>1577.0</ele>
        <time>2015-08-29T11:04:01Z</time>
      </trkpt>
      <trkpt lat="42.119523" lon="1.006010">
        <ele>1578.0</ele>
        <time>2015-08-29T11:04:02Z</time>
      </trkpt>
      <trkpt lat="42.119550" lon="1.005872">
        <ele>1578.0</ele>
        <time>2015-08-29T11:04:03Z</time>
      </trkpt>
      <trkpt lat="42.119587" lon="1.005745">
        <ele>1578.0</ele>
        <time>2015-08-29T11:04:04Z</time>
      </trkpt>
      <trkpt lat="42.119647" lon="1.005623">
        <ele>1577.0</ele>
        <time>2015-08-29T11:04:05Z</time>
      </trkpt>
      <trkpt lat="42.119713" lon="1.005510">
        <ele>1577.0</ele>
        <time>2015-08-29T11:04:06Z</time>
      </trkpt>
      <trkpt lat="42.119792" lon="1.005382">
        <ele>1578.0</ele>
        <time>2015-08-29T11:04:07Z</time>
      </trkpt>
      <trkpt lat="42.119860" lon="1.005267">
        <ele>1579.0</ele>
        <time>2015-08-29T11:04:08Z</time>
      </trkpt>
      <trkpt lat="42.119910" lon="1.005183">
        <ele>1580.0</ele>
        <time>2015-08-29T11:04:09Z</time>
      </trkpt>
      <trkpt lat="42.119948" lon="1.005123">
        <ele>1581.0</ele>
        <time>2015-08-29T11:04:10Z</time>
      </trkpt>
      <trkpt lat="42.119983" lon="1.005075">
        <ele>1581.0</ele>
        <time>2015-08-29T11:04:11Z</time>
      </trkpt>
      <trkpt lat="42.120032" lon="1.005005">
        <ele>1581.0</ele>
        <time>2015-08-29T11:04:12Z</time>
      </trkpt>
      <trkpt lat="42.120098" lon="1.004907">
        <ele>1580.0</ele>
        <time>2015-08-29T11:04:13Z</time>
      </trkpt>
      <trkpt lat="42.120178" lon="1.004812">
        <ele>1580.0</ele>
        <time>2015-08-29T11:04:14Z</time>
      </trkpt>
      <trkpt lat="42.120265" lon="1.004747">
        <ele>1580.0</ele>
        <time>2015-08-29T11:04:15Z</time>
      </trkpt>
      <trkpt lat="42.120353" lon="1.004698">
        <ele>1581.0</ele>
        <time>2015-08-29T11:04:16Z</time>
      </trkpt>
      <trkpt lat="42.120437" lon="1.004657">
        <ele>1581.0</ele>
        <time>2015-08-29T11:04:17Z</time>
      </trkpt>
      <trkpt lat="42.120517" lon="1.004625">
        <ele>1582.0</ele>
        <time>2015-08-29T11:04:18Z</time>
      </trkpt>
      <trkpt lat="42.120608" lon="1.004630">
        <ele>1583.0</ele>
        <time>2015-08-29T11:04:19Z</time>
      </trkpt>
      <trkpt lat="42.120692" lon="1.004653">
        <ele>1584.0</ele>
        <time>2015-08-29T11:04:20Z</time>
      </trkpt>
      <trkpt lat="42.120765" lon="1.004697">
        <ele>1585.0</ele>
        <time>2015-08-29T11:04:21Z</time>
      </trkpt>
      <trkpt lat="42.120830" lon="1.004743">
        <ele>1586.0</ele>
        <time>2015-08-29T11:04:22Z</time>
      </trkpt>
      <trkpt lat="42.120892" lon="1.004787">
        <ele>1588.0</ele>
        <time>2015-08-29T11:04:23Z</time>
      </trkpt>
      <trkpt lat="42.120952" lon="1.004832">
        <ele>1589.0</ele>
        <time>2015-08-29T11:04:24Z</time>
      </trkpt>
      <trkpt lat="42.121010" lon="1.004890">
        <ele>1587.0</ele>
        <time>2015-08-29T11:04:25Z</time>
      </trkpt>
      <trkpt lat="42.121053" lon="1.004957">
        <ele>1588.0</ele>
        <time>2015-08-29T11:04:26Z</time>
      </trkpt>
      <trkpt lat="42.121080" lon="1.005033">
        <ele>1588.0</ele>
        <time>2015-08-29T11:04:27Z</time>
      </trkpt>
      <trkpt lat="42.121095" lon="1.005123">
        <ele>1588.0</ele>
        <time>2015-08-29T11:04:28Z</time>
      </trkpt>
      <trkpt lat="42.121095" lon="1.005205">
        <ele>1589.0</ele>
        <time>2015-08-29T11:04:29Z</time>
      </trkpt>
      <trkpt lat="42.121088" lon="1.005285">
        <ele>1590.0</ele>
        <time>2015-08-29T11:04:30Z</time>
      </trkpt>
      <trkpt lat="42.121078" lon="1.005362">
        <ele>1591.0</ele>
        <time>2015-08-29T11:04:31Z</time>
      </trkpt>
      <trkpt lat="42.121067" lon="1.005433">
        <ele>1592.0</ele>
        <time>2015-08-29T11:04:32Z</time>
      </trkpt>
      <trkpt lat="42.121055" lon="1.005497">
        <ele>1593.0</ele>
        <time>2015-08-29T11:04:33Z</time>
      </trkpt>
      <trkpt lat="42.121035" lon="1.005557">
        <ele>1594.0</ele>
        <time>2015-08-29T11:04:34Z</time>
      </trkpt>
      <trkpt lat="42.121007" lon="1.005617">
        <ele>1595.0</ele>
        <time>2015-08-29T11:04:35Z</time>
      </trkpt>
      <trkpt lat="42.120990" lon="1.005693">
        <ele>1596.0</ele>
        <time>2015-08-29T11:04:36Z</time>
      </trkpt>
      <trkpt lat="42.120980" lon="1.005765">
        <ele>1597.0</ele>
        <time>2015-08-29T11:04:37Z</time>
      </trkpt>
      <trkpt lat="42.120967" lon="1.005813">
        <ele>1597.0</ele>
        <time>2015-08-29T11:04:38Z</time>
      </trkpt>
      <trkpt lat="42.120918" lon="1.005868">
        <ele>1599.0</ele>
        <time>2015-08-29T11:04:40Z</time>
      </trkpt>
      <trkpt lat="42.120878" lon="1.005888">
        <ele>1600.0</ele>
        <time>2015-08-29T11:04:41Z</time>
      </trkpt>
      <trkpt lat="42.120842" lon="1.005935">
        <ele>1600.0</ele>
        <time>2015-08-29T11:04:42Z</time>
      </trkpt>
      <trkpt lat="42.120803" lon="1.005965">
        <ele>1600.0</ele>
        <time>2015-08-29T11:04:43Z</time>
      </trkpt>
      <trkpt lat="42.120767" lon="1.005978">
        <ele>1601.0</ele>
        <time>2015-08-29T11:04:44Z</time>
      </trkpt>
      <trkpt lat="42.120730" lon="1.005957">
        <ele>1602.0</ele>
        <time>2015-08-29T11:04:45Z</time>
      </trkpt>
      <trkpt lat="42.120687" lon="1.005922">
        <ele>1603.0</ele>
        <time>2015-08-29T11:04:46Z</time>
      </trkpt>
      <trkpt lat="42.120637" lon="1.005885">
        <ele>1604.0</ele>
        <time>2015-08-29T11:04:47Z</time>
      </trkpt>
      <trkpt lat="42.120582" lon="1.005843">
        <ele>1604.0</ele>
        <time>2015-08-29T11:04:48Z</time>
      </trkpt>
      <trkpt lat="42.120530" lon="1.005788">
        <ele>1606.0</ele>
        <time>2015-08-29T11:04:49Z</time>
      </trkpt>
      <trkpt lat="42.120480" lon="1.005708">
        <ele>1606.0</ele>
        <time>2015-08-29T11:04:50Z</time>
      </trkpt>
      <trkpt lat="42.120437" lon="1.005613">
        <ele>1607.0</ele>
        <time>2015-08-29T11:04:51Z</time>
      </trkpt>
      <trkpt lat="42.120397" lon="1.005515">
        <ele>1608.0</ele>
        <time>2015-08-29T11:04:52Z</time>
      </trkpt>
      <trkpt lat="42.120362" lon="1.005417">
        <ele>1608.0</ele>
        <time>2015-08-29T11:04:53Z</time>
      </trkpt>
      <trkpt lat="42.120347" lon="1.005327">
        <ele>1608.0</ele>
        <time>2015-08-29T11:04:54Z</time>
      </trkpt>
      <trkpt lat="42.120342" lon="1.005237">
        <ele>1608.0</ele>
        <time>2015-08-29T11:04:55Z</time>
      </trkpt>
      <trkpt lat="42.120343" lon="1.005148">
        <ele>1608.0</ele>
        <time>2015-08-29T11:04:56Z</time>
      </trkpt>
      <trkpt lat="42.120355" lon="1.005052">
        <ele>1608.0</ele>
        <time>2015-08-29T11:04:57Z</time>
      </trkpt>
      <trkpt lat="42.120377" lon="1.004940">
        <ele>1608.0</ele>
        <time>2015-08-29T11:04:58Z</time>
      </trkpt>
      <trkpt lat="42.120412" lon="1.004805">
        <ele>1607.0</ele>
        <time>2015-08-29T11:04:59Z</time>
      </trkpt>
      <trkpt lat="42.120453" lon="1.004673">
        <ele>1606.0</ele>
        <time>2015-08-29T11:05:00Z</time>
      </trkpt>
      <trkpt lat="42.120497" lon="1.004550">
        <ele>1606.0</ele>
        <time>2015-08-29T11:05:01Z</time>
      </trkpt>
      <trkpt lat="42.120555" lon="1.004427">
        <ele>1605.0</ele>
        <time>2015-08-29T11:05:02Z</time>
      </trkpt>
      <trkpt lat="42.120627" lon="1.004317">
        <ele>1603.0</ele>
        <time>2015-08-29T11:05:03Z</time>
      </trkpt>
      <trkpt lat="42.120715" lon="1.004212">
        <ele>1602.0</ele>
        <time>2015-08-29T11:05:04Z</time>
      </trkpt>
      <trkpt lat="42.120815" lon="1.004108">
        <ele>1602.0</ele>
        <time>2015-08-29T11:05:05Z</time>
      </trkpt>
      <trkpt lat="42.120912" lon="1.004002">
        <ele>1602.0</ele>
        <time>2015-08-29T11:05:06Z</time>
      </trkpt>
      <trkpt lat="42.120997" lon="1.003892">
        <ele>1601.0</ele>
        <time>2015-08-29T11:05:07Z</time>
      </trkpt>
      <trkpt lat="42.121072" lon="1.003788">
        <ele>1601.0</ele>
        <time>2015-08-29T11:05:08Z</time>
      </trkpt>
      <trkpt lat="42.121153" lon="1.003680">
        <ele>1600.0</ele>
        <time>2015-08-29T11:05:09Z</time>
      </trkpt>
      <trkpt lat="42.121257" lon="1.003552">
        <ele>1598.0</ele>
        <time>2015-08-29T11:05:10Z</time>
      </trkpt>
      <trkpt lat="42.121370" lon="1.003425">
        <ele>1597.0</ele>
        <time>2015-08-29T11:05:11Z</time>
      </trkpt>
      <trkpt lat="42.121477" lon="1.003310">
        <ele>1597.0</ele>
        <time>2015-08-29T11:05:12Z</time>
      </trkpt>
      <trkpt lat="42.121572" lon="1.003203">
        <ele>1598.0</ele>
        <time>2015-08-29T11:05:13Z</time>
      </trkpt>
      <trkpt lat="42.121662" lon="1.003103">
        <ele>1600.0</ele>
        <time>2015-08-29T11:05:14Z</time>
      </trkpt>
      <trkpt lat="42.121750" lon="1.003023">
        <ele>1601.0</ele>
        <time>2015-08-29T11:05:15Z</time>
      </trkpt>
      <trkpt lat="42.121842" lon="1.002952">
        <ele>1602.0</ele>
        <time>2015-08-29T11:05:16Z</time>
      </trkpt>
      <trkpt lat="42.121930" lon="1.002892">
        <ele>1601.0</ele>
        <time>2015-08-29T11:05:17Z</time>
      </trkpt>
      <trkpt lat="42.122022" lon="1.002825">
        <ele>1602.0</ele>
        <time>2015-08-29T11:05:18Z</time>
      </trkpt>
      <trkpt lat="42.122117" lon="1.002748">
        <ele>1602.0</ele>
        <time>2015-08-29T11:05:19Z</time>
      </trkpt>
      <trkpt lat="42.122212" lon="1.002668">
        <ele>1603.0</ele>
        <time>2015-08-29T11:05:20Z</time>
      </trkpt>
      <trkpt lat="42.122300" lon="1.002590">
        <ele>1605.0</ele>
        <time>2015-08-29T11:05:21Z</time>
      </trkpt>
      <trkpt lat="42.122390" lon="1.002505">
        <ele>1606.0</ele>
        <time>2015-08-29T11:05:22Z</time>
      </trkpt>
      <trkpt lat="42.122480" lon="1.002420">
        <ele>1607.0</ele>
        <time>2015-08-29T11:05:23Z</time>
      </trkpt>
      <trkpt lat="42.122565" lon="1.002345">
        <ele>1608.0</ele>
        <time>2015-08-29T11:05:24Z</time>
      </trkpt>
      <trkpt lat="42.122650" lon="1.002280">
        <ele>1609.0</ele>
        <time>2015-08-29T11:05:25Z</time>
      </trkpt>
      <trkpt lat="42.122743" lon="1.002212">
        <ele>1610.0</ele>
        <time>2015-08-29T11:05:26Z</time>
      </trkpt>
      <trkpt lat="42.122850" lon="1.002125">
        <ele>1611.0</ele>
        <time>2015-08-29T11:05:27Z</time>
      </trkpt>
      <trkpt lat="42.122955" lon="1.002043">
        <ele>1612.0</ele>
        <time>2015-08-29T11:05:28Z</time>
      </trkpt>
      <trkpt lat="42.123057" lon="1.001972">
        <ele>1613.0</ele>
        <time>2015-08-29T11:05:29Z</time>
      </trkpt>
      <trkpt lat="42.123153" lon="1.001905">
        <ele>1613.0</ele>
        <time>2015-08-29T11:05:30Z</time>
      </trkpt>
      <trkpt lat="42.123257" lon="1.001835">
        <ele>1614.0</ele>
        <time>2015-08-29T11:05:31Z</time>
      </trkpt>
      <trkpt lat="42.123362" lon="1.001757">
        <ele>1614.0</ele>
        <time>2015-08-29T11:05:32Z</time>
      </trkpt>
      <trkpt lat="42.123462" lon="1.001683">
        <ele>1612.0</ele>
        <time>2015-08-29T11:05:33Z</time>
      </trkpt>
      <trkpt lat="42.123567" lon="1.001615">
        <ele>1612.0</ele>
        <time>2015-08-29T11:05:34Z</time>
      </trkpt>
      <trkpt lat="42.123673" lon="1.001563">
        <ele>1612.0</ele>
        <time>2015-08-29T11:05:35Z</time>
      </trkpt>
      <trkpt lat="42.123775" lon="1.001532">
        <ele>1613.0</ele>
        <time>2015-08-29T11:05:36Z</time>
      </trkpt>
      <trkpt lat="42.123873" lon="1.001510">
        <ele>1614.0</ele>
        <time>2015-08-29T11:05:37Z</time>
      </trkpt>
      <trkpt lat="42.123972" lon="1.001492">
        <ele>1614.0</ele>
        <time>2015-08-29T11:05:38Z</time>
      </trkpt>
      <trkpt lat="42.124070" lon="1.001482">
        <ele>1615.0</ele>
        <time>2015-08-29T11:05:39Z</time>
      </trkpt>
      <trkpt lat="42.124167" lon="1.001485">
        <ele>1616.0</ele>
        <time>2015-08-29T11:05:40Z</time>
      </trkpt>
      <trkpt lat="42.124255" lon="1.001502">
        <ele>1617.0</ele>
        <time>2015-08-29T11:05:41Z</time>
      </trkpt>
      <trkpt lat="42.124320" lon="1.001525">
        <ele>1618.0</ele>
        <time>2015-08-29T11:05:42Z</time>
      </trkpt>
      <trkpt lat="42.124383" lon="1.001553">
        <ele>1619.0</ele>
        <time>2015-08-29T11:05:43Z</time>
      </trkpt>
      <trkpt lat="42.124455" lon="1.001590">
        <ele>1618.0</ele>
        <time>2015-08-29T11:05:44Z</time>
      </trkpt>
      <trkpt lat="42.124527" lon="1.001632">
        <ele>1618.0</ele>
        <time>2015-08-29T11:05:45Z</time>
      </trkpt>
      <trkpt lat="42.124582" lon="1.001678">
        <ele>1619.0</ele>
        <time>2015-08-29T11:05:46Z</time>
      </trkpt>
      <trkpt lat="42.124627" lon="1.001727">
        <ele>1620.0</ele>
        <time>2015-08-29T11:05:47Z</time>
      </trkpt>
      <trkpt lat="42.124673" lon="1.001777">
        <ele>1621.0</ele>
        <time>2015-08-29T11:05:48Z</time>
      </trkpt>
      <trkpt lat="42.124723" lon="1.001828">
        <ele>1622.0</ele>
        <time>2015-08-29T11:05:49Z</time>
      </trkpt>
      <trkpt lat="42.124775" lon="1.001882">
        <ele>1623.0</ele>
        <time>2015-08-29T11:05:50Z</time>
      </trkpt>
      <trkpt lat="42.124825" lon="1.001938">
        <ele>1625.0</ele>
        <time>2015-08-29T11:05:51Z</time>
      </trkpt>
      <trkpt lat="42.124863" lon="1.001992">
        <ele>1626.0</ele>
        <time>2015-08-29T11:05:52Z</time>
      </trkpt>
      <trkpt lat="42.124897" lon="1.002040">
        <ele>1627.0</ele>
        <time>2015-08-29T11:05:53Z</time>
      </trkpt>
      <trkpt lat="42.124927" lon="1.002082">
        <ele>1627.0</ele>
        <time>2015-08-29T11:05:54Z</time>
      </trkpt>
      <trkpt lat="42.124955" lon="1.002120">
        <ele>1627.0</ele>
        <time>2015-08-29T11:05:55Z</time>
      </trkpt>
      <trkpt lat="42.124982" lon="1.002163">
        <ele>1627.0</ele>
        <time>2015-08-29T11:05:56Z</time>
      </trkpt>
      <trkpt lat="42.125002" lon="1.002215">
        <ele>1627.0</ele>
        <time>2015-08-29T11:05:57Z</time>
      </trkpt>
      <trkpt lat="42.125013" lon="1.002278">
        <ele>1627.0</ele>
        <time>2015-08-29T11:05:58Z</time>
      </trkpt>
      <trkpt lat="42.125008" lon="1.002335">
        <ele>1629.0</ele>
        <time>2015-08-29T11:05:59Z</time>
      </trkpt>
      <trkpt lat="42.124997" lon="1.002382">
        <ele>1632.0</ele>
        <time>2015-08-29T11:06:00Z</time>
      </trkpt>
      <trkpt lat="42.124997" lon="1.002442">
        <ele>1632.0</ele>
        <time>2015-08-29T11:06:01Z</time>
      </trkpt>
      <trkpt lat="42.124982" lon="1.002498">
        <ele>1631.0</ele>
        <time>2015-08-29T11:06:02Z</time>
      </trkpt>
      <trkpt lat="42.124962" lon="1.002545">
        <ele>1630.0</ele>
        <time>2015-08-29T11:06:03Z</time>
      </trkpt>
      <trkpt lat="42.124930" lon="1.002580">
        <ele>1630.0</ele>
        <time>2015-08-29T11:06:04Z</time>
      </trkpt>
      <trkpt lat="42.124898" lon="1.002605">
        <ele>1630.0</ele>
        <time>2015-08-29T11:06:05Z</time>
      </trkpt>
      <trkpt lat="42.124862" lon="1.002628">
        <ele>1629.0</ele>
        <time>2015-08-29T11:06:06Z</time>
      </trkpt>
      <trkpt lat="42.124825" lon="1.002633">
        <ele>1629.0</ele>
        <time>2015-08-29T11:06:07Z</time>
      </trkpt>
      <trkpt lat="42.124787" lon="1.002617">
        <ele>1629.0</ele>
        <time>2015-08-29T11:06:08Z</time>
      </trkpt>
      <trkpt lat="42.124748" lon="1.002585">
        <ele>1629.0</ele>
        <time>2015-08-29T11:06:09Z</time>
      </trkpt>
      <trkpt lat="42.124700" lon="1.002527">
        <ele>1628.0</ele>
        <time>2015-08-29T11:06:10Z</time>
      </trkpt>
      <trkpt lat="42.124642" lon="1.002482">
        <ele>1627.0</ele>
        <time>2015-08-29T11:06:11Z</time>
      </trkpt>
      <trkpt lat="42.124580" lon="1.002427">
        <ele>1627.0</ele>
        <time>2015-08-29T11:06:12Z</time>
      </trkpt>
      <trkpt lat="42.124525" lon="1.002350">
        <ele>1627.0</ele>
        <time>2015-08-29T11:06:13Z</time>
      </trkpt>
      <trkpt lat="42.124478" lon="1.002253">
        <ele>1626.0</ele>
        <time>2015-08-29T11:06:14Z</time>
      </trkpt>
      <trkpt lat="42.124443" lon="1.002153">
        <ele>1626.0</ele>
        <time>2015-08-29T11:06:15Z</time>
      </trkpt>
      <trkpt lat="42.124417" lon="1.002062">
        <ele>1625.0</ele>
        <time>2015-08-29T11:06:16Z</time>
      </trkpt>
      <trkpt lat="42.124392" lon="1.001960">
        <ele>1624.0</ele>
        <time>2015-08-29T11:06:17Z</time>
      </trkpt>
      <trkpt lat="42.124372" lon="1.001817">
        <ele>1623.0</ele>
        <time>2015-08-29T11:06:18Z</time>
      </trkpt>
      <trkpt lat="42.124353" lon="1.001667">
        <ele>1621.0</ele>
        <time>2015-08-29T11:06:19Z</time>
      </trkpt>
      <trkpt lat="42.124348" lon="1.001522">
        <ele>1619.0</ele>
        <time>2015-08-29T11:06:20Z</time>
      </trkpt>
      <trkpt lat="42.124368" lon="1.001392">
        <ele>1618.0</ele>
        <time>2015-08-29T11:06:21Z</time>
      </trkpt>
      <trkpt lat="42.124415" lon="1.001258">
        <ele>1617.0</ele>
        <time>2015-08-29T11:06:22Z</time>
      </trkpt>
      <trkpt lat="42.124483" lon="1.001122">
        <ele>1617.0</ele>
        <time>2015-08-29T11:06:23Z</time>
      </trkpt>
      <trkpt lat="42.124550" lon="1.001015">
        <ele>1616.0</ele>
        <time>2015-08-29T11:06:24Z</time>
      </trkpt>
      <trkpt lat="42.124623" lon="1.000908">
        <ele>1615.0</ele>
        <time>2015-08-29T11:06:25Z</time>
      </trkpt>
      <trkpt lat="42.124703" lon="1.000803">
        <ele>1613.0</ele>
        <time>2015-08-29T11:06:26Z</time>
      </trkpt>
      <trkpt lat="42.124792" lon="1.000695">
        <ele>1612.0</ele>
        <time>2015-08-29T11:06:27Z</time>
      </trkpt>
      <trkpt lat="42.124885" lon="1.000590">
        <ele>1611.0</ele>
        <time>2015-08-29T11:06:28Z</time>
      </trkpt>
      <trkpt lat="42.124983" lon="1.000492">
        <ele>1611.0</ele>
        <time>2015-08-29T11:06:29Z</time>
      </trkpt>
      <trkpt lat="42.125083" lon="1.000412">
        <ele>1611.0</ele>
        <time>2015-08-29T11:06:30Z</time>
      </trkpt>
      <trkpt lat="42.125188" lon="1.000342">
        <ele>1611.0</ele>
        <time>2015-08-29T11:06:31Z</time>
      </trkpt>
      <trkpt lat="42.125295" lon="1.000278">
        <ele>1610.0</ele>
        <time>2015-08-29T11:06:32Z</time>
      </trkpt>
      <trkpt lat="42.125400" lon="1.000217">
        <ele>1610.0</ele>
        <time>2015-08-29T11:06:33Z</time>
      </trkpt>
      <trkpt lat="42.125515" lon="1.000152">
        <ele>1610.0</ele>
        <time>2015-08-29T11:06:34Z</time>
      </trkpt>
      <trkpt lat="42.125635" lon="1.000085">
        <ele>1609.0</ele>
        <time>2015-08-29T11:06:35Z</time>
      </trkpt>
      <trkpt lat="42.125755" lon="1.000025">
        <ele>1608.0</ele>
        <time>2015-08-29T11:06:36Z</time>
      </trkpt>
      <trkpt lat="42.125872" lon="0.999970">
        <ele>1608.0</ele>
        <time>2015-08-29T11:06:37Z</time>
      </trkpt>
      <trkpt lat="42.125987" lon="0.999913">
        <ele>1608.0</ele>
        <time>2015-08-29T11:06:38Z</time>
      </trkpt>
      <trkpt lat="42.126097" lon="0.999863">
        <ele>1607.0</ele>
        <time>2015-08-29T11:06:39Z</time>
      </trkpt>
      <trkpt lat="42.126217" lon="0.999802">
        <ele>1608.0</ele>
        <time>2015-08-29T11:06:40Z</time>
      </trkpt>
      <trkpt lat="42.126332" lon="0.999750">
        <ele>1608.0</ele>
        <time>2015-08-29T11:06:41Z</time>
      </trkpt>
      <trkpt lat="42.126448" lon="0.999695">
        <ele>1610.0</ele>
        <time>2015-08-29T11:06:42Z</time>
      </trkpt>
      <trkpt lat="42.126563" lon="0.999638">
        <ele>1611.0</ele>
        <time>2015-08-29T11:06:43Z</time>
      </trkpt>
      <trkpt lat="42.126672" lon="0.999580">
        <ele>1613.0</ele>
        <time>2015-08-29T11:06:44Z</time>
      </trkpt>
      <trkpt lat="42.126778" lon="0.999518">
        <ele>1614.0</ele>
        <time>2015-08-29T11:06:45Z</time>
      </trkpt>
      <trkpt lat="42.126883" lon="0.999453">
        <ele>1614.0</ele>
        <time>2015-08-29T11:06:46Z</time>
      </trkpt>
      <trkpt lat="42.126993" lon="0.999378">
        <ele>1615.0</ele>
        <time>2015-08-29T11:06:47Z</time>
      </trkpt>
      <trkpt lat="42.127102" lon="0.999295">
        <ele>1616.0</ele>
        <time>2015-08-29T11:06:48Z</time>
      </trkpt>
      <trkpt lat="42.127198" lon="0.999212">
        <ele>1617.0</ele>
        <time>2015-08-29T11:06:49Z</time>
      </trkpt>
      <trkpt lat="42.127283" lon="0.999135">
        <ele>1618.0</ele>
        <time>2015-08-29T11:06:50Z</time>
      </trkpt>
      <trkpt lat="42.127383" lon="0.999052">
        <ele>1619.0</ele>
        <time>2015-08-29T11:06:51Z</time>
      </trkpt>
      <trkpt lat="42.127497" lon="0.998958">
        <ele>1619.0</ele>
        <time>2015-08-29T11:06:52Z</time>
      </trkpt>
      <trkpt lat="42.127608" lon="0.998872">
        <ele>1619.0</ele>
        <time>2015-08-29T11:06:53Z</time>
      </trkpt>
      <trkpt lat="42.127707" lon="0.998800">
        <ele>1620.0</ele>
        <time>2015-08-29T11:06:54Z</time>
      </trkpt>
      <trkpt lat="42.127810" lon="0.998722">
        <ele>1621.0</ele>
        <time>2015-08-29T11:06:55Z</time>
      </trkpt>
      <trkpt lat="42.127918" lon="0.998653">
        <ele>1622.0</ele>
        <time>2015-08-29T11:06:56Z</time>
      </trkpt>
      <trkpt lat="42.128025" lon="0.998598">
        <ele>1624.0</ele>
        <time>2015-08-29T11:06:57Z</time>
      </trkpt>
      <trkpt lat="42.128127" lon="0.998553">
        <ele>1626.0</ele>
        <time>2015-08-29T11:06:58Z</time>
      </trkpt>
      <trkpt lat="42.128227" lon="0.998507">
        <ele>1628.0</ele>
        <time>2015-08-29T11:06:59Z</time>
      </trkpt>
      <trkpt lat="42.128330" lon="0.998452">
        <ele>1630.0</ele>
        <time>2015-08-29T11:07:00Z</time>
      </trkpt>
      <trkpt lat="42.128437" lon="0.998398">
        <ele>1631.0</ele>
        <time>2015-08-29T11:07:01Z</time>
      </trkpt>
      <trkpt lat="42.128548" lon="0.998345">
        <ele>1633.0</ele>
        <time>2015-08-29T11:07:02Z</time>
      </trkpt>
      <trkpt lat="42.128662" lon="0.998295">
        <ele>1634.0</ele>
        <time>2015-08-29T11:07:03Z</time>
      </trkpt>
      <trkpt lat="42.128778" lon="0.998248">
        <ele>1636.0</ele>
        <time>2015-08-29T11:07:04Z</time>
      </trkpt>
      <trkpt lat="42.128900" lon="0.998205">
        <ele>1638.0</ele>
        <time>2015-08-29T11:07:05Z</time>
      </trkpt>
      <trkpt lat="42.129018" lon="0.998170">
        <ele>1640.0</ele>
        <time>2015-08-29T11:07:06Z</time>
      </trkpt>
      <trkpt lat="42.129132" lon="0.998133">
        <ele>1641.0</ele>
        <time>2015-08-29T11:07:07Z</time>
      </trkpt>
      <trkpt lat="42.129232" lon="0.998103">
        <ele>1643.0</ele>
        <time>2015-08-29T11:07:08Z</time>
      </trkpt>
      <trkpt lat="42.129348" lon="0.998048">
        <ele>1643.0</ele>
        <time>2015-08-29T11:07:09Z</time>
      </trkpt>
      <trkpt lat="42.129477" lon="0.997977">
        <ele>1643.0</ele>
        <time>2015-08-29T11:07:10Z</time>
      </trkpt>
      <trkpt lat="42.129597" lon="0.997915">
        <ele>1643.0</ele>
        <time>2015-08-29T11:07:11Z</time>
      </trkpt>
      <trkpt lat="42.129700" lon="0.997880">
        <ele>1643.0</ele>
        <time>2015-08-29T11:07:12Z</time>
      </trkpt>
      <trkpt lat="42.129793" lon="0.997873">
        <ele>1644.0</ele>
        <time>2015-08-29T11:07:13Z</time>
      </trkpt>
      <trkpt lat="42.129883" lon="0.997878">
        <ele>1644.0</ele>
        <time>2015-08-29T11:07:14Z</time>
      </trkpt>
      <trkpt lat="42.129985" lon="0.997905">
        <ele>1645.0</ele>
        <time>2015-08-29T11:07:15Z</time>
      </trkpt>
      <trkpt lat="42.130087" lon="0.997945">
        <ele>1646.0</ele>
        <time>2015-08-29T11:07:16Z</time>
      </trkpt>
      <trkpt lat="42.130180" lon="0.997987">
        <ele>1647.0</ele>
        <time>2015-08-29T11:07:17Z</time>
      </trkpt>
      <trkpt lat="42.130258" lon="0.998022">
        <ele>1648.0</ele>
        <time>2015-08-29T11:07:18Z</time>
      </trkpt>
      <trkpt lat="42.130327" lon="0.998055">
        <ele>1649.0</ele>
        <time>2015-08-29T11:07:19Z</time>
      </trkpt>
      <trkpt lat="42.130390" lon="0.998095">
        <ele>1649.0</ele>
        <time>2015-08-29T11:07:20Z</time>
      </trkpt>
      <trkpt lat="42.130458" lon="0.998147">
        <ele>1650.0</ele>
        <time>2015-08-29T11:07:21Z</time>
      </trkpt>
      <trkpt lat="42.130532" lon="0.998207">
        <ele>1651.0</ele>
        <time>2015-08-29T11:07:22Z</time>
      </trkpt>
      <trkpt lat="42.130605" lon="0.998268">
        <ele>1652.0</ele>
        <time>2015-08-29T11:07:23Z</time>
      </trkpt>
      <trkpt lat="42.130690" lon="0.998318">
        <ele>1653.0</ele>
        <time>2015-08-29T11:07:24Z</time>
      </trkpt>
      <trkpt lat="42.130757" lon="0.998352">
        <ele>1656.0</ele>
        <time>2015-08-29T11:07:25Z</time>
      </trkpt>
      <trkpt lat="42.130832" lon="0.998395">
        <ele>1657.0</ele>
        <time>2015-08-29T11:07:26Z</time>
      </trkpt>
      <trkpt lat="42.130905" lon="0.998437">
        <ele>1658.0</ele>
        <time>2015-08-29T11:07:27Z</time>
      </trkpt>
      <trkpt lat="42.130963" lon="0.998472">
        <ele>1658.0</ele>
        <time>2015-08-29T11:07:28Z</time>
      </trkpt>
      <trkpt lat="42.131003" lon="0.998502">
        <ele>1658.0</ele>
        <time>2015-08-29T11:07:29Z</time>
      </trkpt>
      <trkpt lat="42.131032" lon="0.998588">
        <ele>1659.0</ele>
        <time>2015-08-29T11:07:31Z</time>
      </trkpt>
      <trkpt lat="42.131035" lon="0.998665">
        <ele>1659.0</ele>
        <time>2015-08-29T11:07:32Z</time>
      </trkpt>
      <trkpt lat="42.131038" lon="0.998737">
        <ele>1660.0</ele>
        <time>2015-08-29T11:07:33Z</time>
      </trkpt>
      <trkpt lat="42.131043" lon="0.998797">
        <ele>1661.0</ele>
        <time>2015-08-29T11:07:34Z</time>
      </trkpt>
      <trkpt lat="42.131035" lon="0.998868">
        <ele>1662.0</ele>
        <time>2015-08-29T11:07:36Z</time>
      </trkpt>
      <trkpt lat="42.130992" lon="0.998898">
        <ele>1661.0</ele>
        <time>2015-08-29T11:07:38Z</time>
      </trkpt>
      <trkpt lat="42.130930" lon="0.998918">
        <ele>1660.0</ele>
        <time>2015-08-29T11:07:40Z</time>
      </trkpt>
      <trkpt lat="42.130897" lon="0.998900">
        <ele>1658.0</ele>
        <time>2015-08-29T11:07:41Z</time>
      </trkpt>
      <trkpt lat="42.130863" lon="0.998850">
        <ele>1657.0</ele>
        <time>2015-08-29T11:07:42Z</time>
      </trkpt>
      <trkpt lat="42.130830" lon="0.998782">
        <ele>1657.0</ele>
        <time>2015-08-29T11:07:43Z</time>
      </trkpt>
      <trkpt lat="42.130810" lon="0.998688">
        <ele>1656.0</ele>
        <time>2015-08-29T11:07:44Z</time>
      </trkpt>
      <trkpt lat="42.130793" lon="0.998595">
        <ele>1656.0</ele>
        <time>2015-08-29T11:07:45Z</time>
      </trkpt>
      <trkpt lat="42.130783" lon="0.998505">
        <ele>1655.0</ele>
        <time>2015-08-29T11:07:46Z</time>
      </trkpt>
      <trkpt lat="42.130777" lon="0.998415">
        <ele>1654.0</ele>
        <time>2015-08-29T11:07:47Z</time>
      </trkpt>
      <trkpt lat="42.130770" lon="0.998322">
        <ele>1653.0</ele>
        <time>2015-08-29T11:07:48Z</time>
      </trkpt>
      <trkpt lat="42.130763" lon="0.998215">
        <ele>1653.0</ele>
        <time>2015-08-29T11:07:49Z</time>
      </trkpt>
      <trkpt lat="42.130767" lon="0.998078">
        <ele>1653.0</ele>
        <time>2015-08-29T11:07:50Z</time>
      </trkpt>
      <trkpt lat="42.130783" lon="0.997923">
        <ele>1652.0</ele>
        <time>2015-08-29T11:07:51Z</time>
      </trkpt>
      <trkpt lat="42.130822" lon="0.997757">
        <ele>1653.0</ele>
        <time>2015-08-29T11:07:52Z</time>
      </trkpt>
      <trkpt lat="42.130872" lon="0.997603">
        <ele>1653.0</ele>
        <time>2015-08-29T11:07:53Z</time>
      </trkpt>
      <trkpt lat="42.130935" lon="0.997462">
        <ele>1654.0</ele>
        <time>2015-08-29T11:07:54Z</time>
      </trkpt>
      <trkpt lat="42.131012" lon="0.997323">
        <ele>1655.0</ele>
        <time>2015-08-29T11:07:55Z</time>
      </trkpt>
      <trkpt lat="42.131100" lon="0.997190">
        <ele>1657.0</ele>
        <time>2015-08-29T11:07:56Z</time>
      </trkpt>
      <trkpt lat="42.131182" lon="0.997080">
        <ele>1660.0</ele>
        <time>2015-08-29T11:07:57Z</time>
      </trkpt>
      <trkpt lat="42.131270" lon="0.996952">
        <ele>1661.0</ele>
        <time>2015-08-29T11:07:58Z</time>
      </trkpt>
      <trkpt lat="42.131365" lon="0.996828">
        <ele>1663.0</ele>
        <time>2015-08-29T11:07:59Z</time>
      </trkpt>
      <trkpt lat="42.131452" lon="0.996693">
        <ele>1664.0</ele>
        <time>2015-08-29T11:08:00Z</time>
      </trkpt>
      <trkpt lat="42.131532" lon="0.996557">
        <ele>1665.0</ele>
        <time>2015-08-29T11:08:01Z</time>
      </trkpt>
      <trkpt lat="42.131610" lon="0.996420">
        <ele>1665.0</ele>
        <time>2015-08-29T11:08:02Z</time>
      </trkpt>
      <trkpt lat="42.131682" lon="0.996282">
        <ele>1666.0</ele>
        <time>2015-08-29T11:08:03Z</time>
      </trkpt>
      <trkpt lat="42.131750" lon="0.996130">
        <ele>1666.0</ele>
        <time>2015-08-29T11:08:04Z</time>
      </trkpt>
      <trkpt lat="42.131818" lon="0.995982">
        <ele>1667.0</ele>
        <time>2015-08-29T11:08:05Z</time>
      </trkpt>
      <trkpt lat="42.131895" lon="0.995842">
        <ele>1668.0</ele>
        <time>2015-08-29T11:08:06Z</time>
      </trkpt>
      <trkpt lat="42.131987" lon="0.995717">
        <ele>1669.0</ele>
        <time>2015-08-29T11:08:07Z</time>
      </trkpt>
      <trkpt lat="42.132090" lon="0.995602">
        <ele>1669.0</ele>
        <time>2015-08-29T11:08:08Z</time>
      </trkpt>
      <trkpt lat="42.132200" lon="0.995487">
        <ele>1669.0</ele>
        <time>2015-08-29T11:08:09Z</time>
      </trkpt>
      <trkpt lat="42.132313" lon="0.995380">
        <ele>1669.0</ele>
        <time>2015-08-29T11:08:10Z</time>
      </trkpt>
      <trkpt lat="42.132427" lon="0.995282">
        <ele>1669.0</ele>
        <time>2015-08-29T11:08:11Z</time>
      </trkpt>
      <trkpt lat="42.132540" lon="0.995197">
        <ele>1670.0</ele>
        <time>2015-08-29T11:08:12Z</time>
      </trkpt>
      <trkpt lat="42.132662" lon="0.995125">
        <ele>1670.0</ele>
        <time>2015-08-29T11:08:13Z</time>
      </trkpt>
      <trkpt lat="42.132800" lon="0.995057">
        <ele>1668.0</ele>
        <time>2015-08-29T11:08:14Z</time>
      </trkpt>
      <trkpt lat="42.132933" lon="0.995013">
        <ele>1667.0</ele>
        <time>2015-08-29T11:08:15Z</time>
      </trkpt>
      <trkpt lat="42.133048" lon="0.994992">
        <ele>1667.0</ele>
        <time>2015-08-29T11:08:16Z</time>
      </trkpt>
      <trkpt lat="42.133158" lon="0.994980">
        <ele>1667.0</ele>
        <time>2015-08-29T11:08:17Z</time>
      </trkpt>
      <trkpt lat="42.133277" lon="0.994973">
        <ele>1665.0</ele>
        <time>2015-08-29T11:08:18Z</time>
      </trkpt>
      <trkpt lat="42.133397" lon="0.994987">
        <ele>1664.0</ele>
        <time>2015-08-29T11:08:19Z</time>
      </trkpt>
      <trkpt lat="42.133538" lon="0.995002">
        <ele>1662.0</ele>
        <time>2015-08-29T11:08:20Z</time>
      </trkpt>
      <trkpt lat="42.133677" lon="0.995027">
        <ele>1661.0</ele>
        <time>2015-08-29T11:08:21Z</time>
      </trkpt>
      <trkpt lat="42.133810" lon="0.995050">
        <ele>1662.0</ele>
        <time>2015-08-29T11:08:22Z</time>
      </trkpt>
      <trkpt lat="42.133930" lon="0.995075">
        <ele>1662.0</ele>
        <time>2015-08-29T11:08:23Z</time>
      </trkpt>
      <trkpt lat="42.134040" lon="0.995107">
        <ele>1662.0</ele>
        <time>2015-08-29T11:08:24Z</time>
      </trkpt>
      <trkpt lat="42.134147" lon="0.995148">
        <ele>1660.0</ele>
        <time>2015-08-29T11:08:25Z</time>
      </trkpt>
      <trkpt lat="42.134252" lon="0.995195">
        <ele>1658.0</ele>
        <time>2015-08-29T11:08:26Z</time>
      </trkpt>
      <trkpt lat="42.134360" lon="0.995238">
        <ele>1656.0</ele>
        <time>2015-08-29T11:08:27Z</time>
      </trkpt>
      <trkpt lat="42.134482" lon="0.995275">
        <ele>1652.0</ele>
        <time>2015-08-29T11:08:28Z</time>
      </trkpt>
      <trkpt lat="42.134610" lon="0.995318">
        <ele>1648.0</ele>
        <time>2015-08-29T11:08:29Z</time>
      </trkpt>
      <trkpt lat="42.134737" lon="0.995363">
        <ele>1645.0</ele>
        <time>2015-08-29T11:08:30Z</time>
      </trkpt>
      <trkpt lat="42.134847" lon="0.995403">
        <ele>1643.0</ele>
        <time>2015-08-29T11:08:31Z</time>
      </trkpt>
      <trkpt lat="42.134950" lon="0.995442">
        <ele>1640.0</ele>
        <time>2015-08-29T11:08:32Z</time>
      </trkpt>
      <trkpt lat="42.135053" lon="0.995480">
        <ele>1637.0</ele>
        <time>2015-08-29T11:08:33Z</time>
      </trkpt>
      <trkpt lat="42.135180" lon="0.995527">
        <ele>1634.0</ele>
        <time>2015-08-29T11:08:34Z</time>
      </trkpt>
      <trkpt lat="42.135320" lon="0.995575">
        <ele>1630.0</ele>
        <time>2015-08-29T11:08:35Z</time>
      </trkpt>
      <trkpt lat="42.135450" lon="0.995623">
        <ele>1628.0</ele>
        <time>2015-08-29T11:08:36Z</time>
      </trkpt>
      <trkpt lat="42.135568" lon="0.995672">
        <ele>1626.0</ele>
        <time>2015-08-29T11:08:37Z</time>
      </trkpt>
      <trkpt lat="42.135683" lon="0.995720">
        <ele>1622.0</ele>
        <time>2015-08-29T11:08:38Z</time>
      </trkpt>
      <trkpt lat="42.135800" lon="0.995757">
        <ele>1619.0</ele>
        <time>2015-08-29T11:08:39Z</time>
      </trkpt>
      <trkpt lat="42.135928" lon="0.995780">
        <ele>1614.0</ele>
        <time>2015-08-29T11:08:40Z</time>
      </trkpt>
      <trkpt lat="42.136065" lon="0.995785">
        <ele>1609.0</ele>
        <time>2015-08-29T11:08:41Z</time>
      </trkpt>
      <trkpt lat="42.136208" lon="0.995773">
        <ele>1605.0</ele>
        <time>2015-08-29T11:08:42Z</time>
      </trkpt>
      <trkpt lat="42.136352" lon="0.995755">
        <ele>1602.0</ele>
        <time>2015-08-29T11:08:43Z</time>
      </trkpt>
      <trkpt lat="42.136478" lon="0.995748">
        <ele>1600.0</ele>
        <time>2015-08-29T11:08:44Z</time>
      </trkpt>
      <trkpt lat="42.136590" lon="0.995758">
        <ele>1599.0</ele>
        <time>2015-08-29T11:08:45Z</time>
      </trkpt>
      <trkpt lat="42.136690" lon="0.995775">
        <ele>1596.0</ele>
        <time>2015-08-29T11:08:46Z</time>
      </trkpt>
      <trkpt lat="42.136797" lon="0.995780">
        <ele>1592.0</ele>
        <time>2015-08-29T11:08:47Z</time>
      </trkpt>
      <trkpt lat="42.136908" lon="0.995770">
        <ele>1587.0</ele>
        <time>2015-08-29T11:08:48Z</time>
      </trkpt>
      <trkpt lat="42.137022" lon="0.995742">
        <ele>1584.0</ele>
        <time>2015-08-29T11:08:49Z</time>
      </trkpt>
      <trkpt lat="42.137130" lon="0.995712">
        <ele>1582.0</ele>
        <time>2015-08-29T11:08:50Z</time>
      </trkpt>
      <trkpt lat="42.137245" lon="0.995680">
        <ele>1579.0</ele>
        <time>2015-08-29T11:08:51Z</time>
      </trkpt>
      <trkpt lat="42.137353" lon="0.995658">
        <ele>1578.0</ele>
        <time>2015-08-29T11:08:52Z</time>
      </trkpt>
      <trkpt lat="42.137450" lon="0.995648">
        <ele>1576.0</ele>
        <time>2015-08-29T11:08:53Z</time>
      </trkpt>
      <trkpt lat="42.137537" lon="0.995618">
        <ele>1573.0</ele>
        <time>2015-08-29T11:08:54Z</time>
      </trkpt>
      <trkpt lat="42.137618" lon="0.995570">
        <ele>1569.0</ele>
        <time>2015-08-29T11:08:55Z</time>
      </trkpt>
      <trkpt lat="42.137707" lon="0.995518">
        <ele>1565.0</ele>
        <time>2015-08-29T11:08:56Z</time>
      </trkpt>
      <trkpt lat="42.137807" lon="0.995462">
        <ele>1561.0</ele>
        <time>2015-08-29T11:08:57Z</time>
      </trkpt>
      <trkpt lat="42.137917" lon="0.995410">
        <ele>1558.0</ele>
        <time>2015-08-29T11:08:58Z</time>
      </trkpt>
      <trkpt lat="42.138027" lon="0.995365">
        <ele>1556.0</ele>
        <time>2015-08-29T11:08:59Z</time>
      </trkpt>
      <trkpt lat="42.138128" lon="0.995327">
        <ele>1555.0</ele>
        <time>2015-08-29T11:09:00Z</time>
      </trkpt>
      <trkpt lat="42.138225" lon="0.995293">
        <ele>1554.0</ele>
        <time>2015-08-29T11:09:01Z</time>
      </trkpt>
      <trkpt lat="42.138322" lon="0.995262">
        <ele>1552.0</ele>
        <time>2015-08-29T11:09:02Z</time>
      </trkpt>
      <trkpt lat="42.138427" lon="0.995227">
        <ele>1549.0</ele>
        <time>2015-08-29T11:09:03Z</time>
      </trkpt>
      <trkpt lat="42.138543" lon="0.995185">
        <ele>1547.0</ele>
        <time>2015-08-29T11:09:04Z</time>
      </trkpt>
      <trkpt lat="42.138658" lon="0.995142">
        <ele>1545.0</ele>
        <time>2015-08-29T11:09:05Z</time>
      </trkpt>
      <trkpt lat="42.138767" lon="0.995103">
        <ele>1544.0</ele>
        <time>2015-08-29T11:09:06Z</time>
      </trkpt>
      <trkpt lat="42.138870" lon="0.995057">
        <ele>1544.0</ele>
        <time>2015-08-29T11:09:07Z</time>
      </trkpt>
      <trkpt lat="42.138967" lon="0.995002">
        <ele>1542.0</ele>
        <time>2015-08-29T11:09:08Z</time>
      </trkpt>
      <trkpt lat="42.139060" lon="0.994947">
        <ele>1540.0</ele>
        <time>2015-08-29T11:09:09Z</time>
      </trkpt>
      <trkpt lat="42.139158" lon="0.994885">
        <ele>1538.0</ele>
        <time>2015-08-29T11:09:10Z</time>
      </trkpt>
      <trkpt lat="42.139258" lon="0.994817">
        <ele>1536.0</ele>
        <time>2015-08-29T11:09:11Z</time>
      </trkpt>
      <trkpt lat="42.139358" lon="0.994742">
        <ele>1535.0</ele>
        <time>2015-08-29T11:09:12Z</time>
      </trkpt>
      <trkpt lat="42.139453" lon="0.994673">
        <ele>1533.0</ele>
        <time>2015-08-29T11:09:13Z</time>
      </trkpt>
      <trkpt lat="42.139545" lon="0.994613">
        <ele>1531.0</ele>
        <time>2015-08-29T11:09:14Z</time>
      </trkpt>
      <trkpt lat="42.139640" lon="0.994560">
        <ele>1529.0</ele>
        <time>2015-08-29T11:09:15Z</time>
      </trkpt>
      <trkpt lat="42.139740" lon="0.994507">
        <ele>1526.0</ele>
        <time>2015-08-29T11:09:16Z</time>
      </trkpt>
      <trkpt lat="42.139845" lon="0.994452">
        <ele>1524.0</ele>
        <time>2015-08-29T11:09:17Z</time>
      </trkpt>
      <trkpt lat="42.139952" lon="0.994400">
        <ele>1522.0</ele>
        <time>2015-08-29T11:09:18Z</time>
      </trkpt>
      <trkpt lat="42.140057" lon="0.994360">
        <ele>1521.0</ele>
        <time>2015-08-29T11:09:19Z</time>
      </trkpt>
      <trkpt lat="42.140157" lon="0.994335">
        <ele>1521.0</ele>
        <time>2015-08-29T11:09:20Z</time>
      </trkpt>
      <trkpt lat="42.140255" lon="0.994315">
        <ele>1520.0</ele>
        <time>2015-08-29T11:09:21Z</time>
      </trkpt>
      <trkpt lat="42.140345" lon="0.994302">
        <ele>1519.0</ele>
        <time>2015-08-29T11:09:22Z</time>
      </trkpt>
      <trkpt lat="42.140428" lon="0.994278">
        <ele>1518.0</ele>
        <time>2015-08-29T11:09:23Z</time>
      </trkpt>
      <trkpt lat="42.140523" lon="0.994222">
        <ele>1517.0</ele>
        <time>2015-08-29T11:09:24Z</time>
      </trkpt>
      <trkpt lat="42.140620" lon="0.994140">
        <ele>1517.0</ele>
        <time>2015-08-29T11:09:25Z</time>
      </trkpt>
      <trkpt lat="42.140710" lon="0.994063">
        <ele>1517.0</ele>
        <time>2015-08-29T11:09:26Z</time>
      </trkpt>
      <trkpt lat="42.140792" lon="0.993992">
        <ele>1517.0</ele>
        <time>2015-08-29T11:09:27Z</time>
      </trkpt>
      <trkpt lat="42.140868" lon="0.993925">
        <ele>1517.0</ele>
        <time>2015-08-29T11:09:28Z</time>
      </trkpt>
      <trkpt lat="42.140950" lon="0.993855">
        <ele>1517.0</ele>
        <time>2015-08-29T11:09:29Z</time>
      </trkpt>
      <trkpt lat="42.141042" lon="0.993767">
        <ele>1518.0</ele>
        <time>2015-08-29T11:09:30Z</time>
      </trkpt>
      <trkpt lat="42.141135" lon="0.993678">
        <ele>1520.0</ele>
        <time>2015-08-29T11:09:31Z</time>
      </trkpt>
      <trkpt lat="42.141220" lon="0.993585">
        <ele>1524.0</ele>
        <time>2015-08-29T11:09:32Z</time>
      </trkpt>
      <trkpt lat="42.141297" lon="0.993495">
        <ele>1527.0</ele>
        <time>2015-08-29T11:09:33Z</time>
      </trkpt>
      <trkpt lat="42.141365" lon="0.993418">
        <ele>1528.0</ele>
        <time>2015-08-29T11:09:34Z</time>
      </trkpt>
      <trkpt lat="42.141433" lon="0.993342">
        <ele>1529.0</ele>
        <time>2015-08-29T11:09:35Z</time>
      </trkpt>
      <trkpt lat="42.141510" lon="0.993260">
        <ele>1529.0</ele>
        <time>2015-08-29T11:09:36Z</time>
      </trkpt>
      <trkpt lat="42.141595" lon="0.993165">
        <ele>1529.0</ele>
        <time>2015-08-29T11:09:37Z</time>
      </trkpt>
      <trkpt lat="42.141683" lon="0.993063">
        <ele>1529.0</ele>
        <time>2015-08-29T11:09:38Z</time>
      </trkpt>
      <trkpt lat="42.141768" lon="0.992963">
        <ele>1530.0</ele>
        <time>2015-08-29T11:09:39Z</time>
      </trkpt>
      <trkpt lat="42.141843" lon="0.992873">
        <ele>1532.0</ele>
        <time>2015-08-29T11:09:40Z</time>
      </trkpt>
      <trkpt lat="42.141913" lon="0.992788">
        <ele>1534.0</ele>
        <time>2015-08-29T11:09:41Z</time>
      </trkpt>
      <trkpt lat="42.141993" lon="0.992692">
        <ele>1534.0</ele>
        <time>2015-08-29T11:09:42Z</time>
      </trkpt>
      <trkpt lat="42.142080" lon="0.992583">
        <ele>1534.0</ele>
        <time>2015-08-29T11:09:43Z</time>
      </trkpt>
      <trkpt lat="42.142165" lon="0.992485">
        <ele>1533.0</ele>
        <time>2015-08-29T11:09:44Z</time>
      </trkpt>
      <trkpt lat="42.142252" lon="0.992398">
        <ele>1533.0</ele>
        <time>2015-08-29T11:09:45Z</time>
      </trkpt>
      <trkpt lat="42.142342" lon="0.992330">
        <ele>1534.0</ele>
        <time>2015-08-29T11:09:46Z</time>
      </trkpt>
      <trkpt lat="42.142452" lon="0.992260">
        <ele>1535.0</ele>
        <time>2015-08-29T11:09:47Z</time>
      </trkpt>
      <trkpt lat="42.142542" lon="0.992220">
        <ele>1538.0</ele>
        <time>2015-08-29T11:09:48Z</time>
      </trkpt>
      <trkpt lat="42.142607" lon="0.992185">
        <ele>1540.0</ele>
        <time>2015-08-29T11:09:49Z</time>
      </trkpt>
      <trkpt lat="42.142650" lon="0.992117">
        <ele>1543.0</ele>
        <time>2015-08-29T11:09:50Z</time>
      </trkpt>
      <trkpt lat="42.142687" lon="0.992045">
        <ele>1547.0</ele>
        <time>2015-08-29T11:09:51Z</time>
      </trkpt>
      <trkpt lat="42.142737" lon="0.991973">
        <ele>1550.0</ele>
        <time>2015-08-29T11:09:52Z</time>
      </trkpt>
      <trkpt lat="42.142802" lon="0.991888">
        <ele>1555.0</ele>
        <time>2015-08-29T11:09:53Z</time>
      </trkpt>
      <trkpt lat="42.142857" lon="0.991808">
        <ele>1560.0</ele>
        <time>2015-08-29T11:09:54Z</time>
      </trkpt>
      <trkpt lat="42.142895" lon="0.991708">
        <ele>1564.0</ele>
        <time>2015-08-29T11:09:55Z</time>
      </trkpt>
      <trkpt lat="42.142908" lon="0.991597">
        <ele>1569.0</ele>
        <time>2015-08-29T11:09:56Z</time>
      </trkpt>
      <trkpt lat="42.142902" lon="0.991493">
        <ele>1572.0</ele>
        <time>2015-08-29T11:09:57Z</time>
      </trkpt>
      <trkpt lat="42.142883" lon="0.991425">
        <ele>1576.0</ele>
        <time>2015-08-29T11:09:58Z</time>
      </trkpt>
      <trkpt lat="42.142857" lon="0.991337">
        <ele>1579.0</ele>
        <time>2015-08-29T11:09:59Z</time>
      </trkpt>
      <trkpt lat="42.142812" lon="0.991215">
        <ele>1582.0</ele>
        <time>2015-08-29T11:10:00Z</time>
      </trkpt>
      <trkpt lat="42.142742" lon="0.991095">
        <ele>1583.0</ele>
        <time>2015-08-29T11:10:01Z</time>
      </trkpt>
      <trkpt lat="42.142660" lon="0.991015">
        <ele>1585.0</ele>
        <time>2015-08-29T11:10:02Z</time>
      </trkpt>
      <trkpt lat="42.142582" lon="0.990973">
        <ele>1587.0</ele>
        <time>2015-08-29T11:10:03Z</time>
      </trkpt>
      <trkpt lat="42.142507" lon="0.990957">
        <ele>1589.0</ele>
        <time>2015-08-29T11:10:04Z</time>
      </trkpt>
      <trkpt lat="42.142437" lon="0.990945">
        <ele>1590.0</ele>
        <time>2015-08-29T11:10:05Z</time>
      </trkpt>
      <trkpt lat="42.142372" lon="0.990927">
        <ele>1592.0</ele>
        <time>2015-08-29T11:10:06Z</time>
      </trkpt>
      <trkpt lat="42.142305" lon="0.990912">
        <ele>1594.0</ele>
        <time>2015-08-29T11:10:07Z</time>
      </trkpt>
      <trkpt lat="42.142228" lon="0.990912">
        <ele>1597.0</ele>
        <time>2015-08-29T11:10:08Z</time>
      </trkpt>
      <trkpt lat="42.142165" lon="0.990933">
        <ele>1597.0</ele>
        <time>2015-08-29T11:10:09Z</time>
      </trkpt>
      <trkpt lat="42.142107" lon="0.990963">
        <ele>1599.0</ele>
        <time>2015-08-29T11:10:10Z</time>
      </trkpt>
      <trkpt lat="42.142055" lon="0.990988">
        <ele>1600.0</ele>
        <time>2015-08-29T11:10:11Z</time>
      </trkpt>
      <trkpt lat="42.141997" lon="0.991015">
        <ele>1604.0</ele>
        <time>2015-08-29T11:10:12Z</time>
      </trkpt>
      <trkpt lat="42.141942" lon="0.991068">
        <ele>1606.0</ele>
        <time>2015-08-29T11:10:13Z</time>
      </trkpt>
      <trkpt lat="42.141898" lon="0.991143">
        <ele>1609.0</ele>
        <time>2015-08-29T11:10:14Z</time>
      </trkpt>
      <trkpt lat="42.141898" lon="0.991260">
        <ele>1610.0</ele>
        <time>2015-08-29T11:10:15Z</time>
      </trkpt>
      <trkpt lat="42.141937" lon="0.991392">
        <ele>1610.0</ele>
        <time>2015-08-29T11:10:16Z</time>
      </trkpt>
      <trkpt lat="42.142010" lon="0.991505">
        <ele>1612.0</ele>
        <time>2015-08-29T11:10:17Z</time>
      </trkpt>
      <trkpt lat="42.142097" lon="0.991583">
        <ele>1613.0</ele>
        <time>2015-08-29T11:10:18Z</time>
      </trkpt>
      <trkpt lat="42.142172" lon="0.991632">
        <ele>1615.0</ele>
        <time>2015-08-29T11:10:19Z</time>
      </trkpt>
      <trkpt lat="42.142230" lon="0.991662">
        <ele>1617.0</ele>
        <time>2015-08-29T11:10:20Z</time>
      </trkpt>
      <trkpt lat="42.142285" lon="0.991682">
        <ele>1618.0</ele>
        <time>2015-08-29T11:10:21Z</time>
      </trkpt>
      <trkpt lat="42.142347" lon="0.991703">
        <ele>1617.0</ele>
        <time>2015-08-29T11:10:22Z</time>
      </trkpt>
      <trkpt lat="42.142427" lon="0.991715">
        <ele>1618.0</ele>
        <time>2015-08-29T11:10:23Z</time>
      </trkpt>
      <trkpt lat="42.142522" lon="0.991697">
        <ele>1619.0</ele>
        <time>2015-08-29T11:10:24Z</time>
      </trkpt>
      <trkpt lat="42.142617" lon="0.991640">
        <ele>1620.0</ele>
        <time>2015-08-29T11:10:25Z</time>
      </trkpt>
      <trkpt lat="42.142697" lon="0.991545">
        <ele>1623.0</ele>
        <time>2015-08-29T11:10:26Z</time>
      </trkpt>
      <trkpt lat="42.142750" lon="0.991443">
        <ele>1627.0</ele>
        <time>2015-08-29T11:10:27Z</time>
      </trkpt>
      <trkpt lat="42.142805" lon="0.991347">
        <ele>1630.0</ele>
        <time>2015-08-29T11:10:28Z</time>
      </trkpt>
      <trkpt lat="42.142867" lon="0.991260">
        <ele>1633.0</ele>
        <time>2015-08-29T11:10:29Z</time>
      </trkpt>
      <trkpt lat="42.142932" lon="0.991172">
        <ele>1635.0</ele>
        <time>2015-08-29T11:10:30Z</time>
      </trkpt>
      <trkpt lat="42.142993" lon="0.991075">
        <ele>1637.0</ele>
        <time>2015-08-29T11:10:31Z</time>
      </trkpt>
      <trkpt lat="42.143050" lon="0.990945">
        <ele>1641.0</ele>
        <time>2015-08-29T11:10:32Z</time>
      </trkpt>
      <trkpt lat="42.143098" lon="0.990810">
        <ele>1643.0</ele>
        <time>2015-08-29T11:10:33Z</time>
      </trkpt>
      <trkpt lat="42.143133" lon="0.990687">
        <ele>1646.0</ele>
        <time>2015-08-29T11:10:34Z</time>
      </trkpt>
      <trkpt lat="42.143155" lon="0.990570">
        <ele>1649.0</ele>
        <time>2015-08-29T11:10:35Z</time>
      </trkpt>
      <trkpt lat="42.143168" lon="0.990447">
        <ele>1653.0</ele>
        <time>2015-08-29T11:10:36Z</time>
      </trkpt>
      <trkpt lat="42.143165" lon="0.990302">
        <ele>1653.0</ele>
        <time>2015-08-29T11:10:37Z</time>
      </trkpt>
      <trkpt lat="42.143152" lon="0.990152">
        <ele>1654.0</ele>
        <time>2015-08-29T11:10:38Z</time>
      </trkpt>
      <trkpt lat="42.143133" lon="0.990017">
        <ele>1657.0</ele>
        <time>2015-08-29T11:10:39Z</time>
      </trkpt>
      <trkpt lat="42.143118" lon="0.989902">
        <ele>1660.0</ele>
        <time>2015-08-29T11:10:40Z</time>
      </trkpt>
      <trkpt lat="42.143107" lon="0.989778">
        <ele>1663.0</ele>
        <time>2015-08-29T11:10:41Z</time>
      </trkpt>
      <trkpt lat="42.143092" lon="0.989655">
        <ele>1667.0</ele>
        <time>2015-08-29T11:10:42Z</time>
      </trkpt>
      <trkpt lat="42.143065" lon="0.989522">
        <ele>1670.0</ele>
        <time>2015-08-29T11:10:43Z</time>
      </trkpt>
      <trkpt lat="42.143020" lon="0.989353">
        <ele>1670.0</ele>
        <time>2015-08-29T11:10:44Z</time>
      </trkpt>
      <trkpt lat="42.142970" lon="0.989215">
        <ele>1673.0</ele>
        <time>2015-08-29T11:10:45Z</time>
      </trkpt>
      <trkpt lat="42.142918" lon="0.989097">
        <ele>1676.0</ele>
        <time>2015-08-29T11:10:46Z</time>
      </trkpt>
      <trkpt lat="42.142865" lon="0.989012">
        <ele>1678.0</ele>
        <time>2015-08-29T11:10:47Z</time>
      </trkpt>
      <trkpt lat="42.142807" lon="0.988937">
        <ele>1681.0</ele>
        <time>2015-08-29T11:10:48Z</time>
      </trkpt>
      <trkpt lat="42.142735" lon="0.988847">
        <ele>1683.0</ele>
        <time>2015-08-29T11:10:49Z</time>
      </trkpt>
      <trkpt lat="42.142662" lon="0.988812">
        <ele>1685.0</ele>
        <time>2015-08-29T11:10:50Z</time>
      </trkpt>
      <trkpt lat="42.142592" lon="0.988778">
        <ele>1688.0</ele>
        <time>2015-08-29T11:10:51Z</time>
      </trkpt>
      <trkpt lat="42.142525" lon="0.988748">
        <ele>1691.0</ele>
        <time>2015-08-29T11:10:52Z</time>
      </trkpt>
      <trkpt lat="42.142462" lon="0.988715">
        <ele>1693.0</ele>
        <time>2015-08-29T11:10:53Z</time>
      </trkpt>
      <trkpt lat="42.142393" lon="0.988697">
        <ele>1696.0</ele>
        <time>2015-08-29T11:10:54Z</time>
      </trkpt>
      <trkpt lat="42.142315" lon="0.988710">
        <ele>1698.0</ele>
        <time>2015-08-29T11:10:55Z</time>
      </trkpt>
      <trkpt lat="42.142240" lon="0.988738">
        <ele>1702.0</ele>
        <time>2015-08-29T11:10:56Z</time>
      </trkpt>
      <trkpt lat="42.142180" lon="0.988793">
        <ele>1701.0</ele>
        <time>2015-08-29T11:10:57Z</time>
      </trkpt>
      <trkpt lat="42.142147" lon="0.988870">
        <ele>1704.0</ele>
        <time>2015-08-29T11:10:58Z</time>
      </trkpt>
      <trkpt lat="42.142128" lon="0.988937">
        <ele>1707.0</ele>
        <time>2015-08-29T11:10:59Z</time>
      </trkpt>
      <trkpt lat="42.142118" lon="0.989005">
        <ele>1709.0</ele>
        <time>2015-08-29T11:11:00Z</time>
      </trkpt>
      <trkpt lat="42.142105" lon="0.989085">
        <ele>1712.0</ele>
        <time>2015-08-29T11:11:01Z</time>
      </trkpt>
      <trkpt lat="42.142107" lon="0.989187">
        <ele>1712.0</ele>
        <time>2015-08-29T11:11:02Z</time>
      </trkpt>
      <trkpt lat="42.142130" lon="0.989295">
        <ele>1713.0</ele>
        <time>2015-08-29T11:11:03Z</time>
      </trkpt>
      <trkpt lat="42.142167" lon="0.989378">
        <ele>1715.0</ele>
        <time>2015-08-29T11:11:04Z</time>
      </trkpt>
      <trkpt lat="42.142215" lon="0.989450">
        <ele>1718.0</ele>
        <time>2015-08-29T11:11:05Z</time>
      </trkpt>
      <trkpt lat="42.142293" lon="0.989520">
        <ele>1718.0</ele>
        <time>2015-08-29T11:11:06Z</time>
      </trkpt>
      <trkpt lat="42.142393" lon="0.989573">
        <ele>1717.0</ele>
        <time>2015-08-29T11:11:07Z</time>
      </trkpt>
      <trkpt lat="42.142498" lon="0.989603">
        <ele>1718.0</ele>
        <time>2015-08-29T11:11:08Z</time>
      </trkpt>
      <trkpt lat="42.142593" lon="0.989612">
        <ele>1718.0</ele>
        <time>2015-08-29T11:11:09Z</time>
      </trkpt>
      <trkpt lat="42.142670" lon="0.989598">
        <ele>1719.0</ele>
        <time>2015-08-29T11:11:10Z</time>
      </trkpt>
      <trkpt lat="42.142737" lon="0.989568">
        <ele>1720.0</ele>
        <time>2015-08-29T11:11:11Z</time>
      </trkpt>
      <trkpt lat="42.142798" lon="0.989525">
        <ele>1720.0</ele>
        <time>2015-08-29T11:11:12Z</time>
      </trkpt>
      <trkpt lat="42.142870" lon="0.989472">
        <ele>1720.0</ele>
        <time>2015-08-29T11:11:13Z</time>
      </trkpt>
      <trkpt lat="42.142957" lon="0.989408">
        <ele>1720.0</ele>
        <time>2015-08-29T11:11:14Z</time>
      </trkpt>
      <trkpt lat="42.143058" lon="0.989330">
        <ele>1721.0</ele>
        <time>2015-08-29T11:11:15Z</time>
      </trkpt>
      <trkpt lat="42.143155" lon="0.989270">
        <ele>1722.0</ele>
        <time>2015-08-29T11:11:16Z</time>
      </trkpt>
      <trkpt lat="42.143232" lon="0.989235">
        <ele>1722.0</ele>
        <time>2015-08-29T11:11:17Z</time>
      </trkpt>
      <trkpt lat="42.143293" lon="0.989193">
        <ele>1725.0</ele>
        <time>2015-08-29T11:11:18Z</time>
      </trkpt>
      <trkpt lat="42.143348" lon="0.989150">
        <ele>1727.0</ele>
        <time>2015-08-29T11:11:19Z</time>
      </trkpt>
      <trkpt lat="42.143420" lon="0.989077">
        <ele>1729.0</ele>
        <time>2015-08-29T11:11:20Z</time>
      </trkpt>
      <trkpt lat="42.143488" lon="0.989018">
        <ele>1732.0</ele>
        <time>2015-08-29T11:11:21Z</time>
      </trkpt>
      <trkpt lat="42.143562" lon="0.988953">
        <ele>1735.0</ele>
        <time>2015-08-29T11:11:22Z</time>
      </trkpt>
      <trkpt lat="42.143640" lon="0.988867">
        <ele>1738.0</ele>
        <time>2015-08-29T11:11:23Z</time>
      </trkpt>
      <trkpt lat="42.143695" lon="0.988783">
        <ele>1741.0</ele>
        <time>2015-08-29T11:11:24Z</time>
      </trkpt>
      <trkpt lat="42.143738" lon="0.988698">
        <ele>1743.0</ele>
        <time>2015-08-29T11:11:25Z</time>
      </trkpt>
      <trkpt lat="42.143775" lon="0.988598">
        <ele>1746.0</ele>
        <time>2015-08-29T11:11:26Z</time>
      </trkpt>
      <trkpt lat="42.143813" lon="0.988498">
        <ele>1749.0</ele>
        <time>2015-08-29T11:11:27Z</time>
      </trkpt>
      <trkpt lat="42.143858" lon="0.988393">
        <ele>1753.0</ele>
        <time>2015-08-29T11:11:28Z</time>
      </trkpt>
      <trkpt lat="42.143905" lon="0.988280">
        <ele>1757.0</ele>
        <time>2015-08-29T11:11:29Z</time>
      </trkpt>
      <trkpt lat="42.143940" lon="0.988165">
        <ele>1761.0</ele>
        <time>2015-08-29T11:11:30Z</time>
      </trkpt>
      <trkpt lat="42.143960" lon="0.988042">
        <ele>1764.0</ele>
        <time>2015-08-29T11:11:31Z</time>
      </trkpt>
      <trkpt lat="42.143968" lon="0.987912">
        <ele>1767.0</ele>
        <time>2015-08-29T11:11:32Z</time>
      </trkpt>
      <trkpt lat="42.143975" lon="0.987782">
        <ele>1770.0</ele>
        <time>2015-08-29T11:11:33Z</time>
      </trkpt>
      <trkpt lat="42.143985" lon="0.987655">
        <ele>1773.0</ele>
        <time>2015-08-29T11:11:34Z</time>
      </trkpt>
      <trkpt lat="42.143993" lon="0.987535">
        <ele>1776.0</ele>
        <time>2015-08-29T11:11:35Z</time>
      </trkpt>
      <trkpt lat="42.143993" lon="0.987415">
        <ele>1778.0</ele>
        <time>2015-08-29T11:11:36Z</time>
      </trkpt>
      <trkpt lat="42.143978" lon="0.987315">
        <ele>1781.0</ele>
        <time>2015-08-29T11:11:37Z</time>
      </trkpt>
      <trkpt lat="42.143950" lon="0.987232">
        <ele>1783.0</ele>
        <time>2015-08-29T11:11:38Z</time>
      </trkpt>
      <trkpt lat="42.143917" lon="0.987137">
        <ele>1785.0</ele>
        <time>2015-08-29T11:11:39Z</time>
      </trkpt>
      <trkpt lat="42.143862" lon="0.987022">
        <ele>1786.0</ele>
        <time>2015-08-29T11:11:40Z</time>
      </trkpt>
      <trkpt lat="42.143802" lon="0.986915">
        <ele>1786.0</ele>
        <time>2015-08-29T11:11:41Z</time>
      </trkpt>
      <trkpt lat="42.143745" lon="0.986823">
        <ele>1786.0</ele>
        <time>2015-08-29T11:11:42Z</time>
      </trkpt>
      <trkpt lat="42.143693" lon="0.986757">
        <ele>1787.0</ele>
        <time>2015-08-29T11:11:43Z</time>
      </trkpt>
      <trkpt lat="42.143645" lon="0.986718">
        <ele>1788.0</ele>
        <time>2015-08-29T11:11:44Z</time>
      </trkpt>
      <trkpt lat="42.143583" lon="0.986700">
        <ele>1788.0</ele>
        <time>2015-08-29T11:11:45Z</time>
      </trkpt>
      <trkpt lat="42.143515" lon="0.986693">
        <ele>1789.0</ele>
        <time>2015-08-29T11:11:46Z</time>
      </trkpt>
      <trkpt lat="42.143448" lon="0.986692">
        <ele>1789.0</ele>
        <time>2015-08-29T11:11:47Z</time>
      </trkpt>
      <trkpt lat="42.143318" lon="0.986718">
        <ele>1789.0</ele>
        <time>2015-08-29T11:11:48Z</time>
      </trkpt>
      <trkpt lat="42.143225" lon="0.986742">
        <ele>1789.0</ele>
        <time>2015-08-29T11:11:49Z</time>
      </trkpt>
      <trkpt lat="42.143095" lon="0.986792">
        <ele>1789.0</ele>
        <time>2015-08-29T11:11:50Z</time>
      </trkpt>
      <trkpt lat="42.142980" lon="0.986852">
        <ele>1789.0</ele>
        <time>2015-08-29T11:11:51Z</time>
      </trkpt>
      <trkpt lat="42.142875" lon="0.986910">
        <ele>1789.0</ele>
        <time>2015-08-29T11:11:52Z</time>
      </trkpt>
      <trkpt lat="42.142775" lon="0.986968">
        <ele>1788.0</ele>
        <time>2015-08-29T11:11:53Z</time>
      </trkpt>
      <trkpt lat="42.142662" lon="0.986985">
        <ele>1788.0</ele>
        <time>2015-08-29T11:11:54Z</time>
      </trkpt>
      <trkpt lat="42.142578" lon="0.986995">
        <ele>1789.0</ele>
        <time>2015-08-29T11:11:55Z</time>
      </trkpt>
      <trkpt lat="42.142500" lon="0.987020">
        <ele>1789.0</ele>
        <time>2015-08-29T11:11:56Z</time>
      </trkpt>
      <trkpt lat="42.142443" lon="0.987070">
        <ele>1788.0</ele>
        <time>2015-08-29T11:11:57Z</time>
      </trkpt>
      <trkpt lat="42.142380" lon="0.987130">
        <ele>1787.0</ele>
        <time>2015-08-29T11:11:58Z</time>
      </trkpt>
      <trkpt lat="42.142325" lon="0.987200">
        <ele>1786.0</ele>
        <time>2015-08-29T11:11:59Z</time>
      </trkpt>
      <trkpt lat="42.142270" lon="0.987275">
        <ele>1784.0</ele>
        <time>2015-08-29T11:12:00Z</time>
      </trkpt>
      <trkpt lat="42.142217" lon="0.987352">
        <ele>1783.0</ele>
        <time>2015-08-29T11:12:01Z</time>
      </trkpt>
      <trkpt lat="42.142170" lon="0.987418">
        <ele>1782.0</ele>
        <time>2015-08-29T11:12:02Z</time>
      </trkpt>
      <trkpt lat="42.142123" lon="0.987478">
        <ele>1780.0</ele>
        <time>2015-08-29T11:12:03Z</time>
      </trkpt>
      <trkpt lat="42.142075" lon="0.987547">
        <ele>1778.0</ele>
        <time>2015-08-29T11:12:04Z</time>
      </trkpt>
      <trkpt lat="42.142033" lon="0.987635">
        <ele>1777.0</ele>
        <time>2015-08-29T11:12:05Z</time>
      </trkpt>
      <trkpt lat="42.142012" lon="0.987753">
        <ele>1775.0</ele>
        <time>2015-08-29T11:12:06Z</time>
      </trkpt>
      <trkpt lat="42.142008" lon="0.987875">
        <ele>1774.0</ele>
        <time>2015-08-29T11:12:07Z</time>
      </trkpt>
      <trkpt lat="42.142040" lon="0.988010">
        <ele>1772.0</ele>
        <time>2015-08-29T11:12:08Z</time>
      </trkpt>
      <trkpt lat="42.142080" lon="0.988130">
        <ele>1770.0</ele>
        <time>2015-08-29T11:12:09Z</time>
      </trkpt>
      <trkpt lat="42.142130" lon="0.988250">
        <ele>1768.0</ele>
        <time>2015-08-29T11:12:10Z</time>
      </trkpt>
      <trkpt lat="42.142182" lon="0.988370">
        <ele>1766.0</ele>
        <time>2015-08-29T11:12:11Z</time>
      </trkpt>
      <trkpt lat="42.142233" lon="0.988477">
        <ele>1765.0</ele>
        <time>2015-08-29T11:12:12Z</time>
      </trkpt>
      <trkpt lat="42.142308" lon="0.988588">
        <ele>1763.0</ele>
        <time>2015-08-29T11:12:13Z</time>
      </trkpt>
      <trkpt lat="42.142418" lon="0.988712">
        <ele>1759.0</ele>
        <time>2015-08-29T11:12:14Z</time>
      </trkpt>
      <trkpt lat="42.142532" lon="0.988807">
        <ele>1757.0</ele>
        <time>2015-08-29T11:12:15Z</time>
      </trkpt>
      <trkpt lat="42.142647" lon="0.988890">
        <ele>1754.0</ele>
        <time>2015-08-29T11:12:16Z</time>
      </trkpt>
      <trkpt lat="42.142755" lon="0.988970">
        <ele>1751.0</ele>
        <time>2015-08-29T11:12:17Z</time>
      </trkpt>
      <trkpt lat="42.142857" lon="0.989055">
        <ele>1748.0</ele>
        <time>2015-08-29T11:12:18Z</time>
      </trkpt>
      <trkpt lat="42.142963" lon="0.989143">
        <ele>1746.0</ele>
        <time>2015-08-29T11:12:19Z</time>
      </trkpt>
      <trkpt lat="42.143082" lon="0.989238">
        <ele>1742.0</ele>
        <time>2015-08-29T11:12:20Z</time>
      </trkpt>
      <trkpt lat="42.143205" lon="0.989318">
        <ele>1740.0</ele>
        <time>2015-08-29T11:12:21Z</time>
      </trkpt>
      <trkpt lat="42.143333" lon="0.989377">
        <ele>1738.0</ele>
        <time>2015-08-29T11:12:22Z</time>
      </trkpt>
      <trkpt lat="42.143455" lon="0.989428">
        <ele>1736.0</ele>
        <time>2015-08-29T11:12:23Z</time>
      </trkpt>
      <trkpt lat="42.143575" lon="0.989477">
        <ele>1733.0</ele>
        <time>2015-08-29T11:12:24Z</time>
      </trkpt>
      <trkpt lat="42.143697" lon="0.989520">
        <ele>1731.0</ele>
        <time>2015-08-29T11:12:25Z</time>
      </trkpt>
      <trkpt lat="42.143825" lon="0.989555">
        <ele>1729.0</ele>
        <time>2015-08-29T11:12:26Z</time>
      </trkpt>
      <trkpt lat="42.143962" lon="0.989582">
        <ele>1727.0</ele>
        <time>2015-08-29T11:12:27Z</time>
      </trkpt>
      <trkpt lat="42.144098" lon="0.989597">
        <ele>1725.0</ele>
        <time>2015-08-29T11:12:28Z</time>
      </trkpt>
      <trkpt lat="42.144217" lon="0.989607">
        <ele>1726.0</ele>
        <time>2015-08-29T11:12:29Z</time>
      </trkpt>
      <trkpt lat="42.144330" lon="0.989607">
        <ele>1727.0</ele>
        <time>2015-08-29T11:12:30Z</time>
      </trkpt>
      <trkpt lat="42.144447" lon="0.989593">
        <ele>1727.0</ele>
        <time>2015-08-29T11:12:31Z</time>
      </trkpt>
      <trkpt lat="42.144563" lon="0.989582">
        <ele>1728.0</ele>
        <time>2015-08-29T11:12:32Z</time>
      </trkpt>
      <trkpt lat="42.144678" lon="0.989582">
        <ele>1728.0</ele>
        <time>2015-08-29T11:12:33Z</time>
      </trkpt>
      <trkpt lat="42.144792" lon="0.989595">
        <ele>1730.0</ele>
        <time>2015-08-29T11:12:34Z</time>
      </trkpt>
      <trkpt lat="42.144905" lon="0.989608">
        <ele>1732.0</ele>
        <time>2015-08-29T11:12:35Z</time>
      </trkpt>
      <trkpt lat="42.145018" lon="0.989613">
        <ele>1734.0</ele>
        <time>2015-08-29T11:12:36Z</time>
      </trkpt>
      <trkpt lat="42.145130" lon="0.989622">
        <ele>1736.0</ele>
        <time>2015-08-29T11:12:37Z</time>
      </trkpt>
      <trkpt lat="42.145242" lon="0.989640">
        <ele>1738.0</ele>
        <time>2015-08-29T11:12:38Z</time>
      </trkpt>
      <trkpt lat="42.145355" lon="0.989667">
        <ele>1741.0</ele>
        <time>2015-08-29T11:12:39Z</time>
      </trkpt>
      <trkpt lat="42.145470" lon="0.989680">
        <ele>1744.0</ele>
        <time>2015-08-29T11:12:40Z</time>
      </trkpt>
      <trkpt lat="42.145582" lon="0.989675">
        <ele>1748.0</ele>
        <time>2015-08-29T11:12:41Z</time>
      </trkpt>
      <trkpt lat="42.145685" lon="0.989660">
        <ele>1753.0</ele>
        <time>2015-08-29T11:12:42Z</time>
      </trkpt>
      <trkpt lat="42.145788" lon="0.989650">
        <ele>1758.0</ele>
        <time>2015-08-29T11:12:43Z</time>
      </trkpt>
      <trkpt lat="42.145890" lon="0.989648">
        <ele>1762.0</ele>
        <time>2015-08-29T11:12:44Z</time>
      </trkpt>
      <trkpt lat="42.145992" lon="0.989657">
        <ele>1767.0</ele>
        <time>2015-08-29T11:12:45Z</time>
      </trkpt>
      <trkpt lat="42.146075" lon="0.989672">
        <ele>1770.0</ele>
        <time>2015-08-29T11:12:46Z</time>
      </trkpt>
      <trkpt lat="42.146157" lon="0.989670">
        <ele>1772.0</ele>
        <time>2015-08-29T11:12:47Z</time>
      </trkpt>
      <trkpt lat="42.146242" lon="0.989630">
        <ele>1774.0</ele>
        <time>2015-08-29T11:12:48Z</time>
      </trkpt>
      <trkpt lat="42.146318" lon="0.989583">
        <ele>1776.0</ele>
        <time>2015-08-29T11:12:49Z</time>
      </trkpt>
      <trkpt lat="42.146382" lon="0.989543">
        <ele>1777.0</ele>
        <time>2015-08-29T11:12:50Z</time>
      </trkpt>
      <trkpt lat="42.146440" lon="0.989495">
        <ele>1780.0</ele>
        <time>2015-08-29T11:12:51Z</time>
      </trkpt>
      <trkpt lat="42.146498" lon="0.989433">
        <ele>1783.0</ele>
        <time>2015-08-29T11:12:52Z</time>
      </trkpt>
      <trkpt lat="42.146552" lon="0.989377">
        <ele>1785.0</ele>
        <time>2015-08-29T11:12:53Z</time>
      </trkpt>
      <trkpt lat="42.146607" lon="0.989315">
        <ele>1788.0</ele>
        <time>2015-08-29T11:12:54Z</time>
      </trkpt>
      <trkpt lat="42.146660" lon="0.989248">
        <ele>1790.0</ele>
        <time>2015-08-29T11:12:55Z</time>
      </trkpt>
      <trkpt lat="42.146712" lon="0.989172">
        <ele>1792.0</ele>
        <time>2015-08-29T11:12:56Z</time>
      </trkpt>
      <trkpt lat="42.146755" lon="0.989085">
        <ele>1795.0</ele>
        <time>2015-08-29T11:12:57Z</time>
      </trkpt>
      <trkpt lat="42.146785" lon="0.988997">
        <ele>1797.0</ele>
        <time>2015-08-29T11:12:58Z</time>
      </trkpt>
      <trkpt lat="42.146802" lon="0.988902">
        <ele>1799.0</ele>
        <time>2015-08-29T11:12:59Z</time>
      </trkpt>
      <trkpt lat="42.146807" lon="0.988795">
        <ele>1800.0</ele>
        <time>2015-08-29T11:13:00Z</time>
      </trkpt>
      <trkpt lat="42.146807" lon="0.988680">
        <ele>1802.0</ele>
        <time>2015-08-29T11:13:01Z</time>
      </trkpt>
      <trkpt lat="42.146800" lon="0.988557">
        <ele>1802.0</ele>
        <time>2015-08-29T11:13:02Z</time>
      </trkpt>
      <trkpt lat="42.146783" lon="0.988450">
        <ele>1805.0</ele>
        <time>2015-08-29T11:13:03Z</time>
      </trkpt>
      <trkpt lat="42.146745" lon="0.988343">
        <ele>1806.0</ele>
        <time>2015-08-29T11:13:04Z</time>
      </trkpt>
      <trkpt lat="42.146680" lon="0.988255">
        <ele>1808.0</ele>
        <time>2015-08-29T11:13:05Z</time>
      </trkpt>
      <trkpt lat="42.146612" lon="0.988183">
        <ele>1809.0</ele>
        <time>2015-08-29T11:13:06Z</time>
      </trkpt>
      <trkpt lat="42.146542" lon="0.988120">
        <ele>1810.0</ele>
        <time>2015-08-29T11:13:07Z</time>
      </trkpt>
      <trkpt lat="42.146470" lon="0.988072">
        <ele>1811.0</ele>
        <time>2015-08-29T11:13:08Z</time>
      </trkpt>
      <trkpt lat="42.146398" lon="0.988033">
        <ele>1813.0</ele>
        <time>2015-08-29T11:13:09Z</time>
      </trkpt>
      <trkpt lat="42.146335" lon="0.988000">
        <ele>1814.0</ele>
        <time>2015-08-29T11:13:10Z</time>
      </trkpt>
      <trkpt lat="42.146265" lon="0.988005">
        <ele>1816.0</ele>
        <time>2015-08-29T11:13:11Z</time>
      </trkpt>
      <trkpt lat="42.146192" lon="0.988067">
        <ele>1817.0</ele>
        <time>2015-08-29T11:13:12Z</time>
      </trkpt>
      <trkpt lat="42.146110" lon="0.988240">
        <ele>1818.0</ele>
        <time>2015-08-29T11:13:13Z</time>
      </trkpt>
      <trkpt lat="42.146073" lon="0.988355">
        <ele>1819.0</ele>
        <time>2015-08-29T11:13:14Z</time>
      </trkpt>
      <trkpt lat="42.146045" lon="0.988478">
        <ele>1821.0</ele>
        <time>2015-08-29T11:13:15Z</time>
      </trkpt>
      <trkpt lat="42.146028" lon="0.988588">
        <ele>1823.0</ele>
        <time>2015-08-29T11:13:16Z</time>
      </trkpt>
      <trkpt lat="42.146018" lon="0.988683">
        <ele>1825.0</ele>
        <time>2015-08-29T11:13:17Z</time>
      </trkpt>
      <trkpt lat="42.146013" lon="0.988773">
        <ele>1828.0</ele>
        <time>2015-08-29T11:13:18Z</time>
      </trkpt>
      <trkpt lat="42.146017" lon="0.988868">
        <ele>1830.0</ele>
        <time>2015-08-29T11:13:19Z</time>
      </trkpt>
      <trkpt lat="42.146030" lon="0.988962">
        <ele>1833.0</ele>
        <time>2015-08-29T11:13:20Z</time>
      </trkpt>
      <trkpt lat="42.146065" lon="0.989053">
        <ele>1835.0</ele>
        <time>2015-08-29T11:13:21Z</time>
      </trkpt>
      <trkpt lat="42.146123" lon="0.989125">
        <ele>1838.0</ele>
        <time>2015-08-29T11:13:22Z</time>
      </trkpt>
      <trkpt lat="42.146185" lon="0.989173">
        <ele>1841.0</ele>
        <time>2015-08-29T11:13:23Z</time>
      </trkpt>
      <trkpt lat="42.146243" lon="0.989187">
        <ele>1845.0</ele>
        <time>2015-08-29T11:13:24Z</time>
      </trkpt>
      <trkpt lat="42.146305" lon="0.989185">
        <ele>1848.0</ele>
        <time>2015-08-29T11:13:25Z</time>
      </trkpt>
      <trkpt lat="42.146365" lon="0.989175">
        <ele>1852.0</ele>
        <time>2015-08-29T11:13:26Z</time>
      </trkpt>
      <trkpt lat="42.146433" lon="0.989155">
        <ele>1856.0</ele>
        <time>2015-08-29T11:13:27Z</time>
      </trkpt>
      <trkpt lat="42.146503" lon="0.989120">
        <ele>1860.0</ele>
        <time>2015-08-29T11:13:28Z</time>
      </trkpt>
      <trkpt lat="42.146573" lon="0.989057">
        <ele>1864.0</ele>
        <time>2015-08-29T11:13:29Z</time>
      </trkpt>
      <trkpt lat="42.146633" lon="0.988973">
        <ele>1868.0</ele>
        <time>2015-08-29T11:13:30Z</time>
      </trkpt>
      <trkpt lat="42.146668" lon="0.988875">
        <ele>1873.0</ele>
        <time>2015-08-29T11:13:31Z</time>
      </trkpt>
      <trkpt lat="42.146683" lon="0.988782">
        <ele>1877.0</ele>
        <time>2015-08-29T11:13:32Z</time>
      </trkpt>
      <trkpt lat="42.146678" lon="0.988698">
        <ele>1881.0</ele>
        <time>2015-08-29T11:13:33Z</time>
      </trkpt>
      <trkpt lat="42.146665" lon="0.988617">
        <ele>1884.0</ele>
        <time>2015-08-29T11:13:34Z</time>
      </trkpt>
      <trkpt lat="42.146648" lon="0.988520">
        <ele>1885.0</ele>
        <time>2015-08-29T11:13:35Z</time>
      </trkpt>
      <trkpt lat="42.146625" lon="0.988400">
        <ele>1886.0</ele>
        <time>2015-08-29T11:13:36Z</time>
      </trkpt>
      <trkpt lat="42.146583" lon="0.988285">
        <ele>1888.0</ele>
        <time>2015-08-29T11:13:37Z</time>
      </trkpt>
      <trkpt lat="42.146513" lon="0.988198">
        <ele>1891.0</ele>
        <time>2015-08-29T11:13:38Z</time>
      </trkpt>
      <trkpt lat="42.146428" lon="0.988152">
        <ele>1893.0</ele>
        <time>2015-08-29T11:13:39Z</time>
      </trkpt>
      <trkpt lat="42.146340" lon="0.988117">
        <ele>1895.0</ele>
        <time>2015-08-29T11:13:40Z</time>
      </trkpt>
      <trkpt lat="42.146248" lon="0.988082">
        <ele>1897.0</ele>
        <time>2015-08-29T11:13:41Z</time>
      </trkpt>
      <trkpt lat="42.146155" lon="0.988047">
        <ele>1899.0</ele>
        <time>2015-08-29T11:13:42Z</time>
      </trkpt>
      <trkpt lat="42.146062" lon="0.988025">
        <ele>1901.0</ele>
        <time>2015-08-29T11:13:43Z</time>
      </trkpt>
      <trkpt lat="42.145965" lon="0.988018">
        <ele>1904.0</ele>
        <time>2015-08-29T11:13:44Z</time>
      </trkpt>
      <trkpt lat="42.145867" lon="0.988048">
        <ele>1906.0</ele>
        <time>2015-08-29T11:13:45Z</time>
      </trkpt>
      <trkpt lat="42.145770" lon="0.988087">
        <ele>1908.0</ele>
        <time>2015-08-29T11:13:46Z</time>
      </trkpt>
      <trkpt lat="42.145680" lon="0.988133">
        <ele>1909.0</ele>
        <time>2015-08-29T11:13:47Z</time>
      </trkpt>
      <trkpt lat="42.145605" lon="0.988183">
        <ele>1910.0</ele>
        <time>2015-08-29T11:13:48Z</time>
      </trkpt>
      <trkpt lat="42.145548" lon="0.988233">
        <ele>1912.0</ele>
        <time>2015-08-29T11:13:49Z</time>
      </trkpt>
      <trkpt lat="42.145528" lon="0.988313">
        <ele>1911.0</ele>
        <time>2015-08-29T11:13:50Z</time>
      </trkpt>
      <trkpt lat="42.145515" lon="0.988413">
        <ele>1911.0</ele>
        <time>2015-08-29T11:13:51Z</time>
      </trkpt>
      <trkpt lat="42.145500" lon="0.988528">
        <ele>1911.0</ele>
        <time>2015-08-29T11:13:52Z</time>
      </trkpt>
      <trkpt lat="42.145495" lon="0.988657">
        <ele>1912.0</ele>
        <time>2015-08-29T11:13:53Z</time>
      </trkpt>
      <trkpt lat="42.145515" lon="0.988768">
        <ele>1913.0</ele>
        <time>2015-08-29T11:13:54Z</time>
      </trkpt>
      <trkpt lat="42.145573" lon="0.988863">
        <ele>1914.0</ele>
        <time>2015-08-29T11:13:55Z</time>
      </trkpt>
      <trkpt lat="42.145653" lon="0.988947">
        <ele>1913.0</ele>
        <time>2015-08-29T11:13:56Z</time>
      </trkpt>
      <trkpt lat="42.145723" lon="0.989027">
        <ele>1914.0</ele>
        <time>2015-08-29T11:13:57Z</time>
      </trkpt>
      <trkpt lat="42.145772" lon="0.989107">
        <ele>1914.0</ele>
        <time>2015-08-29T11:13:58Z</time>
      </trkpt>
      <trkpt lat="42.145815" lon="0.989187">
        <ele>1914.0</ele>
        <time>2015-08-29T11:13:59Z</time>
      </trkpt>
      <trkpt lat="42.145882" lon="0.989260">
        <ele>1914.0</ele>
        <time>2015-08-29T11:14:00Z</time>
      </trkpt>
      <trkpt lat="42.145963" lon="0.989337">
        <ele>1915.0</ele>
        <time>2015-08-29T11:14:01Z</time>
      </trkpt>
      <trkpt lat="42.146042" lon="0.989407">
        <ele>1916.0</ele>
        <time>2015-08-29T11:14:02Z</time>
      </trkpt>
      <trkpt lat="42.146115" lon="0.989468">
        <ele>1918.0</ele>
        <time>2015-08-29T11:14:03Z</time>
      </trkpt>
      <trkpt lat="42.146190" lon="0.989525">
        <ele>1920.0</ele>
        <time>2015-08-29T11:14:04Z</time>
      </trkpt>
      <trkpt lat="42.146270" lon="0.989577">
        <ele>1923.0</ele>
        <time>2015-08-29T11:14:05Z</time>
      </trkpt>
      <trkpt lat="42.146352" lon="0.989595">
        <ele>1931.0</ele>
        <time>2015-08-29T11:14:06Z</time>
      </trkpt>
      <trkpt lat="42.146433" lon="0.989597">
        <ele>1936.0</ele>
        <time>2015-08-29T11:14:07Z</time>
      </trkpt>
      <trkpt lat="42.146510" lon="0.989577">
        <ele>1940.0</ele>
        <time>2015-08-29T11:14:08Z</time>
      </trkpt>
      <trkpt lat="42.146578" lon="0.989550">
        <ele>1944.0</ele>
        <time>2015-08-29T11:14:09Z</time>
      </trkpt>
      <trkpt lat="42.146645" lon="0.989518">
        <ele>1947.0</ele>
        <time>2015-08-29T11:14:10Z</time>
      </trkpt>
      <trkpt lat="42.146695" lon="0.989487">
        <ele>1950.0</ele>
        <time>2015-08-29T11:14:11Z</time>
      </trkpt>
      <trkpt lat="42.146748" lon="0.989408">
        <ele>1954.0</ele>
        <time>2015-08-29T11:14:12Z</time>
      </trkpt>
      <trkpt lat="42.146795" lon="0.989303">
        <ele>1957.0</ele>
        <time>2015-08-29T11:14:13Z</time>
      </trkpt>
      <trkpt lat="42.146832" lon="0.989198">
        <ele>1960.0</ele>
        <time>2015-08-29T11:14:14Z</time>
      </trkpt>
      <trkpt lat="42.146857" lon="0.989095">
        <ele>1964.0</ele>
        <time>2015-08-29T11:14:15Z</time>
      </trkpt>
      <trkpt lat="42.146867" lon="0.988988">
        <ele>1969.0</ele>
        <time>2015-08-29T11:14:16Z</time>
      </trkpt>
      <trkpt lat="42.146863" lon="0.988880">
        <ele>1973.0</ele>
        <time>2015-08-29T11:14:17Z</time>
      </trkpt>
      <trkpt lat="42.146842" lon="0.988768">
        <ele>1979.0</ele>
        <time>2015-08-29T11:14:18Z</time>
      </trkpt>
      <trkpt lat="42.146795" lon="0.988662">
        <ele>1984.0</ele>
        <time>2015-08-29T11:14:19Z</time>
      </trkpt>
      <trkpt lat="42.146728" lon="0.988575">
        <ele>1988.0</ele>
        <time>2015-08-29T11:14:20Z</time>
      </trkpt>
      <trkpt lat="42.146638" lon="0.988528">
        <ele>1991.0</ele>
        <time>2015-08-29T11:14:21Z</time>
      </trkpt>
      <trkpt lat="42.146548" lon="0.988515">
        <ele>1994.0</ele>
        <time>2015-08-29T11:14:22Z</time>
      </trkpt>
      <trkpt lat="42.146443" lon="0.988535">
        <ele>1995.0</ele>
        <time>2015-08-29T11:14:23Z</time>
      </trkpt>
      <trkpt lat="42.146358" lon="0.988597">
        <ele>1997.0</ele>
        <time>2015-08-29T11:14:24Z</time>
      </trkpt>
      <trkpt lat="42.146293" lon="0.988703">
        <ele>1999.0</ele>
        <time>2015-08-29T11:14:25Z</time>
      </trkpt>
      <trkpt lat="42.146243" lon="0.988818">
        <ele>2001.0</ele>
        <time>2015-08-29T11:14:26Z</time>
      </trkpt>
      <trkpt lat="42.146215" lon="0.988952">
        <ele>2002.0</ele>
        <time>2015-08-29T11:14:27Z</time>
      </trkpt>
      <trkpt lat="42.146220" lon="0.989068">
        <ele>2005.0</ele>
        <time>2015-08-29T11:14:28Z</time>
      </trkpt>
      <trkpt lat="42.146247" lon="0.989173">
        <ele>2007.0</ele>
        <time>2015-08-29T11:14:29Z</time>
      </trkpt>
      <trkpt lat="42.146293" lon="0.989258">
        <ele>2008.0</ele>
        <time>2015-08-29T11:14:30Z</time>
      </trkpt>
      <trkpt lat="42.146350" lon="0.989322">
        <ele>2010.0</ele>
        <time>2015-08-29T11:14:31Z</time>
      </trkpt>
      <trkpt lat="42.146420" lon="0.989353">
        <ele>2012.0</ele>
        <time>2015-08-29T11:14:32Z</time>
      </trkpt>
      <trkpt lat="42.146488" lon="0.989360">
        <ele>2014.0</ele>
        <time>2015-08-29T11:14:33Z</time>
      </trkpt>
      <trkpt lat="42.146547" lon="0.989350">
        <ele>2017.0</ele>
        <time>2015-08-29T11:14:34Z</time>
      </trkpt>
      <trkpt lat="42.146597" lon="0.989332">
        <ele>2020.0</ele>
        <time>2015-08-29T11:14:35Z</time>
      </trkpt>
      <trkpt lat="42.146642" lon="0.989298">
        <ele>2024.0</ele>
        <time>2015-08-29T11:14:36Z</time>
      </trkpt>
      <trkpt lat="42.146680" lon="0.989233">
        <ele>2027.0</ele>
        <time>2015-08-29T11:14:37Z</time>
      </trkpt>
      <trkpt lat="42.146702" lon="0.989137">
        <ele>2030.0</ele>
        <time>2015-08-29T11:14:38Z</time>
      </trkpt>
      <trkpt lat="42.146698" lon="0.989017">
        <ele>2034.0</ele>
        <time>2015-08-29T11:14:39Z</time>
      </trkpt>
      <trkpt lat="42.146668" lon="0.988912">
        <ele>2039.0</ele>
        <time>2015-08-29T11:14:40Z</time>
      </trkpt>
      <trkpt lat="42.146615" lon="0.988832">
        <ele>2042.0</ele>
        <time>2015-08-29T11:14:41Z</time>
      </trkpt>
      <trkpt lat="42.146550" lon="0.988762">
        <ele>2044.0</ele>
        <time>2015-08-29T11:14:42Z</time>
      </trkpt>
      <trkpt lat="42.146462" lon="0.988703">
        <ele>2045.0</ele>
        <time>2015-08-29T11:14:43Z</time>
      </trkpt>
      <trkpt lat="42.146382" lon="0.988653">
        <ele>2047.0</ele>
        <time>2015-08-29T11:14:44Z</time>
      </trkpt>
      <trkpt lat="42.146300" lon="0.988620">
        <ele>2051.0</ele>
        <time>2015-08-29T11:14:45Z</time>
      </trkpt>
      <trkpt lat="42.146192" lon="0.988608">
        <ele>2052.0</ele>
        <time>2015-08-29T11:14:46Z</time>
      </trkpt>
      <trkpt lat="42.146082" lon="0.988643">
        <ele>2053.0</ele>
        <time>2015-08-29T11:14:47Z</time>
      </trkpt>
      <trkpt lat="42.145980" lon="0.988728">
        <ele>2053.0</ele>
        <time>2015-08-29T11:14:48Z</time>
      </trkpt>
      <trkpt lat="42.145902" lon="0.988832">
        <ele>2054.0</ele>
        <time>2015-08-29T11:14:49Z</time>
      </trkpt>
      <trkpt lat="42.145837" lon="0.988933">
        <ele>2054.0</ele>
        <time>2015-08-29T11:14:50Z</time>
      </trkpt>
      <trkpt lat="42.145773" lon="0.989033">
        <ele>2053.0</ele>
        <time>2015-08-29T11:14:51Z</time>
      </trkpt>
      <trkpt lat="42.145708" lon="0.989135">
        <ele>2052.0</ele>
        <time>2015-08-29T11:14:52Z</time>
      </trkpt>
      <trkpt lat="42.145627" lon="0.989245">
        <ele>2051.0</ele>
        <time>2015-08-29T11:14:53Z</time>
      </trkpt>
      <trkpt lat="42.145562" lon="0.989367">
        <ele>2050.0</ele>
        <time>2015-08-29T11:14:54Z</time>
      </trkpt>
      <trkpt lat="42.145528" lon="0.989510">
        <ele>2049.0</ele>
        <time>2015-08-29T11:14:55Z</time>
      </trkpt>
      <trkpt lat="42.145533" lon="0.989657">
        <ele>2046.0</ele>
        <time>2015-08-29T11:14:56Z</time>
      </trkpt>
      <trkpt lat="42.145558" lon="0.989785">
        <ele>2044.0</ele>
        <time>2015-08-29T11:14:57Z</time>
      </trkpt>
      <trkpt lat="42.145593" lon="0.989902">
        <ele>2042.0</ele>
        <time>2015-08-29T11:14:58Z</time>
      </trkpt>
      <trkpt lat="42.145622" lon="0.990002">
        <ele>2042.0</ele>
        <time>2015-08-29T11:14:59Z</time>
      </trkpt>
      <trkpt lat="42.145665" lon="0.990110">
        <ele>2041.0</ele>
        <time>2015-08-29T11:15:00Z</time>
      </trkpt>
      <trkpt lat="42.145718" lon="0.990210">
        <ele>2040.0</ele>
        <time>2015-08-29T11:15:01Z</time>
      </trkpt>
      <trkpt lat="42.145777" lon="0.990300">
        <ele>2039.0</ele>
        <time>2015-08-29T11:15:02Z</time>
      </trkpt>
      <trkpt lat="42.145845" lon="0.990380">
        <ele>2038.0</ele>
        <time>2015-08-29T11:15:03Z</time>
      </trkpt>
      <trkpt lat="42.145915" lon="0.990462">
        <ele>2037.0</ele>
        <time>2015-08-29T11:15:04Z</time>
      </trkpt>
      <trkpt lat="42.145977" lon="0.990537">
        <ele>2036.0</ele>
        <time>2015-08-29T11:15:05Z</time>
      </trkpt>
      <trkpt lat="42.146037" lon="0.990612">
        <ele>2034.0</ele>
        <time>2015-08-29T11:15:06Z</time>
      </trkpt>
      <trkpt lat="42.146092" lon="0.990692">
        <ele>2033.0</ele>
        <time>2015-08-29T11:15:07Z</time>
      </trkpt>
      <trkpt lat="42.146153" lon="0.990782">
        <ele>2031.0</ele>
        <time>2015-08-29T11:15:08Z</time>
      </trkpt>
      <trkpt lat="42.146225" lon="0.990883">
        <ele>2030.0</ele>
        <time>2015-08-29T11:15:09Z</time>
      </trkpt>
      <trkpt lat="42.146303" lon="0.990985">
        <ele>2029.0</ele>
        <time>2015-08-29T11:15:10Z</time>
      </trkpt>
      <trkpt lat="42.146385" lon="0.991093">
        <ele>2028.0</ele>
        <time>2015-08-29T11:15:11Z</time>
      </trkpt>
      <trkpt lat="42.146452" lon="0.991197">
        <ele>2027.0</ele>
        <time>2015-08-29T11:15:12Z</time>
      </trkpt>
      <trkpt lat="42.146512" lon="0.991297">
        <ele>2027.0</ele>
        <time>2015-08-29T11:15:13Z</time>
      </trkpt>
      <trkpt lat="42.146572" lon="0.991393">
        <ele>2025.0</ele>
        <time>2015-08-29T11:15:14Z</time>
      </trkpt>
      <trkpt lat="42.146638" lon="0.991483">
        <ele>2023.0</ele>
        <time>2015-08-29T11:15:15Z</time>
      </trkpt>
      <trkpt lat="42.146712" lon="0.991582">
        <ele>2022.0</ele>
        <time>2015-08-29T11:15:16Z</time>
      </trkpt>
      <trkpt lat="42.146787" lon="0.991697">
        <ele>2020.0</ele>
        <time>2015-08-29T11:15:17Z</time>
      </trkpt>
      <trkpt lat="42.146853" lon="0.991817">
        <ele>2019.0</ele>
        <time>2015-08-29T11:15:18Z</time>
      </trkpt>
      <trkpt lat="42.146908" lon="0.991930">
        <ele>2019.0</ele>
        <time>2015-08-29T11:15:19Z</time>
      </trkpt>
      <trkpt lat="42.146958" lon="0.992058">
        <ele>2017.0</ele>
        <time>2015-08-29T11:15:20Z</time>
      </trkpt>
      <trkpt lat="42.147012" lon="0.992178">
        <ele>2015.0</ele>
        <time>2015-08-29T11:15:21Z</time>
      </trkpt>
      <trkpt lat="42.147073" lon="0.992283">
        <ele>2014.0</ele>
        <time>2015-08-29T11:15:22Z</time>
      </trkpt>
      <trkpt lat="42.147157" lon="0.992372">
        <ele>2011.0</ele>
        <time>2015-08-29T11:15:23Z</time>
      </trkpt>
      <trkpt lat="42.147257" lon="0.992447">
        <ele>2009.0</ele>
        <time>2015-08-29T11:15:24Z</time>
      </trkpt>
      <trkpt lat="42.147370" lon="0.992515">
        <ele>2008.0</ele>
        <time>2015-08-29T11:15:25Z</time>
      </trkpt>
      <trkpt lat="42.147483" lon="0.992580">
        <ele>2007.0</ele>
        <time>2015-08-29T11:15:26Z</time>
      </trkpt>
      <trkpt lat="42.147582" lon="0.992630">
        <ele>2006.0</ele>
        <time>2015-08-29T11:15:27Z</time>
      </trkpt>
      <trkpt lat="42.147665" lon="0.992645">
        <ele>2005.0</ele>
        <time>2015-08-29T11:15:28Z</time>
      </trkpt>
      <trkpt lat="42.147747" lon="0.992625">
        <ele>2003.0</ele>
        <time>2015-08-29T11:15:29Z</time>
      </trkpt>
      <trkpt lat="42.147833" lon="0.992592">
        <ele>2002.0</ele>
        <time>2015-08-29T11:15:30Z</time>
      </trkpt>
      <trkpt lat="42.147942" lon="0.992538">
        <ele>2003.0</ele>
        <time>2015-08-29T11:15:31Z</time>
      </trkpt>
      <trkpt lat="42.148043" lon="0.992513">
        <ele>2004.0</ele>
        <time>2015-08-29T11:15:32Z</time>
      </trkpt>
      <trkpt lat="42.148137" lon="0.992503">
        <ele>2006.0</ele>
        <time>2015-08-29T11:15:33Z</time>
      </trkpt>
      <trkpt lat="42.148222" lon="0.992498">
        <ele>2007.0</ele>
        <time>2015-08-29T11:15:34Z</time>
      </trkpt>
      <trkpt lat="42.148300" lon="0.992498">
        <ele>2009.0</ele>
        <time>2015-08-29T11:15:35Z</time>
      </trkpt>
      <trkpt lat="42.148382" lon="0.992497">
        <ele>2011.0</ele>
        <time>2015-08-29T11:15:36Z</time>
      </trkpt>
      <trkpt lat="42.148477" lon="0.992500">
        <ele>2013.0</ele>
        <time>2015-08-29T11:15:37Z</time>
      </trkpt>
      <trkpt lat="42.148578" lon="0.992525">
        <ele>2015.0</ele>
        <time>2015-08-29T11:15:38Z</time>
      </trkpt>
      <trkpt lat="42.148675" lon="0.992570">
        <ele>2016.0</ele>
        <time>2015-08-29T11:15:39Z</time>
      </trkpt>
      <trkpt lat="42.148757" lon="0.992625">
        <ele>2018.0</ele>
        <time>2015-08-29T11:15:40Z</time>
      </trkpt>
      <trkpt lat="42.148828" lon="0.992698">
        <ele>2019.0</ele>
        <time>2015-08-29T11:15:41Z</time>
      </trkpt>
      <trkpt lat="42.148897" lon="0.992782">
        <ele>2020.0</ele>
        <time>2015-08-29T11:15:42Z</time>
      </trkpt>
      <trkpt lat="42.148965" lon="0.992875">
        <ele>2022.0</ele>
        <time>2015-08-29T11:15:43Z</time>
      </trkpt>
      <trkpt lat="42.149033" lon="0.992980">
        <ele>2024.0</ele>
        <time>2015-08-29T11:15:44Z</time>
      </trkpt>
      <trkpt lat="42.149100" lon="0.993097">
        <ele>2026.0</ele>
        <time>2015-08-29T11:15:45Z</time>
      </trkpt>
      <trkpt lat="42.149150" lon="0.993217">
        <ele>2028.0</ele>
        <time>2015-08-29T11:15:46Z</time>
      </trkpt>
      <trkpt lat="42.149173" lon="0.993318">
        <ele>2033.0</ele>
        <time>2015-08-29T11:15:47Z</time>
      </trkpt>
      <trkpt lat="42.149190" lon="0.993425">
        <ele>2036.0</ele>
        <time>2015-08-29T11:15:48Z</time>
      </trkpt>
      <trkpt lat="42.149200" lon="0.993525">
        <ele>2038.0</ele>
        <time>2015-08-29T11:15:49Z</time>
      </trkpt>
      <trkpt lat="42.149207" lon="0.993633">
        <ele>2038.0</ele>
        <time>2015-08-29T11:15:50Z</time>
      </trkpt>
      <trkpt lat="42.149203" lon="0.993745">
        <ele>2039.0</ele>
        <time>2015-08-29T11:15:51Z</time>
      </trkpt>
      <trkpt lat="42.149185" lon="0.993855">
        <ele>2040.0</ele>
        <time>2015-08-29T11:15:52Z</time>
      </trkpt>
      <trkpt lat="42.149160" lon="0.993957">
        <ele>2042.0</ele>
        <time>2015-08-29T11:15:53Z</time>
      </trkpt>
      <trkpt lat="42.149122" lon="0.994052">
        <ele>2044.0</ele>
        <time>2015-08-29T11:15:54Z</time>
      </trkpt>
      <trkpt lat="42.149075" lon="0.994127">
        <ele>2044.0</ele>
        <time>2015-08-29T11:15:55Z</time>
      </trkpt>
      <trkpt lat="42.149027" lon="0.994202">
        <ele>2045.0</ele>
        <time>2015-08-29T11:15:56Z</time>
      </trkpt>
      <trkpt lat="42.148972" lon="0.994272">
        <ele>2045.0</ele>
        <time>2015-08-29T11:15:57Z</time>
      </trkpt>
      <trkpt lat="42.148912" lon="0.994327">
        <ele>2046.0</ele>
        <time>2015-08-29T11:15:58Z</time>
      </trkpt>
      <trkpt lat="42.148847" lon="0.994363">
        <ele>2048.0</ele>
        <time>2015-08-29T11:15:59Z</time>
      </trkpt>
      <trkpt lat="42.148780" lon="0.994372">
        <ele>2049.0</ele>
        <time>2015-08-29T11:16:00Z</time>
      </trkpt>
      <trkpt lat="42.148715" lon="0.994352">
        <ele>2050.0</ele>
        <time>2015-08-29T11:16:01Z</time>
      </trkpt>
      <trkpt lat="42.148650" lon="0.994312">
        <ele>2051.0</ele>
        <time>2015-08-29T11:16:02Z</time>
      </trkpt>
      <trkpt lat="42.148593" lon="0.994262">
        <ele>2053.0</ele>
        <time>2015-08-29T11:16:03Z</time>
      </trkpt>
      <trkpt lat="42.148540" lon="0.994198">
        <ele>2054.0</ele>
        <time>2015-08-29T11:16:04Z</time>
      </trkpt>
      <trkpt lat="42.148497" lon="0.994117">
        <ele>2055.0</ele>
        <time>2015-08-29T11:16:05Z</time>
      </trkpt>
      <trkpt lat="42.148465" lon="0.994023">
        <ele>2056.0</ele>
        <time>2015-08-29T11:16:06Z</time>
      </trkpt>
      <trkpt lat="42.148442" lon="0.993925">
        <ele>2057.0</ele>
        <time>2015-08-29T11:16:07Z</time>
      </trkpt>
      <trkpt lat="42.148423" lon="0.993813">
        <ele>2058.0</ele>
        <time>2015-08-29T11:16:08Z</time>
      </trkpt>
      <trkpt lat="42.148417" lon="0.993712">
        <ele>2059.0</ele>
        <time>2015-08-29T11:16:09Z</time>
      </trkpt>
      <trkpt lat="42.148422" lon="0.993595">
        <ele>2060.0</ele>
        <time>2015-08-29T11:16:10Z</time>
      </trkpt>
      <trkpt lat="42.148443" lon="0.993463">
        <ele>2061.0</ele>
        <time>2015-08-29T11:16:11Z</time>
      </trkpt>
      <trkpt lat="42.148485" lon="0.993348">
        <ele>2061.0</ele>
        <time>2015-08-29T11:16:12Z</time>
      </trkpt>
      <trkpt lat="42.148537" lon="0.993242">
        <ele>2063.0</ele>
        <time>2015-08-29T11:16:13Z</time>
      </trkpt>
      <trkpt lat="42.148588" lon="0.993150">
        <ele>2064.0</ele>
        <time>2015-08-29T11:16:14Z</time>
      </trkpt>
      <trkpt lat="42.148642" lon="0.993065">
        <ele>2067.0</ele>
        <time>2015-08-29T11:16:15Z</time>
      </trkpt>
      <trkpt lat="42.148697" lon="0.992985">
        <ele>2069.0</ele>
        <time>2015-08-29T11:16:16Z</time>
      </trkpt>
      <trkpt lat="42.148755" lon="0.992908">
        <ele>2072.0</ele>
        <time>2015-08-29T11:16:17Z</time>
      </trkpt>
      <trkpt lat="42.148820" lon="0.992837">
        <ele>2074.0</ele>
        <time>2015-08-29T11:16:18Z</time>
      </trkpt>
      <trkpt lat="42.148890" lon="0.992768">
        <ele>2077.0</ele>
        <time>2015-08-29T11:16:19Z</time>
      </trkpt>
      <trkpt lat="42.148962" lon="0.992708">
        <ele>2080.0</ele>
        <time>2015-08-29T11:16:20Z</time>
      </trkpt>
      <trkpt lat="42.149037" lon="0.992653">
        <ele>2082.0</ele>
        <time>2015-08-29T11:16:21Z</time>
      </trkpt>
      <trkpt lat="42.149112" lon="0.992602">
        <ele>2084.0</ele>
        <time>2015-08-29T11:16:22Z</time>
      </trkpt>
      <trkpt lat="42.149187" lon="0.992550">
        <ele>2087.0</ele>
        <time>2015-08-29T11:16:23Z</time>
      </trkpt>
      <trkpt lat="42.149258" lon="0.992502">
        <ele>2089.0</ele>
        <time>2015-08-29T11:16:24Z</time>
      </trkpt>
      <trkpt lat="42.149328" lon="0.992468">
        <ele>2091.0</ele>
        <time>2015-08-29T11:16:25Z</time>
      </trkpt>
      <trkpt lat="42.149407" lon="0.992470">
        <ele>2092.0</ele>
        <time>2015-08-29T11:16:26Z</time>
      </trkpt>
      <trkpt lat="42.149488" lon="0.992490">
        <ele>2094.0</ele>
        <time>2015-08-29T11:16:27Z</time>
      </trkpt>
      <trkpt lat="42.149575" lon="0.992522">
        <ele>2096.0</ele>
        <time>2015-08-29T11:16:28Z</time>
      </trkpt>
      <trkpt lat="42.149652" lon="0.992555">
        <ele>2098.0</ele>
        <time>2015-08-29T11:16:29Z</time>
      </trkpt>
      <trkpt lat="42.149723" lon="0.992588">
        <ele>2099.0</ele>
        <time>2015-08-29T11:16:30Z</time>
      </trkpt>
      <trkpt lat="42.149792" lon="0.992628">
        <ele>2101.0</ele>
        <time>2015-08-29T11:16:31Z</time>
      </trkpt>
      <trkpt lat="42.149860" lon="0.992673">
        <ele>2103.0</ele>
        <time>2015-08-29T11:16:32Z</time>
      </trkpt>
      <trkpt lat="42.149920" lon="0.992737">
        <ele>2105.0</ele>
        <time>2015-08-29T11:16:33Z</time>
      </trkpt>
      <trkpt lat="42.149968" lon="0.992822">
        <ele>2107.0</ele>
        <time>2015-08-29T11:16:34Z</time>
      </trkpt>
      <trkpt lat="42.150000" lon="0.992927">
        <ele>2108.0</ele>
        <time>2015-08-29T11:16:35Z</time>
      </trkpt>
      <trkpt lat="42.150018" lon="0.993040">
        <ele>2111.0</ele>
        <time>2015-08-29T11:16:36Z</time>
      </trkpt>
      <trkpt lat="42.150018" lon="0.993153">
        <ele>2113.0</ele>
        <time>2015-08-29T11:16:37Z</time>
      </trkpt>
      <trkpt lat="42.150002" lon="0.993262">
        <ele>2117.0</ele>
        <time>2015-08-29T11:16:38Z</time>
      </trkpt>
      <trkpt lat="42.149973" lon="0.993362">
        <ele>2120.0</ele>
        <time>2015-08-29T11:16:39Z</time>
      </trkpt>
      <trkpt lat="42.149935" lon="0.993453">
        <ele>2124.0</ele>
        <time>2015-08-29T11:16:40Z</time>
      </trkpt>
      <trkpt lat="42.149893" lon="0.993538">
        <ele>2127.0</ele>
        <time>2015-08-29T11:16:41Z</time>
      </trkpt>
      <trkpt lat="42.149853" lon="0.993622">
        <ele>2130.0</ele>
        <time>2015-08-29T11:16:42Z</time>
      </trkpt>
      <trkpt lat="42.149810" lon="0.993683">
        <ele>2132.0</ele>
        <time>2015-08-29T11:16:43Z</time>
      </trkpt>
      <trkpt lat="42.149760" lon="0.993738">
        <ele>2134.0</ele>
        <time>2015-08-29T11:16:44Z</time>
      </trkpt>
      <trkpt lat="42.149693" lon="0.993782">
        <ele>2135.0</ele>
        <time>2015-08-29T11:16:45Z</time>
      </trkpt>
      <trkpt lat="42.149622" lon="0.993807">
        <ele>2136.0</ele>
        <time>2015-08-29T11:16:46Z</time>
      </trkpt>
      <trkpt lat="42.149553" lon="0.993815">
        <ele>2136.0</ele>
        <time>2015-08-29T11:16:47Z</time>
      </trkpt>
      <trkpt lat="42.149487" lon="0.993815">
        <ele>2137.0</ele>
        <time>2015-08-29T11:16:48Z</time>
      </trkpt>
      <trkpt lat="42.149423" lon="0.993798">
        <ele>2138.0</ele>
        <time>2015-08-29T11:16:49Z</time>
      </trkpt>
      <trkpt lat="42.149348" lon="0.993757">
        <ele>2138.0</ele>
        <time>2015-08-29T11:16:50Z</time>
      </trkpt>
      <trkpt lat="42.149277" lon="0.993705">
        <ele>2138.0</ele>
        <time>2015-08-29T11:16:51Z</time>
      </trkpt>
      <trkpt lat="42.149208" lon="0.993648">
        <ele>2138.0</ele>
        <time>2015-08-29T11:16:52Z</time>
      </trkpt>
      <trkpt lat="42.149145" lon="0.993588">
        <ele>2139.0</ele>
        <time>2015-08-29T11:16:53Z</time>
      </trkpt>
      <trkpt lat="42.149092" lon="0.993518">
        <ele>2139.0</ele>
        <time>2015-08-29T11:16:54Z</time>
      </trkpt>
      <trkpt lat="42.149047" lon="0.993437">
        <ele>2140.0</ele>
        <time>2015-08-29T11:16:55Z</time>
      </trkpt>
      <trkpt lat="42.149003" lon="0.993348">
        <ele>2141.0</ele>
        <time>2015-08-29T11:16:56Z</time>
      </trkpt>
      <trkpt lat="42.148953" lon="0.993255">
        <ele>2141.0</ele>
        <time>2015-08-29T11:16:57Z</time>
      </trkpt>
      <trkpt lat="42.148900" lon="0.993155">
        <ele>2142.0</ele>
        <time>2015-08-29T11:16:58Z</time>
      </trkpt>
      <trkpt lat="42.148850" lon="0.993045">
        <ele>2143.0</ele>
        <time>2015-08-29T11:16:59Z</time>
      </trkpt>
      <trkpt lat="42.148823" lon="0.992923">
        <ele>2144.0</ele>
        <time>2015-08-29T11:17:00Z</time>
      </trkpt>
      <trkpt lat="42.148810" lon="0.992802">
        <ele>2146.0</ele>
        <time>2015-08-29T11:17:01Z</time>
      </trkpt>
      <trkpt lat="42.148798" lon="0.992677">
        <ele>2146.0</ele>
        <time>2015-08-29T11:17:02Z</time>
      </trkpt>
      <trkpt lat="42.148783" lon="0.992553">
        <ele>2146.0</ele>
        <time>2015-08-29T11:17:03Z</time>
      </trkpt>
      <trkpt lat="42.148772" lon="0.992448">
        <ele>2146.0</ele>
        <time>2015-08-29T11:17:04Z</time>
      </trkpt>
      <trkpt lat="42.148755" lon="0.992352">
        <ele>2147.0</ele>
        <time>2015-08-29T11:17:05Z</time>
      </trkpt>
      <trkpt lat="42.148737" lon="0.992263">
        <ele>2147.0</ele>
        <time>2015-08-29T11:17:06Z</time>
      </trkpt>
      <trkpt lat="42.148702" lon="0.992222">
        <ele>2147.0</ele>
        <time>2015-08-29T11:17:07Z</time>
      </trkpt>
      <trkpt lat="42.148657" lon="0.992185">
        <ele>2148.0</ele>
        <time>2015-08-29T11:17:08Z</time>
      </trkpt>
      <trkpt lat="42.148588" lon="0.992170">
        <ele>2148.0</ele>
        <time>2015-08-29T11:17:09Z</time>
      </trkpt>
      <trkpt lat="42.148503" lon="0.992192">
        <ele>2148.0</ele>
        <time>2015-08-29T11:17:10Z</time>
      </trkpt>
      <trkpt lat="42.148423" lon="0.992253">
        <ele>2148.0</ele>
        <time>2015-08-29T11:17:11Z</time>
      </trkpt>
      <trkpt lat="42.148357" lon="0.992330">
        <ele>2149.0</ele>
        <time>2015-08-29T11:17:12Z</time>
      </trkpt>
      <trkpt lat="42.148307" lon="0.992412">
        <ele>2149.0</ele>
        <time>2015-08-29T11:17:13Z</time>
      </trkpt>
      <trkpt lat="42.148282" lon="0.992502">
        <ele>2148.0</ele>
        <time>2015-08-29T11:17:14Z</time>
      </trkpt>
      <trkpt lat="42.148265" lon="0.992597">
        <ele>2146.0</ele>
        <time>2015-08-29T11:17:15Z</time>
      </trkpt>
      <trkpt lat="42.148248" lon="0.992688">
        <ele>2144.0</ele>
        <time>2015-08-29T11:17:16Z</time>
      </trkpt>
      <trkpt lat="42.148260" lon="0.992778">
        <ele>2144.0</ele>
        <time>2015-08-29T11:17:17Z</time>
      </trkpt>
      <trkpt lat="42.148302" lon="0.992872">
        <ele>2142.0</ele>
        <time>2015-08-29T11:17:18Z</time>
      </trkpt>
      <trkpt lat="42.148370" lon="0.992952">
        <ele>2141.0</ele>
        <time>2015-08-29T11:17:19Z</time>
      </trkpt>
      <trkpt lat="42.148440" lon="0.993018">
        <ele>2140.0</ele>
        <time>2015-08-29T11:17:20Z</time>
      </trkpt>
      <trkpt lat="42.148507" lon="0.993072">
        <ele>2140.0</ele>
        <time>2015-08-29T11:17:21Z</time>
      </trkpt>
      <trkpt lat="42.148573" lon="0.993107">
        <ele>2139.0</ele>
        <time>2015-08-29T11:17:22Z</time>
      </trkpt>
      <trkpt lat="42.148647" lon="0.993130">
        <ele>2138.0</ele>
        <time>2015-08-29T11:17:23Z</time>
      </trkpt>
      <trkpt lat="42.148730" lon="0.993135">
        <ele>2137.0</ele>
        <time>2015-08-29T11:17:24Z</time>
      </trkpt>
      <trkpt lat="42.148820" lon="0.993125">
        <ele>2135.0</ele>
        <time>2015-08-29T11:17:25Z</time>
      </trkpt>
      <trkpt lat="42.148918" lon="0.993108">
        <ele>2133.0</ele>
        <time>2015-08-29T11:17:26Z</time>
      </trkpt>
      <trkpt lat="42.149022" lon="0.993102">
        <ele>2132.0</ele>
        <time>2015-08-29T11:17:27Z</time>
      </trkpt>
      <trkpt lat="42.149127" lon="0.993110">
        <ele>2132.0</ele>
        <time>2015-08-29T11:17:28Z</time>
      </trkpt>
      <trkpt lat="42.149230" lon="0.993128">
        <ele>2132.0</ele>
        <time>2015-08-29T11:17:29Z</time>
      </trkpt>
      <trkpt lat="42.149332" lon="0.993150">
        <ele>2133.0</ele>
        <time>2015-08-29T11:17:30Z</time>
      </trkpt>
      <trkpt lat="42.149430" lon="0.993165">
        <ele>2134.0</ele>
        <time>2015-08-29T11:17:31Z</time>
      </trkpt>
      <trkpt lat="42.149525" lon="0.993182">
        <ele>2135.0</ele>
        <time>2015-08-29T11:17:32Z</time>
      </trkpt>
      <trkpt lat="42.149618" lon="0.993203">
        <ele>2136.0</ele>
        <time>2015-08-29T11:17:33Z</time>
      </trkpt>
      <trkpt lat="42.149707" lon="0.993240">
        <ele>2137.0</ele>
        <time>2015-08-29T11:17:34Z</time>
      </trkpt>
      <trkpt lat="42.149798" lon="0.993280">
        <ele>2137.0</ele>
        <time>2015-08-29T11:17:35Z</time>
      </trkpt>
      <trkpt lat="42.149880" lon="0.993317">
        <ele>2138.0</ele>
        <time>2015-08-29T11:17:36Z</time>
      </trkpt>
      <trkpt lat="42.149948" lon="0.993352">
        <ele>2139.0</ele>
        <time>2015-08-29T11:17:37Z</time>
      </trkpt>
      <trkpt lat="42.150013" lon="0.993388">
        <ele>2140.0</ele>
        <time>2015-08-29T11:17:38Z</time>
      </trkpt>
      <trkpt lat="42.150083" lon="0.993425">
        <ele>2141.0</ele>
        <time>2015-08-29T11:17:39Z</time>
      </trkpt>
      <trkpt lat="42.150165" lon="0.993448">
        <ele>2142.0</ele>
        <time>2015-08-29T11:17:40Z</time>
      </trkpt>
      <trkpt lat="42.150252" lon="0.993470">
        <ele>2143.0</ele>
        <time>2015-08-29T11:17:41Z</time>
      </trkpt>
      <trkpt lat="42.150340" lon="0.993493">
        <ele>2144.0</ele>
        <time>2015-08-29T11:17:42Z</time>
      </trkpt>
      <trkpt lat="42.150428" lon="0.993518">
        <ele>2146.0</ele>
        <time>2015-08-29T11:17:43Z</time>
      </trkpt>
      <trkpt lat="42.150512" lon="0.993543">
        <ele>2148.0</ele>
        <time>2015-08-29T11:17:44Z</time>
      </trkpt>
      <trkpt lat="42.150592" lon="0.993565">
        <ele>2150.0</ele>
        <time>2015-08-29T11:17:45Z</time>
      </trkpt>
      <trkpt lat="42.150670" lon="0.993583">
        <ele>2152.0</ele>
        <time>2015-08-29T11:17:46Z</time>
      </trkpt>
      <trkpt lat="42.150743" lon="0.993610">
        <ele>2155.0</ele>
        <time>2015-08-29T11:17:47Z</time>
      </trkpt>
      <trkpt lat="42.150813" lon="0.993647">
        <ele>2156.0</ele>
        <time>2015-08-29T11:17:48Z</time>
      </trkpt>
      <trkpt lat="42.150880" lon="0.993697">
        <ele>2157.0</ele>
        <time>2015-08-29T11:17:49Z</time>
      </trkpt>
      <trkpt lat="42.150948" lon="0.993750">
        <ele>2158.0</ele>
        <time>2015-08-29T11:17:50Z</time>
      </trkpt>
      <trkpt lat="42.151015" lon="0.993810">
        <ele>2159.0</ele>
        <time>2015-08-29T11:17:51Z</time>
      </trkpt>
      <trkpt lat="42.151078" lon="0.993877">
        <ele>2161.0</ele>
        <time>2015-08-29T11:17:52Z</time>
      </trkpt>
      <trkpt lat="42.151142" lon="0.993972">
        <ele>2161.0</ele>
        <time>2015-08-29T11:17:53Z</time>
      </trkpt>
      <trkpt lat="42.151197" lon="0.994085">
        <ele>2161.0</ele>
        <time>2015-08-29T11:17:54Z</time>
      </trkpt>
      <trkpt lat="42.151242" lon="0.994205">
        <ele>2162.0</ele>
        <time>2015-08-29T11:17:55Z</time>
      </trkpt>
      <trkpt lat="42.151270" lon="0.994315">
        <ele>2163.0</ele>
        <time>2015-08-29T11:17:56Z</time>
      </trkpt>
      <trkpt lat="42.151295" lon="0.994415">
        <ele>2164.0</ele>
        <time>2015-08-29T11:17:57Z</time>
      </trkpt>
      <trkpt lat="42.151322" lon="0.994505">
        <ele>2165.0</ele>
        <time>2015-08-29T11:17:58Z</time>
      </trkpt>
      <trkpt lat="42.151352" lon="0.994595">
        <ele>2165.0</ele>
        <time>2015-08-29T11:17:59Z</time>
      </trkpt>
      <trkpt lat="42.151387" lon="0.994703">
        <ele>2165.0</ele>
        <time>2015-08-29T11:18:00Z</time>
      </trkpt>
      <trkpt lat="42.151420" lon="0.994820">
        <ele>2166.0</ele>
        <time>2015-08-29T11:18:01Z</time>
      </trkpt>
      <trkpt lat="42.151450" lon="0.994938">
        <ele>2167.0</ele>
        <time>2015-08-29T11:18:02Z</time>
      </trkpt>
      <trkpt lat="42.151482" lon="0.995050">
        <ele>2167.0</ele>
        <time>2015-08-29T11:18:03Z</time>
      </trkpt>
      <trkpt lat="42.151517" lon="0.995157">
        <ele>2167.0</ele>
        <time>2015-08-29T11:18:04Z</time>
      </trkpt>
      <trkpt lat="42.151550" lon="0.995262">
        <ele>2167.0</ele>
        <time>2015-08-29T11:18:05Z</time>
      </trkpt>
      <trkpt lat="42.151577" lon="0.995378">
        <ele>2167.0</ele>
        <time>2015-08-29T11:18:06Z</time>
      </trkpt>
      <trkpt lat="42.151595" lon="0.995500">
        <ele>2167.0</ele>
        <time>2015-08-29T11:18:07Z</time>
      </trkpt>
      <trkpt lat="42.151610" lon="0.995610">
        <ele>2168.0</ele>
        <time>2015-08-29T11:18:08Z</time>
      </trkpt>
      <trkpt lat="42.151638" lon="0.995720">
        <ele>2168.0</ele>
        <time>2015-08-29T11:18:09Z</time>
      </trkpt>
      <trkpt lat="42.151687" lon="0.995832">
        <ele>2168.0</ele>
        <time>2015-08-29T11:18:10Z</time>
      </trkpt>
      <trkpt lat="42.151740" lon="0.995947">
        <ele>2168.0</ele>
        <time>2015-08-29T11:18:11Z</time>
      </trkpt>
      <trkpt lat="42.151797" lon="0.996062">
        <ele>2169.0</ele>
        <time>2015-08-29T11:18:12Z</time>
      </trkpt>
      <trkpt lat="42.151857" lon="0.996168">
        <ele>2170.0</ele>
        <time>2015-08-29T11:18:13Z</time>
      </trkpt>
      <trkpt lat="42.151918" lon="0.996273">
        <ele>2171.0</ele>
        <time>2015-08-29T11:18:14Z</time>
      </trkpt>
      <trkpt lat="42.151987" lon="0.996377">
        <ele>2171.0</ele>
        <time>2015-08-29T11:18:15Z</time>
      </trkpt>
      <trkpt lat="42.152063" lon="0.996463">
        <ele>2172.0</ele>
        <time>2015-08-29T11:18:16Z</time>
      </trkpt>
      <trkpt lat="42.152155" lon="0.996537">
        <ele>2172.0</ele>
        <time>2015-08-29T11:18:17Z</time>
      </trkpt>
      <trkpt lat="42.152255" lon="0.996598">
        <ele>2172.0</ele>
        <time>2015-08-29T11:18:18Z</time>
      </trkpt>
      <trkpt lat="42.152353" lon="0.996648">
        <ele>2174.0</ele>
        <time>2015-08-29T11:18:19Z</time>
      </trkpt>
      <trkpt lat="42.152448" lon="0.996682">
        <ele>2176.0</ele>
        <time>2015-08-29T11:18:20Z</time>
      </trkpt>
      <trkpt lat="42.152538" lon="0.996700">
        <ele>2178.0</ele>
        <time>2015-08-29T11:18:21Z</time>
      </trkpt>
      <trkpt lat="42.152627" lon="0.996705">
        <ele>2179.0</ele>
        <time>2015-08-29T11:18:22Z</time>
      </trkpt>
      <trkpt lat="42.152718" lon="0.996703">
        <ele>2180.0</ele>
        <time>2015-08-29T11:18:23Z</time>
      </trkpt>
      <trkpt lat="42.152817" lon="0.996697">
        <ele>2180.0</ele>
        <time>2015-08-29T11:18:24Z</time>
      </trkpt>
      <trkpt lat="42.152918" lon="0.996688">
        <ele>2181.0</ele>
        <time>2015-08-29T11:18:25Z</time>
      </trkpt>
      <trkpt lat="42.153017" lon="0.996667">
        <ele>2183.0</ele>
        <time>2015-08-29T11:18:26Z</time>
      </trkpt>
      <trkpt lat="42.153110" lon="0.996618">
        <ele>2184.0</ele>
        <time>2015-08-29T11:18:27Z</time>
      </trkpt>
      <trkpt lat="42.153193" lon="0.996565">
        <ele>2185.0</ele>
        <time>2015-08-29T11:18:28Z</time>
      </trkpt>
      <trkpt lat="42.153273" lon="0.996520">
        <ele>2186.0</ele>
        <time>2015-08-29T11:18:29Z</time>
      </trkpt>
      <trkpt lat="42.153355" lon="0.996462">
        <ele>2187.0</ele>
        <time>2015-08-29T11:18:30Z</time>
      </trkpt>
      <trkpt lat="42.153438" lon="0.996402">
        <ele>2187.0</ele>
        <time>2015-08-29T11:18:31Z</time>
      </trkpt>
      <trkpt lat="42.153528" lon="0.996333">
        <ele>2187.0</ele>
        <time>2015-08-29T11:18:32Z</time>
      </trkpt>
      <trkpt lat="42.153613" lon="0.996273">
        <ele>2188.0</ele>
        <time>2015-08-29T11:18:33Z</time>
      </trkpt>
      <trkpt lat="42.153692" lon="0.996220">
        <ele>2188.0</ele>
        <time>2015-08-29T11:18:34Z</time>
      </trkpt>
      <trkpt lat="42.153757" lon="0.996158">
        <ele>2189.0</ele>
        <time>2015-08-29T11:18:35Z</time>
      </trkpt>
      <trkpt lat="42.153818" lon="0.996068">
        <ele>2188.0</ele>
        <time>2015-08-29T11:18:36Z</time>
      </trkpt>
      <trkpt lat="42.153878" lon="0.995958">
        <ele>2188.0</ele>
        <time>2015-08-29T11:18:37Z</time>
      </trkpt>
      <trkpt lat="42.153933" lon="0.995850">
        <ele>2187.0</ele>
        <time>2015-08-29T11:18:38Z</time>
      </trkpt>
      <trkpt lat="42.153980" lon="0.995747">
        <ele>2187.0</ele>
        <time>2015-08-29T11:18:39Z</time>
      </trkpt>
      <trkpt lat="42.154020" lon="0.995645">
        <ele>2187.0</ele>
        <time>2015-08-29T11:18:40Z</time>
      </trkpt>
      <trkpt lat="42.154057" lon="0.995532">
        <ele>2187.0</ele>
        <time>2015-08-29T11:18:41Z</time>
      </trkpt>
      <trkpt lat="42.154097" lon="0.995413">
        <ele>2188.0</ele>
        <time>2015-08-29T11:18:42Z</time>
      </trkpt>
      <trkpt lat="42.154133" lon="0.995290">
        <ele>2189.0</ele>
        <time>2015-08-29T11:18:43Z</time>
      </trkpt>
      <trkpt lat="42.154168" lon="0.995165">
        <ele>2191.0</ele>
        <time>2015-08-29T11:18:44Z</time>
      </trkpt>
      <trkpt lat="42.154197" lon="0.995055">
        <ele>2194.0</ele>
        <time>2015-08-29T11:18:45Z</time>
      </trkpt>
      <trkpt lat="42.154223" lon="0.994958">
        <ele>2197.0</ele>
        <time>2015-08-29T11:18:46Z</time>
      </trkpt>
      <trkpt lat="42.154257" lon="0.994867">
        <ele>2200.0</ele>
        <time>2015-08-29T11:18:47Z</time>
      </trkpt>
      <trkpt lat="42.154297" lon="0.994775">
        <ele>2202.0</ele>
        <time>2015-08-29T11:18:48Z</time>
      </trkpt>
      <trkpt lat="42.154337" lon="0.994682">
        <ele>2204.0</ele>
        <time>2015-08-29T11:18:49Z</time>
      </trkpt>
      <trkpt lat="42.154367" lon="0.994592">
        <ele>2205.0</ele>
        <time>2015-08-29T11:18:50Z</time>
      </trkpt>
      <trkpt lat="42.154385" lon="0.994508">
        <ele>2207.0</ele>
        <time>2015-08-29T11:18:51Z</time>
      </trkpt>
      <trkpt lat="42.154398" lon="0.994427">
        <ele>2209.0</ele>
        <time>2015-08-29T11:18:52Z</time>
      </trkpt>
      <trkpt lat="42.154412" lon="0.994332">
        <ele>2209.0</ele>
        <time>2015-08-29T11:18:53Z</time>
      </trkpt>
      <trkpt lat="42.154422" lon="0.994225">
        <ele>2207.0</ele>
        <time>2015-08-29T11:18:54Z</time>
      </trkpt>
      <trkpt lat="42.154420" lon="0.994117">
        <ele>2207.0</ele>
        <time>2015-08-29T11:18:55Z</time>
      </trkpt>
      <trkpt lat="42.154412" lon="0.994013">
        <ele>2206.0</ele>
        <time>2015-08-29T11:18:56Z</time>
      </trkpt>
      <trkpt lat="42.154400" lon="0.993920">
        <ele>2207.0</ele>
        <time>2015-08-29T11:18:57Z</time>
      </trkpt>
      <trkpt lat="42.154388" lon="0.993828">
        <ele>2208.0</ele>
        <time>2015-08-29T11:18:58Z</time>
      </trkpt>
      <trkpt lat="42.154382" lon="0.993735">
        <ele>2209.0</ele>
        <time>2015-08-29T11:18:59Z</time>
      </trkpt>
      <trkpt lat="42.154377" lon="0.993643">
        <ele>2211.0</ele>
        <time>2015-08-29T11:19:00Z</time>
      </trkpt>
      <trkpt lat="42.154373" lon="0.993555">
        <ele>2213.0</ele>
        <time>2015-08-29T11:19:01Z</time>
      </trkpt>
      <trkpt lat="42.154368" lon="0.993472">
        <ele>2214.0</ele>
        <time>2015-08-29T11:19:02Z</time>
      </trkpt>
      <trkpt lat="42.154365" lon="0.993390">
        <ele>2215.0</ele>
        <time>2015-08-29T11:19:03Z</time>
      </trkpt>
      <trkpt lat="42.154358" lon="0.993302">
        <ele>2216.0</ele>
        <time>2015-08-29T11:19:04Z</time>
      </trkpt>
      <trkpt lat="42.154355" lon="0.993208">
        <ele>2217.0</ele>
        <time>2015-08-29T11:19:05Z</time>
      </trkpt>
      <trkpt lat="42.154352" lon="0.993108">
        <ele>2218.0</ele>
        <time>2015-08-29T11:19:06Z</time>
      </trkpt>
      <trkpt lat="42.154355" lon="0.993005">
        <ele>2220.0</ele>
        <time>2015-08-29T11:19:07Z</time>
      </trkpt>
      <trkpt lat="42.154360" lon="0.992902">
        <ele>2222.0</ele>
        <time>2015-08-29T11:19:08Z</time>
      </trkpt>
      <trkpt lat="42.154375" lon="0.992815">
        <ele>2225.0</ele>
        <time>2015-08-29T11:19:09Z</time>
      </trkpt>
      <trkpt lat="42.154390" lon="0.992718">
        <ele>2227.0</ele>
        <time>2015-08-29T11:19:10Z</time>
      </trkpt>
      <trkpt lat="42.154407" lon="0.992618">
        <ele>2228.0</ele>
        <time>2015-08-29T11:19:11Z</time>
      </trkpt>
      <trkpt lat="42.154428" lon="0.992527">
        <ele>2229.0</ele>
        <time>2015-08-29T11:19:12Z</time>
      </trkpt>
      <trkpt lat="42.154457" lon="0.992440">
        <ele>2230.0</ele>
        <time>2015-08-29T11:19:13Z</time>
      </trkpt>
      <trkpt lat="42.154488" lon="0.992357">
        <ele>2232.0</ele>
        <time>2015-08-29T11:19:14Z</time>
      </trkpt>
      <trkpt lat="42.154515" lon="0.992255">
        <ele>2233.0</ele>
        <time>2015-08-29T11:19:15Z</time>
      </trkpt>
      <trkpt lat="42.154537" lon="0.992160">
        <ele>2235.0</ele>
        <time>2015-08-29T11:19:16Z</time>
      </trkpt>
      <trkpt lat="42.154543" lon="0.992067">
        <ele>2237.0</ele>
        <time>2015-08-29T11:19:17Z</time>
      </trkpt>
      <trkpt lat="42.154540" lon="0.991978">
        <ele>2238.0</ele>
        <time>2015-08-29T11:19:18Z</time>
      </trkpt>
      <trkpt lat="42.154530" lon="0.991898">
        <ele>2239.0</ele>
        <time>2015-08-29T11:19:19Z</time>
      </trkpt>
      <trkpt lat="42.154520" lon="0.991813">
        <ele>2240.0</ele>
        <time>2015-08-29T11:19:20Z</time>
      </trkpt>
      <trkpt lat="42.154512" lon="0.991712">
        <ele>2240.0</ele>
        <time>2015-08-29T11:19:21Z</time>
      </trkpt>
      <trkpt lat="42.154502" lon="0.991610">
        <ele>2241.0</ele>
        <time>2015-08-29T11:19:22Z</time>
      </trkpt>
      <trkpt lat="42.154483" lon="0.991517">
        <ele>2242.0</ele>
        <time>2015-08-29T11:19:23Z</time>
      </trkpt>
      <trkpt lat="42.154455" lon="0.991437">
        <ele>2242.0</ele>
        <time>2015-08-29T11:19:24Z</time>
      </trkpt>
      <trkpt lat="42.154423" lon="0.991360">
        <ele>2242.0</ele>
        <time>2015-08-29T11:19:25Z</time>
      </trkpt>
      <trkpt lat="42.154415" lon="0.991285">
        <ele>2243.0</ele>
        <time>2015-08-29T11:19:26Z</time>
      </trkpt>
      <trkpt lat="42.154423" lon="0.991178">
        <ele>2242.0</ele>
        <time>2015-08-29T11:19:27Z</time>
      </trkpt>
      <trkpt lat="42.154440" lon="0.991048">
        <ele>2240.0</ele>
        <time>2015-08-29T11:19:28Z</time>
      </trkpt>
      <trkpt lat="42.154453" lon="0.990922">
        <ele>2240.0</ele>
        <time>2015-08-29T11:19:29Z</time>
      </trkpt>
      <trkpt lat="42.154465" lon="0.990820">
        <ele>2240.0</ele>
        <time>2015-08-29T11:19:30Z</time>
      </trkpt>
      <trkpt lat="42.154480" lon="0.990732">
        <ele>2240.0</ele>
        <time>2015-08-29T11:19:31Z</time>
      </trkpt>
      <trkpt lat="42.154500" lon="0.990648">
        <ele>2240.0</ele>
        <time>2015-08-29T11:19:32Z</time>
      </trkpt>
      <trkpt lat="42.154527" lon="0.990553">
        <ele>2240.0</ele>
        <time>2015-08-29T11:19:33Z</time>
      </trkpt>
      <trkpt lat="42.154562" lon="0.990425">
        <ele>2241.0</ele>
        <time>2015-08-29T11:19:34Z</time>
      </trkpt>
      <trkpt lat="42.154600" lon="0.990280">
        <ele>2242.0</ele>
        <time>2015-08-29T11:19:35Z</time>
      </trkpt>
      <trkpt lat="42.154635" lon="0.990158">
        <ele>2244.0</ele>
        <time>2015-08-29T11:19:36Z</time>
      </trkpt>
      <trkpt lat="42.154663" lon="0.990068">
        <ele>2245.0</ele>
        <time>2015-08-29T11:19:37Z</time>
      </trkpt>
      <trkpt lat="42.154695" lon="0.989993">
        <ele>2246.0</ele>
        <time>2015-08-29T11:19:38Z</time>
      </trkpt>
      <trkpt lat="42.154730" lon="0.989907">
        <ele>2247.0</ele>
        <time>2015-08-29T11:19:39Z</time>
      </trkpt>
      <trkpt lat="42.154773" lon="0.989803">
        <ele>2248.0</ele>
        <time>2015-08-29T11:19:40Z</time>
      </trkpt>
      <trkpt lat="42.154823" lon="0.989685">
        <ele>2248.0</ele>
        <time>2015-08-29T11:19:41Z</time>
      </trkpt>
      <trkpt lat="42.154877" lon="0.989562">
        <ele>2249.0</ele>
        <time>2015-08-29T11:19:42Z</time>
      </trkpt>
      <trkpt lat="42.154937" lon="0.989473">
        <ele>2251.0</ele>
        <time>2015-08-29T11:19:43Z</time>
      </trkpt>
      <trkpt lat="42.154998" lon="0.989378">
        <ele>2251.0</ele>
        <time>2015-08-29T11:19:44Z</time>
      </trkpt>
      <trkpt lat="42.155052" lon="0.989282">
        <ele>2251.0</ele>
        <time>2015-08-29T11:19:45Z</time>
      </trkpt>
      <trkpt lat="42.155093" lon="0.989183">
        <ele>2250.0</ele>
        <time>2015-08-29T11:19:46Z</time>
      </trkpt>
      <trkpt lat="42.155125" lon="0.989083">
        <ele>2249.0</ele>
        <time>2015-08-29T11:19:47Z</time>
      </trkpt>
      <trkpt lat="42.155157" lon="0.988973">
        <ele>2249.0</ele>
        <time>2015-08-29T11:19:48Z</time>
      </trkpt>
      <trkpt lat="42.155193" lon="0.988863">
        <ele>2248.0</ele>
        <time>2015-08-29T11:19:49Z</time>
      </trkpt>
      <trkpt lat="42.155238" lon="0.988767">
        <ele>2247.0</ele>
        <time>2015-08-29T11:19:50Z</time>
      </trkpt>
      <trkpt lat="42.155295" lon="0.988685">
        <ele>2247.0</ele>
        <time>2015-08-29T11:19:51Z</time>
      </trkpt>
      <trkpt lat="42.155363" lon="0.988615">
        <ele>2246.0</ele>
        <time>2015-08-29T11:19:52Z</time>
      </trkpt>
      <trkpt lat="42.155440" lon="0.988555">
        <ele>2245.0</ele>
        <time>2015-08-29T11:19:53Z</time>
      </trkpt>
      <trkpt lat="42.155520" lon="0.988505">
        <ele>2244.0</ele>
        <time>2015-08-29T11:19:54Z</time>
      </trkpt>
      <trkpt lat="42.155602" lon="0.988463">
        <ele>2243.0</ele>
        <time>2015-08-29T11:19:55Z</time>
      </trkpt>
      <trkpt lat="42.155678" lon="0.988428">
        <ele>2241.0</ele>
        <time>2015-08-29T11:19:56Z</time>
      </trkpt>
      <trkpt lat="42.155755" lon="0.988397">
        <ele>2239.0</ele>
        <time>2015-08-29T11:19:57Z</time>
      </trkpt>
      <trkpt lat="42.155840" lon="0.988355">
        <ele>2236.0</ele>
        <time>2015-08-29T11:19:58Z</time>
      </trkpt>
      <trkpt lat="42.155927" lon="0.988330">
        <ele>2234.0</ele>
        <time>2015-08-29T11:19:59Z</time>
      </trkpt>
      <trkpt lat="42.156020" lon="0.988330">
        <ele>2233.0</ele>
        <time>2015-08-29T11:20:00Z</time>
      </trkpt>
      <trkpt lat="42.156128" lon="0.988350">
        <ele>2231.0</ele>
        <time>2015-08-29T11:20:01Z</time>
      </trkpt>
      <trkpt lat="42.156232" lon="0.988402">
        <ele>2230.0</ele>
        <time>2015-08-29T11:20:02Z</time>
      </trkpt>
      <trkpt lat="42.156318" lon="0.988472">
        <ele>2229.0</ele>
        <time>2015-08-29T11:20:03Z</time>
      </trkpt>
      <trkpt lat="42.156390" lon="0.988550">
        <ele>2228.0</ele>
        <time>2015-08-29T11:20:04Z</time>
      </trkpt>
      <trkpt lat="42.156452" lon="0.988630">
        <ele>2227.0</ele>
        <time>2015-08-29T11:20:05Z</time>
      </trkpt>
      <trkpt lat="42.156513" lon="0.988712">
        <ele>2226.0</ele>
        <time>2015-08-29T11:20:06Z</time>
      </trkpt>
      <trkpt lat="42.156575" lon="0.988793">
        <ele>2224.0</ele>
        <time>2015-08-29T11:20:07Z</time>
      </trkpt>
      <trkpt lat="42.156642" lon="0.988882">
        <ele>2222.0</ele>
        <time>2015-08-29T11:20:08Z</time>
      </trkpt>
      <trkpt lat="42.156705" lon="0.988972">
        <ele>2220.0</ele>
        <time>2015-08-29T11:20:09Z</time>
      </trkpt>
      <trkpt lat="42.156767" lon="0.989068">
        <ele>2218.0</ele>
        <time>2015-08-29T11:20:10Z</time>
      </trkpt>
      <trkpt lat="42.156833" lon="0.989165">
        <ele>2217.0</ele>
        <time>2015-08-29T11:20:11Z</time>
      </trkpt>
      <trkpt lat="42.156903" lon="0.989260">
        <ele>2215.0</ele>
        <time>2015-08-29T11:20:12Z</time>
      </trkpt>
      <trkpt lat="42.156975" lon="0.989353">
        <ele>2214.0</ele>
        <time>2015-08-29T11:20:13Z</time>
      </trkpt>
      <trkpt lat="42.157050" lon="0.989442">
        <ele>2214.0</ele>
        <time>2015-08-29T11:20:14Z</time>
      </trkpt>
      <trkpt lat="42.157128" lon="0.989525">
        <ele>2213.0</ele>
        <time>2015-08-29T11:20:15Z</time>
      </trkpt>
      <trkpt lat="42.157227" lon="0.989580">
        <ele>2211.0</ele>
        <time>2015-08-29T11:20:16Z</time>
      </trkpt>
      <trkpt lat="42.157330" lon="0.989640">
        <ele>2211.0</ele>
        <time>2015-08-29T11:20:17Z</time>
      </trkpt>
      <trkpt lat="42.157435" lon="0.989723">
        <ele>2210.0</ele>
        <time>2015-08-29T11:20:18Z</time>
      </trkpt>
      <trkpt lat="42.157525" lon="0.989823">
        <ele>2210.0</ele>
        <time>2015-08-29T11:20:19Z</time>
      </trkpt>
      <trkpt lat="42.157593" lon="0.989908">
        <ele>2210.0</ele>
        <time>2015-08-29T11:20:20Z</time>
      </trkpt>
      <trkpt lat="42.157663" lon="0.989972">
        <ele>2211.0</ele>
        <time>2015-08-29T11:20:21Z</time>
      </trkpt>
      <trkpt lat="42.157740" lon="0.990032">
        <ele>2212.0</ele>
        <time>2015-08-29T11:20:22Z</time>
      </trkpt>
      <trkpt lat="42.157825" lon="0.990088">
        <ele>2212.0</ele>
        <time>2015-08-29T11:20:23Z</time>
      </trkpt>
      <trkpt lat="42.157920" lon="0.990137">
        <ele>2213.0</ele>
        <time>2015-08-29T11:20:24Z</time>
      </trkpt>
      <trkpt lat="42.158023" lon="0.990162">
        <ele>2213.0</ele>
        <time>2015-08-29T11:20:25Z</time>
      </trkpt>
      <trkpt lat="42.158128" lon="0.990163">
        <ele>2213.0</ele>
        <time>2015-08-29T11:20:26Z</time>
      </trkpt>
      <trkpt lat="42.158228" lon="0.990153">
        <ele>2213.0</ele>
        <time>2015-08-29T11:20:27Z</time>
      </trkpt>
      <trkpt lat="42.158322" lon="0.990155">
        <ele>2214.0</ele>
        <time>2015-08-29T11:20:28Z</time>
      </trkpt>
      <trkpt lat="42.158417" lon="0.990163">
        <ele>2214.0</ele>
        <time>2015-08-29T11:20:29Z</time>
      </trkpt>
      <trkpt lat="42.158513" lon="0.990162">
        <ele>2214.0</ele>
        <time>2015-08-29T11:20:30Z</time>
      </trkpt>
      <trkpt lat="42.158612" lon="0.990133">
        <ele>2214.0</ele>
        <time>2015-08-29T11:20:31Z</time>
      </trkpt>
      <trkpt lat="42.158700" lon="0.990080">
        <ele>2214.0</ele>
        <time>2015-08-29T11:20:32Z</time>
      </trkpt>
      <trkpt lat="42.158783" lon="0.990017">
        <ele>2214.0</ele>
        <time>2015-08-29T11:20:33Z</time>
      </trkpt>
      <trkpt lat="42.158862" lon="0.989968">
        <ele>2215.0</ele>
        <time>2015-08-29T11:20:34Z</time>
      </trkpt>
      <trkpt lat="42.158948" lon="0.989912">
        <ele>2214.0</ele>
        <time>2015-08-29T11:20:35Z</time>
      </trkpt>
      <trkpt lat="42.159037" lon="0.989842">
        <ele>2214.0</ele>
        <time>2015-08-29T11:20:36Z</time>
      </trkpt>
      <trkpt lat="42.159122" lon="0.989780">
        <ele>2213.0</ele>
        <time>2015-08-29T11:20:37Z</time>
      </trkpt>
      <trkpt lat="42.159210" lon="0.989697">
        <ele>2212.0</ele>
        <time>2015-08-29T11:20:38Z</time>
      </trkpt>
      <trkpt lat="42.159298" lon="0.989617">
        <ele>2211.0</ele>
        <time>2015-08-29T11:20:39Z</time>
      </trkpt>
      <trkpt lat="42.159390" lon="0.989535">
        <ele>2211.0</ele>
        <time>2015-08-29T11:20:40Z</time>
      </trkpt>
      <trkpt lat="42.159478" lon="0.989472">
        <ele>2210.0</ele>
        <time>2015-08-29T11:20:41Z</time>
      </trkpt>
      <trkpt lat="42.159562" lon="0.989420">
        <ele>2210.0</ele>
        <time>2015-08-29T11:20:42Z</time>
      </trkpt>
      <trkpt lat="42.159645" lon="0.989367">
        <ele>2209.0</ele>
        <time>2015-08-29T11:20:43Z</time>
      </trkpt>
      <trkpt lat="42.159732" lon="0.989300">
        <ele>2207.0</ele>
        <time>2015-08-29T11:20:44Z</time>
      </trkpt>
      <trkpt lat="42.159828" lon="0.989220">
        <ele>2206.0</ele>
        <time>2015-08-29T11:20:45Z</time>
      </trkpt>
      <trkpt lat="42.159923" lon="0.989138">
        <ele>2205.0</ele>
        <time>2015-08-29T11:20:46Z</time>
      </trkpt>
      <trkpt lat="42.160013" lon="0.989068">
        <ele>2204.0</ele>
        <time>2015-08-29T11:20:47Z</time>
      </trkpt>
      <trkpt lat="42.160103" lon="0.989008">
        <ele>2203.0</ele>
        <time>2015-08-29T11:20:48Z</time>
      </trkpt>
      <trkpt lat="42.160197" lon="0.988953">
        <ele>2202.0</ele>
        <time>2015-08-29T11:20:49Z</time>
      </trkpt>
      <trkpt lat="42.160300" lon="0.988898">
        <ele>2201.0</ele>
        <time>2015-08-29T11:20:50Z</time>
      </trkpt>
      <trkpt lat="42.160402" lon="0.988855">
        <ele>2201.0</ele>
        <time>2015-08-29T11:20:51Z</time>
      </trkpt>
      <trkpt lat="42.160490" lon="0.988758">
        <ele>2201.0</ele>
        <time>2015-08-29T11:20:52Z</time>
      </trkpt>
      <trkpt lat="42.160567" lon="0.988662">
        <ele>2200.0</ele>
        <time>2015-08-29T11:20:53Z</time>
      </trkpt>
      <trkpt lat="42.160635" lon="0.988570">
        <ele>2199.0</ele>
        <time>2015-08-29T11:20:54Z</time>
      </trkpt>
      <trkpt lat="42.160702" lon="0.988488">
        <ele>2198.0</ele>
        <time>2015-08-29T11:20:55Z</time>
      </trkpt>
      <trkpt lat="42.160773" lon="0.988402">
        <ele>2196.0</ele>
        <time>2015-08-29T11:20:56Z</time>
      </trkpt>
      <trkpt lat="42.160853" lon="0.988298">
        <ele>2195.0</ele>
        <time>2015-08-29T11:20:57Z</time>
      </trkpt>
      <trkpt lat="42.160933" lon="0.988183">
        <ele>2193.0</ele>
        <time>2015-08-29T11:20:58Z</time>
      </trkpt>
      <trkpt lat="42.161017" lon="0.988065">
        <ele>2192.0</ele>
        <time>2015-08-29T11:20:59Z</time>
      </trkpt>
      <trkpt lat="42.161110" lon="0.987982">
        <ele>2191.0</ele>
        <time>2015-08-29T11:21:00Z</time>
      </trkpt>
      <trkpt lat="42.161215" lon="0.987932">
        <ele>2190.0</ele>
        <time>2015-08-29T11:21:01Z</time>
      </trkpt>
      <trkpt lat="42.161328" lon="0.987895">
        <ele>2188.0</ele>
        <time>2015-08-29T11:21:02Z</time>
      </trkpt>
      <trkpt lat="42.161443" lon="0.987875">
        <ele>2187.0</ele>
        <time>2015-08-29T11:21:03Z</time>
      </trkpt>
      <trkpt lat="42.161562" lon="0.987865">
        <ele>2186.0</ele>
        <time>2015-08-29T11:21:04Z</time>
      </trkpt>
      <trkpt lat="42.161685" lon="0.987857">
        <ele>2185.0</ele>
        <time>2015-08-29T11:21:05Z</time>
      </trkpt>
      <trkpt lat="42.161815" lon="0.987860">
        <ele>2183.0</ele>
        <time>2015-08-29T11:21:06Z</time>
      </trkpt>
      <trkpt lat="42.161932" lon="0.987888">
        <ele>2183.0</ele>
        <time>2015-08-29T11:21:07Z</time>
      </trkpt>
      <trkpt lat="42.162043" lon="0.987928">
        <ele>2183.0</ele>
        <time>2015-08-29T11:21:08Z</time>
      </trkpt>
      <trkpt lat="42.162153" lon="0.987972">
        <ele>2182.0</ele>
        <time>2015-08-29T11:21:09Z</time>
      </trkpt>
      <trkpt lat="42.162252" lon="0.987998">
        <ele>2181.0</ele>
        <time>2015-08-29T11:21:10Z</time>
      </trkpt>
      <trkpt lat="42.162345" lon="0.988017">
        <ele>2180.0</ele>
        <time>2015-08-29T11:21:11Z</time>
      </trkpt>
      <trkpt lat="42.162432" lon="0.988030">
        <ele>2178.0</ele>
        <time>2015-08-29T11:21:12Z</time>
      </trkpt>
      <trkpt lat="42.162532" lon="0.988060">
        <ele>2176.0</ele>
        <time>2015-08-29T11:21:13Z</time>
      </trkpt>
      <trkpt lat="42.162643" lon="0.988103">
        <ele>2175.0</ele>
        <time>2015-08-29T11:21:14Z</time>
      </trkpt>
      <trkpt lat="42.162745" lon="0.988142">
        <ele>2174.0</ele>
        <time>2015-08-29T11:21:15Z</time>
      </trkpt>
      <trkpt lat="42.162838" lon="0.988177">
        <ele>2173.0</ele>
        <time>2015-08-29T11:21:16Z</time>
      </trkpt>
      <trkpt lat="42.162923" lon="0.988203">
        <ele>2172.0</ele>
        <time>2015-08-29T11:21:17Z</time>
      </trkpt>
      <trkpt lat="42.163007" lon="0.988228">
        <ele>2171.0</ele>
        <time>2015-08-29T11:21:18Z</time>
      </trkpt>
      <trkpt lat="42.163093" lon="0.988250">
        <ele>2169.0</ele>
        <time>2015-08-29T11:21:19Z</time>
      </trkpt>
      <trkpt lat="42.163190" lon="0.988277">
        <ele>2168.0</ele>
        <time>2015-08-29T11:21:20Z</time>
      </trkpt>
      <trkpt lat="42.163288" lon="0.988310">
        <ele>2166.0</ele>
        <time>2015-08-29T11:21:21Z</time>
      </trkpt>
      <trkpt lat="42.163387" lon="0.988352">
        <ele>2165.0</ele>
        <time>2015-08-29T11:21:22Z</time>
      </trkpt>
      <trkpt lat="42.163480" lon="0.988395">
        <ele>2163.0</ele>
        <time>2015-08-29T11:21:23Z</time>
      </trkpt>
      <trkpt lat="42.163563" lon="0.988433">
        <ele>2162.0</ele>
        <time>2015-08-29T11:21:24Z</time>
      </trkpt>
      <trkpt lat="42.163655" lon="0.988467">
        <ele>2162.0</ele>
        <time>2015-08-29T11:21:25Z</time>
      </trkpt>
      <trkpt lat="42.163753" lon="0.988510">
        <ele>2160.0</ele>
        <time>2015-08-29T11:21:26Z</time>
      </trkpt>
      <trkpt lat="42.163843" lon="0.988560">
        <ele>2159.0</ele>
        <time>2015-08-29T11:21:27Z</time>
      </trkpt>
      <trkpt lat="42.163913" lon="0.988605">
        <ele>2157.0</ele>
        <time>2015-08-29T11:21:28Z</time>
      </trkpt>
      <trkpt lat="42.163967" lon="0.988647">
        <ele>2156.0</ele>
        <time>2015-08-29T11:21:29Z</time>
      </trkpt>
      <trkpt lat="42.164032" lon="0.988697">
        <ele>2155.0</ele>
        <time>2015-08-29T11:21:30Z</time>
      </trkpt>
      <trkpt lat="42.164168" lon="0.988802">
        <ele>2152.0</ele>
        <time>2015-08-29T11:21:31Z</time>
      </trkpt>
      <trkpt lat="42.164270" lon="0.988858">
        <ele>2151.0</ele>
        <time>2015-08-29T11:21:32Z</time>
      </trkpt>
      <trkpt lat="42.164378" lon="0.988900">
        <ele>2149.0</ele>
        <time>2015-08-29T11:21:33Z</time>
      </trkpt>
      <trkpt lat="42.164488" lon="0.988925">
        <ele>2148.0</ele>
        <time>2015-08-29T11:21:34Z</time>
      </trkpt>
      <trkpt lat="42.164592" lon="0.988962">
        <ele>2146.0</ele>
        <time>2015-08-29T11:21:35Z</time>
      </trkpt>
      <trkpt lat="42.164692" lon="0.989008">
        <ele>2145.0</ele>
        <time>2015-08-29T11:21:36Z</time>
      </trkpt>
      <trkpt lat="42.164793" lon="0.989055">
        <ele>2143.0</ele>
        <time>2015-08-29T11:21:37Z</time>
      </trkpt>
      <trkpt lat="42.164893" lon="0.989102">
        <ele>2142.0</ele>
        <time>2015-08-29T11:21:38Z</time>
      </trkpt>
      <trkpt lat="42.164995" lon="0.989143">
        <ele>2141.0</ele>
        <time>2015-08-29T11:21:39Z</time>
      </trkpt>
      <trkpt lat="42.165102" lon="0.989192">
        <ele>2139.0</ele>
        <time>2015-08-29T11:21:40Z</time>
      </trkpt>
      <trkpt lat="42.165203" lon="0.989245">
        <ele>2138.0</ele>
        <time>2015-08-29T11:21:41Z</time>
      </trkpt>
      <trkpt lat="42.165307" lon="0.989302">
        <ele>2137.0</ele>
        <time>2015-08-29T11:21:42Z</time>
      </trkpt>
      <trkpt lat="42.165417" lon="0.989357">
        <ele>2135.0</ele>
        <time>2015-08-29T11:21:43Z</time>
      </trkpt>
      <trkpt lat="42.165537" lon="0.989403">
        <ele>2133.0</ele>
        <time>2015-08-29T11:21:44Z</time>
      </trkpt>
      <trkpt lat="42.165657" lon="0.989448">
        <ele>2131.0</ele>
        <time>2015-08-29T11:21:45Z</time>
      </trkpt>
      <trkpt lat="42.165767" lon="0.989493">
        <ele>2130.0</ele>
        <time>2015-08-29T11:21:46Z</time>
      </trkpt>
      <trkpt lat="42.165865" lon="0.989545">
        <ele>2129.0</ele>
        <time>2015-08-29T11:21:47Z</time>
      </trkpt>
      <trkpt lat="42.165962" lon="0.989607">
        <ele>2129.0</ele>
        <time>2015-08-29T11:21:48Z</time>
      </trkpt>
      <trkpt lat="42.166060" lon="0.989677">
        <ele>2128.0</ele>
        <time>2015-08-29T11:21:49Z</time>
      </trkpt>
      <trkpt lat="42.166163" lon="0.989748">
        <ele>2127.0</ele>
        <time>2015-08-29T11:21:50Z</time>
      </trkpt>
      <trkpt lat="42.166275" lon="0.989817">
        <ele>2126.0</ele>
        <time>2015-08-29T11:21:51Z</time>
      </trkpt>
      <trkpt lat="42.166390" lon="0.989877">
        <ele>2125.0</ele>
        <time>2015-08-29T11:21:52Z</time>
      </trkpt>
      <trkpt lat="42.166508" lon="0.989928">
        <ele>2124.0</ele>
        <time>2015-08-29T11:21:53Z</time>
      </trkpt>
      <trkpt lat="42.166630" lon="0.989970">
        <ele>2123.0</ele>
        <time>2015-08-29T11:21:54Z</time>
      </trkpt>
      <trkpt lat="42.166762" lon="0.990005">
        <ele>2122.0</ele>
        <time>2015-08-29T11:21:55Z</time>
      </trkpt>
      <trkpt lat="42.166895" lon="0.990042">
        <ele>2121.0</ele>
        <time>2015-08-29T11:21:56Z</time>
      </trkpt>
      <trkpt lat="42.167028" lon="0.990087">
        <ele>2119.0</ele>
        <time>2015-08-29T11:21:57Z</time>
      </trkpt>
      <trkpt lat="42.167148" lon="0.990145">
        <ele>2119.0</ele>
        <time>2015-08-29T11:21:58Z</time>
      </trkpt>
      <trkpt lat="42.167270" lon="0.990208">
        <ele>2119.0</ele>
        <time>2015-08-29T11:21:59Z</time>
      </trkpt>
      <trkpt lat="42.167397" lon="0.990268">
        <ele>2118.0</ele>
        <time>2015-08-29T11:22:00Z</time>
      </trkpt>
      <trkpt lat="42.167522" lon="0.990313">
        <ele>2117.0</ele>
        <time>2015-08-29T11:22:01Z</time>
      </trkpt>
      <trkpt lat="42.167647" lon="0.990353">
        <ele>2117.0</ele>
        <time>2015-08-29T11:22:02Z</time>
      </trkpt>
      <trkpt lat="42.167760" lon="0.990392">
        <ele>2116.0</ele>
        <time>2015-08-29T11:22:03Z</time>
      </trkpt>
      <trkpt lat="42.167860" lon="0.990433">
        <ele>2116.0</ele>
        <time>2015-08-29T11:22:04Z</time>
      </trkpt>
      <trkpt lat="42.167953" lon="0.990475">
        <ele>2114.0</ele>
        <time>2015-08-29T11:22:05Z</time>
      </trkpt>
      <trkpt lat="42.168048" lon="0.990510">
        <ele>2113.0</ele>
        <time>2015-08-29T11:22:06Z</time>
      </trkpt>
      <trkpt lat="42.168150" lon="0.990543">
        <ele>2112.0</ele>
        <time>2015-08-29T11:22:07Z</time>
      </trkpt>
      <trkpt lat="42.168268" lon="0.990578">
        <ele>2110.0</ele>
        <time>2015-08-29T11:22:08Z</time>
      </trkpt>
      <trkpt lat="42.168387" lon="0.990613">
        <ele>2109.0</ele>
        <time>2015-08-29T11:22:09Z</time>
      </trkpt>
      <trkpt lat="42.168498" lon="0.990647">
        <ele>2108.0</ele>
        <time>2015-08-29T11:22:10Z</time>
      </trkpt>
      <trkpt lat="42.168602" lon="0.990688">
        <ele>2106.0</ele>
        <time>2015-08-29T11:22:11Z</time>
      </trkpt>
      <trkpt lat="42.168692" lon="0.990733">
        <ele>2103.0</ele>
        <time>2015-08-29T11:22:12Z</time>
      </trkpt>
      <trkpt lat="42.168782" lon="0.990778">
        <ele>2100.0</ele>
        <time>2015-08-29T11:22:13Z</time>
      </trkpt>
      <trkpt lat="42.168882" lon="0.990832">
        <ele>2097.0</ele>
        <time>2015-08-29T11:22:14Z</time>
      </trkpt>
      <trkpt lat="42.168993" lon="0.990888">
        <ele>2095.0</ele>
        <time>2015-08-29T11:22:15Z</time>
      </trkpt>
      <trkpt lat="42.169117" lon="0.990952">
        <ele>2094.0</ele>
        <time>2015-08-29T11:22:16Z</time>
      </trkpt>
      <trkpt lat="42.169232" lon="0.990995">
        <ele>2093.0</ele>
        <time>2015-08-29T11:22:17Z</time>
      </trkpt>
      <trkpt lat="42.169328" lon="0.991020">
        <ele>2091.0</ele>
        <time>2015-08-29T11:22:18Z</time>
      </trkpt>
      <trkpt lat="42.169415" lon="0.991028">
        <ele>2090.0</ele>
        <time>2015-08-29T11:22:19Z</time>
      </trkpt>
      <trkpt lat="42.169500" lon="0.991022">
        <ele>2089.0</ele>
        <time>2015-08-29T11:22:20Z</time>
      </trkpt>
      <trkpt lat="42.169598" lon="0.991027">
        <ele>2088.0</ele>
        <time>2015-08-29T11:22:21Z</time>
      </trkpt>
      <trkpt lat="42.169717" lon="0.991055">
        <ele>2087.0</ele>
        <time>2015-08-29T11:22:22Z</time>
      </trkpt>
      <trkpt lat="42.169827" lon="0.991093">
        <ele>2086.0</ele>
        <time>2015-08-29T11:22:23Z</time>
      </trkpt>
      <trkpt lat="42.169933" lon="0.991138">
        <ele>2085.0</ele>
        <time>2015-08-29T11:22:24Z</time>
      </trkpt>
      <trkpt lat="42.170020" lon="0.991190">
        <ele>2085.0</ele>
        <time>2015-08-29T11:22:25Z</time>
      </trkpt>
      <trkpt lat="42.170102" lon="0.991233">
        <ele>2085.0</ele>
        <time>2015-08-29T11:22:26Z</time>
      </trkpt>
      <trkpt lat="42.170188" lon="0.991280">
        <ele>2084.0</ele>
        <time>2015-08-29T11:22:27Z</time>
      </trkpt>
      <trkpt lat="42.170283" lon="0.991333">
        <ele>2083.0</ele>
        <time>2015-08-29T11:22:28Z</time>
      </trkpt>
      <trkpt lat="42.170382" lon="0.991395">
        <ele>2083.0</ele>
        <time>2015-08-29T11:22:29Z</time>
      </trkpt>
      <trkpt lat="42.170475" lon="0.991462">
        <ele>2083.0</ele>
        <time>2015-08-29T11:22:30Z</time>
      </trkpt>
      <trkpt lat="42.170563" lon="0.991525">
        <ele>2082.0</ele>
        <time>2015-08-29T11:22:31Z</time>
      </trkpt>
      <trkpt lat="42.170637" lon="0.991568">
        <ele>2083.0</ele>
        <time>2015-08-29T11:22:32Z</time>
      </trkpt>
      <trkpt lat="42.170727" lon="0.991623">
        <ele>2083.0</ele>
        <time>2015-08-29T11:22:33Z</time>
      </trkpt>
      <trkpt lat="42.170832" lon="0.991697">
        <ele>2083.0</ele>
        <time>2015-08-29T11:22:34Z</time>
      </trkpt>
      <trkpt lat="42.170927" lon="0.991768">
        <ele>2082.0</ele>
        <time>2015-08-29T11:22:35Z</time>
      </trkpt>
      <trkpt lat="42.171007" lon="0.991827">
        <ele>2082.0</ele>
        <time>2015-08-29T11:22:36Z</time>
      </trkpt>
      <trkpt lat="42.171078" lon="0.991878">
        <ele>2082.0</ele>
        <time>2015-08-29T11:22:37Z</time>
      </trkpt>
      <trkpt lat="42.171145" lon="0.991928">
        <ele>2082.0</ele>
        <time>2015-08-29T11:22:38Z</time>
      </trkpt>
      <trkpt lat="42.171208" lon="0.991978">
        <ele>2081.0</ele>
        <time>2015-08-29T11:22:39Z</time>
      </trkpt>
      <trkpt lat="42.171280" lon="0.992050">
        <ele>2076.0</ele>
        <time>2015-08-29T11:22:40Z</time>
      </trkpt>
      <trkpt lat="42.171368" lon="0.992125">
        <ele>2073.0</ele>
        <time>2015-08-29T11:22:41Z</time>
      </trkpt>
      <trkpt lat="42.171457" lon="0.992193">
        <ele>2072.0</ele>
        <time>2015-08-29T11:22:42Z</time>
      </trkpt>
      <trkpt lat="42.171537" lon="0.992257">
        <ele>2072.0</ele>
        <time>2015-08-29T11:22:43Z</time>
      </trkpt>
      <trkpt lat="42.171608" lon="0.992318">
        <ele>2071.0</ele>
        <time>2015-08-29T11:22:44Z</time>
      </trkpt>
      <trkpt lat="42.171665" lon="0.992367">
        <ele>2070.0</ele>
        <time>2015-08-29T11:22:45Z</time>
      </trkpt>
      <trkpt lat="42.171737" lon="0.992410">
        <ele>2068.0</ele>
        <time>2015-08-29T11:22:46Z</time>
      </trkpt>
      <trkpt lat="42.171825" lon="0.992448">
        <ele>2066.0</ele>
        <time>2015-08-29T11:22:47Z</time>
      </trkpt>
      <trkpt lat="42.171927" lon="0.992500">
        <ele>2064.0</ele>
        <time>2015-08-29T11:22:48Z</time>
      </trkpt>
      <trkpt lat="42.172005" lon="0.992567">
        <ele>2064.0</ele>
        <time>2015-08-29T11:22:49Z</time>
      </trkpt>
      <trkpt lat="42.172078" lon="0.992647">
        <ele>2063.0</ele>
        <time>2015-08-29T11:22:50Z</time>
      </trkpt>
      <trkpt lat="42.172160" lon="0.992720">
        <ele>2062.0</ele>
        <time>2015-08-29T11:22:51Z</time>
      </trkpt>
      <trkpt lat="42.172245" lon="0.992768">
        <ele>2060.0</ele>
        <time>2015-08-29T11:22:52Z</time>
      </trkpt>
      <trkpt lat="42.172325" lon="0.992798">
        <ele>2059.0</ele>
        <time>2015-08-29T11:22:53Z</time>
      </trkpt>
      <trkpt lat="42.172407" lon="0.992825">
        <ele>2059.0</ele>
        <time>2015-08-29T11:22:54Z</time>
      </trkpt>
      <trkpt lat="42.172472" lon="0.992853">
        <ele>2056.0</ele>
        <time>2015-08-29T11:22:55Z</time>
      </trkpt>
      <trkpt lat="42.172563" lon="0.992920">
        <ele>2052.0</ele>
        <time>2015-08-29T11:22:56Z</time>
      </trkpt>
      <trkpt lat="42.172652" lon="0.992985">
        <ele>2049.0</ele>
        <time>2015-08-29T11:22:57Z</time>
      </trkpt>
      <trkpt lat="42.172738" lon="0.993048">
        <ele>2046.0</ele>
        <time>2015-08-29T11:22:58Z</time>
      </trkpt>
      <trkpt lat="42.172825" lon="0.993115">
        <ele>2043.0</ele>
        <time>2015-08-29T11:22:59Z</time>
      </trkpt>
      <trkpt lat="42.172913" lon="0.993182">
        <ele>2040.0</ele>
        <time>2015-08-29T11:23:00Z</time>
      </trkpt>
      <trkpt lat="42.173007" lon="0.993247">
        <ele>2037.0</ele>
        <time>2015-08-29T11:23:01Z</time>
      </trkpt>
      <trkpt lat="42.173105" lon="0.993308">
        <ele>2033.0</ele>
        <time>2015-08-29T11:23:02Z</time>
      </trkpt>
      <trkpt lat="42.173208" lon="0.993377">
        <ele>2031.0</ele>
        <time>2015-08-29T11:23:03Z</time>
      </trkpt>
      <trkpt lat="42.173307" lon="0.993448">
        <ele>2028.0</ele>
        <time>2015-08-29T11:23:04Z</time>
      </trkpt>
      <trkpt lat="42.173397" lon="0.993515">
        <ele>2026.0</ele>
        <time>2015-08-29T11:23:05Z</time>
      </trkpt>
      <trkpt lat="42.173480" lon="0.993575">
        <ele>2024.0</ele>
        <time>2015-08-29T11:23:06Z</time>
      </trkpt>
      <trkpt lat="42.173575" lon="0.993637">
        <ele>2022.0</ele>
        <time>2015-08-29T11:23:07Z</time>
      </trkpt>
      <trkpt lat="42.173670" lon="0.993698">
        <ele>2019.0</ele>
        <time>2015-08-29T11:23:08Z</time>
      </trkpt>
      <trkpt lat="42.173768" lon="0.993763">
        <ele>2018.0</ele>
        <time>2015-08-29T11:23:09Z</time>
      </trkpt>
      <trkpt lat="42.173870" lon="0.993828">
        <ele>2016.0</ele>
        <time>2015-08-29T11:23:10Z</time>
      </trkpt>
      <trkpt lat="42.173978" lon="0.993892">
        <ele>2014.0</ele>
        <time>2015-08-29T11:23:11Z</time>
      </trkpt>
      <trkpt lat="42.174092" lon="0.993948">
        <ele>2012.0</ele>
        <time>2015-08-29T11:23:12Z</time>
      </trkpt>
      <trkpt lat="42.174212" lon="0.993998">
        <ele>2011.0</ele>
        <time>2015-08-29T11:23:13Z</time>
      </trkpt>
      <trkpt lat="42.174330" lon="0.994047">
        <ele>2010.0</ele>
        <time>2015-08-29T11:23:14Z</time>
      </trkpt>
      <trkpt lat="42.174443" lon="0.994093">
        <ele>2009.0</ele>
        <time>2015-08-29T11:23:15Z</time>
      </trkpt>
      <trkpt lat="42.174552" lon="0.994138">
        <ele>2009.0</ele>
        <time>2015-08-29T11:23:16Z</time>
      </trkpt>
      <trkpt lat="42.174660" lon="0.994178">
        <ele>2008.0</ele>
        <time>2015-08-29T11:23:17Z</time>
      </trkpt>
      <trkpt lat="42.174765" lon="0.994210">
        <ele>2007.0</ele>
        <time>2015-08-29T11:23:18Z</time>
      </trkpt>
      <trkpt lat="42.174872" lon="0.994230">
        <ele>2006.0</ele>
        <time>2015-08-29T11:23:19Z</time>
      </trkpt>
      <trkpt lat="42.174982" lon="0.994248">
        <ele>2004.0</ele>
        <time>2015-08-29T11:23:20Z</time>
      </trkpt>
      <trkpt lat="42.175098" lon="0.994277">
        <ele>2003.0</ele>
        <time>2015-08-29T11:23:21Z</time>
      </trkpt>
      <trkpt lat="42.175213" lon="0.994315">
        <ele>2001.0</ele>
        <time>2015-08-29T11:23:22Z</time>
      </trkpt>
      <trkpt lat="42.175317" lon="0.994363">
        <ele>2002.0</ele>
        <time>2015-08-29T11:23:23Z</time>
      </trkpt>
      <trkpt lat="42.175425" lon="0.994412">
        <ele>2001.0</ele>
        <time>2015-08-29T11:23:24Z</time>
      </trkpt>
      <trkpt lat="42.175528" lon="0.994447">
        <ele>2000.0</ele>
        <time>2015-08-29T11:23:25Z</time>
      </trkpt>
      <trkpt lat="42.175628" lon="0.994477">
        <ele>1998.0</ele>
        <time>2015-08-29T11:23:26Z</time>
      </trkpt>
      <trkpt lat="42.175730" lon="0.994505">
        <ele>1995.0</ele>
        <time>2015-08-29T11:23:27Z</time>
      </trkpt>
      <trkpt lat="42.175840" lon="0.994530">
        <ele>1994.0</ele>
        <time>2015-08-29T11:23:28Z</time>
      </trkpt>
      <trkpt lat="42.175958" lon="0.994558">
        <ele>1992.0</ele>
        <time>2015-08-29T11:23:29Z</time>
      </trkpt>
      <trkpt lat="42.176075" lon="0.994587">
        <ele>1991.0</ele>
        <time>2015-08-29T11:23:30Z</time>
      </trkpt>
      <trkpt lat="42.176185" lon="0.994613">
        <ele>1990.0</ele>
        <time>2015-08-29T11:23:31Z</time>
      </trkpt>
      <trkpt lat="42.176290" lon="0.994638">
        <ele>1989.0</ele>
        <time>2015-08-29T11:23:32Z</time>
      </trkpt>
      <trkpt lat="42.176395" lon="0.994665">
        <ele>1987.0</ele>
        <time>2015-08-29T11:23:33Z</time>
      </trkpt>
      <trkpt lat="42.176500" lon="0.994692">
        <ele>1986.0</ele>
        <time>2015-08-29T11:23:34Z</time>
      </trkpt>
      <trkpt lat="42.176607" lon="0.994713">
        <ele>1985.0</ele>
        <time>2015-08-29T11:23:35Z</time>
      </trkpt>
      <trkpt lat="42.176717" lon="0.994732">
        <ele>1983.0</ele>
        <time>2015-08-29T11:23:36Z</time>
      </trkpt>
      <trkpt lat="42.176825" lon="0.994748">
        <ele>1983.0</ele>
        <time>2015-08-29T11:23:37Z</time>
      </trkpt>
      <trkpt lat="42.176930" lon="0.994765">
        <ele>1982.0</ele>
        <time>2015-08-29T11:23:38Z</time>
      </trkpt>
      <trkpt lat="42.177033" lon="0.994785">
        <ele>1980.0</ele>
        <time>2015-08-29T11:23:39Z</time>
      </trkpt>
      <trkpt lat="42.177133" lon="0.994802">
        <ele>1980.0</ele>
        <time>2015-08-29T11:23:40Z</time>
      </trkpt>
      <trkpt lat="42.177243" lon="0.994825">
        <ele>1979.0</ele>
        <time>2015-08-29T11:23:41Z</time>
      </trkpt>
      <trkpt lat="42.177368" lon="0.994852">
        <ele>1978.0</ele>
        <time>2015-08-29T11:23:42Z</time>
      </trkpt>
      <trkpt lat="42.177487" lon="0.994878">
        <ele>1976.0</ele>
        <time>2015-08-29T11:23:43Z</time>
      </trkpt>
      <trkpt lat="42.177598" lon="0.994900">
        <ele>1975.0</ele>
        <time>2015-08-29T11:23:44Z</time>
      </trkpt>
      <trkpt lat="42.177703" lon="0.994912">
        <ele>1974.0</ele>
        <time>2015-08-29T11:23:45Z</time>
      </trkpt>
      <trkpt lat="42.177803" lon="0.994918">
        <ele>1972.0</ele>
        <time>2015-08-29T11:23:46Z</time>
      </trkpt>
      <trkpt lat="42.177902" lon="0.994923">
        <ele>1971.0</ele>
        <time>2015-08-29T11:23:47Z</time>
      </trkpt>
      <trkpt lat="42.178007" lon="0.994938">
        <ele>1969.0</ele>
        <time>2015-08-29T11:23:48Z</time>
      </trkpt>
      <trkpt lat="42.178115" lon="0.994958">
        <ele>1967.0</ele>
        <time>2015-08-29T11:23:49Z</time>
      </trkpt>
      <trkpt lat="42.178220" lon="0.994972">
        <ele>1965.0</ele>
        <time>2015-08-29T11:23:50Z</time>
      </trkpt>
      <trkpt lat="42.178322" lon="0.994973">
        <ele>1964.0</ele>
        <time>2015-08-29T11:23:51Z</time>
      </trkpt>
      <trkpt lat="42.178418" lon="0.994967">
        <ele>1962.0</ele>
        <time>2015-08-29T11:23:52Z</time>
      </trkpt>
      <trkpt lat="42.178513" lon="0.994953">
        <ele>1960.0</ele>
        <time>2015-08-29T11:23:53Z</time>
      </trkpt>
      <trkpt lat="42.178613" lon="0.994953">
        <ele>1958.0</ele>
        <time>2015-08-29T11:23:54Z</time>
      </trkpt>
      <trkpt lat="42.178720" lon="0.994962">
        <ele>1957.0</ele>
        <time>2015-08-29T11:23:55Z</time>
      </trkpt>
      <trkpt lat="42.178822" lon="0.994967">
        <ele>1955.0</ele>
        <time>2015-08-29T11:23:56Z</time>
      </trkpt>
      <trkpt lat="42.178908" lon="0.994960">
        <ele>1955.0</ele>
        <time>2015-08-29T11:23:57Z</time>
      </trkpt>
      <trkpt lat="42.178985" lon="0.994947">
        <ele>1955.0</ele>
        <time>2015-08-29T11:23:58Z</time>
      </trkpt>
      <trkpt lat="42.179058" lon="0.994950">
        <ele>1953.0</ele>
        <time>2015-08-29T11:23:59Z</time>
      </trkpt>
      <trkpt lat="42.179140" lon="0.994960">
        <ele>1950.0</ele>
        <time>2015-08-29T11:24:00Z</time>
      </trkpt>
      <trkpt lat="42.179232" lon="0.994978">
        <ele>1948.0</ele>
        <time>2015-08-29T11:24:01Z</time>
      </trkpt>
      <trkpt lat="42.179328" lon="0.995000">
        <ele>1947.0</ele>
        <time>2015-08-29T11:24:02Z</time>
      </trkpt>
      <trkpt lat="42.179420" lon="0.995013">
        <ele>1947.0</ele>
        <time>2015-08-29T11:24:03Z</time>
      </trkpt>
      <trkpt lat="42.179497" lon="0.995023">
        <ele>1947.0</ele>
        <time>2015-08-29T11:24:04Z</time>
      </trkpt>
      <trkpt lat="42.179568" lon="0.995033">
        <ele>1947.0</ele>
        <time>2015-08-29T11:24:05Z</time>
      </trkpt>
      <trkpt lat="42.179638" lon="0.995040">
        <ele>1947.0</ele>
        <time>2015-08-29T11:24:06Z</time>
      </trkpt>
      <trkpt lat="42.179713" lon="0.995052">
        <ele>1947.0</ele>
        <time>2015-08-29T11:24:07Z</time>
      </trkpt>
      <trkpt lat="42.179802" lon="0.995062">
        <ele>1946.0</ele>
        <time>2015-08-29T11:24:08Z</time>
      </trkpt>
      <trkpt lat="42.179898" lon="0.995073">
        <ele>1946.0</ele>
        <time>2015-08-29T11:24:09Z</time>
      </trkpt>
      <trkpt lat="42.180000" lon="0.995085">
        <ele>1945.0</ele>
        <time>2015-08-29T11:24:10Z</time>
      </trkpt>
      <trkpt lat="42.180097" lon="0.995097">
        <ele>1945.0</ele>
        <time>2015-08-29T11:24:11Z</time>
      </trkpt>
      <trkpt lat="42.180192" lon="0.995112">
        <ele>1945.0</ele>
        <time>2015-08-29T11:24:12Z</time>
      </trkpt>
      <trkpt lat="42.180283" lon="0.995127">
        <ele>1944.0</ele>
        <time>2015-08-29T11:24:13Z</time>
      </trkpt>
      <trkpt lat="42.180365" lon="0.995135">
        <ele>1945.0</ele>
        <time>2015-08-29T11:24:14Z</time>
      </trkpt>
      <trkpt lat="42.180450" lon="0.995145">
        <ele>1945.0</ele>
        <time>2015-08-29T11:24:15Z</time>
      </trkpt>
      <trkpt lat="42.180545" lon="0.995167">
        <ele>1944.0</ele>
        <time>2015-08-29T11:24:16Z</time>
      </trkpt>
      <trkpt lat="42.180640" lon="0.995192">
        <ele>1943.0</ele>
        <time>2015-08-29T11:24:17Z</time>
      </trkpt>
      <trkpt lat="42.180733" lon="0.995213">
        <ele>1942.0</ele>
        <time>2015-08-29T11:24:18Z</time>
      </trkpt>
      <trkpt lat="42.180825" lon="0.995222">
        <ele>1941.0</ele>
        <time>2015-08-29T11:24:19Z</time>
      </trkpt>
      <trkpt lat="42.180910" lon="0.995217">
        <ele>1940.0</ele>
        <time>2015-08-29T11:24:20Z</time>
      </trkpt>
      <trkpt lat="42.180992" lon="0.995210">
        <ele>1940.0</ele>
        <time>2015-08-29T11:24:21Z</time>
      </trkpt>
      <trkpt lat="42.181072" lon="0.995205">
        <ele>1940.0</ele>
        <time>2015-08-29T11:24:22Z</time>
      </trkpt>
      <trkpt lat="42.181153" lon="0.995200">
        <ele>1939.0</ele>
        <time>2015-08-29T11:24:23Z</time>
      </trkpt>
      <trkpt lat="42.181242" lon="0.995182">
        <ele>1938.0</ele>
        <time>2015-08-29T11:24:24Z</time>
      </trkpt>
      <trkpt lat="42.181337" lon="0.995148">
        <ele>1937.0</ele>
        <time>2015-08-29T11:24:25Z</time>
      </trkpt>
      <trkpt lat="42.181433" lon="0.995092">
        <ele>1937.0</ele>
        <time>2015-08-29T11:24:26Z</time>
      </trkpt>
      <trkpt lat="42.181525" lon="0.995027">
        <ele>1937.0</ele>
        <time>2015-08-29T11:24:27Z</time>
      </trkpt>
      <trkpt lat="42.181610" lon="0.994975">
        <ele>1937.0</ele>
        <time>2015-08-29T11:24:28Z</time>
      </trkpt>
      <trkpt lat="42.181685" lon="0.994945">
        <ele>1937.0</ele>
        <time>2015-08-29T11:24:29Z</time>
      </trkpt>
      <trkpt lat="42.181755" lon="0.994920">
        <ele>1937.0</ele>
        <time>2015-08-29T11:24:30Z</time>
      </trkpt>
      <trkpt lat="42.181822" lon="0.994900">
        <ele>1938.0</ele>
        <time>2015-08-29T11:24:31Z</time>
      </trkpt>
      <trkpt lat="42.181888" lon="0.994858">
        <ele>1939.0</ele>
        <time>2015-08-29T11:24:32Z</time>
      </trkpt>
      <trkpt lat="42.181958" lon="0.994808">
        <ele>1938.0</ele>
        <time>2015-08-29T11:24:33Z</time>
      </trkpt>
      <trkpt lat="42.182025" lon="0.994772">
        <ele>1938.0</ele>
        <time>2015-08-29T11:24:34Z</time>
      </trkpt>
      <trkpt lat="42.182090" lon="0.994748">
        <ele>1938.0</ele>
        <time>2015-08-29T11:24:35Z</time>
      </trkpt>
      <trkpt lat="42.182157" lon="0.994740">
        <ele>1938.0</ele>
        <time>2015-08-29T11:24:36Z</time>
      </trkpt>
      <trkpt lat="42.182220" lon="0.994737">
        <ele>1939.0</ele>
        <time>2015-08-29T11:24:37Z</time>
      </trkpt>
      <trkpt lat="42.182288" lon="0.994725">
        <ele>1939.0</ele>
        <time>2015-08-29T11:24:38Z</time>
      </trkpt>
      <trkpt lat="42.182363" lon="0.994697">
        <ele>1939.0</ele>
        <time>2015-08-29T11:24:39Z</time>
      </trkpt>
      <trkpt lat="42.182443" lon="0.994663">
        <ele>1939.0</ele>
        <time>2015-08-29T11:24:40Z</time>
      </trkpt>
      <trkpt lat="42.182525" lon="0.994645">
        <ele>1940.0</ele>
        <time>2015-08-29T11:24:41Z</time>
      </trkpt>
      <trkpt lat="42.182603" lon="0.994625">
        <ele>1941.0</ele>
        <time>2015-08-29T11:24:42Z</time>
      </trkpt>
      <trkpt lat="42.182680" lon="0.994612">
        <ele>1942.0</ele>
        <time>2015-08-29T11:24:43Z</time>
      </trkpt>
      <trkpt lat="42.182758" lon="0.994600">
        <ele>1943.0</ele>
        <time>2015-08-29T11:24:44Z</time>
      </trkpt>
      <trkpt lat="42.182840" lon="0.994583">
        <ele>1945.0</ele>
        <time>2015-08-29T11:24:45Z</time>
      </trkpt>
      <trkpt lat="42.182920" lon="0.994563">
        <ele>1946.0</ele>
        <time>2015-08-29T11:24:46Z</time>
      </trkpt>
      <trkpt lat="42.183002" lon="0.994543">
        <ele>1947.0</ele>
        <time>2015-08-29T11:24:47Z</time>
      </trkpt>
      <trkpt lat="42.183082" lon="0.994538">
        <ele>1948.0</ele>
        <time>2015-08-29T11:24:48Z</time>
      </trkpt>
      <trkpt lat="42.183175" lon="0.994515">
        <ele>1949.0</ele>
        <time>2015-08-29T11:24:49Z</time>
      </trkpt>
      <trkpt lat="42.183272" lon="0.994498">
        <ele>1949.0</ele>
        <time>2015-08-29T11:24:50Z</time>
      </trkpt>
      <trkpt lat="42.183368" lon="0.994497">
        <ele>1949.0</ele>
        <time>2015-08-29T11:24:51Z</time>
      </trkpt>
      <trkpt lat="42.183455" lon="0.994505">
        <ele>1950.0</ele>
        <time>2015-08-29T11:24:52Z</time>
      </trkpt>
      <trkpt lat="42.183532" lon="0.994513">
        <ele>1952.0</ele>
        <time>2015-08-29T11:24:53Z</time>
      </trkpt>
      <trkpt lat="42.183603" lon="0.994508">
        <ele>1953.0</ele>
        <time>2015-08-29T11:24:54Z</time>
      </trkpt>
      <trkpt lat="42.183680" lon="0.994487">
        <ele>1954.0</ele>
        <time>2015-08-29T11:24:55Z</time>
      </trkpt>
      <trkpt lat="42.183758" lon="0.994458">
        <ele>1955.0</ele>
        <time>2015-08-29T11:24:56Z</time>
      </trkpt>
      <trkpt lat="42.183840" lon="0.994447">
        <ele>1956.0</ele>
        <time>2015-08-29T11:24:57Z</time>
      </trkpt>
      <trkpt lat="42.183928" lon="0.994465">
        <ele>1958.0</ele>
        <time>2015-08-29T11:24:58Z</time>
      </trkpt>
      <trkpt lat="42.184017" lon="0.994488">
        <ele>1958.0</ele>
        <time>2015-08-29T11:24:59Z</time>
      </trkpt>
      <trkpt lat="42.184105" lon="0.994497">
        <ele>1960.0</ele>
        <time>2015-08-29T11:25:00Z</time>
      </trkpt>
      <trkpt lat="42.184195" lon="0.994488">
        <ele>1961.0</ele>
        <time>2015-08-29T11:25:01Z</time>
      </trkpt>
      <trkpt lat="42.184287" lon="0.994473">
        <ele>1962.0</ele>
        <time>2015-08-29T11:25:02Z</time>
      </trkpt>
      <trkpt lat="42.184377" lon="0.994465">
        <ele>1963.0</ele>
        <time>2015-08-29T11:25:03Z</time>
      </trkpt>
      <trkpt lat="42.184463" lon="0.994465">
        <ele>1964.0</ele>
        <time>2015-08-29T11:25:04Z</time>
      </trkpt>
      <trkpt lat="42.184548" lon="0.994468">
        <ele>1966.0</ele>
        <time>2015-08-29T11:25:05Z</time>
      </trkpt>
      <trkpt lat="42.184633" lon="0.994438">
        <ele>1966.0</ele>
        <time>2015-08-29T11:25:06Z</time>
      </trkpt>
      <trkpt lat="42.184718" lon="0.994383">
        <ele>1967.0</ele>
        <time>2015-08-29T11:25:07Z</time>
      </trkpt>
      <trkpt lat="42.184798" lon="0.994333">
        <ele>1967.0</ele>
        <time>2015-08-29T11:25:08Z</time>
      </trkpt>
      <trkpt lat="42.184877" lon="0.994290">
        <ele>1967.0</ele>
        <time>2015-08-29T11:25:09Z</time>
      </trkpt>
      <trkpt lat="42.184960" lon="0.994248">
        <ele>1968.0</ele>
        <time>2015-08-29T11:25:10Z</time>
      </trkpt>
      <trkpt lat="42.185047" lon="0.994223">
        <ele>1969.0</ele>
        <time>2015-08-29T11:25:11Z</time>
      </trkpt>
      <trkpt lat="42.185133" lon="0.994220">
        <ele>1970.0</ele>
        <time>2015-08-29T11:25:12Z</time>
      </trkpt>
      <trkpt lat="42.185220" lon="0.994218">
        <ele>1971.0</ele>
        <time>2015-08-29T11:25:13Z</time>
      </trkpt>
      <trkpt lat="42.185307" lon="0.994190">
        <ele>1972.0</ele>
        <time>2015-08-29T11:25:14Z</time>
      </trkpt>
      <trkpt lat="42.185395" lon="0.994132">
        <ele>1972.0</ele>
        <time>2015-08-29T11:25:15Z</time>
      </trkpt>
      <trkpt lat="42.185482" lon="0.994052">
        <ele>1973.0</ele>
        <time>2015-08-29T11:25:16Z</time>
      </trkpt>
      <trkpt lat="42.185560" lon="0.993970">
        <ele>1975.0</ele>
        <time>2015-08-29T11:25:17Z</time>
      </trkpt>
      <trkpt lat="42.185622" lon="0.993895">
        <ele>1976.0</ele>
        <time>2015-08-29T11:25:18Z</time>
      </trkpt>
      <trkpt lat="42.185670" lon="0.993810">
        <ele>1977.0</ele>
        <time>2015-08-29T11:25:19Z</time>
      </trkpt>
      <trkpt lat="42.185693" lon="0.993698">
        <ele>1978.0</ele>
        <time>2015-08-29T11:25:20Z</time>
      </trkpt>
      <trkpt lat="42.185715" lon="0.993585">
        <ele>1979.0</ele>
        <time>2015-08-29T11:25:21Z</time>
      </trkpt>
      <trkpt lat="42.185732" lon="0.993472">
        <ele>1980.0</ele>
        <time>2015-08-29T11:25:22Z</time>
      </trkpt>
      <trkpt lat="42.185727" lon="0.993362">
        <ele>1981.0</ele>
        <time>2015-08-29T11:25:23Z</time>
      </trkpt>
      <trkpt lat="42.185708" lon="0.993277">
        <ele>1982.0</ele>
        <time>2015-08-29T11:25:24Z</time>
      </trkpt>
      <trkpt lat="42.185698" lon="0.993190">
        <ele>1983.0</ele>
        <time>2015-08-29T11:25:25Z</time>
      </trkpt>
      <trkpt lat="42.185700" lon="0.993100">
        <ele>1985.0</ele>
        <time>2015-08-29T11:25:26Z</time>
      </trkpt>
      <trkpt lat="42.185703" lon="0.992998">
        <ele>1986.0</ele>
        <time>2015-08-29T11:25:27Z</time>
      </trkpt>
      <trkpt lat="42.185703" lon="0.992892">
        <ele>1988.0</ele>
        <time>2015-08-29T11:25:28Z</time>
      </trkpt>
      <trkpt lat="42.185703" lon="0.992788">
        <ele>1989.0</ele>
        <time>2015-08-29T11:25:29Z</time>
      </trkpt>
      <trkpt lat="42.185698" lon="0.992685">
        <ele>1991.0</ele>
        <time>2015-08-29T11:25:30Z</time>
      </trkpt>
      <trkpt lat="42.185697" lon="0.992578">
        <ele>1994.0</ele>
        <time>2015-08-29T11:25:31Z</time>
      </trkpt>
      <trkpt lat="42.185695" lon="0.992470">
        <ele>1996.0</ele>
        <time>2015-08-29T11:25:32Z</time>
      </trkpt>
      <trkpt lat="42.185692" lon="0.992357">
        <ele>1997.0</ele>
        <time>2015-08-29T11:25:33Z</time>
      </trkpt>
      <trkpt lat="42.185683" lon="0.992242">
        <ele>1999.0</ele>
        <time>2015-08-29T11:25:34Z</time>
      </trkpt>
      <trkpt lat="42.185663" lon="0.992125">
        <ele>2000.0</ele>
        <time>2015-08-29T11:25:35Z</time>
      </trkpt>
      <trkpt lat="42.185633" lon="0.992015">
        <ele>2002.0</ele>
        <time>2015-08-29T11:25:36Z</time>
      </trkpt>
      <trkpt lat="42.185600" lon="0.991908">
        <ele>2004.0</ele>
        <time>2015-08-29T11:25:37Z</time>
      </trkpt>
      <trkpt lat="42.185577" lon="0.991810">
        <ele>2006.0</ele>
        <time>2015-08-29T11:25:38Z</time>
      </trkpt>
      <trkpt lat="42.185547" lon="0.991713">
        <ele>2008.0</ele>
        <time>2015-08-29T11:25:39Z</time>
      </trkpt>
      <trkpt lat="42.185498" lon="0.991620">
        <ele>2008.0</ele>
        <time>2015-08-29T11:25:40Z</time>
      </trkpt>
      <trkpt lat="42.185453" lon="0.991527">
        <ele>2009.0</ele>
        <time>2015-08-29T11:25:41Z</time>
      </trkpt>
      <trkpt lat="42.185413" lon="0.991430">
        <ele>2010.0</ele>
        <time>2015-08-29T11:25:42Z</time>
      </trkpt>
      <trkpt lat="42.185372" lon="0.991333">
        <ele>2011.0</ele>
        <time>2015-08-29T11:25:43Z</time>
      </trkpt>
      <trkpt lat="42.185325" lon="0.991242">
        <ele>2012.0</ele>
        <time>2015-08-29T11:25:44Z</time>
      </trkpt>
      <trkpt lat="42.185278" lon="0.991158">
        <ele>2015.0</ele>
        <time>2015-08-29T11:25:45Z</time>
      </trkpt>
      <trkpt lat="42.185230" lon="0.991087">
        <ele>2017.0</ele>
        <time>2015-08-29T11:25:46Z</time>
      </trkpt>
      <trkpt lat="42.185185" lon="0.991022">
        <ele>2019.0</ele>
        <time>2015-08-29T11:25:47Z</time>
      </trkpt>
      <trkpt lat="42.185138" lon="0.990958">
        <ele>2021.0</ele>
        <time>2015-08-29T11:25:48Z</time>
      </trkpt>
      <trkpt lat="42.185093" lon="0.990893">
        <ele>2023.0</ele>
        <time>2015-08-29T11:25:49Z</time>
      </trkpt>
      <trkpt lat="42.185037" lon="0.990835">
        <ele>2023.0</ele>
        <time>2015-08-29T11:25:50Z</time>
      </trkpt>
      <trkpt lat="42.184983" lon="0.990783">
        <ele>2024.0</ele>
        <time>2015-08-29T11:25:51Z</time>
      </trkpt>
      <trkpt lat="42.184923" lon="0.990747">
        <ele>2025.0</ele>
        <time>2015-08-29T11:25:52Z</time>
      </trkpt>
      <trkpt lat="42.184862" lon="0.990720">
        <ele>2025.0</ele>
        <time>2015-08-29T11:25:53Z</time>
      </trkpt>
      <trkpt lat="42.184800" lon="0.990698">
        <ele>2026.0</ele>
        <time>2015-08-29T11:25:54Z</time>
      </trkpt>
      <trkpt lat="42.184752" lon="0.990690">
        <ele>2027.0</ele>
        <time>2015-08-29T11:25:55Z</time>
      </trkpt>
      <trkpt lat="42.184700" lon="0.990705">
        <ele>2028.0</ele>
        <time>2015-08-29T11:25:56Z</time>
      </trkpt>
      <trkpt lat="42.184640" lon="0.990755">
        <ele>2030.0</ele>
        <time>2015-08-29T11:25:57Z</time>
      </trkpt>
      <trkpt lat="42.184585" lon="0.990818">
        <ele>2031.0</ele>
        <time>2015-08-29T11:25:58Z</time>
      </trkpt>
      <trkpt lat="42.184542" lon="0.990885">
        <ele>2032.0</ele>
        <time>2015-08-29T11:25:59Z</time>
      </trkpt>
      <trkpt lat="42.184508" lon="0.990963">
        <ele>2034.0</ele>
        <time>2015-08-29T11:26:00Z</time>
      </trkpt>
      <trkpt lat="42.184482" lon="0.991053">
        <ele>2036.0</ele>
        <time>2015-08-29T11:26:01Z</time>
      </trkpt>
      <trkpt lat="42.184468" lon="0.991153">
        <ele>2039.0</ele>
        <time>2015-08-29T11:26:02Z</time>
      </trkpt>
      <trkpt lat="42.184465" lon="0.991253">
        <ele>2041.0</ele>
        <time>2015-08-29T11:26:03Z</time>
      </trkpt>
      <trkpt lat="42.184485" lon="0.991352">
        <ele>2043.0</ele>
        <time>2015-08-29T11:26:04Z</time>
      </trkpt>
      <trkpt lat="42.184515" lon="0.991430">
        <ele>2046.0</ele>
        <time>2015-08-29T11:26:05Z</time>
      </trkpt>
      <trkpt lat="42.184550" lon="0.991510">
        <ele>2048.0</ele>
        <time>2015-08-29T11:26:06Z</time>
      </trkpt>
      <trkpt lat="42.184585" lon="0.991602">
        <ele>2050.0</ele>
        <time>2015-08-29T11:26:07Z</time>
      </trkpt>
      <trkpt lat="42.184615" lon="0.991700">
        <ele>2051.0</ele>
        <time>2015-08-29T11:26:08Z</time>
      </trkpt>
      <trkpt lat="42.184648" lon="0.991800">
        <ele>2054.0</ele>
        <time>2015-08-29T11:26:09Z</time>
      </trkpt>
      <trkpt lat="42.184692" lon="0.991890">
        <ele>2055.0</ele>
        <time>2015-08-29T11:26:10Z</time>
      </trkpt>
      <trkpt lat="42.184742" lon="0.991967">
        <ele>2057.0</ele>
        <time>2015-08-29T11:26:11Z</time>
      </trkpt>
      <trkpt lat="42.184808" lon="0.992032">
        <ele>2058.0</ele>
        <time>2015-08-29T11:26:12Z</time>
      </trkpt>
      <trkpt lat="42.184880" lon="0.992082">
        <ele>2060.0</ele>
        <time>2015-08-29T11:26:13Z</time>
      </trkpt>
      <trkpt lat="42.184960" lon="0.992125">
        <ele>2061.0</ele>
        <time>2015-08-29T11:26:14Z</time>
      </trkpt>
      <trkpt lat="42.185043" lon="0.992155">
        <ele>2062.0</ele>
        <time>2015-08-29T11:26:15Z</time>
      </trkpt>
      <trkpt lat="42.185125" lon="0.992167">
        <ele>2062.0</ele>
        <time>2015-08-29T11:26:16Z</time>
      </trkpt>
      <trkpt lat="42.185212" lon="0.992172">
        <ele>2063.0</ele>
        <time>2015-08-29T11:26:17Z</time>
      </trkpt>
      <trkpt lat="42.185300" lon="0.992178">
        <ele>2064.0</ele>
        <time>2015-08-29T11:26:18Z</time>
      </trkpt>
      <trkpt lat="42.185383" lon="0.992170">
        <ele>2065.0</ele>
        <time>2015-08-29T11:26:19Z</time>
      </trkpt>
      <trkpt lat="42.185453" lon="0.992152">
        <ele>2066.0</ele>
        <time>2015-08-29T11:26:20Z</time>
      </trkpt>
      <trkpt lat="42.185518" lon="0.992103">
        <ele>2067.0</ele>
        <time>2015-08-29T11:26:21Z</time>
      </trkpt>
      <trkpt lat="42.185582" lon="0.992030">
        <ele>2068.0</ele>
        <time>2015-08-29T11:26:22Z</time>
      </trkpt>
      <trkpt lat="42.185650" lon="0.991903">
        <ele>2069.0</ele>
        <time>2015-08-29T11:26:23Z</time>
      </trkpt>
      <trkpt lat="42.185708" lon="0.991813">
        <ele>2071.0</ele>
        <time>2015-08-29T11:26:24Z</time>
      </trkpt>
      <trkpt lat="42.185763" lon="0.991718">
        <ele>2073.0</ele>
        <time>2015-08-29T11:26:25Z</time>
      </trkpt>
      <trkpt lat="42.185810" lon="0.991608">
        <ele>2075.0</ele>
        <time>2015-08-29T11:26:26Z</time>
      </trkpt>
      <trkpt lat="42.185850" lon="0.991493">
        <ele>2076.0</ele>
        <time>2015-08-29T11:26:27Z</time>
      </trkpt>
      <trkpt lat="42.185880" lon="0.991375">
        <ele>2077.0</ele>
        <time>2015-08-29T11:26:28Z</time>
      </trkpt>
      <trkpt lat="42.185912" lon="0.991265">
        <ele>2080.0</ele>
        <time>2015-08-29T11:26:29Z</time>
      </trkpt>
      <trkpt lat="42.185935" lon="0.991145">
        <ele>2084.0</ele>
        <time>2015-08-29T11:26:30Z</time>
      </trkpt>
      <trkpt lat="42.185948" lon="0.991013">
        <ele>2086.0</ele>
        <time>2015-08-29T11:26:31Z</time>
      </trkpt>
      <trkpt lat="42.185950" lon="0.990888">
        <ele>2088.0</ele>
        <time>2015-08-29T11:26:32Z</time>
      </trkpt>
      <trkpt lat="42.185945" lon="0.990780">
        <ele>2089.0</ele>
        <time>2015-08-29T11:26:33Z</time>
      </trkpt>
      <trkpt lat="42.185935" lon="0.990685">
        <ele>2092.0</ele>
        <time>2015-08-29T11:26:34Z</time>
      </trkpt>
      <trkpt lat="42.185907" lon="0.990600">
        <ele>2093.0</ele>
        <time>2015-08-29T11:26:35Z</time>
      </trkpt>
      <trkpt lat="42.185858" lon="0.990523">
        <ele>2094.0</ele>
        <time>2015-08-29T11:26:36Z</time>
      </trkpt>
      <trkpt lat="42.185808" lon="0.990445">
        <ele>2097.0</ele>
        <time>2015-08-29T11:26:37Z</time>
      </trkpt>
      <trkpt lat="42.185747" lon="0.990383">
        <ele>2096.0</ele>
        <time>2015-08-29T11:26:38Z</time>
      </trkpt>
      <trkpt lat="42.185700" lon="0.990327">
        <ele>2098.0</ele>
        <time>2015-08-29T11:26:39Z</time>
      </trkpt>
      <trkpt lat="42.185653" lon="0.990283">
        <ele>2100.0</ele>
        <time>2015-08-29T11:26:40Z</time>
      </trkpt>
      <trkpt lat="42.185608" lon="0.990240">
        <ele>2100.0</ele>
        <time>2015-08-29T11:26:41Z</time>
      </trkpt>
      <trkpt lat="42.185555" lon="0.990195">
        <ele>2100.0</ele>
        <time>2015-08-29T11:26:42Z</time>
      </trkpt>
      <trkpt lat="42.185490" lon="0.990153">
        <ele>2100.0</ele>
        <time>2015-08-29T11:26:43Z</time>
      </trkpt>
      <trkpt lat="42.185418" lon="0.990130">
        <ele>2100.0</ele>
        <time>2015-08-29T11:26:44Z</time>
      </trkpt>
      <trkpt lat="42.185353" lon="0.990128">
        <ele>2102.0</ele>
        <time>2015-08-29T11:26:45Z</time>
      </trkpt>
      <trkpt lat="42.185295" lon="0.990140">
        <ele>2104.0</ele>
        <time>2015-08-29T11:26:46Z</time>
      </trkpt>
      <trkpt lat="42.185237" lon="0.990157">
        <ele>2106.0</ele>
        <time>2015-08-29T11:26:47Z</time>
      </trkpt>
      <trkpt lat="42.185167" lon="0.990178">
        <ele>2106.0</ele>
        <time>2015-08-29T11:26:48Z</time>
      </trkpt>
      <trkpt lat="42.185098" lon="0.990217">
        <ele>2106.0</ele>
        <time>2015-08-29T11:26:49Z</time>
      </trkpt>
      <trkpt lat="42.185042" lon="0.990278">
        <ele>2105.0</ele>
        <time>2015-08-29T11:26:50Z</time>
      </trkpt>
      <trkpt lat="42.184990" lon="0.990355">
        <ele>2104.0</ele>
        <time>2015-08-29T11:26:51Z</time>
      </trkpt>
      <trkpt lat="42.184942" lon="0.990432">
        <ele>2104.0</ele>
        <time>2015-08-29T11:26:52Z</time>
      </trkpt>
      <trkpt lat="42.184895" lon="0.990505">
        <ele>2105.0</ele>
        <time>2015-08-29T11:26:53Z</time>
      </trkpt>
      <trkpt lat="42.184853" lon="0.990568">
        <ele>2106.0</ele>
        <time>2015-08-29T11:26:54Z</time>
      </trkpt>
      <trkpt lat="42.184832" lon="0.990623">
        <ele>2107.0</ele>
        <time>2015-08-29T11:26:55Z</time>
      </trkpt>
      <trkpt lat="42.184830" lon="0.990677">
        <ele>2107.0</ele>
        <time>2015-08-29T11:26:56Z</time>
      </trkpt>
      <trkpt lat="42.184832" lon="0.990740">
        <ele>2107.0</ele>
        <time>2015-08-29T11:26:57Z</time>
      </trkpt>
      <trkpt lat="42.184833" lon="0.990802">
        <ele>2106.0</ele>
        <time>2015-08-29T11:26:58Z</time>
      </trkpt>
      <trkpt lat="42.184830" lon="0.990868">
        <ele>2106.0</ele>
        <time>2015-08-29T11:26:59Z</time>
      </trkpt>
      <trkpt lat="42.184825" lon="0.990965">
        <ele>2103.0</ele>
        <time>2015-08-29T11:27:00Z</time>
      </trkpt>
      <trkpt lat="42.184842" lon="0.991073">
        <ele>2101.0</ele>
        <time>2015-08-29T11:27:01Z</time>
      </trkpt>
      <trkpt lat="42.184878" lon="0.991178">
        <ele>2099.0</ele>
        <time>2015-08-29T11:27:02Z</time>
      </trkpt>
      <trkpt lat="42.184927" lon="0.991263">
        <ele>2100.0</ele>
        <time>2015-08-29T11:27:03Z</time>
      </trkpt>
      <trkpt lat="42.184977" lon="0.991333">
        <ele>2101.0</ele>
        <time>2015-08-29T11:27:04Z</time>
      </trkpt>
      <trkpt lat="42.185025" lon="0.991405">
        <ele>2099.0</ele>
        <time>2015-08-29T11:27:05Z</time>
      </trkpt>
      <trkpt lat="42.185065" lon="0.991473">
        <ele>2096.0</ele>
        <time>2015-08-29T11:27:06Z</time>
      </trkpt>
      <trkpt lat="42.185097" lon="0.991542">
        <ele>2093.0</ele>
        <time>2015-08-29T11:27:07Z</time>
      </trkpt>
      <trkpt lat="42.185123" lon="0.991620">
        <ele>2090.0</ele>
        <time>2015-08-29T11:27:08Z</time>
      </trkpt>
      <trkpt lat="42.185137" lon="0.991677">
        <ele>2090.0</ele>
        <time>2015-08-29T11:27:09Z</time>
      </trkpt>
      <trkpt lat="42.185225" lon="0.991798">
        <ele>2087.0</ele>
        <time>2015-08-29T11:27:10Z</time>
      </trkpt>
      <trkpt lat="42.185305" lon="0.991872">
        <ele>2086.0</ele>
        <time>2015-08-29T11:27:11Z</time>
      </trkpt>
      <trkpt lat="42.185380" lon="0.991938">
        <ele>2086.0</ele>
        <time>2015-08-29T11:27:12Z</time>
      </trkpt>
      <trkpt lat="42.185452" lon="0.992013">
        <ele>2086.0</ele>
        <time>2015-08-29T11:27:13Z</time>
      </trkpt>
      <trkpt lat="42.185520" lon="0.992103">
        <ele>2086.0</ele>
        <time>2015-08-29T11:27:14Z</time>
      </trkpt>
      <trkpt lat="42.185587" lon="0.992207">
        <ele>2088.0</ele>
        <time>2015-08-29T11:27:15Z</time>
      </trkpt>
      <trkpt lat="42.185660" lon="0.992310">
        <ele>2089.0</ele>
        <time>2015-08-29T11:27:16Z</time>
      </trkpt>
      <trkpt lat="42.185732" lon="0.992398">
        <ele>2091.0</ele>
        <time>2015-08-29T11:27:17Z</time>
      </trkpt>
      <trkpt lat="42.185808" lon="0.992463">
        <ele>2092.0</ele>
        <time>2015-08-29T11:27:18Z</time>
      </trkpt>
      <trkpt lat="42.185888" lon="0.992520">
        <ele>2093.0</ele>
        <time>2015-08-29T11:27:19Z</time>
      </trkpt>
      <trkpt lat="42.185962" lon="0.992575">
        <ele>2095.0</ele>
        <time>2015-08-29T11:27:20Z</time>
      </trkpt>
      <trkpt lat="42.186037" lon="0.992642">
        <ele>2098.0</ele>
        <time>2015-08-29T11:27:21Z</time>
      </trkpt>
      <trkpt lat="42.186120" lon="0.992725">
        <ele>2099.0</ele>
        <time>2015-08-29T11:27:22Z</time>
      </trkpt>
      <trkpt lat="42.186190" lon="0.992795">
        <ele>2100.0</ele>
        <time>2015-08-29T11:27:23Z</time>
      </trkpt>
      <trkpt lat="42.186257" lon="0.992848">
        <ele>2102.0</ele>
        <time>2015-08-29T11:27:24Z</time>
      </trkpt>
      <trkpt lat="42.186310" lon="0.992892">
        <ele>2103.0</ele>
        <time>2015-08-29T11:27:25Z</time>
      </trkpt>
      <trkpt lat="42.186363" lon="0.992928">
        <ele>2104.0</ele>
        <time>2015-08-29T11:27:26Z</time>
      </trkpt>
      <trkpt lat="42.186418" lon="0.992983">
        <ele>2105.0</ele>
        <time>2015-08-29T11:27:27Z</time>
      </trkpt>
      <trkpt lat="42.186472" lon="0.993065">
        <ele>2107.0</ele>
        <time>2015-08-29T11:27:28Z</time>
      </trkpt>
      <trkpt lat="42.186522" lon="0.993170">
        <ele>2109.0</ele>
        <time>2015-08-29T11:27:29Z</time>
      </trkpt>
      <trkpt lat="42.186553" lon="0.993293">
        <ele>2110.0</ele>
        <time>2015-08-29T11:27:30Z</time>
      </trkpt>
      <trkpt lat="42.186588" lon="0.993395">
        <ele>2113.0</ele>
        <time>2015-08-29T11:27:31Z</time>
      </trkpt>
      <trkpt lat="42.186625" lon="0.993483">
        <ele>2114.0</ele>
        <time>2015-08-29T11:27:32Z</time>
      </trkpt>
      <trkpt lat="42.186662" lon="0.993572">
        <ele>2116.0</ele>
        <time>2015-08-29T11:27:33Z</time>
      </trkpt>
      <trkpt lat="42.186695" lon="0.993667">
        <ele>2117.0</ele>
        <time>2015-08-29T11:27:34Z</time>
      </trkpt>
      <trkpt lat="42.186718" lon="0.993763">
        <ele>2118.0</ele>
        <time>2015-08-29T11:27:35Z</time>
      </trkpt>
      <trkpt lat="42.186732" lon="0.993865">
        <ele>2118.0</ele>
        <time>2015-08-29T11:27:36Z</time>
      </trkpt>
      <trkpt lat="42.186748" lon="0.993940">
        <ele>2120.0</ele>
        <time>2015-08-29T11:27:37Z</time>
      </trkpt>
      <trkpt lat="42.186775" lon="0.994018">
        <ele>2120.0</ele>
        <time>2015-08-29T11:27:38Z</time>
      </trkpt>
      <trkpt lat="42.186813" lon="0.994122">
        <ele>2119.0</ele>
        <time>2015-08-29T11:27:39Z</time>
      </trkpt>
      <trkpt lat="42.186847" lon="0.994238">
        <ele>2118.0</ele>
        <time>2015-08-29T11:27:40Z</time>
      </trkpt>
      <trkpt lat="42.186865" lon="0.994352">
        <ele>2117.0</ele>
        <time>2015-08-29T11:27:41Z</time>
      </trkpt>
      <trkpt lat="42.186872" lon="0.994452">
        <ele>2117.0</ele>
        <time>2015-08-29T11:27:42Z</time>
      </trkpt>
      <trkpt lat="42.186872" lon="0.994542">
        <ele>2117.0</ele>
        <time>2015-08-29T11:27:43Z</time>
      </trkpt>
      <trkpt lat="42.186875" lon="0.994620">
        <ele>2117.0</ele>
        <time>2015-08-29T11:27:44Z</time>
      </trkpt>
      <trkpt lat="42.186878" lon="0.994690">
        <ele>2119.0</ele>
        <time>2015-08-29T11:27:45Z</time>
      </trkpt>
      <trkpt lat="42.186872" lon="0.994780">
        <ele>2119.0</ele>
        <time>2015-08-29T11:27:46Z</time>
      </trkpt>
      <trkpt lat="42.186862" lon="0.994885">
        <ele>2118.0</ele>
        <time>2015-08-29T11:27:47Z</time>
      </trkpt>
      <trkpt lat="42.186848" lon="0.994978">
        <ele>2118.0</ele>
        <time>2015-08-29T11:27:48Z</time>
      </trkpt>
      <trkpt lat="42.186830" lon="0.995057">
        <ele>2117.0</ele>
        <time>2015-08-29T11:27:49Z</time>
      </trkpt>
      <trkpt lat="42.186808" lon="0.995127">
        <ele>2116.0</ele>
        <time>2015-08-29T11:27:50Z</time>
      </trkpt>
      <trkpt lat="42.186782" lon="0.995195">
        <ele>2115.0</ele>
        <time>2015-08-29T11:27:51Z</time>
      </trkpt>
      <trkpt lat="42.186740" lon="0.995260">
        <ele>2114.0</ele>
        <time>2015-08-29T11:27:52Z</time>
      </trkpt>
      <trkpt lat="42.186683" lon="0.995307">
        <ele>2114.0</ele>
        <time>2015-08-29T11:27:53Z</time>
      </trkpt>
      <trkpt lat="42.186613" lon="0.995323">
        <ele>2114.0</ele>
        <time>2015-08-29T11:27:54Z</time>
      </trkpt>
      <trkpt lat="42.186538" lon="0.995305">
        <ele>2113.0</ele>
        <time>2015-08-29T11:27:55Z</time>
      </trkpt>
      <trkpt lat="42.186467" lon="0.995262">
        <ele>2112.0</ele>
        <time>2015-08-29T11:27:56Z</time>
      </trkpt>
      <trkpt lat="42.186398" lon="0.995200">
        <ele>2112.0</ele>
        <time>2015-08-29T11:27:57Z</time>
      </trkpt>
      <trkpt lat="42.186342" lon="0.995107">
        <ele>2111.0</ele>
        <time>2015-08-29T11:27:58Z</time>
      </trkpt>
      <trkpt lat="42.186295" lon="0.995000">
        <ele>2110.0</ele>
        <time>2015-08-29T11:27:59Z</time>
      </trkpt>
      <trkpt lat="42.186263" lon="0.994892">
        <ele>2110.0</ele>
        <time>2015-08-29T11:28:00Z</time>
      </trkpt>
      <trkpt lat="42.186260" lon="0.994793">
        <ele>2109.0</ele>
        <time>2015-08-29T11:28:01Z</time>
      </trkpt>
      <trkpt lat="42.186278" lon="0.994695">
        <ele>2110.0</ele>
        <time>2015-08-29T11:28:02Z</time>
      </trkpt>
      <trkpt lat="42.186308" lon="0.994583">
        <ele>2110.0</ele>
        <time>2015-08-29T11:28:03Z</time>
      </trkpt>
      <trkpt lat="42.186350" lon="0.994478">
        <ele>2110.0</ele>
        <time>2015-08-29T11:28:04Z</time>
      </trkpt>
      <trkpt lat="42.186403" lon="0.994388">
        <ele>2110.0</ele>
        <time>2015-08-29T11:28:05Z</time>
      </trkpt>
      <trkpt lat="42.186468" lon="0.994310">
        <ele>2111.0</ele>
        <time>2015-08-29T11:28:06Z</time>
      </trkpt>
      <trkpt lat="42.186543" lon="0.994247">
        <ele>2111.0</ele>
        <time>2015-08-29T11:28:07Z</time>
      </trkpt>
      <trkpt lat="42.186627" lon="0.994193">
        <ele>2111.0</ele>
        <time>2015-08-29T11:28:08Z</time>
      </trkpt>
      <trkpt lat="42.186718" lon="0.994145">
        <ele>2111.0</ele>
        <time>2015-08-29T11:28:09Z</time>
      </trkpt>
      <trkpt lat="42.186817" lon="0.994100">
        <ele>2112.0</ele>
        <time>2015-08-29T11:28:10Z</time>
      </trkpt>
      <trkpt lat="42.186932" lon="0.994062">
        <ele>2111.0</ele>
        <time>2015-08-29T11:28:11Z</time>
      </trkpt>
      <trkpt lat="42.187045" lon="0.994038">
        <ele>2112.0</ele>
        <time>2015-08-29T11:28:12Z</time>
      </trkpt>
      <trkpt lat="42.187153" lon="0.994017">
        <ele>2112.0</ele>
        <time>2015-08-29T11:28:13Z</time>
      </trkpt>
      <trkpt lat="42.187257" lon="0.993983">
        <ele>2112.0</ele>
        <time>2015-08-29T11:28:14Z</time>
      </trkpt>
      <trkpt lat="42.187362" lon="0.993935">
        <ele>2112.0</ele>
        <time>2015-08-29T11:28:15Z</time>
      </trkpt>
      <trkpt lat="42.187468" lon="0.993873">
        <ele>2113.0</ele>
        <time>2015-08-29T11:28:16Z</time>
      </trkpt>
      <trkpt lat="42.187582" lon="0.993793">
        <ele>2112.0</ele>
        <time>2015-08-29T11:28:17Z</time>
      </trkpt>
      <trkpt lat="42.187687" lon="0.993728">
        <ele>2114.0</ele>
        <time>2015-08-29T11:28:18Z</time>
      </trkpt>
      <trkpt lat="42.187782" lon="0.993668">
        <ele>2115.0</ele>
        <time>2015-08-29T11:28:19Z</time>
      </trkpt>
      <trkpt lat="42.187877" lon="0.993598">
        <ele>2115.0</ele>
        <time>2015-08-29T11:28:20Z</time>
      </trkpt>
      <trkpt lat="42.187973" lon="0.993525">
        <ele>2115.0</ele>
        <time>2015-08-29T11:28:21Z</time>
      </trkpt>
      <trkpt lat="42.188068" lon="0.993455">
        <ele>2116.0</ele>
        <time>2015-08-29T11:28:22Z</time>
      </trkpt>
      <trkpt lat="42.188162" lon="0.993383">
        <ele>2116.0</ele>
        <time>2015-08-29T11:28:23Z</time>
      </trkpt>
      <trkpt lat="42.188250" lon="0.993312">
        <ele>2116.0</ele>
        <time>2015-08-29T11:28:24Z</time>
      </trkpt>
      <trkpt lat="42.188332" lon="0.993240">
        <ele>2117.0</ele>
        <time>2015-08-29T11:28:25Z</time>
      </trkpt>
      <trkpt lat="42.188402" lon="0.993185">
        <ele>2118.0</ele>
        <time>2015-08-29T11:28:26Z</time>
      </trkpt>
      <trkpt lat="42.188465" lon="0.993142">
        <ele>2119.0</ele>
        <time>2015-08-29T11:28:27Z</time>
      </trkpt>
      <trkpt lat="42.188530" lon="0.993097">
        <ele>2120.0</ele>
        <time>2015-08-29T11:28:28Z</time>
      </trkpt>
      <trkpt lat="42.188605" lon="0.993053">
        <ele>2121.0</ele>
        <time>2015-08-29T11:28:29Z</time>
      </trkpt>
      <trkpt lat="42.188695" lon="0.993022">
        <ele>2122.0</ele>
        <time>2015-08-29T11:28:30Z</time>
      </trkpt>
      <trkpt lat="42.188790" lon="0.993007">
        <ele>2123.0</ele>
        <time>2015-08-29T11:28:31Z</time>
      </trkpt>
      <trkpt lat="42.188883" lon="0.992993">
        <ele>2124.0</ele>
        <time>2015-08-29T11:28:32Z</time>
      </trkpt>
      <trkpt lat="42.188975" lon="0.992960">
        <ele>2126.0</ele>
        <time>2015-08-29T11:28:33Z</time>
      </trkpt>
      <trkpt lat="42.189058" lon="0.992903">
        <ele>2126.0</ele>
        <time>2015-08-29T11:28:34Z</time>
      </trkpt>
      <trkpt lat="42.189135" lon="0.992832">
        <ele>2126.0</ele>
        <time>2015-08-29T11:28:35Z</time>
      </trkpt>
      <trkpt lat="42.189208" lon="0.992757">
        <ele>2128.0</ele>
        <time>2015-08-29T11:28:36Z</time>
      </trkpt>
      <trkpt lat="42.189265" lon="0.992655">
        <ele>2128.0</ele>
        <time>2015-08-29T11:28:37Z</time>
      </trkpt>
      <trkpt lat="42.189318" lon="0.992542">
        <ele>2128.0</ele>
        <time>2015-08-29T11:28:38Z</time>
      </trkpt>
      <trkpt lat="42.189373" lon="0.992432">
        <ele>2129.0</ele>
        <time>2015-08-29T11:28:39Z</time>
      </trkpt>
      <trkpt lat="42.189433" lon="0.992322">
        <ele>2128.0</ele>
        <time>2015-08-29T11:28:40Z</time>
      </trkpt>
      <trkpt lat="42.189497" lon="0.992215">
        <ele>2128.0</ele>
        <time>2015-08-29T11:28:41Z</time>
      </trkpt>
      <trkpt lat="42.189563" lon="0.992110">
        <ele>2128.0</ele>
        <time>2015-08-29T11:28:42Z</time>
      </trkpt>
      <trkpt lat="42.189638" lon="0.991997">
        <ele>2128.0</ele>
        <time>2015-08-29T11:28:43Z</time>
      </trkpt>
      <trkpt lat="42.189713" lon="0.991878">
        <ele>2128.0</ele>
        <time>2015-08-29T11:28:44Z</time>
      </trkpt>
      <trkpt lat="42.189780" lon="0.991768">
        <ele>2129.0</ele>
        <time>2015-08-29T11:28:45Z</time>
      </trkpt>
      <trkpt lat="42.189835" lon="0.991658">
        <ele>2129.0</ele>
        <time>2015-08-29T11:28:46Z</time>
      </trkpt>
      <trkpt lat="42.189892" lon="0.991545">
        <ele>2129.0</ele>
        <time>2015-08-29T11:28:47Z</time>
      </trkpt>
      <trkpt lat="42.189965" lon="0.991435">
        <ele>2129.0</ele>
        <time>2015-08-29T11:28:48Z</time>
      </trkpt>
      <trkpt lat="42.190048" lon="0.991332">
        <ele>2129.0</ele>
        <time>2015-08-29T11:28:49Z</time>
      </trkpt>
      <trkpt lat="42.190133" lon="0.991232">
        <ele>2129.0</ele>
        <time>2015-08-29T11:28:50Z</time>
      </trkpt>
      <trkpt lat="42.190210" lon="0.991132">
        <ele>2129.0</ele>
        <time>2015-08-29T11:28:51Z</time>
      </trkpt>
      <trkpt lat="42.190272" lon="0.991032">
        <ele>2130.0</ele>
        <time>2015-08-29T11:28:52Z</time>
      </trkpt>
      <trkpt lat="42.190328" lon="0.990922">
        <ele>2130.0</ele>
        <time>2015-08-29T11:28:53Z</time>
      </trkpt>
      <trkpt lat="42.190378" lon="0.990802">
        <ele>2129.0</ele>
        <time>2015-08-29T11:28:54Z</time>
      </trkpt>
      <trkpt lat="42.190425" lon="0.990677">
        <ele>2127.0</ele>
        <time>2015-08-29T11:28:55Z</time>
      </trkpt>
      <trkpt lat="42.190468" lon="0.990560">
        <ele>2126.0</ele>
        <time>2015-08-29T11:28:56Z</time>
      </trkpt>
      <trkpt lat="42.190507" lon="0.990453">
        <ele>2124.0</ele>
        <time>2015-08-29T11:28:57Z</time>
      </trkpt>
      <trkpt lat="42.190545" lon="0.990338">
        <ele>2122.0</ele>
        <time>2015-08-29T11:28:58Z</time>
      </trkpt>
      <trkpt lat="42.190582" lon="0.990218">
        <ele>2121.0</ele>
        <time>2015-08-29T11:28:59Z</time>
      </trkpt>
      <trkpt lat="42.190620" lon="0.990092">
        <ele>2122.0</ele>
        <time>2015-08-29T11:29:00Z</time>
      </trkpt>
      <trkpt lat="42.190652" lon="0.989978">
        <ele>2121.0</ele>
        <time>2015-08-29T11:29:01Z</time>
      </trkpt>
      <trkpt lat="42.190675" lon="0.989875">
        <ele>2121.0</ele>
        <time>2015-08-29T11:29:02Z</time>
      </trkpt>
      <trkpt lat="42.190695" lon="0.989787">
        <ele>2120.0</ele>
        <time>2015-08-29T11:29:03Z</time>
      </trkpt>
      <trkpt lat="42.190710" lon="0.989700">
        <ele>2119.0</ele>
        <time>2015-08-29T11:29:04Z</time>
      </trkpt>
      <trkpt lat="42.190727" lon="0.989603">
        <ele>2117.0</ele>
        <time>2015-08-29T11:29:05Z</time>
      </trkpt>
      <trkpt lat="42.190735" lon="0.989493">
        <ele>2115.0</ele>
        <time>2015-08-29T11:29:06Z</time>
      </trkpt>
      <trkpt lat="42.190735" lon="0.989380">
        <ele>2113.0</ele>
        <time>2015-08-29T11:29:07Z</time>
      </trkpt>
      <trkpt lat="42.190720" lon="0.989272">
        <ele>2110.0</ele>
        <time>2015-08-29T11:29:08Z</time>
      </trkpt>
      <trkpt lat="42.190695" lon="0.989187">
        <ele>2109.0</ele>
        <time>2015-08-29T11:29:09Z</time>
      </trkpt>
      <trkpt lat="42.190657" lon="0.989112">
        <ele>2108.0</ele>
        <time>2015-08-29T11:29:10Z</time>
      </trkpt>
      <trkpt lat="42.190615" lon="0.989045">
        <ele>2106.0</ele>
        <time>2015-08-29T11:29:11Z</time>
      </trkpt>
      <trkpt lat="42.190575" lon="0.988982">
        <ele>2105.0</ele>
        <time>2015-08-29T11:29:12Z</time>
      </trkpt>
      <trkpt lat="42.190535" lon="0.988922">
        <ele>2102.0</ele>
        <time>2015-08-29T11:29:13Z</time>
      </trkpt>
      <trkpt lat="42.190487" lon="0.988870">
        <ele>2101.0</ele>
        <time>2015-08-29T11:29:14Z</time>
      </trkpt>
      <trkpt lat="42.190430" lon="0.988832">
        <ele>2099.0</ele>
        <time>2015-08-29T11:29:15Z</time>
      </trkpt>
      <trkpt lat="42.190365" lon="0.988810">
        <ele>2098.0</ele>
        <time>2015-08-29T11:29:16Z</time>
      </trkpt>
      <trkpt lat="42.190312" lon="0.988795">
        <ele>2100.0</ele>
        <time>2015-08-29T11:29:17Z</time>
      </trkpt>
      <trkpt lat="42.190252" lon="0.988787">
        <ele>2101.0</ele>
        <time>2015-08-29T11:29:18Z</time>
      </trkpt>
      <trkpt lat="42.190198" lon="0.988775">
        <ele>2101.0</ele>
        <time>2015-08-29T11:29:19Z</time>
      </trkpt>
      <trkpt lat="42.190145" lon="0.988763">
        <ele>2101.0</ele>
        <time>2015-08-29T11:29:20Z</time>
      </trkpt>
      <trkpt lat="42.190085" lon="0.988762">
        <ele>2101.0</ele>
        <time>2015-08-29T11:29:21Z</time>
      </trkpt>
      <trkpt lat="42.190023" lon="0.988777">
        <ele>2101.0</ele>
        <time>2015-08-29T11:29:22Z</time>
      </trkpt>
      <trkpt lat="42.189963" lon="0.988807">
        <ele>2101.0</ele>
        <time>2015-08-29T11:29:23Z</time>
      </trkpt>
      <trkpt lat="42.189908" lon="0.988842">
        <ele>2101.0</ele>
        <time>2015-08-29T11:29:24Z</time>
      </trkpt>
      <trkpt lat="42.189863" lon="0.988872">
        <ele>2102.0</ele>
        <time>2015-08-29T11:29:25Z</time>
      </trkpt>
      <trkpt lat="42.189822" lon="0.988903">
        <ele>2103.0</ele>
        <time>2015-08-29T11:29:26Z</time>
      </trkpt>
      <trkpt lat="42.189767" lon="0.988953">
        <ele>2102.0</ele>
        <time>2015-08-29T11:29:27Z</time>
      </trkpt>
      <trkpt lat="42.189697" lon="0.989030">
        <ele>2101.0</ele>
        <time>2015-08-29T11:29:28Z</time>
      </trkpt>
      <trkpt lat="42.189632" lon="0.989112">
        <ele>2100.0</ele>
        <time>2015-08-29T11:29:29Z</time>
      </trkpt>
      <trkpt lat="42.189583" lon="0.989185">
        <ele>2099.0</ele>
        <time>2015-08-29T11:29:30Z</time>
      </trkpt>
      <trkpt lat="42.189542" lon="0.989253">
        <ele>2098.0</ele>
        <time>2015-08-29T11:29:31Z</time>
      </trkpt>
      <trkpt lat="42.189505" lon="0.989325">
        <ele>2097.0</ele>
        <time>2015-08-29T11:29:32Z</time>
      </trkpt>
      <trkpt lat="42.189485" lon="0.989423">
        <ele>2095.0</ele>
        <time>2015-08-29T11:29:33Z</time>
      </trkpt>
      <trkpt lat="42.189472" lon="0.989518">
        <ele>2093.0</ele>
        <time>2015-08-29T11:29:34Z</time>
      </trkpt>
      <trkpt lat="42.189470" lon="0.989623">
        <ele>2092.0</ele>
        <time>2015-08-29T11:29:35Z</time>
      </trkpt>
      <trkpt lat="42.189485" lon="0.989727">
        <ele>2091.0</ele>
        <time>2015-08-29T11:29:36Z</time>
      </trkpt>
      <trkpt lat="42.189517" lon="0.989822">
        <ele>2090.0</ele>
        <time>2015-08-29T11:29:37Z</time>
      </trkpt>
      <trkpt lat="42.189560" lon="0.989908">
        <ele>2088.0</ele>
        <time>2015-08-29T11:29:38Z</time>
      </trkpt>
      <trkpt lat="42.189612" lon="0.990000">
        <ele>2086.0</ele>
        <time>2015-08-29T11:29:39Z</time>
      </trkpt>
      <trkpt lat="42.189670" lon="0.990103">
        <ele>2085.0</ele>
        <time>2015-08-29T11:29:40Z</time>
      </trkpt>
      <trkpt lat="42.189733" lon="0.990213">
        <ele>2083.0</ele>
        <time>2015-08-29T11:29:41Z</time>
      </trkpt>
      <trkpt lat="42.189798" lon="0.990318">
        <ele>2083.0</ele>
        <time>2015-08-29T11:29:42Z</time>
      </trkpt>
      <trkpt lat="42.189860" lon="0.990402">
        <ele>2083.0</ele>
        <time>2015-08-29T11:29:43Z</time>
      </trkpt>
      <trkpt lat="42.189925" lon="0.990492">
        <ele>2083.0</ele>
        <time>2015-08-29T11:29:44Z</time>
      </trkpt>
      <trkpt lat="42.190000" lon="0.990602">
        <ele>2082.0</ele>
        <time>2015-08-29T11:29:45Z</time>
      </trkpt>
      <trkpt lat="42.190072" lon="0.990708">
        <ele>2081.0</ele>
        <time>2015-08-29T11:29:46Z</time>
      </trkpt>
      <trkpt lat="42.190150" lon="0.990802">
        <ele>2079.0</ele>
        <time>2015-08-29T11:29:47Z</time>
      </trkpt>
      <trkpt lat="42.190228" lon="0.990867">
        <ele>2078.0</ele>
        <time>2015-08-29T11:29:48Z</time>
      </trkpt>
      <trkpt lat="42.190308" lon="0.990917">
        <ele>2077.0</ele>
        <time>2015-08-29T11:29:49Z</time>
      </trkpt>
      <trkpt lat="42.190388" lon="0.990982">
        <ele>2071.0</ele>
        <time>2015-08-29T11:29:50Z</time>
      </trkpt>
      <trkpt lat="42.190473" lon="0.991042">
        <ele>2067.0</ele>
        <time>2015-08-29T11:29:51Z</time>
      </trkpt>
      <trkpt lat="42.190570" lon="0.991097">
        <ele>2064.0</ele>
        <time>2015-08-29T11:29:52Z</time>
      </trkpt>
      <trkpt lat="42.190682" lon="0.991127">
        <ele>2062.0</ele>
        <time>2015-08-29T11:29:53Z</time>
      </trkpt>
      <trkpt lat="42.190795" lon="0.991135">
        <ele>2060.0</ele>
        <time>2015-08-29T11:29:54Z</time>
      </trkpt>
      <trkpt lat="42.190882" lon="0.991138">
        <ele>2059.0</ele>
        <time>2015-08-29T11:29:55Z</time>
      </trkpt>
      <trkpt lat="42.190950" lon="0.991140">
        <ele>2058.0</ele>
        <time>2015-08-29T11:29:56Z</time>
      </trkpt>
      <trkpt lat="42.191013" lon="0.991175">
        <ele>2057.0</ele>
        <time>2015-08-29T11:29:57Z</time>
      </trkpt>
      <trkpt lat="42.191080" lon="0.991225">
        <ele>2056.0</ele>
        <time>2015-08-29T11:29:58Z</time>
      </trkpt>
      <trkpt lat="42.191152" lon="0.991265">
        <ele>2055.0</ele>
        <time>2015-08-29T11:29:59Z</time>
      </trkpt>
      <trkpt lat="42.191213" lon="0.991298">
        <ele>2057.0</ele>
        <time>2015-08-29T11:30:00Z</time>
      </trkpt>
      <trkpt lat="42.191285" lon="0.991333">
        <ele>2058.0</ele>
        <time>2015-08-29T11:30:01Z</time>
      </trkpt>
      <trkpt lat="42.191370" lon="0.991388">
        <ele>2057.0</ele>
        <time>2015-08-29T11:30:02Z</time>
      </trkpt>
      <trkpt lat="42.191455" lon="0.991450">
        <ele>2055.0</ele>
        <time>2015-08-29T11:30:03Z</time>
      </trkpt>
      <trkpt lat="42.191545" lon="0.991513">
        <ele>2054.0</ele>
        <time>2015-08-29T11:30:04Z</time>
      </trkpt>
      <trkpt lat="42.191637" lon="0.991563">
        <ele>2053.0</ele>
        <time>2015-08-29T11:30:05Z</time>
      </trkpt>
      <trkpt lat="42.191733" lon="0.991595">
        <ele>2053.0</ele>
        <time>2015-08-29T11:30:06Z</time>
      </trkpt>
      <trkpt lat="42.191835" lon="0.991617">
        <ele>2054.0</ele>
        <time>2015-08-29T11:30:07Z</time>
      </trkpt>
      <trkpt lat="42.191933" lon="0.991635">
        <ele>2054.0</ele>
        <time>2015-08-29T11:30:08Z</time>
      </trkpt>
      <trkpt lat="42.192033" lon="0.991660">
        <ele>2054.0</ele>
        <time>2015-08-29T11:30:09Z</time>
      </trkpt>
      <trkpt lat="42.192135" lon="0.991688">
        <ele>2054.0</ele>
        <time>2015-08-29T11:30:10Z</time>
      </trkpt>
      <trkpt lat="42.192245" lon="0.991713">
        <ele>2055.0</ele>
        <time>2015-08-29T11:30:11Z</time>
      </trkpt>
      <trkpt lat="42.192370" lon="0.991715">
        <ele>2055.0</ele>
        <time>2015-08-29T11:30:12Z</time>
      </trkpt>
      <trkpt lat="42.192502" lon="0.991717">
        <ele>2056.0</ele>
        <time>2015-08-29T11:30:13Z</time>
      </trkpt>
      <trkpt lat="42.192637" lon="0.991715">
        <ele>2065.0</ele>
        <time>2015-08-29T11:30:14Z</time>
      </trkpt>
      <trkpt lat="42.192747" lon="0.991742">
        <ele>2068.0</ele>
        <time>2015-08-29T11:30:15Z</time>
      </trkpt>
      <trkpt lat="42.192833" lon="0.991783">
        <ele>2072.0</ele>
        <time>2015-08-29T11:30:16Z</time>
      </trkpt>
      <trkpt lat="42.192890" lon="0.991827">
        <ele>2075.0</ele>
        <time>2015-08-29T11:30:17Z</time>
      </trkpt>
      <trkpt lat="42.192958" lon="0.991865">
        <ele>2076.0</ele>
        <time>2015-08-29T11:30:18Z</time>
      </trkpt>
      <trkpt lat="42.193055" lon="0.991885">
        <ele>2075.0</ele>
        <time>2015-08-29T11:30:19Z</time>
      </trkpt>
      <trkpt lat="42.193167" lon="0.991902">
        <ele>2074.0</ele>
        <time>2015-08-29T11:30:20Z</time>
      </trkpt>
      <trkpt lat="42.193282" lon="0.991922">
        <ele>2073.0</ele>
        <time>2015-08-29T11:30:21Z</time>
      </trkpt>
      <trkpt lat="42.193382" lon="0.991945">
        <ele>2072.0</ele>
        <time>2015-08-29T11:30:22Z</time>
      </trkpt>
      <trkpt lat="42.193465" lon="0.991970">
        <ele>2072.0</ele>
        <time>2015-08-29T11:30:23Z</time>
      </trkpt>
      <trkpt lat="42.193563" lon="0.992012">
        <ele>2071.0</ele>
        <time>2015-08-29T11:30:24Z</time>
      </trkpt>
      <trkpt lat="42.193648" lon="0.992030">
        <ele>2071.0</ele>
        <time>2015-08-29T11:30:25Z</time>
      </trkpt>
      <trkpt lat="42.193745" lon="0.992030">
        <ele>2071.0</ele>
        <time>2015-08-29T11:30:26Z</time>
      </trkpt>
      <trkpt lat="42.193858" lon="0.992023">
        <ele>2071.0</ele>
        <time>2015-08-29T11:30:27Z</time>
      </trkpt>
      <trkpt lat="42.193985" lon="0.992012">
        <ele>2071.0</ele>
        <time>2015-08-29T11:30:28Z</time>
      </trkpt>
      <trkpt lat="42.194103" lon="0.992000">
        <ele>2071.0</ele>
        <time>2015-08-29T11:30:29Z</time>
      </trkpt>
      <trkpt lat="42.194213" lon="0.991982">
        <ele>2071.0</ele>
        <time>2015-08-29T11:30:30Z</time>
      </trkpt>
      <trkpt lat="42.194305" lon="0.991952">
        <ele>2071.0</ele>
        <time>2015-08-29T11:30:31Z</time>
      </trkpt>
      <trkpt lat="42.194392" lon="0.991907">
        <ele>2071.0</ele>
        <time>2015-08-29T11:30:32Z</time>
      </trkpt>
      <trkpt lat="42.194483" lon="0.991850">
        <ele>2070.0</ele>
        <time>2015-08-29T11:30:33Z</time>
      </trkpt>
      <trkpt lat="42.194568" lon="0.991773">
        <ele>2070.0</ele>
        <time>2015-08-29T11:30:34Z</time>
      </trkpt>
      <trkpt lat="42.194663" lon="0.991673">
        <ele>2069.0</ele>
        <time>2015-08-29T11:30:35Z</time>
      </trkpt>
      <trkpt lat="42.194757" lon="0.991588">
        <ele>2068.0</ele>
        <time>2015-08-29T11:30:36Z</time>
      </trkpt>
      <trkpt lat="42.194850" lon="0.991527">
        <ele>2068.0</ele>
        <time>2015-08-29T11:30:37Z</time>
      </trkpt>
      <trkpt lat="42.194950" lon="0.991473">
        <ele>2070.0</ele>
        <time>2015-08-29T11:30:38Z</time>
      </trkpt>
      <trkpt lat="42.195050" lon="0.991433">
        <ele>2071.0</ele>
        <time>2015-08-29T11:30:39Z</time>
      </trkpt>
      <trkpt lat="42.195147" lon="0.991403">
        <ele>2072.0</ele>
        <time>2015-08-29T11:30:40Z</time>
      </trkpt>
      <trkpt lat="42.195237" lon="0.991388">
        <ele>2073.0</ele>
        <time>2015-08-29T11:30:41Z</time>
      </trkpt>
      <trkpt lat="42.195332" lon="0.991378">
        <ele>2073.0</ele>
        <time>2015-08-29T11:30:42Z</time>
      </trkpt>
      <trkpt lat="42.195435" lon="0.991372">
        <ele>2074.0</ele>
        <time>2015-08-29T11:30:43Z</time>
      </trkpt>
      <trkpt lat="42.195552" lon="0.991372">
        <ele>2074.0</ele>
        <time>2015-08-29T11:30:44Z</time>
      </trkpt>
      <trkpt lat="42.195675" lon="0.991380">
        <ele>2074.0</ele>
        <time>2015-08-29T11:30:45Z</time>
      </trkpt>
      <trkpt lat="42.195802" lon="0.991390">
        <ele>2074.0</ele>
        <time>2015-08-29T11:30:46Z</time>
      </trkpt>
      <trkpt lat="42.195925" lon="0.991392">
        <ele>2074.0</ele>
        <time>2015-08-29T11:30:47Z</time>
      </trkpt>
      <trkpt lat="42.196048" lon="0.991395">
        <ele>2074.0</ele>
        <time>2015-08-29T11:30:48Z</time>
      </trkpt>
      <trkpt lat="42.196173" lon="0.991412">
        <ele>2075.0</ele>
        <time>2015-08-29T11:30:49Z</time>
      </trkpt>
      <trkpt lat="42.196288" lon="0.991433">
        <ele>2075.0</ele>
        <time>2015-08-29T11:30:50Z</time>
      </trkpt>
      <trkpt lat="42.196378" lon="0.991442">
        <ele>2077.0</ele>
        <time>2015-08-29T11:30:51Z</time>
      </trkpt>
      <trkpt lat="42.196470" lon="0.991432">
        <ele>2078.0</ele>
        <time>2015-08-29T11:30:52Z</time>
      </trkpt>
      <trkpt lat="42.196578" lon="0.991420">
        <ele>2077.0</ele>
        <time>2015-08-29T11:30:53Z</time>
      </trkpt>
      <trkpt lat="42.196697" lon="0.991423">
        <ele>2076.0</ele>
        <time>2015-08-29T11:30:54Z</time>
      </trkpt>
      <trkpt lat="42.196820" lon="0.991445">
        <ele>2074.0</ele>
        <time>2015-08-29T11:30:55Z</time>
      </trkpt>
      <trkpt lat="42.196940" lon="0.991480">
        <ele>2074.0</ele>
        <time>2015-08-29T11:30:56Z</time>
      </trkpt>
      <trkpt lat="42.197057" lon="0.991515">
        <ele>2074.0</ele>
        <time>2015-08-29T11:30:57Z</time>
      </trkpt>
      <trkpt lat="42.197165" lon="0.991540">
        <ele>2073.0</ele>
        <time>2015-08-29T11:30:58Z</time>
      </trkpt>
      <trkpt lat="42.197265" lon="0.991552">
        <ele>2073.0</ele>
        <time>2015-08-29T11:30:59Z</time>
      </trkpt>
      <trkpt lat="42.197365" lon="0.991557">
        <ele>2074.0</ele>
        <time>2015-08-29T11:31:00Z</time>
      </trkpt>
      <trkpt lat="42.197470" lon="0.991563">
        <ele>2073.0</ele>
        <time>2015-08-29T11:31:01Z</time>
      </trkpt>
      <trkpt lat="42.197585" lon="0.991570">
        <ele>2073.0</ele>
        <time>2015-08-29T11:31:02Z</time>
      </trkpt>
      <trkpt lat="42.197705" lon="0.991578">
        <ele>2073.0</ele>
        <time>2015-08-29T11:31:03Z</time>
      </trkpt>
      <trkpt lat="42.197823" lon="0.991585">
        <ele>2073.0</ele>
        <time>2015-08-29T11:31:04Z</time>
      </trkpt>
      <trkpt lat="42.197935" lon="0.991590">
        <ele>2074.0</ele>
        <time>2015-08-29T11:31:05Z</time>
      </trkpt>
      <trkpt lat="42.198045" lon="0.991597">
        <ele>2074.0</ele>
        <time>2015-08-29T11:31:06Z</time>
      </trkpt>
      <trkpt lat="42.198162" lon="0.991613">
        <ele>2073.0</ele>
        <time>2015-08-29T11:31:07Z</time>
      </trkpt>
      <trkpt lat="42.198277" lon="0.991627">
        <ele>2074.0</ele>
        <time>2015-08-29T11:31:08Z</time>
      </trkpt>
      <trkpt lat="42.198400" lon="0.991655">
        <ele>2073.0</ele>
        <time>2015-08-29T11:31:09Z</time>
      </trkpt>
      <trkpt lat="42.198523" lon="0.991693">
        <ele>2073.0</ele>
        <time>2015-08-29T11:31:10Z</time>
      </trkpt>
      <trkpt lat="42.198637" lon="0.991722">
        <ele>2073.0</ele>
        <time>2015-08-29T11:31:11Z</time>
      </trkpt>
      <trkpt lat="42.198748" lon="0.991750">
        <ele>2072.0</ele>
        <time>2015-08-29T11:31:12Z</time>
      </trkpt>
      <trkpt lat="42.198862" lon="0.991775">
        <ele>2072.0</ele>
        <time>2015-08-29T11:31:13Z</time>
      </trkpt>
      <trkpt lat="42.198982" lon="0.991810">
        <ele>2067.0</ele>
        <time>2015-08-29T11:31:14Z</time>
      </trkpt>
      <trkpt lat="42.199098" lon="0.991853">
        <ele>2065.0</ele>
        <time>2015-08-29T11:31:15Z</time>
      </trkpt>
      <trkpt lat="42.199213" lon="0.991905">
        <ele>2064.0</ele>
        <time>2015-08-29T11:31:16Z</time>
      </trkpt>
      <trkpt lat="42.199328" lon="0.991957">
        <ele>2063.0</ele>
        <time>2015-08-29T11:31:17Z</time>
      </trkpt>
      <trkpt lat="42.199442" lon="0.992000">
        <ele>2062.0</ele>
        <time>2015-08-29T11:31:18Z</time>
      </trkpt>
      <trkpt lat="42.199553" lon="0.992033">
        <ele>2061.0</ele>
        <time>2015-08-29T11:31:19Z</time>
      </trkpt>
      <trkpt lat="42.199663" lon="0.992067">
        <ele>2060.0</ele>
        <time>2015-08-29T11:31:20Z</time>
      </trkpt>
      <trkpt lat="42.199770" lon="0.992105">
        <ele>2058.0</ele>
        <time>2015-08-29T11:31:21Z</time>
      </trkpt>
      <trkpt lat="42.199873" lon="0.992155">
        <ele>2056.0</ele>
        <time>2015-08-29T11:31:22Z</time>
      </trkpt>
      <trkpt lat="42.199968" lon="0.992203">
        <ele>2054.0</ele>
        <time>2015-08-29T11:31:23Z</time>
      </trkpt>
      <trkpt lat="42.200067" lon="0.992255">
        <ele>2054.0</ele>
        <time>2015-08-29T11:31:24Z</time>
      </trkpt>
      <trkpt lat="42.200167" lon="0.992312">
        <ele>2054.0</ele>
        <time>2015-08-29T11:31:25Z</time>
      </trkpt>
      <trkpt lat="42.200268" lon="0.992382">
        <ele>2053.0</ele>
        <time>2015-08-29T11:31:26Z</time>
      </trkpt>
      <trkpt lat="42.200365" lon="0.992463">
        <ele>2052.0</ele>
        <time>2015-08-29T11:31:27Z</time>
      </trkpt>
      <trkpt lat="42.200452" lon="0.992533">
        <ele>2050.0</ele>
        <time>2015-08-29T11:31:28Z</time>
      </trkpt>
      <trkpt lat="42.200550" lon="0.992603">
        <ele>2048.0</ele>
        <time>2015-08-29T11:31:29Z</time>
      </trkpt>
      <trkpt lat="42.200643" lon="0.992657">
        <ele>2048.0</ele>
        <time>2015-08-29T11:31:30Z</time>
      </trkpt>
      <trkpt lat="42.200748" lon="0.992730">
        <ele>2046.0</ele>
        <time>2015-08-29T11:31:31Z</time>
      </trkpt>
      <trkpt lat="42.200838" lon="0.992790">
        <ele>2044.0</ele>
        <time>2015-08-29T11:31:32Z</time>
      </trkpt>
      <trkpt lat="42.200922" lon="0.992843">
        <ele>2042.0</ele>
        <time>2015-08-29T11:31:33Z</time>
      </trkpt>
      <trkpt lat="42.201008" lon="0.992893">
        <ele>2039.0</ele>
        <time>2015-08-29T11:31:34Z</time>
      </trkpt>
      <trkpt lat="42.201110" lon="0.992947">
        <ele>2036.0</ele>
        <time>2015-08-29T11:31:35Z</time>
      </trkpt>
      <trkpt lat="42.201217" lon="0.993000">
        <ele>2033.0</ele>
        <time>2015-08-29T11:31:36Z</time>
      </trkpt>
      <trkpt lat="42.201327" lon="0.993055">
        <ele>2031.0</ele>
        <time>2015-08-29T11:31:37Z</time>
      </trkpt>
      <trkpt lat="42.201437" lon="0.993105">
        <ele>2029.0</ele>
        <time>2015-08-29T11:31:38Z</time>
      </trkpt>
      <trkpt lat="42.201542" lon="0.993147">
        <ele>2028.0</ele>
        <time>2015-08-29T11:31:39Z</time>
      </trkpt>
      <trkpt lat="42.201652" lon="0.993173">
        <ele>2028.0</ele>
        <time>2015-08-29T11:31:40Z</time>
      </trkpt>
      <trkpt lat="42.201770" lon="0.993197">
        <ele>2027.0</ele>
        <time>2015-08-29T11:31:41Z</time>
      </trkpt>
      <trkpt lat="42.201893" lon="0.993230">
        <ele>2026.0</ele>
        <time>2015-08-29T11:31:42Z</time>
      </trkpt>
      <trkpt lat="42.202022" lon="0.993257">
        <ele>2023.0</ele>
        <time>2015-08-29T11:31:43Z</time>
      </trkpt>
      <trkpt lat="42.202150" lon="0.993272">
        <ele>2022.0</ele>
        <time>2015-08-29T11:31:44Z</time>
      </trkpt>
      <trkpt lat="42.202268" lon="0.993287">
        <ele>2020.0</ele>
        <time>2015-08-29T11:31:45Z</time>
      </trkpt>
      <trkpt lat="42.202383" lon="0.993298">
        <ele>2018.0</ele>
        <time>2015-08-29T11:31:46Z</time>
      </trkpt>
      <trkpt lat="42.202503" lon="0.993308">
        <ele>2018.0</ele>
        <time>2015-08-29T11:31:47Z</time>
      </trkpt>
      <trkpt lat="42.202630" lon="0.993308">
        <ele>2017.0</ele>
        <time>2015-08-29T11:31:48Z</time>
      </trkpt>
      <trkpt lat="42.202753" lon="0.993327">
        <ele>2016.0</ele>
        <time>2015-08-29T11:31:49Z</time>
      </trkpt>
      <trkpt lat="42.202880" lon="0.993347">
        <ele>2015.0</ele>
        <time>2015-08-29T11:31:50Z</time>
      </trkpt>
      <trkpt lat="42.203008" lon="0.993367">
        <ele>2014.0</ele>
        <time>2015-08-29T11:31:51Z</time>
      </trkpt>
      <trkpt lat="42.203143" lon="0.993382">
        <ele>2013.0</ele>
        <time>2015-08-29T11:31:52Z</time>
      </trkpt>
      <trkpt lat="42.203283" lon="0.993395">
        <ele>2012.0</ele>
        <time>2015-08-29T11:31:53Z</time>
      </trkpt>
      <trkpt lat="42.203425" lon="0.993408">
        <ele>2011.0</ele>
        <time>2015-08-29T11:31:54Z</time>
      </trkpt>
      <trkpt lat="42.203565" lon="0.993425">
        <ele>2010.0</ele>
        <time>2015-08-29T11:31:55Z</time>
      </trkpt>
      <trkpt lat="42.203702" lon="0.993435">
        <ele>2009.0</ele>
        <time>2015-08-29T11:31:56Z</time>
      </trkpt>
      <trkpt lat="42.203838" lon="0.993440">
        <ele>2007.0</ele>
        <time>2015-08-29T11:31:57Z</time>
      </trkpt>
      <trkpt lat="42.203983" lon="0.993447">
        <ele>2006.0</ele>
        <time>2015-08-29T11:31:58Z</time>
      </trkpt>
      <trkpt lat="42.204130" lon="0.993455">
        <ele>2006.0</ele>
        <time>2015-08-29T11:31:59Z</time>
      </trkpt>
      <trkpt lat="42.204272" lon="0.993465">
        <ele>2004.0</ele>
        <time>2015-08-29T11:32:00Z</time>
      </trkpt>
      <trkpt lat="42.204410" lon="0.993480">
        <ele>2003.0</ele>
        <time>2015-08-29T11:32:01Z</time>
      </trkpt>
      <trkpt lat="42.204542" lon="0.993505">
        <ele>2002.0</ele>
        <time>2015-08-29T11:32:02Z</time>
      </trkpt>
      <trkpt lat="42.204670" lon="0.993542">
        <ele>2002.0</ele>
        <time>2015-08-29T11:32:03Z</time>
      </trkpt>
      <trkpt lat="42.204797" lon="0.993582">
        <ele>2001.0</ele>
        <time>2015-08-29T11:32:04Z</time>
      </trkpt>
      <trkpt lat="42.204927" lon="0.993620">
        <ele>2000.0</ele>
        <time>2015-08-29T11:32:05Z</time>
      </trkpt>
      <trkpt lat="42.205065" lon="0.993657">
        <ele>1999.0</ele>
        <time>2015-08-29T11:32:06Z</time>
      </trkpt>
      <trkpt lat="42.205208" lon="0.993688">
        <ele>1998.0</ele>
        <time>2015-08-29T11:32:07Z</time>
      </trkpt>
      <trkpt lat="42.205357" lon="0.993710">
        <ele>1998.0</ele>
        <time>2015-08-29T11:32:08Z</time>
      </trkpt>
      <trkpt lat="42.205498" lon="0.993733">
        <ele>1997.0</ele>
        <time>2015-08-29T11:32:09Z</time>
      </trkpt>
      <trkpt lat="42.205635" lon="0.993758">
        <ele>1997.0</ele>
        <time>2015-08-29T11:32:10Z</time>
      </trkpt>
      <trkpt lat="42.205770" lon="0.993783">
        <ele>1996.0</ele>
        <time>2015-08-29T11:32:11Z</time>
      </trkpt>
      <trkpt lat="42.205905" lon="0.993813">
        <ele>1995.0</ele>
        <time>2015-08-29T11:32:12Z</time>
      </trkpt>
      <trkpt lat="42.206038" lon="0.993850">
        <ele>1994.0</ele>
        <time>2015-08-29T11:32:13Z</time>
      </trkpt>
      <trkpt lat="42.206165" lon="0.993888">
        <ele>1992.0</ele>
        <time>2015-08-29T11:32:14Z</time>
      </trkpt>
      <trkpt lat="42.206280" lon="0.993927">
        <ele>1991.0</ele>
        <time>2015-08-29T11:32:15Z</time>
      </trkpt>
      <trkpt lat="42.206402" lon="0.993970">
        <ele>1990.0</ele>
        <time>2015-08-29T11:32:16Z</time>
      </trkpt>
      <trkpt lat="42.206535" lon="0.994020">
        <ele>1987.0</ele>
        <time>2015-08-29T11:32:17Z</time>
      </trkpt>
      <trkpt lat="42.206672" lon="0.994065">
        <ele>1986.0</ele>
        <time>2015-08-29T11:32:18Z</time>
      </trkpt>
      <trkpt lat="42.206813" lon="0.994097">
        <ele>1983.0</ele>
        <time>2015-08-29T11:32:19Z</time>
      </trkpt>
      <trkpt lat="42.206952" lon="0.994127">
        <ele>1982.0</ele>
        <time>2015-08-29T11:32:20Z</time>
      </trkpt>
      <trkpt lat="42.207083" lon="0.994150">
        <ele>1980.0</ele>
        <time>2015-08-29T11:32:21Z</time>
      </trkpt>
      <trkpt lat="42.207213" lon="0.994180">
        <ele>1979.0</ele>
        <time>2015-08-29T11:32:22Z</time>
      </trkpt>
      <trkpt lat="42.207343" lon="0.994210">
        <ele>1977.0</ele>
        <time>2015-08-29T11:32:23Z</time>
      </trkpt>
      <trkpt lat="42.207467" lon="0.994242">
        <ele>1976.0</ele>
        <time>2015-08-29T11:32:24Z</time>
      </trkpt>
      <trkpt lat="42.207590" lon="0.994280">
        <ele>1974.0</ele>
        <time>2015-08-29T11:32:25Z</time>
      </trkpt>
      <trkpt lat="42.207713" lon="0.994318">
        <ele>1973.0</ele>
        <time>2015-08-29T11:32:26Z</time>
      </trkpt>
      <trkpt lat="42.207838" lon="0.994350">
        <ele>1971.0</ele>
        <time>2015-08-29T11:32:27Z</time>
      </trkpt>
      <trkpt lat="42.207965" lon="0.994377">
        <ele>1969.0</ele>
        <time>2015-08-29T11:32:28Z</time>
      </trkpt>
      <trkpt lat="42.208088" lon="0.994403">
        <ele>1968.0</ele>
        <time>2015-08-29T11:32:29Z</time>
      </trkpt>
      <trkpt lat="42.208207" lon="0.994443">
        <ele>1966.0</ele>
        <time>2015-08-29T11:32:30Z</time>
      </trkpt>
      <trkpt lat="42.208322" lon="0.994497">
        <ele>1964.0</ele>
        <time>2015-08-29T11:32:31Z</time>
      </trkpt>
      <trkpt lat="42.208427" lon="0.994545">
        <ele>1963.0</ele>
        <time>2015-08-29T11:32:32Z</time>
      </trkpt>
      <trkpt lat="42.208542" lon="0.994592">
        <ele>1961.0</ele>
        <time>2015-08-29T11:32:33Z</time>
      </trkpt>
      <trkpt lat="42.208673" lon="0.994620">
        <ele>1959.0</ele>
        <time>2015-08-29T11:32:34Z</time>
      </trkpt>
      <trkpt lat="42.208815" lon="0.994645">
        <ele>1956.0</ele>
        <time>2015-08-29T11:32:35Z</time>
      </trkpt>
      <trkpt lat="42.208957" lon="0.994663">
        <ele>1955.0</ele>
        <time>2015-08-29T11:32:36Z</time>
      </trkpt>
      <trkpt lat="42.209098" lon="0.994695">
        <ele>1953.0</ele>
        <time>2015-08-29T11:32:37Z</time>
      </trkpt>
      <trkpt lat="42.209240" lon="0.994737">
        <ele>1951.0</ele>
        <time>2015-08-29T11:32:38Z</time>
      </trkpt>
      <trkpt lat="42.209375" lon="0.994778">
        <ele>1950.0</ele>
        <time>2015-08-29T11:32:39Z</time>
      </trkpt>
      <trkpt lat="42.209507" lon="0.994808">
        <ele>1949.0</ele>
        <time>2015-08-29T11:32:40Z</time>
      </trkpt>
      <trkpt lat="42.209633" lon="0.994820">
        <ele>1948.0</ele>
        <time>2015-08-29T11:32:41Z</time>
      </trkpt>
      <trkpt lat="42.209750" lon="0.994840">
        <ele>1946.0</ele>
        <time>2015-08-29T11:32:42Z</time>
      </trkpt>
      <trkpt lat="42.209867" lon="0.994863">
        <ele>1945.0</ele>
        <time>2015-08-29T11:32:43Z</time>
      </trkpt>
      <trkpt lat="42.209992" lon="0.994880">
        <ele>1943.0</ele>
        <time>2015-08-29T11:32:44Z</time>
      </trkpt>
      <trkpt lat="42.210127" lon="0.994887">
        <ele>1941.0</ele>
        <time>2015-08-29T11:32:45Z</time>
      </trkpt>
      <trkpt lat="42.210268" lon="0.994897">
        <ele>1939.0</ele>
        <time>2015-08-29T11:32:46Z</time>
      </trkpt>
      <trkpt lat="42.210408" lon="0.994912">
        <ele>1937.0</ele>
        <time>2015-08-29T11:32:47Z</time>
      </trkpt>
      <trkpt lat="42.210542" lon="0.994942">
        <ele>1935.0</ele>
        <time>2015-08-29T11:32:48Z</time>
      </trkpt>
      <trkpt lat="42.210668" lon="0.994962">
        <ele>1935.0</ele>
        <time>2015-08-29T11:32:49Z</time>
      </trkpt>
      <trkpt lat="42.210800" lon="0.994950">
        <ele>1933.0</ele>
        <time>2015-08-29T11:32:50Z</time>
      </trkpt>
      <trkpt lat="42.210938" lon="0.994917">
        <ele>1930.0</ele>
        <time>2015-08-29T11:32:51Z</time>
      </trkpt>
      <trkpt lat="42.211072" lon="0.994890">
        <ele>1928.0</ele>
        <time>2015-08-29T11:32:52Z</time>
      </trkpt>
      <trkpt lat="42.211202" lon="0.994873">
        <ele>1926.0</ele>
        <time>2015-08-29T11:32:53Z</time>
      </trkpt>
      <trkpt lat="42.211328" lon="0.994868">
        <ele>1924.0</ele>
        <time>2015-08-29T11:32:54Z</time>
      </trkpt>
      <trkpt lat="42.211422" lon="0.994888">
        <ele>1922.0</ele>
        <time>2015-08-29T11:32:55Z</time>
      </trkpt>
      <trkpt lat="42.211535" lon="0.994917">
        <ele>1920.0</ele>
        <time>2015-08-29T11:32:56Z</time>
      </trkpt>
      <trkpt lat="42.211657" lon="0.994938">
        <ele>1917.0</ele>
        <time>2015-08-29T11:32:57Z</time>
      </trkpt>
      <trkpt lat="42.211788" lon="0.994962">
        <ele>1915.0</ele>
        <time>2015-08-29T11:32:58Z</time>
      </trkpt>
      <trkpt lat="42.211920" lon="0.994990">
        <ele>1913.0</ele>
        <time>2015-08-29T11:32:59Z</time>
      </trkpt>
      <trkpt lat="42.212040" lon="0.995025">
        <ele>1911.0</ele>
        <time>2015-08-29T11:33:00Z</time>
      </trkpt>
      <trkpt lat="42.212158" lon="0.995068">
        <ele>1909.0</ele>
        <time>2015-08-29T11:33:01Z</time>
      </trkpt>
      <trkpt lat="42.212275" lon="0.995118">
        <ele>1908.0</ele>
        <time>2015-08-29T11:33:02Z</time>
      </trkpt>
      <trkpt lat="42.212388" lon="0.995172">
        <ele>1907.0</ele>
        <time>2015-08-29T11:33:03Z</time>
      </trkpt>
      <trkpt lat="42.212497" lon="0.995225">
        <ele>1905.0</ele>
        <time>2015-08-29T11:33:04Z</time>
      </trkpt>
      <trkpt lat="42.212612" lon="0.995287">
        <ele>1901.0</ele>
        <time>2015-08-29T11:33:05Z</time>
      </trkpt>
      <trkpt lat="42.212728" lon="0.995328">
        <ele>1900.0</ele>
        <time>2015-08-29T11:33:06Z</time>
      </trkpt>
      <trkpt lat="42.212847" lon="0.995373">
        <ele>1899.0</ele>
        <time>2015-08-29T11:33:07Z</time>
      </trkpt>
      <trkpt lat="42.212972" lon="0.995438">
        <ele>1897.0</ele>
        <time>2015-08-29T11:33:08Z</time>
      </trkpt>
      <trkpt lat="42.213078" lon="0.995500">
        <ele>1895.0</ele>
        <time>2015-08-29T11:33:09Z</time>
      </trkpt>
      <trkpt lat="42.213178" lon="0.995557">
        <ele>1893.0</ele>
        <time>2015-08-29T11:33:10Z</time>
      </trkpt>
      <trkpt lat="42.213280" lon="0.995605">
        <ele>1891.0</ele>
        <time>2015-08-29T11:33:11Z</time>
      </trkpt>
      <trkpt lat="42.213387" lon="0.995645">
        <ele>1891.0</ele>
        <time>2015-08-29T11:33:12Z</time>
      </trkpt>
      <trkpt lat="42.213507" lon="0.995683">
        <ele>1889.0</ele>
        <time>2015-08-29T11:33:13Z</time>
      </trkpt>
      <trkpt lat="42.213622" lon="0.995730">
        <ele>1888.0</ele>
        <time>2015-08-29T11:33:14Z</time>
      </trkpt>
      <trkpt lat="42.213723" lon="0.995782">
        <ele>1886.0</ele>
        <time>2015-08-29T11:33:15Z</time>
      </trkpt>
      <trkpt lat="42.213825" lon="0.995837">
        <ele>1885.0</ele>
        <time>2015-08-29T11:33:16Z</time>
      </trkpt>
      <trkpt lat="42.213933" lon="0.995893">
        <ele>1882.0</ele>
        <time>2015-08-29T11:33:17Z</time>
      </trkpt>
      <trkpt lat="42.214048" lon="0.995950">
        <ele>1881.0</ele>
        <time>2015-08-29T11:33:18Z</time>
      </trkpt>
      <trkpt lat="42.214167" lon="0.995998">
        <ele>1879.0</ele>
        <time>2015-08-29T11:33:19Z</time>
      </trkpt>
      <trkpt lat="42.214277" lon="0.996047">
        <ele>1877.0</ele>
        <time>2015-08-29T11:33:20Z</time>
      </trkpt>
      <trkpt lat="42.214380" lon="0.996102">
        <ele>1875.0</ele>
        <time>2015-08-29T11:33:21Z</time>
      </trkpt>
      <trkpt lat="42.214485" lon="0.996165">
        <ele>1873.0</ele>
        <time>2015-08-29T11:33:22Z</time>
      </trkpt>
      <trkpt lat="42.214580" lon="0.996217">
        <ele>1872.0</ele>
        <time>2015-08-29T11:33:23Z</time>
      </trkpt>
      <trkpt lat="42.214688" lon="0.996268">
        <ele>1871.0</ele>
        <time>2015-08-29T11:33:24Z</time>
      </trkpt>
      <trkpt lat="42.214815" lon="0.996322">
        <ele>1868.0</ele>
        <time>2015-08-29T11:33:25Z</time>
      </trkpt>
      <trkpt lat="42.214935" lon="0.996378">
        <ele>1865.0</ele>
        <time>2015-08-29T11:33:26Z</time>
      </trkpt>
      <trkpt lat="42.215038" lon="0.996433">
        <ele>1864.0</ele>
        <time>2015-08-29T11:33:27Z</time>
      </trkpt>
      <trkpt lat="42.215132" lon="0.996497">
        <ele>1862.0</ele>
        <time>2015-08-29T11:33:28Z</time>
      </trkpt>
      <trkpt lat="42.215215" lon="0.996558">
        <ele>1860.0</ele>
        <time>2015-08-29T11:33:29Z</time>
      </trkpt>
      <trkpt lat="42.215303" lon="0.996618">
        <ele>1857.0</ele>
        <time>2015-08-29T11:33:30Z</time>
      </trkpt>
      <trkpt lat="42.215397" lon="0.996675">
        <ele>1855.0</ele>
        <time>2015-08-29T11:33:31Z</time>
      </trkpt>
      <trkpt lat="42.215490" lon="0.996737">
        <ele>1853.0</ele>
        <time>2015-08-29T11:33:32Z</time>
      </trkpt>
      <trkpt lat="42.215578" lon="0.996808">
        <ele>1851.0</ele>
        <time>2015-08-29T11:33:33Z</time>
      </trkpt>
      <trkpt lat="42.215663" lon="0.996875">
        <ele>1850.0</ele>
        <time>2015-08-29T11:33:34Z</time>
      </trkpt>
      <trkpt lat="42.215753" lon="0.996937">
        <ele>1848.0</ele>
        <time>2015-08-29T11:33:35Z</time>
      </trkpt>
      <trkpt lat="42.215862" lon="0.996990">
        <ele>1847.0</ele>
        <time>2015-08-29T11:33:36Z</time>
      </trkpt>
      <trkpt lat="42.215977" lon="0.997042">
        <ele>1846.0</ele>
        <time>2015-08-29T11:33:37Z</time>
      </trkpt>
      <trkpt lat="42.216093" lon="0.997102">
        <ele>1844.0</ele>
        <time>2015-08-29T11:33:38Z</time>
      </trkpt>
      <trkpt lat="42.216210" lon="0.997177">
        <ele>1843.0</ele>
        <time>2015-08-29T11:33:39Z</time>
      </trkpt>
      <trkpt lat="42.216307" lon="0.997235">
        <ele>1843.0</ele>
        <time>2015-08-29T11:33:40Z</time>
      </trkpt>
      <trkpt lat="42.216417" lon="0.997298">
        <ele>1842.0</ele>
        <time>2015-08-29T11:33:41Z</time>
      </trkpt>
      <trkpt lat="42.216538" lon="0.997365">
        <ele>1841.0</ele>
        <time>2015-08-29T11:33:42Z</time>
      </trkpt>
      <trkpt lat="42.216652" lon="0.997413">
        <ele>1842.0</ele>
        <time>2015-08-29T11:33:43Z</time>
      </trkpt>
      <trkpt lat="42.216755" lon="0.997462">
        <ele>1843.0</ele>
        <time>2015-08-29T11:33:44Z</time>
      </trkpt>
      <trkpt lat="42.216845" lon="0.997513">
        <ele>1843.0</ele>
        <time>2015-08-29T11:33:45Z</time>
      </trkpt>
      <trkpt lat="42.216933" lon="0.997577">
        <ele>1842.0</ele>
        <time>2015-08-29T11:33:46Z</time>
      </trkpt>
      <trkpt lat="42.217022" lon="0.997638">
        <ele>1841.0</ele>
        <time>2015-08-29T11:33:47Z</time>
      </trkpt>
      <trkpt lat="42.217108" lon="0.997690">
        <ele>1841.0</ele>
        <time>2015-08-29T11:33:48Z</time>
      </trkpt>
      <trkpt lat="42.217205" lon="0.997733">
        <ele>1840.0</ele>
        <time>2015-08-29T11:33:49Z</time>
      </trkpt>
      <trkpt lat="42.217310" lon="0.997765">
        <ele>1840.0</ele>
        <time>2015-08-29T11:33:50Z</time>
      </trkpt>
      <trkpt lat="42.217422" lon="0.997800">
        <ele>1839.0</ele>
        <time>2015-08-29T11:33:51Z</time>
      </trkpt>
      <trkpt lat="42.217537" lon="0.997848">
        <ele>1838.0</ele>
        <time>2015-08-29T11:33:52Z</time>
      </trkpt>
      <trkpt lat="42.217650" lon="0.997898">
        <ele>1837.0</ele>
        <time>2015-08-29T11:33:53Z</time>
      </trkpt>
      <trkpt lat="42.217765" lon="0.997947">
        <ele>1836.0</ele>
        <time>2015-08-29T11:33:54Z</time>
      </trkpt>
      <trkpt lat="42.217882" lon="0.997990">
        <ele>1835.0</ele>
        <time>2015-08-29T11:33:55Z</time>
      </trkpt>
      <trkpt lat="42.218002" lon="0.998035">
        <ele>1834.0</ele>
        <time>2015-08-29T11:33:56Z</time>
      </trkpt>
      <trkpt lat="42.218107" lon="0.998075">
        <ele>1834.0</ele>
        <time>2015-08-29T11:33:57Z</time>
      </trkpt>
      <trkpt lat="42.218218" lon="0.998128">
        <ele>1833.0</ele>
        <time>2015-08-29T11:33:58Z</time>
      </trkpt>
      <trkpt lat="42.218333" lon="0.998188">
        <ele>1830.0</ele>
        <time>2015-08-29T11:33:59Z</time>
      </trkpt>
      <trkpt lat="42.218438" lon="0.998233">
        <ele>1828.0</ele>
        <time>2015-08-29T11:34:00Z</time>
      </trkpt>
      <trkpt lat="42.218547" lon="0.998275">
        <ele>1826.0</ele>
        <time>2015-08-29T11:34:01Z</time>
      </trkpt>
      <trkpt lat="42.218662" lon="0.998298">
        <ele>1826.0</ele>
        <time>2015-08-29T11:34:02Z</time>
      </trkpt>
      <trkpt lat="42.218773" lon="0.998325">
        <ele>1824.0</ele>
        <time>2015-08-29T11:34:03Z</time>
      </trkpt>
      <trkpt lat="42.218903" lon="0.998370">
        <ele>1823.0</ele>
        <time>2015-08-29T11:34:04Z</time>
      </trkpt>
      <trkpt lat="42.219032" lon="0.998412">
        <ele>1821.0</ele>
        <time>2015-08-29T11:34:05Z</time>
      </trkpt>
      <trkpt lat="42.219157" lon="0.998442">
        <ele>1821.0</ele>
        <time>2015-08-29T11:34:06Z</time>
      </trkpt>
      <trkpt lat="42.219278" lon="0.998462">
        <ele>1820.0</ele>
        <time>2015-08-29T11:34:07Z</time>
      </trkpt>
      <trkpt lat="42.219398" lon="0.998478">
        <ele>1819.0</ele>
        <time>2015-08-29T11:34:08Z</time>
      </trkpt>
      <trkpt lat="42.219515" lon="0.998487">
        <ele>1819.0</ele>
        <time>2015-08-29T11:34:09Z</time>
      </trkpt>
      <trkpt lat="42.219635" lon="0.998498">
        <ele>1817.0</ele>
        <time>2015-08-29T11:34:10Z</time>
      </trkpt>
      <trkpt lat="42.219762" lon="0.998515">
        <ele>1816.0</ele>
        <time>2015-08-29T11:34:11Z</time>
      </trkpt>
      <trkpt lat="42.219887" lon="0.998532">
        <ele>1816.0</ele>
        <time>2015-08-29T11:34:12Z</time>
      </trkpt>
      <trkpt lat="42.220008" lon="0.998545">
        <ele>1815.0</ele>
        <time>2015-08-29T11:34:13Z</time>
      </trkpt>
      <trkpt lat="42.220120" lon="0.998550">
        <ele>1815.0</ele>
        <time>2015-08-29T11:34:14Z</time>
      </trkpt>
      <trkpt lat="42.220242" lon="0.998557">
        <ele>1814.0</ele>
        <time>2015-08-29T11:34:15Z</time>
      </trkpt>
      <trkpt lat="42.220375" lon="0.998568">
        <ele>1812.0</ele>
        <time>2015-08-29T11:34:16Z</time>
      </trkpt>
      <trkpt lat="42.220505" lon="0.998587">
        <ele>1810.0</ele>
        <time>2015-08-29T11:34:17Z</time>
      </trkpt>
      <trkpt lat="42.220630" lon="0.998612">
        <ele>1809.0</ele>
        <time>2015-08-29T11:34:18Z</time>
      </trkpt>
      <trkpt lat="42.220747" lon="0.998635">
        <ele>1808.0</ele>
        <time>2015-08-29T11:34:19Z</time>
      </trkpt>
      <trkpt lat="42.220858" lon="0.998655">
        <ele>1807.0</ele>
        <time>2015-08-29T11:34:20Z</time>
      </trkpt>
      <trkpt lat="42.220973" lon="0.998672">
        <ele>1805.0</ele>
        <time>2015-08-29T11:34:21Z</time>
      </trkpt>
      <trkpt lat="42.221093" lon="0.998690">
        <ele>1803.0</ele>
        <time>2015-08-29T11:34:22Z</time>
      </trkpt>
      <trkpt lat="42.221222" lon="0.998712">
        <ele>1801.0</ele>
        <time>2015-08-29T11:34:23Z</time>
      </trkpt>
      <trkpt lat="42.221355" lon="0.998735">
        <ele>1800.0</ele>
        <time>2015-08-29T11:34:24Z</time>
      </trkpt>
      <trkpt lat="42.221485" lon="0.998753">
        <ele>1798.0</ele>
        <time>2015-08-29T11:34:25Z</time>
      </trkpt>
      <trkpt lat="42.221612" lon="0.998767">
        <ele>1797.0</ele>
        <time>2015-08-29T11:34:26Z</time>
      </trkpt>
      <trkpt lat="42.221733" lon="0.998785">
        <ele>1796.0</ele>
        <time>2015-08-29T11:34:27Z</time>
      </trkpt>
      <trkpt lat="42.221855" lon="0.998813">
        <ele>1794.0</ele>
        <time>2015-08-29T11:34:28Z</time>
      </trkpt>
      <trkpt lat="42.221983" lon="0.998850">
        <ele>1792.0</ele>
        <time>2015-08-29T11:34:29Z</time>
      </trkpt>
      <trkpt lat="42.222123" lon="0.998888">
        <ele>1791.0</ele>
        <time>2015-08-29T11:34:30Z</time>
      </trkpt>
      <trkpt lat="42.222255" lon="0.998907">
        <ele>1792.0</ele>
        <time>2015-08-29T11:34:31Z</time>
      </trkpt>
      <trkpt lat="42.222387" lon="0.998923">
        <ele>1791.0</ele>
        <time>2015-08-29T11:34:32Z</time>
      </trkpt>
      <trkpt lat="42.222515" lon="0.998950">
        <ele>1788.0</ele>
        <time>2015-08-29T11:34:33Z</time>
      </trkpt>
      <trkpt lat="42.222638" lon="0.998980">
        <ele>1785.0</ele>
        <time>2015-08-29T11:34:34Z</time>
      </trkpt>
      <trkpt lat="42.222760" lon="0.999012">
        <ele>1782.0</ele>
        <time>2015-08-29T11:34:35Z</time>
      </trkpt>
      <trkpt lat="42.222882" lon="0.999040">
        <ele>1780.0</ele>
        <time>2015-08-29T11:34:36Z</time>
      </trkpt>
      <trkpt lat="42.222993" lon="0.999070">
        <ele>1779.0</ele>
        <time>2015-08-29T11:34:37Z</time>
      </trkpt>
      <trkpt lat="42.223102" lon="0.999110">
        <ele>1777.0</ele>
        <time>2015-08-29T11:34:38Z</time>
      </trkpt>
      <trkpt lat="42.223208" lon="0.999155">
        <ele>1775.0</ele>
        <time>2015-08-29T11:34:39Z</time>
      </trkpt>
      <trkpt lat="42.223318" lon="0.999198">
        <ele>1774.0</ele>
        <time>2015-08-29T11:34:40Z</time>
      </trkpt>
      <trkpt lat="42.223438" lon="0.999238">
        <ele>1772.0</ele>
        <time>2015-08-29T11:34:41Z</time>
      </trkpt>
      <trkpt lat="42.223565" lon="0.999275">
        <ele>1770.0</ele>
        <time>2015-08-29T11:34:42Z</time>
      </trkpt>
      <trkpt lat="42.223690" lon="0.999318">
        <ele>1768.0</ele>
        <time>2015-08-29T11:34:43Z</time>
      </trkpt>
      <trkpt lat="42.223808" lon="0.999372">
        <ele>1767.0</ele>
        <time>2015-08-29T11:34:44Z</time>
      </trkpt>
      <trkpt lat="42.223917" lon="0.999435">
        <ele>1765.0</ele>
        <time>2015-08-29T11:34:45Z</time>
      </trkpt>
      <trkpt lat="42.224025" lon="0.999500">
        <ele>1763.0</ele>
        <time>2015-08-29T11:34:46Z</time>
      </trkpt>
      <trkpt lat="42.224147" lon="0.999565">
        <ele>1761.0</ele>
        <time>2015-08-29T11:34:47Z</time>
      </trkpt>
      <trkpt lat="42.224257" lon="0.999603">
        <ele>1760.0</ele>
        <time>2015-08-29T11:34:48Z</time>
      </trkpt>
      <trkpt lat="42.224370" lon="0.999650">
        <ele>1759.0</ele>
        <time>2015-08-29T11:34:49Z</time>
      </trkpt>
      <trkpt lat="42.224485" lon="0.999698">
        <ele>1757.0</ele>
        <time>2015-08-29T11:34:50Z</time>
      </trkpt>
      <trkpt lat="42.224593" lon="0.999735">
        <ele>1754.0</ele>
        <time>2015-08-29T11:34:51Z</time>
      </trkpt>
      <trkpt lat="42.224705" lon="0.999770">
        <ele>1752.0</ele>
        <time>2015-08-29T11:34:52Z</time>
      </trkpt>
      <trkpt lat="42.224818" lon="0.999795">
        <ele>1752.0</ele>
        <time>2015-08-29T11:34:53Z</time>
      </trkpt>
      <trkpt lat="42.224962" lon="0.999855">
        <ele>1750.0</ele>
        <time>2015-08-29T11:34:54Z</time>
      </trkpt>
      <trkpt lat="42.225092" lon="0.999905">
        <ele>1748.0</ele>
        <time>2015-08-29T11:34:55Z</time>
      </trkpt>
      <trkpt lat="42.225217" lon="0.999953">
        <ele>1748.0</ele>
        <time>2015-08-29T11:34:56Z</time>
      </trkpt>
      <trkpt lat="42.225333" lon="0.999998">
        <ele>1747.0</ele>
        <time>2015-08-29T11:34:57Z</time>
      </trkpt>
      <trkpt lat="42.225460" lon="1.000053">
        <ele>1746.0</ele>
        <time>2015-08-29T11:34:58Z</time>
      </trkpt>
      <trkpt lat="42.225575" lon="1.000093">
        <ele>1744.0</ele>
        <time>2015-08-29T11:34:59Z</time>
      </trkpt>
      <trkpt lat="42.225693" lon="1.000130">
        <ele>1743.0</ele>
        <time>2015-08-29T11:35:00Z</time>
      </trkpt>
      <trkpt lat="42.225817" lon="1.000163">
        <ele>1741.0</ele>
        <time>2015-08-29T11:35:01Z</time>
      </trkpt>
      <trkpt lat="42.225935" lon="1.000192">
        <ele>1740.0</ele>
        <time>2015-08-29T11:35:02Z</time>
      </trkpt>
      <trkpt lat="42.226057" lon="1.000213">
        <ele>1739.0</ele>
        <time>2015-08-29T11:35:03Z</time>
      </trkpt>
      <trkpt lat="42.226178" lon="1.000238">
        <ele>1738.0</ele>
        <time>2015-08-29T11:35:04Z</time>
      </trkpt>
      <trkpt lat="42.226293" lon="1.000267">
        <ele>1737.0</ele>
        <time>2015-08-29T11:35:05Z</time>
      </trkpt>
      <trkpt lat="42.226410" lon="1.000293">
        <ele>1734.0</ele>
        <time>2015-08-29T11:35:06Z</time>
      </trkpt>
      <trkpt lat="42.226528" lon="1.000317">
        <ele>1732.0</ele>
        <time>2015-08-29T11:35:07Z</time>
      </trkpt>
      <trkpt lat="42.226640" lon="1.000335">
        <ele>1730.0</ele>
        <time>2015-08-29T11:35:08Z</time>
      </trkpt>
      <trkpt lat="42.226743" lon="1.000347">
        <ele>1728.0</ele>
        <time>2015-08-29T11:35:09Z</time>
      </trkpt>
      <trkpt lat="42.226843" lon="1.000358">
        <ele>1727.0</ele>
        <time>2015-08-29T11:35:10Z</time>
      </trkpt>
      <trkpt lat="42.226945" lon="1.000367">
        <ele>1724.0</ele>
        <time>2015-08-29T11:35:11Z</time>
      </trkpt>
      <trkpt lat="42.227055" lon="1.000367">
        <ele>1722.0</ele>
        <time>2015-08-29T11:35:12Z</time>
      </trkpt>
      <trkpt lat="42.227172" lon="1.000350">
        <ele>1724.0</ele>
        <time>2015-08-29T11:35:13Z</time>
      </trkpt>
      <trkpt lat="42.227285" lon="1.000325">
        <ele>1723.0</ele>
        <time>2015-08-29T11:35:14Z</time>
      </trkpt>
      <trkpt lat="42.227400" lon="1.000283">
        <ele>1721.0</ele>
        <time>2015-08-29T11:35:15Z</time>
      </trkpt>
      <trkpt lat="42.227513" lon="1.000235">
        <ele>1720.0</ele>
        <time>2015-08-29T11:35:16Z</time>
      </trkpt>
      <trkpt lat="42.227627" lon="1.000183">
        <ele>1719.0</ele>
        <time>2015-08-29T11:35:17Z</time>
      </trkpt>
      <trkpt lat="42.227740" lon="1.000132">
        <ele>1717.0</ele>
        <time>2015-08-29T11:35:18Z</time>
      </trkpt>
      <trkpt lat="42.227853" lon="1.000068">
        <ele>1716.0</ele>
        <time>2015-08-29T11:35:19Z</time>
      </trkpt>
      <trkpt lat="42.227962" lon="0.999972">
        <ele>1714.0</ele>
        <time>2015-08-29T11:35:20Z</time>
      </trkpt>
      <trkpt lat="42.228063" lon="0.999885">
        <ele>1713.0</ele>
        <time>2015-08-29T11:35:21Z</time>
      </trkpt>
      <trkpt lat="42.228163" lon="0.999805">
        <ele>1714.0</ele>
        <time>2015-08-29T11:35:22Z</time>
      </trkpt>
      <trkpt lat="42.228267" lon="0.999725">
        <ele>1712.0</ele>
        <time>2015-08-29T11:35:23Z</time>
      </trkpt>
      <trkpt lat="42.228372" lon="0.999655">
        <ele>1709.0</ele>
        <time>2015-08-29T11:35:24Z</time>
      </trkpt>
      <trkpt lat="42.228478" lon="0.999582">
        <ele>1706.0</ele>
        <time>2015-08-29T11:35:25Z</time>
      </trkpt>
      <trkpt lat="42.228585" lon="0.999510">
        <ele>1704.0</ele>
        <time>2015-08-29T11:35:26Z</time>
      </trkpt>
      <trkpt lat="42.228697" lon="0.999430">
        <ele>1702.0</ele>
        <time>2015-08-29T11:35:27Z</time>
      </trkpt>
      <trkpt lat="42.228813" lon="0.999360">
        <ele>1700.0</ele>
        <time>2015-08-29T11:35:28Z</time>
      </trkpt>
      <trkpt lat="42.228933" lon="0.999300">
        <ele>1699.0</ele>
        <time>2015-08-29T11:35:29Z</time>
      </trkpt>
      <trkpt lat="42.229048" lon="0.999243">
        <ele>1697.0</ele>
        <time>2015-08-29T11:35:30Z</time>
      </trkpt>
      <trkpt lat="42.229163" lon="0.999187">
        <ele>1696.0</ele>
        <time>2015-08-29T11:35:31Z</time>
      </trkpt>
      <trkpt lat="42.229283" lon="0.999127">
        <ele>1694.0</ele>
        <time>2015-08-29T11:35:32Z</time>
      </trkpt>
      <trkpt lat="42.229405" lon="0.999072">
        <ele>1693.0</ele>
        <time>2015-08-29T11:35:33Z</time>
      </trkpt>
      <trkpt lat="42.229530" lon="0.999020">
        <ele>1691.0</ele>
        <time>2015-08-29T11:35:34Z</time>
      </trkpt>
      <trkpt lat="42.229652" lon="0.998978">
        <ele>1690.0</ele>
        <time>2015-08-29T11:35:35Z</time>
      </trkpt>
      <trkpt lat="42.229767" lon="0.998938">
        <ele>1689.0</ele>
        <time>2015-08-29T11:35:36Z</time>
      </trkpt>
      <trkpt lat="42.229882" lon="0.998905">
        <ele>1688.0</ele>
        <time>2015-08-29T11:35:37Z</time>
      </trkpt>
      <trkpt lat="42.230000" lon="0.998872">
        <ele>1687.0</ele>
        <time>2015-08-29T11:35:38Z</time>
      </trkpt>
      <trkpt lat="42.230127" lon="0.998835">
        <ele>1687.0</ele>
        <time>2015-08-29T11:35:39Z</time>
      </trkpt>
      <trkpt lat="42.230260" lon="0.998793">
        <ele>1685.0</ele>
        <time>2015-08-29T11:35:40Z</time>
      </trkpt>
      <trkpt lat="42.230388" lon="0.998763">
        <ele>1683.0</ele>
        <time>2015-08-29T11:35:41Z</time>
      </trkpt>
      <trkpt lat="42.230508" lon="0.998742">
        <ele>1683.0</ele>
        <time>2015-08-29T11:35:42Z</time>
      </trkpt>
      <trkpt lat="42.230617" lon="0.998732">
        <ele>1682.0</ele>
        <time>2015-08-29T11:35:43Z</time>
      </trkpt>
      <trkpt lat="42.230723" lon="0.998725">
        <ele>1682.0</ele>
        <time>2015-08-29T11:35:44Z</time>
      </trkpt>
      <trkpt lat="42.230838" lon="0.998715">
        <ele>1681.0</ele>
        <time>2015-08-29T11:35:45Z</time>
      </trkpt>
      <trkpt lat="42.230965" lon="0.998695">
        <ele>1680.0</ele>
        <time>2015-08-29T11:35:46Z</time>
      </trkpt>
      <trkpt lat="42.231102" lon="0.998663">
        <ele>1679.0</ele>
        <time>2015-08-29T11:35:47Z</time>
      </trkpt>
      <trkpt lat="42.231235" lon="0.998637">
        <ele>1680.0</ele>
        <time>2015-08-29T11:35:48Z</time>
      </trkpt>
      <trkpt lat="42.231362" lon="0.998613">
        <ele>1680.0</ele>
        <time>2015-08-29T11:35:49Z</time>
      </trkpt>
      <trkpt lat="42.231487" lon="0.998600">
        <ele>1679.0</ele>
        <time>2015-08-29T11:35:50Z</time>
      </trkpt>
      <trkpt lat="42.231613" lon="0.998580">
        <ele>1679.0</ele>
        <time>2015-08-29T11:35:51Z</time>
      </trkpt>
      <trkpt lat="42.231745" lon="0.998555">
        <ele>1678.0</ele>
        <time>2015-08-29T11:35:52Z</time>
      </trkpt>
      <trkpt lat="42.231880" lon="0.998535">
        <ele>1676.0</ele>
        <time>2015-08-29T11:35:53Z</time>
      </trkpt>
      <trkpt lat="42.232015" lon="0.998525">
        <ele>1674.0</ele>
        <time>2015-08-29T11:35:54Z</time>
      </trkpt>
      <trkpt lat="42.232150" lon="0.998525">
        <ele>1674.0</ele>
        <time>2015-08-29T11:35:55Z</time>
      </trkpt>
      <trkpt lat="42.232285" lon="0.998513">
        <ele>1675.0</ele>
        <time>2015-08-29T11:35:56Z</time>
      </trkpt>
      <trkpt lat="42.232415" lon="0.998495">
        <ele>1673.0</ele>
        <time>2015-08-29T11:35:57Z</time>
      </trkpt>
      <trkpt lat="42.232540" lon="0.998473">
        <ele>1671.0</ele>
        <time>2015-08-29T11:35:58Z</time>
      </trkpt>
      <trkpt lat="42.232667" lon="0.998450">
        <ele>1670.0</ele>
        <time>2015-08-29T11:35:59Z</time>
      </trkpt>
      <trkpt lat="42.232793" lon="0.998433">
        <ele>1668.0</ele>
        <time>2015-08-29T11:36:00Z</time>
      </trkpt>
      <trkpt lat="42.232927" lon="0.998422">
        <ele>1667.0</ele>
        <time>2015-08-29T11:36:01Z</time>
      </trkpt>
      <trkpt lat="42.233063" lon="0.998415">
        <ele>1666.0</ele>
        <time>2015-08-29T11:36:02Z</time>
      </trkpt>
      <trkpt lat="42.233198" lon="0.998413">
        <ele>1665.0</ele>
        <time>2015-08-29T11:36:03Z</time>
      </trkpt>
      <trkpt lat="42.233325" lon="0.998413">
        <ele>1665.0</ele>
        <time>2015-08-29T11:36:04Z</time>
      </trkpt>
      <trkpt lat="42.233438" lon="0.998417">
        <ele>1665.0</ele>
        <time>2015-08-29T11:36:05Z</time>
      </trkpt>
      <trkpt lat="42.233542" lon="0.998427">
        <ele>1664.0</ele>
        <time>2015-08-29T11:36:06Z</time>
      </trkpt>
      <trkpt lat="42.233648" lon="0.998435">
        <ele>1663.0</ele>
        <time>2015-08-29T11:36:07Z</time>
      </trkpt>
      <trkpt lat="42.233770" lon="0.998448">
        <ele>1661.0</ele>
        <time>2015-08-29T11:36:08Z</time>
      </trkpt>
      <trkpt lat="42.233897" lon="0.998465">
        <ele>1660.0</ele>
        <time>2015-08-29T11:36:09Z</time>
      </trkpt>
      <trkpt lat="42.234025" lon="0.998485">
        <ele>1659.0</ele>
        <time>2015-08-29T11:36:10Z</time>
      </trkpt>
      <trkpt lat="42.234143" lon="0.998500">
        <ele>1658.0</ele>
        <time>2015-08-29T11:36:11Z</time>
      </trkpt>
      <trkpt lat="42.234248" lon="0.998512">
        <ele>1657.0</ele>
        <time>2015-08-29T11:36:12Z</time>
      </trkpt>
      <trkpt lat="42.234360" lon="0.998533">
        <ele>1657.0</ele>
        <time>2015-08-29T11:36:13Z</time>
      </trkpt>
      <trkpt lat="42.234487" lon="0.998580">
        <ele>1655.0</ele>
        <time>2015-08-29T11:36:14Z</time>
      </trkpt>
      <trkpt lat="42.234612" lon="0.998635">
        <ele>1653.0</ele>
        <time>2015-08-29T11:36:15Z</time>
      </trkpt>
      <trkpt lat="42.234733" lon="0.998683">
        <ele>1651.0</ele>
        <time>2015-08-29T11:36:16Z</time>
      </trkpt>
      <trkpt lat="42.234840" lon="0.998717">
        <ele>1650.0</ele>
        <time>2015-08-29T11:36:17Z</time>
      </trkpt>
      <trkpt lat="42.234940" lon="0.998742">
        <ele>1649.0</ele>
        <time>2015-08-29T11:36:18Z</time>
      </trkpt>
      <trkpt lat="42.235033" lon="0.998767">
        <ele>1647.0</ele>
        <time>2015-08-29T11:36:19Z</time>
      </trkpt>
      <trkpt lat="42.235135" lon="0.998802">
        <ele>1645.0</ele>
        <time>2015-08-29T11:36:20Z</time>
      </trkpt>
      <trkpt lat="42.235240" lon="0.998847">
        <ele>1644.0</ele>
        <time>2015-08-29T11:36:21Z</time>
      </trkpt>
      <trkpt lat="42.235352" lon="0.998895">
        <ele>1642.0</ele>
        <time>2015-08-29T11:36:22Z</time>
      </trkpt>
      <trkpt lat="42.235467" lon="0.998942">
        <ele>1641.0</ele>
        <time>2015-08-29T11:36:23Z</time>
      </trkpt>
      <trkpt lat="42.235578" lon="0.998983">
        <ele>1640.0</ele>
        <time>2015-08-29T11:36:24Z</time>
      </trkpt>
      <trkpt lat="42.235687" lon="0.999025">
        <ele>1639.0</ele>
        <time>2015-08-29T11:36:25Z</time>
      </trkpt>
      <trkpt lat="42.235792" lon="0.999068">
        <ele>1637.0</ele>
        <time>2015-08-29T11:36:26Z</time>
      </trkpt>
      <trkpt lat="42.235908" lon="0.999117">
        <ele>1635.0</ele>
        <time>2015-08-29T11:36:27Z</time>
      </trkpt>
      <trkpt lat="42.236018" lon="0.999150">
        <ele>1633.0</ele>
        <time>2015-08-29T11:36:28Z</time>
      </trkpt>
      <trkpt lat="42.236138" lon="0.999187">
        <ele>1633.0</ele>
        <time>2015-08-29T11:36:29Z</time>
      </trkpt>
      <trkpt lat="42.236258" lon="0.999225">
        <ele>1632.0</ele>
        <time>2015-08-29T11:36:30Z</time>
      </trkpt>
      <trkpt lat="42.236383" lon="0.999275">
        <ele>1631.0</ele>
        <time>2015-08-29T11:36:31Z</time>
      </trkpt>
      <trkpt lat="42.236500" lon="0.999320">
        <ele>1629.0</ele>
        <time>2015-08-29T11:36:32Z</time>
      </trkpt>
      <trkpt lat="42.236612" lon="0.999362">
        <ele>1628.0</ele>
        <time>2015-08-29T11:36:33Z</time>
      </trkpt>
      <trkpt lat="42.236723" lon="0.999400">
        <ele>1626.0</ele>
        <time>2015-08-29T11:36:34Z</time>
      </trkpt>
      <trkpt lat="42.236858" lon="0.999463">
        <ele>1623.0</ele>
        <time>2015-08-29T11:36:35Z</time>
      </trkpt>
      <trkpt lat="42.236992" lon="0.999535">
        <ele>1620.0</ele>
        <time>2015-08-29T11:36:36Z</time>
      </trkpt>
      <trkpt lat="42.237113" lon="0.999607">
        <ele>1619.0</ele>
        <time>2015-08-29T11:36:37Z</time>
      </trkpt>
      <trkpt lat="42.237223" lon="0.999677">
        <ele>1617.0</ele>
        <time>2015-08-29T11:36:38Z</time>
      </trkpt>
      <trkpt lat="42.237328" lon="0.999747">
        <ele>1615.0</ele>
        <time>2015-08-29T11:36:39Z</time>
      </trkpt>
      <trkpt lat="42.237435" lon="0.999817">
        <ele>1613.0</ele>
        <time>2015-08-29T11:36:40Z</time>
      </trkpt>
      <trkpt lat="42.237547" lon="0.999890">
        <ele>1610.0</ele>
        <time>2015-08-29T11:36:41Z</time>
      </trkpt>
      <trkpt lat="42.237665" lon="0.999968">
        <ele>1607.0</ele>
        <time>2015-08-29T11:36:42Z</time>
      </trkpt>
      <trkpt lat="42.237782" lon="1.000047">
        <ele>1605.0</ele>
        <time>2015-08-29T11:36:43Z</time>
      </trkpt>
      <trkpt lat="42.237898" lon="1.000120">
        <ele>1604.0</ele>
        <time>2015-08-29T11:36:44Z</time>
      </trkpt>
      <trkpt lat="42.238007" lon="1.000180">
        <ele>1603.0</ele>
        <time>2015-08-29T11:36:45Z</time>
      </trkpt>
      <trkpt lat="42.238110" lon="1.000237">
        <ele>1602.0</ele>
        <time>2015-08-29T11:36:46Z</time>
      </trkpt>
      <trkpt lat="42.238212" lon="1.000310">
        <ele>1602.0</ele>
        <time>2015-08-29T11:36:47Z</time>
      </trkpt>
      <trkpt lat="42.238322" lon="1.000410">
        <ele>1600.0</ele>
        <time>2015-08-29T11:36:48Z</time>
      </trkpt>
      <trkpt lat="42.238433" lon="1.000500">
        <ele>1597.0</ele>
        <time>2015-08-29T11:36:49Z</time>
      </trkpt>
      <trkpt lat="42.238542" lon="1.000563">
        <ele>1596.0</ele>
        <time>2015-08-29T11:36:50Z</time>
      </trkpt>
      <trkpt lat="42.238657" lon="1.000617">
        <ele>1594.0</ele>
        <time>2015-08-29T11:36:51Z</time>
      </trkpt>
      <trkpt lat="42.238765" lon="1.000660">
        <ele>1593.0</ele>
        <time>2015-08-29T11:36:52Z</time>
      </trkpt>
      <trkpt lat="42.238880" lon="1.000717">
        <ele>1592.0</ele>
        <time>2015-08-29T11:36:53Z</time>
      </trkpt>
      <trkpt lat="42.238985" lon="1.000777">
        <ele>1590.0</ele>
        <time>2015-08-29T11:36:54Z</time>
      </trkpt>
      <trkpt lat="42.239090" lon="1.000843">
        <ele>1588.0</ele>
        <time>2015-08-29T11:36:55Z</time>
      </trkpt>
      <trkpt lat="42.239197" lon="1.000917">
        <ele>1587.0</ele>
        <time>2015-08-29T11:36:56Z</time>
      </trkpt>
      <trkpt lat="42.239303" lon="1.000990">
        <ele>1586.0</ele>
        <time>2015-08-29T11:36:57Z</time>
      </trkpt>
      <trkpt lat="42.239405" lon="1.001062">
        <ele>1584.0</ele>
        <time>2015-08-29T11:36:58Z</time>
      </trkpt>
      <trkpt lat="42.239508" lon="1.001133">
        <ele>1583.0</ele>
        <time>2015-08-29T11:36:59Z</time>
      </trkpt>
      <trkpt lat="42.239613" lon="1.001205">
        <ele>1581.0</ele>
        <time>2015-08-29T11:37:00Z</time>
      </trkpt>
      <trkpt lat="42.239725" lon="1.001275">
        <ele>1579.0</ele>
        <time>2015-08-29T11:37:01Z</time>
      </trkpt>
      <trkpt lat="42.239843" lon="1.001340">
        <ele>1577.0</ele>
        <time>2015-08-29T11:37:02Z</time>
      </trkpt>
      <trkpt lat="42.239963" lon="1.001397">
        <ele>1577.0</ele>
        <time>2015-08-29T11:37:03Z</time>
      </trkpt>
      <trkpt lat="42.240083" lon="1.001453">
        <ele>1577.0</ele>
        <time>2015-08-29T11:37:04Z</time>
      </trkpt>
      <trkpt lat="42.240217" lon="1.001517">
        <ele>1575.0</ele>
        <time>2015-08-29T11:37:05Z</time>
      </trkpt>
      <trkpt lat="42.240340" lon="1.001567">
        <ele>1574.0</ele>
        <time>2015-08-29T11:37:06Z</time>
      </trkpt>
      <trkpt lat="42.240462" lon="1.001610">
        <ele>1573.0</ele>
        <time>2015-08-29T11:37:07Z</time>
      </trkpt>
      <trkpt lat="42.240582" lon="1.001652">
        <ele>1571.0</ele>
        <time>2015-08-29T11:37:08Z</time>
      </trkpt>
      <trkpt lat="42.240702" lon="1.001690">
        <ele>1570.0</ele>
        <time>2015-08-29T11:37:09Z</time>
      </trkpt>
      <trkpt lat="42.240828" lon="1.001740">
        <ele>1567.0</ele>
        <time>2015-08-29T11:37:10Z</time>
      </trkpt>
      <trkpt lat="42.240957" lon="1.001785">
        <ele>1566.0</ele>
        <time>2015-08-29T11:37:11Z</time>
      </trkpt>
      <trkpt lat="42.241083" lon="1.001825">
        <ele>1564.0</ele>
        <time>2015-08-29T11:37:12Z</time>
      </trkpt>
      <trkpt lat="42.241207" lon="1.001863">
        <ele>1563.0</ele>
        <time>2015-08-29T11:37:13Z</time>
      </trkpt>
      <trkpt lat="42.241327" lon="1.001907">
        <ele>1563.0</ele>
        <time>2015-08-29T11:37:14Z</time>
      </trkpt>
      <trkpt lat="42.241442" lon="1.001953">
        <ele>1561.0</ele>
        <time>2015-08-29T11:37:15Z</time>
      </trkpt>
      <trkpt lat="42.241548" lon="1.002003">
        <ele>1560.0</ele>
        <time>2015-08-29T11:37:16Z</time>
      </trkpt>
      <trkpt lat="42.241658" lon="1.002055">
        <ele>1559.0</ele>
        <time>2015-08-29T11:37:17Z</time>
      </trkpt>
      <trkpt lat="42.241772" lon="1.002095">
        <ele>1557.0</ele>
        <time>2015-08-29T11:37:18Z</time>
      </trkpt>
      <trkpt lat="42.241885" lon="1.002118">
        <ele>1555.0</ele>
        <time>2015-08-29T11:37:19Z</time>
      </trkpt>
      <trkpt lat="42.241998" lon="1.002130">
        <ele>1554.0</ele>
        <time>2015-08-29T11:37:20Z</time>
      </trkpt>
      <trkpt lat="42.242120" lon="1.002150">
        <ele>1553.0</ele>
        <time>2015-08-29T11:37:21Z</time>
      </trkpt>
      <trkpt lat="42.242248" lon="1.002178">
        <ele>1552.0</ele>
        <time>2015-08-29T11:37:22Z</time>
      </trkpt>
      <trkpt lat="42.242370" lon="1.002202">
        <ele>1550.0</ele>
        <time>2015-08-29T11:37:23Z</time>
      </trkpt>
      <trkpt lat="42.242490" lon="1.002220">
        <ele>1548.0</ele>
        <time>2015-08-29T11:37:24Z</time>
      </trkpt>
      <trkpt lat="42.242610" lon="1.002238">
        <ele>1547.0</ele>
        <time>2015-08-29T11:37:25Z</time>
      </trkpt>
      <trkpt lat="42.242735" lon="1.002253">
        <ele>1546.0</ele>
        <time>2015-08-29T11:37:26Z</time>
      </trkpt>
      <trkpt lat="42.242858" lon="1.002265">
        <ele>1544.0</ele>
        <time>2015-08-29T11:37:27Z</time>
      </trkpt>
      <trkpt lat="42.242968" lon="1.002277">
        <ele>1543.0</ele>
        <time>2015-08-29T11:37:28Z</time>
      </trkpt>
      <trkpt lat="42.243075" lon="1.002312">
        <ele>1542.0</ele>
        <time>2015-08-29T11:37:29Z</time>
      </trkpt>
      <trkpt lat="42.243175" lon="1.002370">
        <ele>1541.0</ele>
        <time>2015-08-29T11:37:30Z</time>
      </trkpt>
      <trkpt lat="42.243270" lon="1.002450">
        <ele>1540.0</ele>
        <time>2015-08-29T11:37:31Z</time>
      </trkpt>
      <trkpt lat="42.243358" lon="1.002538">
        <ele>1538.0</ele>
        <time>2015-08-29T11:37:32Z</time>
      </trkpt>
      <trkpt lat="42.243438" lon="1.002630">
        <ele>1537.0</ele>
        <time>2015-08-29T11:37:33Z</time>
      </trkpt>
      <trkpt lat="42.243513" lon="1.002723">
        <ele>1536.0</ele>
        <time>2015-08-29T11:37:34Z</time>
      </trkpt>
      <trkpt lat="42.243585" lon="1.002825">
        <ele>1535.0</ele>
        <time>2015-08-29T11:37:35Z</time>
      </trkpt>
      <trkpt lat="42.243658" lon="1.002935">
        <ele>1533.0</ele>
        <time>2015-08-29T11:37:36Z</time>
      </trkpt>
      <trkpt lat="42.243723" lon="1.003033">
        <ele>1534.0</ele>
        <time>2015-08-29T11:37:37Z</time>
      </trkpt>
      <trkpt lat="42.243773" lon="1.003137">
        <ele>1534.0</ele>
        <time>2015-08-29T11:37:38Z</time>
      </trkpt>
      <trkpt lat="42.243818" lon="1.003248">
        <ele>1532.0</ele>
        <time>2015-08-29T11:37:39Z</time>
      </trkpt>
      <trkpt lat="42.243862" lon="1.003362">
        <ele>1530.0</ele>
        <time>2015-08-29T11:37:40Z</time>
      </trkpt>
      <trkpt lat="42.243903" lon="1.003472">
        <ele>1528.0</ele>
        <time>2015-08-29T11:37:41Z</time>
      </trkpt>
      <trkpt lat="42.243945" lon="1.003577">
        <ele>1526.0</ele>
        <time>2015-08-29T11:37:42Z</time>
      </trkpt>
      <trkpt lat="42.243983" lon="1.003670">
        <ele>1525.0</ele>
        <time>2015-08-29T11:37:43Z</time>
      </trkpt>
      <trkpt lat="42.244025" lon="1.003765">
        <ele>1524.0</ele>
        <time>2015-08-29T11:37:44Z</time>
      </trkpt>
      <trkpt lat="42.244077" lon="1.003872">
        <ele>1522.0</ele>
        <time>2015-08-29T11:37:45Z</time>
      </trkpt>
      <trkpt lat="42.244125" lon="1.003975">
        <ele>1519.0</ele>
        <time>2015-08-29T11:37:46Z</time>
      </trkpt>
      <trkpt lat="42.244180" lon="1.004070">
        <ele>1518.0</ele>
        <time>2015-08-29T11:37:47Z</time>
      </trkpt>
      <trkpt lat="42.244250" lon="1.004158">
        <ele>1516.0</ele>
        <time>2015-08-29T11:37:48Z</time>
      </trkpt>
      <trkpt lat="42.244348" lon="1.004252">
        <ele>1514.0</ele>
        <time>2015-08-29T11:37:49Z</time>
      </trkpt>
      <trkpt lat="42.244463" lon="1.004330">
        <ele>1512.0</ele>
        <time>2015-08-29T11:37:50Z</time>
      </trkpt>
      <trkpt lat="42.244582" lon="1.004385">
        <ele>1510.0</ele>
        <time>2015-08-29T11:37:51Z</time>
      </trkpt>
      <trkpt lat="42.244700" lon="1.004427">
        <ele>1509.0</ele>
        <time>2015-08-29T11:37:52Z</time>
      </trkpt>
      <trkpt lat="42.244810" lon="1.004462">
        <ele>1507.0</ele>
        <time>2015-08-29T11:37:53Z</time>
      </trkpt>
      <trkpt lat="42.244922" lon="1.004498">
        <ele>1507.0</ele>
        <time>2015-08-29T11:37:54Z</time>
      </trkpt>
      <trkpt lat="42.245048" lon="1.004550">
        <ele>1506.0</ele>
        <time>2015-08-29T11:37:55Z</time>
      </trkpt>
      <trkpt lat="42.245183" lon="1.004612">
        <ele>1504.0</ele>
        <time>2015-08-29T11:37:56Z</time>
      </trkpt>
      <trkpt lat="42.245310" lon="1.004670">
        <ele>1501.0</ele>
        <time>2015-08-29T11:37:57Z</time>
      </trkpt>
      <trkpt lat="42.245422" lon="1.004728">
        <ele>1499.0</ele>
        <time>2015-08-29T11:37:58Z</time>
      </trkpt>
      <trkpt lat="42.245522" lon="1.004785">
        <ele>1497.0</ele>
        <time>2015-08-29T11:37:59Z</time>
      </trkpt>
      <trkpt lat="42.245625" lon="1.004838">
        <ele>1497.0</ele>
        <time>2015-08-29T11:38:00Z</time>
      </trkpt>
      <trkpt lat="42.245740" lon="1.004895">
        <ele>1495.0</ele>
        <time>2015-08-29T11:38:01Z</time>
      </trkpt>
      <trkpt lat="42.245860" lon="1.004937">
        <ele>1493.0</ele>
        <time>2015-08-29T11:38:02Z</time>
      </trkpt>
      <trkpt lat="42.245990" lon="1.004967">
        <ele>1492.0</ele>
        <time>2015-08-29T11:38:03Z</time>
      </trkpt>
      <trkpt lat="42.246125" lon="1.004980">
        <ele>1490.0</ele>
        <time>2015-08-29T11:38:04Z</time>
      </trkpt>
      <trkpt lat="42.246260" lon="1.004993">
        <ele>1488.0</ele>
        <time>2015-08-29T11:38:05Z</time>
      </trkpt>
      <trkpt lat="42.246397" lon="1.005007">
        <ele>1487.0</ele>
        <time>2015-08-29T11:38:06Z</time>
      </trkpt>
      <trkpt lat="42.246537" lon="1.005015">
        <ele>1485.0</ele>
        <time>2015-08-29T11:38:07Z</time>
      </trkpt>
      <trkpt lat="42.246675" lon="1.005013">
        <ele>1484.0</ele>
        <time>2015-08-29T11:38:08Z</time>
      </trkpt>
      <trkpt lat="42.246817" lon="1.005000">
        <ele>1482.0</ele>
        <time>2015-08-29T11:38:09Z</time>
      </trkpt>
      <trkpt lat="42.246958" lon="1.004985">
        <ele>1480.0</ele>
        <time>2015-08-29T11:38:10Z</time>
      </trkpt>
      <trkpt lat="42.247098" lon="1.004978">
        <ele>1479.0</ele>
        <time>2015-08-29T11:38:11Z</time>
      </trkpt>
      <trkpt lat="42.247235" lon="1.004958">
        <ele>1479.0</ele>
        <time>2015-08-29T11:38:12Z</time>
      </trkpt>
      <trkpt lat="42.247370" lon="1.004923">
        <ele>1476.0</ele>
        <time>2015-08-29T11:38:13Z</time>
      </trkpt>
      <trkpt lat="42.247510" lon="1.004883">
        <ele>1472.0</ele>
        <time>2015-08-29T11:38:14Z</time>
      </trkpt>
      <trkpt lat="42.247657" lon="1.004843">
        <ele>1471.0</ele>
        <time>2015-08-29T11:38:15Z</time>
      </trkpt>
      <trkpt lat="42.247803" lon="1.004818">
        <ele>1469.0</ele>
        <time>2015-08-29T11:38:16Z</time>
      </trkpt>
      <trkpt lat="42.247947" lon="1.004798">
        <ele>1467.0</ele>
        <time>2015-08-29T11:38:17Z</time>
      </trkpt>
      <trkpt lat="42.248085" lon="1.004778">
        <ele>1465.0</ele>
        <time>2015-08-29T11:38:18Z</time>
      </trkpt>
      <trkpt lat="42.248223" lon="1.004757">
        <ele>1463.0</ele>
        <time>2015-08-29T11:38:19Z</time>
      </trkpt>
      <trkpt lat="42.248362" lon="1.004728">
        <ele>1461.0</ele>
        <time>2015-08-29T11:38:20Z</time>
      </trkpt>
      <trkpt lat="42.248502" lon="1.004685">
        <ele>1459.0</ele>
        <time>2015-08-29T11:38:21Z</time>
      </trkpt>
      <trkpt lat="42.248642" lon="1.004635">
        <ele>1457.0</ele>
        <time>2015-08-29T11:38:22Z</time>
      </trkpt>
      <trkpt lat="42.248778" lon="1.004577">
        <ele>1455.0</ele>
        <time>2015-08-29T11:38:23Z</time>
      </trkpt>
      <trkpt lat="42.248915" lon="1.004518">
        <ele>1453.0</ele>
        <time>2015-08-29T11:38:24Z</time>
      </trkpt>
      <trkpt lat="42.249052" lon="1.004467">
        <ele>1452.0</ele>
        <time>2015-08-29T11:38:25Z</time>
      </trkpt>
      <trkpt lat="42.249185" lon="1.004417">
        <ele>1450.0</ele>
        <time>2015-08-29T11:38:26Z</time>
      </trkpt>
      <trkpt lat="42.249320" lon="1.004367">
        <ele>1447.0</ele>
        <time>2015-08-29T11:38:27Z</time>
      </trkpt>
      <trkpt lat="42.249457" lon="1.004328">
        <ele>1446.0</ele>
        <time>2015-08-29T11:38:28Z</time>
      </trkpt>
      <trkpt lat="42.249598" lon="1.004277">
        <ele>1444.0</ele>
        <time>2015-08-29T11:38:29Z</time>
      </trkpt>
      <trkpt lat="42.249740" lon="1.004217">
        <ele>1440.0</ele>
        <time>2015-08-29T11:38:30Z</time>
      </trkpt>
      <trkpt lat="42.249872" lon="1.004173">
        <ele>1438.0</ele>
        <time>2015-08-29T11:38:31Z</time>
      </trkpt>
      <trkpt lat="42.249998" lon="1.004142">
        <ele>1435.0</ele>
        <time>2015-08-29T11:38:32Z</time>
      </trkpt>
      <trkpt lat="42.250125" lon="1.004113">
        <ele>1432.0</ele>
        <time>2015-08-29T11:38:33Z</time>
      </trkpt>
      <trkpt lat="42.250263" lon="1.004062">
        <ele>1432.0</ele>
        <time>2015-08-29T11:38:34Z</time>
      </trkpt>
      <trkpt lat="42.250400" lon="1.004005">
        <ele>1430.0</ele>
        <time>2015-08-29T11:38:35Z</time>
      </trkpt>
      <trkpt lat="42.250535" lon="1.003943">
        <ele>1428.0</ele>
        <time>2015-08-29T11:38:36Z</time>
      </trkpt>
      <trkpt lat="42.250663" lon="1.003893">
        <ele>1427.0</ele>
        <time>2015-08-29T11:38:37Z</time>
      </trkpt>
      <trkpt lat="42.250793" lon="1.003850">
        <ele>1425.0</ele>
        <time>2015-08-29T11:38:38Z</time>
      </trkpt>
      <trkpt lat="42.250927" lon="1.003815">
        <ele>1423.0</ele>
        <time>2015-08-29T11:38:39Z</time>
      </trkpt>
      <trkpt lat="42.251065" lon="1.003782">
        <ele>1422.0</ele>
        <time>2015-08-29T11:38:40Z</time>
      </trkpt>
      <trkpt lat="42.251207" lon="1.003743">
        <ele>1420.0</ele>
        <time>2015-08-29T11:38:41Z</time>
      </trkpt>
      <trkpt lat="42.251345" lon="1.003705">
        <ele>1418.0</ele>
        <time>2015-08-29T11:38:42Z</time>
      </trkpt>
      <trkpt lat="42.251483" lon="1.003662">
        <ele>1417.0</ele>
        <time>2015-08-29T11:38:43Z</time>
      </trkpt>
      <trkpt lat="42.251618" lon="1.003625">
        <ele>1414.0</ele>
        <time>2015-08-29T11:38:44Z</time>
      </trkpt>
      <trkpt lat="42.251753" lon="1.003613">
        <ele>1414.0</ele>
        <time>2015-08-29T11:38:45Z</time>
      </trkpt>
      <trkpt lat="42.251892" lon="1.003587">
        <ele>1413.0</ele>
        <time>2015-08-29T11:38:46Z</time>
      </trkpt>
      <trkpt lat="42.252033" lon="1.003545">
        <ele>1410.0</ele>
        <time>2015-08-29T11:38:47Z</time>
      </trkpt>
      <trkpt lat="42.252178" lon="1.003505">
        <ele>1409.0</ele>
        <time>2015-08-29T11:38:48Z</time>
      </trkpt>
      <trkpt lat="42.252318" lon="1.003472">
        <ele>1407.0</ele>
        <time>2015-08-29T11:38:49Z</time>
      </trkpt>
      <trkpt lat="42.252453" lon="1.003453">
        <ele>1406.0</ele>
        <time>2015-08-29T11:38:50Z</time>
      </trkpt>
      <trkpt lat="42.252582" lon="1.003450">
        <ele>1406.0</ele>
        <time>2015-08-29T11:38:51Z</time>
      </trkpt>
      <trkpt lat="42.252705" lon="1.003442">
        <ele>1405.0</ele>
        <time>2015-08-29T11:38:52Z</time>
      </trkpt>
      <trkpt lat="42.252828" lon="1.003422">
        <ele>1404.0</ele>
        <time>2015-08-29T11:38:53Z</time>
      </trkpt>
      <trkpt lat="42.252957" lon="1.003393">
        <ele>1402.0</ele>
        <time>2015-08-29T11:38:54Z</time>
      </trkpt>
      <trkpt lat="42.253092" lon="1.003365">
        <ele>1401.0</ele>
        <time>2015-08-29T11:38:55Z</time>
      </trkpt>
      <trkpt lat="42.253233" lon="1.003330">
        <ele>1399.0</ele>
        <time>2015-08-29T11:38:56Z</time>
      </trkpt>
      <trkpt lat="42.253370" lon="1.003308">
        <ele>1398.0</ele>
        <time>2015-08-29T11:38:57Z</time>
      </trkpt>
      <trkpt lat="42.253505" lon="1.003267">
        <ele>1397.0</ele>
        <time>2015-08-29T11:38:58Z</time>
      </trkpt>
      <trkpt lat="42.253632" lon="1.003210">
        <ele>1394.0</ele>
        <time>2015-08-29T11:38:59Z</time>
      </trkpt>
      <trkpt lat="42.253753" lon="1.003163">
        <ele>1391.0</ele>
        <time>2015-08-29T11:39:00Z</time>
      </trkpt>
      <trkpt lat="42.253873" lon="1.003123">
        <ele>1388.0</ele>
        <time>2015-08-29T11:39:01Z</time>
      </trkpt>
      <trkpt lat="42.253997" lon="1.003088">
        <ele>1385.0</ele>
        <time>2015-08-29T11:39:02Z</time>
      </trkpt>
      <trkpt lat="42.254130" lon="1.003035">
        <ele>1384.0</ele>
        <time>2015-08-29T11:39:03Z</time>
      </trkpt>
      <trkpt lat="42.254267" lon="1.002953">
        <ele>1382.0</ele>
        <time>2015-08-29T11:39:04Z</time>
      </trkpt>
      <trkpt lat="42.254395" lon="1.002882">
        <ele>1381.0</ele>
        <time>2015-08-29T11:39:05Z</time>
      </trkpt>
      <trkpt lat="42.254518" lon="1.002810">
        <ele>1379.0</ele>
        <time>2015-08-29T11:39:06Z</time>
      </trkpt>
      <trkpt lat="42.254637" lon="1.002738">
        <ele>1378.0</ele>
        <time>2015-08-29T11:39:07Z</time>
      </trkpt>
      <trkpt lat="42.254757" lon="1.002668">
        <ele>1376.0</ele>
        <time>2015-08-29T11:39:08Z</time>
      </trkpt>
      <trkpt lat="42.254883" lon="1.002592">
        <ele>1374.0</ele>
        <time>2015-08-29T11:39:09Z</time>
      </trkpt>
      <trkpt lat="42.255008" lon="1.002518">
        <ele>1372.0</ele>
        <time>2015-08-29T11:39:10Z</time>
      </trkpt>
      <trkpt lat="42.255132" lon="1.002440">
        <ele>1370.0</ele>
        <time>2015-08-29T11:39:11Z</time>
      </trkpt>
      <trkpt lat="42.255252" lon="1.002365">
        <ele>1369.0</ele>
        <time>2015-08-29T11:39:12Z</time>
      </trkpt>
      <trkpt lat="42.255362" lon="1.002297">
        <ele>1367.0</ele>
        <time>2015-08-29T11:39:13Z</time>
      </trkpt>
      <trkpt lat="42.255480" lon="1.002235">
        <ele>1367.0</ele>
        <time>2015-08-29T11:39:14Z</time>
      </trkpt>
      <trkpt lat="42.255607" lon="1.002165">
        <ele>1366.0</ele>
        <time>2015-08-29T11:39:15Z</time>
      </trkpt>
      <trkpt lat="42.255738" lon="1.002082">
        <ele>1364.0</ele>
        <time>2015-08-29T11:39:16Z</time>
      </trkpt>
      <trkpt lat="42.255860" lon="1.002015">
        <ele>1363.0</ele>
        <time>2015-08-29T11:39:17Z</time>
      </trkpt>
      <trkpt lat="42.255977" lon="1.001965">
        <ele>1362.0</ele>
        <time>2015-08-29T11:39:18Z</time>
      </trkpt>
      <trkpt lat="42.256088" lon="1.001927">
        <ele>1360.0</ele>
        <time>2015-08-29T11:39:19Z</time>
      </trkpt>
      <trkpt lat="42.256202" lon="1.001892">
        <ele>1359.0</ele>
        <time>2015-08-29T11:39:20Z</time>
      </trkpt>
      <trkpt lat="42.256318" lon="1.001842">
        <ele>1354.0</ele>
        <time>2015-08-29T11:39:21Z</time>
      </trkpt>
      <trkpt lat="42.256440" lon="1.001795">
        <ele>1352.0</ele>
        <time>2015-08-29T11:39:22Z</time>
      </trkpt>
      <trkpt lat="42.256562" lon="1.001745">
        <ele>1351.0</ele>
        <time>2015-08-29T11:39:23Z</time>
      </trkpt>
      <trkpt lat="42.256683" lon="1.001695">
        <ele>1351.0</ele>
        <time>2015-08-29T11:39:24Z</time>
      </trkpt>
      <trkpt lat="42.256798" lon="1.001653">
        <ele>1350.0</ele>
        <time>2015-08-29T11:39:25Z</time>
      </trkpt>
      <trkpt lat="42.256910" lon="1.001613">
        <ele>1349.0</ele>
        <time>2015-08-29T11:39:26Z</time>
      </trkpt>
      <trkpt lat="42.257030" lon="1.001558">
        <ele>1346.0</ele>
        <time>2015-08-29T11:39:27Z</time>
      </trkpt>
      <trkpt lat="42.257148" lon="1.001500">
        <ele>1345.0</ele>
        <time>2015-08-29T11:39:28Z</time>
      </trkpt>
      <trkpt lat="42.257267" lon="1.001438">
        <ele>1344.0</ele>
        <time>2015-08-29T11:39:29Z</time>
      </trkpt>
      <trkpt lat="42.257383" lon="1.001382">
        <ele>1343.0</ele>
        <time>2015-08-29T11:39:30Z</time>
      </trkpt>
      <trkpt lat="42.257490" lon="1.001335">
        <ele>1343.0</ele>
        <time>2015-08-29T11:39:31Z</time>
      </trkpt>
      <trkpt lat="42.257602" lon="1.001277">
        <ele>1343.0</ele>
        <time>2015-08-29T11:39:32Z</time>
      </trkpt>
      <trkpt lat="42.257718" lon="1.001208">
        <ele>1341.0</ele>
        <time>2015-08-29T11:39:33Z</time>
      </trkpt>
      <trkpt lat="42.257835" lon="1.001145">
        <ele>1339.0</ele>
        <time>2015-08-29T11:39:34Z</time>
      </trkpt>
      <trkpt lat="42.257943" lon="1.001083">
        <ele>1338.0</ele>
        <time>2015-08-29T11:39:35Z</time>
      </trkpt>
      <trkpt lat="42.258052" lon="1.001017">
        <ele>1337.0</ele>
        <time>2015-08-29T11:39:36Z</time>
      </trkpt>
      <trkpt lat="42.258162" lon="1.000948">
        <ele>1336.0</ele>
        <time>2015-08-29T11:39:37Z</time>
      </trkpt>
      <trkpt lat="42.258272" lon="1.000873">
        <ele>1334.0</ele>
        <time>2015-08-29T11:39:38Z</time>
      </trkpt>
      <trkpt lat="42.258383" lon="1.000798">
        <ele>1333.0</ele>
        <time>2015-08-29T11:39:39Z</time>
      </trkpt>
      <trkpt lat="42.258497" lon="1.000722">
        <ele>1332.0</ele>
        <time>2015-08-29T11:39:40Z</time>
      </trkpt>
      <trkpt lat="42.258608" lon="1.000645">
        <ele>1331.0</ele>
        <time>2015-08-29T11:39:41Z</time>
      </trkpt>
      <trkpt lat="42.258718" lon="1.000568">
        <ele>1330.0</ele>
        <time>2015-08-29T11:39:42Z</time>
      </trkpt>
      <trkpt lat="42.258823" lon="1.000492">
        <ele>1330.0</ele>
        <time>2015-08-29T11:39:43Z</time>
      </trkpt>
      <trkpt lat="42.258927" lon="1.000412">
        <ele>1329.0</ele>
        <time>2015-08-29T11:39:44Z</time>
      </trkpt>
      <trkpt lat="42.259032" lon="1.000332">
        <ele>1328.0</ele>
        <time>2015-08-29T11:39:45Z</time>
      </trkpt>
      <trkpt lat="42.259140" lon="1.000252">
        <ele>1327.0</ele>
        <time>2015-08-29T11:39:46Z</time>
      </trkpt>
      <trkpt lat="42.259247" lon="1.000172">
        <ele>1326.0</ele>
        <time>2015-08-29T11:39:47Z</time>
      </trkpt>
      <trkpt lat="42.259348" lon="1.000092">
        <ele>1327.0</ele>
        <time>2015-08-29T11:39:48Z</time>
      </trkpt>
      <trkpt lat="42.259447" lon="1.000007">
        <ele>1327.0</ele>
        <time>2015-08-29T11:39:49Z</time>
      </trkpt>
      <trkpt lat="42.259545" lon="0.999918">
        <ele>1325.0</ele>
        <time>2015-08-29T11:39:50Z</time>
      </trkpt>
      <trkpt lat="42.259640" lon="0.999847">
        <ele>1325.0</ele>
        <time>2015-08-29T11:39:51Z</time>
      </trkpt>
      <trkpt lat="42.259735" lon="0.999780">
        <ele>1324.0</ele>
        <time>2015-08-29T11:39:52Z</time>
      </trkpt>
      <trkpt lat="42.259832" lon="0.999717">
        <ele>1323.0</ele>
        <time>2015-08-29T11:39:53Z</time>
      </trkpt>
      <trkpt lat="42.259938" lon="0.999635">
        <ele>1324.0</ele>
        <time>2015-08-29T11:39:54Z</time>
      </trkpt>
      <trkpt lat="42.260042" lon="0.999560">
        <ele>1324.0</ele>
        <time>2015-08-29T11:39:55Z</time>
      </trkpt>
      <trkpt lat="42.260143" lon="0.999488">
        <ele>1323.0</ele>
        <time>2015-08-29T11:39:56Z</time>
      </trkpt>
      <trkpt lat="42.260245" lon="0.999423">
        <ele>1323.0</ele>
        <time>2015-08-29T11:39:57Z</time>
      </trkpt>
      <trkpt lat="42.260353" lon="0.999363">
        <ele>1322.0</ele>
        <time>2015-08-29T11:39:58Z</time>
      </trkpt>
      <trkpt lat="42.260465" lon="0.999305">
        <ele>1322.0</ele>
        <time>2015-08-29T11:39:59Z</time>
      </trkpt>
      <trkpt lat="42.260577" lon="0.999248">
        <ele>1321.0</ele>
        <time>2015-08-29T11:40:00Z</time>
      </trkpt>
      <trkpt lat="42.260685" lon="0.999190">
        <ele>1320.0</ele>
        <time>2015-08-29T11:40:01Z</time>
      </trkpt>
      <trkpt lat="42.260793" lon="0.999137">
        <ele>1319.0</ele>
        <time>2015-08-29T11:40:02Z</time>
      </trkpt>
      <trkpt lat="42.260908" lon="0.999095">
        <ele>1317.0</ele>
        <time>2015-08-29T11:40:03Z</time>
      </trkpt>
      <trkpt lat="42.261027" lon="0.999057">
        <ele>1317.0</ele>
        <time>2015-08-29T11:40:04Z</time>
      </trkpt>
      <trkpt lat="42.261135" lon="0.999013">
        <ele>1316.0</ele>
        <time>2015-08-29T11:40:05Z</time>
      </trkpt>
      <trkpt lat="42.261240" lon="0.998963">
        <ele>1314.0</ele>
        <time>2015-08-29T11:40:06Z</time>
      </trkpt>
      <trkpt lat="42.261347" lon="0.998910">
        <ele>1312.0</ele>
        <time>2015-08-29T11:40:07Z</time>
      </trkpt>
      <trkpt lat="42.261453" lon="0.998867">
        <ele>1310.0</ele>
        <time>2015-08-29T11:40:08Z</time>
      </trkpt>
      <trkpt lat="42.261563" lon="0.998832">
        <ele>1308.0</ele>
        <time>2015-08-29T11:40:09Z</time>
      </trkpt>
      <trkpt lat="42.261673" lon="0.998798">
        <ele>1306.0</ele>
        <time>2015-08-29T11:40:10Z</time>
      </trkpt>
      <trkpt lat="42.261787" lon="0.998757">
        <ele>1306.0</ele>
        <time>2015-08-29T11:40:11Z</time>
      </trkpt>
      <trkpt lat="42.261900" lon="0.998713">
        <ele>1304.0</ele>
        <time>2015-08-29T11:40:12Z</time>
      </trkpt>
      <trkpt lat="42.262010" lon="0.998668">
        <ele>1303.0</ele>
        <time>2015-08-29T11:40:13Z</time>
      </trkpt>
      <trkpt lat="42.262118" lon="0.998630">
        <ele>1303.0</ele>
        <time>2015-08-29T11:40:14Z</time>
      </trkpt>
      <trkpt lat="42.262225" lon="0.998593">
        <ele>1302.0</ele>
        <time>2015-08-29T11:40:15Z</time>
      </trkpt>
      <trkpt lat="42.262332" lon="0.998557">
        <ele>1300.0</ele>
        <time>2015-08-29T11:40:16Z</time>
      </trkpt>
      <trkpt lat="42.262438" lon="0.998515">
        <ele>1299.0</ele>
        <time>2015-08-29T11:40:17Z</time>
      </trkpt>
      <trkpt lat="42.262548" lon="0.998468">
        <ele>1297.0</ele>
        <time>2015-08-29T11:40:18Z</time>
      </trkpt>
      <trkpt lat="42.262655" lon="0.998420">
        <ele>1296.0</ele>
        <time>2015-08-29T11:40:19Z</time>
      </trkpt>
      <trkpt lat="42.262753" lon="0.998378">
        <ele>1295.0</ele>
        <time>2015-08-29T11:40:20Z</time>
      </trkpt>
      <trkpt lat="42.262848" lon="0.998363">
        <ele>1294.0</ele>
        <time>2015-08-29T11:40:21Z</time>
      </trkpt>
      <trkpt lat="42.262948" lon="0.998362">
        <ele>1293.0</ele>
        <time>2015-08-29T11:40:22Z</time>
      </trkpt>
      <trkpt lat="42.263055" lon="0.998308">
        <ele>1292.0</ele>
        <time>2015-08-29T11:40:23Z</time>
      </trkpt>
      <trkpt lat="42.263162" lon="0.998240">
        <ele>1290.0</ele>
        <time>2015-08-29T11:40:24Z</time>
      </trkpt>
      <trkpt lat="42.263267" lon="0.998183">
        <ele>1288.0</ele>
        <time>2015-08-29T11:40:25Z</time>
      </trkpt>
      <trkpt lat="42.263370" lon="0.998128">
        <ele>1287.0</ele>
        <time>2015-08-29T11:40:26Z</time>
      </trkpt>
      <trkpt lat="42.263470" lon="0.998073">
        <ele>1285.0</ele>
        <time>2015-08-29T11:40:27Z</time>
      </trkpt>
      <trkpt lat="42.263568" lon="0.998007">
        <ele>1282.0</ele>
        <time>2015-08-29T11:40:28Z</time>
      </trkpt>
      <trkpt lat="42.263670" lon="0.997927">
        <ele>1280.0</ele>
        <time>2015-08-29T11:40:29Z</time>
      </trkpt>
      <trkpt lat="42.263773" lon="0.997842">
        <ele>1278.0</ele>
        <time>2015-08-29T11:40:30Z</time>
      </trkpt>
      <trkpt lat="42.263877" lon="0.997755">
        <ele>1277.0</ele>
        <time>2015-08-29T11:40:31Z</time>
      </trkpt>
      <trkpt lat="42.263980" lon="0.997675">
        <ele>1277.0</ele>
        <time>2015-08-29T11:40:32Z</time>
      </trkpt>
      <trkpt lat="42.264080" lon="0.997602">
        <ele>1276.0</ele>
        <time>2015-08-29T11:40:33Z</time>
      </trkpt>
      <trkpt lat="42.264182" lon="0.997532">
        <ele>1275.0</ele>
        <time>2015-08-29T11:40:34Z</time>
      </trkpt>
      <trkpt lat="42.264285" lon="0.997458">
        <ele>1274.0</ele>
        <time>2015-08-29T11:40:35Z</time>
      </trkpt>
      <trkpt lat="42.264388" lon="0.997385">
        <ele>1273.0</ele>
        <time>2015-08-29T11:40:36Z</time>
      </trkpt>
      <trkpt lat="42.264488" lon="0.997307">
        <ele>1271.0</ele>
        <time>2015-08-29T11:40:37Z</time>
      </trkpt>
      <trkpt lat="42.264588" lon="0.997228">
        <ele>1270.0</ele>
        <time>2015-08-29T11:40:38Z</time>
      </trkpt>
      <trkpt lat="42.264690" lon="0.997163">
        <ele>1268.0</ele>
        <time>2015-08-29T11:40:39Z</time>
      </trkpt>
      <trkpt lat="42.264792" lon="0.997098">
        <ele>1266.0</ele>
        <time>2015-08-29T11:40:40Z</time>
      </trkpt>
      <trkpt lat="42.264890" lon="0.997042">
        <ele>1263.0</ele>
        <time>2015-08-29T11:40:41Z</time>
      </trkpt>
      <trkpt lat="42.264983" lon="0.996988">
        <ele>1261.0</ele>
        <time>2015-08-29T11:40:42Z</time>
      </trkpt>
      <trkpt lat="42.265083" lon="0.996925">
        <ele>1261.0</ele>
        <time>2015-08-29T11:40:43Z</time>
      </trkpt>
      <trkpt lat="42.265185" lon="0.996857">
        <ele>1260.0</ele>
        <time>2015-08-29T11:40:44Z</time>
      </trkpt>
      <trkpt lat="42.265290" lon="0.996770">
        <ele>1259.0</ele>
        <time>2015-08-29T11:40:45Z</time>
      </trkpt>
      <trkpt lat="42.265388" lon="0.996697">
        <ele>1258.0</ele>
        <time>2015-08-29T11:40:46Z</time>
      </trkpt>
      <trkpt lat="42.265485" lon="0.996632">
        <ele>1257.0</ele>
        <time>2015-08-29T11:40:47Z</time>
      </trkpt>
      <trkpt lat="42.265580" lon="0.996573">
        <ele>1256.0</ele>
        <time>2015-08-29T11:40:48Z</time>
      </trkpt>
      <trkpt lat="42.265675" lon="0.996517">
        <ele>1254.0</ele>
        <time>2015-08-29T11:40:49Z</time>
      </trkpt>
      <trkpt lat="42.265772" lon="0.996460">
        <ele>1252.0</ele>
        <time>2015-08-29T11:40:50Z</time>
      </trkpt>
      <trkpt lat="42.265872" lon="0.996398">
        <ele>1250.0</ele>
        <time>2015-08-29T11:40:51Z</time>
      </trkpt>
      <trkpt lat="42.265972" lon="0.996335">
        <ele>1249.0</ele>
        <time>2015-08-29T11:40:52Z</time>
      </trkpt>
      <trkpt lat="42.266073" lon="0.996272">
        <ele>1247.0</ele>
        <time>2015-08-29T11:40:53Z</time>
      </trkpt>
      <trkpt lat="42.266175" lon="0.996218">
        <ele>1246.0</ele>
        <time>2015-08-29T11:40:54Z</time>
      </trkpt>
      <trkpt lat="42.266280" lon="0.996177">
        <ele>1246.0</ele>
        <time>2015-08-29T11:40:55Z</time>
      </trkpt>
      <trkpt lat="42.266388" lon="0.996138">
        <ele>1247.0</ele>
        <time>2015-08-29T11:40:56Z</time>
      </trkpt>
      <trkpt lat="42.266500" lon="0.996103">
        <ele>1245.0</ele>
        <time>2015-08-29T11:40:57Z</time>
      </trkpt>
      <trkpt lat="42.266608" lon="0.996082">
        <ele>1244.0</ele>
        <time>2015-08-29T11:40:58Z</time>
      </trkpt>
      <trkpt lat="42.266710" lon="0.996058">
        <ele>1243.0</ele>
        <time>2015-08-29T11:40:59Z</time>
      </trkpt>
      <trkpt lat="42.266808" lon="0.996030">
        <ele>1242.0</ele>
        <time>2015-08-29T11:41:00Z</time>
      </trkpt>
      <trkpt lat="42.266910" lon="0.995995">
        <ele>1241.0</ele>
        <time>2015-08-29T11:41:01Z</time>
      </trkpt>
      <trkpt lat="42.267012" lon="0.995948">
        <ele>1240.0</ele>
        <time>2015-08-29T11:41:02Z</time>
      </trkpt>
      <trkpt lat="42.267112" lon="0.995903">
        <ele>1239.0</ele>
        <time>2015-08-29T11:41:03Z</time>
      </trkpt>
      <trkpt lat="42.267207" lon="0.995865">
        <ele>1239.0</ele>
        <time>2015-08-29T11:41:04Z</time>
      </trkpt>
      <trkpt lat="42.267297" lon="0.995833">
        <ele>1238.0</ele>
        <time>2015-08-29T11:41:05Z</time>
      </trkpt>
      <trkpt lat="42.267385" lon="0.995798">
        <ele>1237.0</ele>
        <time>2015-08-29T11:41:06Z</time>
      </trkpt>
      <trkpt lat="42.267475" lon="0.995762">
        <ele>1236.0</ele>
        <time>2015-08-29T11:41:07Z</time>
      </trkpt>
      <trkpt lat="42.267567" lon="0.995730">
        <ele>1234.0</ele>
        <time>2015-08-29T11:41:08Z</time>
      </trkpt>
      <trkpt lat="42.267663" lon="0.995712">
        <ele>1233.0</ele>
        <time>2015-08-29T11:41:09Z</time>
      </trkpt>
      <trkpt lat="42.267763" lon="0.995705">
        <ele>1232.0</ele>
        <time>2015-08-29T11:41:10Z</time>
      </trkpt>
      <trkpt lat="42.267857" lon="0.995713">
        <ele>1231.0</ele>
        <time>2015-08-29T11:41:11Z</time>
      </trkpt>
      <trkpt lat="42.267950" lon="0.995712">
        <ele>1229.0</ele>
        <time>2015-08-29T11:41:12Z</time>
      </trkpt>
      <trkpt lat="42.268047" lon="0.995698">
        <ele>1228.0</ele>
        <time>2015-08-29T11:41:13Z</time>
      </trkpt>
      <trkpt lat="42.268155" lon="0.995690">
        <ele>1226.0</ele>
        <time>2015-08-29T11:41:14Z</time>
      </trkpt>
      <trkpt lat="42.268263" lon="0.995703">
        <ele>1223.0</ele>
        <time>2015-08-29T11:41:15Z</time>
      </trkpt>
      <trkpt lat="42.268372" lon="0.995720">
        <ele>1223.0</ele>
        <time>2015-08-29T11:41:16Z</time>
      </trkpt>
      <trkpt lat="42.268483" lon="0.995758">
        <ele>1221.0</ele>
        <time>2015-08-29T11:41:17Z</time>
      </trkpt>
      <trkpt lat="42.268585" lon="0.995810">
        <ele>1221.0</ele>
        <time>2015-08-29T11:41:18Z</time>
      </trkpt>
      <trkpt lat="42.268678" lon="0.995863">
        <ele>1219.0</ele>
        <time>2015-08-29T11:41:19Z</time>
      </trkpt>
      <trkpt lat="42.268767" lon="0.995908">
        <ele>1218.0</ele>
        <time>2015-08-29T11:41:20Z</time>
      </trkpt>
      <trkpt lat="42.268855" lon="0.995948">
        <ele>1217.0</ele>
        <time>2015-08-29T11:41:21Z</time>
      </trkpt>
      <trkpt lat="42.268955" lon="0.995985">
        <ele>1215.0</ele>
        <time>2015-08-29T11:41:22Z</time>
      </trkpt>
      <trkpt lat="42.269058" lon="0.996027">
        <ele>1214.0</ele>
        <time>2015-08-29T11:41:23Z</time>
      </trkpt>
      <trkpt lat="42.269162" lon="0.996072">
        <ele>1213.0</ele>
        <time>2015-08-29T11:41:24Z</time>
      </trkpt>
      <trkpt lat="42.269260" lon="0.996118">
        <ele>1212.0</ele>
        <time>2015-08-29T11:41:25Z</time>
      </trkpt>
      <trkpt lat="42.269353" lon="0.996165">
        <ele>1210.0</ele>
        <time>2015-08-29T11:41:26Z</time>
      </trkpt>
      <trkpt lat="42.269450" lon="0.996212">
        <ele>1209.0</ele>
        <time>2015-08-29T11:41:27Z</time>
      </trkpt>
      <trkpt lat="42.269553" lon="0.996265">
        <ele>1208.0</ele>
        <time>2015-08-29T11:41:28Z</time>
      </trkpt>
      <trkpt lat="42.269652" lon="0.996315">
        <ele>1208.0</ele>
        <time>2015-08-29T11:41:29Z</time>
      </trkpt>
      <trkpt lat="42.269753" lon="0.996367">
        <ele>1208.0</ele>
        <time>2015-08-29T11:41:30Z</time>
      </trkpt>
      <trkpt lat="42.269857" lon="0.996428">
        <ele>1207.0</ele>
        <time>2015-08-29T11:41:31Z</time>
      </trkpt>
      <trkpt lat="42.269953" lon="0.996485">
        <ele>1205.0</ele>
        <time>2015-08-29T11:41:32Z</time>
      </trkpt>
      <trkpt lat="42.270048" lon="0.996540">
        <ele>1205.0</ele>
        <time>2015-08-29T11:41:33Z</time>
      </trkpt>
      <trkpt lat="42.270147" lon="0.996597">
        <ele>1203.0</ele>
        <time>2015-08-29T11:41:34Z</time>
      </trkpt>
      <trkpt lat="42.270240" lon="0.996643">
        <ele>1203.0</ele>
        <time>2015-08-29T11:41:35Z</time>
      </trkpt>
      <trkpt lat="42.270338" lon="0.996680">
        <ele>1202.0</ele>
        <time>2015-08-29T11:41:36Z</time>
      </trkpt>
      <trkpt lat="42.270435" lon="0.996712">
        <ele>1201.0</ele>
        <time>2015-08-29T11:41:37Z</time>
      </trkpt>
      <trkpt lat="42.270533" lon="0.996748">
        <ele>1200.0</ele>
        <time>2015-08-29T11:41:38Z</time>
      </trkpt>
      <trkpt lat="42.270635" lon="0.996800">
        <ele>1200.0</ele>
        <time>2015-08-29T11:41:39Z</time>
      </trkpt>
      <trkpt lat="42.270733" lon="0.996863">
        <ele>1199.0</ele>
        <time>2015-08-29T11:41:40Z</time>
      </trkpt>
      <trkpt lat="42.270823" lon="0.996938">
        <ele>1199.0</ele>
        <time>2015-08-29T11:41:41Z</time>
      </trkpt>
      <trkpt lat="42.270907" lon="0.997025">
        <ele>1199.0</ele>
        <time>2015-08-29T11:41:42Z</time>
      </trkpt>
      <trkpt lat="42.270987" lon="0.997105">
        <ele>1199.0</ele>
        <time>2015-08-29T11:41:43Z</time>
      </trkpt>
      <trkpt lat="42.271067" lon="0.997180">
        <ele>1198.0</ele>
        <time>2015-08-29T11:41:44Z</time>
      </trkpt>
      <trkpt lat="42.271148" lon="0.997253">
        <ele>1198.0</ele>
        <time>2015-08-29T11:41:45Z</time>
      </trkpt>
      <trkpt lat="42.271230" lon="0.997327">
        <ele>1198.0</ele>
        <time>2015-08-29T11:41:46Z</time>
      </trkpt>
      <trkpt lat="42.271312" lon="0.997410">
        <ele>1199.0</ele>
        <time>2015-08-29T11:41:47Z</time>
      </trkpt>
      <trkpt lat="42.271397" lon="0.997520">
        <ele>1196.0</ele>
        <time>2015-08-29T11:41:48Z</time>
      </trkpt>
      <trkpt lat="42.271475" lon="0.997622">
        <ele>1196.0</ele>
        <time>2015-08-29T11:41:49Z</time>
      </trkpt>
      <trkpt lat="42.271548" lon="0.997720">
        <ele>1196.0</ele>
        <time>2015-08-29T11:41:50Z</time>
      </trkpt>
      <trkpt lat="42.271622" lon="0.997815">
        <ele>1196.0</ele>
        <time>2015-08-29T11:41:51Z</time>
      </trkpt>
      <trkpt lat="42.271700" lon="0.997915">
        <ele>1196.0</ele>
        <time>2015-08-29T11:41:52Z</time>
      </trkpt>
      <trkpt lat="42.271780" lon="0.998015">
        <ele>1197.0</ele>
        <time>2015-08-29T11:41:53Z</time>
      </trkpt>
      <trkpt lat="42.271855" lon="0.998120">
        <ele>1198.0</ele>
        <time>2015-08-29T11:41:54Z</time>
      </trkpt>
      <trkpt lat="42.271923" lon="0.998227">
        <ele>1198.0</ele>
        <time>2015-08-29T11:41:55Z</time>
      </trkpt>
      <trkpt lat="42.271988" lon="0.998342">
        <ele>1199.0</ele>
        <time>2015-08-29T11:41:56Z</time>
      </trkpt>
      <trkpt lat="42.272052" lon="0.998463">
        <ele>1199.0</ele>
        <time>2015-08-29T11:41:57Z</time>
      </trkpt>
      <trkpt lat="42.272113" lon="0.998588">
        <ele>1200.0</ele>
        <time>2015-08-29T11:41:58Z</time>
      </trkpt>
      <trkpt lat="42.272172" lon="0.998712">
        <ele>1201.0</ele>
        <time>2015-08-29T11:41:59Z</time>
      </trkpt>
      <trkpt lat="42.272222" lon="0.998827">
        <ele>1203.0</ele>
        <time>2015-08-29T11:42:00Z</time>
      </trkpt>
      <trkpt lat="42.272272" lon="0.998950">
        <ele>1204.0</ele>
        <time>2015-08-29T11:42:01Z</time>
      </trkpt>
      <trkpt lat="42.272323" lon="0.999097">
        <ele>1202.0</ele>
        <time>2015-08-29T11:42:02Z</time>
      </trkpt>
      <trkpt lat="42.272375" lon="0.999245">
        <ele>1201.0</ele>
        <time>2015-08-29T11:42:03Z</time>
      </trkpt>
      <trkpt lat="42.272423" lon="0.999387">
        <ele>1200.0</ele>
        <time>2015-08-29T11:42:04Z</time>
      </trkpt>
      <trkpt lat="42.272468" lon="0.999523">
        <ele>1201.0</ele>
        <time>2015-08-29T11:42:05Z</time>
      </trkpt>
      <trkpt lat="42.272512" lon="0.999662">
        <ele>1202.0</ele>
        <time>2015-08-29T11:42:06Z</time>
      </trkpt>
      <trkpt lat="42.272553" lon="0.999802">
        <ele>1203.0</ele>
        <time>2015-08-29T11:42:07Z</time>
      </trkpt>
      <trkpt lat="42.272593" lon="0.999940">
        <ele>1203.0</ele>
        <time>2015-08-29T11:42:08Z</time>
      </trkpt>
      <trkpt lat="42.272632" lon="1.000080">
        <ele>1204.0</ele>
        <time>2015-08-29T11:42:09Z</time>
      </trkpt>
      <trkpt lat="42.272670" lon="1.000220">
        <ele>1204.0</ele>
        <time>2015-08-29T11:42:10Z</time>
      </trkpt>
      <trkpt lat="42.272710" lon="1.000363">
        <ele>1205.0</ele>
        <time>2015-08-29T11:42:11Z</time>
      </trkpt>
      <trkpt lat="42.272752" lon="1.000503">
        <ele>1205.0</ele>
        <time>2015-08-29T11:42:12Z</time>
      </trkpt>
      <trkpt lat="42.272787" lon="1.000642">
        <ele>1205.0</ele>
        <time>2015-08-29T11:42:13Z</time>
      </trkpt>
      <trkpt lat="42.272818" lon="1.000782">
        <ele>1205.0</ele>
        <time>2015-08-29T11:42:14Z</time>
      </trkpt>
      <trkpt lat="42.272847" lon="1.000922">
        <ele>1205.0</ele>
        <time>2015-08-29T11:42:15Z</time>
      </trkpt>
      <trkpt lat="42.272870" lon="1.001062">
        <ele>1205.0</ele>
        <time>2015-08-29T11:42:16Z</time>
      </trkpt>
      <trkpt lat="42.272892" lon="1.001198">
        <ele>1204.0</ele>
        <time>2015-08-29T11:42:17Z</time>
      </trkpt>
      <trkpt lat="42.272923" lon="1.001340">
        <ele>1204.0</ele>
        <time>2015-08-29T11:42:18Z</time>
      </trkpt>
      <trkpt lat="42.272953" lon="1.001478">
        <ele>1204.0</ele>
        <time>2015-08-29T11:42:19Z</time>
      </trkpt>
      <trkpt lat="42.272980" lon="1.001612">
        <ele>1204.0</ele>
        <time>2015-08-29T11:42:20Z</time>
      </trkpt>
      <trkpt lat="42.273002" lon="1.001748">
        <ele>1205.0</ele>
        <time>2015-08-29T11:42:21Z</time>
      </trkpt>
      <trkpt lat="42.273022" lon="1.001880">
        <ele>1205.0</ele>
        <time>2015-08-29T11:42:22Z</time>
      </trkpt>
      <trkpt lat="42.273040" lon="1.002005">
        <ele>1205.0</ele>
        <time>2015-08-29T11:42:23Z</time>
      </trkpt>
      <trkpt lat="42.273073" lon="1.002155">
        <ele>1201.0</ele>
        <time>2015-08-29T11:42:24Z</time>
      </trkpt>
      <trkpt lat="42.273105" lon="1.002292">
        <ele>1201.0</ele>
        <time>2015-08-29T11:42:25Z</time>
      </trkpt>
      <trkpt lat="42.273138" lon="1.002433">
        <ele>1201.0</ele>
        <time>2015-08-29T11:42:26Z</time>
      </trkpt>
      <trkpt lat="42.273170" lon="1.002582">
        <ele>1202.0</ele>
        <time>2015-08-29T11:42:27Z</time>
      </trkpt>
      <trkpt lat="42.273198" lon="1.002722">
        <ele>1203.0</ele>
        <time>2015-08-29T11:42:28Z</time>
      </trkpt>
      <trkpt lat="42.273227" lon="1.002850">
        <ele>1204.0</ele>
        <time>2015-08-29T11:42:29Z</time>
      </trkpt>
      <trkpt lat="42.273248" lon="1.002977">
        <ele>1205.0</ele>
        <time>2015-08-29T11:42:30Z</time>
      </trkpt>
      <trkpt lat="42.273267" lon="1.003105">
        <ele>1205.0</ele>
        <time>2015-08-29T11:42:31Z</time>
      </trkpt>
      <trkpt lat="42.273277" lon="1.003242">
        <ele>1205.0</ele>
        <time>2015-08-29T11:42:32Z</time>
      </trkpt>
      <trkpt lat="42.273283" lon="1.003373">
        <ele>1205.0</ele>
        <time>2015-08-29T11:42:33Z</time>
      </trkpt>
      <trkpt lat="42.273290" lon="1.003492">
        <ele>1207.0</ele>
        <time>2015-08-29T11:42:34Z</time>
      </trkpt>
      <trkpt lat="42.273297" lon="1.003625">
        <ele>1207.0</ele>
        <time>2015-08-29T11:42:35Z</time>
      </trkpt>
      <trkpt lat="42.273303" lon="1.003773">
        <ele>1207.0</ele>
        <time>2015-08-29T11:42:36Z</time>
      </trkpt>
      <trkpt lat="42.273312" lon="1.003917">
        <ele>1207.0</ele>
        <time>2015-08-29T11:42:37Z</time>
      </trkpt>
      <trkpt lat="42.273327" lon="1.004055">
        <ele>1206.0</ele>
        <time>2015-08-29T11:42:38Z</time>
      </trkpt>
      <trkpt lat="42.273345" lon="1.004188">
        <ele>1206.0</ele>
        <time>2015-08-29T11:42:39Z</time>
      </trkpt>
      <trkpt lat="42.273367" lon="1.004333">
        <ele>1205.0</ele>
        <time>2015-08-29T11:42:40Z</time>
      </trkpt>
      <trkpt lat="42.273385" lon="1.004485">
        <ele>1204.0</ele>
        <time>2015-08-29T11:42:41Z</time>
      </trkpt>
      <trkpt lat="42.273398" lon="1.004633">
        <ele>1204.0</ele>
        <time>2015-08-29T11:42:42Z</time>
      </trkpt>
      <trkpt lat="42.273403" lon="1.004777">
        <ele>1204.0</ele>
        <time>2015-08-29T11:42:43Z</time>
      </trkpt>
      <trkpt lat="42.273407" lon="1.004915">
        <ele>1204.0</ele>
        <time>2015-08-29T11:42:44Z</time>
      </trkpt>
      <trkpt lat="42.273415" lon="1.005058">
        <ele>1204.0</ele>
        <time>2015-08-29T11:42:45Z</time>
      </trkpt>
      <trkpt lat="42.273430" lon="1.005200">
        <ele>1204.0</ele>
        <time>2015-08-29T11:42:46Z</time>
      </trkpt>
      <trkpt lat="42.273447" lon="1.005340">
        <ele>1205.0</ele>
        <time>2015-08-29T11:42:47Z</time>
      </trkpt>
      <trkpt lat="42.273462" lon="1.005480">
        <ele>1205.0</ele>
        <time>2015-08-29T11:42:48Z</time>
      </trkpt>
      <trkpt lat="42.273468" lon="1.005625">
        <ele>1205.0</ele>
        <time>2015-08-29T11:42:49Z</time>
      </trkpt>
      <trkpt lat="42.273477" lon="1.005772">
        <ele>1205.0</ele>
        <time>2015-08-29T11:42:50Z</time>
      </trkpt>
      <trkpt lat="42.273493" lon="1.005902">
        <ele>1206.0</ele>
        <time>2015-08-29T11:42:51Z</time>
      </trkpt>
      <trkpt lat="42.273507" lon="1.006023">
        <ele>1208.0</ele>
        <time>2015-08-29T11:42:52Z</time>
      </trkpt>
      <trkpt lat="42.273508" lon="1.006127">
        <ele>1208.0</ele>
        <time>2015-08-29T11:42:53Z</time>
      </trkpt>
      <trkpt lat="42.273508" lon="1.006218">
        <ele>1208.0</ele>
        <time>2015-08-29T11:42:54Z</time>
      </trkpt>
      <trkpt lat="42.273507" lon="1.006305">
        <ele>1208.0</ele>
        <time>2015-08-29T11:42:55Z</time>
      </trkpt>
      <trkpt lat="42.273517" lon="1.006407">
        <ele>1207.0</ele>
        <time>2015-08-29T11:42:56Z</time>
      </trkpt>
      <trkpt lat="42.273542" lon="1.006533">
        <ele>1205.0</ele>
        <time>2015-08-29T11:42:57Z</time>
      </trkpt>
      <trkpt lat="42.273567" lon="1.006643">
        <ele>1204.0</ele>
        <time>2015-08-29T11:42:58Z</time>
      </trkpt>
      <trkpt lat="42.273590" lon="1.006753">
        <ele>1203.0</ele>
        <time>2015-08-29T11:42:59Z</time>
      </trkpt>
      <trkpt lat="42.273607" lon="1.006857">
        <ele>1203.0</ele>
        <time>2015-08-29T11:43:00Z</time>
      </trkpt>
      <trkpt lat="42.273625" lon="1.006957">
        <ele>1203.0</ele>
        <time>2015-08-29T11:43:01Z</time>
      </trkpt>
      <trkpt lat="42.273650" lon="1.007055">
        <ele>1202.0</ele>
        <time>2015-08-29T11:43:02Z</time>
      </trkpt>
      <trkpt lat="42.273683" lon="1.007157">
        <ele>1200.0</ele>
        <time>2015-08-29T11:43:03Z</time>
      </trkpt>
      <trkpt lat="42.273718" lon="1.007273">
        <ele>1199.0</ele>
        <time>2015-08-29T11:43:04Z</time>
      </trkpt>
      <trkpt lat="42.273747" lon="1.007405">
        <ele>1198.0</ele>
        <time>2015-08-29T11:43:05Z</time>
      </trkpt>
      <trkpt lat="42.273775" lon="1.007537">
        <ele>1198.0</ele>
        <time>2015-08-29T11:43:06Z</time>
      </trkpt>
      <trkpt lat="42.273810" lon="1.007658">
        <ele>1199.0</ele>
        <time>2015-08-29T11:43:07Z</time>
      </trkpt>
      <trkpt lat="42.273855" lon="1.007768">
        <ele>1201.0</ele>
        <time>2015-08-29T11:43:08Z</time>
      </trkpt>
      <trkpt lat="42.273897" lon="1.007885">
        <ele>1202.0</ele>
        <time>2015-08-29T11:43:09Z</time>
      </trkpt>
      <trkpt lat="42.273922" lon="1.008012">
        <ele>1202.0</ele>
        <time>2015-08-29T11:43:10Z</time>
      </trkpt>
      <trkpt lat="42.273938" lon="1.008135">
        <ele>1204.0</ele>
        <time>2015-08-29T11:43:11Z</time>
      </trkpt>
      <trkpt lat="42.273955" lon="1.008257">
        <ele>1205.0</ele>
        <time>2015-08-29T11:43:12Z</time>
      </trkpt>
      <trkpt lat="42.273975" lon="1.008372">
        <ele>1206.0</ele>
        <time>2015-08-29T11:43:13Z</time>
      </trkpt>
      <trkpt lat="42.274003" lon="1.008493">
        <ele>1206.0</ele>
        <time>2015-08-29T11:43:14Z</time>
      </trkpt>
      <trkpt lat="42.274028" lon="1.008627">
        <ele>1199.0</ele>
        <time>2015-08-29T11:43:15Z</time>
      </trkpt>
      <trkpt lat="42.274045" lon="1.008752">
        <ele>1196.0</ele>
        <time>2015-08-29T11:43:16Z</time>
      </trkpt>
      <trkpt lat="42.274070" lon="1.008880">
        <ele>1193.0</ele>
        <time>2015-08-29T11:43:17Z</time>
      </trkpt>
      <trkpt lat="42.274110" lon="1.009020">
        <ele>1191.0</ele>
        <time>2015-08-29T11:43:18Z</time>
      </trkpt>
      <trkpt lat="42.274170" lon="1.009160">
        <ele>1190.0</ele>
        <time>2015-08-29T11:43:19Z</time>
      </trkpt>
      <trkpt lat="42.274235" lon="1.009283">
        <ele>1191.0</ele>
        <time>2015-08-29T11:43:20Z</time>
      </trkpt>
      <trkpt lat="42.274292" lon="1.009398">
        <ele>1193.0</ele>
        <time>2015-08-29T11:43:21Z</time>
      </trkpt>
      <trkpt lat="42.274338" lon="1.009513">
        <ele>1193.0</ele>
        <time>2015-08-29T11:43:22Z</time>
      </trkpt>
      <trkpt lat="42.274380" lon="1.009630">
        <ele>1193.0</ele>
        <time>2015-08-29T11:43:23Z</time>
      </trkpt>
      <trkpt lat="42.274425" lon="1.009752">
        <ele>1194.0</ele>
        <time>2015-08-29T11:43:24Z</time>
      </trkpt>
      <trkpt lat="42.274477" lon="1.009873">
        <ele>1195.0</ele>
        <time>2015-08-29T11:43:25Z</time>
      </trkpt>
      <trkpt lat="42.274537" lon="1.009995">
        <ele>1195.0</ele>
        <time>2015-08-29T11:43:26Z</time>
      </trkpt>
      <trkpt lat="42.274603" lon="1.010115">
        <ele>1196.0</ele>
        <time>2015-08-29T11:43:27Z</time>
      </trkpt>
      <trkpt lat="42.274675" lon="1.010233">
        <ele>1197.0</ele>
        <time>2015-08-29T11:43:28Z</time>
      </trkpt>
      <trkpt lat="42.274747" lon="1.010363">
        <ele>1198.0</ele>
        <time>2015-08-29T11:43:29Z</time>
      </trkpt>
      <trkpt lat="42.274813" lon="1.010500">
        <ele>1200.0</ele>
        <time>2015-08-29T11:43:30Z</time>
      </trkpt>
      <trkpt lat="42.274867" lon="1.010648">
        <ele>1203.0</ele>
        <time>2015-08-29T11:43:31Z</time>
      </trkpt>
      <trkpt lat="42.274900" lon="1.010790">
        <ele>1205.0</ele>
        <time>2015-08-29T11:43:32Z</time>
      </trkpt>
      <trkpt lat="42.274917" lon="1.010927">
        <ele>1207.0</ele>
        <time>2015-08-29T11:43:33Z</time>
      </trkpt>
      <trkpt lat="42.274928" lon="1.011058">
        <ele>1209.0</ele>
        <time>2015-08-29T11:43:34Z</time>
      </trkpt>
      <trkpt lat="42.274945" lon="1.011180">
        <ele>1209.0</ele>
        <time>2015-08-29T11:43:35Z</time>
      </trkpt>
      <trkpt lat="42.274968" lon="1.011302">
        <ele>1210.0</ele>
        <time>2015-08-29T11:43:36Z</time>
      </trkpt>
      <trkpt lat="42.274995" lon="1.011423">
        <ele>1211.0</ele>
        <time>2015-08-29T11:43:37Z</time>
      </trkpt>
      <trkpt lat="42.275022" lon="1.011543">
        <ele>1212.0</ele>
        <time>2015-08-29T11:43:38Z</time>
      </trkpt>
      <trkpt lat="42.275050" lon="1.011663">
        <ele>1212.0</ele>
        <time>2015-08-29T11:43:39Z</time>
      </trkpt>
      <trkpt lat="42.275075" lon="1.011797">
        <ele>1211.0</ele>
        <time>2015-08-29T11:43:40Z</time>
      </trkpt>
      <trkpt lat="42.275118" lon="1.011927">
        <ele>1210.0</ele>
        <time>2015-08-29T11:43:41Z</time>
      </trkpt>
      <trkpt lat="42.275182" lon="1.012050">
        <ele>1209.0</ele>
        <time>2015-08-29T11:43:42Z</time>
      </trkpt>
      <trkpt lat="42.275247" lon="1.012187">
        <ele>1207.0</ele>
        <time>2015-08-29T11:43:43Z</time>
      </trkpt>
      <trkpt lat="42.275295" lon="1.012315">
        <ele>1205.0</ele>
        <time>2015-08-29T11:43:44Z</time>
      </trkpt>
      <trkpt lat="42.275330" lon="1.012430">
        <ele>1204.0</ele>
        <time>2015-08-29T11:43:45Z</time>
      </trkpt>
      <trkpt lat="42.275365" lon="1.012542">
        <ele>1203.0</ele>
        <time>2015-08-29T11:43:46Z</time>
      </trkpt>
      <trkpt lat="42.275402" lon="1.012653">
        <ele>1201.0</ele>
        <time>2015-08-29T11:43:47Z</time>
      </trkpt>
      <trkpt lat="42.275448" lon="1.012788">
        <ele>1197.0</ele>
        <time>2015-08-29T11:43:48Z</time>
      </trkpt>
      <trkpt lat="42.275495" lon="1.012918">
        <ele>1195.0</ele>
        <time>2015-08-29T11:43:49Z</time>
      </trkpt>
      <trkpt lat="42.275547" lon="1.013047">
        <ele>1194.0</ele>
        <time>2015-08-29T11:43:50Z</time>
      </trkpt>
      <trkpt lat="42.275600" lon="1.013173">
        <ele>1194.0</ele>
        <time>2015-08-29T11:43:51Z</time>
      </trkpt>
      <trkpt lat="42.275655" lon="1.013287">
        <ele>1193.0</ele>
        <time>2015-08-29T11:43:52Z</time>
      </trkpt>
      <trkpt lat="42.275715" lon="1.013395">
        <ele>1192.0</ele>
        <time>2015-08-29T11:43:53Z</time>
      </trkpt>
      <trkpt lat="42.275778" lon="1.013508">
        <ele>1191.0</ele>
        <time>2015-08-29T11:43:54Z</time>
      </trkpt>
      <trkpt lat="42.275847" lon="1.013632">
        <ele>1189.0</ele>
        <time>2015-08-29T11:43:55Z</time>
      </trkpt>
      <trkpt lat="42.275918" lon="1.013758">
        <ele>1188.0</ele>
        <time>2015-08-29T11:43:56Z</time>
      </trkpt>
      <trkpt lat="42.275993" lon="1.013877">
        <ele>1187.0</ele>
        <time>2015-08-29T11:43:57Z</time>
      </trkpt>
      <trkpt lat="42.276065" lon="1.013980">
        <ele>1186.0</ele>
        <time>2015-08-29T11:43:58Z</time>
      </trkpt>
      <trkpt lat="42.276133" lon="1.014082">
        <ele>1186.0</ele>
        <time>2015-08-29T11:43:59Z</time>
      </trkpt>
      <trkpt lat="42.276198" lon="1.014198">
        <ele>1184.0</ele>
        <time>2015-08-29T11:44:00Z</time>
      </trkpt>
      <trkpt lat="42.276260" lon="1.014323">
        <ele>1183.0</ele>
        <time>2015-08-29T11:44:01Z</time>
      </trkpt>
      <trkpt lat="42.276320" lon="1.014438">
        <ele>1182.0</ele>
        <time>2015-08-29T11:44:02Z</time>
      </trkpt>
      <trkpt lat="42.276378" lon="1.014550">
        <ele>1182.0</ele>
        <time>2015-08-29T11:44:03Z</time>
      </trkpt>
      <trkpt lat="42.276433" lon="1.014658">
        <ele>1182.0</ele>
        <time>2015-08-29T11:44:04Z</time>
      </trkpt>
      <trkpt lat="42.276478" lon="1.014775">
        <ele>1181.0</ele>
        <time>2015-08-29T11:44:05Z</time>
      </trkpt>
      <trkpt lat="42.276518" lon="1.014887">
        <ele>1180.0</ele>
        <time>2015-08-29T11:44:06Z</time>
      </trkpt>
      <trkpt lat="42.276555" lon="1.014997">
        <ele>1179.0</ele>
        <time>2015-08-29T11:44:07Z</time>
      </trkpt>
      <trkpt lat="42.276588" lon="1.015108">
        <ele>1177.0</ele>
        <time>2015-08-29T11:44:08Z</time>
      </trkpt>
      <trkpt lat="42.276623" lon="1.015223">
        <ele>1175.0</ele>
        <time>2015-08-29T11:44:09Z</time>
      </trkpt>
      <trkpt lat="42.276658" lon="1.015343">
        <ele>1174.0</ele>
        <time>2015-08-29T11:44:10Z</time>
      </trkpt>
      <trkpt lat="42.276697" lon="1.015467">
        <ele>1173.0</ele>
        <time>2015-08-29T11:44:11Z</time>
      </trkpt>
      <trkpt lat="42.276732" lon="1.015592">
        <ele>1172.0</ele>
        <time>2015-08-29T11:44:12Z</time>
      </trkpt>
      <trkpt lat="42.276760" lon="1.015708">
        <ele>1171.0</ele>
        <time>2015-08-29T11:44:13Z</time>
      </trkpt>
      <trkpt lat="42.276783" lon="1.015813">
        <ele>1171.0</ele>
        <time>2015-08-29T11:44:14Z</time>
      </trkpt>
      <trkpt lat="42.276808" lon="1.015922">
        <ele>1170.0</ele>
        <time>2015-08-29T11:44:15Z</time>
      </trkpt>
      <trkpt lat="42.276837" lon="1.016040">
        <ele>1170.0</ele>
        <time>2015-08-29T11:44:16Z</time>
      </trkpt>
      <trkpt lat="42.276877" lon="1.016177">
        <ele>1169.0</ele>
        <time>2015-08-29T11:44:17Z</time>
      </trkpt>
      <trkpt lat="42.276917" lon="1.016303">
        <ele>1168.0</ele>
        <time>2015-08-29T11:44:18Z</time>
      </trkpt>
      <trkpt lat="42.276950" lon="1.016410">
        <ele>1167.0</ele>
        <time>2015-08-29T11:44:19Z</time>
      </trkpt>
      <trkpt lat="42.276982" lon="1.016505">
        <ele>1166.0</ele>
        <time>2015-08-29T11:44:20Z</time>
      </trkpt>
      <trkpt lat="42.277013" lon="1.016607">
        <ele>1165.0</ele>
        <time>2015-08-29T11:44:21Z</time>
      </trkpt>
      <trkpt lat="42.277042" lon="1.016725">
        <ele>1161.0</ele>
        <time>2015-08-29T11:44:22Z</time>
      </trkpt>
      <trkpt lat="42.277057" lon="1.016833">
        <ele>1160.0</ele>
        <time>2015-08-29T11:44:23Z</time>
      </trkpt>
      <trkpt lat="42.277057" lon="1.016943">
        <ele>1159.0</ele>
        <time>2015-08-29T11:44:24Z</time>
      </trkpt>
      <trkpt lat="42.277052" lon="1.017045">
        <ele>1158.0</ele>
        <time>2015-08-29T11:44:25Z</time>
      </trkpt>
      <trkpt lat="42.277050" lon="1.017140">
        <ele>1157.0</ele>
        <time>2015-08-29T11:44:26Z</time>
      </trkpt>
      <trkpt lat="42.277050" lon="1.017232">
        <ele>1156.0</ele>
        <time>2015-08-29T11:44:27Z</time>
      </trkpt>
      <trkpt lat="42.277045" lon="1.017320">
        <ele>1155.0</ele>
        <time>2015-08-29T11:44:28Z</time>
      </trkpt>
      <trkpt lat="42.277035" lon="1.017415">
        <ele>1152.0</ele>
        <time>2015-08-29T11:44:29Z</time>
      </trkpt>
      <trkpt lat="42.277023" lon="1.017517">
        <ele>1150.0</ele>
        <time>2015-08-29T11:44:30Z</time>
      </trkpt>
      <trkpt lat="42.277013" lon="1.017630">
        <ele>1148.0</ele>
        <time>2015-08-29T11:44:31Z</time>
      </trkpt>
      <trkpt lat="42.277022" lon="1.017738">
        <ele>1148.0</ele>
        <time>2015-08-29T11:44:32Z</time>
      </trkpt>
      <trkpt lat="42.277037" lon="1.017845">
        <ele>1147.0</ele>
        <time>2015-08-29T11:44:33Z</time>
      </trkpt>
      <trkpt lat="42.277053" lon="1.017965">
        <ele>1144.0</ele>
        <time>2015-08-29T11:44:34Z</time>
      </trkpt>
      <trkpt lat="42.277048" lon="1.018047">
        <ele>1144.0</ele>
        <time>2015-08-29T11:44:35Z</time>
      </trkpt>
      <trkpt lat="42.277037" lon="1.018137">
        <ele>1142.0</ele>
        <time>2015-08-29T11:44:36Z</time>
      </trkpt>
      <trkpt lat="42.277025" lon="1.018228">
        <ele>1141.0</ele>
        <time>2015-08-29T11:44:37Z</time>
      </trkpt>
      <trkpt lat="42.277020" lon="1.018327">
        <ele>1141.0</ele>
        <time>2015-08-29T11:44:38Z</time>
      </trkpt>
      <trkpt lat="42.277022" lon="1.018417">
        <ele>1140.0</ele>
        <time>2015-08-29T11:44:39Z</time>
      </trkpt>
      <trkpt lat="42.277028" lon="1.018505">
        <ele>1138.0</ele>
        <time>2015-08-29T11:44:40Z</time>
      </trkpt>
      <trkpt lat="42.277028" lon="1.018580">
        <ele>1137.0</ele>
        <time>2015-08-29T11:44:41Z</time>
      </trkpt>
      <trkpt lat="42.277023" lon="1.018677">
        <ele>1134.0</ele>
        <time>2015-08-29T11:44:42Z</time>
      </trkpt>
      <trkpt lat="42.277015" lon="1.018783">
        <ele>1133.0</ele>
        <time>2015-08-29T11:44:43Z</time>
      </trkpt>
      <trkpt lat="42.277010" lon="1.018895">
        <ele>1132.0</ele>
        <time>2015-08-29T11:44:44Z</time>
      </trkpt>
      <trkpt lat="42.277013" lon="1.018993">
        <ele>1131.0</ele>
        <time>2015-08-29T11:44:45Z</time>
      </trkpt>
      <trkpt lat="42.277018" lon="1.019083">
        <ele>1130.0</ele>
        <time>2015-08-29T11:44:46Z</time>
      </trkpt>
      <trkpt lat="42.277020" lon="1.019163">
        <ele>1129.0</ele>
        <time>2015-08-29T11:44:47Z</time>
      </trkpt>
      <trkpt lat="42.277017" lon="1.019247">
        <ele>1127.0</ele>
        <time>2015-08-29T11:44:48Z</time>
      </trkpt>
      <trkpt lat="42.276997" lon="1.019323">
        <ele>1126.0</ele>
        <time>2015-08-29T11:44:49Z</time>
      </trkpt>
      <trkpt lat="42.276967" lon="1.019373">
        <ele>1126.0</ele>
        <time>2015-08-29T11:44:50Z</time>
      </trkpt>
      <trkpt lat="42.276917" lon="1.019402">
        <ele>1126.0</ele>
        <time>2015-08-29T11:44:51Z</time>
      </trkpt>
      <trkpt lat="42.276873" lon="1.019392">
        <ele>1124.0</ele>
        <time>2015-08-29T11:44:52Z</time>
      </trkpt>
      <trkpt lat="42.276835" lon="1.019363">
        <ele>1123.0</ele>
        <time>2015-08-29T11:44:53Z</time>
      </trkpt>
      <trkpt lat="42.276798" lon="1.019328">
        <ele>1122.0</ele>
        <time>2015-08-29T11:44:54Z</time>
      </trkpt>
      <trkpt lat="42.276765" lon="1.019292">
        <ele>1121.0</ele>
        <time>2015-08-29T11:44:55Z</time>
      </trkpt>
      <trkpt lat="42.276715" lon="1.019245">
        <ele>1119.0</ele>
        <time>2015-08-29T11:44:56Z</time>
      </trkpt>
      <trkpt lat="42.276670" lon="1.019188">
        <ele>1117.0</ele>
        <time>2015-08-29T11:44:57Z</time>
      </trkpt>
      <trkpt lat="42.276628" lon="1.019123">
        <ele>1116.0</ele>
        <time>2015-08-29T11:44:58Z</time>
      </trkpt>
      <trkpt lat="42.276597" lon="1.019048">
        <ele>1115.0</ele>
        <time>2015-08-29T11:44:59Z</time>
      </trkpt>
      <trkpt lat="42.276582" lon="1.018972">
        <ele>1114.0</ele>
        <time>2015-08-29T11:45:00Z</time>
      </trkpt>
      <trkpt lat="42.276573" lon="1.018895">
        <ele>1113.0</ele>
        <time>2015-08-29T11:45:01Z</time>
      </trkpt>
      <trkpt lat="42.276577" lon="1.018820">
        <ele>1112.0</ele>
        <time>2015-08-29T11:45:02Z</time>
      </trkpt>
      <trkpt lat="42.276582" lon="1.018742">
        <ele>1111.0</ele>
        <time>2015-08-29T11:45:03Z</time>
      </trkpt>
      <trkpt lat="42.276583" lon="1.018657">
        <ele>1111.0</ele>
        <time>2015-08-29T11:45:04Z</time>
      </trkpt>
      <trkpt lat="42.276563" lon="1.018565">
        <ele>1109.0</ele>
        <time>2015-08-29T11:45:05Z</time>
      </trkpt>
      <trkpt lat="42.276547" lon="1.018482">
        <ele>1107.0</ele>
        <time>2015-08-29T11:45:06Z</time>
      </trkpt>
      <trkpt lat="42.276538" lon="1.018413">
        <ele>1106.0</ele>
        <time>2015-08-29T11:45:07Z</time>
      </trkpt>
      <trkpt lat="42.276543" lon="1.018358">
        <ele>1104.0</ele>
        <time>2015-08-29T11:45:08Z</time>
      </trkpt>
      <trkpt lat="42.276550" lon="1.018308">
        <ele>1102.0</ele>
        <time>2015-08-29T11:45:09Z</time>
      </trkpt>
      <trkpt lat="42.276535" lon="1.018253">
        <ele>1098.0</ele>
        <time>2015-08-29T11:45:10Z</time>
      </trkpt>
      <trkpt lat="42.276500" lon="1.018190">
        <ele>1095.0</ele>
        <time>2015-08-29T11:45:11Z</time>
      </trkpt>
      <trkpt lat="42.276453" lon="1.018128">
        <ele>1093.0</ele>
        <time>2015-08-29T11:45:12Z</time>
      </trkpt>
      <trkpt lat="42.276405" lon="1.018070">
        <ele>1091.0</ele>
        <time>2015-08-29T11:45:13Z</time>
      </trkpt>
      <trkpt lat="42.276373" lon="1.018013">
        <ele>1090.0</ele>
        <time>2015-08-29T11:45:14Z</time>
      </trkpt>
      <trkpt lat="42.276353" lon="1.017958">
        <ele>1089.0</ele>
        <time>2015-08-29T11:45:15Z</time>
      </trkpt>
      <trkpt lat="42.276333" lon="1.017910">
        <ele>1088.0</ele>
        <time>2015-08-29T11:45:16Z</time>
      </trkpt>
      <trkpt lat="42.276308" lon="1.017868">
        <ele>1087.0</ele>
        <time>2015-08-29T11:45:17Z</time>
      </trkpt>
      <trkpt lat="42.276277" lon="1.017827">
        <ele>1086.0</ele>
        <time>2015-08-29T11:45:18Z</time>
      </trkpt>
      <trkpt lat="42.276235" lon="1.017780">
        <ele>1084.0</ele>
        <time>2015-08-29T11:45:19Z</time>
      </trkpt>
      <trkpt lat="42.276210" lon="1.017725">
        <ele>1084.0</ele>
        <time>2015-08-29T11:45:20Z</time>
      </trkpt>
      <trkpt lat="42.276178" lon="1.017675">
        <ele>1084.0</ele>
        <time>2015-08-29T11:45:21Z</time>
      </trkpt>
      <trkpt lat="42.276125" lon="1.017640">
        <ele>1082.0</ele>
        <time>2015-08-29T11:45:22Z</time>
      </trkpt>
      <trkpt lat="42.276087" lon="1.017588">
        <ele>1081.0</ele>
        <time>2015-08-29T11:45:23Z</time>
      </trkpt>
      <trkpt lat="42.276072" lon="1.017517">
        <ele>1080.0</ele>
        <time>2015-08-29T11:45:24Z</time>
      </trkpt>
      <trkpt lat="42.276060" lon="1.017432">
        <ele>1079.0</ele>
        <time>2015-08-29T11:45:25Z</time>
      </trkpt>
      <trkpt lat="42.276060" lon="1.017357">
        <ele>1078.0</ele>
        <time>2015-08-29T11:45:26Z</time>
      </trkpt>
      <trkpt lat="42.276052" lon="1.017292">
        <ele>1076.0</ele>
        <time>2015-08-29T11:45:27Z</time>
      </trkpt>
      <trkpt lat="42.276037" lon="1.017230">
        <ele>1074.0</ele>
        <time>2015-08-29T11:45:28Z</time>
      </trkpt>
      <trkpt lat="42.276015" lon="1.017167">
        <ele>1074.0</ele>
        <time>2015-08-29T11:45:29Z</time>
      </trkpt>
      <trkpt lat="42.275993" lon="1.017105">
        <ele>1073.0</ele>
        <time>2015-08-29T11:45:30Z</time>
      </trkpt>
      <trkpt lat="42.275973" lon="1.017047">
        <ele>1073.0</ele>
        <time>2015-08-29T11:45:31Z</time>
      </trkpt>
      <trkpt lat="42.275948" lon="1.016995">
        <ele>1073.0</ele>
        <time>2015-08-29T11:45:32Z</time>
      </trkpt>
      <trkpt lat="42.275915" lon="1.016952">
        <ele>1073.0</ele>
        <time>2015-08-29T11:45:33Z</time>
      </trkpt>
      <trkpt lat="42.275877" lon="1.016913">
        <ele>1072.0</ele>
        <time>2015-08-29T11:45:34Z</time>
      </trkpt>
      <trkpt lat="42.275838" lon="1.016878">
        <ele>1072.0</ele>
        <time>2015-08-29T11:45:35Z</time>
      </trkpt>
      <trkpt lat="42.275808" lon="1.016838">
        <ele>1073.0</ele>
        <time>2015-08-29T11:45:36Z</time>
      </trkpt>
      <trkpt lat="42.275790" lon="1.016785">
        <ele>1074.0</ele>
        <time>2015-08-29T11:45:37Z</time>
      </trkpt>
      <trkpt lat="42.275762" lon="1.016738">
        <ele>1075.0</ele>
        <time>2015-08-29T11:45:38Z</time>
      </trkpt>
      <trkpt lat="42.275707" lon="1.016703">
        <ele>1075.0</ele>
        <time>2015-08-29T11:45:39Z</time>
      </trkpt>
      <trkpt lat="42.275647" lon="1.016670">
        <ele>1074.0</ele>
        <time>2015-08-29T11:45:40Z</time>
      </trkpt>
      <trkpt lat="42.275597" lon="1.016633">
        <ele>1073.0</ele>
        <time>2015-08-29T11:45:41Z</time>
      </trkpt>
      <trkpt lat="42.275545" lon="1.016603">
        <ele>1074.0</ele>
        <time>2015-08-29T11:45:42Z</time>
      </trkpt>
      <trkpt lat="42.275505" lon="1.016570">
        <ele>1075.0</ele>
        <time>2015-08-29T11:45:43Z</time>
      </trkpt>
      <trkpt lat="42.275465" lon="1.016495">
        <ele>1086.0</ele>
        <time>2015-08-29T11:45:45Z</time>
      </trkpt>
      <trkpt lat="42.275422" lon="1.016472">
        <ele>1089.0</ele>
        <time>2015-08-29T11:45:46Z</time>
      </trkpt>
      <trkpt lat="42.275380" lon="1.016450">
        <ele>1091.0</ele>
        <time>2015-08-29T11:45:47Z</time>
      </trkpt>
      <trkpt lat="42.275343" lon="1.016418">
        <ele>1093.0</ele>
        <time>2015-08-29T11:45:48Z</time>
      </trkpt>
      <trkpt lat="42.275308" lon="1.016372">
        <ele>1094.0</ele>
        <time>2015-08-29T11:45:49Z</time>
      </trkpt>
      <trkpt lat="42.275277" lon="1.016313">
        <ele>1094.0</ele>
        <time>2015-08-29T11:45:50Z</time>
      </trkpt>
      <trkpt lat="42.275245" lon="1.016243">
        <ele>1093.0</ele>
        <time>2015-08-29T11:45:51Z</time>
      </trkpt>
      <trkpt lat="42.275208" lon="1.016177">
        <ele>1092.0</ele>
        <time>2015-08-29T11:45:52Z</time>
      </trkpt>
      <trkpt lat="42.275168" lon="1.016112">
        <ele>1090.0</ele>
        <time>2015-08-29T11:45:53Z</time>
      </trkpt>
      <trkpt lat="42.275132" lon="1.016050">
        <ele>1090.0</ele>
        <time>2015-08-29T11:45:54Z</time>
      </trkpt>
      <trkpt lat="42.275098" lon="1.015992">
        <ele>1090.0</ele>
        <time>2015-08-29T11:45:55Z</time>
      </trkpt>
      <trkpt lat="42.275053" lon="1.015942">
        <ele>1086.0</ele>
        <time>2015-08-29T11:45:56Z</time>
      </trkpt>
      <trkpt lat="42.275027" lon="1.015877">
        <ele>1084.0</ele>
        <time>2015-08-29T11:45:57Z</time>
      </trkpt>
      <trkpt lat="42.274998" lon="1.015805">
        <ele>1083.0</ele>
        <time>2015-08-29T11:45:58Z</time>
      </trkpt>
      <trkpt lat="42.274955" lon="1.015735">
        <ele>1081.0</ele>
        <time>2015-08-29T11:45:59Z</time>
      </trkpt>
      <trkpt lat="42.274920" lon="1.015663">
        <ele>1080.0</ele>
        <time>2015-08-29T11:46:00Z</time>
      </trkpt>
      <trkpt lat="42.274877" lon="1.015600">
        <ele>1078.0</ele>
        <time>2015-08-29T11:46:01Z</time>
      </trkpt>
      <trkpt lat="42.274848" lon="1.015535">
        <ele>1076.0</ele>
        <time>2015-08-29T11:46:02Z</time>
      </trkpt>
      <trkpt lat="42.274820" lon="1.015470">
        <ele>1075.0</ele>
        <time>2015-08-29T11:46:03Z</time>
      </trkpt>
      <trkpt lat="42.274788" lon="1.015413">
        <ele>1074.0</ele>
        <time>2015-08-29T11:46:04Z</time>
      </trkpt>
      <trkpt lat="42.274753" lon="1.015365">
        <ele>1073.0</ele>
        <time>2015-08-29T11:46:05Z</time>
      </trkpt>
      <trkpt lat="42.274707" lon="1.015330">
        <ele>1071.0</ele>
        <time>2015-08-29T11:46:06Z</time>
      </trkpt>
      <trkpt lat="42.274653" lon="1.015285">
        <ele>1069.0</ele>
        <time>2015-08-29T11:46:07Z</time>
      </trkpt>
      <trkpt lat="42.274605" lon="1.015223">
        <ele>1067.0</ele>
        <time>2015-08-29T11:46:08Z</time>
      </trkpt>
      <trkpt lat="42.274557" lon="1.015150">
        <ele>1066.0</ele>
        <time>2015-08-29T11:46:09Z</time>
      </trkpt>
      <trkpt lat="42.274508" lon="1.015078">
        <ele>1065.0</ele>
        <time>2015-08-29T11:46:10Z</time>
      </trkpt>
      <trkpt lat="42.274457" lon="1.015017">
        <ele>1064.0</ele>
        <time>2015-08-29T11:46:11Z</time>
      </trkpt>
      <trkpt lat="42.274420" lon="1.014957">
        <ele>1066.0</ele>
        <time>2015-08-29T11:46:12Z</time>
      </trkpt>
      <trkpt lat="42.274378" lon="1.014902">
        <ele>1066.0</ele>
        <time>2015-08-29T11:46:13Z</time>
      </trkpt>
      <trkpt lat="42.274345" lon="1.014837">
        <ele>1066.0</ele>
        <time>2015-08-29T11:46:14Z</time>
      </trkpt>
      <trkpt lat="42.274315" lon="1.014765">
        <ele>1065.0</ele>
        <time>2015-08-29T11:46:15Z</time>
      </trkpt>
      <trkpt lat="42.274285" lon="1.014702">
        <ele>1065.0</ele>
        <time>2015-08-29T11:46:16Z</time>
      </trkpt>
      <trkpt lat="42.274258" lon="1.014655">
        <ele>1064.0</ele>
        <time>2015-08-29T11:46:17Z</time>
      </trkpt>
      <trkpt lat="42.274218" lon="1.014577">
        <ele>1060.0</ele>
        <time>2015-08-29T11:46:19Z</time>
      </trkpt>
      <trkpt lat="42.274205" lon="1.014520">
        <ele>1058.0</ele>
        <time>2015-08-29T11:46:20Z</time>
      </trkpt>
      <trkpt lat="42.274190" lon="1.014450">
        <ele>1056.0</ele>
        <time>2015-08-29T11:46:21Z</time>
      </trkpt>
      <trkpt lat="42.274170" lon="1.014382">
        <ele>1055.0</ele>
        <time>2015-08-29T11:46:22Z</time>
      </trkpt>
      <trkpt lat="42.274152" lon="1.014320">
        <ele>1054.0</ele>
        <time>2015-08-29T11:46:23Z</time>
      </trkpt>
      <trkpt lat="42.274137" lon="1.014253">
        <ele>1052.0</ele>
        <time>2015-08-29T11:46:24Z</time>
      </trkpt>
      <trkpt lat="42.274120" lon="1.014187">
        <ele>1050.0</ele>
        <time>2015-08-29T11:46:25Z</time>
      </trkpt>
      <trkpt lat="42.274107" lon="1.014125">
        <ele>1049.0</ele>
        <time>2015-08-29T11:46:26Z</time>
      </trkpt>
      <trkpt lat="42.274088" lon="1.014068">
        <ele>1047.0</ele>
        <time>2015-08-29T11:46:27Z</time>
      </trkpt>
      <trkpt lat="42.274043" lon="1.014027">
        <ele>1042.0</ele>
        <time>2015-08-29T11:46:28Z</time>
      </trkpt>
      <trkpt lat="42.274023" lon="1.013973">
        <ele>1039.0</ele>
        <time>2015-08-29T11:46:29Z</time>
      </trkpt>
      <trkpt lat="42.274002" lon="1.013912">
        <ele>1036.0</ele>
        <time>2015-08-29T11:46:30Z</time>
      </trkpt>
      <trkpt lat="42.273972" lon="1.013847">
        <ele>1033.0</ele>
        <time>2015-08-29T11:46:31Z</time>
      </trkpt>
      <trkpt lat="42.273940" lon="1.013795">
        <ele>1031.0</ele>
        <time>2015-08-29T11:46:32Z</time>
      </trkpt>
      <trkpt lat="42.273910" lon="1.013725">
        <ele>1028.0</ele>
        <time>2015-08-29T11:46:34Z</time>
      </trkpt>
      <trkpt lat="42.273890" lon="1.013612">
        <ele>1021.0</ele>
        <time>2015-08-29T11:46:36Z</time>
      </trkpt>
      <trkpt lat="42.273870" lon="1.013538">
        <ele>1018.0</ele>
        <time>2015-08-29T11:46:37Z</time>
      </trkpt>
      <trkpt lat="42.273850" lon="1.013473">
        <ele>1019.0</ele>
        <time>2015-08-29T11:46:38Z</time>
      </trkpt>
      <trkpt lat="42.273833" lon="1.013422">
        <ele>1020.0</ele>
        <time>2015-08-29T11:46:39Z</time>
      </trkpt>
      <trkpt lat="42.273810" lon="1.013380">
        <ele>1018.0</ele>
        <time>2015-08-29T11:46:40Z</time>
      </trkpt>
      <trkpt lat="42.273802" lon="1.013332">
        <ele>1016.0</ele>
        <time>2015-08-29T11:46:41Z</time>
      </trkpt>
      <trkpt lat="42.273788" lon="1.013273">
        <ele>1013.0</ele>
        <time>2015-08-29T11:46:42Z</time>
      </trkpt>
      <trkpt lat="42.273775" lon="1.013210">
        <ele>1011.0</ele>
        <time>2015-08-29T11:46:43Z</time>
      </trkpt>
      <trkpt lat="42.273757" lon="1.013152">
        <ele>1010.0</ele>
        <time>2015-08-29T11:46:44Z</time>
      </trkpt>
      <trkpt lat="42.273735" lon="1.013100">
        <ele>1009.0</ele>
        <time>2015-08-29T11:46:45Z</time>
      </trkpt>
      <trkpt lat="42.273715" lon="1.013055">
        <ele>1008.0</ele>
        <time>2015-08-29T11:46:46Z</time>
      </trkpt>
      <trkpt lat="42.273698" lon="1.013003">
        <ele>1005.0</ele>
        <time>2015-08-29T11:46:47Z</time>
      </trkpt>
      <trkpt lat="42.273677" lon="1.012938">
        <ele>1003.0</ele>
        <time>2015-08-29T11:46:48Z</time>
      </trkpt>
      <trkpt lat="42.273643" lon="1.012868">
        <ele>1002.0</ele>
        <time>2015-08-29T11:46:49Z</time>
      </trkpt>
      <trkpt lat="42.273608" lon="1.012817">
        <ele>1002.0</ele>
        <time>2015-08-29T11:46:50Z</time>
      </trkpt>
      <trkpt lat="42.273565" lon="1.012768">
        <ele>1003.0</ele>
        <time>2015-08-29T11:46:52Z</time>
      </trkpt>
      <trkpt lat="42.273557" lon="1.012675">
        <ele>998.0</ele>
        <time>2015-08-29T11:46:54Z</time>
      </trkpt>
      <trkpt lat="42.273543" lon="1.012615">
        <ele>997.0</ele>
        <time>2015-08-29T11:46:55Z</time>
      </trkpt>
      <trkpt lat="42.273517" lon="1.012558">
        <ele>995.0</ele>
        <time>2015-08-29T11:46:56Z</time>
      </trkpt>
      <trkpt lat="42.273485" lon="1.012515">
        <ele>992.0</ele>
        <time>2015-08-29T11:46:57Z</time>
      </trkpt>
      <trkpt lat="42.273463" lon="1.012473">
        <ele>990.0</ele>
        <time>2015-08-29T11:46:58Z</time>
      </trkpt>
      <trkpt lat="42.273465" lon="1.012380">
        <ele>988.0</ele>
        <time>2015-08-29T11:47:00Z</time>
      </trkpt>
      <trkpt lat="42.273445" lon="1.012337">
        <ele>985.0</ele>
        <time>2015-08-29T11:47:01Z</time>
      </trkpt>
      <trkpt lat="42.273413" lon="1.012293">
        <ele>980.0</ele>
        <time>2015-08-29T11:47:02Z</time>
      </trkpt>
      <trkpt lat="42.273382" lon="1.012245">
        <ele>978.0</ele>
        <time>2015-08-29T11:47:03Z</time>
      </trkpt>
      <trkpt lat="42.273350" lon="1.012198">
        <ele>976.0</ele>
        <time>2015-08-29T11:47:04Z</time>
      </trkpt>
      <trkpt lat="42.273323" lon="1.012157">
        <ele>975.0</ele>
        <time>2015-08-29T11:47:05Z</time>
      </trkpt>
      <trkpt lat="42.273297" lon="1.012115">
        <ele>974.0</ele>
        <time>2015-08-29T11:47:06Z</time>
      </trkpt>
      <trkpt lat="42.273283" lon="1.012067">
        <ele>973.0</ele>
        <time>2015-08-29T11:47:07Z</time>
      </trkpt>
      <trkpt lat="42.273257" lon="1.012015">
        <ele>971.0</ele>
        <time>2015-08-29T11:47:08Z</time>
      </trkpt>
      <trkpt lat="42.273222" lon="1.011957">
        <ele>969.0</ele>
        <time>2015-08-29T11:47:09Z</time>
      </trkpt>
      <trkpt lat="42.273177" lon="1.011900">
        <ele>967.0</ele>
        <time>2015-08-29T11:47:10Z</time>
      </trkpt>
      <trkpt lat="42.273142" lon="1.011840">
        <ele>967.0</ele>
        <time>2015-08-29T11:47:11Z</time>
      </trkpt>
      <trkpt lat="42.273097" lon="1.011785">
        <ele>967.0</ele>
        <time>2015-08-29T11:47:12Z</time>
      </trkpt>
      <trkpt lat="42.273062" lon="1.011730">
        <ele>967.0</ele>
        <time>2015-08-29T11:47:13Z</time>
      </trkpt>
      <trkpt lat="42.273037" lon="1.011672">
        <ele>966.0</ele>
        <time>2015-08-29T11:47:14Z</time>
      </trkpt>
      <trkpt lat="42.273017" lon="1.011610">
        <ele>966.0</ele>
        <time>2015-08-29T11:47:15Z</time>
      </trkpt>
      <trkpt lat="42.272995" lon="1.011542">
        <ele>965.0</ele>
        <time>2015-08-29T11:47:16Z</time>
      </trkpt>
      <trkpt lat="42.272973" lon="1.011465">
        <ele>963.0</ele>
        <time>2015-08-29T11:47:17Z</time>
      </trkpt>
      <trkpt lat="42.272955" lon="1.011383">
        <ele>962.0</ele>
        <time>2015-08-29T11:47:18Z</time>
      </trkpt>
      <trkpt lat="42.272943" lon="1.011295">
        <ele>961.0</ele>
        <time>2015-08-29T11:47:19Z</time>
      </trkpt>
      <trkpt lat="42.272942" lon="1.011203">
        <ele>961.0</ele>
        <time>2015-08-29T11:47:20Z</time>
      </trkpt>
      <trkpt lat="42.272948" lon="1.011125">
        <ele>959.0</ele>
        <time>2015-08-29T11:47:21Z</time>
      </trkpt>
      <trkpt lat="42.272970" lon="1.011065">
        <ele>960.0</ele>
        <time>2015-08-29T11:47:22Z</time>
      </trkpt>
      <trkpt lat="42.272995" lon="1.011007">
        <ele>960.0</ele>
        <time>2015-08-29T11:47:23Z</time>
      </trkpt>
      <trkpt lat="42.273005" lon="1.010942">
        <ele>959.0</ele>
        <time>2015-08-29T11:47:24Z</time>
      </trkpt>
      <trkpt lat="42.273010" lon="1.010867">
        <ele>957.0</ele>
        <time>2015-08-29T11:47:25Z</time>
      </trkpt>
      <trkpt lat="42.273010" lon="1.010788">
        <ele>957.0</ele>
        <time>2015-08-29T11:47:26Z</time>
      </trkpt>
      <trkpt lat="42.273003" lon="1.010723">
        <ele>956.0</ele>
        <time>2015-08-29T11:47:27Z</time>
      </trkpt>
      <trkpt lat="42.273015" lon="1.010635">
        <ele>956.0</ele>
        <time>2015-08-29T11:47:29Z</time>
      </trkpt>
      <trkpt lat="42.273035" lon="1.010553">
        <ele>956.0</ele>
        <time>2015-08-29T11:47:31Z</time>
      </trkpt>
      <trkpt lat="42.273035" lon="1.010490">
        <ele>956.0</ele>
        <time>2015-08-29T11:47:32Z</time>
      </trkpt>
      <trkpt lat="42.273035" lon="1.010415">
        <ele>956.0</ele>
        <time>2015-08-29T11:47:33Z</time>
      </trkpt>
      <trkpt lat="42.273040" lon="1.010348">
        <ele>956.0</ele>
        <time>2015-08-29T11:47:34Z</time>
      </trkpt>
      <trkpt lat="42.273055" lon="1.010273">
        <ele>957.0</ele>
        <time>2015-08-29T11:47:36Z</time>
      </trkpt>
      <trkpt lat="42.273058" lon="1.010170">
        <ele>955.0</ele>
        <time>2015-08-29T11:47:38Z</time>
      </trkpt>
      <trkpt lat="42.273055" lon="1.010095">
        <ele>956.0</ele>
        <time>2015-08-29T11:47:39Z</time>
      </trkpt>
      <trkpt lat="42.273047" lon="1.010025">
        <ele>958.0</ele>
        <time>2015-08-29T11:47:40Z</time>
      </trkpt>
      <trkpt lat="42.273023" lon="1.009968">
        <ele>957.0</ele>
        <time>2015-08-29T11:47:41Z</time>
      </trkpt>
      <trkpt lat="42.273012" lon="1.009888">
        <ele>958.0</ele>
        <time>2015-08-29T11:47:43Z</time>
      </trkpt>
      <trkpt lat="42.273010" lon="1.009785">
        <ele>959.0</ele>
        <time>2015-08-29T11:47:45Z</time>
      </trkpt>
      <trkpt lat="42.272990" lon="1.009717">
        <ele>960.0</ele>
        <time>2015-08-29T11:47:46Z</time>
      </trkpt>
      <trkpt lat="42.272983" lon="1.009647">
        <ele>965.0</ele>
        <time>2015-08-29T11:47:47Z</time>
      </trkpt>
      <trkpt lat="42.272968" lon="1.009597">
        <ele>969.0</ele>
        <time>2015-08-29T11:47:48Z</time>
      </trkpt>
      <trkpt lat="42.272948" lon="1.009535">
        <ele>978.0</ele>
        <time>2015-08-29T11:47:50Z</time>
      </trkpt>
      <trkpt lat="42.272953" lon="1.009467">
        <ele>983.0</ele>
        <time>2015-08-29T11:47:52Z</time>
      </trkpt>
      <trkpt lat="42.272935" lon="1.009397">
        <ele>987.0</ele>
        <time>2015-08-29T11:47:54Z</time>
      </trkpt>
      <trkpt lat="42.272900" lon="1.009375">
        <ele>987.0</ele>
        <time>2015-08-29T11:47:55Z</time>
      </trkpt>
      <trkpt lat="42.272843" lon="1.009347">
        <ele>993.0</ele>
        <time>2015-08-29T11:47:57Z</time>
      </trkpt>
      <trkpt lat="42.272787" lon="1.009348">
        <ele>991.0</ele>
        <time>2015-08-29T11:47:58Z</time>
      </trkpt>
      <trkpt lat="42.272725" lon="1.009372">
        <ele>991.0</ele>
        <time>2015-08-29T11:47:59Z</time>
      </trkpt>
      <trkpt lat="42.272660" lon="1.009418">
        <ele>989.0</ele>
        <time>2015-08-29T11:48:00Z</time>
      </trkpt>
      <trkpt lat="42.272598" lon="1.009478">
        <ele>988.0</ele>
        <time>2015-08-29T11:48:01Z</time>
      </trkpt>
      <trkpt lat="42.272540" lon="1.009535">
        <ele>988.0</ele>
        <time>2015-08-29T11:48:02Z</time>
      </trkpt>
      <trkpt lat="42.272498" lon="1.009562">
        <ele>987.0</ele>
        <time>2015-08-29T11:48:03Z</time>
      </trkpt>
      <trkpt lat="42.272453" lon="1.009542">
        <ele>985.0</ele>
        <time>2015-08-29T11:48:05Z</time>
      </trkpt>
      <trkpt lat="42.272420" lon="1.009510">
        <ele>984.0</ele>
        <time>2015-08-29T11:48:07Z</time>
      </trkpt>
      <trkpt lat="42.272418" lon="1.009398">
        <ele>980.0</ele>
        <time>2015-08-29T11:48:09Z</time>
      </trkpt>
      <trkpt lat="42.272457" lon="1.009312">
        <ele>979.0</ele>
        <time>2015-08-29T11:48:10Z</time>
      </trkpt>
      <trkpt lat="42.272500" lon="1.009232">
        <ele>978.0</ele>
        <time>2015-08-29T11:48:11Z</time>
      </trkpt>
      <trkpt lat="42.272543" lon="1.009160">
        <ele>976.0</ele>
        <time>2015-08-29T11:48:12Z</time>
      </trkpt>
      <trkpt lat="42.272585" lon="1.009095">
        <ele>975.0</ele>
        <time>2015-08-29T11:48:13Z</time>
      </trkpt>
      <trkpt lat="42.272625" lon="1.009037">
        <ele>974.0</ele>
        <time>2015-08-29T11:48:14Z</time>
      </trkpt>
      <trkpt lat="42.272667" lon="1.008975">
        <ele>973.0</ele>
        <time>2015-08-29T11:48:15Z</time>
      </trkpt>
      <trkpt lat="42.272707" lon="1.008908">
        <ele>971.0</ele>
        <time>2015-08-29T11:48:16Z</time>
      </trkpt>
      <trkpt lat="42.272738" lon="1.008837">
        <ele>970.0</ele>
        <time>2015-08-29T11:48:17Z</time>
      </trkpt>
      <trkpt lat="42.272757" lon="1.008762">
        <ele>969.0</ele>
        <time>2015-08-29T11:48:18Z</time>
      </trkpt>
      <trkpt lat="42.272760" lon="1.008683">
        <ele>967.0</ele>
        <time>2015-08-29T11:48:19Z</time>
      </trkpt>
      <trkpt lat="42.272743" lon="1.008593">
        <ele>966.0</ele>
        <time>2015-08-29T11:48:20Z</time>
      </trkpt>
      <trkpt lat="42.272717" lon="1.008510">
        <ele>966.0</ele>
        <time>2015-08-29T11:48:21Z</time>
      </trkpt>
      <trkpt lat="42.272690" lon="1.008447">
        <ele>966.0</ele>
        <time>2015-08-29T11:48:22Z</time>
      </trkpt>
      <trkpt lat="42.272675" lon="1.008397">
        <ele>965.0</ele>
        <time>2015-08-29T11:48:23Z</time>
      </trkpt>
      <trkpt lat="42.272650" lon="1.008280">
        <ele>962.0</ele>
        <time>2015-08-29T11:48:25Z</time>
      </trkpt>
      <trkpt lat="42.272632" lon="1.008197">
        <ele>961.0</ele>
        <time>2015-08-29T11:48:26Z</time>
      </trkpt>
      <trkpt lat="42.272615" lon="1.008115">
        <ele>962.0</ele>
        <time>2015-08-29T11:48:27Z</time>
      </trkpt>
      <trkpt lat="42.272598" lon="1.008045">
        <ele>963.0</ele>
        <time>2015-08-29T11:48:28Z</time>
      </trkpt>
      <trkpt lat="42.272578" lon="1.007982">
        <ele>963.0</ele>
        <time>2015-08-29T11:48:29Z</time>
      </trkpt>
      <trkpt lat="42.272567" lon="1.007927">
        <ele>965.0</ele>
        <time>2015-08-29T11:48:30Z</time>
      </trkpt>
      <trkpt lat="42.272562" lon="1.007878">
        <ele>966.0</ele>
        <time>2015-08-29T11:48:31Z</time>
      </trkpt>
      <trkpt lat="42.272547" lon="1.007803">
        <ele>963.0</ele>
        <time>2015-08-29T11:48:33Z</time>
      </trkpt>
      <trkpt lat="42.272515" lon="1.007713">
        <ele>962.0</ele>
        <time>2015-08-29T11:48:35Z</time>
      </trkpt>
      <trkpt lat="42.272495" lon="1.007653">
        <ele>961.0</ele>
        <time>2015-08-29T11:48:36Z</time>
      </trkpt>
      <trkpt lat="42.272473" lon="1.007580">
        <ele>961.0</ele>
        <time>2015-08-29T11:48:37Z</time>
      </trkpt>
      <trkpt lat="42.272455" lon="1.007510">
        <ele>961.0</ele>
        <time>2015-08-29T11:48:38Z</time>
      </trkpt>
      <trkpt lat="42.272435" lon="1.007448">
        <ele>960.0</ele>
        <time>2015-08-29T11:48:39Z</time>
      </trkpt>
      <trkpt lat="42.272435" lon="1.007393">
        <ele>960.0</ele>
        <time>2015-08-29T11:48:40Z</time>
      </trkpt>
      <trkpt lat="42.272435" lon="1.007333">
        <ele>961.0</ele>
        <time>2015-08-29T11:48:41Z</time>
      </trkpt>
      <trkpt lat="42.272420" lon="1.007267">
        <ele>959.0</ele>
        <time>2015-08-29T11:48:42Z</time>
      </trkpt>
      <trkpt lat="42.272412" lon="1.007193">
        <ele>958.0</ele>
        <time>2015-08-29T11:48:43Z</time>
      </trkpt>
      <trkpt lat="42.272402" lon="1.007127">
        <ele>957.0</ele>
        <time>2015-08-29T11:48:44Z</time>
      </trkpt>
      <trkpt lat="42.272392" lon="1.007068">
        <ele>956.0</ele>
        <time>2015-08-29T11:48:45Z</time>
      </trkpt>
      <trkpt lat="42.272383" lon="1.007015">
        <ele>956.0</ele>
        <time>2015-08-29T11:48:46Z</time>
      </trkpt>
      <trkpt lat="42.272353" lon="1.006968">
        <ele>952.0</ele>
        <time>2015-08-29T11:48:47Z</time>
      </trkpt>
      <trkpt lat="42.272340" lon="1.006918">
        <ele>950.0</ele>
        <time>2015-08-29T11:48:48Z</time>
      </trkpt>
      <trkpt lat="42.272323" lon="1.006862">
        <ele>949.0</ele>
        <time>2015-08-29T11:48:49Z</time>
      </trkpt>
      <trkpt lat="42.272303" lon="1.006803">
        <ele>948.0</ele>
        <time>2015-08-29T11:48:50Z</time>
      </trkpt>
      <trkpt lat="42.272285" lon="1.006753">
        <ele>947.0</ele>
        <time>2015-08-29T11:48:51Z</time>
      </trkpt>
      <trkpt lat="42.272270" lon="1.006708">
        <ele>947.0</ele>
        <time>2015-08-29T11:48:52Z</time>
      </trkpt>
      <trkpt lat="42.272245" lon="1.006637">
        <ele>945.0</ele>
        <time>2015-08-29T11:48:54Z</time>
      </trkpt>
      <trkpt lat="42.272222" lon="1.006563">
        <ele>943.0</ele>
        <time>2015-08-29T11:48:56Z</time>
      </trkpt>
      <trkpt lat="42.272205" lon="1.006463">
        <ele>944.0</ele>
        <time>2015-08-29T11:48:58Z</time>
      </trkpt>
      <trkpt lat="42.272187" lon="1.006393">
        <ele>943.0</ele>
        <time>2015-08-29T11:48:59Z</time>
      </trkpt>
      <trkpt lat="42.272170" lon="1.006320">
        <ele>942.0</ele>
        <time>2015-08-29T11:49:00Z</time>
      </trkpt>
      <trkpt lat="42.272153" lon="1.006252">
        <ele>942.0</ele>
        <time>2015-08-29T11:49:01Z</time>
      </trkpt>
      <trkpt lat="42.272147" lon="1.006198">
        <ele>943.0</ele>
        <time>2015-08-29T11:49:02Z</time>
      </trkpt>
      <trkpt lat="42.272115" lon="1.006160">
        <ele>942.0</ele>
        <time>2015-08-29T11:49:04Z</time>
      </trkpt>
      <trkpt lat="42.272058" lon="1.006138">
        <ele>935.0</ele>
        <time>2015-08-29T11:49:05Z</time>
      </trkpt>
      <trkpt lat="42.272030" lon="1.006092">
        <ele>932.0</ele>
        <time>2015-08-29T11:49:06Z</time>
      </trkpt>
      <trkpt lat="42.272012" lon="1.006033">
        <ele>930.0</ele>
        <time>2015-08-29T11:49:07Z</time>
      </trkpt>
      <trkpt lat="42.272005" lon="1.005982">
        <ele>931.0</ele>
        <time>2015-08-29T11:49:08Z</time>
      </trkpt>
      <trkpt lat="42.272008" lon="1.005897">
        <ele>929.0</ele>
        <time>2015-08-29T11:49:10Z</time>
      </trkpt>
      <trkpt lat="42.272025" lon="1.005840">
        <ele>929.0</ele>
        <time>2015-08-29T11:49:11Z</time>
      </trkpt>
      <trkpt lat="42.272028" lon="1.005762">
        <ele>927.0</ele>
        <time>2015-08-29T11:49:12Z</time>
      </trkpt>
      <trkpt lat="42.272022" lon="1.005672">
        <ele>926.0</ele>
        <time>2015-08-29T11:49:13Z</time>
      </trkpt>
      <trkpt lat="42.272015" lon="1.005588">
        <ele>925.0</ele>
        <time>2015-08-29T11:49:14Z</time>
      </trkpt>
      <trkpt lat="42.272015" lon="1.005513">
        <ele>925.0</ele>
        <time>2015-08-29T11:49:15Z</time>
      </trkpt>
      <trkpt lat="42.272025" lon="1.005452">
        <ele>924.0</ele>
        <time>2015-08-29T11:49:16Z</time>
      </trkpt>
      <trkpt lat="42.272047" lon="1.005403">
        <ele>923.0</ele>
        <time>2015-08-29T11:49:17Z</time>
      </trkpt>
      <trkpt lat="42.272065" lon="1.005350">
        <ele>921.0</ele>
        <time>2015-08-29T11:49:18Z</time>
      </trkpt>
      <trkpt lat="42.272070" lon="1.005283">
        <ele>919.0</ele>
        <time>2015-08-29T11:49:19Z</time>
      </trkpt>
      <trkpt lat="42.272067" lon="1.005212">
        <ele>917.0</ele>
        <time>2015-08-29T11:49:20Z</time>
      </trkpt>
      <trkpt lat="42.272053" lon="1.005143">
        <ele>916.0</ele>
        <time>2015-08-29T11:49:21Z</time>
      </trkpt>
      <trkpt lat="42.272035" lon="1.005085">
        <ele>914.0</ele>
        <time>2015-08-29T11:49:22Z</time>
      </trkpt>
      <trkpt lat="42.272025" lon="1.005032">
        <ele>912.0</ele>
        <time>2015-08-29T11:49:23Z</time>
      </trkpt>
      <trkpt lat="42.272020" lon="1.004972">
        <ele>910.0</ele>
        <time>2015-08-29T11:49:24Z</time>
      </trkpt>
      <trkpt lat="42.272018" lon="1.004908">
        <ele>909.0</ele>
        <time>2015-08-29T11:49:25Z</time>
      </trkpt>
      <trkpt lat="42.272003" lon="1.004840">
        <ele>906.0</ele>
        <time>2015-08-29T11:49:26Z</time>
      </trkpt>
      <trkpt lat="42.271988" lon="1.004765">
        <ele>903.0</ele>
        <time>2015-08-29T11:49:27Z</time>
      </trkpt>
      <trkpt lat="42.271982" lon="1.004692">
        <ele>901.0</ele>
        <time>2015-08-29T11:49:28Z</time>
      </trkpt>
      <trkpt lat="42.271978" lon="1.004633">
        <ele>901.0</ele>
        <time>2015-08-29T11:49:29Z</time>
      </trkpt>
      <trkpt lat="42.271925" lon="1.004592">
        <ele>895.0</ele>
        <time>2015-08-29T11:49:32Z</time>
      </trkpt>
      <trkpt lat="42.271887" lon="1.004560">
        <ele>893.0</ele>
        <time>2015-08-29T11:49:33Z</time>
      </trkpt>
      <trkpt lat="42.271833" lon="1.004503">
        <ele>891.0</ele>
        <time>2015-08-29T11:49:34Z</time>
      </trkpt>
      <trkpt lat="42.271782" lon="1.004442">
        <ele>890.0</ele>
        <time>2015-08-29T11:49:35Z</time>
      </trkpt>
      <trkpt lat="42.271738" lon="1.004395">
        <ele>888.0</ele>
        <time>2015-08-29T11:49:36Z</time>
      </trkpt>
      <trkpt lat="42.271700" lon="1.004353">
        <ele>887.0</ele>
        <time>2015-08-29T11:49:37Z</time>
      </trkpt>
      <trkpt lat="42.271667" lon="1.004302">
        <ele>886.0</ele>
        <time>2015-08-29T11:49:38Z</time>
      </trkpt>
      <trkpt lat="42.271632" lon="1.004237">
        <ele>884.0</ele>
        <time>2015-08-29T11:49:39Z</time>
      </trkpt>
      <trkpt lat="42.271595" lon="1.004160">
        <ele>883.0</ele>
        <time>2015-08-29T11:49:40Z</time>
      </trkpt>
      <trkpt lat="42.271572" lon="1.004093">
        <ele>882.0</ele>
        <time>2015-08-29T11:49:41Z</time>
      </trkpt>
      <trkpt lat="42.271557" lon="1.004038">
        <ele>882.0</ele>
        <time>2015-08-29T11:49:42Z</time>
      </trkpt>
      <trkpt lat="42.271520" lon="1.004002">
        <ele>881.0</ele>
        <time>2015-08-29T11:49:43Z</time>
      </trkpt>
      <trkpt lat="42.271478" lon="1.003968">
        <ele>880.0</ele>
        <time>2015-08-29T11:49:44Z</time>
      </trkpt>
      <trkpt lat="42.271440" lon="1.003933">
        <ele>879.0</ele>
        <time>2015-08-29T11:49:45Z</time>
      </trkpt>
      <trkpt lat="42.271415" lon="1.003893">
        <ele>878.0</ele>
        <time>2015-08-29T11:49:46Z</time>
      </trkpt>
      <trkpt lat="42.271385" lon="1.003847">
        <ele>878.0</ele>
        <time>2015-08-29T11:49:47Z</time>
      </trkpt>
      <trkpt lat="42.271343" lon="1.003805">
        <ele>877.0</ele>
        <time>2015-08-29T11:49:48Z</time>
      </trkpt>
      <trkpt lat="42.271313" lon="1.003768">
        <ele>877.0</ele>
        <time>2015-08-29T11:49:49Z</time>
      </trkpt>
      <trkpt lat="42.271278" lon="1.003743">
        <ele>877.0</ele>
        <time>2015-08-29T11:49:50Z</time>
      </trkpt>
      <trkpt lat="42.271218" lon="1.003683">
        <ele>875.0</ele>
        <time>2015-08-29T11:49:52Z</time>
      </trkpt>
      <trkpt lat="42.271183" lon="1.003633">
        <ele>874.0</ele>
        <time>2015-08-29T11:49:53Z</time>
      </trkpt>
      <trkpt lat="42.271148" lon="1.003577">
        <ele>873.0</ele>
        <time>2015-08-29T11:49:54Z</time>
      </trkpt>
      <trkpt lat="42.271105" lon="1.003522">
        <ele>873.0</ele>
        <time>2015-08-29T11:49:55Z</time>
      </trkpt>
      <trkpt lat="42.271075" lon="1.003470">
        <ele>872.0</ele>
        <time>2015-08-29T11:49:56Z</time>
      </trkpt>
      <trkpt lat="42.271060" lon="1.003413">
        <ele>872.0</ele>
        <time>2015-08-29T11:49:57Z</time>
      </trkpt>
      <trkpt lat="42.271047" lon="1.003358">
        <ele>872.0</ele>
        <time>2015-08-29T11:49:58Z</time>
      </trkpt>
      <trkpt lat="42.271030" lon="1.003298">
        <ele>873.0</ele>
        <time>2015-08-29T11:49:59Z</time>
      </trkpt>
      <trkpt lat="42.271003" lon="1.003243">
        <ele>871.0</ele>
        <time>2015-08-29T11:50:00Z</time>
      </trkpt>
      <trkpt lat="42.270995" lon="1.003195">
        <ele>869.0</ele>
        <time>2015-08-29T11:50:01Z</time>
      </trkpt>
      <trkpt lat="42.271008" lon="1.003100">
        <ele>868.0</ele>
        <time>2015-08-29T11:50:03Z</time>
      </trkpt>
      <trkpt lat="42.271005" lon="1.003002">
        <ele>867.0</ele>
        <time>2015-08-29T11:50:05Z</time>
      </trkpt>
      <trkpt lat="42.270987" lon="1.002948">
        <ele>866.0</ele>
        <time>2015-08-29T11:50:06Z</time>
      </trkpt>
      <trkpt lat="42.270968" lon="1.002892">
        <ele>865.0</ele>
        <time>2015-08-29T11:50:07Z</time>
      </trkpt>
      <trkpt lat="42.270957" lon="1.002835">
        <ele>865.0</ele>
        <time>2015-08-29T11:50:08Z</time>
      </trkpt>
      <trkpt lat="42.270950" lon="1.002765">
        <ele>863.0</ele>
        <time>2015-08-29T11:50:09Z</time>
      </trkpt>
      <trkpt lat="42.270942" lon="1.002717">
        <ele>866.0</ele>
        <time>2015-08-29T11:50:10Z</time>
      </trkpt>
      <trkpt lat="42.270902" lon="1.002672">
        <ele>868.0</ele>
        <time>2015-08-29T11:50:12Z</time>
      </trkpt>
      <trkpt lat="42.270873" lon="1.002622">
        <ele>866.0</ele>
        <time>2015-08-29T11:50:14Z</time>
      </trkpt>
      <trkpt lat="42.270855" lon="1.002577">
        <ele>865.0</ele>
        <time>2015-08-29T11:50:15Z</time>
      </trkpt>
      <trkpt lat="42.270832" lon="1.002528">
        <ele>864.0</ele>
        <time>2015-08-29T11:50:16Z</time>
      </trkpt>
      <trkpt lat="42.270805" lon="1.002485">
        <ele>863.0</ele>
        <time>2015-08-29T11:50:17Z</time>
      </trkpt>
      <trkpt lat="42.270777" lon="1.002448">
        <ele>862.0</ele>
        <time>2015-08-29T11:50:18Z</time>
      </trkpt>
      <trkpt lat="42.270745" lon="1.002413">
        <ele>862.0</ele>
        <time>2015-08-29T11:50:19Z</time>
      </trkpt>
      <trkpt lat="42.270708" lon="1.002383">
        <ele>863.0</ele>
        <time>2015-08-29T11:50:20Z</time>
      </trkpt>
      <trkpt lat="42.270668" lon="1.002370">
        <ele>863.0</ele>
        <time>2015-08-29T11:50:21Z</time>
      </trkpt>
      <trkpt lat="42.270597" lon="1.002380">
        <ele>865.0</ele>
        <time>2015-08-29T11:50:23Z</time>
      </trkpt>
      <trkpt lat="42.270552" lon="1.002383">
        <ele>866.0</ele>
        <time>2015-08-29T11:50:24Z</time>
      </trkpt>
      <trkpt lat="42.270505" lon="1.002378">
        <ele>866.0</ele>
        <time>2015-08-29T11:50:25Z</time>
      </trkpt>
      <trkpt lat="42.270472" lon="1.002350">
        <ele>866.0</ele>
        <time>2015-08-29T11:50:26Z</time>
      </trkpt>
      <trkpt lat="42.270445" lon="1.002312">
        <ele>869.0</ele>
        <time>2015-08-29T11:50:28Z</time>
      </trkpt>
      <trkpt lat="42.270388" lon="1.002290">
        <ele>866.0</ele>
        <time>2015-08-29T11:50:30Z</time>
      </trkpt>
      <trkpt lat="42.270347" lon="1.002222">
        <ele>865.0</ele>
        <time>2015-08-29T11:50:32Z</time>
      </trkpt>
      <trkpt lat="42.270333" lon="1.002138">
        <ele>863.0</ele>
        <time>2015-08-29T11:50:34Z</time>
      </trkpt>
      <trkpt lat="42.270360" lon="1.002053">
        <ele>861.0</ele>
        <time>2015-08-29T11:50:36Z</time>
      </trkpt>
      <trkpt lat="42.270377" lon="1.001993">
        <ele>859.0</ele>
        <time>2015-08-29T11:50:37Z</time>
      </trkpt>
      <trkpt lat="42.270395" lon="1.001928">
        <ele>858.0</ele>
        <time>2015-08-29T11:50:38Z</time>
      </trkpt>
      <trkpt lat="42.270417" lon="1.001860">
        <ele>856.0</ele>
        <time>2015-08-29T11:50:39Z</time>
      </trkpt>
      <trkpt lat="42.270438" lon="1.001783">
        <ele>855.0</ele>
        <time>2015-08-29T11:50:40Z</time>
      </trkpt>
      <trkpt lat="42.270458" lon="1.001695">
        <ele>854.0</ele>
        <time>2015-08-29T11:50:41Z</time>
      </trkpt>
      <trkpt lat="42.270473" lon="1.001602">
        <ele>854.0</ele>
        <time>2015-08-29T11:50:42Z</time>
      </trkpt>
      <trkpt lat="42.270495" lon="1.001527">
        <ele>852.0</ele>
        <time>2015-08-29T11:50:43Z</time>
      </trkpt>
      <trkpt lat="42.270537" lon="1.001495">
        <ele>853.0</ele>
        <time>2015-08-29T11:50:44Z</time>
      </trkpt>
      <trkpt lat="42.270577" lon="1.001477">
        <ele>853.0</ele>
        <time>2015-08-29T11:50:45Z</time>
      </trkpt>
      <trkpt lat="42.270618" lon="1.001440">
        <ele>850.0</ele>
        <time>2015-08-29T11:50:47Z</time>
      </trkpt>
      <trkpt lat="42.270628" lon="1.001385">
        <ele>848.0</ele>
        <time>2015-08-29T11:50:48Z</time>
      </trkpt>
      <trkpt lat="42.270637" lon="1.001302">
        <ele>846.0</ele>
        <time>2015-08-29T11:50:49Z</time>
      </trkpt>
      <trkpt lat="42.270630" lon="1.001232">
        <ele>844.0</ele>
        <time>2015-08-29T11:50:50Z</time>
      </trkpt>
      <trkpt lat="42.270580" lon="1.001177">
        <ele>844.0</ele>
        <time>2015-08-29T11:50:52Z</time>
      </trkpt>
      <trkpt lat="42.270540" lon="1.001162">
        <ele>843.0</ele>
        <time>2015-08-29T11:50:53Z</time>
      </trkpt>
      <trkpt lat="42.270497" lon="1.001120">
        <ele>842.0</ele>
        <time>2015-08-29T11:50:54Z</time>
      </trkpt>
      <trkpt lat="42.270460" lon="1.001055">
        <ele>840.0</ele>
        <time>2015-08-29T11:50:55Z</time>
      </trkpt>
      <trkpt lat="42.270428" lon="1.000983">
        <ele>838.0</ele>
        <time>2015-08-29T11:50:56Z</time>
      </trkpt>
      <trkpt lat="42.270402" lon="1.000925">
        <ele>837.0</ele>
        <time>2015-08-29T11:50:57Z</time>
      </trkpt>
      <trkpt lat="42.270373" lon="1.000893">
        <ele>836.0</ele>
        <time>2015-08-29T11:50:58Z</time>
      </trkpt>
      <trkpt lat="42.270307" lon="1.000848">
        <ele>834.0</ele>
        <time>2015-08-29T11:51:00Z</time>
      </trkpt>
      <trkpt lat="42.270282" lon="1.000803">
        <ele>834.0</ele>
        <time>2015-08-29T11:51:01Z</time>
      </trkpt>
      <trkpt lat="42.270268" lon="1.000735">
        <ele>832.0</ele>
        <time>2015-08-29T11:51:02Z</time>
      </trkpt>
      <trkpt lat="42.270250" lon="1.000663">
        <ele>829.0</ele>
        <time>2015-08-29T11:51:03Z</time>
      </trkpt>
      <trkpt lat="42.270228" lon="1.000612">
        <ele>827.0</ele>
        <time>2015-08-29T11:51:04Z</time>
      </trkpt>
      <trkpt lat="42.270198" lon="1.000545">
        <ele>822.0</ele>
        <time>2015-08-29T11:51:06Z</time>
      </trkpt>
      <trkpt lat="42.270168" lon="1.000458">
        <ele>818.0</ele>
        <time>2015-08-29T11:51:08Z</time>
      </trkpt>
      <trkpt lat="42.270165" lon="1.000368">
        <ele>816.0</ele>
        <time>2015-08-29T11:51:09Z</time>
      </trkpt>
      <trkpt lat="42.270167" lon="1.000307">
        <ele>814.0</ele>
        <time>2015-08-29T11:51:10Z</time>
      </trkpt>
      <trkpt lat="42.270185" lon="1.000245">
        <ele>818.0</ele>
        <time>2015-08-29T11:51:11Z</time>
      </trkpt>
      <trkpt lat="42.270202" lon="1.000193">
        <ele>818.0</ele>
        <time>2015-08-29T11:51:12Z</time>
      </trkpt>
      <trkpt lat="42.270197" lon="1.000140">
        <ele>817.0</ele>
        <time>2015-08-29T11:51:13Z</time>
      </trkpt>
      <trkpt lat="42.270180" lon="1.000085">
        <ele>816.0</ele>
        <time>2015-08-29T11:51:14Z</time>
      </trkpt>
      <trkpt lat="42.270163" lon="1.000033">
        <ele>815.0</ele>
        <time>2015-08-29T11:51:15Z</time>
      </trkpt>
      <trkpt lat="42.270160" lon="0.999945">
        <ele>813.0</ele>
        <time>2015-08-29T11:51:17Z</time>
      </trkpt>
      <trkpt lat="42.270190" lon="0.999850">
        <ele>812.0</ele>
        <time>2015-08-29T11:51:19Z</time>
      </trkpt>
      <trkpt lat="42.270205" lon="0.999793">
        <ele>811.0</ele>
        <time>2015-08-29T11:51:20Z</time>
      </trkpt>
      <trkpt lat="42.270225" lon="0.999733">
        <ele>810.0</ele>
        <time>2015-08-29T11:51:21Z</time>
      </trkpt>
      <trkpt lat="42.270257" lon="0.999675">
        <ele>809.0</ele>
        <time>2015-08-29T11:51:22Z</time>
      </trkpt>
      <trkpt lat="42.270300" lon="0.999618">
        <ele>809.0</ele>
        <time>2015-08-29T11:51:23Z</time>
      </trkpt>
      <trkpt lat="42.270353" lon="0.999568">
        <ele>808.0</ele>
        <time>2015-08-29T11:51:24Z</time>
      </trkpt>
      <trkpt lat="42.270410" lon="0.999523">
        <ele>808.0</ele>
        <time>2015-08-29T11:51:25Z</time>
      </trkpt>
      <trkpt lat="42.270462" lon="0.999480">
        <ele>807.0</ele>
        <time>2015-08-29T11:51:26Z</time>
      </trkpt>
      <trkpt lat="42.270505" lon="0.999437">
        <ele>805.0</ele>
        <time>2015-08-29T11:51:27Z</time>
      </trkpt>
      <trkpt lat="42.270533" lon="0.999393">
        <ele>805.0</ele>
        <time>2015-08-29T11:51:28Z</time>
      </trkpt>
      <trkpt lat="42.270555" lon="0.999338">
        <ele>807.0</ele>
        <time>2015-08-29T11:51:29Z</time>
      </trkpt>
      <trkpt lat="42.270567" lon="0.999283">
        <ele>804.0</ele>
        <time>2015-08-29T11:51:30Z</time>
      </trkpt>
      <trkpt lat="42.270573" lon="0.999227">
        <ele>803.0</ele>
        <time>2015-08-29T11:51:31Z</time>
      </trkpt>
      <trkpt lat="42.270558" lon="0.999168">
        <ele>801.0</ele>
        <time>2015-08-29T11:51:32Z</time>
      </trkpt>
      <trkpt lat="42.270533" lon="0.999110">
        <ele>799.0</ele>
        <time>2015-08-29T11:51:33Z</time>
      </trkpt>
      <trkpt lat="42.270503" lon="0.999053">
        <ele>798.0</ele>
        <time>2015-08-29T11:51:34Z</time>
      </trkpt>
      <trkpt lat="42.270472" lon="0.999003">
        <ele>796.0</ele>
        <time>2015-08-29T11:51:35Z</time>
      </trkpt>
      <trkpt lat="42.270442" lon="0.998968">
        <ele>795.0</ele>
        <time>2015-08-29T11:51:36Z</time>
      </trkpt>
      <trkpt lat="42.270370" lon="0.998930">
        <ele>792.0</ele>
        <time>2015-08-29T11:51:38Z</time>
      </trkpt>
      <trkpt lat="42.270317" lon="0.998887">
        <ele>790.0</ele>
        <time>2015-08-29T11:51:39Z</time>
      </trkpt>
      <trkpt lat="42.270258" lon="0.998828">
        <ele>789.0</ele>
        <time>2015-08-29T11:51:40Z</time>
      </trkpt>
      <trkpt lat="42.270195" lon="0.998770">
        <ele>787.0</ele>
        <time>2015-08-29T11:51:41Z</time>
      </trkpt>
      <trkpt lat="42.270143" lon="0.998725">
        <ele>786.0</ele>
        <time>2015-08-29T11:51:42Z</time>
      </trkpt>
      <trkpt lat="42.270095" lon="0.998692">
        <ele>785.0</ele>
        <time>2015-08-29T11:51:43Z</time>
      </trkpt>
      <trkpt lat="42.270030" lon="0.998665">
        <ele>783.0</ele>
        <time>2015-08-29T11:51:44Z</time>
      </trkpt>
      <trkpt lat="42.269982" lon="0.998623">
        <ele>783.0</ele>
        <time>2015-08-29T11:51:45Z</time>
      </trkpt>
      <trkpt lat="42.269930" lon="0.998575">
        <ele>782.0</ele>
        <time>2015-08-29T11:51:46Z</time>
      </trkpt>
      <trkpt lat="42.269862" lon="0.998530">
        <ele>779.0</ele>
        <time>2015-08-29T11:51:47Z</time>
      </trkpt>
      <trkpt lat="42.269803" lon="0.998488">
        <ele>776.0</ele>
        <time>2015-08-29T11:51:48Z</time>
      </trkpt>
      <trkpt lat="42.269755" lon="0.998438">
        <ele>776.0</ele>
        <time>2015-08-29T11:51:49Z</time>
      </trkpt>
      <trkpt lat="42.269702" lon="0.998392">
        <ele>774.0</ele>
        <time>2015-08-29T11:51:50Z</time>
      </trkpt>
      <trkpt lat="42.269637" lon="0.998342">
        <ele>771.0</ele>
        <time>2015-08-29T11:51:51Z</time>
      </trkpt>
      <trkpt lat="42.269565" lon="0.998282">
        <ele>771.0</ele>
        <time>2015-08-29T11:51:52Z</time>
      </trkpt>
      <trkpt lat="42.269503" lon="0.998232">
        <ele>770.0</ele>
        <time>2015-08-29T11:51:53Z</time>
      </trkpt>
      <trkpt lat="42.269450" lon="0.998203">
        <ele>770.0</ele>
        <time>2015-08-29T11:51:54Z</time>
      </trkpt>
      <trkpt lat="42.269390" lon="0.998195">
        <ele>769.0</ele>
        <time>2015-08-29T11:51:55Z</time>
      </trkpt>
      <trkpt lat="42.269335" lon="0.998193">
        <ele>769.0</ele>
        <time>2015-08-29T11:51:56Z</time>
      </trkpt>
      <trkpt lat="42.269277" lon="0.998188">
        <ele>768.0</ele>
        <time>2015-08-29T11:51:57Z</time>
      </trkpt>
      <trkpt lat="42.269208" lon="0.998172">
        <ele>767.0</ele>
        <time>2015-08-29T11:51:58Z</time>
      </trkpt>
      <trkpt lat="42.269137" lon="0.998147">
        <ele>766.0</ele>
        <time>2015-08-29T11:51:59Z</time>
      </trkpt>
      <trkpt lat="42.269065" lon="0.998130">
        <ele>766.0</ele>
        <time>2015-08-29T11:52:00Z</time>
      </trkpt>
      <trkpt lat="42.268982" lon="0.998130">
        <ele>766.0</ele>
        <time>2015-08-29T11:52:01Z</time>
      </trkpt>
      <trkpt lat="42.268907" lon="0.998143">
        <ele>766.0</ele>
        <time>2015-08-29T11:52:02Z</time>
      </trkpt>
      <trkpt lat="42.268838" lon="0.998158">
        <ele>766.0</ele>
        <time>2015-08-29T11:52:03Z</time>
      </trkpt>
      <trkpt lat="42.268755" lon="0.998198">
        <ele>765.0</ele>
        <time>2015-08-29T11:52:04Z</time>
      </trkpt>
      <trkpt lat="42.268670" lon="0.998227">
        <ele>764.0</ele>
        <time>2015-08-29T11:52:05Z</time>
      </trkpt>
      <trkpt lat="42.268595" lon="0.998252">
        <ele>764.0</ele>
        <time>2015-08-29T11:52:06Z</time>
      </trkpt>
      <trkpt lat="42.268528" lon="0.998277">
        <ele>762.0</ele>
        <time>2015-08-29T11:52:07Z</time>
      </trkpt>
      <trkpt lat="42.268467" lon="0.998292">
        <ele>761.0</ele>
        <time>2015-08-29T11:52:08Z</time>
      </trkpt>
      <trkpt lat="42.268402" lon="0.998295">
        <ele>761.0</ele>
        <time>2015-08-29T11:52:09Z</time>
      </trkpt>
      <trkpt lat="42.268332" lon="0.998268">
        <ele>759.0</ele>
        <time>2015-08-29T11:52:10Z</time>
      </trkpt>
      <trkpt lat="42.268273" lon="0.998223">
        <ele>758.0</ele>
        <time>2015-08-29T11:52:11Z</time>
      </trkpt>
      <trkpt lat="42.268233" lon="0.998167">
        <ele>758.0</ele>
        <time>2015-08-29T11:52:12Z</time>
      </trkpt>
      <trkpt lat="42.268207" lon="0.998112">
        <ele>758.0</ele>
        <time>2015-08-29T11:52:13Z</time>
      </trkpt>
      <trkpt lat="42.268183" lon="0.998060">
        <ele>758.0</ele>
        <time>2015-08-29T11:52:14Z</time>
      </trkpt>
      <trkpt lat="42.268140" lon="0.998008">
        <ele>757.0</ele>
        <time>2015-08-29T11:52:15Z</time>
      </trkpt>
      <trkpt lat="42.268108" lon="0.997950">
        <ele>756.0</ele>
        <time>2015-08-29T11:52:16Z</time>
      </trkpt>
      <trkpt lat="42.268073" lon="0.997895">
        <ele>755.0</ele>
        <time>2015-08-29T11:52:17Z</time>
      </trkpt>
      <trkpt lat="42.268048" lon="0.997845">
        <ele>754.0</ele>
        <time>2015-08-29T11:52:18Z</time>
      </trkpt>
      <trkpt lat="42.267982" lon="0.997788">
        <ele>753.0</ele>
        <time>2015-08-29T11:52:20Z</time>
      </trkpt>
      <trkpt lat="42.267933" lon="0.997775">
        <ele>752.0</ele>
        <time>2015-08-29T11:52:21Z</time>
      </trkpt>
      <trkpt lat="42.267880" lon="0.997760">
        <ele>751.0</ele>
        <time>2015-08-29T11:52:22Z</time>
      </trkpt>
      <trkpt lat="42.267817" lon="0.997738">
        <ele>750.0</ele>
        <time>2015-08-29T11:52:23Z</time>
      </trkpt>
      <trkpt lat="42.267752" lon="0.997713">
        <ele>749.0</ele>
        <time>2015-08-29T11:52:24Z</time>
      </trkpt>
      <trkpt lat="42.267685" lon="0.997683">
        <ele>747.0</ele>
        <time>2015-08-29T11:52:25Z</time>
      </trkpt>
      <trkpt lat="42.267622" lon="0.997645">
        <ele>746.0</ele>
        <time>2015-08-29T11:52:26Z</time>
      </trkpt>
      <trkpt lat="42.267562" lon="0.997602">
        <ele>745.0</ele>
        <time>2015-08-29T11:52:27Z</time>
      </trkpt>
      <trkpt lat="42.267500" lon="0.997568">
        <ele>743.0</ele>
        <time>2015-08-29T11:52:28Z</time>
      </trkpt>
      <trkpt lat="42.267440" lon="0.997532">
        <ele>743.0</ele>
        <time>2015-08-29T11:52:29Z</time>
      </trkpt>
      <trkpt lat="42.267380" lon="0.997493">
        <ele>743.0</ele>
        <time>2015-08-29T11:52:30Z</time>
      </trkpt>
      <trkpt lat="42.267315" lon="0.997450">
        <ele>740.0</ele>
        <time>2015-08-29T11:52:31Z</time>
      </trkpt>
      <trkpt lat="42.267252" lon="0.997397">
        <ele>737.0</ele>
        <time>2015-08-29T11:52:32Z</time>
      </trkpt>
      <trkpt lat="42.267202" lon="0.997340">
        <ele>735.0</ele>
        <time>2015-08-29T11:52:33Z</time>
      </trkpt>
      <trkpt lat="42.267153" lon="0.997285">
        <ele>734.0</ele>
        <time>2015-08-29T11:52:34Z</time>
      </trkpt>
      <trkpt lat="42.267097" lon="0.997243">
        <ele>732.0</ele>
        <time>2015-08-29T11:52:35Z</time>
      </trkpt>
      <trkpt lat="42.267055" lon="0.997207">
        <ele>732.0</ele>
        <time>2015-08-29T11:52:36Z</time>
      </trkpt>
      <trkpt lat="42.267017" lon="0.997165">
        <ele>731.0</ele>
        <time>2015-08-29T11:52:37Z</time>
      </trkpt>
      <trkpt lat="42.266983" lon="0.997125">
        <ele>731.0</ele>
        <time>2015-08-29T11:52:38Z</time>
      </trkpt>
      <trkpt lat="42.266922" lon="0.997088">
        <ele>729.0</ele>
        <time>2015-08-29T11:52:40Z</time>
      </trkpt>
      <trkpt lat="42.266880" lon="0.997097">
        <ele>727.0</ele>
        <time>2015-08-29T11:52:41Z</time>
      </trkpt>
      <trkpt lat="42.266832" lon="0.997112">
        <ele>725.0</ele>
        <time>2015-08-29T11:52:42Z</time>
      </trkpt>
      <trkpt lat="42.266778" lon="0.997120">
        <ele>724.0</ele>
        <time>2015-08-29T11:52:43Z</time>
      </trkpt>
      <trkpt lat="42.266715" lon="0.997113">
        <ele>722.0</ele>
        <time>2015-08-29T11:52:44Z</time>
      </trkpt>
      <trkpt lat="42.266653" lon="0.997090">
        <ele>720.0</ele>
        <time>2015-08-29T11:52:45Z</time>
      </trkpt>
      <trkpt lat="42.266602" lon="0.997060">
        <ele>720.0</ele>
        <time>2015-08-29T11:52:46Z</time>
      </trkpt>
      <trkpt lat="42.266560" lon="0.997035">
        <ele>721.0</ele>
        <time>2015-08-29T11:52:47Z</time>
      </trkpt>
      <trkpt lat="42.266523" lon="0.997022">
        <ele>718.0</ele>
        <time>2015-08-29T11:52:48Z</time>
      </trkpt>
      <trkpt lat="42.266483" lon="0.996947">
        <ele>719.0</ele>
        <time>2015-08-29T11:52:50Z</time>
      </trkpt>
      <trkpt lat="42.266453" lon="0.996890">
        <ele>718.0</ele>
        <time>2015-08-29T11:52:51Z</time>
      </trkpt>
      <trkpt lat="42.266405" lon="0.996833">
        <ele>717.0</ele>
        <time>2015-08-29T11:52:52Z</time>
      </trkpt>
      <trkpt lat="42.266367" lon="0.996785">
        <ele>716.0</ele>
        <time>2015-08-29T11:52:53Z</time>
      </trkpt>
      <trkpt lat="42.266327" lon="0.996743">
        <ele>715.0</ele>
        <time>2015-08-29T11:52:54Z</time>
      </trkpt>
      <trkpt lat="42.266273" lon="0.996703">
        <ele>714.0</ele>
        <time>2015-08-29T11:52:56Z</time>
      </trkpt>
      <trkpt lat="42.266215" lon="0.996645">
        <ele>710.0</ele>
        <time>2015-08-29T11:52:58Z</time>
      </trkpt>
      <trkpt lat="42.266173" lon="0.996592">
        <ele>708.0</ele>
        <time>2015-08-29T11:52:59Z</time>
      </trkpt>
      <trkpt lat="42.266137" lon="0.996533">
        <ele>707.0</ele>
        <time>2015-08-29T11:53:00Z</time>
      </trkpt>
      <trkpt lat="42.266103" lon="0.996480">
        <ele>706.0</ele>
        <time>2015-08-29T11:53:01Z</time>
      </trkpt>
      <trkpt lat="42.266075" lon="0.996430">
        <ele>705.0</ele>
        <time>2015-08-29T11:53:02Z</time>
      </trkpt>
      <trkpt lat="42.266062" lon="0.996382">
        <ele>705.0</ele>
        <time>2015-08-29T11:53:03Z</time>
      </trkpt>
      <trkpt lat="42.266050" lon="0.996327">
        <ele>706.0</ele>
        <time>2015-08-29T11:53:04Z</time>
      </trkpt>
      <trkpt lat="42.266018" lon="0.996272">
        <ele>704.0</ele>
        <time>2015-08-29T11:53:05Z</time>
      </trkpt>
      <trkpt lat="42.265988" lon="0.996205">
        <ele>702.0</ele>
        <time>2015-08-29T11:53:06Z</time>
      </trkpt>
      <trkpt lat="42.265962" lon="0.996138">
        <ele>700.0</ele>
        <time>2015-08-29T11:53:07Z</time>
      </trkpt>
      <trkpt lat="42.265945" lon="0.996077">
        <ele>699.0</ele>
        <time>2015-08-29T11:53:08Z</time>
      </trkpt>
      <trkpt lat="42.265933" lon="0.996030">
        <ele>698.0</ele>
        <time>2015-08-29T11:53:09Z</time>
      </trkpt>
      <trkpt lat="42.265925" lon="0.995968">
        <ele>695.0</ele>
        <time>2015-08-29T11:53:11Z</time>
      </trkpt>
      <trkpt lat="42.265915" lon="0.995922">
        <ele>693.0</ele>
        <time>2015-08-29T11:53:12Z</time>
      </trkpt>
      <trkpt lat="42.265902" lon="0.995863">
        <ele>692.0</ele>
        <time>2015-08-29T11:53:13Z</time>
      </trkpt>
      <trkpt lat="42.265890" lon="0.995815">
        <ele>692.0</ele>
        <time>2015-08-29T11:53:14Z</time>
      </trkpt>
      <trkpt lat="42.265852" lon="0.995747">
        <ele>688.0</ele>
        <time>2015-08-29T11:53:16Z</time>
      </trkpt>
      <trkpt lat="42.265815" lon="0.995657">
        <ele>684.0</ele>
        <time>2015-08-29T11:53:18Z</time>
      </trkpt>
      <trkpt lat="42.265790" lon="0.995605">
        <ele>682.0</ele>
        <time>2015-08-29T11:53:19Z</time>
      </trkpt>
      <trkpt lat="42.265785" lon="0.995550">
        <ele>685.0</ele>
        <time>2015-08-29T11:53:20Z</time>
      </trkpt>
      <trkpt lat="42.265760" lon="0.995508">
        <ele>684.0</ele>
        <time>2015-08-29T11:53:21Z</time>
      </trkpt>
      <trkpt lat="42.265732" lon="0.995467">
        <ele>683.0</ele>
        <time>2015-08-29T11:53:22Z</time>
      </trkpt>
      <trkpt lat="42.265712" lon="0.995417">
        <ele>682.0</ele>
        <time>2015-08-29T11:53:23Z</time>
      </trkpt>
      <trkpt lat="42.265698" lon="0.995358">
        <ele>680.0</ele>
        <time>2015-08-29T11:53:24Z</time>
      </trkpt>
      <trkpt lat="42.265687" lon="0.995298">
        <ele>678.0</ele>
        <time>2015-08-29T11:53:25Z</time>
      </trkpt>
      <trkpt lat="42.265672" lon="0.995242">
        <ele>677.0</ele>
        <time>2015-08-29T11:53:26Z</time>
      </trkpt>
      <trkpt lat="42.265652" lon="0.995183">
        <ele>676.0</ele>
        <time>2015-08-29T11:53:27Z</time>
      </trkpt>
      <trkpt lat="42.265632" lon="0.995117">
        <ele>674.0</ele>
        <time>2015-08-29T11:53:28Z</time>
      </trkpt>
      <trkpt lat="42.265622" lon="0.995047">
        <ele>672.0</ele>
        <time>2015-08-29T11:53:29Z</time>
      </trkpt>
      <trkpt lat="42.265620" lon="0.994975">
        <ele>672.0</ele>
        <time>2015-08-29T11:53:30Z</time>
      </trkpt>
      <trkpt lat="42.265618" lon="0.994907">
        <ele>673.0</ele>
        <time>2015-08-29T11:53:31Z</time>
      </trkpt>
      <trkpt lat="42.265600" lon="0.994845">
        <ele>670.0</ele>
        <time>2015-08-29T11:53:32Z</time>
      </trkpt>
      <trkpt lat="42.265578" lon="0.994782">
        <ele>668.0</ele>
        <time>2015-08-29T11:53:33Z</time>
      </trkpt>
      <trkpt lat="42.265550" lon="0.994718">
        <ele>665.0</ele>
        <time>2015-08-29T11:53:34Z</time>
      </trkpt>
      <trkpt lat="42.265527" lon="0.994662">
        <ele>663.0</ele>
        <time>2015-08-29T11:53:35Z</time>
      </trkpt>
      <trkpt lat="42.265507" lon="0.994608">
        <ele>663.0</ele>
        <time>2015-08-29T11:53:36Z</time>
      </trkpt>
      <trkpt lat="42.265445" lon="0.994575">
        <ele>660.0</ele>
        <time>2015-08-29T11:53:37Z</time>
      </trkpt>
      <trkpt lat="42.265405" lon="0.994543">
        <ele>659.0</ele>
        <time>2015-08-29T11:53:38Z</time>
      </trkpt>
      <trkpt lat="42.265367" lon="0.994510">
        <ele>657.0</ele>
        <time>2015-08-29T11:53:39Z</time>
      </trkpt>
      <trkpt lat="42.265332" lon="0.994470">
        <ele>655.0</ele>
        <time>2015-08-29T11:53:40Z</time>
      </trkpt>
      <trkpt lat="42.265300" lon="0.994428">
        <ele>653.0</ele>
        <time>2015-08-29T11:53:41Z</time>
      </trkpt>
      <trkpt lat="42.265272" lon="0.994393">
        <ele>651.0</ele>
        <time>2015-08-29T11:53:42Z</time>
      </trkpt>
      <trkpt lat="42.265218" lon="0.994340">
        <ele>647.0</ele>
        <time>2015-08-29T11:53:44Z</time>
      </trkpt>
      <trkpt lat="42.265187" lon="0.994290">
        <ele>643.0</ele>
        <time>2015-08-29T11:53:46Z</time>
      </trkpt>
      <trkpt lat="42.265152" lon="0.994248">
        <ele>641.0</ele>
        <time>2015-08-29T11:53:48Z</time>
      </trkpt>
      <trkpt lat="42.265097" lon="0.994252">
        <ele>638.0</ele>
        <time>2015-08-29T11:53:49Z</time>
      </trkpt>
      <trkpt lat="42.265032" lon="0.994275">
        <ele>636.0</ele>
        <time>2015-08-29T11:53:50Z</time>
      </trkpt>
      <trkpt lat="42.264970" lon="0.994307">
        <ele>634.0</ele>
        <time>2015-08-29T11:53:51Z</time>
      </trkpt>
      <trkpt lat="42.264918" lon="0.994337">
        <ele>632.0</ele>
        <time>2015-08-29T11:53:52Z</time>
      </trkpt>
      <trkpt lat="42.264878" lon="0.994378">
        <ele>630.0</ele>
        <time>2015-08-29T11:53:53Z</time>
      </trkpt>
      <trkpt lat="42.264807" lon="0.994398">
        <ele>627.0</ele>
        <time>2015-08-29T11:53:55Z</time>
      </trkpt>
      <trkpt lat="42.264763" lon="0.994388">
        <ele>625.0</ele>
        <time>2015-08-29T11:53:56Z</time>
      </trkpt>
      <trkpt lat="42.264705" lon="0.994365">
        <ele>623.0</ele>
        <time>2015-08-29T11:53:57Z</time>
      </trkpt>
      <trkpt lat="42.264655" lon="0.994330">
        <ele>621.0</ele>
        <time>2015-08-29T11:53:58Z</time>
      </trkpt>
      <trkpt lat="42.264608" lon="0.994292">
        <ele>619.0</ele>
        <time>2015-08-29T11:53:59Z</time>
      </trkpt>
      <trkpt lat="42.264567" lon="0.994258">
        <ele>617.0</ele>
        <time>2015-08-29T11:54:00Z</time>
      </trkpt>
      <trkpt lat="42.264503" lon="0.994247">
        <ele>616.0</ele>
        <time>2015-08-29T11:54:01Z</time>
      </trkpt>
      <trkpt lat="42.264433" lon="0.994268">
        <ele>614.0</ele>
        <time>2015-08-29T11:54:02Z</time>
      </trkpt>
      <trkpt lat="42.264360" lon="0.994303">
        <ele>612.0</ele>
        <time>2015-08-29T11:54:03Z</time>
      </trkpt>
      <trkpt lat="42.264297" lon="0.994352">
        <ele>610.0</ele>
        <time>2015-08-29T11:54:04Z</time>
      </trkpt>
      <trkpt lat="42.264245" lon="0.994422">
        <ele>609.0</ele>
        <time>2015-08-29T11:54:05Z</time>
      </trkpt>
      <trkpt lat="42.264198" lon="0.994540">
        <ele>608.0</ele>
        <time>2015-08-29T11:54:06Z</time>
      </trkpt>
      <trkpt lat="42.264150" lon="0.994665">
        <ele>606.0</ele>
        <time>2015-08-29T11:54:07Z</time>
      </trkpt>
      <trkpt lat="42.264107" lon="0.994792">
        <ele>604.0</ele>
        <time>2015-08-29T11:54:08Z</time>
      </trkpt>
      <trkpt lat="42.264068" lon="0.994913">
        <ele>603.0</ele>
        <time>2015-08-29T11:54:09Z</time>
      </trkpt>
      <trkpt lat="42.264030" lon="0.995042">
        <ele>602.0</ele>
        <time>2015-08-29T11:54:10Z</time>
      </trkpt>
      <trkpt lat="42.263997" lon="0.995185">
        <ele>601.0</ele>
        <time>2015-08-29T11:54:11Z</time>
      </trkpt>
      <trkpt lat="42.263970" lon="0.995312">
        <ele>600.0</ele>
        <time>2015-08-29T11:54:12Z</time>
      </trkpt>
      <trkpt lat="42.263957" lon="0.995430">
        <ele>598.0</ele>
        <time>2015-08-29T11:54:13Z</time>
      </trkpt>
      <trkpt lat="42.263932" lon="0.995542">
        <ele>597.0</ele>
        <time>2015-08-29T11:54:14Z</time>
      </trkpt>
      <trkpt lat="42.263895" lon="0.995627">
        <ele>598.0</ele>
        <time>2015-08-29T11:54:15Z</time>
      </trkpt>
      <trkpt lat="42.263873" lon="0.995762">
        <ele>596.0</ele>
        <time>2015-08-29T11:54:16Z</time>
      </trkpt>
      <trkpt lat="42.263863" lon="0.995913">
        <ele>593.0</ele>
        <time>2015-08-29T11:54:17Z</time>
      </trkpt>
      <trkpt lat="42.263857" lon="0.996053">
        <ele>592.0</ele>
        <time>2015-08-29T11:54:18Z</time>
      </trkpt>
      <trkpt lat="42.263848" lon="0.996192">
        <ele>591.0</ele>
        <time>2015-08-29T11:54:19Z</time>
      </trkpt>
      <trkpt lat="42.263837" lon="0.996327">
        <ele>590.0</ele>
        <time>2015-08-29T11:54:20Z</time>
      </trkpt>
      <trkpt lat="42.263825" lon="0.996460">
        <ele>588.0</ele>
        <time>2015-08-29T11:54:21Z</time>
      </trkpt>
      <trkpt lat="42.263817" lon="0.996595">
        <ele>587.0</ele>
        <time>2015-08-29T11:54:22Z</time>
      </trkpt>
      <trkpt lat="42.263808" lon="0.996737">
        <ele>586.0</ele>
        <time>2015-08-29T11:54:23Z</time>
      </trkpt>
      <trkpt lat="42.263808" lon="0.996892">
        <ele>584.0</ele>
        <time>2015-08-29T11:54:24Z</time>
      </trkpt>
      <trkpt lat="42.263810" lon="0.997032">
        <ele>583.0</ele>
        <time>2015-08-29T11:54:25Z</time>
      </trkpt>
      <trkpt lat="42.263817" lon="0.997165">
        <ele>581.0</ele>
        <time>2015-08-29T11:54:26Z</time>
      </trkpt>
      <trkpt lat="42.263825" lon="0.997303">
        <ele>579.0</ele>
        <time>2015-08-29T11:54:27Z</time>
      </trkpt>
      <trkpt lat="42.263828" lon="0.997447">
        <ele>578.0</ele>
        <time>2015-08-29T11:54:28Z</time>
      </trkpt>
      <trkpt lat="42.263825" lon="0.997593">
        <ele>577.0</ele>
        <time>2015-08-29T11:54:29Z</time>
      </trkpt>
      <trkpt lat="42.263818" lon="0.997748">
        <ele>574.0</ele>
        <time>2015-08-29T11:54:30Z</time>
      </trkpt>
      <trkpt lat="42.263795" lon="0.997870">
        <ele>574.0</ele>
        <time>2015-08-29T11:54:31Z</time>
      </trkpt>
      <trkpt lat="42.263760" lon="0.997962">
        <ele>575.0</ele>
        <time>2015-08-29T11:54:32Z</time>
      </trkpt>
      <trkpt lat="42.263717" lon="0.998098">
        <ele>573.0</ele>
        <time>2015-08-29T11:54:33Z</time>
      </trkpt>
      <trkpt lat="42.263667" lon="0.998238">
        <ele>570.0</ele>
        <time>2015-08-29T11:54:34Z</time>
      </trkpt>
      <trkpt lat="42.263613" lon="0.998358">
        <ele>568.0</ele>
        <time>2015-08-29T11:54:35Z</time>
      </trkpt>
      <trkpt lat="42.263562" lon="0.998460">
        <ele>566.0</ele>
        <time>2015-08-29T11:54:36Z</time>
      </trkpt>
      <trkpt lat="42.263530" lon="0.998590">
        <ele>564.0</ele>
        <time>2015-08-29T11:54:37Z</time>
      </trkpt>
      <trkpt lat="42.263510" lon="0.998732">
        <ele>563.0</ele>
        <time>2015-08-29T11:54:38Z</time>
      </trkpt>
      <trkpt lat="42.263505" lon="0.998897">
        <ele>560.0</ele>
        <time>2015-08-29T11:54:39Z</time>
      </trkpt>
      <trkpt lat="42.263507" lon="0.999057">
        <ele>558.0</ele>
        <time>2015-08-29T11:54:40Z</time>
      </trkpt>
      <trkpt lat="42.263515" lon="0.999212">
        <ele>557.0</ele>
        <time>2015-08-29T11:54:41Z</time>
      </trkpt>
      <trkpt lat="42.263530" lon="0.999352">
        <ele>555.0</ele>
        <time>2015-08-29T11:54:42Z</time>
      </trkpt>
      <trkpt lat="42.263547" lon="0.999490">
        <ele>553.0</ele>
        <time>2015-08-29T11:54:43Z</time>
      </trkpt>
      <trkpt lat="42.263563" lon="0.999640">
        <ele>551.0</ele>
        <time>2015-08-29T11:54:44Z</time>
      </trkpt>
      <trkpt lat="42.263577" lon="0.999802">
        <ele>550.0</ele>
        <time>2015-08-29T11:54:45Z</time>
      </trkpt>
      <trkpt lat="42.263583" lon="0.999968">
        <ele>548.0</ele>
        <time>2015-08-29T11:54:46Z</time>
      </trkpt>
      <trkpt lat="42.263583" lon="1.000117">
        <ele>547.0</ele>
        <time>2015-08-29T11:54:47Z</time>
      </trkpt>
      <trkpt lat="42.263578" lon="1.000252">
        <ele>547.0</ele>
        <time>2015-08-29T11:54:48Z</time>
      </trkpt>
      <trkpt lat="42.263568" lon="1.000378">
        <ele>548.0</ele>
        <time>2015-08-29T11:54:49Z</time>
      </trkpt>
      <trkpt lat="42.263562" lon="1.000547">
        <ele>545.0</ele>
        <time>2015-08-29T11:54:50Z</time>
      </trkpt>
      <trkpt lat="42.263555" lon="1.000718">
        <ele>543.0</ele>
        <time>2015-08-29T11:54:51Z</time>
      </trkpt>
      <trkpt lat="42.263548" lon="1.000875">
        <ele>542.0</ele>
        <time>2015-08-29T11:54:52Z</time>
      </trkpt>
      <trkpt lat="42.263547" lon="1.001028">
        <ele>540.0</ele>
        <time>2015-08-29T11:54:53Z</time>
      </trkpt>
      <trkpt lat="42.263552" lon="1.001183">
        <ele>538.0</ele>
        <time>2015-08-29T11:54:54Z</time>
      </trkpt>
      <trkpt lat="42.263558" lon="1.001337">
        <ele>537.0</ele>
        <time>2015-08-29T11:54:55Z</time>
      </trkpt>
      <trkpt lat="42.263567" lon="1.001488">
        <ele>537.0</ele>
        <time>2015-08-29T11:54:56Z</time>
      </trkpt>
      <trkpt lat="42.263588" lon="1.001670">
        <ele>534.0</ele>
        <time>2015-08-29T11:54:57Z</time>
      </trkpt>
      <trkpt lat="42.263600" lon="1.001832">
        <ele>534.0</ele>
        <time>2015-08-29T11:54:58Z</time>
      </trkpt>
      <trkpt lat="42.263603" lon="1.001985">
        <ele>534.0</ele>
        <time>2015-08-29T11:54:59Z</time>
      </trkpt>
      <trkpt lat="42.263592" lon="1.002117">
        <ele>533.0</ele>
        <time>2015-08-29T11:55:00Z</time>
      </trkpt>
      <trkpt lat="42.263568" lon="1.002238">
        <ele>532.0</ele>
        <time>2015-08-29T11:55:01Z</time>
      </trkpt>
      <trkpt lat="42.263535" lon="1.002358">
        <ele>532.0</ele>
        <time>2015-08-29T11:55:02Z</time>
      </trkpt>
      <trkpt lat="42.263490" lon="1.002478">
        <ele>531.0</ele>
        <time>2015-08-29T11:55:03Z</time>
      </trkpt>
      <trkpt lat="42.263440" lon="1.002582">
        <ele>529.0</ele>
        <time>2015-08-29T11:55:04Z</time>
      </trkpt>
      <trkpt lat="42.263390" lon="1.002643">
        <ele>529.0</ele>
        <time>2015-08-29T11:55:05Z</time>
      </trkpt>
      <trkpt lat="42.263333" lon="1.002708">
        <ele>529.0</ele>
        <time>2015-08-29T11:55:06Z</time>
      </trkpt>
      <trkpt lat="42.263275" lon="1.002785">
        <ele>527.0</ele>
        <time>2015-08-29T11:55:07Z</time>
      </trkpt>
      <trkpt lat="42.263205" lon="1.002858">
        <ele>524.0</ele>
        <time>2015-08-29T11:55:08Z</time>
      </trkpt>
      <trkpt lat="42.263145" lon="1.002918">
        <ele>521.0</ele>
        <time>2015-08-29T11:55:09Z</time>
      </trkpt>
      <trkpt lat="42.263082" lon="1.002937">
        <ele>521.0</ele>
        <time>2015-08-29T11:55:10Z</time>
      </trkpt>
      <trkpt lat="42.263038" lon="1.002928">
        <ele>519.0</ele>
        <time>2015-08-29T11:55:11Z</time>
      </trkpt>
      <trkpt lat="42.263003" lon="1.002907">
        <ele>517.0</ele>
        <time>2015-08-29T11:55:12Z</time>
      </trkpt>
      <trkpt lat="42.262963" lon="1.002848">
        <ele>513.0</ele>
        <time>2015-08-29T11:55:14Z</time>
      </trkpt>
      <trkpt lat="42.262958" lon="1.002767">
        <ele>510.0</ele>
        <time>2015-08-29T11:55:16Z</time>
      </trkpt>
      <trkpt lat="42.262958" lon="1.002715">
        <ele>508.0</ele>
        <time>2015-08-29T11:55:17Z</time>
      </trkpt>
      <trkpt lat="42.262950" lon="1.002663">
        <ele>506.0</ele>
        <time>2015-08-29T11:55:18Z</time>
      </trkpt>
      <trkpt lat="42.262940" lon="1.002582">
        <ele>503.0</ele>
        <time>2015-08-29T11:55:20Z</time>
      </trkpt>
      <trkpt lat="42.262937" lon="1.002527">
        <ele>499.0</ele>
        <time>2015-08-29T11:55:22Z</time>
      </trkpt>
      <trkpt lat="42.262933" lon="1.002445">
        <ele>495.0</ele>
        <time>2015-08-29T11:55:24Z</time>
      </trkpt>
      <trkpt lat="42.262923" lon="1.002373">
        <ele>491.0</ele>
        <time>2015-08-29T11:55:26Z</time>
      </trkpt>
      <trkpt lat="42.262907" lon="1.002280">
        <ele>488.0</ele>
        <time>2015-08-29T11:55:28Z</time>
      </trkpt>
      <trkpt lat="42.262890" lon="1.002223">
        <ele>487.0</ele>
        <time>2015-08-29T11:55:29Z</time>
      </trkpt>
      <trkpt lat="42.262877" lon="1.002173">
        <ele>485.0</ele>
        <time>2015-08-29T11:55:30Z</time>
      </trkpt>
      <trkpt lat="42.262883" lon="1.002105">
        <ele>481.0</ele>
        <time>2015-08-29T11:55:32Z</time>
      </trkpt>
      <trkpt lat="42.262877" lon="1.002062">
        <ele>477.0</ele>
        <time>2015-08-29T11:55:47Z</time>
      </trkpt>
      <trkpt lat="42.262957" lon="1.002067">
        <ele>477.0</ele>
        <time>2015-08-29T11:56:19Z</time>
      </trkpt>
      <trkpt lat="42.262962" lon="1.002097">
        <ele>477.0</ele>
        <time>2015-08-29T11:56:38Z</time>
      </trkpt>
      <trkpt lat="42.262910" lon="1.002043">
        <ele>481.0</ele>
        <time>2015-08-29T11:57:14Z</time>
      </trkpt>
      <trkpt lat="42.262893" lon="1.002000">
        <ele>480.0</ele>
        <time>2015-08-29T11:57:28Z</time>
      </trkpt>
      <trkpt lat="42.262858" lon="1.001973">
        <ele>479.0</ele>
        <time>2015-08-29T11:57:42Z</time>
      </trkpt>
      <trkpt lat="42.262852" lon="1.002022">
        <ele>479.0</ele>
        <time>2015-08-29T11:58:17Z</time>
      </trkpt>
      <trkpt lat="42.262863" lon="1.001983">
        <ele>481.0</ele>
        <time>2015-08-29T11:58:42Z</time>
      </trkpt>
      <trkpt lat="42.262843" lon="1.001923">
        <ele>485.0</ele>
        <time>2015-08-29T11:59:36Z</time>
      </trkpt>
      <trkpt lat="42.262825" lon="1.001882">
        <ele>488.0</ele>
        <time>2015-08-29T12:00:10Z</time>
      </trkpt>
      <trkpt lat="42.262828" lon="1.001908">
        <ele>487.0</ele>
        <time>2015-08-29T12:00:13Z</time>
      </trkpt>
      <trkpt lat="42.262818" lon="1.001930">
        <ele>486.0</ele>
        <time>2015-08-29T12:00:43Z</time>
      </trkpt>
      <trkpt lat="42.262817" lon="1.001905">
        <ele>490.0</ele>
        <time>2015-08-29T12:01:01Z</time>
      </trkpt>
      <trkpt lat="42.262810" lon="1.001880">
        <ele>491.0</ele>
        <time>2015-08-29T12:01:04Z</time>
      </trkpt>
      <trkpt lat="42.262800" lon="1.001855">
        <ele>499.0</ele>
        <time>2015-08-29T12:01:38Z</time>
      </trkpt>
      <trkpt lat="42.262795" lon="1.001827">
        <ele>502.0</ele>
        <time>2015-08-29T12:02:02Z</time>
      </trkpt>
      <trkpt lat="42.262783" lon="1.001790">
        <ele>505.0</ele>
        <time>2015-08-29T12:02:22Z</time>
      </trkpt>
      <trkpt lat="42.262777" lon="1.001763">
        <ele>503.0</ele>
        <time>2015-08-29T12:03:22Z</time>
      </trkpt>
      <trkpt lat="42.262762" lon="1.001767">
        <ele>505.0</ele>
        <time>2015-08-29T12:04:22Z</time>
      </trkpt>
      <trkpt lat="42.262785" lon="1.001723">
        <ele>505.0</ele>
        <time>2015-08-29T12:04:58Z</time>
      </trkpt>
      <trkpt lat="42.262772" lon="1.001743">
        <ele>507.0</ele>
        <time>2015-08-29T12:05:43Z</time>
      </trkpt>
      <trkpt lat="42.262780" lon="1.001772">
        <ele>505.0</ele>
        <time>2015-08-29T12:05:45Z</time>
      </trkpt>
      <trkpt lat="42.262772" lon="1.001747">
        <ele>504.0</ele>
        <time>2015-08-29T12:06:17Z</time>
      </trkpt>
      <trkpt lat="42.262778" lon="1.001762">
        <ele>503.0</ele>
        <time>2015-08-29T12:07:17Z</time>
      </trkpt>
      <trkpt lat="42.262773" lon="1.001807">
        <ele>501.0</ele>
        <time>2015-08-29T12:07:19Z</time>
      </trkpt>
      <trkpt lat="42.262755" lon="1.001798">
        <ele>503.0</ele>
        <time>2015-08-29T12:08:02Z</time>
      </trkpt>
      <trkpt lat="42.262767" lon="1.001823">
        <ele>501.0</ele>
        <time>2015-08-29T12:08:04Z</time>
      </trkpt>
      <trkpt lat="42.262770" lon="1.001797">
        <ele>503.0</ele>
        <time>2015-08-29T12:08:25Z</time>
      </trkpt>
      <trkpt lat="42.262770" lon="1.001823">
        <ele>502.0</ele>
        <time>2015-08-29T12:08:37Z</time>
      </trkpt>
      <trkpt lat="42.262768" lon="1.001815">
        <ele>500.0</ele>
        <time>2015-08-29T12:09:37Z</time>
      </trkpt>
      <trkpt lat="42.262768" lon="1.001815">
        <ele>500.0</ele>
        <time>2015-08-29T12:10:37Z</time>
      </trkpt>
      <trkpt lat="42.262797" lon="1.001822">
        <ele>508.0</ele>
        <time>2015-08-29T12:10:51Z</time>
      </trkpt>
      <trkpt lat="42.262808" lon="1.001845">
        <ele>505.0</ele>
        <time>2015-08-29T12:10:53Z</time>
      </trkpt>
      <trkpt lat="42.262845" lon="1.001897">
        <ele>505.0</ele>
        <time>2015-08-29T12:11:40Z</time>
      </trkpt>
      <trkpt lat="42.262870" lon="1.001933">
        <ele>505.0</ele>
        <time>2015-08-29T12:11:43Z</time>
      </trkpt>
    </trkseg>
  </trk></gpx>